<?xml version='1.0' encoding='UTF-8' ?>
<gpx version="1.1" creator="S Health_0.2" xmlns="http://www.topografix.com/GPX/1/1" xmlns:gpxtpx="http://www.garmin.com/xmlschemas/TrackPointExtension/v1" xmlns:xsi="http://www.w3.org/2001/XMLSchema-instance" xsi:schemaLocation="http://www.topografix.com/GPX/1/1 http://www.topografix.com/GPX/1/1/gpx.xsd http://www.garmin.com/xmlschemas/TrackPointExtension/v1 http://www.garmin.com/xmlschemas/TrackPointExtensionv1.xsd">
  <metadate>2022-02-17T07:52:30Z</metadate>
  <trk>
    <name>Sennely-20220217_085229.gpx</name>
    <trkseg>
      <trkpt lat="47.64369" lon="2.1622097">
        <ele>189.0</ele>
        <time>2022-02-17T07:52:30Z</time>
      </trkpt>
      <trkpt lat="47.64369" lon="2.1622097">
        <ele>189.0</ele>
        <time>2022-02-17T07:52:31Z</time>
      </trkpt>
      <trkpt lat="47.64369" lon="2.1622097">
        <ele>189.0</ele>
        <time>2022-02-17T07:52:32Z</time>
      </trkpt>
      <trkpt lat="47.64369" lon="2.1622097">
        <ele>189.0</ele>
        <time>2022-02-17T07:52:33Z</time>
      </trkpt>
      <trkpt lat="47.64369" lon="2.1622097">
        <ele>189.0</ele>
        <time>2022-02-17T07:52:34Z</time>
      </trkpt>
      <trkpt lat="47.64369" lon="2.1622097">
        <ele>189.0</ele>
        <time>2022-02-17T07:52:35Z</time>
      </trkpt>
      <trkpt lat="47.64369" lon="2.1622097">
        <ele>189.0</ele>
        <time>2022-02-17T07:52:36Z</time>
      </trkpt>
      <trkpt lat="47.64369" lon="2.1622097">
        <ele>189.0</ele>
        <time>2022-02-17T07:52:37Z</time>
      </trkpt>
      <trkpt lat="47.643692" lon="2.1622105">
        <ele>190.0</ele>
        <time>2022-02-17T07:52:38Z</time>
      </trkpt>
      <trkpt lat="47.64368" lon="2.1622148">
        <ele>191.0</ele>
        <time>2022-02-17T07:52:41Z</time>
      </trkpt>
      <trkpt lat="47.64368" lon="2.1622105">
        <ele>192.0</ele>
        <time>2022-02-17T07:52:43Z</time>
      </trkpt>
      <trkpt lat="47.643677" lon="2.1622024">
        <ele>192.0</ele>
        <time>2022-02-17T07:52:44Z</time>
      </trkpt>
      <trkpt lat="47.643677" lon="2.1622024">
        <ele>192.0</ele>
        <time>2022-02-17T07:52:44Z</time>
      </trkpt>
      <trkpt lat="47.643677" lon="2.1622024">
        <ele>192.0</ele>
        <time>2022-02-17T07:52:44Z</time>
      </trkpt>
      <trkpt lat="47.64367" lon="2.1623042">
        <ele>180.0</ele>
        <time>2022-02-17T07:54:47Z</time>
      </trkpt>
      <trkpt lat="47.643673" lon="2.162341">
        <ele>181.0</ele>
        <time>2022-02-17T07:54:49Z</time>
      </trkpt>
      <trkpt lat="47.643684" lon="2.1623828">
        <ele>180.0</ele>
        <time>2022-02-17T07:54:51Z</time>
      </trkpt>
      <trkpt lat="47.643692" lon="2.1624186">
        <ele>180.0</ele>
        <time>2022-02-17T07:54:53Z</time>
      </trkpt>
      <trkpt lat="47.643696" lon="2.1624417">
        <ele>180.0</ele>
        <time>2022-02-17T07:54:54Z</time>
      </trkpt>
      <trkpt lat="47.6437" lon="2.162463">
        <ele>180.0</ele>
        <time>2022-02-17T07:54:55Z</time>
      </trkpt>
      <trkpt lat="47.643707" lon="2.1624997">
        <ele>180.0</ele>
        <time>2022-02-17T07:54:57Z</time>
      </trkpt>
      <trkpt lat="47.64372" lon="2.1625323">
        <ele>180.0</ele>
        <time>2022-02-17T07:54:59Z</time>
      </trkpt>
      <trkpt lat="47.643723" lon="2.1625497">
        <ele>180.0</ele>
        <time>2022-02-17T07:55:00Z</time>
      </trkpt>
      <trkpt lat="47.643723" lon="2.1625552">
        <ele>180.0</ele>
        <time>2022-02-17T07:55:01Z</time>
      </trkpt>
      <trkpt lat="47.64373" lon="2.1625457">
        <ele>179.0</ele>
        <time>2022-02-17T07:55:02Z</time>
      </trkpt>
      <trkpt lat="47.643734" lon="2.162545">
        <ele>178.0</ele>
        <time>2022-02-17T07:55:03Z</time>
      </trkpt>
      <trkpt lat="47.64374" lon="2.1625435">
        <ele>179.0</ele>
        <time>2022-02-17T07:55:04Z</time>
      </trkpt>
      <trkpt lat="47.643753" lon="2.1625392">
        <ele>178.0</ele>
        <time>2022-02-17T07:55:05Z</time>
      </trkpt>
      <trkpt lat="47.64376" lon="2.1625338">
        <ele>179.0</ele>
        <time>2022-02-17T07:55:06Z</time>
      </trkpt>
      <trkpt lat="47.643772" lon="2.1625326">
        <ele>180.0</ele>
        <time>2022-02-17T07:55:07Z</time>
      </trkpt>
      <trkpt lat="47.643784" lon="2.162531">
        <ele>180.0</ele>
        <time>2022-02-17T07:55:08Z</time>
      </trkpt>
      <trkpt lat="47.643803" lon="2.1625276">
        <ele>181.0</ele>
        <time>2022-02-17T07:55:09Z</time>
      </trkpt>
      <trkpt lat="47.643818" lon="2.162527">
        <ele>181.0</ele>
        <time>2022-02-17T07:55:10Z</time>
      </trkpt>
      <trkpt lat="47.64384" lon="2.1625357">
        <ele>180.0</ele>
        <time>2022-02-17T07:55:12Z</time>
      </trkpt>
      <trkpt lat="47.643864" lon="2.1625452">
        <ele>180.0</ele>
        <time>2022-02-17T07:55:14Z</time>
      </trkpt>
      <trkpt lat="47.643875" lon="2.162544">
        <ele>180.0</ele>
        <time>2022-02-17T07:55:15Z</time>
      </trkpt>
      <trkpt lat="47.643875" lon="2.16254">
        <ele>179.0</ele>
        <time>2022-02-17T07:55:16Z</time>
      </trkpt>
      <trkpt lat="47.64388" lon="2.1625364">
        <ele>179.0</ele>
        <time>2022-02-17T07:55:17Z</time>
      </trkpt>
      <trkpt lat="47.643875" lon="2.1625369">
        <ele>179.0</ele>
        <time>2022-02-17T07:55:18Z</time>
      </trkpt>
      <trkpt lat="47.643875" lon="2.1625378">
        <ele>179.0</ele>
        <time>2022-02-17T07:55:19Z</time>
      </trkpt>
      <trkpt lat="47.64387" lon="2.1625392">
        <ele>179.0</ele>
        <time>2022-02-17T07:55:20Z</time>
      </trkpt>
      <trkpt lat="47.64387" lon="2.162542">
        <ele>179.0</ele>
        <time>2022-02-17T07:55:21Z</time>
      </trkpt>
      <trkpt lat="47.64387" lon="2.1625435">
        <ele>179.0</ele>
        <time>2022-02-17T07:55:22Z</time>
      </trkpt>
      <trkpt lat="47.64387" lon="2.1625426">
        <ele>179.0</ele>
        <time>2022-02-17T07:55:23Z</time>
      </trkpt>
      <trkpt lat="47.64387" lon="2.1625314">
        <ele>179.0</ele>
        <time>2022-02-17T07:55:24Z</time>
      </trkpt>
      <trkpt lat="47.643867" lon="2.1625123">
        <ele>179.0</ele>
        <time>2022-02-17T07:55:25Z</time>
      </trkpt>
      <trkpt lat="47.643864" lon="2.16251">
        <ele>179.0</ele>
        <time>2022-02-17T07:55:26Z</time>
      </trkpt>
      <trkpt lat="47.643864" lon="2.1625078">
        <ele>180.0</ele>
        <time>2022-02-17T07:55:27Z</time>
      </trkpt>
      <trkpt lat="47.643864" lon="2.1625085">
        <ele>180.0</ele>
        <time>2022-02-17T07:55:28Z</time>
      </trkpt>
      <trkpt lat="47.643856" lon="2.1625059">
        <ele>180.0</ele>
        <time>2022-02-17T07:55:29Z</time>
      </trkpt>
      <trkpt lat="47.643856" lon="2.1625056">
        <ele>181.0</ele>
        <time>2022-02-17T07:55:30Z</time>
      </trkpt>
      <trkpt lat="47.64385" lon="2.162503">
        <ele>181.0</ele>
        <time>2022-02-17T07:55:31Z</time>
      </trkpt>
      <trkpt lat="47.643845" lon="2.1625175">
        <ele>180.0</ele>
        <time>2022-02-17T07:55:32Z</time>
      </trkpt>
      <trkpt lat="47.64384" lon="2.1625283">
        <ele>181.0</ele>
        <time>2022-02-17T07:55:33Z</time>
      </trkpt>
      <trkpt lat="47.643833" lon="2.162531">
        <ele>181.0</ele>
        <time>2022-02-17T07:55:34Z</time>
      </trkpt>
      <trkpt lat="47.64383" lon="2.16253">
        <ele>181.0</ele>
        <time>2022-02-17T07:55:35Z</time>
      </trkpt>
      <trkpt lat="47.643826" lon="2.1625288">
        <ele>181.0</ele>
        <time>2022-02-17T07:55:36Z</time>
      </trkpt>
      <trkpt lat="47.643818" lon="2.1625214">
        <ele>182.0</ele>
        <time>2022-02-17T07:55:37Z</time>
      </trkpt>
      <trkpt lat="47.64381" lon="2.1625223">
        <ele>181.0</ele>
        <time>2022-02-17T07:55:38Z</time>
      </trkpt>
      <trkpt lat="47.643803" lon="2.1625168">
        <ele>181.0</ele>
        <time>2022-02-17T07:55:39Z</time>
      </trkpt>
      <trkpt lat="47.64379" lon="2.162514">
        <ele>180.0</ele>
        <time>2022-02-17T07:55:40Z</time>
      </trkpt>
      <trkpt lat="47.64378" lon="2.1625068">
        <ele>180.0</ele>
        <time>2022-02-17T07:55:41Z</time>
      </trkpt>
      <trkpt lat="47.643772" lon="2.1624982">
        <ele>179.0</ele>
        <time>2022-02-17T07:55:42Z</time>
      </trkpt>
      <trkpt lat="47.64376" lon="2.162496">
        <ele>179.0</ele>
        <time>2022-02-17T07:55:43Z</time>
      </trkpt>
      <trkpt lat="47.643753" lon="2.1624935">
        <ele>179.0</ele>
        <time>2022-02-17T07:55:44Z</time>
      </trkpt>
      <trkpt lat="47.643745" lon="2.1624873">
        <ele>179.0</ele>
        <time>2022-02-17T07:55:45Z</time>
      </trkpt>
      <trkpt lat="47.64375" lon="2.1624942">
        <ele>179.0</ele>
        <time>2022-02-17T07:55:46Z</time>
      </trkpt>
      <trkpt lat="47.643745" lon="2.1624956">
        <ele>179.0</ele>
        <time>2022-02-17T07:55:47Z</time>
      </trkpt>
      <trkpt lat="47.643745" lon="2.1625054">
        <ele>179.0</ele>
        <time>2022-02-17T07:55:48Z</time>
      </trkpt>
      <trkpt lat="47.643745" lon="2.1625056">
        <ele>179.0</ele>
        <time>2022-02-17T07:55:49Z</time>
      </trkpt>
      <trkpt lat="47.643745" lon="2.1625056">
        <ele>179.0</ele>
        <time>2022-02-17T07:55:50Z</time>
      </trkpt>
      <trkpt lat="47.643745" lon="2.1625056">
        <ele>179.0</ele>
        <time>2022-02-17T07:55:50Z</time>
      </trkpt>
      <trkpt lat="47.643745" lon="2.1625056">
        <ele>179.0</ele>
        <time>2022-02-17T07:55:51Z</time>
      </trkpt>
      <trkpt lat="47.643745" lon="2.1625056">
        <ele>179.0</ele>
        <time>2022-02-17T07:55:51Z</time>
      </trkpt>
      <trkpt lat="47.643745" lon="2.1625056">
        <ele>179.0</ele>
        <time>2022-02-17T07:55:51Z</time>
      </trkpt>
      <trkpt lat="47.643734" lon="2.1625211">
        <ele>181.0</ele>
        <time>2022-02-17T07:56:04Z</time>
      </trkpt>
      <trkpt lat="47.64373" lon="2.1625361">
        <ele>181.0</ele>
        <time>2022-02-17T07:56:05Z</time>
      </trkpt>
      <trkpt lat="47.64373" lon="2.1625361">
        <ele>181.0</ele>
        <time>2022-02-17T07:56:05Z</time>
      </trkpt>
      <trkpt lat="47.643726" lon="2.1625519">
        <ele>181.0</ele>
        <time>2022-02-17T07:56:06Z</time>
      </trkpt>
      <trkpt lat="47.64372" lon="2.1625574">
        <ele>181.0</ele>
        <time>2022-02-17T07:56:07Z</time>
      </trkpt>
      <trkpt lat="47.64372" lon="2.1625543">
        <ele>181.0</ele>
        <time>2022-02-17T07:56:08Z</time>
      </trkpt>
      <trkpt lat="47.643723" lon="2.1625512">
        <ele>181.0</ele>
        <time>2022-02-17T07:56:09Z</time>
      </trkpt>
      <trkpt lat="47.643723" lon="2.1625507">
        <ele>181.0</ele>
        <time>2022-02-17T07:56:10Z</time>
      </trkpt>
      <trkpt lat="47.643723" lon="2.1625507">
        <ele>181.0</ele>
        <time>2022-02-17T07:56:11Z</time>
      </trkpt>
      <trkpt lat="47.643723" lon="2.162551">
        <ele>181.0</ele>
        <time>2022-02-17T07:56:12Z</time>
      </trkpt>
      <trkpt lat="47.643723" lon="2.162551">
        <ele>181.0</ele>
        <time>2022-02-17T07:56:12Z</time>
      </trkpt>
      <trkpt lat="47.643723" lon="2.162551">
        <ele>181.0</ele>
        <time>2022-02-17T07:56:12Z</time>
      </trkpt>
      <trkpt lat="47.643665" lon="2.1624434">
        <ele>184.0</ele>
        <time>2022-02-17T07:59:16Z</time>
      </trkpt>
      <trkpt lat="47.643665" lon="2.1624434">
        <ele>184.0</ele>
        <time>2022-02-17T07:59:16Z</time>
      </trkpt>
      <trkpt lat="47.643665" lon="2.1624434">
        <ele>184.0</ele>
        <time>2022-02-17T07:59:17Z</time>
      </trkpt>
      <trkpt lat="47.643665" lon="2.1624434">
        <ele>184.0</ele>
        <time>2022-02-17T07:59:18Z</time>
      </trkpt>
      <trkpt lat="47.643665" lon="2.1624434">
        <ele>184.0</ele>
        <time>2022-02-17T07:59:18Z</time>
      </trkpt>
      <trkpt lat="47.643665" lon="2.1624434">
        <ele>184.0</ele>
        <time>2022-02-17T07:59:18Z</time>
      </trkpt>
      <trkpt lat="47.64372" lon="2.1625447">
        <ele>193.0</ele>
        <time>2022-02-17T08:00:50Z</time>
      </trkpt>
      <trkpt lat="47.64372" lon="2.1625543">
        <ele>194.0</ele>
        <time>2022-02-17T08:00:51Z</time>
      </trkpt>
      <trkpt lat="47.643723" lon="2.1625645">
        <ele>194.0</ele>
        <time>2022-02-17T08:00:52Z</time>
      </trkpt>
      <trkpt lat="47.643723" lon="2.1625812">
        <ele>194.0</ele>
        <time>2022-02-17T08:00:53Z</time>
      </trkpt>
      <trkpt lat="47.643723" lon="2.162596">
        <ele>194.0</ele>
        <time>2022-02-17T08:00:54Z</time>
      </trkpt>
      <trkpt lat="47.643723" lon="2.1626136">
        <ele>194.0</ele>
        <time>2022-02-17T08:00:55Z</time>
      </trkpt>
      <trkpt lat="47.643723" lon="2.1626265">
        <ele>195.0</ele>
        <time>2022-02-17T08:00:56Z</time>
      </trkpt>
      <trkpt lat="47.643726" lon="2.1626413">
        <ele>194.0</ele>
        <time>2022-02-17T08:00:57Z</time>
      </trkpt>
      <trkpt lat="47.643726" lon="2.1626546">
        <ele>194.0</ele>
        <time>2022-02-17T08:00:58Z</time>
      </trkpt>
      <trkpt lat="47.64373" lon="2.1626716">
        <ele>194.0</ele>
        <time>2022-02-17T08:00:59Z</time>
      </trkpt>
      <trkpt lat="47.64373" lon="2.1626847">
        <ele>193.0</ele>
        <time>2022-02-17T08:01:00Z</time>
      </trkpt>
      <trkpt lat="47.643723" lon="2.1626933">
        <ele>194.0</ele>
        <time>2022-02-17T08:01:01Z</time>
      </trkpt>
      <trkpt lat="47.64372" lon="2.1627018">
        <ele>193.0</ele>
        <time>2022-02-17T08:01:02Z</time>
      </trkpt>
      <trkpt lat="47.64371" lon="2.1627276">
        <ele>193.0</ele>
        <time>2022-02-17T08:01:04Z</time>
      </trkpt>
      <trkpt lat="47.64371" lon="2.1627276">
        <ele>193.0</ele>
        <time>2022-02-17T08:01:04Z</time>
      </trkpt>
      <trkpt lat="47.643703" lon="2.1627405">
        <ele>193.0</ele>
        <time>2022-02-17T08:01:05Z</time>
      </trkpt>
      <trkpt lat="47.643703" lon="2.1627526">
        <ele>193.0</ele>
        <time>2022-02-17T08:01:06Z</time>
      </trkpt>
      <trkpt lat="47.643696" lon="2.162777">
        <ele>193.0</ele>
        <time>2022-02-17T08:01:08Z</time>
      </trkpt>
      <trkpt lat="47.643696" lon="2.162777">
        <ele>193.0</ele>
        <time>2022-02-17T08:01:08Z</time>
      </trkpt>
      <trkpt lat="47.643696" lon="2.162788">
        <ele>193.0</ele>
        <time>2022-02-17T08:01:09Z</time>
      </trkpt>
      <trkpt lat="47.643696" lon="2.162796">
        <ele>193.0</ele>
        <time>2022-02-17T08:01:10Z</time>
      </trkpt>
      <trkpt lat="47.643696" lon="2.1628034">
        <ele>193.0</ele>
        <time>2022-02-17T08:01:11Z</time>
      </trkpt>
      <trkpt lat="47.6437" lon="2.162815">
        <ele>192.0</ele>
        <time>2022-02-17T08:01:12Z</time>
      </trkpt>
      <trkpt lat="47.643703" lon="2.162831">
        <ele>192.0</ele>
        <time>2022-02-17T08:01:13Z</time>
      </trkpt>
      <trkpt lat="47.643707" lon="2.1628551">
        <ele>192.0</ele>
        <time>2022-02-17T08:01:15Z</time>
      </trkpt>
      <trkpt lat="47.643707" lon="2.1628551">
        <ele>192.0</ele>
        <time>2022-02-17T08:01:15Z</time>
      </trkpt>
      <trkpt lat="47.64371" lon="2.1628702">
        <ele>192.0</ele>
        <time>2022-02-17T08:01:16Z</time>
      </trkpt>
      <trkpt lat="47.64371" lon="2.1628845">
        <ele>192.0</ele>
        <time>2022-02-17T08:01:17Z</time>
      </trkpt>
      <trkpt lat="47.643715" lon="2.1628978">
        <ele>192.0</ele>
        <time>2022-02-17T08:01:18Z</time>
      </trkpt>
      <trkpt lat="47.643715" lon="2.1629133">
        <ele>193.0</ele>
        <time>2022-02-17T08:01:19Z</time>
      </trkpt>
      <trkpt lat="47.64372" lon="2.1629245">
        <ele>193.0</ele>
        <time>2022-02-17T08:01:20Z</time>
      </trkpt>
      <trkpt lat="47.643726" lon="2.1629448">
        <ele>193.0</ele>
        <time>2022-02-17T08:01:22Z</time>
      </trkpt>
      <trkpt lat="47.643726" lon="2.1629553">
        <ele>194.0</ele>
        <time>2022-02-17T08:01:23Z</time>
      </trkpt>
      <trkpt lat="47.64373" lon="2.1629627">
        <ele>193.0</ele>
        <time>2022-02-17T08:01:24Z</time>
      </trkpt>
      <trkpt lat="47.64373" lon="2.1629627">
        <ele>193.0</ele>
        <time>2022-02-17T08:01:24Z</time>
      </trkpt>
      <trkpt lat="47.643738" lon="2.1629746">
        <ele>194.0</ele>
        <time>2022-02-17T08:01:26Z</time>
      </trkpt>
      <trkpt lat="47.643738" lon="2.1629746">
        <ele>194.0</ele>
        <time>2022-02-17T08:01:26Z</time>
      </trkpt>
      <trkpt lat="47.64374" lon="2.1629884">
        <ele>193.0</ele>
        <time>2022-02-17T08:01:27Z</time>
      </trkpt>
      <trkpt lat="47.643738" lon="2.1629987">
        <ele>193.0</ele>
        <time>2022-02-17T08:01:28Z</time>
      </trkpt>
      <trkpt lat="47.643738" lon="2.163023">
        <ele>192.0</ele>
        <time>2022-02-17T08:01:30Z</time>
      </trkpt>
      <trkpt lat="47.643738" lon="2.163023">
        <ele>192.0</ele>
        <time>2022-02-17T08:01:30Z</time>
      </trkpt>
      <trkpt lat="47.64374" lon="2.1630359">
        <ele>192.0</ele>
        <time>2022-02-17T08:01:31Z</time>
      </trkpt>
      <trkpt lat="47.643745" lon="2.1630495">
        <ele>192.0</ele>
        <time>2022-02-17T08:01:32Z</time>
      </trkpt>
      <trkpt lat="47.64375" lon="2.1630633">
        <ele>192.0</ele>
        <time>2022-02-17T08:01:33Z</time>
      </trkpt>
      <trkpt lat="47.64375" lon="2.1630752">
        <ele>192.0</ele>
        <time>2022-02-17T08:01:34Z</time>
      </trkpt>
      <trkpt lat="47.643753" lon="2.1630852">
        <ele>192.0</ele>
        <time>2022-02-17T08:01:35Z</time>
      </trkpt>
      <trkpt lat="47.643757" lon="2.1630952">
        <ele>192.0</ele>
        <time>2022-02-17T08:01:36Z</time>
      </trkpt>
      <trkpt lat="47.64376" lon="2.1631103">
        <ele>192.0</ele>
        <time>2022-02-17T08:01:37Z</time>
      </trkpt>
      <trkpt lat="47.643764" lon="2.1631231">
        <ele>192.0</ele>
        <time>2022-02-17T08:01:38Z</time>
      </trkpt>
      <trkpt lat="47.643764" lon="2.163137">
        <ele>191.0</ele>
        <time>2022-02-17T08:01:39Z</time>
      </trkpt>
      <trkpt lat="47.64377" lon="2.1631508">
        <ele>192.0</ele>
        <time>2022-02-17T08:01:40Z</time>
      </trkpt>
      <trkpt lat="47.643772" lon="2.1631641">
        <ele>192.0</ele>
        <time>2022-02-17T08:01:41Z</time>
      </trkpt>
      <trkpt lat="47.64378" lon="2.1631744">
        <ele>192.0</ele>
        <time>2022-02-17T08:01:42Z</time>
      </trkpt>
      <trkpt lat="47.643784" lon="2.1631851">
        <ele>192.0</ele>
        <time>2022-02-17T08:01:43Z</time>
      </trkpt>
      <trkpt lat="47.64379" lon="2.1631887">
        <ele>192.0</ele>
        <time>2022-02-17T08:01:44Z</time>
      </trkpt>
      <trkpt lat="47.6438" lon="2.163195">
        <ele>191.0</ele>
        <time>2022-02-17T08:01:45Z</time>
      </trkpt>
      <trkpt lat="47.643806" lon="2.1631963">
        <ele>192.0</ele>
        <time>2022-02-17T08:01:46Z</time>
      </trkpt>
      <trkpt lat="47.643818" lon="2.1631994">
        <ele>191.0</ele>
        <time>2022-02-17T08:01:47Z</time>
      </trkpt>
      <trkpt lat="47.643814" lon="2.1632006">
        <ele>191.0</ele>
        <time>2022-02-17T08:01:48Z</time>
      </trkpt>
      <trkpt lat="47.643818" lon="2.163199">
        <ele>191.0</ele>
        <time>2022-02-17T08:01:49Z</time>
      </trkpt>
      <trkpt lat="47.643826" lon="2.163202">
        <ele>191.0</ele>
        <time>2022-02-17T08:01:50Z</time>
      </trkpt>
      <trkpt lat="47.643826" lon="2.163202">
        <ele>191.0</ele>
        <time>2022-02-17T08:01:51Z</time>
      </trkpt>
      <trkpt lat="47.64383" lon="2.1632104">
        <ele>191.0</ele>
        <time>2022-02-17T08:01:53Z</time>
      </trkpt>
      <trkpt lat="47.64383" lon="2.1632104">
        <ele>191.0</ele>
        <time>2022-02-17T08:01:53Z</time>
      </trkpt>
      <trkpt lat="47.643837" lon="2.1632154">
        <ele>191.0</ele>
        <time>2022-02-17T08:01:54Z</time>
      </trkpt>
      <trkpt lat="47.64385" lon="2.1632066">
        <ele>190.0</ele>
        <time>2022-02-17T08:01:55Z</time>
      </trkpt>
      <trkpt lat="47.64386" lon="2.163203">
        <ele>190.0</ele>
        <time>2022-02-17T08:01:56Z</time>
      </trkpt>
      <trkpt lat="47.643875" lon="2.1632004">
        <ele>190.0</ele>
        <time>2022-02-17T08:01:57Z</time>
      </trkpt>
      <trkpt lat="47.643887" lon="2.1631963">
        <ele>190.0</ele>
        <time>2022-02-17T08:01:58Z</time>
      </trkpt>
      <trkpt lat="47.643894" lon="2.163199">
        <ele>190.0</ele>
        <time>2022-02-17T08:01:59Z</time>
      </trkpt>
      <trkpt lat="47.643906" lon="2.1632082">
        <ele>190.0</ele>
        <time>2022-02-17T08:02:00Z</time>
      </trkpt>
      <trkpt lat="47.643917" lon="2.163218">
        <ele>190.0</ele>
        <time>2022-02-17T08:02:01Z</time>
      </trkpt>
      <trkpt lat="47.64393" lon="2.1632268">
        <ele>190.0</ele>
        <time>2022-02-17T08:02:02Z</time>
      </trkpt>
      <trkpt lat="47.643936" lon="2.1632304">
        <ele>190.0</ele>
        <time>2022-02-17T08:02:03Z</time>
      </trkpt>
      <trkpt lat="47.643944" lon="2.163231">
        <ele>189.0</ele>
        <time>2022-02-17T08:02:04Z</time>
      </trkpt>
      <trkpt lat="47.64395" lon="2.1632311">
        <ele>189.0</ele>
        <time>2022-02-17T08:02:05Z</time>
      </trkpt>
      <trkpt lat="47.643963" lon="2.1632311">
        <ele>189.0</ele>
        <time>2022-02-17T08:02:06Z</time>
      </trkpt>
      <trkpt lat="47.643963" lon="2.1632311">
        <ele>189.0</ele>
        <time>2022-02-17T08:02:08Z</time>
      </trkpt>
      <trkpt lat="47.643963" lon="2.1632311">
        <ele>189.0</ele>
        <time>2022-02-17T08:02:08Z</time>
      </trkpt>
      <trkpt lat="47.64399" lon="2.1632345">
        <ele>189.0</ele>
        <time>2022-02-17T08:02:09Z</time>
      </trkpt>
      <trkpt lat="47.643997" lon="2.1632361">
        <ele>189.0</ele>
        <time>2022-02-17T08:02:10Z</time>
      </trkpt>
      <trkpt lat="47.644012" lon="2.163241">
        <ele>189.0</ele>
        <time>2022-02-17T08:02:11Z</time>
      </trkpt>
      <trkpt lat="47.64402" lon="2.163244">
        <ele>189.0</ele>
        <time>2022-02-17T08:02:12Z</time>
      </trkpt>
      <trkpt lat="47.644028" lon="2.1632423">
        <ele>189.0</ele>
        <time>2022-02-17T08:02:13Z</time>
      </trkpt>
      <trkpt lat="47.644035" lon="2.1632433">
        <ele>188.0</ele>
        <time>2022-02-17T08:02:14Z</time>
      </trkpt>
      <trkpt lat="47.644035" lon="2.1632433">
        <ele>188.0</ele>
        <time>2022-02-17T08:02:15Z</time>
      </trkpt>
      <trkpt lat="47.644035" lon="2.1632433">
        <ele>188.0</ele>
        <time>2022-02-17T08:02:16Z</time>
      </trkpt>
      <trkpt lat="47.644054" lon="2.163249">
        <ele>190.0</ele>
        <time>2022-02-17T08:02:17Z</time>
      </trkpt>
      <trkpt lat="47.64406" lon="2.1632524">
        <ele>189.0</ele>
        <time>2022-02-17T08:02:18Z</time>
      </trkpt>
      <trkpt lat="47.64407" lon="2.1632552">
        <ele>188.0</ele>
        <time>2022-02-17T08:02:19Z</time>
      </trkpt>
      <trkpt lat="47.644077" lon="2.1632586">
        <ele>188.0</ele>
        <time>2022-02-17T08:02:20Z</time>
      </trkpt>
      <trkpt lat="47.64409" lon="2.1632621">
        <ele>187.0</ele>
        <time>2022-02-17T08:02:21Z</time>
      </trkpt>
      <trkpt lat="47.644096" lon="2.1632676">
        <ele>187.0</ele>
        <time>2022-02-17T08:02:22Z</time>
      </trkpt>
      <trkpt lat="47.644108" lon="2.16327">
        <ele>187.0</ele>
        <time>2022-02-17T08:02:23Z</time>
      </trkpt>
      <trkpt lat="47.64412" lon="2.1632702">
        <ele>187.0</ele>
        <time>2022-02-17T08:02:24Z</time>
      </trkpt>
      <trkpt lat="47.64413" lon="2.1632698">
        <ele>187.0</ele>
        <time>2022-02-17T08:02:25Z</time>
      </trkpt>
      <trkpt lat="47.644142" lon="2.1632686">
        <ele>187.0</ele>
        <time>2022-02-17T08:02:26Z</time>
      </trkpt>
      <trkpt lat="47.644157" lon="2.1632693">
        <ele>187.0</ele>
        <time>2022-02-17T08:02:27Z</time>
      </trkpt>
      <trkpt lat="47.64417" lon="2.1632698">
        <ele>187.0</ele>
        <time>2022-02-17T08:02:28Z</time>
      </trkpt>
      <trkpt lat="47.64418" lon="2.1632676">
        <ele>187.0</ele>
        <time>2022-02-17T08:02:29Z</time>
      </trkpt>
      <trkpt lat="47.64419" lon="2.1632633">
        <ele>187.0</ele>
        <time>2022-02-17T08:02:30Z</time>
      </trkpt>
      <trkpt lat="47.6442" lon="2.163261">
        <ele>188.0</ele>
        <time>2022-02-17T08:02:31Z</time>
      </trkpt>
      <trkpt lat="47.644207" lon="2.1632643">
        <ele>188.0</ele>
        <time>2022-02-17T08:02:32Z</time>
      </trkpt>
      <trkpt lat="47.64422" lon="2.1632657">
        <ele>188.0</ele>
        <time>2022-02-17T08:02:33Z</time>
      </trkpt>
      <trkpt lat="47.64422" lon="2.1632657">
        <ele>188.0</ele>
        <time>2022-02-17T08:02:34Z</time>
      </trkpt>
      <trkpt lat="47.64422" lon="2.1632657">
        <ele>188.0</ele>
        <time>2022-02-17T08:02:35Z</time>
      </trkpt>
      <trkpt lat="47.644238" lon="2.1632748">
        <ele>187.0</ele>
        <time>2022-02-17T08:02:36Z</time>
      </trkpt>
      <trkpt lat="47.644245" lon="2.1632864">
        <ele>187.0</ele>
        <time>2022-02-17T08:02:37Z</time>
      </trkpt>
      <trkpt lat="47.644257" lon="2.1632948">
        <ele>186.0</ele>
        <time>2022-02-17T08:02:38Z</time>
      </trkpt>
      <trkpt lat="47.64426" lon="2.1633003">
        <ele>185.0</ele>
        <time>2022-02-17T08:02:39Z</time>
      </trkpt>
      <trkpt lat="47.644276" lon="2.1633039">
        <ele>185.0</ele>
        <time>2022-02-17T08:02:41Z</time>
      </trkpt>
      <trkpt lat="47.644276" lon="2.1633039">
        <ele>185.0</ele>
        <time>2022-02-17T08:02:41Z</time>
      </trkpt>
      <trkpt lat="47.644287" lon="2.163308">
        <ele>185.0</ele>
        <time>2022-02-17T08:02:42Z</time>
      </trkpt>
      <trkpt lat="47.6443" lon="2.1633115">
        <ele>185.0</ele>
        <time>2022-02-17T08:02:43Z</time>
      </trkpt>
      <trkpt lat="47.64431" lon="2.1633103">
        <ele>185.0</ele>
        <time>2022-02-17T08:02:44Z</time>
      </trkpt>
      <trkpt lat="47.644333" lon="2.1633136">
        <ele>185.0</ele>
        <time>2022-02-17T08:02:46Z</time>
      </trkpt>
      <trkpt lat="47.644333" lon="2.1633136">
        <ele>185.0</ele>
        <time>2022-02-17T08:02:46Z</time>
      </trkpt>
      <trkpt lat="47.64434" lon="2.163313">
        <ele>184.0</ele>
        <time>2022-02-17T08:02:47Z</time>
      </trkpt>
      <trkpt lat="47.64434" lon="2.163313">
        <ele>184.0</ele>
        <time>2022-02-17T08:02:48Z</time>
      </trkpt>
      <trkpt lat="47.64434" lon="2.163313">
        <ele>184.0</ele>
        <time>2022-02-17T08:02:49Z</time>
      </trkpt>
      <trkpt lat="47.644367" lon="2.163306">
        <ele>184.0</ele>
        <time>2022-02-17T08:02:50Z</time>
      </trkpt>
      <trkpt lat="47.644375" lon="2.16331">
        <ele>185.0</ele>
        <time>2022-02-17T08:02:51Z</time>
      </trkpt>
      <trkpt lat="47.644382" lon="2.1633155">
        <ele>185.0</ele>
        <time>2022-02-17T08:02:52Z</time>
      </trkpt>
      <trkpt lat="47.64439" lon="2.1633208">
        <ele>185.0</ele>
        <time>2022-02-17T08:02:53Z</time>
      </trkpt>
      <trkpt lat="47.64439" lon="2.1633208">
        <ele>185.0</ele>
        <time>2022-02-17T08:02:54Z</time>
      </trkpt>
      <trkpt lat="47.644398" lon="2.1633322">
        <ele>185.0</ele>
        <time>2022-02-17T08:02:55Z</time>
      </trkpt>
      <trkpt lat="47.644405" lon="2.163333">
        <ele>185.0</ele>
        <time>2022-02-17T08:02:56Z</time>
      </trkpt>
      <trkpt lat="47.644413" lon="2.1633334">
        <ele>184.0</ele>
        <time>2022-02-17T08:02:57Z</time>
      </trkpt>
      <trkpt lat="47.64442" lon="2.1633337">
        <ele>183.0</ele>
        <time>2022-02-17T08:02:58Z</time>
      </trkpt>
      <trkpt lat="47.64443" lon="2.1633298">
        <ele>183.0</ele>
        <time>2022-02-17T08:02:59Z</time>
      </trkpt>
      <trkpt lat="47.644432" lon="2.1633282">
        <ele>182.0</ele>
        <time>2022-02-17T08:03:00Z</time>
      </trkpt>
      <trkpt lat="47.644444" lon="2.1633284">
        <ele>181.0</ele>
        <time>2022-02-17T08:03:01Z</time>
      </trkpt>
      <trkpt lat="47.64445" lon="2.163329">
        <ele>181.0</ele>
        <time>2022-02-17T08:03:02Z</time>
      </trkpt>
      <trkpt lat="47.644463" lon="2.1633306">
        <ele>180.0</ele>
        <time>2022-02-17T08:03:03Z</time>
      </trkpt>
      <trkpt lat="47.64447" lon="2.1633286">
        <ele>180.0</ele>
        <time>2022-02-17T08:03:04Z</time>
      </trkpt>
      <trkpt lat="47.644478" lon="2.1633315">
        <ele>180.0</ele>
        <time>2022-02-17T08:03:05Z</time>
      </trkpt>
      <trkpt lat="47.64448" lon="2.163334">
        <ele>180.0</ele>
        <time>2022-02-17T08:03:06Z</time>
      </trkpt>
      <trkpt lat="47.64449" lon="2.163335">
        <ele>179.0</ele>
        <time>2022-02-17T08:03:07Z</time>
      </trkpt>
      <trkpt lat="47.64449" lon="2.163335">
        <ele>179.0</ele>
        <time>2022-02-17T08:03:08Z</time>
      </trkpt>
      <trkpt lat="47.644505" lon="2.1633396">
        <ele>180.0</ele>
        <time>2022-02-17T08:03:09Z</time>
      </trkpt>
      <trkpt lat="47.644527" lon="2.1633382">
        <ele>180.0</ele>
        <time>2022-02-17T08:03:11Z</time>
      </trkpt>
      <trkpt lat="47.644527" lon="2.1633382">
        <ele>180.0</ele>
        <time>2022-02-17T08:03:11Z</time>
      </trkpt>
      <trkpt lat="47.644535" lon="2.163334">
        <ele>180.0</ele>
        <time>2022-02-17T08:03:12Z</time>
      </trkpt>
      <trkpt lat="47.644547" lon="2.1633344">
        <ele>180.0</ele>
        <time>2022-02-17T08:03:13Z</time>
      </trkpt>
      <trkpt lat="47.644554" lon="2.1633399">
        <ele>180.0</ele>
        <time>2022-02-17T08:03:14Z</time>
      </trkpt>
      <trkpt lat="47.644566" lon="2.1633408">
        <ele>179.0</ele>
        <time>2022-02-17T08:03:15Z</time>
      </trkpt>
      <trkpt lat="47.64458" lon="2.163339">
        <ele>179.0</ele>
        <time>2022-02-17T08:03:16Z</time>
      </trkpt>
      <trkpt lat="47.644592" lon="2.1633363">
        <ele>180.0</ele>
        <time>2022-02-17T08:03:17Z</time>
      </trkpt>
      <trkpt lat="47.644604" lon="2.1633365">
        <ele>179.0</ele>
        <time>2022-02-17T08:03:18Z</time>
      </trkpt>
      <trkpt lat="47.644615" lon="2.1633353">
        <ele>179.0</ele>
        <time>2022-02-17T08:03:19Z</time>
      </trkpt>
      <trkpt lat="47.644627" lon="2.163331">
        <ele>179.0</ele>
        <time>2022-02-17T08:03:20Z</time>
      </trkpt>
      <trkpt lat="47.644634" lon="2.1633296">
        <ele>178.0</ele>
        <time>2022-02-17T08:03:21Z</time>
      </trkpt>
      <trkpt lat="47.644638" lon="2.1633255">
        <ele>178.0</ele>
        <time>2022-02-17T08:03:22Z</time>
      </trkpt>
      <trkpt lat="47.644646" lon="2.1633255">
        <ele>178.0</ele>
        <time>2022-02-17T08:03:23Z</time>
      </trkpt>
      <trkpt lat="47.644646" lon="2.1633255">
        <ele>178.0</ele>
        <time>2022-02-17T08:03:24Z</time>
      </trkpt>
      <trkpt lat="47.644646" lon="2.1633255">
        <ele>178.0</ele>
        <time>2022-02-17T08:03:25Z</time>
      </trkpt>
      <trkpt lat="47.64467" lon="2.1633232">
        <ele>178.0</ele>
        <time>2022-02-17T08:03:26Z</time>
      </trkpt>
      <trkpt lat="47.644676" lon="2.1633267">
        <ele>177.0</ele>
        <time>2022-02-17T08:03:27Z</time>
      </trkpt>
      <trkpt lat="47.64468" lon="2.1633294">
        <ele>177.0</ele>
        <time>2022-02-17T08:03:28Z</time>
      </trkpt>
      <trkpt lat="47.644688" lon="2.163329">
        <ele>177.0</ele>
        <time>2022-02-17T08:03:29Z</time>
      </trkpt>
      <trkpt lat="47.644688" lon="2.163329">
        <ele>177.0</ele>
        <time>2022-02-17T08:03:30Z</time>
      </trkpt>
      <trkpt lat="47.644688" lon="2.163329">
        <ele>177.0</ele>
        <time>2022-02-17T08:03:31Z</time>
      </trkpt>
      <trkpt lat="47.6447" lon="2.1633294">
        <ele>176.0</ele>
        <time>2022-02-17T08:03:32Z</time>
      </trkpt>
      <trkpt lat="47.64471" lon="2.1633124">
        <ele>176.0</ele>
        <time>2022-02-17T08:03:33Z</time>
      </trkpt>
      <trkpt lat="47.64472" lon="2.1633255">
        <ele>176.0</ele>
        <time>2022-02-17T08:03:34Z</time>
      </trkpt>
      <trkpt lat="47.64473" lon="2.1633196">
        <ele>177.0</ele>
        <time>2022-02-17T08:03:35Z</time>
      </trkpt>
      <trkpt lat="47.64474" lon="2.1633215">
        <ele>178.0</ele>
        <time>2022-02-17T08:03:36Z</time>
      </trkpt>
      <trkpt lat="47.644753" lon="2.1633186">
        <ele>178.0</ele>
        <time>2022-02-17T08:03:37Z</time>
      </trkpt>
      <trkpt lat="47.644764" lon="2.163319">
        <ele>179.0</ele>
        <time>2022-02-17T08:03:38Z</time>
      </trkpt>
      <trkpt lat="47.64477" lon="2.1633193">
        <ele>178.0</ele>
        <time>2022-02-17T08:03:39Z</time>
      </trkpt>
      <trkpt lat="47.644787" lon="2.163322">
        <ele>178.0</ele>
        <time>2022-02-17T08:03:40Z</time>
      </trkpt>
      <trkpt lat="47.6448" lon="2.1633248">
        <ele>178.0</ele>
        <time>2022-02-17T08:03:41Z</time>
      </trkpt>
      <trkpt lat="47.64481" lon="2.1633272">
        <ele>178.0</ele>
        <time>2022-02-17T08:03:42Z</time>
      </trkpt>
      <trkpt lat="47.644825" lon="2.1633348">
        <ele>178.0</ele>
        <time>2022-02-17T08:03:43Z</time>
      </trkpt>
      <trkpt lat="47.64484" lon="2.163339">
        <ele>178.0</ele>
        <time>2022-02-17T08:03:44Z</time>
      </trkpt>
      <trkpt lat="47.644855" lon="2.163341">
        <ele>178.0</ele>
        <time>2022-02-17T08:03:45Z</time>
      </trkpt>
      <trkpt lat="47.64487" lon="2.1633399">
        <ele>179.0</ele>
        <time>2022-02-17T08:03:46Z</time>
      </trkpt>
      <trkpt lat="47.64488" lon="2.1633413">
        <ele>179.0</ele>
        <time>2022-02-17T08:03:47Z</time>
      </trkpt>
      <trkpt lat="47.64489" lon="2.1633432">
        <ele>179.0</ele>
        <time>2022-02-17T08:03:48Z</time>
      </trkpt>
      <trkpt lat="47.6449" lon="2.1633437">
        <ele>179.0</ele>
        <time>2022-02-17T08:03:49Z</time>
      </trkpt>
      <trkpt lat="47.644917" lon="2.1633441">
        <ele>179.0</ele>
        <time>2022-02-17T08:03:50Z</time>
      </trkpt>
      <trkpt lat="47.64493" lon="2.1633482">
        <ele>180.0</ele>
        <time>2022-02-17T08:03:51Z</time>
      </trkpt>
      <trkpt lat="47.644947" lon="2.1633577">
        <ele>180.0</ele>
        <time>2022-02-17T08:03:52Z</time>
      </trkpt>
      <trkpt lat="47.64496" lon="2.1633615">
        <ele>180.0</ele>
        <time>2022-02-17T08:03:53Z</time>
      </trkpt>
      <trkpt lat="47.644974" lon="2.163365">
        <ele>181.0</ele>
        <time>2022-02-17T08:03:54Z</time>
      </trkpt>
      <trkpt lat="47.64499" lon="2.163365">
        <ele>182.0</ele>
        <time>2022-02-17T08:03:55Z</time>
      </trkpt>
      <trkpt lat="47.645008" lon="2.1633635">
        <ele>182.0</ele>
        <time>2022-02-17T08:03:56Z</time>
      </trkpt>
      <trkpt lat="47.64502" lon="2.163354">
        <ele>183.0</ele>
        <time>2022-02-17T08:03:57Z</time>
      </trkpt>
      <trkpt lat="47.645035" lon="2.1633518">
        <ele>183.0</ele>
        <time>2022-02-17T08:03:58Z</time>
      </trkpt>
      <trkpt lat="47.645046" lon="2.1633468">
        <ele>183.0</ele>
        <time>2022-02-17T08:03:59Z</time>
      </trkpt>
      <trkpt lat="47.645058" lon="2.1633496">
        <ele>183.0</ele>
        <time>2022-02-17T08:04:00Z</time>
      </trkpt>
      <trkpt lat="47.645073" lon="2.1633468">
        <ele>183.0</ele>
        <time>2022-02-17T08:04:01Z</time>
      </trkpt>
      <trkpt lat="47.645084" lon="2.1633477">
        <ele>185.0</ele>
        <time>2022-02-17T08:04:02Z</time>
      </trkpt>
      <trkpt lat="47.645096" lon="2.1633465">
        <ele>185.0</ele>
        <time>2022-02-17T08:04:03Z</time>
      </trkpt>
      <trkpt lat="47.645107" lon="2.1633494">
        <ele>185.0</ele>
        <time>2022-02-17T08:04:04Z</time>
      </trkpt>
      <trkpt lat="47.64512" lon="2.1633492">
        <ele>186.0</ele>
        <time>2022-02-17T08:04:05Z</time>
      </trkpt>
      <trkpt lat="47.645126" lon="2.1633484">
        <ele>185.0</ele>
        <time>2022-02-17T08:04:06Z</time>
      </trkpt>
      <trkpt lat="47.645138" lon="2.1633468">
        <ele>185.0</ele>
        <time>2022-02-17T08:04:07Z</time>
      </trkpt>
      <trkpt lat="47.645153" lon="2.1633437">
        <ele>185.0</ele>
        <time>2022-02-17T08:04:08Z</time>
      </trkpt>
      <trkpt lat="47.645164" lon="2.1633394">
        <ele>185.0</ele>
        <time>2022-02-17T08:04:09Z</time>
      </trkpt>
      <trkpt lat="47.64518" lon="2.1633337">
        <ele>185.0</ele>
        <time>2022-02-17T08:04:10Z</time>
      </trkpt>
      <trkpt lat="47.64519" lon="2.1633291">
        <ele>185.0</ele>
        <time>2022-02-17T08:04:11Z</time>
      </trkpt>
      <trkpt lat="47.645203" lon="2.1633248">
        <ele>185.0</ele>
        <time>2022-02-17T08:04:12Z</time>
      </trkpt>
      <trkpt lat="47.645214" lon="2.1633246">
        <ele>185.0</ele>
        <time>2022-02-17T08:04:13Z</time>
      </trkpt>
      <trkpt lat="47.645226" lon="2.1633308">
        <ele>185.0</ele>
        <time>2022-02-17T08:04:14Z</time>
      </trkpt>
      <trkpt lat="47.645237" lon="2.1633284">
        <ele>185.0</ele>
        <time>2022-02-17T08:04:15Z</time>
      </trkpt>
      <trkpt lat="47.64525" lon="2.1633213">
        <ele>185.0</ele>
        <time>2022-02-17T08:04:16Z</time>
      </trkpt>
      <trkpt lat="47.645264" lon="2.1633146">
        <ele>185.0</ele>
        <time>2022-02-17T08:04:17Z</time>
      </trkpt>
      <trkpt lat="47.645275" lon="2.163311">
        <ele>185.0</ele>
        <time>2022-02-17T08:04:18Z</time>
      </trkpt>
      <trkpt lat="47.645287" lon="2.1633048">
        <ele>185.0</ele>
        <time>2022-02-17T08:04:19Z</time>
      </trkpt>
      <trkpt lat="47.645298" lon="2.1633017">
        <ele>185.0</ele>
        <time>2022-02-17T08:04:20Z</time>
      </trkpt>
      <trkpt lat="47.645313" lon="2.1632998">
        <ele>185.0</ele>
        <time>2022-02-17T08:04:21Z</time>
      </trkpt>
      <trkpt lat="47.645325" lon="2.163297">
        <ele>185.0</ele>
        <time>2022-02-17T08:04:22Z</time>
      </trkpt>
      <trkpt lat="47.645344" lon="2.1632953">
        <ele>185.0</ele>
        <time>2022-02-17T08:04:23Z</time>
      </trkpt>
      <trkpt lat="47.64537" lon="2.1632938">
        <ele>185.0</ele>
        <time>2022-02-17T08:04:25Z</time>
      </trkpt>
      <trkpt lat="47.645393" lon="2.1632998">
        <ele>185.0</ele>
        <time>2022-02-17T08:04:27Z</time>
      </trkpt>
      <trkpt lat="47.645405" lon="2.1633053">
        <ele>186.0</ele>
        <time>2022-02-17T08:04:28Z</time>
      </trkpt>
      <trkpt lat="47.64542" lon="2.1633093">
        <ele>186.0</ele>
        <time>2022-02-17T08:04:29Z</time>
      </trkpt>
      <trkpt lat="47.645435" lon="2.1633177">
        <ele>186.0</ele>
        <time>2022-02-17T08:04:30Z</time>
      </trkpt>
      <trkpt lat="47.64545" lon="2.1633224">
        <ele>186.0</ele>
        <time>2022-02-17T08:04:31Z</time>
      </trkpt>
      <trkpt lat="47.645454" lon="2.16333">
        <ele>186.0</ele>
        <time>2022-02-17T08:04:32Z</time>
      </trkpt>
      <trkpt lat="47.645462" lon="2.1633368">
        <ele>185.0</ele>
        <time>2022-02-17T08:04:33Z</time>
      </trkpt>
      <trkpt lat="47.64547" lon="2.1633446">
        <ele>185.0</ele>
        <time>2022-02-17T08:04:34Z</time>
      </trkpt>
      <trkpt lat="47.64548" lon="2.163352">
        <ele>185.0</ele>
        <time>2022-02-17T08:04:35Z</time>
      </trkpt>
      <trkpt lat="47.645493" lon="2.1633582">
        <ele>185.0</ele>
        <time>2022-02-17T08:04:36Z</time>
      </trkpt>
      <trkpt lat="47.6455" lon="2.1633644">
        <ele>185.0</ele>
        <time>2022-02-17T08:04:37Z</time>
      </trkpt>
      <trkpt lat="47.64551" lon="2.16337">
        <ele>185.0</ele>
        <time>2022-02-17T08:04:38Z</time>
      </trkpt>
      <trkpt lat="47.645523" lon="2.1633763">
        <ele>185.0</ele>
        <time>2022-02-17T08:04:39Z</time>
      </trkpt>
      <trkpt lat="47.645535" lon="2.1633847">
        <ele>185.0</ele>
        <time>2022-02-17T08:04:40Z</time>
      </trkpt>
      <trkpt lat="47.645546" lon="2.1633933">
        <ele>185.0</ele>
        <time>2022-02-17T08:04:41Z</time>
      </trkpt>
      <trkpt lat="47.64556" lon="2.1634078">
        <ele>185.0</ele>
        <time>2022-02-17T08:04:42Z</time>
      </trkpt>
      <trkpt lat="47.645573" lon="2.1634235">
        <ele>185.0</ele>
        <time>2022-02-17T08:04:43Z</time>
      </trkpt>
      <trkpt lat="47.645584" lon="2.1634347">
        <ele>184.0</ele>
        <time>2022-02-17T08:04:44Z</time>
      </trkpt>
      <trkpt lat="47.64559" lon="2.1634443">
        <ele>184.0</ele>
        <time>2022-02-17T08:04:45Z</time>
      </trkpt>
      <trkpt lat="47.6456" lon="2.1634614">
        <ele>184.0</ele>
        <time>2022-02-17T08:04:46Z</time>
      </trkpt>
      <trkpt lat="47.645607" lon="2.1634765">
        <ele>184.0</ele>
        <time>2022-02-17T08:04:47Z</time>
      </trkpt>
      <trkpt lat="47.64562" lon="2.1634898">
        <ele>184.0</ele>
        <time>2022-02-17T08:04:48Z</time>
      </trkpt>
      <trkpt lat="47.64563" lon="2.1634965">
        <ele>184.0</ele>
        <time>2022-02-17T08:04:49Z</time>
      </trkpt>
      <trkpt lat="47.64564" lon="2.1635072">
        <ele>184.0</ele>
        <time>2022-02-17T08:04:50Z</time>
      </trkpt>
      <trkpt lat="47.645653" lon="2.1635184">
        <ele>184.0</ele>
        <time>2022-02-17T08:04:51Z</time>
      </trkpt>
      <trkpt lat="47.645664" lon="2.163531">
        <ele>184.0</ele>
        <time>2022-02-17T08:04:52Z</time>
      </trkpt>
      <trkpt lat="47.64567" lon="2.1635423">
        <ele>183.0</ele>
        <time>2022-02-17T08:04:53Z</time>
      </trkpt>
      <trkpt lat="47.645683" lon="2.1635532">
        <ele>183.0</ele>
        <time>2022-02-17T08:04:54Z</time>
      </trkpt>
      <trkpt lat="47.64569" lon="2.163562">
        <ele>184.0</ele>
        <time>2022-02-17T08:04:55Z</time>
      </trkpt>
      <trkpt lat="47.645702" lon="2.163569">
        <ele>184.0</ele>
        <time>2022-02-17T08:04:56Z</time>
      </trkpt>
      <trkpt lat="47.64571" lon="2.1635783">
        <ele>184.0</ele>
        <time>2022-02-17T08:04:57Z</time>
      </trkpt>
      <trkpt lat="47.64572" lon="2.1635828">
        <ele>185.0</ele>
        <time>2022-02-17T08:04:58Z</time>
      </trkpt>
      <trkpt lat="47.64573" lon="2.1635888">
        <ele>185.0</ele>
        <time>2022-02-17T08:04:59Z</time>
      </trkpt>
      <trkpt lat="47.645737" lon="2.163592">
        <ele>185.0</ele>
        <time>2022-02-17T08:05:00Z</time>
      </trkpt>
      <trkpt lat="47.645744" lon="2.1635993">
        <ele>185.0</ele>
        <time>2022-02-17T08:05:01Z</time>
      </trkpt>
      <trkpt lat="47.645756" lon="2.1636064">
        <ele>185.0</ele>
        <time>2022-02-17T08:05:02Z</time>
      </trkpt>
      <trkpt lat="47.64577" lon="2.1636171">
        <ele>185.0</ele>
        <time>2022-02-17T08:05:03Z</time>
      </trkpt>
      <trkpt lat="47.645782" lon="2.1636274">
        <ele>184.0</ele>
        <time>2022-02-17T08:05:04Z</time>
      </trkpt>
      <trkpt lat="47.645794" lon="2.1636307">
        <ele>184.0</ele>
        <time>2022-02-17T08:05:05Z</time>
      </trkpt>
      <trkpt lat="47.645805" lon="2.163635">
        <ele>184.0</ele>
        <time>2022-02-17T08:05:06Z</time>
      </trkpt>
      <trkpt lat="47.645817" lon="2.1636431">
        <ele>184.0</ele>
        <time>2022-02-17T08:05:07Z</time>
      </trkpt>
      <trkpt lat="47.64583" lon="2.1636508">
        <ele>184.0</ele>
        <time>2022-02-17T08:05:08Z</time>
      </trkpt>
      <trkpt lat="47.645844" lon="2.163657">
        <ele>184.0</ele>
        <time>2022-02-17T08:05:09Z</time>
      </trkpt>
      <trkpt lat="47.645855" lon="2.1636627">
        <ele>184.0</ele>
        <time>2022-02-17T08:05:10Z</time>
      </trkpt>
      <trkpt lat="47.64587" lon="2.1636677">
        <ele>184.0</ele>
        <time>2022-02-17T08:05:11Z</time>
      </trkpt>
      <trkpt lat="47.645885" lon="2.1636758">
        <ele>185.0</ele>
        <time>2022-02-17T08:05:12Z</time>
      </trkpt>
      <trkpt lat="47.645897" lon="2.1636815">
        <ele>185.0</ele>
        <time>2022-02-17T08:05:13Z</time>
      </trkpt>
      <trkpt lat="47.645912" lon="2.1636863">
        <ele>185.0</ele>
        <time>2022-02-17T08:05:14Z</time>
      </trkpt>
      <trkpt lat="47.645924" lon="2.163689">
        <ele>185.0</ele>
        <time>2022-02-17T08:05:15Z</time>
      </trkpt>
      <trkpt lat="47.64594" lon="2.1636965">
        <ele>185.0</ele>
        <time>2022-02-17T08:05:16Z</time>
      </trkpt>
      <trkpt lat="47.64595" lon="2.1637003">
        <ele>186.0</ele>
        <time>2022-02-17T08:05:17Z</time>
      </trkpt>
      <trkpt lat="47.64596" lon="2.163704">
        <ele>186.0</ele>
        <time>2022-02-17T08:05:18Z</time>
      </trkpt>
      <trkpt lat="47.645977" lon="2.16371">
        <ele>186.0</ele>
        <time>2022-02-17T08:05:19Z</time>
      </trkpt>
      <trkpt lat="47.64599" lon="2.1637156">
        <ele>186.0</ele>
        <time>2022-02-17T08:05:20Z</time>
      </trkpt>
      <trkpt lat="47.646004" lon="2.1637185">
        <ele>186.0</ele>
        <time>2022-02-17T08:05:21Z</time>
      </trkpt>
      <trkpt lat="47.64602" lon="2.163724">
        <ele>187.0</ele>
        <time>2022-02-17T08:05:22Z</time>
      </trkpt>
      <trkpt lat="47.64603" lon="2.1637275">
        <ele>187.0</ele>
        <time>2022-02-17T08:05:23Z</time>
      </trkpt>
      <trkpt lat="47.646046" lon="2.1637313">
        <ele>187.0</ele>
        <time>2022-02-17T08:05:24Z</time>
      </trkpt>
      <trkpt lat="47.646053" lon="2.1637368">
        <ele>187.0</ele>
        <time>2022-02-17T08:05:25Z</time>
      </trkpt>
      <trkpt lat="47.64606" lon="2.163736">
        <ele>186.0</ele>
        <time>2022-02-17T08:05:26Z</time>
      </trkpt>
      <trkpt lat="47.646072" lon="2.163744">
        <ele>186.0</ele>
        <time>2022-02-17T08:05:27Z</time>
      </trkpt>
      <trkpt lat="47.646084" lon="2.1637526">
        <ele>186.0</ele>
        <time>2022-02-17T08:05:28Z</time>
      </trkpt>
      <trkpt lat="47.646095" lon="2.163763">
        <ele>186.0</ele>
        <time>2022-02-17T08:05:29Z</time>
      </trkpt>
      <trkpt lat="47.646103" lon="2.1637728">
        <ele>186.0</ele>
        <time>2022-02-17T08:05:30Z</time>
      </trkpt>
      <trkpt lat="47.64612" lon="2.1637807">
        <ele>187.0</ele>
        <time>2022-02-17T08:05:31Z</time>
      </trkpt>
      <trkpt lat="47.64613" lon="2.163783">
        <ele>187.0</ele>
        <time>2022-02-17T08:05:32Z</time>
      </trkpt>
      <trkpt lat="47.646137" lon="2.1637888">
        <ele>187.0</ele>
        <time>2022-02-17T08:05:33Z</time>
      </trkpt>
      <trkpt lat="47.64615" lon="2.163795">
        <ele>187.0</ele>
        <time>2022-02-17T08:05:34Z</time>
      </trkpt>
      <trkpt lat="47.64616" lon="2.1637974">
        <ele>187.0</ele>
        <time>2022-02-17T08:05:35Z</time>
      </trkpt>
      <trkpt lat="47.64617" lon="2.1638012">
        <ele>187.0</ele>
        <time>2022-02-17T08:05:36Z</time>
      </trkpt>
      <trkpt lat="47.646187" lon="2.1638038">
        <ele>188.0</ele>
        <time>2022-02-17T08:05:37Z</time>
      </trkpt>
      <trkpt lat="47.6462" lon="2.1638055">
        <ele>188.0</ele>
        <time>2022-02-17T08:05:38Z</time>
      </trkpt>
      <trkpt lat="47.64621" lon="2.1638079">
        <ele>188.0</ele>
        <time>2022-02-17T08:05:39Z</time>
      </trkpt>
      <trkpt lat="47.646217" lon="2.163809">
        <ele>188.0</ele>
        <time>2022-02-17T08:05:40Z</time>
      </trkpt>
      <trkpt lat="47.646233" lon="2.1638103">
        <ele>188.0</ele>
        <time>2022-02-17T08:05:41Z</time>
      </trkpt>
      <trkpt lat="47.646244" lon="2.163813">
        <ele>188.0</ele>
        <time>2022-02-17T08:05:42Z</time>
      </trkpt>
      <trkpt lat="47.646255" lon="2.1638136">
        <ele>188.0</ele>
        <time>2022-02-17T08:05:43Z</time>
      </trkpt>
      <trkpt lat="47.646267" lon="2.1638196">
        <ele>188.0</ele>
        <time>2022-02-17T08:05:44Z</time>
      </trkpt>
      <trkpt lat="47.646282" lon="2.1638234">
        <ele>188.0</ele>
        <time>2022-02-17T08:05:45Z</time>
      </trkpt>
      <trkpt lat="47.646294" lon="2.163828">
        <ele>188.0</ele>
        <time>2022-02-17T08:05:46Z</time>
      </trkpt>
      <trkpt lat="47.64631" lon="2.1638365">
        <ele>188.0</ele>
        <time>2022-02-17T08:05:47Z</time>
      </trkpt>
      <trkpt lat="47.646324" lon="2.1638448">
        <ele>189.0</ele>
        <time>2022-02-17T08:05:48Z</time>
      </trkpt>
      <trkpt lat="47.646336" lon="2.163851">
        <ele>189.0</ele>
        <time>2022-02-17T08:05:49Z</time>
      </trkpt>
      <trkpt lat="47.646347" lon="2.1638577">
        <ele>189.0</ele>
        <time>2022-02-17T08:05:50Z</time>
      </trkpt>
      <trkpt lat="47.64636" lon="2.1638618">
        <ele>189.0</ele>
        <time>2022-02-17T08:05:51Z</time>
      </trkpt>
      <trkpt lat="47.646362" lon="2.1638672">
        <ele>189.0</ele>
        <time>2022-02-17T08:05:52Z</time>
      </trkpt>
      <trkpt lat="47.646374" lon="2.1638744">
        <ele>189.0</ele>
        <time>2022-02-17T08:05:53Z</time>
      </trkpt>
      <trkpt lat="47.646385" lon="2.163884">
        <ele>189.0</ele>
        <time>2022-02-17T08:05:54Z</time>
      </trkpt>
      <trkpt lat="47.646393" lon="2.1638901">
        <ele>189.0</ele>
        <time>2022-02-17T08:05:55Z</time>
      </trkpt>
      <trkpt lat="47.646404" lon="2.1638956">
        <ele>188.0</ele>
        <time>2022-02-17T08:05:56Z</time>
      </trkpt>
      <trkpt lat="47.646416" lon="2.1638994">
        <ele>188.0</ele>
        <time>2022-02-17T08:05:57Z</time>
      </trkpt>
      <trkpt lat="47.64642" lon="2.1639032">
        <ele>189.0</ele>
        <time>2022-02-17T08:05:58Z</time>
      </trkpt>
      <trkpt lat="47.64642" lon="2.163904">
        <ele>189.0</ele>
        <time>2022-02-17T08:05:59Z</time>
      </trkpt>
      <trkpt lat="47.64643" lon="2.1639025">
        <ele>189.0</ele>
        <time>2022-02-17T08:06:00Z</time>
      </trkpt>
      <trkpt lat="47.64644" lon="2.1639037">
        <ele>190.0</ele>
        <time>2022-02-17T08:06:01Z</time>
      </trkpt>
      <trkpt lat="47.646446" lon="2.1639092">
        <ele>190.0</ele>
        <time>2022-02-17T08:06:02Z</time>
      </trkpt>
      <trkpt lat="47.64645" lon="2.1639123">
        <ele>190.0</ele>
        <time>2022-02-17T08:06:03Z</time>
      </trkpt>
      <trkpt lat="47.646454" lon="2.163916">
        <ele>189.0</ele>
        <time>2022-02-17T08:06:04Z</time>
      </trkpt>
      <trkpt lat="47.646454" lon="2.1639156">
        <ele>190.0</ele>
        <time>2022-02-17T08:06:05Z</time>
      </trkpt>
      <trkpt lat="47.646454" lon="2.1639156">
        <ele>190.0</ele>
        <time>2022-02-17T08:06:06Z</time>
      </trkpt>
      <trkpt lat="47.646454" lon="2.1639156">
        <ele>190.0</ele>
        <time>2022-02-17T08:06:06Z</time>
      </trkpt>
      <trkpt lat="47.646454" lon="2.1639156">
        <ele>190.0</ele>
        <time>2022-02-17T08:06:06Z</time>
      </trkpt>
      <trkpt lat="47.6465" lon="2.1639318">
        <ele>191.0</ele>
        <time>2022-02-17T08:06:12Z</time>
      </trkpt>
      <trkpt lat="47.64651" lon="2.163935">
        <ele>191.0</ele>
        <time>2022-02-17T08:06:13Z</time>
      </trkpt>
      <trkpt lat="47.64652" lon="2.163939">
        <ele>190.0</ele>
        <time>2022-02-17T08:06:14Z</time>
      </trkpt>
      <trkpt lat="47.64653" lon="2.1639414">
        <ele>190.0</ele>
        <time>2022-02-17T08:06:15Z</time>
      </trkpt>
      <trkpt lat="47.64654" lon="2.163944">
        <ele>190.0</ele>
        <time>2022-02-17T08:06:16Z</time>
      </trkpt>
      <trkpt lat="47.646553" lon="2.1639483">
        <ele>190.0</ele>
        <time>2022-02-17T08:06:17Z</time>
      </trkpt>
      <trkpt lat="47.64656" lon="2.163952">
        <ele>191.0</ele>
        <time>2022-02-17T08:06:18Z</time>
      </trkpt>
      <trkpt lat="47.646572" lon="2.1639576">
        <ele>191.0</ele>
        <time>2022-02-17T08:06:19Z</time>
      </trkpt>
      <trkpt lat="47.646584" lon="2.1639655">
        <ele>191.0</ele>
        <time>2022-02-17T08:06:20Z</time>
      </trkpt>
      <trkpt lat="47.64659" lon="2.1639736">
        <ele>191.0</ele>
        <time>2022-02-17T08:06:21Z</time>
      </trkpt>
      <trkpt lat="47.6466" lon="2.1639807">
        <ele>190.0</ele>
        <time>2022-02-17T08:06:22Z</time>
      </trkpt>
      <trkpt lat="47.64661" lon="2.1639862">
        <ele>190.0</ele>
        <time>2022-02-17T08:06:23Z</time>
      </trkpt>
      <trkpt lat="47.64662" lon="2.1639926">
        <ele>190.0</ele>
        <time>2022-02-17T08:06:24Z</time>
      </trkpt>
      <trkpt lat="47.646633" lon="2.164002">
        <ele>190.0</ele>
        <time>2022-02-17T08:06:25Z</time>
      </trkpt>
      <trkpt lat="47.64664" lon="2.164009">
        <ele>189.0</ele>
        <time>2022-02-17T08:06:26Z</time>
      </trkpt>
      <trkpt lat="47.646656" lon="2.1640153">
        <ele>189.0</ele>
        <time>2022-02-17T08:06:27Z</time>
      </trkpt>
      <trkpt lat="47.646664" lon="2.1640198">
        <ele>189.0</ele>
        <time>2022-02-17T08:06:28Z</time>
      </trkpt>
      <trkpt lat="47.646675" lon="2.1640263">
        <ele>188.0</ele>
        <time>2022-02-17T08:06:29Z</time>
      </trkpt>
      <trkpt lat="47.646683" lon="2.164032">
        <ele>188.0</ele>
        <time>2022-02-17T08:06:30Z</time>
      </trkpt>
      <trkpt lat="47.646694" lon="2.1640325">
        <ele>187.0</ele>
        <time>2022-02-17T08:06:31Z</time>
      </trkpt>
      <trkpt lat="47.6467" lon="2.164044">
        <ele>186.0</ele>
        <time>2022-02-17T08:06:32Z</time>
      </trkpt>
      <trkpt lat="47.646713" lon="2.1640458">
        <ele>186.0</ele>
        <time>2022-02-17T08:06:33Z</time>
      </trkpt>
      <trkpt lat="47.64672" lon="2.1640525">
        <ele>185.0</ele>
        <time>2022-02-17T08:06:34Z</time>
      </trkpt>
      <trkpt lat="47.646736" lon="2.1640592">
        <ele>185.0</ele>
        <time>2022-02-17T08:06:35Z</time>
      </trkpt>
      <trkpt lat="47.646744" lon="2.1640618">
        <ele>185.0</ele>
        <time>2022-02-17T08:06:36Z</time>
      </trkpt>
      <trkpt lat="47.646755" lon="2.164066">
        <ele>184.0</ele>
        <time>2022-02-17T08:06:37Z</time>
      </trkpt>
      <trkpt lat="47.646767" lon="2.1640697">
        <ele>184.0</ele>
        <time>2022-02-17T08:06:38Z</time>
      </trkpt>
      <trkpt lat="47.646774" lon="2.1640792">
        <ele>184.0</ele>
        <time>2022-02-17T08:06:39Z</time>
      </trkpt>
      <trkpt lat="47.646786" lon="2.1640832">
        <ele>184.0</ele>
        <time>2022-02-17T08:06:40Z</time>
      </trkpt>
      <trkpt lat="47.646797" lon="2.164082">
        <ele>184.0</ele>
        <time>2022-02-17T08:06:41Z</time>
      </trkpt>
      <trkpt lat="47.64681" lon="2.1640902">
        <ele>184.0</ele>
        <time>2022-02-17T08:06:42Z</time>
      </trkpt>
      <trkpt lat="47.64682" lon="2.1640966">
        <ele>184.0</ele>
        <time>2022-02-17T08:06:43Z</time>
      </trkpt>
      <trkpt lat="47.64683" lon="2.1640995">
        <ele>184.0</ele>
        <time>2022-02-17T08:06:44Z</time>
      </trkpt>
      <trkpt lat="47.646843" lon="2.1641054">
        <ele>183.0</ele>
        <time>2022-02-17T08:06:45Z</time>
      </trkpt>
      <trkpt lat="47.646854" lon="2.1641135">
        <ele>183.0</ele>
        <time>2022-02-17T08:06:46Z</time>
      </trkpt>
      <trkpt lat="47.646866" lon="2.1641243">
        <ele>183.0</ele>
        <time>2022-02-17T08:06:47Z</time>
      </trkpt>
      <trkpt lat="47.646877" lon="2.1641319">
        <ele>183.0</ele>
        <time>2022-02-17T08:06:48Z</time>
      </trkpt>
      <trkpt lat="47.64689" lon="2.1641424">
        <ele>183.0</ele>
        <time>2022-02-17T08:06:49Z</time>
      </trkpt>
      <trkpt lat="47.646904" lon="2.1641476">
        <ele>183.0</ele>
        <time>2022-02-17T08:06:50Z</time>
      </trkpt>
      <trkpt lat="47.64691" lon="2.1641538">
        <ele>183.0</ele>
        <time>2022-02-17T08:06:51Z</time>
      </trkpt>
      <trkpt lat="47.646915" lon="2.1641605">
        <ele>184.0</ele>
        <time>2022-02-17T08:06:52Z</time>
      </trkpt>
      <trkpt lat="47.64693" lon="2.1641707">
        <ele>184.0</ele>
        <time>2022-02-17T08:06:53Z</time>
      </trkpt>
      <trkpt lat="47.646946" lon="2.16418">
        <ele>184.0</ele>
        <time>2022-02-17T08:06:54Z</time>
      </trkpt>
      <trkpt lat="47.64696" lon="2.1641862">
        <ele>185.0</ele>
        <time>2022-02-17T08:06:55Z</time>
      </trkpt>
      <trkpt lat="47.646976" lon="2.1641903">
        <ele>185.0</ele>
        <time>2022-02-17T08:06:56Z</time>
      </trkpt>
      <trkpt lat="47.646988" lon="2.1641953">
        <ele>185.0</ele>
        <time>2022-02-17T08:06:57Z</time>
      </trkpt>
      <trkpt lat="47.647" lon="2.1641984">
        <ele>185.0</ele>
        <time>2022-02-17T08:06:58Z</time>
      </trkpt>
      <trkpt lat="47.64702" lon="2.164207">
        <ele>185.0</ele>
        <time>2022-02-17T08:06:59Z</time>
      </trkpt>
      <trkpt lat="47.64703" lon="2.1642148">
        <ele>186.0</ele>
        <time>2022-02-17T08:07:00Z</time>
      </trkpt>
      <trkpt lat="47.64704" lon="2.16422">
        <ele>186.0</ele>
        <time>2022-02-17T08:07:01Z</time>
      </trkpt>
      <trkpt lat="47.647057" lon="2.1642263">
        <ele>186.0</ele>
        <time>2022-02-17T08:07:02Z</time>
      </trkpt>
      <trkpt lat="47.64707" lon="2.1642323">
        <ele>187.0</ele>
        <time>2022-02-17T08:07:03Z</time>
      </trkpt>
      <trkpt lat="47.647087" lon="2.1642349">
        <ele>187.0</ele>
        <time>2022-02-17T08:07:04Z</time>
      </trkpt>
      <trkpt lat="47.647102" lon="2.164243">
        <ele>187.0</ele>
        <time>2022-02-17T08:07:05Z</time>
      </trkpt>
      <trkpt lat="47.647114" lon="2.1642513">
        <ele>188.0</ele>
        <time>2022-02-17T08:07:06Z</time>
      </trkpt>
      <trkpt lat="47.64713" lon="2.1642604">
        <ele>188.0</ele>
        <time>2022-02-17T08:07:07Z</time>
      </trkpt>
      <trkpt lat="47.647137" lon="2.164268">
        <ele>188.0</ele>
        <time>2022-02-17T08:07:08Z</time>
      </trkpt>
      <trkpt lat="47.64715" lon="2.164277">
        <ele>188.0</ele>
        <time>2022-02-17T08:07:09Z</time>
      </trkpt>
      <trkpt lat="47.64716" lon="2.1642852">
        <ele>188.0</ele>
        <time>2022-02-17T08:07:10Z</time>
      </trkpt>
      <trkpt lat="47.647167" lon="2.164292">
        <ele>188.0</ele>
        <time>2022-02-17T08:07:11Z</time>
      </trkpt>
      <trkpt lat="47.647175" lon="2.164297">
        <ele>188.0</ele>
        <time>2022-02-17T08:07:12Z</time>
      </trkpt>
      <trkpt lat="47.647186" lon="2.1643002">
        <ele>189.0</ele>
        <time>2022-02-17T08:07:13Z</time>
      </trkpt>
      <trkpt lat="47.647198" lon="2.1643069">
        <ele>189.0</ele>
        <time>2022-02-17T08:07:14Z</time>
      </trkpt>
      <trkpt lat="47.64721" lon="2.164313">
        <ele>189.0</ele>
        <time>2022-02-17T08:07:15Z</time>
      </trkpt>
      <trkpt lat="47.64722" lon="2.16432">
        <ele>189.0</ele>
        <time>2022-02-17T08:07:16Z</time>
      </trkpt>
      <trkpt lat="47.647236" lon="2.1643271">
        <ele>189.0</ele>
        <time>2022-02-17T08:07:17Z</time>
      </trkpt>
      <trkpt lat="47.647247" lon="2.1643307">
        <ele>189.0</ele>
        <time>2022-02-17T08:07:18Z</time>
      </trkpt>
      <trkpt lat="47.647263" lon="2.1643345">
        <ele>188.0</ele>
        <time>2022-02-17T08:07:19Z</time>
      </trkpt>
      <trkpt lat="47.647278" lon="2.164341">
        <ele>188.0</ele>
        <time>2022-02-17T08:07:20Z</time>
      </trkpt>
      <trkpt lat="47.64729" lon="2.1643414">
        <ele>189.0</ele>
        <time>2022-02-17T08:07:21Z</time>
      </trkpt>
      <trkpt lat="47.6473" lon="2.1643465">
        <ele>188.0</ele>
        <time>2022-02-17T08:07:22Z</time>
      </trkpt>
      <trkpt lat="47.647312" lon="2.164353">
        <ele>188.0</ele>
        <time>2022-02-17T08:07:23Z</time>
      </trkpt>
      <trkpt lat="47.647324" lon="2.1643612">
        <ele>189.0</ele>
        <time>2022-02-17T08:07:24Z</time>
      </trkpt>
      <trkpt lat="47.64734" lon="2.164368">
        <ele>189.0</ele>
        <time>2022-02-17T08:07:25Z</time>
      </trkpt>
      <trkpt lat="47.64735" lon="2.1643765">
        <ele>189.0</ele>
        <time>2022-02-17T08:07:26Z</time>
      </trkpt>
      <trkpt lat="47.64736" lon="2.1643846">
        <ele>189.0</ele>
        <time>2022-02-17T08:07:27Z</time>
      </trkpt>
      <trkpt lat="47.647373" lon="2.1643922">
        <ele>189.0</ele>
        <time>2022-02-17T08:07:28Z</time>
      </trkpt>
      <trkpt lat="47.647385" lon="2.1643982">
        <ele>188.0</ele>
        <time>2022-02-17T08:07:29Z</time>
      </trkpt>
      <trkpt lat="47.647396" lon="2.1644025">
        <ele>189.0</ele>
        <time>2022-02-17T08:07:30Z</time>
      </trkpt>
      <trkpt lat="47.647408" lon="2.1644106">
        <ele>188.0</ele>
        <time>2022-02-17T08:07:31Z</time>
      </trkpt>
      <trkpt lat="47.647423" lon="2.1644173">
        <ele>188.0</ele>
        <time>2022-02-17T08:07:32Z</time>
      </trkpt>
      <trkpt lat="47.64744" lon="2.1644258">
        <ele>189.0</ele>
        <time>2022-02-17T08:07:33Z</time>
      </trkpt>
      <trkpt lat="47.647453" lon="2.1644337">
        <ele>189.0</ele>
        <time>2022-02-17T08:07:34Z</time>
      </trkpt>
      <trkpt lat="47.64747" lon="2.1644409">
        <ele>189.0</ele>
        <time>2022-02-17T08:07:35Z</time>
      </trkpt>
      <trkpt lat="47.647488" lon="2.1644502">
        <ele>189.0</ele>
        <time>2022-02-17T08:07:36Z</time>
      </trkpt>
      <trkpt lat="47.6475" lon="2.1644583">
        <ele>189.0</ele>
        <time>2022-02-17T08:07:37Z</time>
      </trkpt>
      <trkpt lat="47.647514" lon="2.1644666">
        <ele>189.0</ele>
        <time>2022-02-17T08:07:38Z</time>
      </trkpt>
      <trkpt lat="47.647526" lon="2.164471">
        <ele>190.0</ele>
        <time>2022-02-17T08:07:39Z</time>
      </trkpt>
      <trkpt lat="47.647537" lon="2.1644754">
        <ele>190.0</ele>
        <time>2022-02-17T08:07:40Z</time>
      </trkpt>
      <trkpt lat="47.64755" lon="2.164479">
        <ele>190.0</ele>
        <time>2022-02-17T08:07:41Z</time>
      </trkpt>
      <trkpt lat="47.64756" lon="2.1644826">
        <ele>190.0</ele>
        <time>2022-02-17T08:07:42Z</time>
      </trkpt>
      <trkpt lat="47.64757" lon="2.1644857">
        <ele>190.0</ele>
        <time>2022-02-17T08:07:43Z</time>
      </trkpt>
      <trkpt lat="47.647583" lon="2.1644905">
        <ele>191.0</ele>
        <time>2022-02-17T08:07:44Z</time>
      </trkpt>
      <trkpt lat="47.6476" lon="2.1644933">
        <ele>191.0</ele>
        <time>2022-02-17T08:07:45Z</time>
      </trkpt>
      <trkpt lat="47.64761" lon="2.164498">
        <ele>191.0</ele>
        <time>2022-02-17T08:07:46Z</time>
      </trkpt>
      <trkpt lat="47.647625" lon="2.1645021">
        <ele>191.0</ele>
        <time>2022-02-17T08:07:47Z</time>
      </trkpt>
      <trkpt lat="47.64764" lon="2.1645072">
        <ele>191.0</ele>
        <time>2022-02-17T08:07:48Z</time>
      </trkpt>
      <trkpt lat="47.64765" lon="2.1645143">
        <ele>192.0</ele>
        <time>2022-02-17T08:07:49Z</time>
      </trkpt>
      <trkpt lat="47.647667" lon="2.16452">
        <ele>192.0</ele>
        <time>2022-02-17T08:07:50Z</time>
      </trkpt>
      <trkpt lat="47.64768" lon="2.1645265">
        <ele>191.0</ele>
        <time>2022-02-17T08:07:51Z</time>
      </trkpt>
      <trkpt lat="47.647694" lon="2.1645308">
        <ele>191.0</ele>
        <time>2022-02-17T08:07:52Z</time>
      </trkpt>
      <trkpt lat="47.647705" lon="2.1645298">
        <ele>191.0</ele>
        <time>2022-02-17T08:07:53Z</time>
      </trkpt>
      <trkpt lat="47.64772" lon="2.1645384">
        <ele>191.0</ele>
        <time>2022-02-17T08:07:54Z</time>
      </trkpt>
      <trkpt lat="47.647736" lon="2.1645453">
        <ele>192.0</ele>
        <time>2022-02-17T08:07:55Z</time>
      </trkpt>
      <trkpt lat="47.647747" lon="2.1645536">
        <ele>192.0</ele>
        <time>2022-02-17T08:07:56Z</time>
      </trkpt>
      <trkpt lat="47.647762" lon="2.1645584">
        <ele>192.0</ele>
        <time>2022-02-17T08:07:57Z</time>
      </trkpt>
      <trkpt lat="47.647774" lon="2.1645625">
        <ele>192.0</ele>
        <time>2022-02-17T08:07:58Z</time>
      </trkpt>
      <trkpt lat="47.64779" lon="2.1645646">
        <ele>192.0</ele>
        <time>2022-02-17T08:07:59Z</time>
      </trkpt>
      <trkpt lat="47.647804" lon="2.1645715">
        <ele>192.0</ele>
        <time>2022-02-17T08:08:00Z</time>
      </trkpt>
      <trkpt lat="47.647816" lon="2.1645741">
        <ele>192.0</ele>
        <time>2022-02-17T08:08:01Z</time>
      </trkpt>
      <trkpt lat="47.64783" lon="2.164573">
        <ele>192.0</ele>
        <time>2022-02-17T08:08:02Z</time>
      </trkpt>
      <trkpt lat="47.647846" lon="2.1645825">
        <ele>192.0</ele>
        <time>2022-02-17T08:08:03Z</time>
      </trkpt>
      <trkpt lat="47.647858" lon="2.164585">
        <ele>192.0</ele>
        <time>2022-02-17T08:08:04Z</time>
      </trkpt>
      <trkpt lat="47.64787" lon="2.1645908">
        <ele>192.0</ele>
        <time>2022-02-17T08:08:05Z</time>
      </trkpt>
      <trkpt lat="47.647884" lon="2.1645994">
        <ele>193.0</ele>
        <time>2022-02-17T08:08:06Z</time>
      </trkpt>
      <trkpt lat="47.647896" lon="2.164606">
        <ele>194.0</ele>
        <time>2022-02-17T08:08:07Z</time>
      </trkpt>
      <trkpt lat="47.647907" lon="2.16461">
        <ele>194.0</ele>
        <time>2022-02-17T08:08:08Z</time>
      </trkpt>
      <trkpt lat="47.64792" lon="2.164618">
        <ele>194.0</ele>
        <time>2022-02-17T08:08:09Z</time>
      </trkpt>
      <trkpt lat="47.647934" lon="2.1646292">
        <ele>194.0</ele>
        <time>2022-02-17T08:08:10Z</time>
      </trkpt>
      <trkpt lat="47.647945" lon="2.1646326">
        <ele>194.0</ele>
        <time>2022-02-17T08:08:11Z</time>
      </trkpt>
      <trkpt lat="47.647957" lon="2.1646385">
        <ele>194.0</ele>
        <time>2022-02-17T08:08:12Z</time>
      </trkpt>
      <trkpt lat="47.64797" lon="2.164649">
        <ele>194.0</ele>
        <time>2022-02-17T08:08:13Z</time>
      </trkpt>
      <trkpt lat="47.64798" lon="2.1646566">
        <ele>194.0</ele>
        <time>2022-02-17T08:08:14Z</time>
      </trkpt>
      <trkpt lat="47.647987" lon="2.164661">
        <ele>194.0</ele>
        <time>2022-02-17T08:08:15Z</time>
      </trkpt>
      <trkpt lat="47.648003" lon="2.1646652">
        <ele>194.0</ele>
        <time>2022-02-17T08:08:16Z</time>
      </trkpt>
      <trkpt lat="47.648014" lon="2.1646757">
        <ele>195.0</ele>
        <time>2022-02-17T08:08:17Z</time>
      </trkpt>
      <trkpt lat="47.64803" lon="2.1646852">
        <ele>195.0</ele>
        <time>2022-02-17T08:08:18Z</time>
      </trkpt>
      <trkpt lat="47.648045" lon="2.1646929">
        <ele>195.0</ele>
        <time>2022-02-17T08:08:19Z</time>
      </trkpt>
      <trkpt lat="47.648052" lon="2.164698">
        <ele>196.0</ele>
        <time>2022-02-17T08:08:20Z</time>
      </trkpt>
      <trkpt lat="47.648067" lon="2.1647017">
        <ele>196.0</ele>
        <time>2022-02-17T08:08:21Z</time>
      </trkpt>
      <trkpt lat="47.64808" lon="2.1647017">
        <ele>196.0</ele>
        <time>2022-02-17T08:08:22Z</time>
      </trkpt>
      <trkpt lat="47.64809" lon="2.1647055">
        <ele>196.0</ele>
        <time>2022-02-17T08:08:23Z</time>
      </trkpt>
      <trkpt lat="47.648094" lon="2.1647124">
        <ele>196.0</ele>
        <time>2022-02-17T08:08:24Z</time>
      </trkpt>
      <trkpt lat="47.648106" lon="2.1647243">
        <ele>196.0</ele>
        <time>2022-02-17T08:08:25Z</time>
      </trkpt>
      <trkpt lat="47.648117" lon="2.1647313">
        <ele>195.0</ele>
        <time>2022-02-17T08:08:26Z</time>
      </trkpt>
      <trkpt lat="47.648125" lon="2.1647375">
        <ele>195.0</ele>
        <time>2022-02-17T08:08:27Z</time>
      </trkpt>
      <trkpt lat="47.648136" lon="2.164745">
        <ele>196.0</ele>
        <time>2022-02-17T08:08:28Z</time>
      </trkpt>
      <trkpt lat="47.648148" lon="2.164753">
        <ele>195.0</ele>
        <time>2022-02-17T08:08:29Z</time>
      </trkpt>
      <trkpt lat="47.648155" lon="2.1647615">
        <ele>196.0</ele>
        <time>2022-02-17T08:08:30Z</time>
      </trkpt>
      <trkpt lat="47.648167" lon="2.1647704">
        <ele>195.0</ele>
        <time>2022-02-17T08:08:31Z</time>
      </trkpt>
      <trkpt lat="47.64818" lon="2.1647785">
        <ele>196.0</ele>
        <time>2022-02-17T08:08:32Z</time>
      </trkpt>
      <trkpt lat="47.64819" lon="2.164783">
        <ele>196.0</ele>
        <time>2022-02-17T08:08:33Z</time>
      </trkpt>
      <trkpt lat="47.6482" lon="2.1647875">
        <ele>196.0</ele>
        <time>2022-02-17T08:08:34Z</time>
      </trkpt>
      <trkpt lat="47.648212" lon="2.1647925">
        <ele>195.0</ele>
        <time>2022-02-17T08:08:35Z</time>
      </trkpt>
      <trkpt lat="47.648224" lon="2.1647995">
        <ele>195.0</ele>
        <time>2022-02-17T08:08:36Z</time>
      </trkpt>
      <trkpt lat="47.648235" lon="2.1648073">
        <ele>195.0</ele>
        <time>2022-02-17T08:08:37Z</time>
      </trkpt>
      <trkpt lat="47.648243" lon="2.164814">
        <ele>195.0</ele>
        <time>2022-02-17T08:08:38Z</time>
      </trkpt>
      <trkpt lat="47.64826" lon="2.1648211">
        <ele>194.0</ele>
        <time>2022-02-17T08:08:39Z</time>
      </trkpt>
      <trkpt lat="47.64827" lon="2.164828">
        <ele>194.0</ele>
        <time>2022-02-17T08:08:40Z</time>
      </trkpt>
      <trkpt lat="47.648285" lon="2.1648328">
        <ele>195.0</ele>
        <time>2022-02-17T08:08:41Z</time>
      </trkpt>
      <trkpt lat="47.648296" lon="2.1648395">
        <ele>195.0</ele>
        <time>2022-02-17T08:08:42Z</time>
      </trkpt>
      <trkpt lat="47.648308" lon="2.1648445">
        <ele>195.0</ele>
        <time>2022-02-17T08:08:43Z</time>
      </trkpt>
      <trkpt lat="47.64832" lon="2.1648486">
        <ele>194.0</ele>
        <time>2022-02-17T08:08:44Z</time>
      </trkpt>
      <trkpt lat="47.64833" lon="2.1648512">
        <ele>194.0</ele>
        <time>2022-02-17T08:08:45Z</time>
      </trkpt>
      <trkpt lat="47.648342" lon="2.1648567">
        <ele>194.0</ele>
        <time>2022-02-17T08:08:46Z</time>
      </trkpt>
      <trkpt lat="47.648354" lon="2.1648614">
        <ele>194.0</ele>
        <time>2022-02-17T08:08:47Z</time>
      </trkpt>
      <trkpt lat="47.648365" lon="2.1648712">
        <ele>194.0</ele>
        <time>2022-02-17T08:08:48Z</time>
      </trkpt>
      <trkpt lat="47.648376" lon="2.1648798">
        <ele>194.0</ele>
        <time>2022-02-17T08:08:49Z</time>
      </trkpt>
      <trkpt lat="47.648388" lon="2.1648915">
        <ele>194.0</ele>
        <time>2022-02-17T08:08:50Z</time>
      </trkpt>
      <trkpt lat="47.6484" lon="2.1649017">
        <ele>195.0</ele>
        <time>2022-02-17T08:08:51Z</time>
      </trkpt>
      <trkpt lat="47.64841" lon="2.1649106">
        <ele>195.0</ele>
        <time>2022-02-17T08:08:52Z</time>
      </trkpt>
      <trkpt lat="47.648426" lon="2.1649163">
        <ele>195.0</ele>
        <time>2022-02-17T08:08:53Z</time>
      </trkpt>
      <trkpt lat="47.64845" lon="2.1649253">
        <ele>195.0</ele>
        <time>2022-02-17T08:08:55Z</time>
      </trkpt>
      <trkpt lat="47.648464" lon="2.1649332">
        <ele>196.0</ele>
        <time>2022-02-17T08:08:56Z</time>
      </trkpt>
      <trkpt lat="47.64848" lon="2.164939">
        <ele>196.0</ele>
        <time>2022-02-17T08:08:57Z</time>
      </trkpt>
      <trkpt lat="47.64849" lon="2.164946">
        <ele>196.0</ele>
        <time>2022-02-17T08:08:58Z</time>
      </trkpt>
      <trkpt lat="47.6485" lon="2.1649535">
        <ele>196.0</ele>
        <time>2022-02-17T08:08:59Z</time>
      </trkpt>
      <trkpt lat="47.648514" lon="2.1649616">
        <ele>197.0</ele>
        <time>2022-02-17T08:09:00Z</time>
      </trkpt>
      <trkpt lat="47.648525" lon="2.1649675">
        <ele>196.0</ele>
        <time>2022-02-17T08:09:01Z</time>
      </trkpt>
      <trkpt lat="47.648537" lon="2.164975">
        <ele>197.0</ele>
        <time>2022-02-17T08:09:02Z</time>
      </trkpt>
      <trkpt lat="47.648552" lon="2.1649795">
        <ele>197.0</ele>
        <time>2022-02-17T08:09:03Z</time>
      </trkpt>
      <trkpt lat="47.648563" lon="2.1649876">
        <ele>197.0</ele>
        <time>2022-02-17T08:09:04Z</time>
      </trkpt>
      <trkpt lat="47.64858" lon="2.1649964">
        <ele>197.0</ele>
        <time>2022-02-17T08:09:05Z</time>
      </trkpt>
      <trkpt lat="47.64859" lon="2.165007">
        <ele>197.0</ele>
        <time>2022-02-17T08:09:06Z</time>
      </trkpt>
      <trkpt lat="47.6486" lon="2.1650136">
        <ele>197.0</ele>
        <time>2022-02-17T08:09:07Z</time>
      </trkpt>
      <trkpt lat="47.648613" lon="2.1650188">
        <ele>197.0</ele>
        <time>2022-02-17T08:09:08Z</time>
      </trkpt>
      <trkpt lat="47.648624" lon="2.165026">
        <ele>197.0</ele>
        <time>2022-02-17T08:09:09Z</time>
      </trkpt>
      <trkpt lat="47.648636" lon="2.1650321">
        <ele>197.0</ele>
        <time>2022-02-17T08:09:10Z</time>
      </trkpt>
      <trkpt lat="47.64865" lon="2.165042">
        <ele>198.0</ele>
        <time>2022-02-17T08:09:11Z</time>
      </trkpt>
      <trkpt lat="47.648663" lon="2.1650496">
        <ele>197.0</ele>
        <time>2022-02-17T08:09:12Z</time>
      </trkpt>
      <trkpt lat="47.648674" lon="2.1650577">
        <ele>197.0</ele>
        <time>2022-02-17T08:09:13Z</time>
      </trkpt>
      <trkpt lat="47.648685" lon="2.165067">
        <ele>197.0</ele>
        <time>2022-02-17T08:09:14Z</time>
      </trkpt>
      <trkpt lat="47.648693" lon="2.1650717">
        <ele>196.0</ele>
        <time>2022-02-17T08:09:15Z</time>
      </trkpt>
      <trkpt lat="47.64871" lon="2.165071">
        <ele>196.0</ele>
        <time>2022-02-17T08:09:16Z</time>
      </trkpt>
      <trkpt lat="47.648724" lon="2.1650782">
        <ele>197.0</ele>
        <time>2022-02-17T08:09:17Z</time>
      </trkpt>
      <trkpt lat="47.648735" lon="2.1650836">
        <ele>197.0</ele>
        <time>2022-02-17T08:09:18Z</time>
      </trkpt>
      <trkpt lat="47.64875" lon="2.1650884">
        <ele>197.0</ele>
        <time>2022-02-17T08:09:19Z</time>
      </trkpt>
      <trkpt lat="47.64876" lon="2.1650906">
        <ele>197.0</ele>
        <time>2022-02-17T08:09:20Z</time>
      </trkpt>
      <trkpt lat="47.648773" lon="2.1650941">
        <ele>196.0</ele>
        <time>2022-02-17T08:09:21Z</time>
      </trkpt>
      <trkpt lat="47.64879" lon="2.1650996">
        <ele>196.0</ele>
        <time>2022-02-17T08:09:22Z</time>
      </trkpt>
      <trkpt lat="47.648804" lon="2.1651018">
        <ele>196.0</ele>
        <time>2022-02-17T08:09:23Z</time>
      </trkpt>
      <trkpt lat="47.64882" lon="2.1651058">
        <ele>196.0</ele>
        <time>2022-02-17T08:09:24Z</time>
      </trkpt>
      <trkpt lat="47.64883" lon="2.1651042">
        <ele>196.0</ele>
        <time>2022-02-17T08:09:25Z</time>
      </trkpt>
      <trkpt lat="47.64884" lon="2.1651042">
        <ele>196.0</ele>
        <time>2022-02-17T08:09:26Z</time>
      </trkpt>
      <trkpt lat="47.64885" lon="2.1651027">
        <ele>196.0</ele>
        <time>2022-02-17T08:09:27Z</time>
      </trkpt>
      <trkpt lat="47.648857" lon="2.1651003">
        <ele>196.0</ele>
        <time>2022-02-17T08:09:28Z</time>
      </trkpt>
      <trkpt lat="47.648857" lon="2.1650994">
        <ele>196.0</ele>
        <time>2022-02-17T08:09:29Z</time>
      </trkpt>
      <trkpt lat="47.64887" lon="2.1651013">
        <ele>196.0</ele>
        <time>2022-02-17T08:09:30Z</time>
      </trkpt>
      <trkpt lat="47.648876" lon="2.1651032">
        <ele>196.0</ele>
        <time>2022-02-17T08:09:31Z</time>
      </trkpt>
      <trkpt lat="47.648888" lon="2.1651063">
        <ele>196.0</ele>
        <time>2022-02-17T08:09:32Z</time>
      </trkpt>
      <trkpt lat="47.6489" lon="2.1651108">
        <ele>196.0</ele>
        <time>2022-02-17T08:09:33Z</time>
      </trkpt>
      <trkpt lat="47.64891" lon="2.165116">
        <ele>196.0</ele>
        <time>2022-02-17T08:09:34Z</time>
      </trkpt>
      <trkpt lat="47.648926" lon="2.1651223">
        <ele>196.0</ele>
        <time>2022-02-17T08:09:35Z</time>
      </trkpt>
      <trkpt lat="47.648937" lon="2.1651247">
        <ele>195.0</ele>
        <time>2022-02-17T08:09:36Z</time>
      </trkpt>
      <trkpt lat="47.648945" lon="2.1651282">
        <ele>195.0</ele>
        <time>2022-02-17T08:09:37Z</time>
      </trkpt>
      <trkpt lat="47.648956" lon="2.165132">
        <ele>195.0</ele>
        <time>2022-02-17T08:09:38Z</time>
      </trkpt>
      <trkpt lat="47.648964" lon="2.1651409">
        <ele>195.0</ele>
        <time>2022-02-17T08:09:39Z</time>
      </trkpt>
      <trkpt lat="47.648975" lon="2.165143">
        <ele>195.0</ele>
        <time>2022-02-17T08:09:40Z</time>
      </trkpt>
      <trkpt lat="47.648983" lon="2.1651464">
        <ele>195.0</ele>
        <time>2022-02-17T08:09:41Z</time>
      </trkpt>
      <trkpt lat="47.648994" lon="2.1651492">
        <ele>195.0</ele>
        <time>2022-02-17T08:09:42Z</time>
      </trkpt>
      <trkpt lat="47.649006" lon="2.1651516">
        <ele>195.0</ele>
        <time>2022-02-17T08:09:43Z</time>
      </trkpt>
      <trkpt lat="47.649017" lon="2.1651561">
        <ele>195.0</ele>
        <time>2022-02-17T08:09:44Z</time>
      </trkpt>
      <trkpt lat="47.649025" lon="2.1651642">
        <ele>195.0</ele>
        <time>2022-02-17T08:09:45Z</time>
      </trkpt>
      <trkpt lat="47.649036" lon="2.16517">
        <ele>195.0</ele>
        <time>2022-02-17T08:09:46Z</time>
      </trkpt>
      <trkpt lat="47.649044" lon="2.1651745">
        <ele>194.0</ele>
        <time>2022-02-17T08:09:47Z</time>
      </trkpt>
      <trkpt lat="47.64905" lon="2.1651804">
        <ele>194.0</ele>
        <time>2022-02-17T08:09:48Z</time>
      </trkpt>
      <trkpt lat="47.649063" lon="2.1651845">
        <ele>194.0</ele>
        <time>2022-02-17T08:09:49Z</time>
      </trkpt>
      <trkpt lat="47.64907" lon="2.1651876">
        <ele>194.0</ele>
        <time>2022-02-17T08:09:50Z</time>
      </trkpt>
      <trkpt lat="47.649082" lon="2.165196">
        <ele>194.0</ele>
        <time>2022-02-17T08:09:51Z</time>
      </trkpt>
      <trkpt lat="47.64909" lon="2.1652014">
        <ele>194.0</ele>
        <time>2022-02-17T08:09:52Z</time>
      </trkpt>
      <trkpt lat="47.649097" lon="2.1652052">
        <ele>194.0</ele>
        <time>2022-02-17T08:09:53Z</time>
      </trkpt>
      <trkpt lat="47.649113" lon="2.1652136">
        <ele>193.0</ele>
        <time>2022-02-17T08:09:54Z</time>
      </trkpt>
      <trkpt lat="47.649124" lon="2.1652243">
        <ele>193.0</ele>
        <time>2022-02-17T08:09:55Z</time>
      </trkpt>
      <trkpt lat="47.64913" lon="2.1652296">
        <ele>193.0</ele>
        <time>2022-02-17T08:09:56Z</time>
      </trkpt>
      <trkpt lat="47.64914" lon="2.1652358">
        <ele>193.0</ele>
        <time>2022-02-17T08:09:57Z</time>
      </trkpt>
      <trkpt lat="47.649147" lon="2.1652439">
        <ele>193.0</ele>
        <time>2022-02-17T08:09:58Z</time>
      </trkpt>
      <trkpt lat="47.649155" lon="2.165256">
        <ele>193.0</ele>
        <time>2022-02-17T08:09:59Z</time>
      </trkpt>
      <trkpt lat="47.649162" lon="2.1652632">
        <ele>193.0</ele>
        <time>2022-02-17T08:10:00Z</time>
      </trkpt>
      <trkpt lat="47.649174" lon="2.1652682">
        <ele>193.0</ele>
        <time>2022-02-17T08:10:01Z</time>
      </trkpt>
      <trkpt lat="47.649185" lon="2.1652734">
        <ele>193.0</ele>
        <time>2022-02-17T08:10:02Z</time>
      </trkpt>
      <trkpt lat="47.649197" lon="2.165282">
        <ele>194.0</ele>
        <time>2022-02-17T08:10:03Z</time>
      </trkpt>
      <trkpt lat="47.6492" lon="2.1652846">
        <ele>194.0</ele>
        <time>2022-02-17T08:10:04Z</time>
      </trkpt>
      <trkpt lat="47.649208" lon="2.1652842">
        <ele>194.0</ele>
        <time>2022-02-17T08:10:05Z</time>
      </trkpt>
      <trkpt lat="47.64922" lon="2.1652849">
        <ele>194.0</ele>
        <time>2022-02-17T08:10:06Z</time>
      </trkpt>
      <trkpt lat="47.64923" lon="2.1652856">
        <ele>194.0</ele>
        <time>2022-02-17T08:10:07Z</time>
      </trkpt>
      <trkpt lat="47.64924" lon="2.1652856">
        <ele>194.0</ele>
        <time>2022-02-17T08:10:08Z</time>
      </trkpt>
      <trkpt lat="47.64925" lon="2.1652925">
        <ele>193.0</ele>
        <time>2022-02-17T08:10:09Z</time>
      </trkpt>
      <trkpt lat="47.64926" lon="2.1652966">
        <ele>192.0</ele>
        <time>2022-02-17T08:10:10Z</time>
      </trkpt>
      <trkpt lat="47.649273" lon="2.165305">
        <ele>192.0</ele>
        <time>2022-02-17T08:10:11Z</time>
      </trkpt>
      <trkpt lat="47.64928" lon="2.16531">
        <ele>191.0</ele>
        <time>2022-02-17T08:10:12Z</time>
      </trkpt>
      <trkpt lat="47.649292" lon="2.1653147">
        <ele>191.0</ele>
        <time>2022-02-17T08:10:13Z</time>
      </trkpt>
      <trkpt lat="47.649303" lon="2.1653202">
        <ele>191.0</ele>
        <time>2022-02-17T08:10:14Z</time>
      </trkpt>
      <trkpt lat="47.64932" lon="2.1653242">
        <ele>191.0</ele>
        <time>2022-02-17T08:10:15Z</time>
      </trkpt>
      <trkpt lat="47.64933" lon="2.1653283">
        <ele>191.0</ele>
        <time>2022-02-17T08:10:16Z</time>
      </trkpt>
      <trkpt lat="47.649345" lon="2.1653323">
        <ele>190.0</ele>
        <time>2022-02-17T08:10:17Z</time>
      </trkpt>
      <trkpt lat="47.649357" lon="2.1653364">
        <ele>190.0</ele>
        <time>2022-02-17T08:10:18Z</time>
      </trkpt>
      <trkpt lat="47.64937" lon="2.1653423">
        <ele>190.0</ele>
        <time>2022-02-17T08:10:19Z</time>
      </trkpt>
      <trkpt lat="47.64938" lon="2.165346">
        <ele>190.0</ele>
        <time>2022-02-17T08:10:20Z</time>
      </trkpt>
      <trkpt lat="47.64939" lon="2.1653473">
        <ele>190.0</ele>
        <time>2022-02-17T08:10:21Z</time>
      </trkpt>
      <trkpt lat="47.649403" lon="2.165349">
        <ele>190.0</ele>
        <time>2022-02-17T08:10:22Z</time>
      </trkpt>
      <trkpt lat="47.649414" lon="2.165351">
        <ele>189.0</ele>
        <time>2022-02-17T08:10:23Z</time>
      </trkpt>
      <trkpt lat="47.64943" lon="2.1653519">
        <ele>189.0</ele>
        <time>2022-02-17T08:10:24Z</time>
      </trkpt>
      <trkpt lat="47.64944" lon="2.1653574">
        <ele>189.0</ele>
        <time>2022-02-17T08:10:25Z</time>
      </trkpt>
      <trkpt lat="47.649452" lon="2.165362">
        <ele>188.0</ele>
        <time>2022-02-17T08:10:26Z</time>
      </trkpt>
      <trkpt lat="47.649467" lon="2.1653717">
        <ele>188.0</ele>
        <time>2022-02-17T08:10:27Z</time>
      </trkpt>
      <trkpt lat="47.649475" lon="2.1653771">
        <ele>188.0</ele>
        <time>2022-02-17T08:10:28Z</time>
      </trkpt>
      <trkpt lat="47.649487" lon="2.165386">
        <ele>188.0</ele>
        <time>2022-02-17T08:10:29Z</time>
      </trkpt>
      <trkpt lat="47.6495" lon="2.1654012">
        <ele>188.0</ele>
        <time>2022-02-17T08:10:30Z</time>
      </trkpt>
      <trkpt lat="47.649513" lon="2.1654074">
        <ele>188.0</ele>
        <time>2022-02-17T08:10:31Z</time>
      </trkpt>
      <trkpt lat="47.64952" lon="2.1654136">
        <ele>188.0</ele>
        <time>2022-02-17T08:10:32Z</time>
      </trkpt>
      <trkpt lat="47.649532" lon="2.1654186">
        <ele>188.0</ele>
        <time>2022-02-17T08:10:33Z</time>
      </trkpt>
      <trkpt lat="47.64954" lon="2.1654277">
        <ele>188.0</ele>
        <time>2022-02-17T08:10:34Z</time>
      </trkpt>
      <trkpt lat="47.64955" lon="2.165434">
        <ele>189.0</ele>
        <time>2022-02-17T08:10:35Z</time>
      </trkpt>
      <trkpt lat="47.64956" lon="2.1654449">
        <ele>189.0</ele>
        <time>2022-02-17T08:10:36Z</time>
      </trkpt>
      <trkpt lat="47.64957" lon="2.1654563">
        <ele>190.0</ele>
        <time>2022-02-17T08:10:37Z</time>
      </trkpt>
      <trkpt lat="47.64958" lon="2.1654613">
        <ele>191.0</ele>
        <time>2022-02-17T08:10:38Z</time>
      </trkpt>
      <trkpt lat="47.64959" lon="2.1654665">
        <ele>191.0</ele>
        <time>2022-02-17T08:10:39Z</time>
      </trkpt>
      <trkpt lat="47.6496" lon="2.1654701">
        <ele>192.0</ele>
        <time>2022-02-17T08:10:40Z</time>
      </trkpt>
      <trkpt lat="47.649616" lon="2.165477">
        <ele>192.0</ele>
        <time>2022-02-17T08:10:41Z</time>
      </trkpt>
      <trkpt lat="47.649624" lon="2.1654842">
        <ele>192.0</ele>
        <time>2022-02-17T08:10:42Z</time>
      </trkpt>
      <trkpt lat="47.649635" lon="2.1654878">
        <ele>192.0</ele>
        <time>2022-02-17T08:10:43Z</time>
      </trkpt>
      <trkpt lat="47.64965" lon="2.1654882">
        <ele>192.0</ele>
        <time>2022-02-17T08:10:44Z</time>
      </trkpt>
      <trkpt lat="47.649662" lon="2.165492">
        <ele>192.0</ele>
        <time>2022-02-17T08:10:45Z</time>
      </trkpt>
      <trkpt lat="47.649673" lon="2.1654987">
        <ele>192.0</ele>
        <time>2022-02-17T08:10:46Z</time>
      </trkpt>
      <trkpt lat="47.649685" lon="2.1655054">
        <ele>192.0</ele>
        <time>2022-02-17T08:10:47Z</time>
      </trkpt>
      <trkpt lat="47.649696" lon="2.1655083">
        <ele>192.0</ele>
        <time>2022-02-17T08:10:48Z</time>
      </trkpt>
      <trkpt lat="47.649708" lon="2.1655138">
        <ele>192.0</ele>
        <time>2022-02-17T08:10:49Z</time>
      </trkpt>
      <trkpt lat="47.649715" lon="2.1655216">
        <ele>192.0</ele>
        <time>2022-02-17T08:10:50Z</time>
      </trkpt>
      <trkpt lat="47.649727" lon="2.165528">
        <ele>193.0</ele>
        <time>2022-02-17T08:10:51Z</time>
      </trkpt>
      <trkpt lat="47.64974" lon="2.165535">
        <ele>192.0</ele>
        <time>2022-02-17T08:10:52Z</time>
      </trkpt>
      <trkpt lat="47.64975" lon="2.1655393">
        <ele>193.0</ele>
        <time>2022-02-17T08:10:53Z</time>
      </trkpt>
      <trkpt lat="47.649757" lon="2.1655438">
        <ele>193.0</ele>
        <time>2022-02-17T08:10:54Z</time>
      </trkpt>
      <trkpt lat="47.649773" lon="2.165555">
        <ele>192.0</ele>
        <time>2022-02-17T08:10:55Z</time>
      </trkpt>
      <trkpt lat="47.64978" lon="2.1655555">
        <ele>192.0</ele>
        <time>2022-02-17T08:10:56Z</time>
      </trkpt>
      <trkpt lat="47.64979" lon="2.165559">
        <ele>192.0</ele>
        <time>2022-02-17T08:10:57Z</time>
      </trkpt>
      <trkpt lat="47.6498" lon="2.1655638">
        <ele>193.0</ele>
        <time>2022-02-17T08:10:58Z</time>
      </trkpt>
      <trkpt lat="47.649807" lon="2.1655695">
        <ele>193.0</ele>
        <time>2022-02-17T08:10:59Z</time>
      </trkpt>
      <trkpt lat="47.649815" lon="2.1655784">
        <ele>194.0</ele>
        <time>2022-02-17T08:11:00Z</time>
      </trkpt>
      <trkpt lat="47.649826" lon="2.165583">
        <ele>194.0</ele>
        <time>2022-02-17T08:11:01Z</time>
      </trkpt>
      <trkpt lat="47.649837" lon="2.1655884">
        <ele>194.0</ele>
        <time>2022-02-17T08:11:02Z</time>
      </trkpt>
      <trkpt lat="47.64985" lon="2.1655936">
        <ele>195.0</ele>
        <time>2022-02-17T08:11:03Z</time>
      </trkpt>
      <trkpt lat="47.64986" lon="2.165598">
        <ele>194.0</ele>
        <time>2022-02-17T08:11:04Z</time>
      </trkpt>
      <trkpt lat="47.64987" lon="2.165599">
        <ele>194.0</ele>
        <time>2022-02-17T08:11:05Z</time>
      </trkpt>
      <trkpt lat="47.649883" lon="2.1656032">
        <ele>194.0</ele>
        <time>2022-02-17T08:11:06Z</time>
      </trkpt>
      <trkpt lat="47.649895" lon="2.165608">
        <ele>194.0</ele>
        <time>2022-02-17T08:11:07Z</time>
      </trkpt>
      <trkpt lat="47.649906" lon="2.1656115">
        <ele>194.0</ele>
        <time>2022-02-17T08:11:08Z</time>
      </trkpt>
      <trkpt lat="47.649918" lon="2.1656175">
        <ele>194.0</ele>
        <time>2022-02-17T08:11:09Z</time>
      </trkpt>
      <trkpt lat="47.64993" lon="2.165622">
        <ele>194.0</ele>
        <time>2022-02-17T08:11:10Z</time>
      </trkpt>
      <trkpt lat="47.64994" lon="2.1656263">
        <ele>193.0</ele>
        <time>2022-02-17T08:11:11Z</time>
      </trkpt>
      <trkpt lat="47.649952" lon="2.1656303">
        <ele>193.0</ele>
        <time>2022-02-17T08:11:12Z</time>
      </trkpt>
      <trkpt lat="47.649963" lon="2.1656325">
        <ele>193.0</ele>
        <time>2022-02-17T08:11:13Z</time>
      </trkpt>
      <trkpt lat="47.64998" lon="2.1656342">
        <ele>193.0</ele>
        <time>2022-02-17T08:11:14Z</time>
      </trkpt>
      <trkpt lat="47.64999" lon="2.1656365">
        <ele>192.0</ele>
        <time>2022-02-17T08:11:15Z</time>
      </trkpt>
      <trkpt lat="47.65" lon="2.1656373">
        <ele>192.0</ele>
        <time>2022-02-17T08:11:16Z</time>
      </trkpt>
      <trkpt lat="47.65001" lon="2.1656451">
        <ele>192.0</ele>
        <time>2022-02-17T08:11:17Z</time>
      </trkpt>
      <trkpt lat="47.650024" lon="2.1656537">
        <ele>193.0</ele>
        <time>2022-02-17T08:11:18Z</time>
      </trkpt>
      <trkpt lat="47.65004" lon="2.165661">
        <ele>192.0</ele>
        <time>2022-02-17T08:11:19Z</time>
      </trkpt>
      <trkpt lat="47.650055" lon="2.165665">
        <ele>192.0</ele>
        <time>2022-02-17T08:11:20Z</time>
      </trkpt>
      <trkpt lat="47.650066" lon="2.1656694">
        <ele>192.0</ele>
        <time>2022-02-17T08:11:21Z</time>
      </trkpt>
      <trkpt lat="47.65008" lon="2.165672">
        <ele>192.0</ele>
        <time>2022-02-17T08:11:22Z</time>
      </trkpt>
      <trkpt lat="47.65009" lon="2.1656785">
        <ele>192.0</ele>
        <time>2022-02-17T08:11:23Z</time>
      </trkpt>
      <trkpt lat="47.650097" lon="2.16568">
        <ele>192.0</ele>
        <time>2022-02-17T08:11:24Z</time>
      </trkpt>
      <trkpt lat="47.650105" lon="2.16568">
        <ele>191.0</ele>
        <time>2022-02-17T08:11:25Z</time>
      </trkpt>
      <trkpt lat="47.650112" lon="2.1656845">
        <ele>191.0</ele>
        <time>2022-02-17T08:11:26Z</time>
      </trkpt>
      <trkpt lat="47.650124" lon="2.1656885">
        <ele>190.0</ele>
        <time>2022-02-17T08:11:27Z</time>
      </trkpt>
      <trkpt lat="47.65013" lon="2.1656935">
        <ele>190.0</ele>
        <time>2022-02-17T08:11:28Z</time>
      </trkpt>
      <trkpt lat="47.650143" lon="2.1656973">
        <ele>189.0</ele>
        <time>2022-02-17T08:11:29Z</time>
      </trkpt>
      <trkpt lat="47.650154" lon="2.1656985">
        <ele>189.0</ele>
        <time>2022-02-17T08:11:30Z</time>
      </trkpt>
      <trkpt lat="47.65017" lon="2.1657033">
        <ele>189.0</ele>
        <time>2022-02-17T08:11:31Z</time>
      </trkpt>
      <trkpt lat="47.65018" lon="2.1657095">
        <ele>189.0</ele>
        <time>2022-02-17T08:11:32Z</time>
      </trkpt>
      <trkpt lat="47.650192" lon="2.1657171">
        <ele>189.0</ele>
        <time>2022-02-17T08:11:33Z</time>
      </trkpt>
      <trkpt lat="47.650208" lon="2.165723">
        <ele>189.0</ele>
        <time>2022-02-17T08:11:34Z</time>
      </trkpt>
      <trkpt lat="47.65022" lon="2.1657288">
        <ele>190.0</ele>
        <time>2022-02-17T08:11:35Z</time>
      </trkpt>
      <trkpt lat="47.65023" lon="2.1657305">
        <ele>190.0</ele>
        <time>2022-02-17T08:11:36Z</time>
      </trkpt>
      <trkpt lat="47.650246" lon="2.1657324">
        <ele>191.0</ele>
        <time>2022-02-17T08:11:37Z</time>
      </trkpt>
      <trkpt lat="47.650257" lon="2.1657372">
        <ele>191.0</ele>
        <time>2022-02-17T08:11:38Z</time>
      </trkpt>
      <trkpt lat="47.65027" lon="2.1657457">
        <ele>191.0</ele>
        <time>2022-02-17T08:11:39Z</time>
      </trkpt>
      <trkpt lat="47.650276" lon="2.1657524">
        <ele>191.0</ele>
        <time>2022-02-17T08:11:40Z</time>
      </trkpt>
      <trkpt lat="47.650284" lon="2.1657584">
        <ele>191.0</ele>
        <time>2022-02-17T08:11:41Z</time>
      </trkpt>
      <trkpt lat="47.650295" lon="2.1657553">
        <ele>191.0</ele>
        <time>2022-02-17T08:11:42Z</time>
      </trkpt>
      <trkpt lat="47.65031" lon="2.1657593">
        <ele>191.0</ele>
        <time>2022-02-17T08:11:43Z</time>
      </trkpt>
      <trkpt lat="47.650322" lon="2.1657636">
        <ele>191.0</ele>
        <time>2022-02-17T08:11:44Z</time>
      </trkpt>
      <trkpt lat="47.650333" lon="2.165771">
        <ele>190.0</ele>
        <time>2022-02-17T08:11:45Z</time>
      </trkpt>
      <trkpt lat="47.65034" lon="2.165778">
        <ele>190.0</ele>
        <time>2022-02-17T08:11:46Z</time>
      </trkpt>
      <trkpt lat="47.65035" lon="2.165783">
        <ele>191.0</ele>
        <time>2022-02-17T08:11:47Z</time>
      </trkpt>
      <trkpt lat="47.65035" lon="2.165783">
        <ele>191.0</ele>
        <time>2022-02-17T08:11:48Z</time>
      </trkpt>
      <trkpt lat="47.65035" lon="2.165783">
        <ele>191.0</ele>
        <time>2022-02-17T08:11:49Z</time>
      </trkpt>
      <trkpt lat="47.65037" lon="2.1657948">
        <ele>190.0</ele>
        <time>2022-02-17T08:11:50Z</time>
      </trkpt>
      <trkpt lat="47.650383" lon="2.1657963">
        <ele>189.0</ele>
        <time>2022-02-17T08:11:52Z</time>
      </trkpt>
      <trkpt lat="47.650394" lon="2.165802">
        <ele>190.0</ele>
        <time>2022-02-17T08:11:53Z</time>
      </trkpt>
      <trkpt lat="47.650402" lon="2.1658077">
        <ele>190.0</ele>
        <time>2022-02-17T08:11:54Z</time>
      </trkpt>
      <trkpt lat="47.650414" lon="2.165808">
        <ele>190.0</ele>
        <time>2022-02-17T08:11:55Z</time>
      </trkpt>
      <trkpt lat="47.650425" lon="2.1658149">
        <ele>189.0</ele>
        <time>2022-02-17T08:11:56Z</time>
      </trkpt>
      <trkpt lat="47.650436" lon="2.165821">
        <ele>189.0</ele>
        <time>2022-02-17T08:11:57Z</time>
      </trkpt>
      <trkpt lat="47.650444" lon="2.1658316">
        <ele>190.0</ele>
        <time>2022-02-17T08:11:58Z</time>
      </trkpt>
      <trkpt lat="47.650455" lon="2.165841">
        <ele>190.0</ele>
        <time>2022-02-17T08:11:59Z</time>
      </trkpt>
      <trkpt lat="47.650467" lon="2.165848">
        <ele>190.0</ele>
        <time>2022-02-17T08:12:00Z</time>
      </trkpt>
      <trkpt lat="47.650475" lon="2.165855">
        <ele>190.0</ele>
        <time>2022-02-17T08:12:01Z</time>
      </trkpt>
      <trkpt lat="47.650486" lon="2.16586">
        <ele>189.0</ele>
        <time>2022-02-17T08:12:02Z</time>
      </trkpt>
      <trkpt lat="47.650494" lon="2.1658688">
        <ele>189.0</ele>
        <time>2022-02-17T08:12:03Z</time>
      </trkpt>
      <trkpt lat="47.650505" lon="2.165876">
        <ele>189.0</ele>
        <time>2022-02-17T08:12:04Z</time>
      </trkpt>
      <trkpt lat="47.650517" lon="2.165882">
        <ele>189.0</ele>
        <time>2022-02-17T08:12:05Z</time>
      </trkpt>
      <trkpt lat="47.65053" lon="2.1658869">
        <ele>188.0</ele>
        <time>2022-02-17T08:12:06Z</time>
      </trkpt>
      <trkpt lat="47.650543" lon="2.165888">
        <ele>189.0</ele>
        <time>2022-02-17T08:12:07Z</time>
      </trkpt>
      <trkpt lat="47.65056" lon="2.165892">
        <ele>189.0</ele>
        <time>2022-02-17T08:12:08Z</time>
      </trkpt>
      <trkpt lat="47.65057" lon="2.1658967">
        <ele>190.0</ele>
        <time>2022-02-17T08:12:09Z</time>
      </trkpt>
      <trkpt lat="47.65058" lon="2.1658974">
        <ele>190.0</ele>
        <time>2022-02-17T08:12:10Z</time>
      </trkpt>
      <trkpt lat="47.65059" lon="2.1658971">
        <ele>190.0</ele>
        <time>2022-02-17T08:12:11Z</time>
      </trkpt>
      <trkpt lat="47.6506" lon="2.165899">
        <ele>191.0</ele>
        <time>2022-02-17T08:12:12Z</time>
      </trkpt>
      <trkpt lat="47.65061" lon="2.1659014">
        <ele>191.0</ele>
        <time>2022-02-17T08:12:13Z</time>
      </trkpt>
      <trkpt lat="47.65062" lon="2.1659052">
        <ele>191.0</ele>
        <time>2022-02-17T08:12:14Z</time>
      </trkpt>
      <trkpt lat="47.650627" lon="2.1659105">
        <ele>191.0</ele>
        <time>2022-02-17T08:12:15Z</time>
      </trkpt>
      <trkpt lat="47.650635" lon="2.1659148">
        <ele>191.0</ele>
        <time>2022-02-17T08:12:16Z</time>
      </trkpt>
      <trkpt lat="47.650642" lon="2.1659148">
        <ele>191.0</ele>
        <time>2022-02-17T08:12:17Z</time>
      </trkpt>
      <trkpt lat="47.650646" lon="2.1659162">
        <ele>191.0</ele>
        <time>2022-02-17T08:12:18Z</time>
      </trkpt>
      <trkpt lat="47.650658" lon="2.165916">
        <ele>192.0</ele>
        <time>2022-02-17T08:12:19Z</time>
      </trkpt>
      <trkpt lat="47.65067" lon="2.1659172">
        <ele>192.0</ele>
        <time>2022-02-17T08:12:20Z</time>
      </trkpt>
      <trkpt lat="47.650677" lon="2.1659167">
        <ele>192.0</ele>
        <time>2022-02-17T08:12:21Z</time>
      </trkpt>
      <trkpt lat="47.65068" lon="2.1659143">
        <ele>193.0</ele>
        <time>2022-02-17T08:12:22Z</time>
      </trkpt>
      <trkpt lat="47.65068" lon="2.1659143">
        <ele>193.0</ele>
        <time>2022-02-17T08:12:23Z</time>
      </trkpt>
      <trkpt lat="47.65068" lon="2.1659143">
        <ele>193.0</ele>
        <time>2022-02-17T08:12:24Z</time>
      </trkpt>
      <trkpt lat="47.650707" lon="2.165904">
        <ele>193.0</ele>
        <time>2022-02-17T08:12:25Z</time>
      </trkpt>
      <trkpt lat="47.650715" lon="2.1659012">
        <ele>194.0</ele>
        <time>2022-02-17T08:12:26Z</time>
      </trkpt>
      <trkpt lat="47.650726" lon="2.1658964">
        <ele>194.0</ele>
        <time>2022-02-17T08:12:27Z</time>
      </trkpt>
      <trkpt lat="47.650738" lon="2.1658916">
        <ele>194.0</ele>
        <time>2022-02-17T08:12:28Z</time>
      </trkpt>
      <trkpt lat="47.65075" lon="2.1658885">
        <ele>194.0</ele>
        <time>2022-02-17T08:12:29Z</time>
      </trkpt>
      <trkpt lat="47.650757" lon="2.1658852">
        <ele>194.0</ele>
        <time>2022-02-17T08:12:30Z</time>
      </trkpt>
      <trkpt lat="47.65077" lon="2.165888">
        <ele>195.0</ele>
        <time>2022-02-17T08:12:31Z</time>
      </trkpt>
      <trkpt lat="47.65077" lon="2.165888">
        <ele>195.0</ele>
        <time>2022-02-17T08:12:32Z</time>
      </trkpt>
      <trkpt lat="47.65077" lon="2.165888">
        <ele>195.0</ele>
        <time>2022-02-17T08:12:33Z</time>
      </trkpt>
      <trkpt lat="47.65079" lon="2.1658869">
        <ele>194.0</ele>
        <time>2022-02-17T08:12:34Z</time>
      </trkpt>
      <trkpt lat="47.650803" lon="2.165888">
        <ele>195.0</ele>
        <time>2022-02-17T08:12:35Z</time>
      </trkpt>
      <trkpt lat="47.650814" lon="2.165889">
        <ele>195.0</ele>
        <time>2022-02-17T08:12:36Z</time>
      </trkpt>
      <trkpt lat="47.65083" lon="2.1658812">
        <ele>195.0</ele>
        <time>2022-02-17T08:12:37Z</time>
      </trkpt>
      <trkpt lat="47.65083" lon="2.1658812">
        <ele>195.0</ele>
        <time>2022-02-17T08:12:38Z</time>
      </trkpt>
      <trkpt lat="47.65083" lon="2.1658812">
        <ele>195.0</ele>
        <time>2022-02-17T08:12:39Z</time>
      </trkpt>
      <trkpt lat="47.65086" lon="2.1658616">
        <ele>195.0</ele>
        <time>2022-02-17T08:12:40Z</time>
      </trkpt>
      <trkpt lat="47.650867" lon="2.1658533">
        <ele>195.0</ele>
        <time>2022-02-17T08:12:41Z</time>
      </trkpt>
      <trkpt lat="47.65087" lon="2.1658425">
        <ele>195.0</ele>
        <time>2022-02-17T08:12:42Z</time>
      </trkpt>
      <trkpt lat="47.650883" lon="2.1658397">
        <ele>195.0</ele>
        <time>2022-02-17T08:12:43Z</time>
      </trkpt>
      <trkpt lat="47.650894" lon="2.1658359">
        <ele>195.0</ele>
        <time>2022-02-17T08:12:44Z</time>
      </trkpt>
      <trkpt lat="47.65091" lon="2.1658328">
        <ele>195.0</ele>
        <time>2022-02-17T08:12:45Z</time>
      </trkpt>
      <trkpt lat="47.65092" lon="2.165822">
        <ele>195.0</ele>
        <time>2022-02-17T08:12:46Z</time>
      </trkpt>
      <trkpt lat="47.650932" lon="2.165816">
        <ele>195.0</ele>
        <time>2022-02-17T08:12:47Z</time>
      </trkpt>
      <trkpt lat="47.650944" lon="2.1658115">
        <ele>195.0</ele>
        <time>2022-02-17T08:12:48Z</time>
      </trkpt>
      <trkpt lat="47.650955" lon="2.165806">
        <ele>195.0</ele>
        <time>2022-02-17T08:12:49Z</time>
      </trkpt>
      <trkpt lat="47.650963" lon="2.1658008">
        <ele>195.0</ele>
        <time>2022-02-17T08:12:50Z</time>
      </trkpt>
      <trkpt lat="47.65097" lon="2.165794">
        <ele>195.0</ele>
        <time>2022-02-17T08:12:51Z</time>
      </trkpt>
      <trkpt lat="47.65097" lon="2.165794">
        <ele>195.0</ele>
        <time>2022-02-17T08:12:52Z</time>
      </trkpt>
      <trkpt lat="47.650993" lon="2.1657763">
        <ele>195.0</ele>
        <time>2022-02-17T08:12:53Z</time>
      </trkpt>
      <trkpt lat="47.65101" lon="2.1657782">
        <ele>195.0</ele>
        <time>2022-02-17T08:12:54Z</time>
      </trkpt>
      <trkpt lat="47.65102" lon="2.1657767">
        <ele>194.0</ele>
        <time>2022-02-17T08:12:55Z</time>
      </trkpt>
      <trkpt lat="47.651028" lon="2.1657739">
        <ele>194.0</ele>
        <time>2022-02-17T08:12:56Z</time>
      </trkpt>
      <trkpt lat="47.65104" lon="2.1657708">
        <ele>194.0</ele>
        <time>2022-02-17T08:12:57Z</time>
      </trkpt>
      <trkpt lat="47.65104" lon="2.1657708">
        <ele>194.0</ele>
        <time>2022-02-17T08:12:58Z</time>
      </trkpt>
      <trkpt lat="47.65104" lon="2.1657708">
        <ele>194.0</ele>
        <time>2022-02-17T08:12:59Z</time>
      </trkpt>
      <trkpt lat="47.651062" lon="2.1657486">
        <ele>194.0</ele>
        <time>2022-02-17T08:13:00Z</time>
      </trkpt>
      <trkpt lat="47.651066" lon="2.1657455">
        <ele>195.0</ele>
        <time>2022-02-17T08:13:01Z</time>
      </trkpt>
      <trkpt lat="47.651073" lon="2.1657379">
        <ele>195.0</ele>
        <time>2022-02-17T08:13:02Z</time>
      </trkpt>
      <trkpt lat="47.651077" lon="2.1657279">
        <ele>195.0</ele>
        <time>2022-02-17T08:13:03Z</time>
      </trkpt>
      <trkpt lat="47.651085" lon="2.165723">
        <ele>195.0</ele>
        <time>2022-02-17T08:13:04Z</time>
      </trkpt>
      <trkpt lat="47.651093" lon="2.165718">
        <ele>195.0</ele>
        <time>2022-02-17T08:13:05Z</time>
      </trkpt>
      <trkpt lat="47.6511" lon="2.165713">
        <ele>195.0</ele>
        <time>2022-02-17T08:13:06Z</time>
      </trkpt>
      <trkpt lat="47.6511" lon="2.165713">
        <ele>195.0</ele>
        <time>2022-02-17T08:13:07Z</time>
      </trkpt>
      <trkpt lat="47.6511" lon="2.165713">
        <ele>195.0</ele>
        <time>2022-02-17T08:13:08Z</time>
      </trkpt>
      <trkpt lat="47.651127" lon="2.1656973">
        <ele>194.0</ele>
        <time>2022-02-17T08:13:09Z</time>
      </trkpt>
      <trkpt lat="47.651134" lon="2.16569">
        <ele>194.0</ele>
        <time>2022-02-17T08:13:10Z</time>
      </trkpt>
      <trkpt lat="47.651146" lon="2.165682">
        <ele>194.0</ele>
        <time>2022-02-17T08:13:11Z</time>
      </trkpt>
      <trkpt lat="47.651154" lon="2.1656742">
        <ele>194.0</ele>
        <time>2022-02-17T08:13:12Z</time>
      </trkpt>
      <trkpt lat="47.651154" lon="2.1656742">
        <ele>194.0</ele>
        <time>2022-02-17T08:13:13Z</time>
      </trkpt>
      <trkpt lat="47.651154" lon="2.1656742">
        <ele>194.0</ele>
        <time>2022-02-17T08:13:14Z</time>
      </trkpt>
      <trkpt lat="47.651173" lon="2.1656623">
        <ele>194.0</ele>
        <time>2022-02-17T08:13:15Z</time>
      </trkpt>
      <trkpt lat="47.651184" lon="2.165656">
        <ele>194.0</ele>
        <time>2022-02-17T08:13:16Z</time>
      </trkpt>
      <trkpt lat="47.651196" lon="2.165646">
        <ele>194.0</ele>
        <time>2022-02-17T08:13:17Z</time>
      </trkpt>
      <trkpt lat="47.651207" lon="2.1656373">
        <ele>193.0</ele>
        <time>2022-02-17T08:13:18Z</time>
      </trkpt>
      <trkpt lat="47.651207" lon="2.1656373">
        <ele>193.0</ele>
        <time>2022-02-17T08:13:19Z</time>
      </trkpt>
      <trkpt lat="47.651207" lon="2.1656373">
        <ele>193.0</ele>
        <time>2022-02-17T08:13:20Z</time>
      </trkpt>
      <trkpt lat="47.651234" lon="2.1656113">
        <ele>192.0</ele>
        <time>2022-02-17T08:13:21Z</time>
      </trkpt>
      <trkpt lat="47.65125" lon="2.1656003">
        <ele>192.0</ele>
        <time>2022-02-17T08:13:22Z</time>
      </trkpt>
      <trkpt lat="47.65126" lon="2.1655893">
        <ele>191.0</ele>
        <time>2022-02-17T08:13:23Z</time>
      </trkpt>
      <trkpt lat="47.65127" lon="2.1655798">
        <ele>191.0</ele>
        <time>2022-02-17T08:13:24Z</time>
      </trkpt>
      <trkpt lat="47.651283" lon="2.165568">
        <ele>190.0</ele>
        <time>2022-02-17T08:13:25Z</time>
      </trkpt>
      <trkpt lat="47.65129" lon="2.1655567">
        <ele>190.0</ele>
        <time>2022-02-17T08:13:26Z</time>
      </trkpt>
      <trkpt lat="47.651302" lon="2.1655505">
        <ele>189.0</ele>
        <time>2022-02-17T08:13:27Z</time>
      </trkpt>
      <trkpt lat="47.651318" lon="2.1655471">
        <ele>189.0</ele>
        <time>2022-02-17T08:13:28Z</time>
      </trkpt>
      <trkpt lat="47.651333" lon="2.1655447">
        <ele>188.0</ele>
        <time>2022-02-17T08:13:29Z</time>
      </trkpt>
      <trkpt lat="47.65135" lon="2.1655378">
        <ele>188.0</ele>
        <time>2022-02-17T08:13:30Z</time>
      </trkpt>
      <trkpt lat="47.65136" lon="2.1655333">
        <ele>188.0</ele>
        <time>2022-02-17T08:13:31Z</time>
      </trkpt>
      <trkpt lat="47.65137" lon="2.1655288">
        <ele>187.0</ele>
        <time>2022-02-17T08:13:32Z</time>
      </trkpt>
      <trkpt lat="47.651386" lon="2.165522">
        <ele>187.0</ele>
        <time>2022-02-17T08:13:33Z</time>
      </trkpt>
      <trkpt lat="47.6514" lon="2.1655157">
        <ele>186.0</ele>
        <time>2022-02-17T08:13:34Z</time>
      </trkpt>
      <trkpt lat="47.651413" lon="2.1655102">
        <ele>186.0</ele>
        <time>2022-02-17T08:13:35Z</time>
      </trkpt>
      <trkpt lat="47.65143" lon="2.1655052">
        <ele>186.0</ele>
        <time>2022-02-17T08:13:36Z</time>
      </trkpt>
      <trkpt lat="47.65144" lon="2.1655045">
        <ele>186.0</ele>
        <time>2022-02-17T08:13:37Z</time>
      </trkpt>
      <trkpt lat="47.65145" lon="2.1655004">
        <ele>186.0</ele>
        <time>2022-02-17T08:13:38Z</time>
      </trkpt>
      <trkpt lat="47.651463" lon="2.1654947">
        <ele>186.0</ele>
        <time>2022-02-17T08:13:39Z</time>
      </trkpt>
      <trkpt lat="47.651474" lon="2.1654859">
        <ele>185.0</ele>
        <time>2022-02-17T08:13:40Z</time>
      </trkpt>
      <trkpt lat="47.65149" lon="2.1654797">
        <ele>185.0</ele>
        <time>2022-02-17T08:13:41Z</time>
      </trkpt>
      <trkpt lat="47.6515" lon="2.165475">
        <ele>185.0</ele>
        <time>2022-02-17T08:13:42Z</time>
      </trkpt>
      <trkpt lat="47.651512" lon="2.1654677">
        <ele>185.0</ele>
        <time>2022-02-17T08:13:43Z</time>
      </trkpt>
      <trkpt lat="47.65152" lon="2.165465">
        <ele>186.0</ele>
        <time>2022-02-17T08:13:44Z</time>
      </trkpt>
      <trkpt lat="47.65153" lon="2.165464">
        <ele>186.0</ele>
        <time>2022-02-17T08:13:45Z</time>
      </trkpt>
      <trkpt lat="47.651543" lon="2.1654642">
        <ele>186.0</ele>
        <time>2022-02-17T08:13:46Z</time>
      </trkpt>
      <trkpt lat="47.651554" lon="2.1654577">
        <ele>187.0</ele>
        <time>2022-02-17T08:13:47Z</time>
      </trkpt>
      <trkpt lat="47.651566" lon="2.1654537">
        <ele>187.0</ele>
        <time>2022-02-17T08:13:48Z</time>
      </trkpt>
      <trkpt lat="47.65158" lon="2.1654525">
        <ele>188.0</ele>
        <time>2022-02-17T08:13:49Z</time>
      </trkpt>
      <trkpt lat="47.651592" lon="2.1654532">
        <ele>188.0</ele>
        <time>2022-02-17T08:13:50Z</time>
      </trkpt>
      <trkpt lat="47.651608" lon="2.1654499">
        <ele>188.0</ele>
        <time>2022-02-17T08:13:51Z</time>
      </trkpt>
      <trkpt lat="47.651623" lon="2.165445">
        <ele>189.0</ele>
        <time>2022-02-17T08:13:52Z</time>
      </trkpt>
      <trkpt lat="47.65164" lon="2.165445">
        <ele>189.0</ele>
        <time>2022-02-17T08:13:53Z</time>
      </trkpt>
      <trkpt lat="47.65166" lon="2.1654472">
        <ele>190.0</ele>
        <time>2022-02-17T08:13:54Z</time>
      </trkpt>
      <trkpt lat="47.651688" lon="2.1654387">
        <ele>191.0</ele>
        <time>2022-02-17T08:13:55Z</time>
      </trkpt>
      <trkpt lat="47.651707" lon="2.165431">
        <ele>192.0</ele>
        <time>2022-02-17T08:13:56Z</time>
      </trkpt>
      <trkpt lat="47.651726" lon="2.165435">
        <ele>193.0</ele>
        <time>2022-02-17T08:13:57Z</time>
      </trkpt>
      <trkpt lat="47.651745" lon="2.1654413">
        <ele>194.0</ele>
        <time>2022-02-17T08:13:58Z</time>
      </trkpt>
      <trkpt lat="47.65176" lon="2.1654444">
        <ele>195.0</ele>
        <time>2022-02-17T08:13:59Z</time>
      </trkpt>
      <trkpt lat="47.65178" lon="2.1654463">
        <ele>196.0</ele>
        <time>2022-02-17T08:14:00Z</time>
      </trkpt>
      <trkpt lat="47.65179" lon="2.1654472">
        <ele>196.0</ele>
        <time>2022-02-17T08:14:01Z</time>
      </trkpt>
      <trkpt lat="47.651806" lon="2.16545">
        <ele>197.0</ele>
        <time>2022-02-17T08:14:02Z</time>
      </trkpt>
      <trkpt lat="47.651817" lon="2.165451">
        <ele>197.0</ele>
        <time>2022-02-17T08:14:03Z</time>
      </trkpt>
      <trkpt lat="47.65183" lon="2.1654503">
        <ele>197.0</ele>
        <time>2022-02-17T08:14:04Z</time>
      </trkpt>
      <trkpt lat="47.651844" lon="2.1654482">
        <ele>198.0</ele>
        <time>2022-02-17T08:14:05Z</time>
      </trkpt>
      <trkpt lat="47.65186" lon="2.165448">
        <ele>199.0</ele>
        <time>2022-02-17T08:14:06Z</time>
      </trkpt>
      <trkpt lat="47.65187" lon="2.1654487">
        <ele>199.0</ele>
        <time>2022-02-17T08:14:07Z</time>
      </trkpt>
      <trkpt lat="47.651886" lon="2.1654465">
        <ele>199.0</ele>
        <time>2022-02-17T08:14:08Z</time>
      </trkpt>
      <trkpt lat="47.651894" lon="2.1654444">
        <ele>199.0</ele>
        <time>2022-02-17T08:14:09Z</time>
      </trkpt>
      <trkpt lat="47.651905" lon="2.165444">
        <ele>198.0</ele>
        <time>2022-02-17T08:14:10Z</time>
      </trkpt>
      <trkpt lat="47.651917" lon="2.165444">
        <ele>198.0</ele>
        <time>2022-02-17T08:14:11Z</time>
      </trkpt>
      <trkpt lat="47.651928" lon="2.1654375">
        <ele>198.0</ele>
        <time>2022-02-17T08:14:12Z</time>
      </trkpt>
      <trkpt lat="47.651943" lon="2.1654336">
        <ele>198.0</ele>
        <time>2022-02-17T08:14:13Z</time>
      </trkpt>
      <trkpt lat="47.651955" lon="2.1654305">
        <ele>198.0</ele>
        <time>2022-02-17T08:14:14Z</time>
      </trkpt>
      <trkpt lat="47.651966" lon="2.1654272">
        <ele>198.0</ele>
        <time>2022-02-17T08:14:15Z</time>
      </trkpt>
      <trkpt lat="47.65198" lon="2.1654232">
        <ele>198.0</ele>
        <time>2022-02-17T08:14:16Z</time>
      </trkpt>
      <trkpt lat="47.651993" lon="2.1654193">
        <ele>198.0</ele>
        <time>2022-02-17T08:14:17Z</time>
      </trkpt>
      <trkpt lat="47.652008" lon="2.1654167">
        <ele>198.0</ele>
        <time>2022-02-17T08:14:18Z</time>
      </trkpt>
      <trkpt lat="47.65202" lon="2.1654174">
        <ele>198.0</ele>
        <time>2022-02-17T08:14:19Z</time>
      </trkpt>
      <trkpt lat="47.652035" lon="2.1654148">
        <ele>198.0</ele>
        <time>2022-02-17T08:14:20Z</time>
      </trkpt>
      <trkpt lat="47.652046" lon="2.1654096">
        <ele>199.0</ele>
        <time>2022-02-17T08:14:21Z</time>
      </trkpt>
      <trkpt lat="47.652058" lon="2.1654122">
        <ele>199.0</ele>
        <time>2022-02-17T08:14:22Z</time>
      </trkpt>
      <trkpt lat="47.652073" lon="2.165413">
        <ele>198.0</ele>
        <time>2022-02-17T08:14:23Z</time>
      </trkpt>
      <trkpt lat="47.652084" lon="2.1654108">
        <ele>198.0</ele>
        <time>2022-02-17T08:14:24Z</time>
      </trkpt>
      <trkpt lat="47.652092" lon="2.165409">
        <ele>197.0</ele>
        <time>2022-02-17T08:14:25Z</time>
      </trkpt>
      <trkpt lat="47.652103" lon="2.1654086">
        <ele>197.0</ele>
        <time>2022-02-17T08:14:26Z</time>
      </trkpt>
      <trkpt lat="47.65212" lon="2.1654124">
        <ele>197.0</ele>
        <time>2022-02-17T08:14:27Z</time>
      </trkpt>
      <trkpt lat="47.65213" lon="2.1654139">
        <ele>197.0</ele>
        <time>2022-02-17T08:14:28Z</time>
      </trkpt>
      <trkpt lat="47.65214" lon="2.16541">
        <ele>197.0</ele>
        <time>2022-02-17T08:14:29Z</time>
      </trkpt>
      <trkpt lat="47.652153" lon="2.165405">
        <ele>196.0</ele>
        <time>2022-02-17T08:14:30Z</time>
      </trkpt>
      <trkpt lat="47.652164" lon="2.1654">
        <ele>197.0</ele>
        <time>2022-02-17T08:14:31Z</time>
      </trkpt>
      <trkpt lat="47.652176" lon="2.1653996">
        <ele>197.0</ele>
        <time>2022-02-17T08:14:32Z</time>
      </trkpt>
      <trkpt lat="47.652187" lon="2.1653936">
        <ele>196.0</ele>
        <time>2022-02-17T08:14:33Z</time>
      </trkpt>
      <trkpt lat="47.6522" lon="2.1653912">
        <ele>196.0</ele>
        <time>2022-02-17T08:14:34Z</time>
      </trkpt>
      <trkpt lat="47.652214" lon="2.1653893">
        <ele>196.0</ele>
        <time>2022-02-17T08:14:35Z</time>
      </trkpt>
      <trkpt lat="47.65222" lon="2.16539">
        <ele>196.0</ele>
        <time>2022-02-17T08:14:36Z</time>
      </trkpt>
      <trkpt lat="47.652233" lon="2.165393">
        <ele>195.0</ele>
        <time>2022-02-17T08:14:37Z</time>
      </trkpt>
      <trkpt lat="47.65224" lon="2.1653912">
        <ele>195.0</ele>
        <time>2022-02-17T08:14:38Z</time>
      </trkpt>
      <trkpt lat="47.652252" lon="2.1653843">
        <ele>195.0</ele>
        <time>2022-02-17T08:14:39Z</time>
      </trkpt>
      <trkpt lat="47.652264" lon="2.1653895">
        <ele>194.0</ele>
        <time>2022-02-17T08:14:40Z</time>
      </trkpt>
      <trkpt lat="47.65227" lon="2.1653922">
        <ele>194.0</ele>
        <time>2022-02-17T08:14:41Z</time>
      </trkpt>
      <trkpt lat="47.652283" lon="2.1653976">
        <ele>194.0</ele>
        <time>2022-02-17T08:14:42Z</time>
      </trkpt>
      <trkpt lat="47.65229" lon="2.1653996">
        <ele>194.0</ele>
        <time>2022-02-17T08:14:43Z</time>
      </trkpt>
      <trkpt lat="47.652294" lon="2.1654022">
        <ele>194.0</ele>
        <time>2022-02-17T08:14:44Z</time>
      </trkpt>
      <trkpt lat="47.652306" lon="2.1653996">
        <ele>194.0</ele>
        <time>2022-02-17T08:14:45Z</time>
      </trkpt>
      <trkpt lat="47.652313" lon="2.1653945">
        <ele>194.0</ele>
        <time>2022-02-17T08:14:46Z</time>
      </trkpt>
      <trkpt lat="47.652325" lon="2.165396">
        <ele>194.0</ele>
        <time>2022-02-17T08:14:47Z</time>
      </trkpt>
      <trkpt lat="47.652336" lon="2.1653955">
        <ele>194.0</ele>
        <time>2022-02-17T08:14:48Z</time>
      </trkpt>
      <trkpt lat="47.652344" lon="2.1654">
        <ele>193.0</ele>
        <time>2022-02-17T08:14:49Z</time>
      </trkpt>
      <trkpt lat="47.65236" lon="2.1653984">
        <ele>193.0</ele>
        <time>2022-02-17T08:14:50Z</time>
      </trkpt>
      <trkpt lat="47.65237" lon="2.1654003">
        <ele>193.0</ele>
        <time>2022-02-17T08:14:51Z</time>
      </trkpt>
      <trkpt lat="47.652386" lon="2.165397">
        <ele>193.0</ele>
        <time>2022-02-17T08:14:52Z</time>
      </trkpt>
      <trkpt lat="47.6524" lon="2.1653996">
        <ele>193.0</ele>
        <time>2022-02-17T08:14:53Z</time>
      </trkpt>
      <trkpt lat="47.652416" lon="2.165391">
        <ele>192.0</ele>
        <time>2022-02-17T08:14:54Z</time>
      </trkpt>
      <trkpt lat="47.652424" lon="2.1653936">
        <ele>193.0</ele>
        <time>2022-02-17T08:14:55Z</time>
      </trkpt>
      <trkpt lat="47.652435" lon="2.1653945">
        <ele>192.0</ele>
        <time>2022-02-17T08:14:56Z</time>
      </trkpt>
      <trkpt lat="47.652447" lon="2.1653926">
        <ele>192.0</ele>
        <time>2022-02-17T08:14:57Z</time>
      </trkpt>
      <trkpt lat="47.652454" lon="2.1653814">
        <ele>192.0</ele>
        <time>2022-02-17T08:14:58Z</time>
      </trkpt>
      <trkpt lat="47.652466" lon="2.165369">
        <ele>192.0</ele>
        <time>2022-02-17T08:14:59Z</time>
      </trkpt>
      <trkpt lat="47.652473" lon="2.1653678">
        <ele>192.0</ele>
        <time>2022-02-17T08:15:00Z</time>
      </trkpt>
      <trkpt lat="47.652485" lon="2.1653678">
        <ele>192.0</ele>
        <time>2022-02-17T08:15:01Z</time>
      </trkpt>
      <trkpt lat="47.652493" lon="2.1653721">
        <ele>191.0</ele>
        <time>2022-02-17T08:15:02Z</time>
      </trkpt>
      <trkpt lat="47.652504" lon="2.1653786">
        <ele>191.0</ele>
        <time>2022-02-17T08:15:03Z</time>
      </trkpt>
      <trkpt lat="47.652515" lon="2.1653771">
        <ele>191.0</ele>
        <time>2022-02-17T08:15:04Z</time>
      </trkpt>
      <trkpt lat="47.652527" lon="2.165371">
        <ele>191.0</ele>
        <time>2022-02-17T08:15:05Z</time>
      </trkpt>
      <trkpt lat="47.65254" lon="2.1653743">
        <ele>191.0</ele>
        <time>2022-02-17T08:15:06Z</time>
      </trkpt>
      <trkpt lat="47.65255" lon="2.1653745">
        <ele>190.0</ele>
        <time>2022-02-17T08:15:07Z</time>
      </trkpt>
      <trkpt lat="47.65256" lon="2.1653707">
        <ele>190.0</ele>
        <time>2022-02-17T08:15:08Z</time>
      </trkpt>
      <trkpt lat="47.65257" lon="2.1653683">
        <ele>190.0</ele>
        <time>2022-02-17T08:15:09Z</time>
      </trkpt>
      <trkpt lat="47.652576" lon="2.1653674">
        <ele>190.0</ele>
        <time>2022-02-17T08:15:10Z</time>
      </trkpt>
      <trkpt lat="47.65258" lon="2.1653671">
        <ele>190.0</ele>
        <time>2022-02-17T08:15:11Z</time>
      </trkpt>
      <trkpt lat="47.652588" lon="2.1653652">
        <ele>189.0</ele>
        <time>2022-02-17T08:15:12Z</time>
      </trkpt>
      <trkpt lat="47.6526" lon="2.1653578">
        <ele>189.0</ele>
        <time>2022-02-17T08:15:13Z</time>
      </trkpt>
      <trkpt lat="47.6526" lon="2.1653578">
        <ele>189.0</ele>
        <time>2022-02-17T08:15:14Z</time>
      </trkpt>
      <trkpt lat="47.6526" lon="2.1653578">
        <ele>189.0</ele>
        <time>2022-02-17T08:15:15Z</time>
      </trkpt>
      <trkpt lat="47.652622" lon="2.165354">
        <ele>189.0</ele>
        <time>2022-02-17T08:15:16Z</time>
      </trkpt>
      <trkpt lat="47.652634" lon="2.1653457">
        <ele>190.0</ele>
        <time>2022-02-17T08:15:17Z</time>
      </trkpt>
      <trkpt lat="47.652645" lon="2.1653428">
        <ele>189.0</ele>
        <time>2022-02-17T08:15:18Z</time>
      </trkpt>
      <trkpt lat="47.65265" lon="2.1653411">
        <ele>189.0</ele>
        <time>2022-02-17T08:15:19Z</time>
      </trkpt>
      <trkpt lat="47.65266" lon="2.1653423">
        <ele>189.0</ele>
        <time>2022-02-17T08:15:20Z</time>
      </trkpt>
      <trkpt lat="47.65266" lon="2.1653423">
        <ele>189.0</ele>
        <time>2022-02-17T08:15:21Z</time>
      </trkpt>
      <trkpt lat="47.65266" lon="2.1653423">
        <ele>189.0</ele>
        <time>2022-02-17T08:15:22Z</time>
      </trkpt>
      <trkpt lat="47.65268" lon="2.1653376">
        <ele>189.0</ele>
        <time>2022-02-17T08:15:23Z</time>
      </trkpt>
      <trkpt lat="47.65269" lon="2.1653328">
        <ele>189.0</ele>
        <time>2022-02-17T08:15:24Z</time>
      </trkpt>
      <trkpt lat="47.6527" lon="2.1653254">
        <ele>190.0</ele>
        <time>2022-02-17T08:15:25Z</time>
      </trkpt>
      <trkpt lat="47.652702" lon="2.1653233">
        <ele>189.0</ele>
        <time>2022-02-17T08:15:26Z</time>
      </trkpt>
      <trkpt lat="47.652706" lon="2.1653204">
        <ele>190.0</ele>
        <time>2022-02-17T08:15:27Z</time>
      </trkpt>
      <trkpt lat="47.652718" lon="2.1653173">
        <ele>190.0</ele>
        <time>2022-02-17T08:15:28Z</time>
      </trkpt>
      <trkpt lat="47.65273" lon="2.1653178">
        <ele>190.0</ele>
        <time>2022-02-17T08:15:29Z</time>
      </trkpt>
      <trkpt lat="47.652744" lon="2.1653113">
        <ele>190.0</ele>
        <time>2022-02-17T08:15:30Z</time>
      </trkpt>
      <trkpt lat="47.652756" lon="2.1653087">
        <ele>190.0</ele>
        <time>2022-02-17T08:15:31Z</time>
      </trkpt>
      <trkpt lat="47.65277" lon="2.1653092">
        <ele>190.0</ele>
        <time>2022-02-17T08:15:32Z</time>
      </trkpt>
      <trkpt lat="47.652786" lon="2.165315">
        <ele>191.0</ele>
        <time>2022-02-17T08:15:33Z</time>
      </trkpt>
      <trkpt lat="47.6528" lon="2.1653183">
        <ele>191.0</ele>
        <time>2022-02-17T08:15:34Z</time>
      </trkpt>
      <trkpt lat="47.652817" lon="2.1653197">
        <ele>190.0</ele>
        <time>2022-02-17T08:15:35Z</time>
      </trkpt>
      <trkpt lat="47.652836" lon="2.1653242">
        <ele>190.0</ele>
        <time>2022-02-17T08:15:36Z</time>
      </trkpt>
      <trkpt lat="47.652843" lon="2.1653283">
        <ele>190.0</ele>
        <time>2022-02-17T08:15:37Z</time>
      </trkpt>
      <trkpt lat="47.652855" lon="2.1653283">
        <ele>190.0</ele>
        <time>2022-02-17T08:15:38Z</time>
      </trkpt>
      <trkpt lat="47.652866" lon="2.1653268">
        <ele>190.0</ele>
        <time>2022-02-17T08:15:39Z</time>
      </trkpt>
      <trkpt lat="47.652878" lon="2.1653228">
        <ele>190.0</ele>
        <time>2022-02-17T08:15:40Z</time>
      </trkpt>
      <trkpt lat="47.652893" lon="2.1653204">
        <ele>190.0</ele>
        <time>2022-02-17T08:15:41Z</time>
      </trkpt>
      <trkpt lat="47.652905" lon="2.1653206">
        <ele>191.0</ele>
        <time>2022-02-17T08:15:42Z</time>
      </trkpt>
      <trkpt lat="47.652916" lon="2.1653233">
        <ele>191.0</ele>
        <time>2022-02-17T08:15:43Z</time>
      </trkpt>
      <trkpt lat="47.652927" lon="2.1653223">
        <ele>190.0</ele>
        <time>2022-02-17T08:15:44Z</time>
      </trkpt>
      <trkpt lat="47.652943" lon="2.1653202">
        <ele>190.0</ele>
        <time>2022-02-17T08:15:45Z</time>
      </trkpt>
      <trkpt lat="47.652954" lon="2.1653242">
        <ele>191.0</ele>
        <time>2022-02-17T08:15:46Z</time>
      </trkpt>
      <trkpt lat="47.65296" lon="2.165326">
        <ele>190.0</ele>
        <time>2022-02-17T08:15:47Z</time>
      </trkpt>
      <trkpt lat="47.652977" lon="2.1653275">
        <ele>190.0</ele>
        <time>2022-02-17T08:15:48Z</time>
      </trkpt>
      <trkpt lat="47.652992" lon="2.1653233">
        <ele>191.0</ele>
        <time>2022-02-17T08:15:49Z</time>
      </trkpt>
      <trkpt lat="47.653004" lon="2.1653204">
        <ele>191.0</ele>
        <time>2022-02-17T08:15:50Z</time>
      </trkpt>
      <trkpt lat="47.65302" lon="2.1653187">
        <ele>190.0</ele>
        <time>2022-02-17T08:15:51Z</time>
      </trkpt>
      <trkpt lat="47.65303" lon="2.1653156">
        <ele>190.0</ele>
        <time>2022-02-17T08:15:52Z</time>
      </trkpt>
      <trkpt lat="47.653046" lon="2.1653118">
        <ele>190.0</ele>
        <time>2022-02-17T08:15:53Z</time>
      </trkpt>
      <trkpt lat="47.653053" lon="2.165312">
        <ele>190.0</ele>
        <time>2022-02-17T08:15:54Z</time>
      </trkpt>
      <trkpt lat="47.65306" lon="2.1653073">
        <ele>189.0</ele>
        <time>2022-02-17T08:15:55Z</time>
      </trkpt>
      <trkpt lat="47.653072" lon="2.165304">
        <ele>188.0</ele>
        <time>2022-02-17T08:15:56Z</time>
      </trkpt>
      <trkpt lat="47.653076" lon="2.1653004">
        <ele>188.0</ele>
        <time>2022-02-17T08:15:57Z</time>
      </trkpt>
      <trkpt lat="47.653088" lon="2.1652954">
        <ele>188.0</ele>
        <time>2022-02-17T08:15:58Z</time>
      </trkpt>
      <trkpt lat="47.6531" lon="2.1652954">
        <ele>187.0</ele>
        <time>2022-02-17T08:15:59Z</time>
      </trkpt>
      <trkpt lat="47.653107" lon="2.1652958">
        <ele>188.0</ele>
        <time>2022-02-17T08:16:00Z</time>
      </trkpt>
      <trkpt lat="47.65312" lon="2.165296">
        <ele>188.0</ele>
        <time>2022-02-17T08:16:01Z</time>
      </trkpt>
      <trkpt lat="47.653126" lon="2.1652956">
        <ele>188.0</ele>
        <time>2022-02-17T08:16:02Z</time>
      </trkpt>
      <trkpt lat="47.65314" lon="2.1653023">
        <ele>188.0</ele>
        <time>2022-02-17T08:16:03Z</time>
      </trkpt>
      <trkpt lat="47.653156" lon="2.1653066">
        <ele>189.0</ele>
        <time>2022-02-17T08:16:04Z</time>
      </trkpt>
      <trkpt lat="47.653164" lon="2.1653104">
        <ele>189.0</ele>
        <time>2022-02-17T08:16:05Z</time>
      </trkpt>
      <trkpt lat="47.653175" lon="2.1653073">
        <ele>188.0</ele>
        <time>2022-02-17T08:16:06Z</time>
      </trkpt>
      <trkpt lat="47.653183" lon="2.1653085">
        <ele>188.0</ele>
        <time>2022-02-17T08:16:07Z</time>
      </trkpt>
      <trkpt lat="47.653183" lon="2.1653085">
        <ele>188.0</ele>
        <time>2022-02-17T08:16:08Z</time>
      </trkpt>
      <trkpt lat="47.653202" lon="2.1653118">
        <ele>188.0</ele>
        <time>2022-02-17T08:16:09Z</time>
      </trkpt>
      <trkpt lat="47.653217" lon="2.1653135">
        <ele>188.0</ele>
        <time>2022-02-17T08:16:10Z</time>
      </trkpt>
      <trkpt lat="47.653233" lon="2.1653173">
        <ele>188.0</ele>
        <time>2022-02-17T08:16:11Z</time>
      </trkpt>
      <trkpt lat="47.65324" lon="2.1653194">
        <ele>188.0</ele>
        <time>2022-02-17T08:16:12Z</time>
      </trkpt>
      <trkpt lat="47.65325" lon="2.1653244">
        <ele>189.0</ele>
        <time>2022-02-17T08:16:13Z</time>
      </trkpt>
      <trkpt lat="47.653267" lon="2.1653254">
        <ele>190.0</ele>
        <time>2022-02-17T08:16:14Z</time>
      </trkpt>
      <trkpt lat="47.65328" lon="2.1653242">
        <ele>190.0</ele>
        <time>2022-02-17T08:16:15Z</time>
      </trkpt>
      <trkpt lat="47.653294" lon="2.1653295">
        <ele>189.0</ele>
        <time>2022-02-17T08:16:16Z</time>
      </trkpt>
      <trkpt lat="47.653305" lon="2.165331">
        <ele>189.0</ele>
        <time>2022-02-17T08:16:17Z</time>
      </trkpt>
      <trkpt lat="47.65332" lon="2.165329">
        <ele>190.0</ele>
        <time>2022-02-17T08:16:18Z</time>
      </trkpt>
      <trkpt lat="47.653336" lon="2.1653304">
        <ele>190.0</ele>
        <time>2022-02-17T08:16:19Z</time>
      </trkpt>
      <trkpt lat="47.65335" lon="2.165335">
        <ele>190.0</ele>
        <time>2022-02-17T08:16:20Z</time>
      </trkpt>
      <trkpt lat="47.653362" lon="2.1653314">
        <ele>190.0</ele>
        <time>2022-02-17T08:16:21Z</time>
      </trkpt>
      <trkpt lat="47.653378" lon="2.1653295">
        <ele>190.0</ele>
        <time>2022-02-17T08:16:22Z</time>
      </trkpt>
      <trkpt lat="47.65339" lon="2.165328">
        <ele>190.0</ele>
        <time>2022-02-17T08:16:23Z</time>
      </trkpt>
      <trkpt lat="47.6534" lon="2.1653314">
        <ele>190.0</ele>
        <time>2022-02-17T08:16:24Z</time>
      </trkpt>
      <trkpt lat="47.65341" lon="2.1653314">
        <ele>190.0</ele>
        <time>2022-02-17T08:16:25Z</time>
      </trkpt>
      <trkpt lat="47.653427" lon="2.1653345">
        <ele>190.0</ele>
        <time>2022-02-17T08:16:26Z</time>
      </trkpt>
      <trkpt lat="47.65344" lon="2.1653347">
        <ele>191.0</ele>
        <time>2022-02-17T08:16:27Z</time>
      </trkpt>
      <trkpt lat="47.653454" lon="2.165336">
        <ele>191.0</ele>
        <time>2022-02-17T08:16:28Z</time>
      </trkpt>
      <trkpt lat="47.653465" lon="2.1653333">
        <ele>191.0</ele>
        <time>2022-02-17T08:16:29Z</time>
      </trkpt>
      <trkpt lat="47.653477" lon="2.1653337">
        <ele>190.0</ele>
        <time>2022-02-17T08:16:30Z</time>
      </trkpt>
      <trkpt lat="47.653492" lon="2.1653316">
        <ele>190.0</ele>
        <time>2022-02-17T08:16:31Z</time>
      </trkpt>
      <trkpt lat="47.653507" lon="2.1653326">
        <ele>191.0</ele>
        <time>2022-02-17T08:16:32Z</time>
      </trkpt>
      <trkpt lat="47.65352" lon="2.1653323">
        <ele>191.0</ele>
        <time>2022-02-17T08:16:33Z</time>
      </trkpt>
      <trkpt lat="47.65353" lon="2.1653323">
        <ele>191.0</ele>
        <time>2022-02-17T08:16:34Z</time>
      </trkpt>
      <trkpt lat="47.65354" lon="2.1653335">
        <ele>190.0</ele>
        <time>2022-02-17T08:16:35Z</time>
      </trkpt>
      <trkpt lat="47.653557" lon="2.1653337">
        <ele>190.0</ele>
        <time>2022-02-17T08:16:36Z</time>
      </trkpt>
      <trkpt lat="47.65357" lon="2.1653333">
        <ele>190.0</ele>
        <time>2022-02-17T08:16:37Z</time>
      </trkpt>
      <trkpt lat="47.65358" lon="2.165335">
        <ele>190.0</ele>
        <time>2022-02-17T08:16:38Z</time>
      </trkpt>
      <trkpt lat="47.65359" lon="2.1653345">
        <ele>190.0</ele>
        <time>2022-02-17T08:16:39Z</time>
      </trkpt>
      <trkpt lat="47.653606" lon="2.1653361">
        <ele>190.0</ele>
        <time>2022-02-17T08:16:40Z</time>
      </trkpt>
      <trkpt lat="47.653618" lon="2.165338">
        <ele>191.0</ele>
        <time>2022-02-17T08:16:41Z</time>
      </trkpt>
      <trkpt lat="47.65363" lon="2.1653385">
        <ele>191.0</ele>
        <time>2022-02-17T08:16:42Z</time>
      </trkpt>
      <trkpt lat="47.653645" lon="2.165342">
        <ele>191.0</ele>
        <time>2022-02-17T08:16:43Z</time>
      </trkpt>
      <trkpt lat="47.653652" lon="2.165342">
        <ele>191.0</ele>
        <time>2022-02-17T08:16:44Z</time>
      </trkpt>
      <trkpt lat="47.653652" lon="2.1653426">
        <ele>191.0</ele>
        <time>2022-02-17T08:16:45Z</time>
      </trkpt>
      <trkpt lat="47.65366" lon="2.1653452">
        <ele>191.0</ele>
        <time>2022-02-17T08:16:46Z</time>
      </trkpt>
      <trkpt lat="47.653675" lon="2.1653423">
        <ele>191.0</ele>
        <time>2022-02-17T08:16:47Z</time>
      </trkpt>
      <trkpt lat="47.653687" lon="2.1653419">
        <ele>191.0</ele>
        <time>2022-02-17T08:16:48Z</time>
      </trkpt>
      <trkpt lat="47.653698" lon="2.1653433">
        <ele>191.0</ele>
        <time>2022-02-17T08:16:49Z</time>
      </trkpt>
      <trkpt lat="47.65371" lon="2.1653447">
        <ele>191.0</ele>
        <time>2022-02-17T08:16:50Z</time>
      </trkpt>
      <trkpt lat="47.653725" lon="2.1653445">
        <ele>190.0</ele>
        <time>2022-02-17T08:16:51Z</time>
      </trkpt>
      <trkpt lat="47.653736" lon="2.1653397">
        <ele>191.0</ele>
        <time>2022-02-17T08:16:52Z</time>
      </trkpt>
      <trkpt lat="47.65375" lon="2.165336">
        <ele>191.0</ele>
        <time>2022-02-17T08:16:53Z</time>
      </trkpt>
      <trkpt lat="47.653763" lon="2.1653347">
        <ele>191.0</ele>
        <time>2022-02-17T08:16:54Z</time>
      </trkpt>
      <trkpt lat="47.653774" lon="2.1653347">
        <ele>191.0</ele>
        <time>2022-02-17T08:16:55Z</time>
      </trkpt>
      <trkpt lat="47.653786" lon="2.165338">
        <ele>191.0</ele>
        <time>2022-02-17T08:16:56Z</time>
      </trkpt>
      <trkpt lat="47.653797" lon="2.1653373">
        <ele>190.0</ele>
        <time>2022-02-17T08:16:57Z</time>
      </trkpt>
      <trkpt lat="47.653812" lon="2.1653383">
        <ele>191.0</ele>
        <time>2022-02-17T08:16:58Z</time>
      </trkpt>
      <trkpt lat="47.653824" lon="2.1653383">
        <ele>191.0</ele>
        <time>2022-02-17T08:16:59Z</time>
      </trkpt>
      <trkpt lat="47.653828" lon="2.1653402">
        <ele>190.0</ele>
        <time>2022-02-17T08:17:00Z</time>
      </trkpt>
      <trkpt lat="47.653835" lon="2.165342">
        <ele>190.0</ele>
        <time>2022-02-17T08:17:01Z</time>
      </trkpt>
      <trkpt lat="47.653843" lon="2.1653452">
        <ele>190.0</ele>
        <time>2022-02-17T08:17:02Z</time>
      </trkpt>
      <trkpt lat="47.65386" lon="2.1653495">
        <ele>189.0</ele>
        <time>2022-02-17T08:17:03Z</time>
      </trkpt>
      <trkpt lat="47.653866" lon="2.16535">
        <ele>189.0</ele>
        <time>2022-02-17T08:17:04Z</time>
      </trkpt>
      <trkpt lat="47.653877" lon="2.1653497">
        <ele>190.0</ele>
        <time>2022-02-17T08:17:05Z</time>
      </trkpt>
      <trkpt lat="47.65389" lon="2.165347">
        <ele>190.0</ele>
        <time>2022-02-17T08:17:06Z</time>
      </trkpt>
      <trkpt lat="47.65389" lon="2.1653473">
        <ele>190.0</ele>
        <time>2022-02-17T08:17:07Z</time>
      </trkpt>
      <trkpt lat="47.65389" lon="2.1653473">
        <ele>190.0</ele>
        <time>2022-02-17T08:17:08Z</time>
      </trkpt>
      <trkpt lat="47.65389" lon="2.1653473">
        <ele>190.0</ele>
        <time>2022-02-17T08:17:09Z</time>
      </trkpt>
      <trkpt lat="47.65389" lon="2.1653473">
        <ele>190.0</ele>
        <time>2022-02-17T08:17:10Z</time>
      </trkpt>
      <trkpt lat="47.653915" lon="2.1653407">
        <ele>189.0</ele>
        <time>2022-02-17T08:17:11Z</time>
      </trkpt>
      <trkpt lat="47.65393" lon="2.1653438">
        <ele>190.0</ele>
        <time>2022-02-17T08:17:12Z</time>
      </trkpt>
      <trkpt lat="47.653946" lon="2.1653416">
        <ele>190.0</ele>
        <time>2022-02-17T08:17:13Z</time>
      </trkpt>
      <trkpt lat="47.65396" lon="2.1653385">
        <ele>191.0</ele>
        <time>2022-02-17T08:17:14Z</time>
      </trkpt>
      <trkpt lat="47.65397" lon="2.16534">
        <ele>191.0</ele>
        <time>2022-02-17T08:17:15Z</time>
      </trkpt>
      <trkpt lat="47.65398" lon="2.1653407">
        <ele>191.0</ele>
        <time>2022-02-17T08:17:16Z</time>
      </trkpt>
      <trkpt lat="47.653996" lon="2.1653423">
        <ele>191.0</ele>
        <time>2022-02-17T08:17:17Z</time>
      </trkpt>
      <trkpt lat="47.654007" lon="2.1653442">
        <ele>191.0</ele>
        <time>2022-02-17T08:17:18Z</time>
      </trkpt>
      <trkpt lat="47.65402" lon="2.1653452">
        <ele>191.0</ele>
        <time>2022-02-17T08:17:19Z</time>
      </trkpt>
      <trkpt lat="47.654034" lon="2.1653476">
        <ele>191.0</ele>
        <time>2022-02-17T08:17:20Z</time>
      </trkpt>
      <trkpt lat="47.65405" lon="2.1653538">
        <ele>191.0</ele>
        <time>2022-02-17T08:17:21Z</time>
      </trkpt>
      <trkpt lat="47.654064" lon="2.1653576">
        <ele>191.0</ele>
        <time>2022-02-17T08:17:22Z</time>
      </trkpt>
      <trkpt lat="47.65408" lon="2.165366">
        <ele>191.0</ele>
        <time>2022-02-17T08:17:23Z</time>
      </trkpt>
      <trkpt lat="47.65409" lon="2.1653678">
        <ele>192.0</ele>
        <time>2022-02-17T08:17:24Z</time>
      </trkpt>
      <trkpt lat="47.654102" lon="2.165367">
        <ele>192.0</ele>
        <time>2022-02-17T08:17:25Z</time>
      </trkpt>
      <trkpt lat="47.654118" lon="2.1653678">
        <ele>192.0</ele>
        <time>2022-02-17T08:17:26Z</time>
      </trkpt>
      <trkpt lat="47.65413" lon="2.1653683">
        <ele>191.0</ele>
        <time>2022-02-17T08:17:27Z</time>
      </trkpt>
      <trkpt lat="47.654144" lon="2.165371">
        <ele>191.0</ele>
        <time>2022-02-17T08:17:28Z</time>
      </trkpt>
      <trkpt lat="47.65416" lon="2.165369">
        <ele>191.0</ele>
        <time>2022-02-17T08:17:29Z</time>
      </trkpt>
      <trkpt lat="47.654175" lon="2.1653664">
        <ele>191.0</ele>
        <time>2022-02-17T08:17:30Z</time>
      </trkpt>
      <trkpt lat="47.65419" lon="2.1653626">
        <ele>191.0</ele>
        <time>2022-02-17T08:17:31Z</time>
      </trkpt>
      <trkpt lat="47.654205" lon="2.1653602">
        <ele>191.0</ele>
        <time>2022-02-17T08:17:32Z</time>
      </trkpt>
      <trkpt lat="47.654217" lon="2.1653564">
        <ele>191.0</ele>
        <time>2022-02-17T08:17:33Z</time>
      </trkpt>
      <trkpt lat="47.65423" lon="2.1653545">
        <ele>191.0</ele>
        <time>2022-02-17T08:17:34Z</time>
      </trkpt>
      <trkpt lat="47.65424" lon="2.165354">
        <ele>191.0</ele>
        <time>2022-02-17T08:17:35Z</time>
      </trkpt>
      <trkpt lat="47.65425" lon="2.1653547">
        <ele>191.0</ele>
        <time>2022-02-17T08:17:36Z</time>
      </trkpt>
      <trkpt lat="47.65426" lon="2.1653564">
        <ele>191.0</ele>
        <time>2022-02-17T08:17:37Z</time>
      </trkpt>
      <trkpt lat="47.654263" lon="2.1653602">
        <ele>191.0</ele>
        <time>2022-02-17T08:17:38Z</time>
      </trkpt>
      <trkpt lat="47.65427" lon="2.16536">
        <ele>192.0</ele>
        <time>2022-02-17T08:17:39Z</time>
      </trkpt>
      <trkpt lat="47.654278" lon="2.16535">
        <ele>192.0</ele>
        <time>2022-02-17T08:17:40Z</time>
      </trkpt>
      <trkpt lat="47.65429" lon="2.1653423">
        <ele>191.0</ele>
        <time>2022-02-17T08:17:41Z</time>
      </trkpt>
      <trkpt lat="47.654293" lon="2.1653388">
        <ele>191.0</ele>
        <time>2022-02-17T08:17:42Z</time>
      </trkpt>
      <trkpt lat="47.6543" lon="2.1653357">
        <ele>191.0</ele>
        <time>2022-02-17T08:17:43Z</time>
      </trkpt>
      <trkpt lat="47.654312" lon="2.1653368">
        <ele>191.0</ele>
        <time>2022-02-17T08:17:44Z</time>
      </trkpt>
      <trkpt lat="47.654324" lon="2.1653404">
        <ele>191.0</ele>
        <time>2022-02-17T08:17:45Z</time>
      </trkpt>
      <trkpt lat="47.65433" lon="2.1653476">
        <ele>191.0</ele>
        <time>2022-02-17T08:17:46Z</time>
      </trkpt>
      <trkpt lat="47.654346" lon="2.1653562">
        <ele>191.0</ele>
        <time>2022-02-17T08:17:47Z</time>
      </trkpt>
      <trkpt lat="47.654358" lon="2.1653569">
        <ele>192.0</ele>
        <time>2022-02-17T08:17:48Z</time>
      </trkpt>
      <trkpt lat="47.654366" lon="2.1653583">
        <ele>192.0</ele>
        <time>2022-02-17T08:17:49Z</time>
      </trkpt>
      <trkpt lat="47.65437" lon="2.1653628">
        <ele>192.0</ele>
        <time>2022-02-17T08:17:50Z</time>
      </trkpt>
      <trkpt lat="47.65438" lon="2.1653674">
        <ele>192.0</ele>
        <time>2022-02-17T08:17:51Z</time>
      </trkpt>
      <trkpt lat="47.65439" lon="2.1653714">
        <ele>191.0</ele>
        <time>2022-02-17T08:17:52Z</time>
      </trkpt>
      <trkpt lat="47.654404" lon="2.1653724">
        <ele>191.0</ele>
        <time>2022-02-17T08:17:53Z</time>
      </trkpt>
      <trkpt lat="47.65441" lon="2.1653712">
        <ele>191.0</ele>
        <time>2022-02-17T08:17:54Z</time>
      </trkpt>
      <trkpt lat="47.654423" lon="2.1653738">
        <ele>191.0</ele>
        <time>2022-02-17T08:17:55Z</time>
      </trkpt>
      <trkpt lat="47.654434" lon="2.1653748">
        <ele>191.0</ele>
        <time>2022-02-17T08:17:56Z</time>
      </trkpt>
      <trkpt lat="47.65445" lon="2.1653812">
        <ele>191.0</ele>
        <time>2022-02-17T08:17:57Z</time>
      </trkpt>
      <trkpt lat="47.654465" lon="2.165386">
        <ele>191.0</ele>
        <time>2022-02-17T08:17:58Z</time>
      </trkpt>
      <trkpt lat="47.654476" lon="2.1653903">
        <ele>191.0</ele>
        <time>2022-02-17T08:17:59Z</time>
      </trkpt>
      <trkpt lat="47.65449" lon="2.165397">
        <ele>190.0</ele>
        <time>2022-02-17T08:18:00Z</time>
      </trkpt>
      <trkpt lat="47.654507" lon="2.1654074">
        <ele>191.0</ele>
        <time>2022-02-17T08:18:01Z</time>
      </trkpt>
      <trkpt lat="47.654522" lon="2.1654162">
        <ele>192.0</ele>
        <time>2022-02-17T08:18:02Z</time>
      </trkpt>
      <trkpt lat="47.654533" lon="2.165422">
        <ele>192.0</ele>
        <time>2022-02-17T08:18:03Z</time>
      </trkpt>
      <trkpt lat="47.654545" lon="2.165425">
        <ele>192.0</ele>
        <time>2022-02-17T08:18:04Z</time>
      </trkpt>
      <trkpt lat="47.65456" lon="2.1654308">
        <ele>193.0</ele>
        <time>2022-02-17T08:18:05Z</time>
      </trkpt>
      <trkpt lat="47.65457" lon="2.165436">
        <ele>193.0</ele>
        <time>2022-02-17T08:18:06Z</time>
      </trkpt>
      <trkpt lat="47.654587" lon="2.1654363">
        <ele>192.0</ele>
        <time>2022-02-17T08:18:07Z</time>
      </trkpt>
      <trkpt lat="47.6546" lon="2.1654408">
        <ele>192.0</ele>
        <time>2022-02-17T08:18:08Z</time>
      </trkpt>
      <trkpt lat="47.65461" lon="2.1654396">
        <ele>191.0</ele>
        <time>2022-02-17T08:18:09Z</time>
      </trkpt>
      <trkpt lat="47.654625" lon="2.1654398">
        <ele>192.0</ele>
        <time>2022-02-17T08:18:10Z</time>
      </trkpt>
      <trkpt lat="47.65464" lon="2.165443">
        <ele>192.0</ele>
        <time>2022-02-17T08:18:11Z</time>
      </trkpt>
      <trkpt lat="47.654655" lon="2.1654425">
        <ele>192.0</ele>
        <time>2022-02-17T08:18:12Z</time>
      </trkpt>
      <trkpt lat="47.65467" lon="2.1654382">
        <ele>191.0</ele>
        <time>2022-02-17T08:18:13Z</time>
      </trkpt>
      <trkpt lat="47.654682" lon="2.1654377">
        <ele>192.0</ele>
        <time>2022-02-17T08:18:14Z</time>
      </trkpt>
      <trkpt lat="47.654694" lon="2.1654382">
        <ele>192.0</ele>
        <time>2022-02-17T08:18:15Z</time>
      </trkpt>
      <trkpt lat="47.65471" lon="2.1654363">
        <ele>192.0</ele>
        <time>2022-02-17T08:18:16Z</time>
      </trkpt>
      <trkpt lat="47.65472" lon="2.1654403">
        <ele>192.0</ele>
        <time>2022-02-17T08:18:17Z</time>
      </trkpt>
      <trkpt lat="47.654736" lon="2.1654387">
        <ele>192.0</ele>
        <time>2022-02-17T08:18:18Z</time>
      </trkpt>
      <trkpt lat="47.654747" lon="2.1654375">
        <ele>192.0</ele>
        <time>2022-02-17T08:18:19Z</time>
      </trkpt>
      <trkpt lat="47.65476" lon="2.1654387">
        <ele>192.0</ele>
        <time>2022-02-17T08:18:20Z</time>
      </trkpt>
      <trkpt lat="47.65477" lon="2.16544">
        <ele>192.0</ele>
        <time>2022-02-17T08:18:21Z</time>
      </trkpt>
      <trkpt lat="47.65478" lon="2.165438">
        <ele>193.0</ele>
        <time>2022-02-17T08:18:22Z</time>
      </trkpt>
      <trkpt lat="47.654793" lon="2.1654346">
        <ele>193.0</ele>
        <time>2022-02-17T08:18:23Z</time>
      </trkpt>
      <trkpt lat="47.654793" lon="2.1654346">
        <ele>193.0</ele>
        <time>2022-02-17T08:18:24Z</time>
      </trkpt>
      <trkpt lat="47.654793" lon="2.1654346">
        <ele>193.0</ele>
        <time>2022-02-17T08:18:25Z</time>
      </trkpt>
      <trkpt lat="47.65482" lon="2.1654322">
        <ele>193.0</ele>
        <time>2022-02-17T08:18:26Z</time>
      </trkpt>
      <trkpt lat="47.65483" lon="2.1654332">
        <ele>193.0</ele>
        <time>2022-02-17T08:18:27Z</time>
      </trkpt>
      <trkpt lat="47.654842" lon="2.165438">
        <ele>194.0</ele>
        <time>2022-02-17T08:18:28Z</time>
      </trkpt>
      <trkpt lat="47.654846" lon="2.1654432">
        <ele>194.0</ele>
        <time>2022-02-17T08:18:29Z</time>
      </trkpt>
      <trkpt lat="47.654846" lon="2.1654432">
        <ele>194.0</ele>
        <time>2022-02-17T08:18:30Z</time>
      </trkpt>
      <trkpt lat="47.654846" lon="2.1654432">
        <ele>194.0</ele>
        <time>2022-02-17T08:18:31Z</time>
      </trkpt>
      <trkpt lat="47.65487" lon="2.165447">
        <ele>194.0</ele>
        <time>2022-02-17T08:18:32Z</time>
      </trkpt>
      <trkpt lat="47.654884" lon="2.1654508">
        <ele>194.0</ele>
        <time>2022-02-17T08:18:33Z</time>
      </trkpt>
      <trkpt lat="47.6549" lon="2.1654537">
        <ele>194.0</ele>
        <time>2022-02-17T08:18:34Z</time>
      </trkpt>
      <trkpt lat="47.65491" lon="2.1654515">
        <ele>194.0</ele>
        <time>2022-02-17T08:18:35Z</time>
      </trkpt>
      <trkpt lat="47.654922" lon="2.1654515">
        <ele>194.0</ele>
        <time>2022-02-17T08:18:36Z</time>
      </trkpt>
      <trkpt lat="47.654938" lon="2.1654482">
        <ele>194.0</ele>
        <time>2022-02-17T08:18:37Z</time>
      </trkpt>
      <trkpt lat="47.654938" lon="2.1654487">
        <ele>194.0</ele>
        <time>2022-02-17T08:18:38Z</time>
      </trkpt>
      <trkpt lat="47.654945" lon="2.1654544">
        <ele>194.0</ele>
        <time>2022-02-17T08:18:39Z</time>
      </trkpt>
      <trkpt lat="47.654945" lon="2.1654544">
        <ele>194.0</ele>
        <time>2022-02-17T08:18:40Z</time>
      </trkpt>
      <trkpt lat="47.654945" lon="2.1654544">
        <ele>194.0</ele>
        <time>2022-02-17T08:18:41Z</time>
      </trkpt>
      <trkpt lat="47.654976" lon="2.1654434">
        <ele>194.0</ele>
        <time>2022-02-17T08:18:42Z</time>
      </trkpt>
      <trkpt lat="47.654987" lon="2.165437">
        <ele>194.0</ele>
        <time>2022-02-17T08:18:43Z</time>
      </trkpt>
      <trkpt lat="47.654995" lon="2.1654332">
        <ele>193.0</ele>
        <time>2022-02-17T08:18:44Z</time>
      </trkpt>
      <trkpt lat="47.65501" lon="2.1654267">
        <ele>193.0</ele>
        <time>2022-02-17T08:18:45Z</time>
      </trkpt>
      <trkpt lat="47.65502" lon="2.1654189">
        <ele>193.0</ele>
        <time>2022-02-17T08:18:46Z</time>
      </trkpt>
      <trkpt lat="47.65503" lon="2.1654117">
        <ele>193.0</ele>
        <time>2022-02-17T08:18:47Z</time>
      </trkpt>
      <trkpt lat="47.65504" lon="2.165409">
        <ele>193.0</ele>
        <time>2022-02-17T08:18:48Z</time>
      </trkpt>
      <trkpt lat="47.65504" lon="2.165409">
        <ele>193.0</ele>
        <time>2022-02-17T08:18:49Z</time>
      </trkpt>
      <trkpt lat="47.65504" lon="2.165409">
        <ele>193.0</ele>
        <time>2022-02-17T08:18:50Z</time>
      </trkpt>
      <trkpt lat="47.655064" lon="2.1654077">
        <ele>192.0</ele>
        <time>2022-02-17T08:18:51Z</time>
      </trkpt>
      <trkpt lat="47.65508" lon="2.1654062">
        <ele>192.0</ele>
        <time>2022-02-17T08:18:52Z</time>
      </trkpt>
      <trkpt lat="47.65509" lon="2.1654065">
        <ele>192.0</ele>
        <time>2022-02-17T08:18:53Z</time>
      </trkpt>
      <trkpt lat="47.6551" lon="2.1654072">
        <ele>191.0</ele>
        <time>2022-02-17T08:18:54Z</time>
      </trkpt>
      <trkpt lat="47.65511" lon="2.1654086">
        <ele>191.0</ele>
        <time>2022-02-17T08:18:55Z</time>
      </trkpt>
      <trkpt lat="47.65512" lon="2.1654067">
        <ele>190.0</ele>
        <time>2022-02-17T08:18:56Z</time>
      </trkpt>
      <trkpt lat="47.655136" lon="2.165403">
        <ele>190.0</ele>
        <time>2022-02-17T08:18:57Z</time>
      </trkpt>
      <trkpt lat="47.65515" lon="2.165397">
        <ele>190.0</ele>
        <time>2022-02-17T08:18:58Z</time>
      </trkpt>
      <trkpt lat="47.655163" lon="2.1653965">
        <ele>190.0</ele>
        <time>2022-02-17T08:18:59Z</time>
      </trkpt>
      <trkpt lat="47.655178" lon="2.1653988">
        <ele>189.0</ele>
        <time>2022-02-17T08:19:00Z</time>
      </trkpt>
      <trkpt lat="47.655193" lon="2.1653986">
        <ele>189.0</ele>
        <time>2022-02-17T08:19:01Z</time>
      </trkpt>
      <trkpt lat="47.655205" lon="2.1654046">
        <ele>189.0</ele>
        <time>2022-02-17T08:19:02Z</time>
      </trkpt>
      <trkpt lat="47.65522" lon="2.1654">
        <ele>189.0</ele>
        <time>2022-02-17T08:19:03Z</time>
      </trkpt>
      <trkpt lat="47.65523" lon="2.1653984">
        <ele>189.0</ele>
        <time>2022-02-17T08:19:04Z</time>
      </trkpt>
      <trkpt lat="47.655247" lon="2.1653957">
        <ele>189.0</ele>
        <time>2022-02-17T08:19:05Z</time>
      </trkpt>
      <trkpt lat="47.65526" lon="2.165397">
        <ele>189.0</ele>
        <time>2022-02-17T08:19:06Z</time>
      </trkpt>
      <trkpt lat="47.65527" lon="2.165401">
        <ele>188.0</ele>
        <time>2022-02-17T08:19:07Z</time>
      </trkpt>
      <trkpt lat="47.655285" lon="2.1654022">
        <ele>189.0</ele>
        <time>2022-02-17T08:19:08Z</time>
      </trkpt>
      <trkpt lat="47.655296" lon="2.1654065">
        <ele>189.0</ele>
        <time>2022-02-17T08:19:09Z</time>
      </trkpt>
      <trkpt lat="47.655308" lon="2.1654081">
        <ele>189.0</ele>
        <time>2022-02-17T08:19:10Z</time>
      </trkpt>
      <trkpt lat="47.65532" lon="2.1654115">
        <ele>190.0</ele>
        <time>2022-02-17T08:19:11Z</time>
      </trkpt>
      <trkpt lat="47.655334" lon="2.1654108">
        <ele>190.0</ele>
        <time>2022-02-17T08:19:12Z</time>
      </trkpt>
      <trkpt lat="47.655346" lon="2.165407">
        <ele>190.0</ele>
        <time>2022-02-17T08:19:13Z</time>
      </trkpt>
      <trkpt lat="47.655357" lon="2.165412">
        <ele>191.0</ele>
        <time>2022-02-17T08:19:14Z</time>
      </trkpt>
      <trkpt lat="47.655357" lon="2.165412">
        <ele>191.0</ele>
        <time>2022-02-17T08:19:15Z</time>
      </trkpt>
      <trkpt lat="47.655376" lon="2.1654136">
        <ele>191.0</ele>
        <time>2022-02-17T08:19:16Z</time>
      </trkpt>
      <trkpt lat="47.655384" lon="2.1654189">
        <ele>190.0</ele>
        <time>2022-02-17T08:19:17Z</time>
      </trkpt>
      <trkpt lat="47.65539" lon="2.1654212">
        <ele>190.0</ele>
        <time>2022-02-17T08:19:18Z</time>
      </trkpt>
      <trkpt lat="47.6554" lon="2.1654215">
        <ele>190.0</ele>
        <time>2022-02-17T08:19:19Z</time>
      </trkpt>
      <trkpt lat="47.655407" lon="2.1654208">
        <ele>190.0</ele>
        <time>2022-02-17T08:19:20Z</time>
      </trkpt>
      <trkpt lat="47.655407" lon="2.1654208">
        <ele>190.0</ele>
        <time>2022-02-17T08:19:21Z</time>
      </trkpt>
      <trkpt lat="47.655407" lon="2.1654208">
        <ele>190.0</ele>
        <time>2022-02-17T08:19:22Z</time>
      </trkpt>
      <trkpt lat="47.655434" lon="2.1654305">
        <ele>190.0</ele>
        <time>2022-02-17T08:19:23Z</time>
      </trkpt>
      <trkpt lat="47.65545" lon="2.1654375">
        <ele>191.0</ele>
        <time>2022-02-17T08:19:24Z</time>
      </trkpt>
      <trkpt lat="47.655457" lon="2.1654384">
        <ele>191.0</ele>
        <time>2022-02-17T08:19:25Z</time>
      </trkpt>
      <trkpt lat="47.655468" lon="2.1654441">
        <ele>191.0</ele>
        <time>2022-02-17T08:19:26Z</time>
      </trkpt>
      <trkpt lat="47.655476" lon="2.1654427">
        <ele>191.0</ele>
        <time>2022-02-17T08:19:27Z</time>
      </trkpt>
      <trkpt lat="47.655476" lon="2.1654427">
        <ele>191.0</ele>
        <time>2022-02-17T08:19:28Z</time>
      </trkpt>
      <trkpt lat="47.655476" lon="2.1654427">
        <ele>191.0</ele>
        <time>2022-02-17T08:19:29Z</time>
      </trkpt>
      <trkpt lat="47.655502" lon="2.1654468">
        <ele>191.0</ele>
        <time>2022-02-17T08:19:30Z</time>
      </trkpt>
      <trkpt lat="47.655518" lon="2.1654484">
        <ele>191.0</ele>
        <time>2022-02-17T08:19:31Z</time>
      </trkpt>
      <trkpt lat="47.655525" lon="2.165448">
        <ele>191.0</ele>
        <time>2022-02-17T08:19:32Z</time>
      </trkpt>
      <trkpt lat="47.65554" lon="2.1654518">
        <ele>191.0</ele>
        <time>2022-02-17T08:19:33Z</time>
      </trkpt>
      <trkpt lat="47.655556" lon="2.1654544">
        <ele>192.0</ele>
        <time>2022-02-17T08:19:34Z</time>
      </trkpt>
      <trkpt lat="47.65557" lon="2.165452">
        <ele>192.0</ele>
        <time>2022-02-17T08:19:35Z</time>
      </trkpt>
      <trkpt lat="47.655586" lon="2.1654482">
        <ele>192.0</ele>
        <time>2022-02-17T08:19:36Z</time>
      </trkpt>
      <trkpt lat="47.655605" lon="2.1654384">
        <ele>193.0</ele>
        <time>2022-02-17T08:19:37Z</time>
      </trkpt>
      <trkpt lat="47.65562" lon="2.165442">
        <ele>193.0</ele>
        <time>2022-02-17T08:19:38Z</time>
      </trkpt>
      <trkpt lat="47.65562" lon="2.165442">
        <ele>193.0</ele>
        <time>2022-02-17T08:19:38Z</time>
      </trkpt>
      <trkpt lat="47.655647" lon="2.1654315">
        <ele>193.0</ele>
        <time>2022-02-17T08:19:40Z</time>
      </trkpt>
      <trkpt lat="47.655647" lon="2.1654315">
        <ele>193.0</ele>
        <time>2022-02-17T08:19:40Z</time>
      </trkpt>
      <trkpt lat="47.65566" lon="2.1654284">
        <ele>193.0</ele>
        <time>2022-02-17T08:19:42Z</time>
      </trkpt>
      <trkpt lat="47.65567" lon="2.1654227">
        <ele>193.0</ele>
        <time>2022-02-17T08:19:43Z</time>
      </trkpt>
      <trkpt lat="47.655678" lon="2.1654162">
        <ele>193.0</ele>
        <time>2022-02-17T08:19:44Z</time>
      </trkpt>
      <trkpt lat="47.655678" lon="2.1654162">
        <ele>193.0</ele>
        <time>2022-02-17T08:19:45Z</time>
      </trkpt>
      <trkpt lat="47.655678" lon="2.1654162">
        <ele>193.0</ele>
        <time>2022-02-17T08:19:46Z</time>
      </trkpt>
      <trkpt lat="47.655712" lon="2.1654208">
        <ele>193.0</ele>
        <time>2022-02-17T08:19:47Z</time>
      </trkpt>
      <trkpt lat="47.655712" lon="2.1654208">
        <ele>193.0</ele>
        <time>2022-02-17T08:19:47Z</time>
      </trkpt>
      <trkpt lat="47.655727" lon="2.1654313">
        <ele>193.0</ele>
        <time>2022-02-17T08:19:49Z</time>
      </trkpt>
      <trkpt lat="47.655727" lon="2.1654313">
        <ele>193.0</ele>
        <time>2022-02-17T08:19:49Z</time>
      </trkpt>
      <trkpt lat="47.655743" lon="2.1654358">
        <ele>193.0</ele>
        <time>2022-02-17T08:19:51Z</time>
      </trkpt>
      <trkpt lat="47.655743" lon="2.1654358">
        <ele>193.0</ele>
        <time>2022-02-17T08:19:51Z</time>
      </trkpt>
      <trkpt lat="47.655758" lon="2.165446">
        <ele>192.0</ele>
        <time>2022-02-17T08:19:53Z</time>
      </trkpt>
      <trkpt lat="47.655758" lon="2.165446">
        <ele>192.0</ele>
        <time>2022-02-17T08:19:53Z</time>
      </trkpt>
      <trkpt lat="47.65577" lon="2.1654437">
        <ele>193.0</ele>
        <time>2022-02-17T08:19:55Z</time>
      </trkpt>
      <trkpt lat="47.65578" lon="2.1654475">
        <ele>193.0</ele>
        <time>2022-02-17T08:19:56Z</time>
      </trkpt>
      <trkpt lat="47.65579" lon="2.1654394">
        <ele>193.0</ele>
        <time>2022-02-17T08:19:57Z</time>
      </trkpt>
      <trkpt lat="47.655807" lon="2.165432">
        <ele>194.0</ele>
        <time>2022-02-17T08:19:58Z</time>
      </trkpt>
      <trkpt lat="47.655807" lon="2.165432">
        <ele>194.0</ele>
        <time>2022-02-17T08:19:58Z</time>
      </trkpt>
      <trkpt lat="47.655823" lon="2.1654315">
        <ele>195.0</ele>
        <time>2022-02-17T08:20:00Z</time>
      </trkpt>
      <trkpt lat="47.65583" lon="2.1654296">
        <ele>195.0</ele>
        <time>2022-02-17T08:20:01Z</time>
      </trkpt>
      <trkpt lat="47.65584" lon="2.165425">
        <ele>194.0</ele>
        <time>2022-02-17T08:20:02Z</time>
      </trkpt>
      <trkpt lat="47.65584" lon="2.165425">
        <ele>194.0</ele>
        <time>2022-02-17T08:20:03Z</time>
      </trkpt>
      <trkpt lat="47.65584" lon="2.165425">
        <ele>194.0</ele>
        <time>2022-02-17T08:20:03Z</time>
      </trkpt>
      <trkpt lat="47.65586" lon="2.1654105">
        <ele>195.0</ele>
        <time>2022-02-17T08:20:05Z</time>
      </trkpt>
      <trkpt lat="47.655872" lon="2.1654022">
        <ele>195.0</ele>
        <time>2022-02-17T08:20:06Z</time>
      </trkpt>
      <trkpt lat="47.65588" lon="2.1653907">
        <ele>195.0</ele>
        <time>2022-02-17T08:20:07Z</time>
      </trkpt>
      <trkpt lat="47.65588" lon="2.1653907">
        <ele>195.0</ele>
        <time>2022-02-17T08:20:07Z</time>
      </trkpt>
      <trkpt lat="47.65589" lon="2.165386">
        <ele>196.0</ele>
        <time>2022-02-17T08:20:09Z</time>
      </trkpt>
      <trkpt lat="47.65589" lon="2.165386">
        <ele>196.0</ele>
        <time>2022-02-17T08:20:10Z</time>
      </trkpt>
      <trkpt lat="47.65589" lon="2.165386">
        <ele>196.0</ele>
        <time>2022-02-17T08:20:10Z</time>
      </trkpt>
      <trkpt lat="47.655926" lon="2.165379">
        <ele>196.0</ele>
        <time>2022-02-17T08:20:12Z</time>
      </trkpt>
      <trkpt lat="47.655933" lon="2.16538">
        <ele>196.0</ele>
        <time>2022-02-17T08:20:13Z</time>
      </trkpt>
      <trkpt lat="47.655933" lon="2.16538">
        <ele>196.0</ele>
        <time>2022-02-17T08:20:13Z</time>
      </trkpt>
      <trkpt lat="47.655945" lon="2.165376">
        <ele>196.0</ele>
        <time>2022-02-17T08:20:15Z</time>
      </trkpt>
      <trkpt lat="47.655945" lon="2.165376">
        <ele>196.0</ele>
        <time>2022-02-17T08:20:15Z</time>
      </trkpt>
      <trkpt lat="47.65598" lon="2.165359">
        <ele>197.0</ele>
        <time>2022-02-17T08:20:17Z</time>
      </trkpt>
      <trkpt lat="47.655994" lon="2.1653576">
        <ele>196.0</ele>
        <time>2022-02-17T08:20:18Z</time>
      </trkpt>
      <trkpt lat="47.65601" lon="2.1653554">
        <ele>196.0</ele>
        <time>2022-02-17T08:20:19Z</time>
      </trkpt>
      <trkpt lat="47.656017" lon="2.1653578">
        <ele>196.0</ele>
        <time>2022-02-17T08:20:20Z</time>
      </trkpt>
      <trkpt lat="47.656025" lon="2.1653566">
        <ele>197.0</ele>
        <time>2022-02-17T08:20:21Z</time>
      </trkpt>
      <trkpt lat="47.656036" lon="2.1653595">
        <ele>197.0</ele>
        <time>2022-02-17T08:20:22Z</time>
      </trkpt>
      <trkpt lat="47.656036" lon="2.1653595">
        <ele>197.0</ele>
        <time>2022-02-17T08:20:23Z</time>
      </trkpt>
      <trkpt lat="47.656036" lon="2.1653595">
        <ele>197.0</ele>
        <time>2022-02-17T08:20:24Z</time>
      </trkpt>
      <trkpt lat="47.65606" lon="2.1653516">
        <ele>197.0</ele>
        <time>2022-02-17T08:20:25Z</time>
      </trkpt>
      <trkpt lat="47.656067" lon="2.165345">
        <ele>197.0</ele>
        <time>2022-02-17T08:20:26Z</time>
      </trkpt>
      <trkpt lat="47.65608" lon="2.1653447">
        <ele>197.0</ele>
        <time>2022-02-17T08:20:27Z</time>
      </trkpt>
      <trkpt lat="47.65609" lon="2.165345">
        <ele>198.0</ele>
        <time>2022-02-17T08:20:28Z</time>
      </trkpt>
      <trkpt lat="47.65609" lon="2.165345">
        <ele>198.0</ele>
        <time>2022-02-17T08:20:29Z</time>
      </trkpt>
      <trkpt lat="47.65609" lon="2.165345">
        <ele>198.0</ele>
        <time>2022-02-17T08:20:30Z</time>
      </trkpt>
      <trkpt lat="47.65612" lon="2.16534">
        <ele>197.0</ele>
        <time>2022-02-17T08:20:31Z</time>
      </trkpt>
      <trkpt lat="47.65612" lon="2.16534">
        <ele>197.0</ele>
        <time>2022-02-17T08:20:31Z</time>
      </trkpt>
      <trkpt lat="47.656143" lon="2.1653352">
        <ele>197.0</ele>
        <time>2022-02-17T08:20:33Z</time>
      </trkpt>
      <trkpt lat="47.656155" lon="2.165333">
        <ele>197.0</ele>
        <time>2022-02-17T08:20:34Z</time>
      </trkpt>
      <trkpt lat="47.656155" lon="2.165333">
        <ele>197.0</ele>
        <time>2022-02-17T08:20:35Z</time>
      </trkpt>
      <trkpt lat="47.656155" lon="2.165333">
        <ele>197.0</ele>
        <time>2022-02-17T08:20:36Z</time>
      </trkpt>
      <trkpt lat="47.656185" lon="2.165332">
        <ele>195.0</ele>
        <time>2022-02-17T08:20:37Z</time>
      </trkpt>
      <trkpt lat="47.656185" lon="2.165332">
        <ele>195.0</ele>
        <time>2022-02-17T08:20:37Z</time>
      </trkpt>
      <trkpt lat="47.656208" lon="2.1653316">
        <ele>195.0</ele>
        <time>2022-02-17T08:20:39Z</time>
      </trkpt>
      <trkpt lat="47.65622" lon="2.1653292">
        <ele>194.0</ele>
        <time>2022-02-17T08:20:40Z</time>
      </trkpt>
      <trkpt lat="47.65622" lon="2.1653292">
        <ele>194.0</ele>
        <time>2022-02-17T08:20:41Z</time>
      </trkpt>
      <trkpt lat="47.656242" lon="2.1653352">
        <ele>193.0</ele>
        <time>2022-02-17T08:20:42Z</time>
      </trkpt>
      <trkpt lat="47.656246" lon="2.1653354">
        <ele>193.0</ele>
        <time>2022-02-17T08:20:43Z</time>
      </trkpt>
      <trkpt lat="47.656254" lon="2.1653383">
        <ele>193.0</ele>
        <time>2022-02-17T08:20:44Z</time>
      </trkpt>
      <trkpt lat="47.656265" lon="2.1653404">
        <ele>193.0</ele>
        <time>2022-02-17T08:20:45Z</time>
      </trkpt>
      <trkpt lat="47.656265" lon="2.1653404">
        <ele>193.0</ele>
        <time>2022-02-17T08:20:46Z</time>
      </trkpt>
      <trkpt lat="47.656265" lon="2.1653404">
        <ele>193.0</ele>
        <time>2022-02-17T08:20:47Z</time>
      </trkpt>
      <trkpt lat="47.656292" lon="2.1653495">
        <ele>194.0</ele>
        <time>2022-02-17T08:20:48Z</time>
      </trkpt>
      <trkpt lat="47.6563" lon="2.1653469">
        <ele>194.0</ele>
        <time>2022-02-17T08:20:49Z</time>
      </trkpt>
      <trkpt lat="47.65631" lon="2.165344">
        <ele>194.0</ele>
        <time>2022-02-17T08:20:50Z</time>
      </trkpt>
      <trkpt lat="47.65632" lon="2.1653478">
        <ele>194.0</ele>
        <time>2022-02-17T08:20:51Z</time>
      </trkpt>
      <trkpt lat="47.65632" lon="2.1653478">
        <ele>194.0</ele>
        <time>2022-02-17T08:20:52Z</time>
      </trkpt>
      <trkpt lat="47.65632" lon="2.1653478">
        <ele>194.0</ele>
        <time>2022-02-17T08:20:52Z</time>
      </trkpt>
      <trkpt lat="47.65632" lon="2.1653478">
        <ele>194.0</ele>
        <time>2022-02-17T08:20:54Z</time>
      </trkpt>
      <trkpt lat="47.656364" lon="2.1653569">
        <ele>194.0</ele>
        <time>2022-02-17T08:20:55Z</time>
      </trkpt>
      <trkpt lat="47.656376" lon="2.165364">
        <ele>194.0</ele>
        <time>2022-02-17T08:20:56Z</time>
      </trkpt>
      <trkpt lat="47.656384" lon="2.1653664">
        <ele>194.0</ele>
        <time>2022-02-17T08:20:57Z</time>
      </trkpt>
      <trkpt lat="47.656395" lon="2.1653655">
        <ele>194.0</ele>
        <time>2022-02-17T08:20:58Z</time>
      </trkpt>
      <trkpt lat="47.656406" lon="2.1653652">
        <ele>194.0</ele>
        <time>2022-02-17T08:20:59Z</time>
      </trkpt>
      <trkpt lat="47.656406" lon="2.1653652">
        <ele>194.0</ele>
        <time>2022-02-17T08:21:00Z</time>
      </trkpt>
      <trkpt lat="47.656406" lon="2.1653652">
        <ele>194.0</ele>
        <time>2022-02-17T08:21:01Z</time>
      </trkpt>
      <trkpt lat="47.656433" lon="2.1653721">
        <ele>193.0</ele>
        <time>2022-02-17T08:21:02Z</time>
      </trkpt>
      <trkpt lat="47.656445" lon="2.1653748">
        <ele>193.0</ele>
        <time>2022-02-17T08:21:03Z</time>
      </trkpt>
      <trkpt lat="47.656452" lon="2.1653786">
        <ele>193.0</ele>
        <time>2022-02-17T08:21:04Z</time>
      </trkpt>
      <trkpt lat="47.656464" lon="2.1653814">
        <ele>193.0</ele>
        <time>2022-02-17T08:21:05Z</time>
      </trkpt>
      <trkpt lat="47.656464" lon="2.1653814">
        <ele>193.0</ele>
        <time>2022-02-17T08:21:06Z</time>
      </trkpt>
      <trkpt lat="47.656487" lon="2.1653898">
        <ele>192.0</ele>
        <time>2022-02-17T08:21:07Z</time>
      </trkpt>
      <trkpt lat="47.6565" lon="2.1653965">
        <ele>192.0</ele>
        <time>2022-02-17T08:21:08Z</time>
      </trkpt>
      <trkpt lat="47.656517" lon="2.1654024">
        <ele>192.0</ele>
        <time>2022-02-17T08:21:09Z</time>
      </trkpt>
      <trkpt lat="47.656532" lon="2.1654077">
        <ele>192.0</ele>
        <time>2022-02-17T08:21:10Z</time>
      </trkpt>
      <trkpt lat="47.656548" lon="2.165412">
        <ele>192.0</ele>
        <time>2022-02-17T08:21:11Z</time>
      </trkpt>
      <trkpt lat="47.656563" lon="2.165417">
        <ele>192.0</ele>
        <time>2022-02-17T08:21:12Z</time>
      </trkpt>
      <trkpt lat="47.656574" lon="2.1654189">
        <ele>192.0</ele>
        <time>2022-02-17T08:21:13Z</time>
      </trkpt>
      <trkpt lat="47.656586" lon="2.1654258">
        <ele>192.0</ele>
        <time>2022-02-17T08:21:14Z</time>
      </trkpt>
      <trkpt lat="47.656597" lon="2.1654255">
        <ele>192.0</ele>
        <time>2022-02-17T08:21:15Z</time>
      </trkpt>
      <trkpt lat="47.656605" lon="2.1654265">
        <ele>192.0</ele>
        <time>2022-02-17T08:21:16Z</time>
      </trkpt>
      <trkpt lat="47.656605" lon="2.1654265">
        <ele>192.0</ele>
        <time>2022-02-17T08:21:17Z</time>
      </trkpt>
      <trkpt lat="47.656605" lon="2.1654265">
        <ele>192.0</ele>
        <time>2022-02-17T08:21:18Z</time>
      </trkpt>
      <trkpt lat="47.65664" lon="2.1654332">
        <ele>194.0</ele>
        <time>2022-02-17T08:21:19Z</time>
      </trkpt>
      <trkpt lat="47.65665" lon="2.1654358">
        <ele>194.0</ele>
        <time>2022-02-17T08:21:20Z</time>
      </trkpt>
      <trkpt lat="47.656666" lon="2.165439">
        <ele>194.0</ele>
        <time>2022-02-17T08:21:21Z</time>
      </trkpt>
      <trkpt lat="47.656677" lon="2.1654449">
        <ele>194.0</ele>
        <time>2022-02-17T08:21:22Z</time>
      </trkpt>
      <trkpt lat="47.656677" lon="2.1654449">
        <ele>194.0</ele>
        <time>2022-02-17T08:21:23Z</time>
      </trkpt>
      <trkpt lat="47.656677" lon="2.1654449">
        <ele>194.0</ele>
        <time>2022-02-17T08:21:24Z</time>
      </trkpt>
      <trkpt lat="47.656708" lon="2.1654456">
        <ele>193.0</ele>
        <time>2022-02-17T08:21:25Z</time>
      </trkpt>
      <trkpt lat="47.65672" lon="2.165447">
        <ele>193.0</ele>
        <time>2022-02-17T08:21:26Z</time>
      </trkpt>
      <trkpt lat="47.656734" lon="2.1654463">
        <ele>193.0</ele>
        <time>2022-02-17T08:21:27Z</time>
      </trkpt>
      <trkpt lat="47.65675" lon="2.1654458">
        <ele>193.0</ele>
        <time>2022-02-17T08:21:28Z</time>
      </trkpt>
      <trkpt lat="47.656765" lon="2.165447">
        <ele>193.0</ele>
        <time>2022-02-17T08:21:29Z</time>
      </trkpt>
      <trkpt lat="47.65678" lon="2.1654522">
        <ele>194.0</ele>
        <time>2022-02-17T08:21:30Z</time>
      </trkpt>
      <trkpt lat="47.656796" lon="2.165456">
        <ele>194.0</ele>
        <time>2022-02-17T08:21:31Z</time>
      </trkpt>
      <trkpt lat="47.656807" lon="2.1654577">
        <ele>194.0</ele>
        <time>2022-02-17T08:21:32Z</time>
      </trkpt>
      <trkpt lat="47.656822" lon="2.1654587">
        <ele>194.0</ele>
        <time>2022-02-17T08:21:33Z</time>
      </trkpt>
      <trkpt lat="47.656834" lon="2.1654572">
        <ele>193.0</ele>
        <time>2022-02-17T08:21:34Z</time>
      </trkpt>
      <trkpt lat="47.656845" lon="2.1654623">
        <ele>194.0</ele>
        <time>2022-02-17T08:21:35Z</time>
      </trkpt>
      <trkpt lat="47.65686" lon="2.1654627">
        <ele>195.0</ele>
        <time>2022-02-17T08:21:36Z</time>
      </trkpt>
      <trkpt lat="47.65686" lon="2.1654627">
        <ele>195.0</ele>
        <time>2022-02-17T08:21:37Z</time>
      </trkpt>
      <trkpt lat="47.65686" lon="2.1654627">
        <ele>195.0</ele>
        <time>2022-02-17T08:21:38Z</time>
      </trkpt>
      <trkpt lat="47.656876" lon="2.165474">
        <ele>195.0</ele>
        <time>2022-02-17T08:21:39Z</time>
      </trkpt>
      <trkpt lat="47.65688" lon="2.1654792">
        <ele>195.0</ele>
        <time>2022-02-17T08:21:40Z</time>
      </trkpt>
      <trkpt lat="47.65689" lon="2.1654816">
        <ele>194.0</ele>
        <time>2022-02-17T08:21:41Z</time>
      </trkpt>
      <trkpt lat="47.656906" lon="2.1654801">
        <ele>195.0</ele>
        <time>2022-02-17T08:21:42Z</time>
      </trkpt>
      <trkpt lat="47.656914" lon="2.1654787">
        <ele>195.0</ele>
        <time>2022-02-17T08:21:43Z</time>
      </trkpt>
      <trkpt lat="47.656925" lon="2.1654825">
        <ele>195.0</ele>
        <time>2022-02-17T08:21:44Z</time>
      </trkpt>
      <trkpt lat="47.656925" lon="2.1654825">
        <ele>195.0</ele>
        <time>2022-02-17T08:21:45Z</time>
      </trkpt>
      <trkpt lat="47.656925" lon="2.1654825">
        <ele>195.0</ele>
        <time>2022-02-17T08:21:46Z</time>
      </trkpt>
      <trkpt lat="47.656956" lon="2.1654859">
        <ele>195.0</ele>
        <time>2022-02-17T08:21:47Z</time>
      </trkpt>
      <trkpt lat="47.656967" lon="2.1654842">
        <ele>195.0</ele>
        <time>2022-02-17T08:21:48Z</time>
      </trkpt>
      <trkpt lat="47.656982" lon="2.1654856">
        <ele>195.0</ele>
        <time>2022-02-17T08:21:49Z</time>
      </trkpt>
      <trkpt lat="47.656998" lon="2.1654835">
        <ele>196.0</ele>
        <time>2022-02-17T08:21:50Z</time>
      </trkpt>
      <trkpt lat="47.65701" lon="2.1654906">
        <ele>196.0</ele>
        <time>2022-02-17T08:21:51Z</time>
      </trkpt>
      <trkpt lat="47.657024" lon="2.1654954">
        <ele>196.0</ele>
        <time>2022-02-17T08:21:52Z</time>
      </trkpt>
      <trkpt lat="47.657024" lon="2.1654954">
        <ele>196.0</ele>
        <time>2022-02-17T08:21:53Z</time>
      </trkpt>
      <trkpt lat="47.657024" lon="2.1654954">
        <ele>196.0</ele>
        <time>2022-02-17T08:21:54Z</time>
      </trkpt>
      <trkpt lat="47.657047" lon="2.165504">
        <ele>196.0</ele>
        <time>2022-02-17T08:21:55Z</time>
      </trkpt>
      <trkpt lat="47.657055" lon="2.1655018">
        <ele>196.0</ele>
        <time>2022-02-17T08:21:56Z</time>
      </trkpt>
      <trkpt lat="47.657063" lon="2.1654997">
        <ele>196.0</ele>
        <time>2022-02-17T08:21:57Z</time>
      </trkpt>
      <trkpt lat="47.65707" lon="2.1655014">
        <ele>196.0</ele>
        <time>2022-02-17T08:21:58Z</time>
      </trkpt>
      <trkpt lat="47.65707" lon="2.1655014">
        <ele>196.0</ele>
        <time>2022-02-17T08:21:59Z</time>
      </trkpt>
      <trkpt lat="47.65707" lon="2.1655014">
        <ele>196.0</ele>
        <time>2022-02-17T08:22:00Z</time>
      </trkpt>
      <trkpt lat="47.657104" lon="2.165499">
        <ele>195.0</ele>
        <time>2022-02-17T08:22:01Z</time>
      </trkpt>
      <trkpt lat="47.657116" lon="2.1655025">
        <ele>195.0</ele>
        <time>2022-02-17T08:22:02Z</time>
      </trkpt>
      <trkpt lat="47.657124" lon="2.1655078">
        <ele>194.0</ele>
        <time>2022-02-17T08:22:03Z</time>
      </trkpt>
      <trkpt lat="47.65713" lon="2.16551">
        <ele>194.0</ele>
        <time>2022-02-17T08:22:04Z</time>
      </trkpt>
      <trkpt lat="47.657146" lon="2.1655138">
        <ele>194.0</ele>
        <time>2022-02-17T08:22:05Z</time>
      </trkpt>
      <trkpt lat="47.65716" lon="2.1655142">
        <ele>194.0</ele>
        <time>2022-02-17T08:22:06Z</time>
      </trkpt>
      <trkpt lat="47.657177" lon="2.1655164">
        <ele>193.0</ele>
        <time>2022-02-17T08:22:07Z</time>
      </trkpt>
      <trkpt lat="47.65719" lon="2.1655211">
        <ele>193.0</ele>
        <time>2022-02-17T08:22:08Z</time>
      </trkpt>
      <trkpt lat="47.657204" lon="2.1655238">
        <ele>193.0</ele>
        <time>2022-02-17T08:22:09Z</time>
      </trkpt>
      <trkpt lat="47.657215" lon="2.165528">
        <ele>193.0</ele>
        <time>2022-02-17T08:22:10Z</time>
      </trkpt>
      <trkpt lat="47.657223" lon="2.165528">
        <ele>193.0</ele>
        <time>2022-02-17T08:22:11Z</time>
      </trkpt>
      <trkpt lat="47.657238" lon="2.1655297">
        <ele>193.0</ele>
        <time>2022-02-17T08:22:12Z</time>
      </trkpt>
      <trkpt lat="47.657246" lon="2.165534">
        <ele>194.0</ele>
        <time>2022-02-17T08:22:13Z</time>
      </trkpt>
      <trkpt lat="47.657246" lon="2.165534">
        <ele>194.0</ele>
        <time>2022-02-17T08:22:14Z</time>
      </trkpt>
      <trkpt lat="47.657246" lon="2.165534">
        <ele>194.0</ele>
        <time>2022-02-17T08:22:15Z</time>
      </trkpt>
      <trkpt lat="47.657272" lon="2.1655498">
        <ele>193.0</ele>
        <time>2022-02-17T08:22:16Z</time>
      </trkpt>
      <trkpt lat="47.657284" lon="2.1655536">
        <ele>193.0</ele>
        <time>2022-02-17T08:22:17Z</time>
      </trkpt>
      <trkpt lat="47.657295" lon="2.1655593">
        <ele>193.0</ele>
        <time>2022-02-17T08:22:18Z</time>
      </trkpt>
      <trkpt lat="47.657307" lon="2.1655629">
        <ele>193.0</ele>
        <time>2022-02-17T08:22:19Z</time>
      </trkpt>
      <trkpt lat="47.657314" lon="2.1655607">
        <ele>193.0</ele>
        <time>2022-02-17T08:22:20Z</time>
      </trkpt>
      <trkpt lat="47.657326" lon="2.1655602">
        <ele>192.0</ele>
        <time>2022-02-17T08:22:21Z</time>
      </trkpt>
      <trkpt lat="47.657326" lon="2.1655602">
        <ele>192.0</ele>
        <time>2022-02-17T08:22:22Z</time>
      </trkpt>
      <trkpt lat="47.657326" lon="2.1655602">
        <ele>192.0</ele>
        <time>2022-02-17T08:22:23Z</time>
      </trkpt>
      <trkpt lat="47.657364" lon="2.165564">
        <ele>192.0</ele>
        <time>2022-02-17T08:22:24Z</time>
      </trkpt>
      <trkpt lat="47.657375" lon="2.1655726">
        <ele>193.0</ele>
        <time>2022-02-17T08:22:25Z</time>
      </trkpt>
      <trkpt lat="47.65739" lon="2.165577">
        <ele>193.0</ele>
        <time>2022-02-17T08:22:26Z</time>
      </trkpt>
      <trkpt lat="47.6574" lon="2.1655798">
        <ele>193.0</ele>
        <time>2022-02-17T08:22:27Z</time>
      </trkpt>
      <trkpt lat="47.6574" lon="2.1655798">
        <ele>193.0</ele>
        <time>2022-02-17T08:22:28Z</time>
      </trkpt>
      <trkpt lat="47.6574" lon="2.1655798">
        <ele>193.0</ele>
        <time>2022-02-17T08:22:29Z</time>
      </trkpt>
      <trkpt lat="47.65743" lon="2.1655889">
        <ele>193.0</ele>
        <time>2022-02-17T08:22:30Z</time>
      </trkpt>
      <trkpt lat="47.65744" lon="2.1655908">
        <ele>193.0</ele>
        <time>2022-02-17T08:22:31Z</time>
      </trkpt>
      <trkpt lat="47.657455" lon="2.1655972">
        <ele>193.0</ele>
        <time>2022-02-17T08:22:32Z</time>
      </trkpt>
      <trkpt lat="47.657463" lon="2.1655998">
        <ele>193.0</ele>
        <time>2022-02-17T08:22:33Z</time>
      </trkpt>
      <trkpt lat="47.657475" lon="2.165603">
        <ele>193.0</ele>
        <time>2022-02-17T08:22:34Z</time>
      </trkpt>
      <trkpt lat="47.657486" lon="2.1656091">
        <ele>193.0</ele>
        <time>2022-02-17T08:22:35Z</time>
      </trkpt>
      <trkpt lat="47.657486" lon="2.1656091">
        <ele>193.0</ele>
        <time>2022-02-17T08:22:36Z</time>
      </trkpt>
      <trkpt lat="47.657486" lon="2.1656091">
        <ele>193.0</ele>
        <time>2022-02-17T08:22:37Z</time>
      </trkpt>
      <trkpt lat="47.657516" lon="2.165625">
        <ele>192.0</ele>
        <time>2022-02-17T08:22:38Z</time>
      </trkpt>
      <trkpt lat="47.65752" lon="2.1656291">
        <ele>191.0</ele>
        <time>2022-02-17T08:22:39Z</time>
      </trkpt>
      <trkpt lat="47.65753" lon="2.165636">
        <ele>192.0</ele>
        <time>2022-02-17T08:22:40Z</time>
      </trkpt>
      <trkpt lat="47.65754" lon="2.1656394">
        <ele>191.0</ele>
        <time>2022-02-17T08:22:41Z</time>
      </trkpt>
      <trkpt lat="47.65754" lon="2.1656394">
        <ele>191.0</ele>
        <time>2022-02-17T08:22:42Z</time>
      </trkpt>
      <trkpt lat="47.65754" lon="2.1656394">
        <ele>191.0</ele>
        <time>2022-02-17T08:22:43Z</time>
      </trkpt>
      <trkpt lat="47.657562" lon="2.1656427">
        <ele>191.0</ele>
        <time>2022-02-17T08:22:44Z</time>
      </trkpt>
      <trkpt lat="47.657574" lon="2.1656456">
        <ele>191.0</ele>
        <time>2022-02-17T08:22:45Z</time>
      </trkpt>
      <trkpt lat="47.657585" lon="2.165653">
        <ele>191.0</ele>
        <time>2022-02-17T08:22:46Z</time>
      </trkpt>
      <trkpt lat="47.6576" lon="2.1656551">
        <ele>191.0</ele>
        <time>2022-02-17T08:22:47Z</time>
      </trkpt>
      <trkpt lat="47.65761" lon="2.1656604">
        <ele>191.0</ele>
        <time>2022-02-17T08:22:48Z</time>
      </trkpt>
      <trkpt lat="47.65763" lon="2.1656647">
        <ele>191.0</ele>
        <time>2022-02-17T08:22:49Z</time>
      </trkpt>
      <trkpt lat="47.657642" lon="2.1656663">
        <ele>191.0</ele>
        <time>2022-02-17T08:22:50Z</time>
      </trkpt>
      <trkpt lat="47.657658" lon="2.1656678">
        <ele>191.0</ele>
        <time>2022-02-17T08:22:51Z</time>
      </trkpt>
      <trkpt lat="47.65767" lon="2.1656687">
        <ele>191.0</ele>
        <time>2022-02-17T08:22:52Z</time>
      </trkpt>
      <trkpt lat="47.657684" lon="2.1656675">
        <ele>191.0</ele>
        <time>2022-02-17T08:22:53Z</time>
      </trkpt>
      <trkpt lat="47.657684" lon="2.1656675">
        <ele>191.0</ele>
        <time>2022-02-17T08:22:54Z</time>
      </trkpt>
      <trkpt lat="47.657684" lon="2.1656675">
        <ele>191.0</ele>
        <time>2022-02-17T08:22:55Z</time>
      </trkpt>
      <trkpt lat="47.657703" lon="2.1656725">
        <ele>191.0</ele>
        <time>2022-02-17T08:22:56Z</time>
      </trkpt>
      <trkpt lat="47.65771" lon="2.1656716">
        <ele>191.0</ele>
        <time>2022-02-17T08:22:57Z</time>
      </trkpt>
      <trkpt lat="47.65772" lon="2.1656752">
        <ele>191.0</ele>
        <time>2022-02-17T08:22:58Z</time>
      </trkpt>
      <trkpt lat="47.657734" lon="2.1656792">
        <ele>191.0</ele>
        <time>2022-02-17T08:22:59Z</time>
      </trkpt>
      <trkpt lat="47.657734" lon="2.1656792">
        <ele>191.0</ele>
        <time>2022-02-17T08:23:00Z</time>
      </trkpt>
      <trkpt lat="47.657734" lon="2.1656792">
        <ele>191.0</ele>
        <time>2022-02-17T08:23:01Z</time>
      </trkpt>
      <trkpt lat="47.657757" lon="2.1656916">
        <ele>190.0</ele>
        <time>2022-02-17T08:23:02Z</time>
      </trkpt>
      <trkpt lat="47.657764" lon="2.1656969">
        <ele>190.0</ele>
        <time>2022-02-17T08:23:03Z</time>
      </trkpt>
      <trkpt lat="47.657776" lon="2.1657064">
        <ele>190.0</ele>
        <time>2022-02-17T08:23:04Z</time>
      </trkpt>
      <trkpt lat="47.657787" lon="2.1657107">
        <ele>190.0</ele>
        <time>2022-02-17T08:23:05Z</time>
      </trkpt>
      <trkpt lat="47.6578" lon="2.1657152">
        <ele>190.0</ele>
        <time>2022-02-17T08:23:06Z</time>
      </trkpt>
      <trkpt lat="47.65781" lon="2.165724">
        <ele>190.0</ele>
        <time>2022-02-17T08:23:07Z</time>
      </trkpt>
      <trkpt lat="47.657825" lon="2.1657307">
        <ele>190.0</ele>
        <time>2022-02-17T08:23:08Z</time>
      </trkpt>
      <trkpt lat="47.65784" lon="2.1657379">
        <ele>191.0</ele>
        <time>2022-02-17T08:23:09Z</time>
      </trkpt>
      <trkpt lat="47.657856" lon="2.165744">
        <ele>191.0</ele>
        <time>2022-02-17T08:23:10Z</time>
      </trkpt>
      <trkpt lat="47.65787" lon="2.1657445">
        <ele>191.0</ele>
        <time>2022-02-17T08:23:11Z</time>
      </trkpt>
      <trkpt lat="47.657883" lon="2.1657398">
        <ele>191.0</ele>
        <time>2022-02-17T08:23:12Z</time>
      </trkpt>
      <trkpt lat="47.657894" lon="2.165748">
        <ele>191.0</ele>
        <time>2022-02-17T08:23:13Z</time>
      </trkpt>
      <trkpt lat="47.657894" lon="2.165748">
        <ele>191.0</ele>
        <time>2022-02-17T08:23:14Z</time>
      </trkpt>
      <trkpt lat="47.657894" lon="2.165748">
        <ele>191.0</ele>
        <time>2022-02-17T08:23:15Z</time>
      </trkpt>
      <trkpt lat="47.657925" lon="2.16576">
        <ele>191.0</ele>
        <time>2022-02-17T08:23:16Z</time>
      </trkpt>
      <trkpt lat="47.657932" lon="2.1657674">
        <ele>191.0</ele>
        <time>2022-02-17T08:23:17Z</time>
      </trkpt>
      <trkpt lat="47.65794" lon="2.1657763">
        <ele>191.0</ele>
        <time>2022-02-17T08:23:18Z</time>
      </trkpt>
      <trkpt lat="47.657948" lon="2.1657808">
        <ele>191.0</ele>
        <time>2022-02-17T08:23:19Z</time>
      </trkpt>
      <trkpt lat="47.65796" lon="2.165784">
        <ele>191.0</ele>
        <time>2022-02-17T08:23:20Z</time>
      </trkpt>
      <trkpt lat="47.65797" lon="2.1657815">
        <ele>191.0</ele>
        <time>2022-02-17T08:23:21Z</time>
      </trkpt>
      <trkpt lat="47.657986" lon="2.165786">
        <ele>191.0</ele>
        <time>2022-02-17T08:23:22Z</time>
      </trkpt>
      <trkpt lat="47.658005" lon="2.165791">
        <ele>191.0</ele>
        <time>2022-02-17T08:23:23Z</time>
      </trkpt>
      <trkpt lat="47.65802" lon="2.1657944">
        <ele>191.0</ele>
        <time>2022-02-17T08:23:24Z</time>
      </trkpt>
      <trkpt lat="47.65804" lon="2.1657958">
        <ele>191.0</ele>
        <time>2022-02-17T08:23:25Z</time>
      </trkpt>
      <trkpt lat="47.65805" lon="2.1657948">
        <ele>191.0</ele>
        <time>2022-02-17T08:23:26Z</time>
      </trkpt>
      <trkpt lat="47.658062" lon="2.165796">
        <ele>191.0</ele>
        <time>2022-02-17T08:23:27Z</time>
      </trkpt>
      <trkpt lat="47.658073" lon="2.1658015">
        <ele>191.0</ele>
        <time>2022-02-17T08:23:28Z</time>
      </trkpt>
      <trkpt lat="47.65809" lon="2.1658049">
        <ele>191.0</ele>
        <time>2022-02-17T08:23:29Z</time>
      </trkpt>
      <trkpt lat="47.658104" lon="2.1658108">
        <ele>191.0</ele>
        <time>2022-02-17T08:23:30Z</time>
      </trkpt>
      <trkpt lat="47.658115" lon="2.165814">
        <ele>192.0</ele>
        <time>2022-02-17T08:23:31Z</time>
      </trkpt>
      <trkpt lat="47.658127" lon="2.1658201">
        <ele>192.0</ele>
        <time>2022-02-17T08:23:32Z</time>
      </trkpt>
      <trkpt lat="47.658127" lon="2.1658201">
        <ele>192.0</ele>
        <time>2022-02-17T08:23:33Z</time>
      </trkpt>
      <trkpt lat="47.658127" lon="2.1658201">
        <ele>192.0</ele>
        <time>2022-02-17T08:23:34Z</time>
      </trkpt>
      <trkpt lat="47.65815" lon="2.1658256">
        <ele>191.0</ele>
        <time>2022-02-17T08:23:35Z</time>
      </trkpt>
      <trkpt lat="47.658157" lon="2.1658268">
        <ele>191.0</ele>
        <time>2022-02-17T08:23:36Z</time>
      </trkpt>
      <trkpt lat="47.65817" lon="2.165831">
        <ele>191.0</ele>
        <time>2022-02-17T08:23:37Z</time>
      </trkpt>
      <trkpt lat="47.658184" lon="2.1658351">
        <ele>191.0</ele>
        <time>2022-02-17T08:23:38Z</time>
      </trkpt>
      <trkpt lat="47.65819" lon="2.1658375">
        <ele>191.0</ele>
        <time>2022-02-17T08:23:39Z</time>
      </trkpt>
      <trkpt lat="47.658203" lon="2.1658342">
        <ele>191.0</ele>
        <time>2022-02-17T08:23:40Z</time>
      </trkpt>
      <trkpt lat="47.658215" lon="2.1658335">
        <ele>191.0</ele>
        <time>2022-02-17T08:23:41Z</time>
      </trkpt>
      <trkpt lat="47.658226" lon="2.1658337">
        <ele>191.0</ele>
        <time>2022-02-17T08:23:42Z</time>
      </trkpt>
      <trkpt lat="47.658237" lon="2.165833">
        <ele>191.0</ele>
        <time>2022-02-17T08:23:43Z</time>
      </trkpt>
      <trkpt lat="47.658245" lon="2.1658301">
        <ele>190.0</ele>
        <time>2022-02-17T08:23:44Z</time>
      </trkpt>
      <trkpt lat="47.658253" lon="2.1658325">
        <ele>190.0</ele>
        <time>2022-02-17T08:23:45Z</time>
      </trkpt>
      <trkpt lat="47.658268" lon="2.1658366">
        <ele>190.0</ele>
        <time>2022-02-17T08:23:46Z</time>
      </trkpt>
      <trkpt lat="47.658268" lon="2.1658366">
        <ele>190.0</ele>
        <time>2022-02-17T08:23:47Z</time>
      </trkpt>
      <trkpt lat="47.658268" lon="2.1658366">
        <ele>190.0</ele>
        <time>2022-02-17T08:23:48Z</time>
      </trkpt>
      <trkpt lat="47.6583" lon="2.1658487">
        <ele>190.0</ele>
        <time>2022-02-17T08:23:49Z</time>
      </trkpt>
      <trkpt lat="47.658314" lon="2.1658528">
        <ele>190.0</ele>
        <time>2022-02-17T08:23:50Z</time>
      </trkpt>
      <trkpt lat="47.658325" lon="2.1658514">
        <ele>190.0</ele>
        <time>2022-02-17T08:23:51Z</time>
      </trkpt>
      <trkpt lat="47.65834" lon="2.1658528">
        <ele>190.0</ele>
        <time>2022-02-17T08:23:52Z</time>
      </trkpt>
      <trkpt lat="47.658348" lon="2.1658556">
        <ele>189.0</ele>
        <time>2022-02-17T08:23:53Z</time>
      </trkpt>
      <trkpt lat="47.658363" lon="2.1658592">
        <ele>190.0</ele>
        <time>2022-02-17T08:23:54Z</time>
      </trkpt>
      <trkpt lat="47.658382" lon="2.1658576">
        <ele>190.0</ele>
        <time>2022-02-17T08:23:55Z</time>
      </trkpt>
      <trkpt lat="47.658394" lon="2.1658607">
        <ele>190.0</ele>
        <time>2022-02-17T08:23:56Z</time>
      </trkpt>
      <trkpt lat="47.65841" lon="2.1658585">
        <ele>190.0</ele>
        <time>2022-02-17T08:23:57Z</time>
      </trkpt>
      <trkpt lat="47.65842" lon="2.1658633">
        <ele>190.0</ele>
        <time>2022-02-17T08:23:58Z</time>
      </trkpt>
      <trkpt lat="47.658436" lon="2.165867">
        <ele>190.0</ele>
        <time>2022-02-17T08:23:59Z</time>
      </trkpt>
      <trkpt lat="47.65845" lon="2.1658661">
        <ele>190.0</ele>
        <time>2022-02-17T08:24:00Z</time>
      </trkpt>
      <trkpt lat="47.658466" lon="2.1658664">
        <ele>190.0</ele>
        <time>2022-02-17T08:24:01Z</time>
      </trkpt>
      <trkpt lat="47.658478" lon="2.165868">
        <ele>190.0</ele>
        <time>2022-02-17T08:24:02Z</time>
      </trkpt>
      <trkpt lat="47.658493" lon="2.165873">
        <ele>190.0</ele>
        <time>2022-02-17T08:24:03Z</time>
      </trkpt>
      <trkpt lat="47.658493" lon="2.165873">
        <ele>190.0</ele>
        <time>2022-02-17T08:24:04Z</time>
      </trkpt>
      <trkpt lat="47.658493" lon="2.165873">
        <ele>190.0</ele>
        <time>2022-02-17T08:24:05Z</time>
      </trkpt>
      <trkpt lat="47.65853" lon="2.1658678">
        <ele>190.0</ele>
        <time>2022-02-17T08:24:06Z</time>
      </trkpt>
      <trkpt lat="47.658546" lon="2.165869">
        <ele>190.0</ele>
        <time>2022-02-17T08:24:07Z</time>
      </trkpt>
      <trkpt lat="47.65856" lon="2.1658666">
        <ele>190.0</ele>
        <time>2022-02-17T08:24:08Z</time>
      </trkpt>
      <trkpt lat="47.658577" lon="2.1658635">
        <ele>190.0</ele>
        <time>2022-02-17T08:24:09Z</time>
      </trkpt>
      <trkpt lat="47.65859" lon="2.1658618">
        <ele>190.0</ele>
        <time>2022-02-17T08:24:10Z</time>
      </trkpt>
      <trkpt lat="47.658604" lon="2.1658592">
        <ele>190.0</ele>
        <time>2022-02-17T08:24:11Z</time>
      </trkpt>
      <trkpt lat="47.658615" lon="2.1658592">
        <ele>190.0</ele>
        <time>2022-02-17T08:24:12Z</time>
      </trkpt>
      <trkpt lat="47.658623" lon="2.1658618">
        <ele>190.0</ele>
        <time>2022-02-17T08:24:13Z</time>
      </trkpt>
      <trkpt lat="47.658627" lon="2.1658669">
        <ele>189.0</ele>
        <time>2022-02-17T08:24:14Z</time>
      </trkpt>
      <trkpt lat="47.65864" lon="2.1658692">
        <ele>190.0</ele>
        <time>2022-02-17T08:24:15Z</time>
      </trkpt>
      <trkpt lat="47.658653" lon="2.1658688">
        <ele>189.0</ele>
        <time>2022-02-17T08:24:16Z</time>
      </trkpt>
      <trkpt lat="47.65866" lon="2.1658673">
        <ele>189.0</ele>
        <time>2022-02-17T08:24:17Z</time>
      </trkpt>
      <trkpt lat="47.658672" lon="2.16587">
        <ele>189.0</ele>
        <time>2022-02-17T08:24:18Z</time>
      </trkpt>
      <trkpt lat="47.658672" lon="2.16587">
        <ele>189.0</ele>
        <time>2022-02-17T08:24:19Z</time>
      </trkpt>
      <trkpt lat="47.658672" lon="2.16587">
        <ele>189.0</ele>
        <time>2022-02-17T08:24:20Z</time>
      </trkpt>
      <trkpt lat="47.6587" lon="2.165879">
        <ele>189.0</ele>
        <time>2022-02-17T08:24:21Z</time>
      </trkpt>
      <trkpt lat="47.65871" lon="2.165883">
        <ele>189.0</ele>
        <time>2022-02-17T08:24:22Z</time>
      </trkpt>
      <trkpt lat="47.658722" lon="2.1658843">
        <ele>189.0</ele>
        <time>2022-02-17T08:24:23Z</time>
      </trkpt>
      <trkpt lat="47.658733" lon="2.1658862">
        <ele>189.0</ele>
        <time>2022-02-17T08:24:24Z</time>
      </trkpt>
      <trkpt lat="47.658752" lon="2.1658885">
        <ele>188.0</ele>
        <time>2022-02-17T08:24:25Z</time>
      </trkpt>
      <trkpt lat="47.658768" lon="2.165891">
        <ele>188.0</ele>
        <time>2022-02-17T08:24:26Z</time>
      </trkpt>
      <trkpt lat="47.658783" lon="2.1658943">
        <ele>189.0</ele>
        <time>2022-02-17T08:24:27Z</time>
      </trkpt>
      <trkpt lat="47.658794" lon="2.1658926">
        <ele>189.0</ele>
        <time>2022-02-17T08:24:28Z</time>
      </trkpt>
      <trkpt lat="47.65881" lon="2.1658895">
        <ele>189.0</ele>
        <time>2022-02-17T08:24:29Z</time>
      </trkpt>
      <trkpt lat="47.65882" lon="2.1658897">
        <ele>189.0</ele>
        <time>2022-02-17T08:24:30Z</time>
      </trkpt>
      <trkpt lat="47.658833" lon="2.1658902">
        <ele>189.0</ele>
        <time>2022-02-17T08:24:31Z</time>
      </trkpt>
      <trkpt lat="47.65885" lon="2.16589">
        <ele>189.0</ele>
        <time>2022-02-17T08:24:32Z</time>
      </trkpt>
      <trkpt lat="47.658867" lon="2.165888">
        <ele>189.0</ele>
        <time>2022-02-17T08:24:33Z</time>
      </trkpt>
      <trkpt lat="47.658882" lon="2.1658816">
        <ele>188.0</ele>
        <time>2022-02-17T08:24:34Z</time>
      </trkpt>
      <trkpt lat="47.658894" lon="2.1658854">
        <ele>188.0</ele>
        <time>2022-02-17T08:24:35Z</time>
      </trkpt>
      <trkpt lat="47.658905" lon="2.165884">
        <ele>188.0</ele>
        <time>2022-02-17T08:24:36Z</time>
      </trkpt>
      <trkpt lat="47.658916" lon="2.1658819">
        <ele>188.0</ele>
        <time>2022-02-17T08:24:37Z</time>
      </trkpt>
      <trkpt lat="47.658916" lon="2.1658819">
        <ele>188.0</ele>
        <time>2022-02-17T08:24:38Z</time>
      </trkpt>
      <trkpt lat="47.658916" lon="2.1658819">
        <ele>188.0</ele>
        <time>2022-02-17T08:24:39Z</time>
      </trkpt>
      <trkpt lat="47.658947" lon="2.165886">
        <ele>189.0</ele>
        <time>2022-02-17T08:24:40Z</time>
      </trkpt>
      <trkpt lat="47.658955" lon="2.1658888">
        <ele>189.0</ele>
        <time>2022-02-17T08:24:41Z</time>
      </trkpt>
      <trkpt lat="47.658966" lon="2.1658976">
        <ele>189.0</ele>
        <time>2022-02-17T08:24:42Z</time>
      </trkpt>
      <trkpt lat="47.658978" lon="2.1659048">
        <ele>189.0</ele>
        <time>2022-02-17T08:24:43Z</time>
      </trkpt>
      <trkpt lat="47.658978" lon="2.1659048">
        <ele>189.0</ele>
        <time>2022-02-17T08:24:44Z</time>
      </trkpt>
      <trkpt lat="47.658978" lon="2.1659048">
        <ele>189.0</ele>
        <time>2022-02-17T08:24:45Z</time>
      </trkpt>
      <trkpt lat="47.659016" lon="2.1659186">
        <ele>189.0</ele>
        <time>2022-02-17T08:24:46Z</time>
      </trkpt>
      <trkpt lat="47.659027" lon="2.1659186">
        <ele>189.0</ele>
        <time>2022-02-17T08:24:47Z</time>
      </trkpt>
      <trkpt lat="47.65904" lon="2.1659176">
        <ele>189.0</ele>
        <time>2022-02-17T08:24:48Z</time>
      </trkpt>
      <trkpt lat="47.659046" lon="2.16592">
        <ele>189.0</ele>
        <time>2022-02-17T08:24:49Z</time>
      </trkpt>
      <trkpt lat="47.659046" lon="2.16592">
        <ele>189.0</ele>
        <time>2022-02-17T08:24:50Z</time>
      </trkpt>
      <trkpt lat="47.659046" lon="2.16592">
        <ele>189.0</ele>
        <time>2022-02-17T08:24:51Z</time>
      </trkpt>
      <trkpt lat="47.65907" lon="2.1659274">
        <ele>189.0</ele>
        <time>2022-02-17T08:24:52Z</time>
      </trkpt>
      <trkpt lat="47.65908" lon="2.165933">
        <ele>188.0</ele>
        <time>2022-02-17T08:24:53Z</time>
      </trkpt>
      <trkpt lat="47.659092" lon="2.1659396">
        <ele>187.0</ele>
        <time>2022-02-17T08:24:54Z</time>
      </trkpt>
      <trkpt lat="47.659107" lon="2.1659446">
        <ele>187.0</ele>
        <time>2022-02-17T08:24:55Z</time>
      </trkpt>
      <trkpt lat="47.659122" lon="2.165949">
        <ele>187.0</ele>
        <time>2022-02-17T08:24:56Z</time>
      </trkpt>
      <trkpt lat="47.659134" lon="2.1659467">
        <ele>187.0</ele>
        <time>2022-02-17T08:24:57Z</time>
      </trkpt>
      <trkpt lat="47.659145" lon="2.1659472">
        <ele>187.0</ele>
        <time>2022-02-17T08:24:58Z</time>
      </trkpt>
      <trkpt lat="47.659157" lon="2.1659439">
        <ele>187.0</ele>
        <time>2022-02-17T08:24:59Z</time>
      </trkpt>
      <trkpt lat="47.65917" lon="2.1659372">
        <ele>187.0</ele>
        <time>2022-02-17T08:25:00Z</time>
      </trkpt>
      <trkpt lat="47.65917" lon="2.1659372">
        <ele>187.0</ele>
        <time>2022-02-17T08:25:01Z</time>
      </trkpt>
      <trkpt lat="47.65917" lon="2.1659372">
        <ele>187.0</ele>
        <time>2022-02-17T08:25:02Z</time>
      </trkpt>
      <trkpt lat="47.659195" lon="2.1659162">
        <ele>187.0</ele>
        <time>2022-02-17T08:25:03Z</time>
      </trkpt>
      <trkpt lat="47.659206" lon="2.1659074">
        <ele>187.0</ele>
        <time>2022-02-17T08:25:04Z</time>
      </trkpt>
      <trkpt lat="47.65922" lon="2.1658967">
        <ele>188.0</ele>
        <time>2022-02-17T08:25:05Z</time>
      </trkpt>
      <trkpt lat="47.659233" lon="2.1658885">
        <ele>188.0</ele>
        <time>2022-02-17T08:25:06Z</time>
      </trkpt>
      <trkpt lat="47.659245" lon="2.1658854">
        <ele>188.0</ele>
        <time>2022-02-17T08:25:07Z</time>
      </trkpt>
      <trkpt lat="47.659256" lon="2.1658797">
        <ele>189.0</ele>
        <time>2022-02-17T08:25:08Z</time>
      </trkpt>
      <trkpt lat="47.659264" lon="2.165876">
        <ele>189.0</ele>
        <time>2022-02-17T08:25:09Z</time>
      </trkpt>
      <trkpt lat="47.659275" lon="2.1658728">
        <ele>189.0</ele>
        <time>2022-02-17T08:25:10Z</time>
      </trkpt>
      <trkpt lat="47.659283" lon="2.1658633">
        <ele>189.0</ele>
        <time>2022-02-17T08:25:11Z</time>
      </trkpt>
      <trkpt lat="47.659298" lon="2.1658561">
        <ele>189.0</ele>
        <time>2022-02-17T08:25:12Z</time>
      </trkpt>
      <trkpt lat="47.65931" lon="2.1658468">
        <ele>190.0</ele>
        <time>2022-02-17T08:25:13Z</time>
      </trkpt>
      <trkpt lat="47.65932" lon="2.1658387">
        <ele>190.0</ele>
        <time>2022-02-17T08:25:14Z</time>
      </trkpt>
      <trkpt lat="47.65933" lon="2.165828">
        <ele>190.0</ele>
        <time>2022-02-17T08:25:15Z</time>
      </trkpt>
      <trkpt lat="47.65934" lon="2.1658163">
        <ele>190.0</ele>
        <time>2022-02-17T08:25:16Z</time>
      </trkpt>
      <trkpt lat="47.65934" lon="2.1658163">
        <ele>190.0</ele>
        <time>2022-02-17T08:25:17Z</time>
      </trkpt>
      <trkpt lat="47.65934" lon="2.1658163">
        <ele>190.0</ele>
        <time>2022-02-17T08:25:18Z</time>
      </trkpt>
      <trkpt lat="47.659367" lon="2.1657999">
        <ele>190.0</ele>
        <time>2022-02-17T08:25:19Z</time>
      </trkpt>
      <trkpt lat="47.659378" lon="2.165791">
        <ele>190.0</ele>
        <time>2022-02-17T08:25:20Z</time>
      </trkpt>
      <trkpt lat="47.659393" lon="2.1657841">
        <ele>190.0</ele>
        <time>2022-02-17T08:25:21Z</time>
      </trkpt>
      <trkpt lat="47.659397" lon="2.1657753">
        <ele>190.0</ele>
        <time>2022-02-17T08:25:22Z</time>
      </trkpt>
      <trkpt lat="47.65941" lon="2.1657627">
        <ele>190.0</ele>
        <time>2022-02-17T08:25:23Z</time>
      </trkpt>
      <trkpt lat="47.659416" lon="2.1657555">
        <ele>190.0</ele>
        <time>2022-02-17T08:25:24Z</time>
      </trkpt>
      <trkpt lat="47.659424" lon="2.1657455">
        <ele>190.0</ele>
        <time>2022-02-17T08:25:25Z</time>
      </trkpt>
      <trkpt lat="47.659424" lon="2.1657455">
        <ele>190.0</ele>
        <time>2022-02-17T08:25:26Z</time>
      </trkpt>
      <trkpt lat="47.659424" lon="2.1657455">
        <ele>190.0</ele>
        <time>2022-02-17T08:25:27Z</time>
      </trkpt>
      <trkpt lat="47.659443" lon="2.1657276">
        <ele>189.0</ele>
        <time>2022-02-17T08:25:28Z</time>
      </trkpt>
      <trkpt lat="47.65945" lon="2.1657245">
        <ele>190.0</ele>
        <time>2022-02-17T08:25:29Z</time>
      </trkpt>
      <trkpt lat="47.65946" lon="2.1657217">
        <ele>189.0</ele>
        <time>2022-02-17T08:25:30Z</time>
      </trkpt>
      <trkpt lat="47.65947" lon="2.16571">
        <ele>189.0</ele>
        <time>2022-02-17T08:25:31Z</time>
      </trkpt>
      <trkpt lat="47.65948" lon="2.1657004">
        <ele>189.0</ele>
        <time>2022-02-17T08:25:32Z</time>
      </trkpt>
      <trkpt lat="47.65948" lon="2.165692">
        <ele>189.0</ele>
        <time>2022-02-17T08:25:33Z</time>
      </trkpt>
      <trkpt lat="47.659477" lon="2.1656818">
        <ele>189.0</ele>
        <time>2022-02-17T08:25:34Z</time>
      </trkpt>
      <trkpt lat="47.65948" lon="2.1656644">
        <ele>189.0</ele>
        <time>2022-02-17T08:25:35Z</time>
      </trkpt>
      <trkpt lat="47.65948" lon="2.1656644">
        <ele>189.0</ele>
        <time>2022-02-17T08:25:36Z</time>
      </trkpt>
      <trkpt lat="47.65948" lon="2.1656644">
        <ele>189.0</ele>
        <time>2022-02-17T08:25:37Z</time>
      </trkpt>
      <trkpt lat="47.659504" lon="2.165632">
        <ele>189.0</ele>
        <time>2022-02-17T08:25:38Z</time>
      </trkpt>
      <trkpt lat="47.65951" lon="2.165622">
        <ele>189.0</ele>
        <time>2022-02-17T08:25:39Z</time>
      </trkpt>
      <trkpt lat="47.65952" lon="2.1656091">
        <ele>189.0</ele>
        <time>2022-02-17T08:25:40Z</time>
      </trkpt>
      <trkpt lat="47.65953" lon="2.1655984">
        <ele>189.0</ele>
        <time>2022-02-17T08:25:41Z</time>
      </trkpt>
      <trkpt lat="47.65953" lon="2.1655984">
        <ele>189.0</ele>
        <time>2022-02-17T08:25:42Z</time>
      </trkpt>
      <trkpt lat="47.65953" lon="2.1655984">
        <ele>189.0</ele>
        <time>2022-02-17T08:25:43Z</time>
      </trkpt>
      <trkpt lat="47.65956" lon="2.165579">
        <ele>190.0</ele>
        <time>2022-02-17T08:25:44Z</time>
      </trkpt>
      <trkpt lat="47.659573" lon="2.165571">
        <ele>189.0</ele>
        <time>2022-02-17T08:25:45Z</time>
      </trkpt>
      <trkpt lat="47.659588" lon="2.1655617">
        <ele>190.0</ele>
        <time>2022-02-17T08:25:46Z</time>
      </trkpt>
      <trkpt lat="47.6596" lon="2.1655557">
        <ele>190.0</ele>
        <time>2022-02-17T08:25:47Z</time>
      </trkpt>
      <trkpt lat="47.65961" lon="2.1655517">
        <ele>189.0</ele>
        <time>2022-02-17T08:25:48Z</time>
      </trkpt>
      <trkpt lat="47.65963" lon="2.1655486">
        <ele>190.0</ele>
        <time>2022-02-17T08:25:49Z</time>
      </trkpt>
      <trkpt lat="47.65963" lon="2.1655486">
        <ele>190.0</ele>
        <time>2022-02-17T08:25:50Z</time>
      </trkpt>
      <trkpt lat="47.65963" lon="2.1655486">
        <ele>190.0</ele>
        <time>2022-02-17T08:25:51Z</time>
      </trkpt>
      <trkpt lat="47.65966" lon="2.1655378">
        <ele>191.0</ele>
        <time>2022-02-17T08:25:52Z</time>
      </trkpt>
      <trkpt lat="47.65967" lon="2.1655328">
        <ele>191.0</ele>
        <time>2022-02-17T08:25:53Z</time>
      </trkpt>
      <trkpt lat="47.659687" lon="2.1655273">
        <ele>191.0</ele>
        <time>2022-02-17T08:25:54Z</time>
      </trkpt>
      <trkpt lat="47.659702" lon="2.165524">
        <ele>191.0</ele>
        <time>2022-02-17T08:25:55Z</time>
      </trkpt>
      <trkpt lat="47.659702" lon="2.165524">
        <ele>191.0</ele>
        <time>2022-02-17T08:25:56Z</time>
      </trkpt>
      <trkpt lat="47.659702" lon="2.165524">
        <ele>191.0</ele>
        <time>2022-02-17T08:25:57Z</time>
      </trkpt>
      <trkpt lat="47.65974" lon="2.1655025">
        <ele>191.0</ele>
        <time>2022-02-17T08:25:58Z</time>
      </trkpt>
      <trkpt lat="47.659756" lon="2.1654973">
        <ele>191.0</ele>
        <time>2022-02-17T08:25:59Z</time>
      </trkpt>
      <trkpt lat="47.659767" lon="2.1654818">
        <ele>191.0</ele>
        <time>2022-02-17T08:26:00Z</time>
      </trkpt>
      <trkpt lat="47.659782" lon="2.1654723">
        <ele>191.0</ele>
        <time>2022-02-17T08:26:01Z</time>
      </trkpt>
      <trkpt lat="47.659794" lon="2.1654637">
        <ele>191.0</ele>
        <time>2022-02-17T08:26:02Z</time>
      </trkpt>
      <trkpt lat="47.659805" lon="2.1654549">
        <ele>191.0</ele>
        <time>2022-02-17T08:26:03Z</time>
      </trkpt>
      <trkpt lat="47.65982" lon="2.1654491">
        <ele>191.0</ele>
        <time>2022-02-17T08:26:04Z</time>
      </trkpt>
      <trkpt lat="47.659836" lon="2.1654444">
        <ele>191.0</ele>
        <time>2022-02-17T08:26:05Z</time>
      </trkpt>
      <trkpt lat="47.65985" lon="2.1654332">
        <ele>191.0</ele>
        <time>2022-02-17T08:26:06Z</time>
      </trkpt>
      <trkpt lat="47.659866" lon="2.1654263">
        <ele>191.0</ele>
        <time>2022-02-17T08:26:07Z</time>
      </trkpt>
      <trkpt lat="47.659878" lon="2.1654165">
        <ele>191.0</ele>
        <time>2022-02-17T08:26:08Z</time>
      </trkpt>
      <trkpt lat="47.65988" lon="2.165407">
        <ele>191.0</ele>
        <time>2022-02-17T08:26:09Z</time>
      </trkpt>
      <trkpt lat="47.65988" lon="2.165407">
        <ele>191.0</ele>
        <time>2022-02-17T08:26:10Z</time>
      </trkpt>
      <trkpt lat="47.659904" lon="2.1653888">
        <ele>191.0</ele>
        <time>2022-02-17T08:26:11Z</time>
      </trkpt>
      <trkpt lat="47.65992" lon="2.1653829">
        <ele>191.0</ele>
        <time>2022-02-17T08:26:12Z</time>
      </trkpt>
      <trkpt lat="47.65993" lon="2.1653762">
        <ele>192.0</ele>
        <time>2022-02-17T08:26:13Z</time>
      </trkpt>
      <trkpt lat="47.659943" lon="2.1653664">
        <ele>192.0</ele>
        <time>2022-02-17T08:26:14Z</time>
      </trkpt>
      <trkpt lat="47.659943" lon="2.1653664">
        <ele>192.0</ele>
        <time>2022-02-17T08:26:15Z</time>
      </trkpt>
      <trkpt lat="47.659943" lon="2.1653664">
        <ele>192.0</ele>
        <time>2022-02-17T08:26:16Z</time>
      </trkpt>
      <trkpt lat="47.65997" lon="2.1653357">
        <ele>192.0</ele>
        <time>2022-02-17T08:26:17Z</time>
      </trkpt>
      <trkpt lat="47.65998" lon="2.1653244">
        <ele>192.0</ele>
        <time>2022-02-17T08:26:18Z</time>
      </trkpt>
      <trkpt lat="47.659996" lon="2.1653104">
        <ele>191.0</ele>
        <time>2022-02-17T08:26:19Z</time>
      </trkpt>
      <trkpt lat="47.660007" lon="2.1652997">
        <ele>191.0</ele>
        <time>2022-02-17T08:26:20Z</time>
      </trkpt>
      <trkpt lat="47.660007" lon="2.1652997">
        <ele>191.0</ele>
        <time>2022-02-17T08:26:21Z</time>
      </trkpt>
      <trkpt lat="47.660007" lon="2.1652997">
        <ele>191.0</ele>
        <time>2022-02-17T08:26:22Z</time>
      </trkpt>
      <trkpt lat="47.660034" lon="2.1652787">
        <ele>191.0</ele>
        <time>2022-02-17T08:26:23Z</time>
      </trkpt>
      <trkpt lat="47.66004" lon="2.1652753">
        <ele>190.0</ele>
        <time>2022-02-17T08:26:24Z</time>
      </trkpt>
      <trkpt lat="47.660053" lon="2.1652677">
        <ele>190.0</ele>
        <time>2022-02-17T08:26:25Z</time>
      </trkpt>
      <trkpt lat="47.66006" lon="2.165262">
        <ele>190.0</ele>
        <time>2022-02-17T08:26:26Z</time>
      </trkpt>
      <trkpt lat="47.66006" lon="2.165262">
        <ele>190.0</ele>
        <time>2022-02-17T08:26:27Z</time>
      </trkpt>
      <trkpt lat="47.66006" lon="2.165262">
        <ele>190.0</ele>
        <time>2022-02-17T08:26:28Z</time>
      </trkpt>
      <trkpt lat="47.660084" lon="2.165239">
        <ele>187.0</ele>
        <time>2022-02-17T08:26:29Z</time>
      </trkpt>
      <trkpt lat="47.660095" lon="2.1652298">
        <ele>186.0</ele>
        <time>2022-02-17T08:26:30Z</time>
      </trkpt>
      <trkpt lat="47.660107" lon="2.1652186">
        <ele>185.0</ele>
        <time>2022-02-17T08:26:31Z</time>
      </trkpt>
      <trkpt lat="47.660114" lon="2.1652107">
        <ele>185.0</ele>
        <time>2022-02-17T08:26:32Z</time>
      </trkpt>
      <trkpt lat="47.660126" lon="2.1652029">
        <ele>185.0</ele>
        <time>2022-02-17T08:26:33Z</time>
      </trkpt>
      <trkpt lat="47.660133" lon="2.1651895">
        <ele>185.0</ele>
        <time>2022-02-17T08:26:34Z</time>
      </trkpt>
      <trkpt lat="47.660145" lon="2.165179">
        <ele>185.0</ele>
        <time>2022-02-17T08:26:35Z</time>
      </trkpt>
      <trkpt lat="47.66016" lon="2.165171">
        <ele>186.0</ele>
        <time>2022-02-17T08:26:36Z</time>
      </trkpt>
      <trkpt lat="47.660175" lon="2.165167">
        <ele>186.0</ele>
        <time>2022-02-17T08:26:37Z</time>
      </trkpt>
      <trkpt lat="47.660187" lon="2.1651602">
        <ele>186.0</ele>
        <time>2022-02-17T08:26:38Z</time>
      </trkpt>
      <trkpt lat="47.660202" lon="2.1651618">
        <ele>185.0</ele>
        <time>2022-02-17T08:26:39Z</time>
      </trkpt>
      <trkpt lat="47.660217" lon="2.165165">
        <ele>185.0</ele>
        <time>2022-02-17T08:26:40Z</time>
      </trkpt>
      <trkpt lat="47.66023" lon="2.1651652">
        <ele>186.0</ele>
        <time>2022-02-17T08:26:41Z</time>
      </trkpt>
      <trkpt lat="47.660236" lon="2.165164">
        <ele>185.0</ele>
        <time>2022-02-17T08:26:42Z</time>
      </trkpt>
      <trkpt lat="47.660244" lon="2.1651578">
        <ele>186.0</ele>
        <time>2022-02-17T08:26:43Z</time>
      </trkpt>
      <trkpt lat="47.66025" lon="2.1651495">
        <ele>186.0</ele>
        <time>2022-02-17T08:26:44Z</time>
      </trkpt>
      <trkpt lat="47.660263" lon="2.1651452">
        <ele>186.0</ele>
        <time>2022-02-17T08:26:45Z</time>
      </trkpt>
      <trkpt lat="47.66027" lon="2.165143">
        <ele>186.0</ele>
        <time>2022-02-17T08:26:46Z</time>
      </trkpt>
      <trkpt lat="47.66027" lon="2.165143">
        <ele>186.0</ele>
        <time>2022-02-17T08:26:47Z</time>
      </trkpt>
      <trkpt lat="47.66027" lon="2.165143">
        <ele>186.0</ele>
        <time>2022-02-17T08:26:48Z</time>
      </trkpt>
      <trkpt lat="47.6603" lon="2.1651425">
        <ele>186.0</ele>
        <time>2022-02-17T08:26:49Z</time>
      </trkpt>
      <trkpt lat="47.66031" lon="2.1651454">
        <ele>186.0</ele>
        <time>2022-02-17T08:26:50Z</time>
      </trkpt>
      <trkpt lat="47.660316" lon="2.1651423">
        <ele>186.0</ele>
        <time>2022-02-17T08:26:51Z</time>
      </trkpt>
      <trkpt lat="47.660328" lon="2.1651418">
        <ele>186.0</ele>
        <time>2022-02-17T08:26:52Z</time>
      </trkpt>
      <trkpt lat="47.660336" lon="2.165138">
        <ele>185.0</ele>
        <time>2022-02-17T08:26:53Z</time>
      </trkpt>
      <trkpt lat="47.660336" lon="2.165138">
        <ele>185.0</ele>
        <time>2022-02-17T08:26:54Z</time>
      </trkpt>
      <trkpt lat="47.660336" lon="2.165138">
        <ele>185.0</ele>
        <time>2022-02-17T08:26:55Z</time>
      </trkpt>
      <trkpt lat="47.66036" lon="2.1651254">
        <ele>185.0</ele>
        <time>2022-02-17T08:26:56Z</time>
      </trkpt>
      <trkpt lat="47.660374" lon="2.165126">
        <ele>186.0</ele>
        <time>2022-02-17T08:26:57Z</time>
      </trkpt>
      <trkpt lat="47.660378" lon="2.1651232">
        <ele>186.0</ele>
        <time>2022-02-17T08:26:58Z</time>
      </trkpt>
      <trkpt lat="47.66039" lon="2.1651251">
        <ele>186.0</ele>
        <time>2022-02-17T08:26:59Z</time>
      </trkpt>
      <trkpt lat="47.66039" lon="2.1651251">
        <ele>186.0</ele>
        <time>2022-02-17T08:27:00Z</time>
      </trkpt>
      <trkpt lat="47.660416" lon="2.165114">
        <ele>186.0</ele>
        <time>2022-02-17T08:27:01Z</time>
      </trkpt>
      <trkpt lat="47.660427" lon="2.165105">
        <ele>186.0</ele>
        <time>2022-02-17T08:27:02Z</time>
      </trkpt>
      <trkpt lat="47.66044" lon="2.1650968">
        <ele>186.0</ele>
        <time>2022-02-17T08:27:03Z</time>
      </trkpt>
      <trkpt lat="47.660454" lon="2.165087">
        <ele>186.0</ele>
        <time>2022-02-17T08:27:04Z</time>
      </trkpt>
      <trkpt lat="47.66047" lon="2.1650782">
        <ele>186.0</ele>
        <time>2022-02-17T08:27:05Z</time>
      </trkpt>
      <trkpt lat="47.66048" lon="2.1650746">
        <ele>186.0</ele>
        <time>2022-02-17T08:27:06Z</time>
      </trkpt>
      <trkpt lat="47.660492" lon="2.1650698">
        <ele>186.0</ele>
        <time>2022-02-17T08:27:07Z</time>
      </trkpt>
      <trkpt lat="47.660503" lon="2.165062">
        <ele>186.0</ele>
        <time>2022-02-17T08:27:08Z</time>
      </trkpt>
      <trkpt lat="47.660515" lon="2.1650567">
        <ele>186.0</ele>
        <time>2022-02-17T08:27:09Z</time>
      </trkpt>
      <trkpt lat="47.660522" lon="2.1650524">
        <ele>186.0</ele>
        <time>2022-02-17T08:27:10Z</time>
      </trkpt>
      <trkpt lat="47.660538" lon="2.1650376">
        <ele>186.0</ele>
        <time>2022-02-17T08:27:11Z</time>
      </trkpt>
      <trkpt lat="47.660553" lon="2.165025">
        <ele>186.0</ele>
        <time>2022-02-17T08:27:12Z</time>
      </trkpt>
      <trkpt lat="47.660564" lon="2.1650155">
        <ele>186.0</ele>
        <time>2022-02-17T08:27:13Z</time>
      </trkpt>
      <trkpt lat="47.660572" lon="2.1650076">
        <ele>186.0</ele>
        <time>2022-02-17T08:27:14Z</time>
      </trkpt>
      <trkpt lat="47.660583" lon="2.1649988">
        <ele>186.0</ele>
        <time>2022-02-17T08:27:15Z</time>
      </trkpt>
      <trkpt lat="47.6606" lon="2.1649947">
        <ele>185.0</ele>
        <time>2022-02-17T08:27:16Z</time>
      </trkpt>
      <trkpt lat="47.660606" lon="2.1649969">
        <ele>185.0</ele>
        <time>2022-02-17T08:27:17Z</time>
      </trkpt>
      <trkpt lat="47.660618" lon="2.1649897">
        <ele>185.0</ele>
        <time>2022-02-17T08:27:18Z</time>
      </trkpt>
      <trkpt lat="47.660633" lon="2.1649814">
        <ele>185.0</ele>
        <time>2022-02-17T08:27:19Z</time>
      </trkpt>
      <trkpt lat="47.660633" lon="2.1649814">
        <ele>185.0</ele>
        <time>2022-02-17T08:27:20Z</time>
      </trkpt>
      <trkpt lat="47.660633" lon="2.1649814">
        <ele>185.0</ele>
        <time>2022-02-17T08:27:21Z</time>
      </trkpt>
      <trkpt lat="47.660664" lon="2.1649635">
        <ele>185.0</ele>
        <time>2022-02-17T08:27:22Z</time>
      </trkpt>
      <trkpt lat="47.660675" lon="2.1649592">
        <ele>185.0</ele>
        <time>2022-02-17T08:27:23Z</time>
      </trkpt>
      <trkpt lat="47.660686" lon="2.164949">
        <ele>185.0</ele>
        <time>2022-02-17T08:27:24Z</time>
      </trkpt>
      <trkpt lat="47.660698" lon="2.1649427">
        <ele>185.0</ele>
        <time>2022-02-17T08:27:25Z</time>
      </trkpt>
      <trkpt lat="47.660698" lon="2.1649427">
        <ele>185.0</ele>
        <time>2022-02-17T08:27:26Z</time>
      </trkpt>
      <trkpt lat="47.660698" lon="2.1649427">
        <ele>185.0</ele>
        <time>2022-02-17T08:27:27Z</time>
      </trkpt>
      <trkpt lat="47.660725" lon="2.16494">
        <ele>185.0</ele>
        <time>2022-02-17T08:27:28Z</time>
      </trkpt>
      <trkpt lat="47.660736" lon="2.1649342">
        <ele>185.0</ele>
        <time>2022-02-17T08:27:29Z</time>
      </trkpt>
      <trkpt lat="47.660748" lon="2.1649287">
        <ele>185.0</ele>
        <time>2022-02-17T08:27:30Z</time>
      </trkpt>
      <trkpt lat="47.66076" lon="2.1649222">
        <ele>185.0</ele>
        <time>2022-02-17T08:27:31Z</time>
      </trkpt>
      <trkpt lat="47.66076" lon="2.1649222">
        <ele>185.0</ele>
        <time>2022-02-17T08:27:32Z</time>
      </trkpt>
      <trkpt lat="47.66076" lon="2.1649222">
        <ele>185.0</ele>
        <time>2022-02-17T08:27:33Z</time>
      </trkpt>
      <trkpt lat="47.660793" lon="2.164915">
        <ele>185.0</ele>
        <time>2022-02-17T08:27:34Z</time>
      </trkpt>
      <trkpt lat="47.66081" lon="2.164912">
        <ele>185.0</ele>
        <time>2022-02-17T08:27:35Z</time>
      </trkpt>
      <trkpt lat="47.66082" lon="2.164915">
        <ele>185.0</ele>
        <time>2022-02-17T08:27:36Z</time>
      </trkpt>
      <trkpt lat="47.660828" lon="2.1649156">
        <ele>185.0</ele>
        <time>2022-02-17T08:27:37Z</time>
      </trkpt>
      <trkpt lat="47.660835" lon="2.1649165">
        <ele>186.0</ele>
        <time>2022-02-17T08:27:38Z</time>
      </trkpt>
      <trkpt lat="47.660843" lon="2.164914">
        <ele>186.0</ele>
        <time>2022-02-17T08:27:39Z</time>
      </trkpt>
      <trkpt lat="47.660843" lon="2.164914">
        <ele>186.0</ele>
        <time>2022-02-17T08:27:40Z</time>
      </trkpt>
      <trkpt lat="47.660843" lon="2.164914">
        <ele>186.0</ele>
        <time>2022-02-17T08:27:41Z</time>
      </trkpt>
      <trkpt lat="47.660862" lon="2.1649106">
        <ele>186.0</ele>
        <time>2022-02-17T08:27:42Z</time>
      </trkpt>
      <trkpt lat="47.66087" lon="2.1649084">
        <ele>186.0</ele>
        <time>2022-02-17T08:27:43Z</time>
      </trkpt>
      <trkpt lat="47.660877" lon="2.1649032">
        <ele>186.0</ele>
        <time>2022-02-17T08:27:44Z</time>
      </trkpt>
      <trkpt lat="47.660885" lon="2.1649024">
        <ele>186.0</ele>
        <time>2022-02-17T08:27:45Z</time>
      </trkpt>
      <trkpt lat="47.660892" lon="2.1649067">
        <ele>185.0</ele>
        <time>2022-02-17T08:27:46Z</time>
      </trkpt>
      <trkpt lat="47.6609" lon="2.1649067">
        <ele>185.0</ele>
        <time>2022-02-17T08:27:47Z</time>
      </trkpt>
      <trkpt lat="47.66091" lon="2.164912">
        <ele>185.0</ele>
        <time>2022-02-17T08:27:48Z</time>
      </trkpt>
      <trkpt lat="47.660923" lon="2.164908">
        <ele>184.0</ele>
        <time>2022-02-17T08:27:49Z</time>
      </trkpt>
      <trkpt lat="47.660942" lon="2.1648965">
        <ele>183.0</ele>
        <time>2022-02-17T08:27:50Z</time>
      </trkpt>
      <trkpt lat="47.660957" lon="2.164885">
        <ele>183.0</ele>
        <time>2022-02-17T08:27:51Z</time>
      </trkpt>
      <trkpt lat="47.66097" lon="2.164871">
        <ele>183.0</ele>
        <time>2022-02-17T08:27:52Z</time>
      </trkpt>
      <trkpt lat="47.66098" lon="2.1648698">
        <ele>183.0</ele>
        <time>2022-02-17T08:27:53Z</time>
      </trkpt>
      <trkpt lat="47.66099" lon="2.164857">
        <ele>183.0</ele>
        <time>2022-02-17T08:27:54Z</time>
      </trkpt>
      <trkpt lat="47.661007" lon="2.1648545">
        <ele>183.0</ele>
        <time>2022-02-17T08:27:55Z</time>
      </trkpt>
      <trkpt lat="47.66102" lon="2.164851">
        <ele>182.0</ele>
        <time>2022-02-17T08:27:56Z</time>
      </trkpt>
      <trkpt lat="47.661026" lon="2.1648464">
        <ele>182.0</ele>
        <time>2022-02-17T08:27:57Z</time>
      </trkpt>
      <trkpt lat="47.661034" lon="2.1648417">
        <ele>182.0</ele>
        <time>2022-02-17T08:27:58Z</time>
      </trkpt>
      <trkpt lat="47.661034" lon="2.164841">
        <ele>181.0</ele>
        <time>2022-02-17T08:27:59Z</time>
      </trkpt>
      <trkpt lat="47.661034" lon="2.164841">
        <ele>181.0</ele>
        <time>2022-02-17T08:28:00Z</time>
      </trkpt>
      <trkpt lat="47.661034" lon="2.164841">
        <ele>181.0</ele>
        <time>2022-02-17T08:28:01Z</time>
      </trkpt>
      <trkpt lat="47.66105" lon="2.1648197">
        <ele>181.0</ele>
        <time>2022-02-17T08:28:02Z</time>
      </trkpt>
      <trkpt lat="47.66106" lon="2.164816">
        <ele>181.0</ele>
        <time>2022-02-17T08:28:03Z</time>
      </trkpt>
      <trkpt lat="47.661068" lon="2.164807">
        <ele>181.0</ele>
        <time>2022-02-17T08:28:04Z</time>
      </trkpt>
      <trkpt lat="47.661076" lon="2.1648">
        <ele>181.0</ele>
        <time>2022-02-17T08:28:05Z</time>
      </trkpt>
      <trkpt lat="47.661083" lon="2.164795">
        <ele>181.0</ele>
        <time>2022-02-17T08:28:06Z</time>
      </trkpt>
      <trkpt lat="47.6611" lon="2.1647947">
        <ele>181.0</ele>
        <time>2022-02-17T08:28:07Z</time>
      </trkpt>
      <trkpt lat="47.661106" lon="2.1647942">
        <ele>180.0</ele>
        <time>2022-02-17T08:28:08Z</time>
      </trkpt>
      <trkpt lat="47.661118" lon="2.1647956">
        <ele>180.0</ele>
        <time>2022-02-17T08:28:09Z</time>
      </trkpt>
      <trkpt lat="47.661125" lon="2.1647906">
        <ele>180.0</ele>
        <time>2022-02-17T08:28:10Z</time>
      </trkpt>
      <trkpt lat="47.661125" lon="2.1647906">
        <ele>180.0</ele>
        <time>2022-02-17T08:28:11Z</time>
      </trkpt>
      <trkpt lat="47.661144" lon="2.1647754">
        <ele>180.0</ele>
        <time>2022-02-17T08:28:12Z</time>
      </trkpt>
      <trkpt lat="47.661156" lon="2.1647685">
        <ele>180.0</ele>
        <time>2022-02-17T08:28:13Z</time>
      </trkpt>
      <trkpt lat="47.661167" lon="2.164757">
        <ele>180.0</ele>
        <time>2022-02-17T08:28:14Z</time>
      </trkpt>
      <trkpt lat="47.661175" lon="2.164747">
        <ele>180.0</ele>
        <time>2022-02-17T08:28:15Z</time>
      </trkpt>
      <trkpt lat="47.661175" lon="2.164747">
        <ele>180.0</ele>
        <time>2022-02-17T08:28:16Z</time>
      </trkpt>
      <trkpt lat="47.661175" lon="2.164747">
        <ele>180.0</ele>
        <time>2022-02-17T08:28:17Z</time>
      </trkpt>
      <trkpt lat="47.661205" lon="2.1647391">
        <ele>179.0</ele>
        <time>2022-02-17T08:28:18Z</time>
      </trkpt>
      <trkpt lat="47.66122" lon="2.16474">
        <ele>179.0</ele>
        <time>2022-02-17T08:28:19Z</time>
      </trkpt>
      <trkpt lat="47.661232" lon="2.1647356">
        <ele>180.0</ele>
        <time>2022-02-17T08:28:20Z</time>
      </trkpt>
      <trkpt lat="47.661243" lon="2.164729">
        <ele>179.0</ele>
        <time>2022-02-17T08:28:21Z</time>
      </trkpt>
      <trkpt lat="47.661243" lon="2.164729">
        <ele>179.0</ele>
        <time>2022-02-17T08:28:22Z</time>
      </trkpt>
      <trkpt lat="47.661243" lon="2.164729">
        <ele>179.0</ele>
        <time>2022-02-17T08:28:23Z</time>
      </trkpt>
      <trkpt lat="47.661274" lon="2.1647167">
        <ele>180.0</ele>
        <time>2022-02-17T08:28:24Z</time>
      </trkpt>
      <trkpt lat="47.661285" lon="2.1647122">
        <ele>180.0</ele>
        <time>2022-02-17T08:28:25Z</time>
      </trkpt>
      <trkpt lat="47.661297" lon="2.1647065">
        <ele>180.0</ele>
        <time>2022-02-17T08:28:26Z</time>
      </trkpt>
      <trkpt lat="47.66131" lon="2.1647012">
        <ele>179.0</ele>
        <time>2022-02-17T08:28:27Z</time>
      </trkpt>
      <trkpt lat="47.66131" lon="2.1647012">
        <ele>179.0</ele>
        <time>2022-02-17T08:28:28Z</time>
      </trkpt>
      <trkpt lat="47.66131" lon="2.1647012">
        <ele>179.0</ele>
        <time>2022-02-17T08:28:29Z</time>
      </trkpt>
      <trkpt lat="47.661343" lon="2.1646867">
        <ele>178.0</ele>
        <time>2022-02-17T08:28:30Z</time>
      </trkpt>
      <trkpt lat="47.661354" lon="2.1646857">
        <ele>178.0</ele>
        <time>2022-02-17T08:28:31Z</time>
      </trkpt>
      <trkpt lat="47.66137" lon="2.164683">
        <ele>178.0</ele>
        <time>2022-02-17T08:28:32Z</time>
      </trkpt>
      <trkpt lat="47.661385" lon="2.1646798">
        <ele>178.0</ele>
        <time>2022-02-17T08:28:33Z</time>
      </trkpt>
      <trkpt lat="47.661385" lon="2.1646798">
        <ele>178.0</ele>
        <time>2022-02-17T08:28:34Z</time>
      </trkpt>
      <trkpt lat="47.661385" lon="2.1646798">
        <ele>178.0</ele>
        <time>2022-02-17T08:28:35Z</time>
      </trkpt>
      <trkpt lat="47.661415" lon="2.1646821">
        <ele>178.0</ele>
        <time>2022-02-17T08:28:36Z</time>
      </trkpt>
      <trkpt lat="47.661427" lon="2.1646914">
        <ele>178.0</ele>
        <time>2022-02-17T08:28:37Z</time>
      </trkpt>
      <trkpt lat="47.66144" lon="2.1647038">
        <ele>178.0</ele>
        <time>2022-02-17T08:28:38Z</time>
      </trkpt>
      <trkpt lat="47.661453" lon="2.164719">
        <ele>177.0</ele>
        <time>2022-02-17T08:28:39Z</time>
      </trkpt>
      <trkpt lat="47.66146" lon="2.1647308">
        <ele>178.0</ele>
        <time>2022-02-17T08:28:40Z</time>
      </trkpt>
      <trkpt lat="47.661472" lon="2.1647418">
        <ele>178.0</ele>
        <time>2022-02-17T08:28:41Z</time>
      </trkpt>
      <trkpt lat="47.661484" lon="2.1647503">
        <ele>178.0</ele>
        <time>2022-02-17T08:28:42Z</time>
      </trkpt>
      <trkpt lat="47.6615" lon="2.1647577">
        <ele>178.0</ele>
        <time>2022-02-17T08:28:43Z</time>
      </trkpt>
      <trkpt lat="47.661514" lon="2.164759">
        <ele>178.0</ele>
        <time>2022-02-17T08:28:44Z</time>
      </trkpt>
      <trkpt lat="47.661533" lon="2.1647596">
        <ele>178.0</ele>
        <time>2022-02-17T08:28:45Z</time>
      </trkpt>
      <trkpt lat="47.661545" lon="2.1647575">
        <ele>178.0</ele>
        <time>2022-02-17T08:28:46Z</time>
      </trkpt>
      <trkpt lat="47.66156" lon="2.164752">
        <ele>178.0</ele>
        <time>2022-02-17T08:28:47Z</time>
      </trkpt>
      <trkpt lat="47.66157" lon="2.1647499">
        <ele>178.0</ele>
        <time>2022-02-17T08:28:48Z</time>
      </trkpt>
      <trkpt lat="47.66157" lon="2.1647499">
        <ele>178.0</ele>
        <time>2022-02-17T08:28:49Z</time>
      </trkpt>
      <trkpt lat="47.66157" lon="2.1647499">
        <ele>178.0</ele>
        <time>2022-02-17T08:28:50Z</time>
      </trkpt>
      <trkpt lat="47.6616" lon="2.1647375">
        <ele>178.0</ele>
        <time>2022-02-17T08:28:51Z</time>
      </trkpt>
      <trkpt lat="47.661613" lon="2.164737">
        <ele>179.0</ele>
        <time>2022-02-17T08:28:52Z</time>
      </trkpt>
      <trkpt lat="47.661625" lon="2.1647356">
        <ele>180.0</ele>
        <time>2022-02-17T08:28:53Z</time>
      </trkpt>
      <trkpt lat="47.66164" lon="2.164729">
        <ele>180.0</ele>
        <time>2022-02-17T08:28:54Z</time>
      </trkpt>
      <trkpt lat="47.661648" lon="2.1647294">
        <ele>180.0</ele>
        <time>2022-02-17T08:28:55Z</time>
      </trkpt>
      <trkpt lat="47.661663" lon="2.164724">
        <ele>181.0</ele>
        <time>2022-02-17T08:28:56Z</time>
      </trkpt>
      <trkpt lat="47.66167" lon="2.1647284">
        <ele>181.0</ele>
        <time>2022-02-17T08:28:57Z</time>
      </trkpt>
      <trkpt lat="47.661674" lon="2.1647305">
        <ele>181.0</ele>
        <time>2022-02-17T08:28:58Z</time>
      </trkpt>
      <trkpt lat="47.661682" lon="2.164731">
        <ele>182.0</ele>
        <time>2022-02-17T08:28:59Z</time>
      </trkpt>
      <trkpt lat="47.661682" lon="2.164731">
        <ele>182.0</ele>
        <time>2022-02-17T08:29:00Z</time>
      </trkpt>
      <trkpt lat="47.661682" lon="2.164731">
        <ele>182.0</ele>
        <time>2022-02-17T08:29:01Z</time>
      </trkpt>
      <trkpt lat="47.661713" lon="2.1647131">
        <ele>182.0</ele>
        <time>2022-02-17T08:29:02Z</time>
      </trkpt>
      <trkpt lat="47.661724" lon="2.164705">
        <ele>182.0</ele>
        <time>2022-02-17T08:29:03Z</time>
      </trkpt>
      <trkpt lat="47.661736" lon="2.1647038">
        <ele>182.0</ele>
        <time>2022-02-17T08:29:04Z</time>
      </trkpt>
      <trkpt lat="47.66175" lon="2.1647074">
        <ele>182.0</ele>
        <time>2022-02-17T08:29:05Z</time>
      </trkpt>
      <trkpt lat="47.66175" lon="2.1647074">
        <ele>182.0</ele>
        <time>2022-02-17T08:29:06Z</time>
      </trkpt>
      <trkpt lat="47.66175" lon="2.1647074">
        <ele>182.0</ele>
        <time>2022-02-17T08:29:07Z</time>
      </trkpt>
      <trkpt lat="47.66177" lon="2.1647003">
        <ele>184.0</ele>
        <time>2022-02-17T08:29:08Z</time>
      </trkpt>
      <trkpt lat="47.66178" lon="2.1646967">
        <ele>185.0</ele>
        <time>2022-02-17T08:29:09Z</time>
      </trkpt>
      <trkpt lat="47.661793" lon="2.1646945">
        <ele>186.0</ele>
        <time>2022-02-17T08:29:10Z</time>
      </trkpt>
      <trkpt lat="47.661804" lon="2.164693">
        <ele>186.0</ele>
        <time>2022-02-17T08:29:11Z</time>
      </trkpt>
      <trkpt lat="47.661804" lon="2.164693">
        <ele>186.0</ele>
        <time>2022-02-17T08:29:12Z</time>
      </trkpt>
      <trkpt lat="47.661804" lon="2.164693">
        <ele>186.0</ele>
        <time>2022-02-17T08:29:13Z</time>
      </trkpt>
      <trkpt lat="47.66184" lon="2.1646876">
        <ele>188.0</ele>
        <time>2022-02-17T08:29:14Z</time>
      </trkpt>
      <trkpt lat="47.66185" lon="2.164688">
        <ele>188.0</ele>
        <time>2022-02-17T08:29:15Z</time>
      </trkpt>
      <trkpt lat="47.661865" lon="2.1646838">
        <ele>188.0</ele>
        <time>2022-02-17T08:29:16Z</time>
      </trkpt>
      <trkpt lat="47.661877" lon="2.1646771">
        <ele>189.0</ele>
        <time>2022-02-17T08:29:17Z</time>
      </trkpt>
      <trkpt lat="47.661892" lon="2.1646736">
        <ele>189.0</ele>
        <time>2022-02-17T08:29:18Z</time>
      </trkpt>
      <trkpt lat="47.661903" lon="2.1646748">
        <ele>190.0</ele>
        <time>2022-02-17T08:29:19Z</time>
      </trkpt>
      <trkpt lat="47.661915" lon="2.1646736">
        <ele>190.0</ele>
        <time>2022-02-17T08:29:20Z</time>
      </trkpt>
      <trkpt lat="47.661926" lon="2.1646671">
        <ele>190.0</ele>
        <time>2022-02-17T08:29:21Z</time>
      </trkpt>
      <trkpt lat="47.66194" lon="2.1646624">
        <ele>191.0</ele>
        <time>2022-02-17T08:29:22Z</time>
      </trkpt>
      <trkpt lat="47.66195" lon="2.1646616">
        <ele>191.0</ele>
        <time>2022-02-17T08:29:23Z</time>
      </trkpt>
      <trkpt lat="47.661957" lon="2.1646566">
        <ele>191.0</ele>
        <time>2022-02-17T08:29:24Z</time>
      </trkpt>
      <trkpt lat="47.661957" lon="2.1646566">
        <ele>191.0</ele>
        <time>2022-02-17T08:29:25Z</time>
      </trkpt>
      <trkpt lat="47.66198" lon="2.1646535">
        <ele>191.0</ele>
        <time>2022-02-17T08:29:26Z</time>
      </trkpt>
      <trkpt lat="47.66199" lon="2.164649">
        <ele>191.0</ele>
        <time>2022-02-17T08:29:27Z</time>
      </trkpt>
      <trkpt lat="47.662003" lon="2.1646485">
        <ele>191.0</ele>
        <time>2022-02-17T08:29:28Z</time>
      </trkpt>
      <trkpt lat="47.662014" lon="2.1646473">
        <ele>190.0</ele>
        <time>2022-02-17T08:29:29Z</time>
      </trkpt>
      <trkpt lat="47.662014" lon="2.1646473">
        <ele>190.0</ele>
        <time>2022-02-17T08:29:30Z</time>
      </trkpt>
      <trkpt lat="47.662033" lon="2.1646426">
        <ele>190.0</ele>
        <time>2022-02-17T08:29:31Z</time>
      </trkpt>
      <trkpt lat="47.66204" lon="2.1646326">
        <ele>190.0</ele>
        <time>2022-02-17T08:29:32Z</time>
      </trkpt>
      <trkpt lat="47.66204" lon="2.164632">
        <ele>190.0</ele>
        <time>2022-02-17T08:29:33Z</time>
      </trkpt>
      <trkpt lat="47.66205" lon="2.1646311">
        <ele>190.0</ele>
        <time>2022-02-17T08:29:34Z</time>
      </trkpt>
      <trkpt lat="47.662056" lon="2.1646278">
        <ele>190.0</ele>
        <time>2022-02-17T08:29:35Z</time>
      </trkpt>
      <trkpt lat="47.662067" lon="2.164629">
        <ele>189.0</ele>
        <time>2022-02-17T08:29:36Z</time>
      </trkpt>
      <trkpt lat="47.662067" lon="2.164629">
        <ele>189.0</ele>
        <time>2022-02-17T08:29:37Z</time>
      </trkpt>
      <trkpt lat="47.662067" lon="2.164629">
        <ele>189.0</ele>
        <time>2022-02-17T08:29:38Z</time>
      </trkpt>
      <trkpt lat="47.662086" lon="2.1646085">
        <ele>188.0</ele>
        <time>2022-02-17T08:29:39Z</time>
      </trkpt>
      <trkpt lat="47.66209" lon="2.1645973">
        <ele>188.0</ele>
        <time>2022-02-17T08:29:40Z</time>
      </trkpt>
      <trkpt lat="47.6621" lon="2.1645882">
        <ele>188.0</ele>
        <time>2022-02-17T08:29:41Z</time>
      </trkpt>
      <trkpt lat="47.66211" lon="2.1645782">
        <ele>188.0</ele>
        <time>2022-02-17T08:29:42Z</time>
      </trkpt>
      <trkpt lat="47.66211" lon="2.1645782">
        <ele>188.0</ele>
        <time>2022-02-17T08:29:43Z</time>
      </trkpt>
      <trkpt lat="47.66212" lon="2.1645691">
        <ele>188.0</ele>
        <time>2022-02-17T08:29:44Z</time>
      </trkpt>
      <trkpt lat="47.662125" lon="2.1645694">
        <ele>187.0</ele>
        <time>2022-02-17T08:29:45Z</time>
      </trkpt>
      <trkpt lat="47.662132" lon="2.164561">
        <ele>187.0</ele>
        <time>2022-02-17T08:29:46Z</time>
      </trkpt>
      <trkpt lat="47.66214" lon="2.164549">
        <ele>186.0</ele>
        <time>2022-02-17T08:29:47Z</time>
      </trkpt>
      <trkpt lat="47.66214" lon="2.164549">
        <ele>186.0</ele>
        <time>2022-02-17T08:29:48Z</time>
      </trkpt>
      <trkpt lat="47.66216" lon="2.1645446">
        <ele>185.0</ele>
        <time>2022-02-17T08:29:49Z</time>
      </trkpt>
      <trkpt lat="47.662178" lon="2.164541">
        <ele>186.0</ele>
        <time>2022-02-17T08:29:50Z</time>
      </trkpt>
      <trkpt lat="47.662186" lon="2.1645355">
        <ele>185.0</ele>
        <time>2022-02-17T08:29:51Z</time>
      </trkpt>
      <trkpt lat="47.662193" lon="2.164529">
        <ele>185.0</ele>
        <time>2022-02-17T08:29:52Z</time>
      </trkpt>
      <trkpt lat="47.662205" lon="2.1645243">
        <ele>185.0</ele>
        <time>2022-02-17T08:29:53Z</time>
      </trkpt>
      <trkpt lat="47.662205" lon="2.1645243">
        <ele>185.0</ele>
        <time>2022-02-17T08:29:54Z</time>
      </trkpt>
      <trkpt lat="47.662224" lon="2.1645138">
        <ele>185.0</ele>
        <time>2022-02-17T08:29:55Z</time>
      </trkpt>
      <trkpt lat="47.66223" lon="2.1645012">
        <ele>185.0</ele>
        <time>2022-02-17T08:29:56Z</time>
      </trkpt>
      <trkpt lat="47.66224" lon="2.1644907">
        <ele>185.0</ele>
        <time>2022-02-17T08:29:57Z</time>
      </trkpt>
      <trkpt lat="47.66225" lon="2.1644769">
        <ele>184.0</ele>
        <time>2022-02-17T08:29:58Z</time>
      </trkpt>
      <trkpt lat="47.662266" lon="2.164461">
        <ele>184.0</ele>
        <time>2022-02-17T08:29:59Z</time>
      </trkpt>
      <trkpt lat="47.662285" lon="2.1644464">
        <ele>183.0</ele>
        <time>2022-02-17T08:30:00Z</time>
      </trkpt>
      <trkpt lat="47.6623" lon="2.1644416">
        <ele>183.0</ele>
        <time>2022-02-17T08:30:01Z</time>
      </trkpt>
      <trkpt lat="47.662315" lon="2.1644409">
        <ele>183.0</ele>
        <time>2022-02-17T08:30:02Z</time>
      </trkpt>
      <trkpt lat="47.66233" lon="2.1644394">
        <ele>183.0</ele>
        <time>2022-02-17T08:30:03Z</time>
      </trkpt>
      <trkpt lat="47.66234" lon="2.1644423">
        <ele>183.0</ele>
        <time>2022-02-17T08:30:04Z</time>
      </trkpt>
      <trkpt lat="47.662346" lon="2.164439">
        <ele>183.0</ele>
        <time>2022-02-17T08:30:05Z</time>
      </trkpt>
      <trkpt lat="47.662354" lon="2.1644328">
        <ele>183.0</ele>
        <time>2022-02-17T08:30:06Z</time>
      </trkpt>
      <trkpt lat="47.662354" lon="2.1644328">
        <ele>183.0</ele>
        <time>2022-02-17T08:30:07Z</time>
      </trkpt>
      <trkpt lat="47.662376" lon="2.16441">
        <ele>182.0</ele>
        <time>2022-02-17T08:30:08Z</time>
      </trkpt>
      <trkpt lat="47.662388" lon="2.1643927">
        <ele>182.0</ele>
        <time>2022-02-17T08:30:09Z</time>
      </trkpt>
      <trkpt lat="47.662403" lon="2.1643822">
        <ele>181.0</ele>
        <time>2022-02-17T08:30:10Z</time>
      </trkpt>
      <trkpt lat="47.662415" lon="2.1643724">
        <ele>180.0</ele>
        <time>2022-02-17T08:30:11Z</time>
      </trkpt>
      <trkpt lat="47.662415" lon="2.1643724">
        <ele>180.0</ele>
        <time>2022-02-17T08:30:12Z</time>
      </trkpt>
      <trkpt lat="47.662434" lon="2.1643603">
        <ele>179.0</ele>
        <time>2022-02-17T08:30:13Z</time>
      </trkpt>
      <trkpt lat="47.662445" lon="2.1643581">
        <ele>179.0</ele>
        <time>2022-02-17T08:30:14Z</time>
      </trkpt>
      <trkpt lat="47.662457" lon="2.1643512">
        <ele>179.0</ele>
        <time>2022-02-17T08:30:15Z</time>
      </trkpt>
      <trkpt lat="47.662468" lon="2.1643457">
        <ele>179.0</ele>
        <time>2022-02-17T08:30:16Z</time>
      </trkpt>
      <trkpt lat="47.66248" lon="2.164341">
        <ele>179.0</ele>
        <time>2022-02-17T08:30:17Z</time>
      </trkpt>
      <trkpt lat="47.662495" lon="2.1643355">
        <ele>179.0</ele>
        <time>2022-02-17T08:30:18Z</time>
      </trkpt>
      <trkpt lat="47.662506" lon="2.164324">
        <ele>180.0</ele>
        <time>2022-02-17T08:30:19Z</time>
      </trkpt>
      <trkpt lat="47.662518" lon="2.164313">
        <ele>180.0</ele>
        <time>2022-02-17T08:30:20Z</time>
      </trkpt>
      <trkpt lat="47.66253" lon="2.1642985">
        <ele>180.0</ele>
        <time>2022-02-17T08:30:21Z</time>
      </trkpt>
      <trkpt lat="47.662544" lon="2.1642957">
        <ele>180.0</ele>
        <time>2022-02-17T08:30:22Z</time>
      </trkpt>
      <trkpt lat="47.66256" lon="2.1642942">
        <ele>180.0</ele>
        <time>2022-02-17T08:30:23Z</time>
      </trkpt>
      <trkpt lat="47.66257" lon="2.164287">
        <ele>181.0</ele>
        <time>2022-02-17T08:30:24Z</time>
      </trkpt>
      <trkpt lat="47.662582" lon="2.164286">
        <ele>181.0</ele>
        <time>2022-02-17T08:30:25Z</time>
      </trkpt>
      <trkpt lat="47.662594" lon="2.1642776">
        <ele>180.0</ele>
        <time>2022-02-17T08:30:26Z</time>
      </trkpt>
      <trkpt lat="47.662605" lon="2.164266">
        <ele>180.0</ele>
        <time>2022-02-17T08:30:27Z</time>
      </trkpt>
      <trkpt lat="47.66262" lon="2.164258">
        <ele>181.0</ele>
        <time>2022-02-17T08:30:28Z</time>
      </trkpt>
      <trkpt lat="47.662624" lon="2.164251">
        <ele>181.0</ele>
        <time>2022-02-17T08:30:29Z</time>
      </trkpt>
      <trkpt lat="47.662624" lon="2.164251">
        <ele>181.0</ele>
        <time>2022-02-17T08:30:30Z</time>
      </trkpt>
      <trkpt lat="47.662624" lon="2.164251">
        <ele>181.0</ele>
        <time>2022-02-17T08:30:31Z</time>
      </trkpt>
      <trkpt lat="47.66265" lon="2.164227">
        <ele>181.0</ele>
        <time>2022-02-17T08:30:32Z</time>
      </trkpt>
      <trkpt lat="47.662663" lon="2.164218">
        <ele>181.0</ele>
        <time>2022-02-17T08:30:33Z</time>
      </trkpt>
      <trkpt lat="47.662674" lon="2.1642091">
        <ele>181.0</ele>
        <time>2022-02-17T08:30:34Z</time>
      </trkpt>
      <trkpt lat="47.66269" lon="2.1641996">
        <ele>181.0</ele>
        <time>2022-02-17T08:30:35Z</time>
      </trkpt>
      <trkpt lat="47.6627" lon="2.1641963">
        <ele>181.0</ele>
        <time>2022-02-17T08:30:36Z</time>
      </trkpt>
      <trkpt lat="47.66271" lon="2.1641853">
        <ele>181.0</ele>
        <time>2022-02-17T08:30:37Z</time>
      </trkpt>
      <trkpt lat="47.66272" lon="2.1641846">
        <ele>181.0</ele>
        <time>2022-02-17T08:30:38Z</time>
      </trkpt>
      <trkpt lat="47.66272" lon="2.1641846">
        <ele>181.0</ele>
        <time>2022-02-17T08:30:39Z</time>
      </trkpt>
      <trkpt lat="47.66272" lon="2.1641846">
        <ele>181.0</ele>
        <time>2022-02-17T08:30:40Z</time>
      </trkpt>
      <trkpt lat="47.66276" lon="2.1641693">
        <ele>180.0</ele>
        <time>2022-02-17T08:30:41Z</time>
      </trkpt>
      <trkpt lat="47.662777" lon="2.1641598">
        <ele>179.0</ele>
        <time>2022-02-17T08:30:42Z</time>
      </trkpt>
      <trkpt lat="47.66279" lon="2.1641462">
        <ele>179.0</ele>
        <time>2022-02-17T08:30:43Z</time>
      </trkpt>
      <trkpt lat="47.6628" lon="2.1641386">
        <ele>179.0</ele>
        <time>2022-02-17T08:30:44Z</time>
      </trkpt>
      <trkpt lat="47.662815" lon="2.1641366">
        <ele>179.0</ele>
        <time>2022-02-17T08:30:45Z</time>
      </trkpt>
      <trkpt lat="47.66283" lon="2.1641273">
        <ele>178.0</ele>
        <time>2022-02-17T08:30:46Z</time>
      </trkpt>
      <trkpt lat="47.66284" lon="2.1641188">
        <ele>178.0</ele>
        <time>2022-02-17T08:30:47Z</time>
      </trkpt>
      <trkpt lat="47.662853" lon="2.1641119">
        <ele>179.0</ele>
        <time>2022-02-17T08:30:48Z</time>
      </trkpt>
      <trkpt lat="47.66286" lon="2.1641104">
        <ele>180.0</ele>
        <time>2022-02-17T08:30:49Z</time>
      </trkpt>
      <trkpt lat="47.66287" lon="2.1641064">
        <ele>181.0</ele>
        <time>2022-02-17T08:30:50Z</time>
      </trkpt>
      <trkpt lat="47.66287" lon="2.1641064">
        <ele>181.0</ele>
        <time>2022-02-17T08:30:51Z</time>
      </trkpt>
      <trkpt lat="47.66287" lon="2.1641061">
        <ele>181.0</ele>
        <time>2022-02-17T08:30:52Z</time>
      </trkpt>
      <trkpt lat="47.66287" lon="2.1641061">
        <ele>181.0</ele>
        <time>2022-02-17T08:30:52Z</time>
      </trkpt>
      <trkpt lat="47.66287" lon="2.1641061">
        <ele>181.0</ele>
        <time>2022-02-17T08:30:52Z</time>
      </trkpt>
      <trkpt lat="47.662907" lon="2.164099">
        <ele>181.0</ele>
        <time>2022-02-17T08:30:59Z</time>
      </trkpt>
      <trkpt lat="47.662907" lon="2.1641057">
        <ele>181.0</ele>
        <time>2022-02-17T08:31:00Z</time>
      </trkpt>
      <trkpt lat="47.662914" lon="2.1641073">
        <ele>181.0</ele>
        <time>2022-02-17T08:31:01Z</time>
      </trkpt>
      <trkpt lat="47.66292" lon="2.1641011">
        <ele>181.0</ele>
        <time>2022-02-17T08:31:02Z</time>
      </trkpt>
      <trkpt lat="47.66292" lon="2.1641011">
        <ele>181.0</ele>
        <time>2022-02-17T08:31:03Z</time>
      </trkpt>
      <trkpt lat="47.66292" lon="2.1641011">
        <ele>181.0</ele>
        <time>2022-02-17T08:31:04Z</time>
      </trkpt>
      <trkpt lat="47.662945" lon="2.1640885">
        <ele>182.0</ele>
        <time>2022-02-17T08:31:05Z</time>
      </trkpt>
      <trkpt lat="47.662956" lon="2.164087">
        <ele>181.0</ele>
        <time>2022-02-17T08:31:06Z</time>
      </trkpt>
      <trkpt lat="47.66296" lon="2.1640887">
        <ele>182.0</ele>
        <time>2022-02-17T08:31:07Z</time>
      </trkpt>
      <trkpt lat="47.66297" lon="2.1640918">
        <ele>182.0</ele>
        <time>2022-02-17T08:31:08Z</time>
      </trkpt>
      <trkpt lat="47.66298" lon="2.1640925">
        <ele>182.0</ele>
        <time>2022-02-17T08:31:09Z</time>
      </trkpt>
      <trkpt lat="47.66298" lon="2.1640925">
        <ele>182.0</ele>
        <time>2022-02-17T08:31:09Z</time>
      </trkpt>
      <trkpt lat="47.66298" lon="2.1640925">
        <ele>182.0</ele>
        <time>2022-02-17T08:31:09Z</time>
      </trkpt>
      <trkpt lat="47.66309" lon="2.1639514">
        <ele>184.0</ele>
        <time>2022-02-17T08:32:16Z</time>
      </trkpt>
      <trkpt lat="47.663094" lon="2.1639385">
        <ele>184.0</ele>
        <time>2022-02-17T08:32:17Z</time>
      </trkpt>
      <trkpt lat="47.6631" lon="2.163925">
        <ele>183.0</ele>
        <time>2022-02-17T08:32:18Z</time>
      </trkpt>
      <trkpt lat="47.6631" lon="2.163925">
        <ele>183.0</ele>
        <time>2022-02-17T08:32:19Z</time>
      </trkpt>
      <trkpt lat="47.6631" lon="2.163925">
        <ele>183.0</ele>
        <time>2022-02-17T08:32:20Z</time>
      </trkpt>
      <trkpt lat="47.663113" lon="2.1639056">
        <ele>183.0</ele>
        <time>2022-02-17T08:32:21Z</time>
      </trkpt>
      <trkpt lat="47.663116" lon="2.1639025">
        <ele>183.0</ele>
        <time>2022-02-17T08:32:22Z</time>
      </trkpt>
      <trkpt lat="47.66312" lon="2.1638913">
        <ele>184.0</ele>
        <time>2022-02-17T08:32:23Z</time>
      </trkpt>
      <trkpt lat="47.66312" lon="2.163891">
        <ele>184.0</ele>
        <time>2022-02-17T08:32:24Z</time>
      </trkpt>
      <trkpt lat="47.66312" lon="2.163891">
        <ele>184.0</ele>
        <time>2022-02-17T08:32:25Z</time>
      </trkpt>
      <trkpt lat="47.66312" lon="2.163891">
        <ele>184.0</ele>
        <time>2022-02-17T08:32:26Z</time>
      </trkpt>
      <trkpt lat="47.66312" lon="2.163891">
        <ele>184.0</ele>
        <time>2022-02-17T08:32:26Z</time>
      </trkpt>
      <trkpt lat="47.66312" lon="2.163891">
        <ele>184.0</ele>
        <time>2022-02-17T08:32:26Z</time>
      </trkpt>
      <trkpt lat="47.663166" lon="2.1638808">
        <ele>184.0</ele>
        <time>2022-02-17T08:32:34Z</time>
      </trkpt>
      <trkpt lat="47.663166" lon="2.1638808">
        <ele>184.0</ele>
        <time>2022-02-17T08:32:35Z</time>
      </trkpt>
      <trkpt lat="47.663177" lon="2.16388">
        <ele>184.0</ele>
        <time>2022-02-17T08:32:36Z</time>
      </trkpt>
      <trkpt lat="47.663185" lon="2.1638732">
        <ele>185.0</ele>
        <time>2022-02-17T08:32:37Z</time>
      </trkpt>
      <trkpt lat="47.663197" lon="2.163872">
        <ele>185.0</ele>
        <time>2022-02-17T08:32:38Z</time>
      </trkpt>
      <trkpt lat="47.663204" lon="2.163869">
        <ele>185.0</ele>
        <time>2022-02-17T08:32:39Z</time>
      </trkpt>
      <trkpt lat="47.66321" lon="2.1638672">
        <ele>185.0</ele>
        <time>2022-02-17T08:32:40Z</time>
      </trkpt>
      <trkpt lat="47.663223" lon="2.1638632">
        <ele>185.0</ele>
        <time>2022-02-17T08:32:41Z</time>
      </trkpt>
      <trkpt lat="47.663235" lon="2.1638582">
        <ele>185.0</ele>
        <time>2022-02-17T08:32:42Z</time>
      </trkpt>
      <trkpt lat="47.663246" lon="2.16385">
        <ele>186.0</ele>
        <time>2022-02-17T08:32:43Z</time>
      </trkpt>
      <trkpt lat="47.663254" lon="2.163843">
        <ele>185.0</ele>
        <time>2022-02-17T08:32:44Z</time>
      </trkpt>
      <trkpt lat="47.66326" lon="2.1638381">
        <ele>186.0</ele>
        <time>2022-02-17T08:32:45Z</time>
      </trkpt>
      <trkpt lat="47.66327" lon="2.1638308">
        <ele>186.0</ele>
        <time>2022-02-17T08:32:46Z</time>
      </trkpt>
      <trkpt lat="47.66328" lon="2.163822">
        <ele>186.0</ele>
        <time>2022-02-17T08:32:47Z</time>
      </trkpt>
      <trkpt lat="47.663292" lon="2.163817">
        <ele>186.0</ele>
        <time>2022-02-17T08:32:48Z</time>
      </trkpt>
      <trkpt lat="47.663303" lon="2.1638138">
        <ele>186.0</ele>
        <time>2022-02-17T08:32:49Z</time>
      </trkpt>
      <trkpt lat="47.663315" lon="2.1638055">
        <ele>187.0</ele>
        <time>2022-02-17T08:32:50Z</time>
      </trkpt>
      <trkpt lat="47.663326" lon="2.163797">
        <ele>187.0</ele>
        <time>2022-02-17T08:32:51Z</time>
      </trkpt>
      <trkpt lat="47.663338" lon="2.1637924">
        <ele>187.0</ele>
        <time>2022-02-17T08:32:52Z</time>
      </trkpt>
      <trkpt lat="47.663345" lon="2.163786">
        <ele>187.0</ele>
        <time>2022-02-17T08:32:53Z</time>
      </trkpt>
      <trkpt lat="47.663353" lon="2.1637805">
        <ele>187.0</ele>
        <time>2022-02-17T08:32:54Z</time>
      </trkpt>
      <trkpt lat="47.66336" lon="2.1637728">
        <ele>187.0</ele>
        <time>2022-02-17T08:32:55Z</time>
      </trkpt>
      <trkpt lat="47.66337" lon="2.1637707">
        <ele>187.0</ele>
        <time>2022-02-17T08:32:56Z</time>
      </trkpt>
      <trkpt lat="47.663372" lon="2.16377">
        <ele>187.0</ele>
        <time>2022-02-17T08:32:57Z</time>
      </trkpt>
      <trkpt lat="47.663372" lon="2.16377">
        <ele>187.0</ele>
        <time>2022-02-17T08:32:58Z</time>
      </trkpt>
      <trkpt lat="47.663372" lon="2.16377">
        <ele>187.0</ele>
        <time>2022-02-17T08:32:59Z</time>
      </trkpt>
      <trkpt lat="47.663372" lon="2.16377">
        <ele>187.0</ele>
        <time>2022-02-17T08:33:00Z</time>
      </trkpt>
      <trkpt lat="47.663372" lon="2.16377">
        <ele>187.0</ele>
        <time>2022-02-17T08:33:01Z</time>
      </trkpt>
      <trkpt lat="47.663372" lon="2.16377">
        <ele>187.0</ele>
        <time>2022-02-17T08:33:01Z</time>
      </trkpt>
      <trkpt lat="47.663372" lon="2.16377">
        <ele>187.0</ele>
        <time>2022-02-17T08:33:01Z</time>
      </trkpt>
      <trkpt lat="47.663433" lon="2.163716">
        <ele>187.0</ele>
        <time>2022-02-17T08:33:21Z</time>
      </trkpt>
      <trkpt lat="47.663437" lon="2.1637044">
        <ele>187.0</ele>
        <time>2022-02-17T08:33:22Z</time>
      </trkpt>
      <trkpt lat="47.66345" lon="2.1636884">
        <ele>187.0</ele>
        <time>2022-02-17T08:33:23Z</time>
      </trkpt>
      <trkpt lat="47.663456" lon="2.1636827">
        <ele>187.0</ele>
        <time>2022-02-17T08:33:24Z</time>
      </trkpt>
      <trkpt lat="47.663464" lon="2.1636794">
        <ele>187.0</ele>
        <time>2022-02-17T08:33:25Z</time>
      </trkpt>
      <trkpt lat="47.663475" lon="2.1636782">
        <ele>187.0</ele>
        <time>2022-02-17T08:33:26Z</time>
      </trkpt>
      <trkpt lat="47.663483" lon="2.1636763">
        <ele>187.0</ele>
        <time>2022-02-17T08:33:27Z</time>
      </trkpt>
      <trkpt lat="47.663486" lon="2.1636748">
        <ele>188.0</ele>
        <time>2022-02-17T08:33:28Z</time>
      </trkpt>
      <trkpt lat="47.663486" lon="2.1636748">
        <ele>188.0</ele>
        <time>2022-02-17T08:33:29Z</time>
      </trkpt>
      <trkpt lat="47.663486" lon="2.1636748">
        <ele>188.0</ele>
        <time>2022-02-17T08:33:30Z</time>
      </trkpt>
      <trkpt lat="47.663498" lon="2.1636684">
        <ele>188.0</ele>
        <time>2022-02-17T08:33:31Z</time>
      </trkpt>
      <trkpt lat="47.6635" lon="2.1636615">
        <ele>189.0</ele>
        <time>2022-02-17T08:33:32Z</time>
      </trkpt>
      <trkpt lat="47.66351" lon="2.1636608">
        <ele>189.0</ele>
        <time>2022-02-17T08:33:33Z</time>
      </trkpt>
      <trkpt lat="47.66352" lon="2.163654">
        <ele>189.0</ele>
        <time>2022-02-17T08:33:34Z</time>
      </trkpt>
      <trkpt lat="47.66352" lon="2.163653">
        <ele>189.0</ele>
        <time>2022-02-17T08:33:35Z</time>
      </trkpt>
      <trkpt lat="47.663525" lon="2.163651">
        <ele>189.0</ele>
        <time>2022-02-17T08:33:36Z</time>
      </trkpt>
      <trkpt lat="47.663532" lon="2.1636593">
        <ele>189.0</ele>
        <time>2022-02-17T08:33:37Z</time>
      </trkpt>
      <trkpt lat="47.66354" lon="2.1636531">
        <ele>189.0</ele>
        <time>2022-02-17T08:33:38Z</time>
      </trkpt>
      <trkpt lat="47.663544" lon="2.1636565">
        <ele>189.0</ele>
        <time>2022-02-17T08:33:39Z</time>
      </trkpt>
      <trkpt lat="47.663555" lon="2.1636534">
        <ele>188.0</ele>
        <time>2022-02-17T08:33:40Z</time>
      </trkpt>
      <trkpt lat="47.663567" lon="2.1636562">
        <ele>188.0</ele>
        <time>2022-02-17T08:33:41Z</time>
      </trkpt>
      <trkpt lat="47.66358" lon="2.163665">
        <ele>187.0</ele>
        <time>2022-02-17T08:33:42Z</time>
      </trkpt>
      <trkpt lat="47.663593" lon="2.1636748">
        <ele>186.0</ele>
        <time>2022-02-17T08:33:43Z</time>
      </trkpt>
      <trkpt lat="47.663605" lon="2.1636815">
        <ele>186.0</ele>
        <time>2022-02-17T08:33:44Z</time>
      </trkpt>
      <trkpt lat="47.663616" lon="2.163692">
        <ele>185.0</ele>
        <time>2022-02-17T08:33:45Z</time>
      </trkpt>
      <trkpt lat="47.663624" lon="2.1636984">
        <ele>185.0</ele>
        <time>2022-02-17T08:33:46Z</time>
      </trkpt>
      <trkpt lat="47.66363" lon="2.1637073">
        <ele>185.0</ele>
        <time>2022-02-17T08:33:47Z</time>
      </trkpt>
      <trkpt lat="47.66363" lon="2.1637073">
        <ele>185.0</ele>
        <time>2022-02-17T08:33:48Z</time>
      </trkpt>
      <trkpt lat="47.66363" lon="2.1637073">
        <ele>185.0</ele>
        <time>2022-02-17T08:33:49Z</time>
      </trkpt>
      <trkpt lat="47.663654" lon="2.1637113">
        <ele>186.0</ele>
        <time>2022-02-17T08:33:50Z</time>
      </trkpt>
      <trkpt lat="47.663666" lon="2.163717">
        <ele>185.0</ele>
        <time>2022-02-17T08:33:51Z</time>
      </trkpt>
      <trkpt lat="47.663673" lon="2.1637154">
        <ele>185.0</ele>
        <time>2022-02-17T08:33:52Z</time>
      </trkpt>
      <trkpt lat="47.66368" lon="2.1637156">
        <ele>185.0</ele>
        <time>2022-02-17T08:33:53Z</time>
      </trkpt>
      <trkpt lat="47.663692" lon="2.1637216">
        <ele>185.0</ele>
        <time>2022-02-17T08:33:54Z</time>
      </trkpt>
      <trkpt lat="47.6637" lon="2.1637225">
        <ele>185.0</ele>
        <time>2022-02-17T08:33:55Z</time>
      </trkpt>
      <trkpt lat="47.663704" lon="2.1637208">
        <ele>185.0</ele>
        <time>2022-02-17T08:33:56Z</time>
      </trkpt>
      <trkpt lat="47.663708" lon="2.1637216">
        <ele>185.0</ele>
        <time>2022-02-17T08:33:57Z</time>
      </trkpt>
      <trkpt lat="47.66371" lon="2.1637228">
        <ele>184.0</ele>
        <time>2022-02-17T08:33:58Z</time>
      </trkpt>
      <trkpt lat="47.66371" lon="2.1637268">
        <ele>184.0</ele>
        <time>2022-02-17T08:33:59Z</time>
      </trkpt>
      <trkpt lat="47.66371" lon="2.1637268">
        <ele>184.0</ele>
        <time>2022-02-17T08:34:00Z</time>
      </trkpt>
      <trkpt lat="47.66371" lon="2.1637268">
        <ele>184.0</ele>
        <time>2022-02-17T08:34:01Z</time>
      </trkpt>
      <trkpt lat="47.66371" lon="2.1637268">
        <ele>184.0</ele>
        <time>2022-02-17T08:34:02Z</time>
      </trkpt>
      <trkpt lat="47.663727" lon="2.1637123">
        <ele>184.0</ele>
        <time>2022-02-17T08:34:03Z</time>
      </trkpt>
      <trkpt lat="47.663734" lon="2.1637113">
        <ele>184.0</ele>
        <time>2022-02-17T08:34:04Z</time>
      </trkpt>
      <trkpt lat="47.663746" lon="2.1637113">
        <ele>183.0</ele>
        <time>2022-02-17T08:34:05Z</time>
      </trkpt>
      <trkpt lat="47.663757" lon="2.1637084">
        <ele>183.0</ele>
        <time>2022-02-17T08:34:06Z</time>
      </trkpt>
      <trkpt lat="47.66377" lon="2.1637084">
        <ele>183.0</ele>
        <time>2022-02-17T08:34:07Z</time>
      </trkpt>
      <trkpt lat="47.66378" lon="2.1637032">
        <ele>182.0</ele>
        <time>2022-02-17T08:34:08Z</time>
      </trkpt>
      <trkpt lat="47.663795" lon="2.1636994">
        <ele>183.0</ele>
        <time>2022-02-17T08:34:09Z</time>
      </trkpt>
      <trkpt lat="47.663807" lon="2.1636996">
        <ele>182.0</ele>
        <time>2022-02-17T08:34:10Z</time>
      </trkpt>
      <trkpt lat="47.663815" lon="2.1636987">
        <ele>182.0</ele>
        <time>2022-02-17T08:34:11Z</time>
      </trkpt>
      <trkpt lat="47.66382" lon="2.1637032">
        <ele>182.0</ele>
        <time>2022-02-17T08:34:12Z</time>
      </trkpt>
      <trkpt lat="47.663826" lon="2.1637056">
        <ele>181.0</ele>
        <time>2022-02-17T08:34:13Z</time>
      </trkpt>
      <trkpt lat="47.663837" lon="2.1637">
        <ele>181.0</ele>
        <time>2022-02-17T08:34:14Z</time>
      </trkpt>
      <trkpt lat="47.663853" lon="2.1636999">
        <ele>181.0</ele>
        <time>2022-02-17T08:34:15Z</time>
      </trkpt>
      <trkpt lat="47.663864" lon="2.1637015">
        <ele>180.0</ele>
        <time>2022-02-17T08:34:16Z</time>
      </trkpt>
      <trkpt lat="47.66387" lon="2.1637006">
        <ele>180.0</ele>
        <time>2022-02-17T08:34:17Z</time>
      </trkpt>
      <trkpt lat="47.66388" lon="2.1637027">
        <ele>180.0</ele>
        <time>2022-02-17T08:34:18Z</time>
      </trkpt>
      <trkpt lat="47.663887" lon="2.1636999">
        <ele>179.0</ele>
        <time>2022-02-17T08:34:19Z</time>
      </trkpt>
      <trkpt lat="47.663887" lon="2.1636999">
        <ele>179.0</ele>
        <time>2022-02-17T08:34:20Z</time>
      </trkpt>
      <trkpt lat="47.663887" lon="2.1636999">
        <ele>179.0</ele>
        <time>2022-02-17T08:34:21Z</time>
      </trkpt>
      <trkpt lat="47.66392" lon="2.1636941">
        <ele>179.0</ele>
        <time>2022-02-17T08:34:22Z</time>
      </trkpt>
      <trkpt lat="47.663933" lon="2.1636894">
        <ele>179.0</ele>
        <time>2022-02-17T08:34:23Z</time>
      </trkpt>
      <trkpt lat="47.663944" lon="2.1636834">
        <ele>179.0</ele>
        <time>2022-02-17T08:34:24Z</time>
      </trkpt>
      <trkpt lat="47.663948" lon="2.1636815">
        <ele>179.0</ele>
        <time>2022-02-17T08:34:25Z</time>
      </trkpt>
      <trkpt lat="47.663956" lon="2.1636734">
        <ele>179.0</ele>
        <time>2022-02-17T08:34:26Z</time>
      </trkpt>
      <trkpt lat="47.663963" lon="2.1636665">
        <ele>179.0</ele>
        <time>2022-02-17T08:34:27Z</time>
      </trkpt>
      <trkpt lat="47.663967" lon="2.1636643">
        <ele>178.0</ele>
        <time>2022-02-17T08:34:28Z</time>
      </trkpt>
      <trkpt lat="47.663963" lon="2.1636603">
        <ele>178.0</ele>
        <time>2022-02-17T08:34:29Z</time>
      </trkpt>
      <trkpt lat="47.66397" lon="2.1636536">
        <ele>178.0</ele>
        <time>2022-02-17T08:34:30Z</time>
      </trkpt>
      <trkpt lat="47.66398" lon="2.1636498">
        <ele>178.0</ele>
        <time>2022-02-17T08:34:31Z</time>
      </trkpt>
      <trkpt lat="47.663986" lon="2.163643">
        <ele>178.0</ele>
        <time>2022-02-17T08:34:32Z</time>
      </trkpt>
      <trkpt lat="47.663998" lon="2.1636407">
        <ele>178.0</ele>
        <time>2022-02-17T08:34:33Z</time>
      </trkpt>
      <trkpt lat="47.663998" lon="2.1636407">
        <ele>178.0</ele>
        <time>2022-02-17T08:34:34Z</time>
      </trkpt>
      <trkpt lat="47.663998" lon="2.1636407">
        <ele>178.0</ele>
        <time>2022-02-17T08:34:35Z</time>
      </trkpt>
      <trkpt lat="47.664017" lon="2.1636252">
        <ele>177.0</ele>
        <time>2022-02-17T08:34:36Z</time>
      </trkpt>
      <trkpt lat="47.664024" lon="2.1636217">
        <ele>176.0</ele>
        <time>2022-02-17T08:34:37Z</time>
      </trkpt>
      <trkpt lat="47.664036" lon="2.163614">
        <ele>175.0</ele>
        <time>2022-02-17T08:34:38Z</time>
      </trkpt>
      <trkpt lat="47.664047" lon="2.1636071">
        <ele>175.0</ele>
        <time>2022-02-17T08:34:39Z</time>
      </trkpt>
      <trkpt lat="47.66406" lon="2.1636028">
        <ele>174.0</ele>
        <time>2022-02-17T08:34:40Z</time>
      </trkpt>
      <trkpt lat="47.66407" lon="2.1635954">
        <ele>174.0</ele>
        <time>2022-02-17T08:34:41Z</time>
      </trkpt>
      <trkpt lat="47.66407" lon="2.1635954">
        <ele>174.0</ele>
        <time>2022-02-17T08:34:42Z</time>
      </trkpt>
      <trkpt lat="47.66407" lon="2.1635954">
        <ele>174.0</ele>
        <time>2022-02-17T08:34:43Z</time>
      </trkpt>
      <trkpt lat="47.66409" lon="2.1635833">
        <ele>172.0</ele>
        <time>2022-02-17T08:34:44Z</time>
      </trkpt>
      <trkpt lat="47.664097" lon="2.1635783">
        <ele>172.0</ele>
        <time>2022-02-17T08:34:45Z</time>
      </trkpt>
      <trkpt lat="47.664104" lon="2.1635754">
        <ele>172.0</ele>
        <time>2022-02-17T08:34:46Z</time>
      </trkpt>
      <trkpt lat="47.664116" lon="2.1635754">
        <ele>171.0</ele>
        <time>2022-02-17T08:34:47Z</time>
      </trkpt>
      <trkpt lat="47.664127" lon="2.1635685">
        <ele>171.0</ele>
        <time>2022-02-17T08:34:48Z</time>
      </trkpt>
      <trkpt lat="47.66414" lon="2.1635613">
        <ele>172.0</ele>
        <time>2022-02-17T08:34:49Z</time>
      </trkpt>
      <trkpt lat="47.66415" lon="2.1635585">
        <ele>172.0</ele>
        <time>2022-02-17T08:34:50Z</time>
      </trkpt>
      <trkpt lat="47.664158" lon="2.163554">
        <ele>172.0</ele>
        <time>2022-02-17T08:34:51Z</time>
      </trkpt>
      <trkpt lat="47.664158" lon="2.163554">
        <ele>172.0</ele>
        <time>2022-02-17T08:34:52Z</time>
      </trkpt>
      <trkpt lat="47.664158" lon="2.163554">
        <ele>172.0</ele>
        <time>2022-02-17T08:34:53Z</time>
      </trkpt>
      <trkpt lat="47.664185" lon="2.1635392">
        <ele>171.0</ele>
        <time>2022-02-17T08:34:54Z</time>
      </trkpt>
      <trkpt lat="47.664192" lon="2.1635318">
        <ele>171.0</ele>
        <time>2022-02-17T08:34:55Z</time>
      </trkpt>
      <trkpt lat="47.664204" lon="2.1635253">
        <ele>171.0</ele>
        <time>2022-02-17T08:34:56Z</time>
      </trkpt>
      <trkpt lat="47.66421" lon="2.1635172">
        <ele>170.0</ele>
        <time>2022-02-17T08:34:57Z</time>
      </trkpt>
      <trkpt lat="47.66421" lon="2.1635172">
        <ele>170.0</ele>
        <time>2022-02-17T08:34:58Z</time>
      </trkpt>
      <trkpt lat="47.664227" lon="2.1635041">
        <ele>171.0</ele>
        <time>2022-02-17T08:34:59Z</time>
      </trkpt>
      <trkpt lat="47.664234" lon="2.1635065">
        <ele>170.0</ele>
        <time>2022-02-17T08:35:00Z</time>
      </trkpt>
      <trkpt lat="47.66424" lon="2.1635108">
        <ele>171.0</ele>
        <time>2022-02-17T08:35:01Z</time>
      </trkpt>
      <trkpt lat="47.66425" lon="2.1635122">
        <ele>171.0</ele>
        <time>2022-02-17T08:35:02Z</time>
      </trkpt>
      <trkpt lat="47.66426" lon="2.163512">
        <ele>171.0</ele>
        <time>2022-02-17T08:35:03Z</time>
      </trkpt>
      <trkpt lat="47.66427" lon="2.1635094">
        <ele>171.0</ele>
        <time>2022-02-17T08:35:04Z</time>
      </trkpt>
      <trkpt lat="47.664276" lon="2.1635032">
        <ele>171.0</ele>
        <time>2022-02-17T08:35:05Z</time>
      </trkpt>
      <trkpt lat="47.66428" lon="2.1634967">
        <ele>171.0</ele>
        <time>2022-02-17T08:35:06Z</time>
      </trkpt>
      <trkpt lat="47.664288" lon="2.1634912">
        <ele>171.0</ele>
        <time>2022-02-17T08:35:07Z</time>
      </trkpt>
      <trkpt lat="47.66429" lon="2.1634881">
        <ele>171.0</ele>
        <time>2022-02-17T08:35:08Z</time>
      </trkpt>
      <trkpt lat="47.6643" lon="2.1634839">
        <ele>171.0</ele>
        <time>2022-02-17T08:35:09Z</time>
      </trkpt>
      <trkpt lat="47.664307" lon="2.1634774">
        <ele>170.0</ele>
        <time>2022-02-17T08:35:10Z</time>
      </trkpt>
      <trkpt lat="47.664307" lon="2.1634774">
        <ele>170.0</ele>
        <time>2022-02-17T08:35:11Z</time>
      </trkpt>
      <trkpt lat="47.664326" lon="2.1634705">
        <ele>170.0</ele>
        <time>2022-02-17T08:35:12Z</time>
      </trkpt>
      <trkpt lat="47.664337" lon="2.1634684">
        <ele>170.0</ele>
        <time>2022-02-17T08:35:13Z</time>
      </trkpt>
      <trkpt lat="47.66434" lon="2.1634674">
        <ele>170.0</ele>
        <time>2022-02-17T08:35:14Z</time>
      </trkpt>
      <trkpt lat="47.66435" lon="2.1634684">
        <ele>170.0</ele>
        <time>2022-02-17T08:35:15Z</time>
      </trkpt>
      <trkpt lat="47.66435" lon="2.1634684">
        <ele>170.0</ele>
        <time>2022-02-17T08:35:16Z</time>
      </trkpt>
      <trkpt lat="47.66435" lon="2.1634684">
        <ele>170.0</ele>
        <time>2022-02-17T08:35:17Z</time>
      </trkpt>
      <trkpt lat="47.664364" lon="2.1634645">
        <ele>170.0</ele>
        <time>2022-02-17T08:35:18Z</time>
      </trkpt>
      <trkpt lat="47.66437" lon="2.163468">
        <ele>170.0</ele>
        <time>2022-02-17T08:35:19Z</time>
      </trkpt>
      <trkpt lat="47.66438" lon="2.1634655">
        <ele>169.0</ele>
        <time>2022-02-17T08:35:20Z</time>
      </trkpt>
      <trkpt lat="47.664387" lon="2.1634622">
        <ele>169.0</ele>
        <time>2022-02-17T08:35:21Z</time>
      </trkpt>
      <trkpt lat="47.664387" lon="2.1634622">
        <ele>169.0</ele>
        <time>2022-02-17T08:35:22Z</time>
      </trkpt>
      <trkpt lat="47.664387" lon="2.1634622">
        <ele>169.0</ele>
        <time>2022-02-17T08:35:23Z</time>
      </trkpt>
      <trkpt lat="47.66441" lon="2.1634536">
        <ele>169.0</ele>
        <time>2022-02-17T08:35:24Z</time>
      </trkpt>
      <trkpt lat="47.664417" lon="2.1634479">
        <ele>170.0</ele>
        <time>2022-02-17T08:35:25Z</time>
      </trkpt>
      <trkpt lat="47.66442" lon="2.1634414">
        <ele>169.0</ele>
        <time>2022-02-17T08:35:26Z</time>
      </trkpt>
      <trkpt lat="47.66443" lon="2.1634393">
        <ele>169.0</ele>
        <time>2022-02-17T08:35:27Z</time>
      </trkpt>
      <trkpt lat="47.66443" lon="2.1634393">
        <ele>169.0</ele>
        <time>2022-02-17T08:35:28Z</time>
      </trkpt>
      <trkpt lat="47.66443" lon="2.1634393">
        <ele>169.0</ele>
        <time>2022-02-17T08:35:29Z</time>
      </trkpt>
      <trkpt lat="47.664455" lon="2.1634305">
        <ele>168.0</ele>
        <time>2022-02-17T08:35:30Z</time>
      </trkpt>
      <trkpt lat="47.664463" lon="2.1634266">
        <ele>168.0</ele>
        <time>2022-02-17T08:35:31Z</time>
      </trkpt>
      <trkpt lat="47.664474" lon="2.1634266">
        <ele>167.0</ele>
        <time>2022-02-17T08:35:32Z</time>
      </trkpt>
      <trkpt lat="47.664482" lon="2.1634266">
        <ele>167.0</ele>
        <time>2022-02-17T08:35:33Z</time>
      </trkpt>
      <trkpt lat="47.664482" lon="2.1634266">
        <ele>167.0</ele>
        <time>2022-02-17T08:35:34Z</time>
      </trkpt>
      <trkpt lat="47.664482" lon="2.1634266">
        <ele>167.0</ele>
        <time>2022-02-17T08:35:35Z</time>
      </trkpt>
      <trkpt lat="47.664513" lon="2.16342">
        <ele>167.0</ele>
        <time>2022-02-17T08:35:36Z</time>
      </trkpt>
      <trkpt lat="47.664524" lon="2.16342">
        <ele>167.0</ele>
        <time>2022-02-17T08:35:37Z</time>
      </trkpt>
      <trkpt lat="47.664536" lon="2.1634178">
        <ele>166.0</ele>
        <time>2022-02-17T08:35:38Z</time>
      </trkpt>
      <trkpt lat="47.66454" lon="2.1634133">
        <ele>167.0</ele>
        <time>2022-02-17T08:35:39Z</time>
      </trkpt>
      <trkpt lat="47.66454" lon="2.1634133">
        <ele>167.0</ele>
        <time>2022-02-17T08:35:40Z</time>
      </trkpt>
      <trkpt lat="47.66454" lon="2.1634133">
        <ele>167.0</ele>
        <time>2022-02-17T08:35:41Z</time>
      </trkpt>
      <trkpt lat="47.664566" lon="2.163406">
        <ele>166.0</ele>
        <time>2022-02-17T08:35:42Z</time>
      </trkpt>
      <trkpt lat="47.66458" lon="2.163404">
        <ele>166.0</ele>
        <time>2022-02-17T08:35:43Z</time>
      </trkpt>
      <trkpt lat="47.66459" lon="2.1634007">
        <ele>166.0</ele>
        <time>2022-02-17T08:35:44Z</time>
      </trkpt>
      <trkpt lat="47.6646" lon="2.1633973">
        <ele>166.0</ele>
        <time>2022-02-17T08:35:45Z</time>
      </trkpt>
      <trkpt lat="47.6646" lon="2.1633973">
        <ele>166.0</ele>
        <time>2022-02-17T08:35:46Z</time>
      </trkpt>
      <trkpt lat="47.6646" lon="2.1633973">
        <ele>166.0</ele>
        <time>2022-02-17T08:35:47Z</time>
      </trkpt>
      <trkpt lat="47.664623" lon="2.1633904">
        <ele>165.0</ele>
        <time>2022-02-17T08:35:48Z</time>
      </trkpt>
      <trkpt lat="47.66463" lon="2.1633897">
        <ele>165.0</ele>
        <time>2022-02-17T08:35:49Z</time>
      </trkpt>
      <trkpt lat="47.664635" lon="2.1633904">
        <ele>164.0</ele>
        <time>2022-02-17T08:35:50Z</time>
      </trkpt>
      <trkpt lat="47.664646" lon="2.1633904">
        <ele>164.0</ele>
        <time>2022-02-17T08:35:51Z</time>
      </trkpt>
      <trkpt lat="47.664654" lon="2.16339">
        <ele>164.0</ele>
        <time>2022-02-17T08:35:52Z</time>
      </trkpt>
      <trkpt lat="47.664654" lon="2.16339">
        <ele>164.0</ele>
        <time>2022-02-17T08:35:53Z</time>
      </trkpt>
      <trkpt lat="47.664654" lon="2.16339">
        <ele>164.0</ele>
        <time>2022-02-17T08:35:54Z</time>
      </trkpt>
      <trkpt lat="47.66468" lon="2.1633952">
        <ele>163.0</ele>
        <time>2022-02-17T08:35:55Z</time>
      </trkpt>
      <trkpt lat="47.664692" lon="2.163397">
        <ele>162.0</ele>
        <time>2022-02-17T08:35:56Z</time>
      </trkpt>
      <trkpt lat="47.664707" lon="2.1633935">
        <ele>162.0</ele>
        <time>2022-02-17T08:35:57Z</time>
      </trkpt>
      <trkpt lat="47.664722" lon="2.16339">
        <ele>162.0</ele>
        <time>2022-02-17T08:35:58Z</time>
      </trkpt>
      <trkpt lat="47.664734" lon="2.1633866">
        <ele>162.0</ele>
        <time>2022-02-17T08:35:59Z</time>
      </trkpt>
      <trkpt lat="47.66474" lon="2.1633809">
        <ele>162.0</ele>
        <time>2022-02-17T08:36:00Z</time>
      </trkpt>
      <trkpt lat="47.66475" lon="2.1633794">
        <ele>162.0</ele>
        <time>2022-02-17T08:36:01Z</time>
      </trkpt>
      <trkpt lat="47.66476" lon="2.163377">
        <ele>162.0</ele>
        <time>2022-02-17T08:36:02Z</time>
      </trkpt>
      <trkpt lat="47.664772" lon="2.163373">
        <ele>161.0</ele>
        <time>2022-02-17T08:36:03Z</time>
      </trkpt>
      <trkpt lat="47.664772" lon="2.163373">
        <ele>161.0</ele>
        <time>2022-02-17T08:36:04Z</time>
      </trkpt>
      <trkpt lat="47.664772" lon="2.163373">
        <ele>161.0</ele>
        <time>2022-02-17T08:36:05Z</time>
      </trkpt>
      <trkpt lat="47.664795" lon="2.1633599">
        <ele>161.0</ele>
        <time>2022-02-17T08:36:06Z</time>
      </trkpt>
      <trkpt lat="47.664806" lon="2.1633568">
        <ele>161.0</ele>
        <time>2022-02-17T08:36:07Z</time>
      </trkpt>
      <trkpt lat="47.664818" lon="2.1633518">
        <ele>161.0</ele>
        <time>2022-02-17T08:36:08Z</time>
      </trkpt>
      <trkpt lat="47.66483" lon="2.163346">
        <ele>161.0</ele>
        <time>2022-02-17T08:36:09Z</time>
      </trkpt>
      <trkpt lat="47.664845" lon="2.163342">
        <ele>161.0</ele>
        <time>2022-02-17T08:36:10Z</time>
      </trkpt>
      <trkpt lat="47.664856" lon="2.1633403">
        <ele>162.0</ele>
        <time>2022-02-17T08:36:11Z</time>
      </trkpt>
      <trkpt lat="47.664875" lon="2.163338">
        <ele>161.0</ele>
        <time>2022-02-17T08:36:12Z</time>
      </trkpt>
      <trkpt lat="47.664886" lon="2.163335">
        <ele>162.0</ele>
        <time>2022-02-17T08:36:13Z</time>
      </trkpt>
      <trkpt lat="47.6649" lon="2.16333">
        <ele>162.0</ele>
        <time>2022-02-17T08:36:14Z</time>
      </trkpt>
      <trkpt lat="47.66491" lon="2.163322">
        <ele>162.0</ele>
        <time>2022-02-17T08:36:15Z</time>
      </trkpt>
      <trkpt lat="47.664925" lon="2.1633136">
        <ele>163.0</ele>
        <time>2022-02-17T08:36:16Z</time>
      </trkpt>
      <trkpt lat="47.664936" lon="2.1633055">
        <ele>163.0</ele>
        <time>2022-02-17T08:36:17Z</time>
      </trkpt>
      <trkpt lat="47.664944" lon="2.1632948">
        <ele>163.0</ele>
        <time>2022-02-17T08:36:18Z</time>
      </trkpt>
      <trkpt lat="47.66496" lon="2.1632876">
        <ele>163.0</ele>
        <time>2022-02-17T08:36:19Z</time>
      </trkpt>
      <trkpt lat="47.66497" lon="2.1632788">
        <ele>163.0</ele>
        <time>2022-02-17T08:36:20Z</time>
      </trkpt>
      <trkpt lat="47.664986" lon="2.1632671">
        <ele>163.0</ele>
        <time>2022-02-17T08:36:21Z</time>
      </trkpt>
      <trkpt lat="47.665" lon="2.1632566">
        <ele>163.0</ele>
        <time>2022-02-17T08:36:22Z</time>
      </trkpt>
      <trkpt lat="47.665012" lon="2.1632478">
        <ele>163.0</ele>
        <time>2022-02-17T08:36:23Z</time>
      </trkpt>
      <trkpt lat="47.665028" lon="2.1632428">
        <ele>162.0</ele>
        <time>2022-02-17T08:36:24Z</time>
      </trkpt>
      <trkpt lat="47.66504" lon="2.163237">
        <ele>161.0</ele>
        <time>2022-02-17T08:36:25Z</time>
      </trkpt>
      <trkpt lat="47.66505" lon="2.1632338">
        <ele>160.0</ele>
        <time>2022-02-17T08:36:26Z</time>
      </trkpt>
      <trkpt lat="47.665062" lon="2.1632347">
        <ele>160.0</ele>
        <time>2022-02-17T08:36:27Z</time>
      </trkpt>
      <trkpt lat="47.665062" lon="2.1632347">
        <ele>160.0</ele>
        <time>2022-02-17T08:36:28Z</time>
      </trkpt>
      <trkpt lat="47.665062" lon="2.1632347">
        <ele>160.0</ele>
        <time>2022-02-17T08:36:29Z</time>
      </trkpt>
      <trkpt lat="47.66509" lon="2.163231">
        <ele>160.0</ele>
        <time>2022-02-17T08:36:30Z</time>
      </trkpt>
      <trkpt lat="47.6651" lon="2.1632257">
        <ele>160.0</ele>
        <time>2022-02-17T08:36:31Z</time>
      </trkpt>
      <trkpt lat="47.66511" lon="2.1632214">
        <ele>160.0</ele>
        <time>2022-02-17T08:36:32Z</time>
      </trkpt>
      <trkpt lat="47.665127" lon="2.1632204">
        <ele>160.0</ele>
        <time>2022-02-17T08:36:33Z</time>
      </trkpt>
      <trkpt lat="47.665127" lon="2.1632204">
        <ele>160.0</ele>
        <time>2022-02-17T08:36:34Z</time>
      </trkpt>
      <trkpt lat="47.665127" lon="2.1632204">
        <ele>160.0</ele>
        <time>2022-02-17T08:36:35Z</time>
      </trkpt>
      <trkpt lat="47.665157" lon="2.1632128">
        <ele>160.0</ele>
        <time>2022-02-17T08:36:36Z</time>
      </trkpt>
      <trkpt lat="47.66517" lon="2.1632125">
        <ele>160.0</ele>
        <time>2022-02-17T08:36:37Z</time>
      </trkpt>
      <trkpt lat="47.66518" lon="2.163211">
        <ele>160.0</ele>
        <time>2022-02-17T08:36:38Z</time>
      </trkpt>
      <trkpt lat="47.66519" lon="2.1632092">
        <ele>159.0</ele>
        <time>2022-02-17T08:36:39Z</time>
      </trkpt>
      <trkpt lat="47.66519" lon="2.1632092">
        <ele>159.0</ele>
        <time>2022-02-17T08:36:40Z</time>
      </trkpt>
      <trkpt lat="47.66522" lon="2.1632006">
        <ele>158.0</ele>
        <time>2022-02-17T08:36:41Z</time>
      </trkpt>
      <trkpt lat="47.665234" lon="2.1632">
        <ele>158.0</ele>
        <time>2022-02-17T08:36:42Z</time>
      </trkpt>
      <trkpt lat="47.66525" lon="2.1632006">
        <ele>158.0</ele>
        <time>2022-02-17T08:36:43Z</time>
      </trkpt>
      <trkpt lat="47.66526" lon="2.1632013">
        <ele>158.0</ele>
        <time>2022-02-17T08:36:44Z</time>
      </trkpt>
      <trkpt lat="47.665276" lon="2.163199">
        <ele>158.0</ele>
        <time>2022-02-17T08:36:45Z</time>
      </trkpt>
      <trkpt lat="47.66529" lon="2.163193">
        <ele>158.0</ele>
        <time>2022-02-17T08:36:46Z</time>
      </trkpt>
      <trkpt lat="47.665306" lon="2.1631894">
        <ele>159.0</ele>
        <time>2022-02-17T08:36:47Z</time>
      </trkpt>
      <trkpt lat="47.665318" lon="2.163186">
        <ele>159.0</ele>
        <time>2022-02-17T08:36:48Z</time>
      </trkpt>
      <trkpt lat="47.665333" lon="2.1631842">
        <ele>159.0</ele>
        <time>2022-02-17T08:36:49Z</time>
      </trkpt>
      <trkpt lat="47.665344" lon="2.1631837">
        <ele>159.0</ele>
        <time>2022-02-17T08:36:50Z</time>
      </trkpt>
      <trkpt lat="47.665356" lon="2.1631815">
        <ele>159.0</ele>
        <time>2022-02-17T08:36:51Z</time>
      </trkpt>
      <trkpt lat="47.665367" lon="2.1631804">
        <ele>158.0</ele>
        <time>2022-02-17T08:36:52Z</time>
      </trkpt>
      <trkpt lat="47.665382" lon="2.1631792">
        <ele>158.0</ele>
        <time>2022-02-17T08:36:53Z</time>
      </trkpt>
      <trkpt lat="47.665398" lon="2.1631768">
        <ele>157.0</ele>
        <time>2022-02-17T08:36:54Z</time>
      </trkpt>
      <trkpt lat="47.665413" lon="2.1631775">
        <ele>157.0</ele>
        <time>2022-02-17T08:36:55Z</time>
      </trkpt>
      <trkpt lat="47.665424" lon="2.1631784">
        <ele>156.0</ele>
        <time>2022-02-17T08:36:56Z</time>
      </trkpt>
      <trkpt lat="47.665436" lon="2.1631763">
        <ele>156.0</ele>
        <time>2022-02-17T08:36:57Z</time>
      </trkpt>
      <trkpt lat="47.665436" lon="2.1631763">
        <ele>156.0</ele>
        <time>2022-02-17T08:36:58Z</time>
      </trkpt>
      <trkpt lat="47.665436" lon="2.1631763">
        <ele>156.0</ele>
        <time>2022-02-17T08:36:59Z</time>
      </trkpt>
      <trkpt lat="47.665466" lon="2.163165">
        <ele>156.0</ele>
        <time>2022-02-17T08:37:00Z</time>
      </trkpt>
      <trkpt lat="47.665474" lon="2.1631644">
        <ele>156.0</ele>
        <time>2022-02-17T08:37:01Z</time>
      </trkpt>
      <trkpt lat="47.665485" lon="2.1631622">
        <ele>155.0</ele>
        <time>2022-02-17T08:37:02Z</time>
      </trkpt>
      <trkpt lat="47.665497" lon="2.1631603">
        <ele>155.0</ele>
        <time>2022-02-17T08:37:03Z</time>
      </trkpt>
      <trkpt lat="47.665497" lon="2.1631603">
        <ele>155.0</ele>
        <time>2022-02-17T08:37:04Z</time>
      </trkpt>
      <trkpt lat="47.665497" lon="2.1631603">
        <ele>155.0</ele>
        <time>2022-02-17T08:37:05Z</time>
      </trkpt>
      <trkpt lat="47.66553" lon="2.1631527">
        <ele>155.0</ele>
        <time>2022-02-17T08:37:06Z</time>
      </trkpt>
      <trkpt lat="47.665543" lon="2.1631536">
        <ele>154.0</ele>
        <time>2022-02-17T08:37:07Z</time>
      </trkpt>
      <trkpt lat="47.665558" lon="2.1631522">
        <ele>154.0</ele>
        <time>2022-02-17T08:37:08Z</time>
      </trkpt>
      <trkpt lat="47.66557" lon="2.1631541">
        <ele>154.0</ele>
        <time>2022-02-17T08:37:09Z</time>
      </trkpt>
      <trkpt lat="47.66557" lon="2.1631541">
        <ele>154.0</ele>
        <time>2022-02-17T08:37:10Z</time>
      </trkpt>
      <trkpt lat="47.66557" lon="2.1631541">
        <ele>154.0</ele>
        <time>2022-02-17T08:37:11Z</time>
      </trkpt>
      <trkpt lat="47.6656" lon="2.1631508">
        <ele>153.0</ele>
        <time>2022-02-17T08:37:12Z</time>
      </trkpt>
      <trkpt lat="47.665615" lon="2.1631486">
        <ele>153.0</ele>
        <time>2022-02-17T08:37:13Z</time>
      </trkpt>
      <trkpt lat="47.665623" lon="2.1631477">
        <ele>152.0</ele>
        <time>2022-02-17T08:37:14Z</time>
      </trkpt>
      <trkpt lat="47.665634" lon="2.1631446">
        <ele>152.0</ele>
        <time>2022-02-17T08:37:15Z</time>
      </trkpt>
      <trkpt lat="47.665634" lon="2.1631446">
        <ele>152.0</ele>
        <time>2022-02-17T08:37:16Z</time>
      </trkpt>
      <trkpt lat="47.665634" lon="2.1631446">
        <ele>152.0</ele>
        <time>2022-02-17T08:37:17Z</time>
      </trkpt>
      <trkpt lat="47.66566" lon="2.1631422">
        <ele>151.0</ele>
        <time>2022-02-17T08:37:18Z</time>
      </trkpt>
      <trkpt lat="47.66567" lon="2.1631386">
        <ele>151.0</ele>
        <time>2022-02-17T08:37:19Z</time>
      </trkpt>
      <trkpt lat="47.66568" lon="2.163133">
        <ele>152.0</ele>
        <time>2022-02-17T08:37:20Z</time>
      </trkpt>
      <trkpt lat="47.66569" lon="2.1631293">
        <ele>151.0</ele>
        <time>2022-02-17T08:37:21Z</time>
      </trkpt>
      <trkpt lat="47.66569" lon="2.1631293">
        <ele>151.0</ele>
        <time>2022-02-17T08:37:22Z</time>
      </trkpt>
      <trkpt lat="47.66569" lon="2.1631293">
        <ele>151.0</ele>
        <time>2022-02-17T08:37:23Z</time>
      </trkpt>
      <trkpt lat="47.665718" lon="2.1631222">
        <ele>150.0</ele>
        <time>2022-02-17T08:37:24Z</time>
      </trkpt>
      <trkpt lat="47.66573" lon="2.1631176">
        <ele>150.0</ele>
        <time>2022-02-17T08:37:25Z</time>
      </trkpt>
      <trkpt lat="47.665737" lon="2.163115">
        <ele>150.0</ele>
        <time>2022-02-17T08:37:26Z</time>
      </trkpt>
      <trkpt lat="47.66575" lon="2.1631103">
        <ele>150.0</ele>
        <time>2022-02-17T08:37:27Z</time>
      </trkpt>
      <trkpt lat="47.66575" lon="2.1631103">
        <ele>150.0</ele>
        <time>2022-02-17T08:37:28Z</time>
      </trkpt>
      <trkpt lat="47.66575" lon="2.1631103">
        <ele>150.0</ele>
        <time>2022-02-17T08:37:29Z</time>
      </trkpt>
      <trkpt lat="47.66578" lon="2.1631076">
        <ele>149.0</ele>
        <time>2022-02-17T08:37:30Z</time>
      </trkpt>
      <trkpt lat="47.66579" lon="2.1631072">
        <ele>149.0</ele>
        <time>2022-02-17T08:37:31Z</time>
      </trkpt>
      <trkpt lat="47.665802" lon="2.1631079">
        <ele>149.0</ele>
        <time>2022-02-17T08:37:32Z</time>
      </trkpt>
      <trkpt lat="47.66581" lon="2.163109">
        <ele>148.0</ele>
        <time>2022-02-17T08:37:33Z</time>
      </trkpt>
      <trkpt lat="47.66581" lon="2.163109">
        <ele>148.0</ele>
        <time>2022-02-17T08:37:34Z</time>
      </trkpt>
      <trkpt lat="47.66581" lon="2.163109">
        <ele>148.0</ele>
        <time>2022-02-17T08:37:35Z</time>
      </trkpt>
      <trkpt lat="47.665836" lon="2.163106">
        <ele>149.0</ele>
        <time>2022-02-17T08:37:36Z</time>
      </trkpt>
      <trkpt lat="47.66585" lon="2.1631038">
        <ele>149.0</ele>
        <time>2022-02-17T08:37:37Z</time>
      </trkpt>
      <trkpt lat="47.66587" lon="2.1631033">
        <ele>149.0</ele>
        <time>2022-02-17T08:37:38Z</time>
      </trkpt>
      <trkpt lat="47.665886" lon="2.163099">
        <ele>149.0</ele>
        <time>2022-02-17T08:37:39Z</time>
      </trkpt>
      <trkpt lat="47.6659" lon="2.1630938">
        <ele>150.0</ele>
        <time>2022-02-17T08:37:40Z</time>
      </trkpt>
      <trkpt lat="47.665913" lon="2.1630917">
        <ele>150.0</ele>
        <time>2022-02-17T08:37:41Z</time>
      </trkpt>
      <trkpt lat="47.665924" lon="2.163089">
        <ele>150.0</ele>
        <time>2022-02-17T08:37:42Z</time>
      </trkpt>
      <trkpt lat="47.665924" lon="2.163089">
        <ele>150.0</ele>
        <time>2022-02-17T08:37:43Z</time>
      </trkpt>
      <trkpt lat="47.665924" lon="2.163089">
        <ele>150.0</ele>
        <time>2022-02-17T08:37:44Z</time>
      </trkpt>
      <trkpt lat="47.665947" lon="2.1630905">
        <ele>149.0</ele>
        <time>2022-02-17T08:37:45Z</time>
      </trkpt>
      <trkpt lat="47.665962" lon="2.16309">
        <ele>149.0</ele>
        <time>2022-02-17T08:37:46Z</time>
      </trkpt>
      <trkpt lat="47.665977" lon="2.1630917">
        <ele>149.0</ele>
        <time>2022-02-17T08:37:47Z</time>
      </trkpt>
      <trkpt lat="47.66599" lon="2.1630888">
        <ele>149.0</ele>
        <time>2022-02-17T08:37:48Z</time>
      </trkpt>
      <trkpt lat="47.666" lon="2.1630867">
        <ele>149.0</ele>
        <time>2022-02-17T08:37:49Z</time>
      </trkpt>
      <trkpt lat="47.66601" lon="2.1630862">
        <ele>149.0</ele>
        <time>2022-02-17T08:37:50Z</time>
      </trkpt>
      <trkpt lat="47.666023" lon="2.1630847">
        <ele>149.0</ele>
        <time>2022-02-17T08:37:51Z</time>
      </trkpt>
      <trkpt lat="47.66604" lon="2.1630855">
        <ele>149.0</ele>
        <time>2022-02-17T08:37:52Z</time>
      </trkpt>
      <trkpt lat="47.66605" lon="2.1630845">
        <ele>148.0</ele>
        <time>2022-02-17T08:37:53Z</time>
      </trkpt>
      <trkpt lat="47.666065" lon="2.163084">
        <ele>148.0</ele>
        <time>2022-02-17T08:37:54Z</time>
      </trkpt>
      <trkpt lat="47.666077" lon="2.163085">
        <ele>148.0</ele>
        <time>2022-02-17T08:37:55Z</time>
      </trkpt>
      <trkpt lat="47.666084" lon="2.16309">
        <ele>148.0</ele>
        <time>2022-02-17T08:37:56Z</time>
      </trkpt>
      <trkpt lat="47.666096" lon="2.163091">
        <ele>148.0</ele>
        <time>2022-02-17T08:37:57Z</time>
      </trkpt>
      <trkpt lat="47.666096" lon="2.163091">
        <ele>148.0</ele>
        <time>2022-02-17T08:37:58Z</time>
      </trkpt>
      <trkpt lat="47.666096" lon="2.163091">
        <ele>148.0</ele>
        <time>2022-02-17T08:37:59Z</time>
      </trkpt>
      <trkpt lat="47.666126" lon="2.1630964">
        <ele>148.0</ele>
        <time>2022-02-17T08:38:00Z</time>
      </trkpt>
      <trkpt lat="47.666138" lon="2.1630974">
        <ele>148.0</ele>
        <time>2022-02-17T08:38:01Z</time>
      </trkpt>
      <trkpt lat="47.666145" lon="2.1631">
        <ele>148.0</ele>
        <time>2022-02-17T08:38:02Z</time>
      </trkpt>
      <trkpt lat="47.666157" lon="2.163105">
        <ele>148.0</ele>
        <time>2022-02-17T08:38:03Z</time>
      </trkpt>
      <trkpt lat="47.66617" lon="2.1631083">
        <ele>148.0</ele>
        <time>2022-02-17T08:38:04Z</time>
      </trkpt>
      <trkpt lat="47.66617" lon="2.1631083">
        <ele>148.0</ele>
        <time>2022-02-17T08:38:05Z</time>
      </trkpt>
      <trkpt lat="47.66617" lon="2.1631083">
        <ele>148.0</ele>
        <time>2022-02-17T08:38:06Z</time>
      </trkpt>
      <trkpt lat="47.666195" lon="2.1631165">
        <ele>148.0</ele>
        <time>2022-02-17T08:38:07Z</time>
      </trkpt>
      <trkpt lat="47.666206" lon="2.1631172">
        <ele>147.0</ele>
        <time>2022-02-17T08:38:08Z</time>
      </trkpt>
      <trkpt lat="47.66622" lon="2.1631153">
        <ele>147.0</ele>
        <time>2022-02-17T08:38:09Z</time>
      </trkpt>
      <trkpt lat="47.666233" lon="2.1631155">
        <ele>146.0</ele>
        <time>2022-02-17T08:38:10Z</time>
      </trkpt>
      <trkpt lat="47.666233" lon="2.1631155">
        <ele>146.0</ele>
        <time>2022-02-17T08:38:11Z</time>
      </trkpt>
      <trkpt lat="47.666233" lon="2.1631155">
        <ele>146.0</ele>
        <time>2022-02-17T08:38:12Z</time>
      </trkpt>
      <trkpt lat="47.666264" lon="2.1631188">
        <ele>145.0</ele>
        <time>2022-02-17T08:38:13Z</time>
      </trkpt>
      <trkpt lat="47.666283" lon="2.1631203">
        <ele>144.0</ele>
        <time>2022-02-17T08:38:14Z</time>
      </trkpt>
      <trkpt lat="47.666283" lon="2.163121">
        <ele>144.0</ele>
        <time>2022-02-17T08:38:15Z</time>
      </trkpt>
      <trkpt lat="47.66629" lon="2.163118">
        <ele>145.0</ele>
        <time>2022-02-17T08:38:16Z</time>
      </trkpt>
      <trkpt lat="47.666298" lon="2.163113">
        <ele>145.0</ele>
        <time>2022-02-17T08:38:17Z</time>
      </trkpt>
      <trkpt lat="47.666298" lon="2.163113">
        <ele>145.0</ele>
        <time>2022-02-17T08:38:18Z</time>
      </trkpt>
      <trkpt lat="47.666298" lon="2.163113">
        <ele>145.0</ele>
        <time>2022-02-17T08:38:19Z</time>
      </trkpt>
      <trkpt lat="47.66633" lon="2.1631224">
        <ele>145.0</ele>
        <time>2022-02-17T08:38:20Z</time>
      </trkpt>
      <trkpt lat="47.66634" lon="2.1631231">
        <ele>145.0</ele>
        <time>2022-02-17T08:38:21Z</time>
      </trkpt>
      <trkpt lat="47.66635" lon="2.1631255">
        <ele>145.0</ele>
        <time>2022-02-17T08:38:22Z</time>
      </trkpt>
      <trkpt lat="47.666363" lon="2.163127">
        <ele>144.0</ele>
        <time>2022-02-17T08:38:23Z</time>
      </trkpt>
      <trkpt lat="47.666374" lon="2.1631286">
        <ele>144.0</ele>
        <time>2022-02-17T08:38:24Z</time>
      </trkpt>
      <trkpt lat="47.66639" lon="2.1631346">
        <ele>143.0</ele>
        <time>2022-02-17T08:38:25Z</time>
      </trkpt>
      <trkpt lat="47.6664" lon="2.163143">
        <ele>143.0</ele>
        <time>2022-02-17T08:38:26Z</time>
      </trkpt>
      <trkpt lat="47.666416" lon="2.1631503">
        <ele>142.0</ele>
        <time>2022-02-17T08:38:27Z</time>
      </trkpt>
      <trkpt lat="47.66643" lon="2.1631527">
        <ele>142.0</ele>
        <time>2022-02-17T08:38:28Z</time>
      </trkpt>
      <trkpt lat="47.66644" lon="2.1631553">
        <ele>142.0</ele>
        <time>2022-02-17T08:38:29Z</time>
      </trkpt>
      <trkpt lat="47.666454" lon="2.16316">
        <ele>142.0</ele>
        <time>2022-02-17T08:38:30Z</time>
      </trkpt>
      <trkpt lat="47.66647" lon="2.163166">
        <ele>141.0</ele>
        <time>2022-02-17T08:38:31Z</time>
      </trkpt>
      <trkpt lat="47.666485" lon="2.1631706">
        <ele>141.0</ele>
        <time>2022-02-17T08:38:32Z</time>
      </trkpt>
      <trkpt lat="47.6665" lon="2.1631753">
        <ele>141.0</ele>
        <time>2022-02-17T08:38:33Z</time>
      </trkpt>
      <trkpt lat="47.666515" lon="2.1631837">
        <ele>140.0</ele>
        <time>2022-02-17T08:38:34Z</time>
      </trkpt>
      <trkpt lat="47.666527" lon="2.1631863">
        <ele>141.0</ele>
        <time>2022-02-17T08:38:35Z</time>
      </trkpt>
      <trkpt lat="47.666542" lon="2.1631882">
        <ele>140.0</ele>
        <time>2022-02-17T08:38:36Z</time>
      </trkpt>
      <trkpt lat="47.666557" lon="2.1631935">
        <ele>140.0</ele>
        <time>2022-02-17T08:38:37Z</time>
      </trkpt>
      <trkpt lat="47.66657" lon="2.1631973">
        <ele>140.0</ele>
        <time>2022-02-17T08:38:38Z</time>
      </trkpt>
      <trkpt lat="47.666584" lon="2.1631997">
        <ele>140.0</ele>
        <time>2022-02-17T08:38:39Z</time>
      </trkpt>
      <trkpt lat="47.666595" lon="2.1632037">
        <ele>141.0</ele>
        <time>2022-02-17T08:38:40Z</time>
      </trkpt>
      <trkpt lat="47.66661" lon="2.163208">
        <ele>141.0</ele>
        <time>2022-02-17T08:38:41Z</time>
      </trkpt>
      <trkpt lat="47.666622" lon="2.163213">
        <ele>141.0</ele>
        <time>2022-02-17T08:38:42Z</time>
      </trkpt>
      <trkpt lat="47.666622" lon="2.163213">
        <ele>141.0</ele>
        <time>2022-02-17T08:38:43Z</time>
      </trkpt>
      <trkpt lat="47.666622" lon="2.163213">
        <ele>141.0</ele>
        <time>2022-02-17T08:38:44Z</time>
      </trkpt>
      <trkpt lat="47.666653" lon="2.1632204">
        <ele>141.0</ele>
        <time>2022-02-17T08:38:45Z</time>
      </trkpt>
      <trkpt lat="47.666664" lon="2.1632264">
        <ele>141.0</ele>
        <time>2022-02-17T08:38:46Z</time>
      </trkpt>
      <trkpt lat="47.666676" lon="2.1632304">
        <ele>141.0</ele>
        <time>2022-02-17T08:38:47Z</time>
      </trkpt>
      <trkpt lat="47.66669" lon="2.163232">
        <ele>142.0</ele>
        <time>2022-02-17T08:38:48Z</time>
      </trkpt>
      <trkpt lat="47.666702" lon="2.1632328">
        <ele>142.0</ele>
        <time>2022-02-17T08:38:49Z</time>
      </trkpt>
      <trkpt lat="47.666714" lon="2.1632292">
        <ele>142.0</ele>
        <time>2022-02-17T08:38:50Z</time>
      </trkpt>
      <trkpt lat="47.66672" lon="2.1632283">
        <ele>143.0</ele>
        <time>2022-02-17T08:38:51Z</time>
      </trkpt>
      <trkpt lat="47.666733" lon="2.1632257">
        <ele>143.0</ele>
        <time>2022-02-17T08:38:52Z</time>
      </trkpt>
      <trkpt lat="47.666748" lon="2.163227">
        <ele>143.0</ele>
        <time>2022-02-17T08:38:53Z</time>
      </trkpt>
      <trkpt lat="47.66676" lon="2.1632311">
        <ele>143.0</ele>
        <time>2022-02-17T08:38:54Z</time>
      </trkpt>
      <trkpt lat="47.66677" lon="2.163238">
        <ele>143.0</ele>
        <time>2022-02-17T08:38:55Z</time>
      </trkpt>
      <trkpt lat="47.66678" lon="2.1632493">
        <ele>143.0</ele>
        <time>2022-02-17T08:38:56Z</time>
      </trkpt>
      <trkpt lat="47.666786" lon="2.1632524">
        <ele>144.0</ele>
        <time>2022-02-17T08:38:57Z</time>
      </trkpt>
      <trkpt lat="47.666798" lon="2.1632538">
        <ele>144.0</ele>
        <time>2022-02-17T08:38:58Z</time>
      </trkpt>
      <trkpt lat="47.666798" lon="2.1632538">
        <ele>144.0</ele>
        <time>2022-02-17T08:38:59Z</time>
      </trkpt>
      <trkpt lat="47.666798" lon="2.1632538">
        <ele>144.0</ele>
        <time>2022-02-17T08:39:00Z</time>
      </trkpt>
      <trkpt lat="47.666824" lon="2.1632605">
        <ele>144.0</ele>
        <time>2022-02-17T08:39:01Z</time>
      </trkpt>
      <trkpt lat="47.666836" lon="2.163266">
        <ele>144.0</ele>
        <time>2022-02-17T08:39:02Z</time>
      </trkpt>
      <trkpt lat="47.666847" lon="2.1632676">
        <ele>144.0</ele>
        <time>2022-02-17T08:39:03Z</time>
      </trkpt>
      <trkpt lat="47.66686" lon="2.1632712">
        <ele>143.0</ele>
        <time>2022-02-17T08:39:04Z</time>
      </trkpt>
      <trkpt lat="47.66687" lon="2.163276">
        <ele>143.0</ele>
        <time>2022-02-17T08:39:05Z</time>
      </trkpt>
      <trkpt lat="47.666885" lon="2.163283">
        <ele>143.0</ele>
        <time>2022-02-17T08:39:06Z</time>
      </trkpt>
      <trkpt lat="47.666897" lon="2.163287">
        <ele>144.0</ele>
        <time>2022-02-17T08:39:07Z</time>
      </trkpt>
      <trkpt lat="47.666912" lon="2.1632903">
        <ele>144.0</ele>
        <time>2022-02-17T08:39:08Z</time>
      </trkpt>
      <trkpt lat="47.666927" lon="2.163293">
        <ele>144.0</ele>
        <time>2022-02-17T08:39:09Z</time>
      </trkpt>
      <trkpt lat="47.666943" lon="2.163293">
        <ele>144.0</ele>
        <time>2022-02-17T08:39:10Z</time>
      </trkpt>
      <trkpt lat="47.666958" lon="2.163297">
        <ele>143.0</ele>
        <time>2022-02-17T08:39:11Z</time>
      </trkpt>
      <trkpt lat="47.66697" lon="2.1633017">
        <ele>143.0</ele>
        <time>2022-02-17T08:39:12Z</time>
      </trkpt>
      <trkpt lat="47.666985" lon="2.16331">
        <ele>143.0</ele>
        <time>2022-02-17T08:39:13Z</time>
      </trkpt>
      <trkpt lat="47.667" lon="2.163311">
        <ele>143.0</ele>
        <time>2022-02-17T08:39:14Z</time>
      </trkpt>
      <trkpt lat="47.667015" lon="2.1633096">
        <ele>142.0</ele>
        <time>2022-02-17T08:39:15Z</time>
      </trkpt>
      <trkpt lat="47.66703" lon="2.1633143">
        <ele>142.0</ele>
        <time>2022-02-17T08:39:16Z</time>
      </trkpt>
      <trkpt lat="47.667046" lon="2.1633196">
        <ele>142.0</ele>
        <time>2022-02-17T08:39:17Z</time>
      </trkpt>
      <trkpt lat="47.667057" lon="2.163327">
        <ele>141.0</ele>
        <time>2022-02-17T08:39:18Z</time>
      </trkpt>
      <trkpt lat="47.667072" lon="2.1633272">
        <ele>141.0</ele>
        <time>2022-02-17T08:39:19Z</time>
      </trkpt>
      <trkpt lat="47.667084" lon="2.1633286">
        <ele>141.0</ele>
        <time>2022-02-17T08:39:20Z</time>
      </trkpt>
      <trkpt lat="47.667095" lon="2.1633294">
        <ele>142.0</ele>
        <time>2022-02-17T08:39:21Z</time>
      </trkpt>
      <trkpt lat="47.66711" lon="2.1633294">
        <ele>142.0</ele>
        <time>2022-02-17T08:39:22Z</time>
      </trkpt>
      <trkpt lat="47.66713" lon="2.1633308">
        <ele>142.0</ele>
        <time>2022-02-17T08:39:23Z</time>
      </trkpt>
      <trkpt lat="47.66715" lon="2.163333">
        <ele>142.0</ele>
        <time>2022-02-17T08:39:24Z</time>
      </trkpt>
      <trkpt lat="47.667164" lon="2.1633332">
        <ele>142.0</ele>
        <time>2022-02-17T08:39:25Z</time>
      </trkpt>
      <trkpt lat="47.667183" lon="2.163332">
        <ele>143.0</ele>
        <time>2022-02-17T08:39:26Z</time>
      </trkpt>
      <trkpt lat="47.6672" lon="2.1633322">
        <ele>143.0</ele>
        <time>2022-02-17T08:39:27Z</time>
      </trkpt>
      <trkpt lat="47.667213" lon="2.1633358">
        <ele>143.0</ele>
        <time>2022-02-17T08:39:28Z</time>
      </trkpt>
      <trkpt lat="47.66723" lon="2.1633387">
        <ele>143.0</ele>
        <time>2022-02-17T08:39:29Z</time>
      </trkpt>
      <trkpt lat="47.667248" lon="2.1633394">
        <ele>143.0</ele>
        <time>2022-02-17T08:39:30Z</time>
      </trkpt>
      <trkpt lat="47.66726" lon="2.1633408">
        <ele>144.0</ele>
        <time>2022-02-17T08:39:31Z</time>
      </trkpt>
      <trkpt lat="47.667274" lon="2.1633425">
        <ele>144.0</ele>
        <time>2022-02-17T08:39:32Z</time>
      </trkpt>
      <trkpt lat="47.66729" lon="2.1633427">
        <ele>144.0</ele>
        <time>2022-02-17T08:39:33Z</time>
      </trkpt>
      <trkpt lat="47.6673" lon="2.1633399">
        <ele>145.0</ele>
        <time>2022-02-17T08:39:34Z</time>
      </trkpt>
      <trkpt lat="47.667313" lon="2.163338">
        <ele>145.0</ele>
        <time>2022-02-17T08:39:35Z</time>
      </trkpt>
      <trkpt lat="47.667324" lon="2.1633365">
        <ele>145.0</ele>
        <time>2022-02-17T08:39:36Z</time>
      </trkpt>
      <trkpt lat="47.667336" lon="2.1633334">
        <ele>145.0</ele>
        <time>2022-02-17T08:39:37Z</time>
      </trkpt>
      <trkpt lat="47.667347" lon="2.1633348">
        <ele>145.0</ele>
        <time>2022-02-17T08:39:38Z</time>
      </trkpt>
      <trkpt lat="47.66736" lon="2.1633348">
        <ele>145.0</ele>
        <time>2022-02-17T08:39:39Z</time>
      </trkpt>
      <trkpt lat="47.66737" lon="2.163334">
        <ele>145.0</ele>
        <time>2022-02-17T08:39:40Z</time>
      </trkpt>
      <trkpt lat="47.66738" lon="2.1633344">
        <ele>145.0</ele>
        <time>2022-02-17T08:39:41Z</time>
      </trkpt>
      <trkpt lat="47.667393" lon="2.1633334">
        <ele>145.0</ele>
        <time>2022-02-17T08:39:42Z</time>
      </trkpt>
      <trkpt lat="47.667408" lon="2.163328">
        <ele>145.0</ele>
        <time>2022-02-17T08:39:43Z</time>
      </trkpt>
      <trkpt lat="47.66742" lon="2.1633234">
        <ele>146.0</ele>
        <time>2022-02-17T08:39:44Z</time>
      </trkpt>
      <trkpt lat="47.66743" lon="2.163317">
        <ele>145.0</ele>
        <time>2022-02-17T08:39:45Z</time>
      </trkpt>
      <trkpt lat="47.667446" lon="2.163317">
        <ele>145.0</ele>
        <time>2022-02-17T08:39:46Z</time>
      </trkpt>
      <trkpt lat="47.667458" lon="2.1633182">
        <ele>146.0</ele>
        <time>2022-02-17T08:39:47Z</time>
      </trkpt>
      <trkpt lat="47.66747" lon="2.1633167">
        <ele>145.0</ele>
        <time>2022-02-17T08:39:48Z</time>
      </trkpt>
      <trkpt lat="47.66747" lon="2.1633167">
        <ele>145.0</ele>
        <time>2022-02-17T08:39:49Z</time>
      </trkpt>
      <trkpt lat="47.667492" lon="2.1633108">
        <ele>145.0</ele>
        <time>2022-02-17T08:39:50Z</time>
      </trkpt>
      <trkpt lat="47.667507" lon="2.1633062">
        <ele>146.0</ele>
        <time>2022-02-17T08:39:51Z</time>
      </trkpt>
      <trkpt lat="47.667522" lon="2.1633039">
        <ele>146.0</ele>
        <time>2022-02-17T08:39:52Z</time>
      </trkpt>
      <trkpt lat="47.667538" lon="2.1633017">
        <ele>146.0</ele>
        <time>2022-02-17T08:39:53Z</time>
      </trkpt>
      <trkpt lat="47.66755" lon="2.1632988">
        <ele>146.0</ele>
        <time>2022-02-17T08:39:54Z</time>
      </trkpt>
      <trkpt lat="47.66756" lon="2.1632965">
        <ele>147.0</ele>
        <time>2022-02-17T08:39:55Z</time>
      </trkpt>
      <trkpt lat="47.66758" lon="2.1633024">
        <ele>147.0</ele>
        <time>2022-02-17T08:39:56Z</time>
      </trkpt>
      <trkpt lat="47.667587" lon="2.163307">
        <ele>147.0</ele>
        <time>2022-02-17T08:39:57Z</time>
      </trkpt>
      <trkpt lat="47.6676" lon="2.1633055">
        <ele>147.0</ele>
        <time>2022-02-17T08:39:58Z</time>
      </trkpt>
      <trkpt lat="47.66761" lon="2.1633048">
        <ele>147.0</ele>
        <time>2022-02-17T08:39:59Z</time>
      </trkpt>
      <trkpt lat="47.66762" lon="2.1633">
        <ele>148.0</ele>
        <time>2022-02-17T08:40:00Z</time>
      </trkpt>
      <trkpt lat="47.66762" lon="2.1633">
        <ele>148.0</ele>
        <time>2022-02-17T08:40:01Z</time>
      </trkpt>
      <trkpt lat="47.66762" lon="2.1633">
        <ele>148.0</ele>
        <time>2022-02-17T08:40:02Z</time>
      </trkpt>
      <trkpt lat="47.667652" lon="2.163292">
        <ele>148.0</ele>
        <time>2022-02-17T08:40:03Z</time>
      </trkpt>
      <trkpt lat="47.667664" lon="2.1632907">
        <ele>148.0</ele>
        <time>2022-02-17T08:40:04Z</time>
      </trkpt>
      <trkpt lat="47.667675" lon="2.1632915">
        <ele>148.0</ele>
        <time>2022-02-17T08:40:05Z</time>
      </trkpt>
      <trkpt lat="47.66769" lon="2.1632922">
        <ele>148.0</ele>
        <time>2022-02-17T08:40:06Z</time>
      </trkpt>
      <trkpt lat="47.667706" lon="2.1632936">
        <ele>147.0</ele>
        <time>2022-02-17T08:40:07Z</time>
      </trkpt>
      <trkpt lat="47.66772" lon="2.163291">
        <ele>147.0</ele>
        <time>2022-02-17T08:40:08Z</time>
      </trkpt>
      <trkpt lat="47.66774" lon="2.163286">
        <ele>148.0</ele>
        <time>2022-02-17T08:40:09Z</time>
      </trkpt>
      <trkpt lat="47.667755" lon="2.1632817">
        <ele>148.0</ele>
        <time>2022-02-17T08:40:10Z</time>
      </trkpt>
      <trkpt lat="47.66777" lon="2.1632762">
        <ele>148.0</ele>
        <time>2022-02-17T08:40:11Z</time>
      </trkpt>
      <trkpt lat="47.667786" lon="2.163276">
        <ele>149.0</ele>
        <time>2022-02-17T08:40:12Z</time>
      </trkpt>
      <trkpt lat="47.667797" lon="2.1632745">
        <ele>149.0</ele>
        <time>2022-02-17T08:40:13Z</time>
      </trkpt>
      <trkpt lat="47.66781" lon="2.163271">
        <ele>150.0</ele>
        <time>2022-02-17T08:40:14Z</time>
      </trkpt>
      <trkpt lat="47.667824" lon="2.1632671">
        <ele>150.0</ele>
        <time>2022-02-17T08:40:15Z</time>
      </trkpt>
      <trkpt lat="47.66783" lon="2.1632588">
        <ele>150.0</ele>
        <time>2022-02-17T08:40:16Z</time>
      </trkpt>
      <trkpt lat="47.667843" lon="2.1632535">
        <ele>150.0</ele>
        <time>2022-02-17T08:40:17Z</time>
      </trkpt>
      <trkpt lat="47.667843" lon="2.1632535">
        <ele>150.0</ele>
        <time>2022-02-17T08:40:18Z</time>
      </trkpt>
      <trkpt lat="47.667843" lon="2.1632535">
        <ele>150.0</ele>
        <time>2022-02-17T08:40:19Z</time>
      </trkpt>
      <trkpt lat="47.66787" lon="2.163248">
        <ele>150.0</ele>
        <time>2022-02-17T08:40:20Z</time>
      </trkpt>
      <trkpt lat="47.66788" lon="2.16325">
        <ele>151.0</ele>
        <time>2022-02-17T08:40:21Z</time>
      </trkpt>
      <trkpt lat="47.667892" lon="2.163251">
        <ele>150.0</ele>
        <time>2022-02-17T08:40:22Z</time>
      </trkpt>
      <trkpt lat="47.667904" lon="2.1632533">
        <ele>150.0</ele>
        <time>2022-02-17T08:40:23Z</time>
      </trkpt>
      <trkpt lat="47.667904" lon="2.1632533">
        <ele>150.0</ele>
        <time>2022-02-17T08:40:24Z</time>
      </trkpt>
      <trkpt lat="47.667904" lon="2.1632533">
        <ele>150.0</ele>
        <time>2022-02-17T08:40:25Z</time>
      </trkpt>
      <trkpt lat="47.66794" lon="2.1632566">
        <ele>150.0</ele>
        <time>2022-02-17T08:40:26Z</time>
      </trkpt>
      <trkpt lat="47.66795" lon="2.1632586">
        <ele>150.0</ele>
        <time>2022-02-17T08:40:27Z</time>
      </trkpt>
      <trkpt lat="47.66796" lon="2.1632617">
        <ele>150.0</ele>
        <time>2022-02-17T08:40:28Z</time>
      </trkpt>
      <trkpt lat="47.667976" lon="2.163262">
        <ele>150.0</ele>
        <time>2022-02-17T08:40:29Z</time>
      </trkpt>
      <trkpt lat="47.667976" lon="2.163262">
        <ele>150.0</ele>
        <time>2022-02-17T08:40:30Z</time>
      </trkpt>
      <trkpt lat="47.667976" lon="2.163262">
        <ele>150.0</ele>
        <time>2022-02-17T08:40:31Z</time>
      </trkpt>
      <trkpt lat="47.66801" lon="2.1632638">
        <ele>151.0</ele>
        <time>2022-02-17T08:40:32Z</time>
      </trkpt>
      <trkpt lat="47.668022" lon="2.163263">
        <ele>151.0</ele>
        <time>2022-02-17T08:40:33Z</time>
      </trkpt>
      <trkpt lat="47.668034" lon="2.1632628">
        <ele>152.0</ele>
        <time>2022-02-17T08:40:34Z</time>
      </trkpt>
      <trkpt lat="47.668045" lon="2.1632602">
        <ele>151.0</ele>
        <time>2022-02-17T08:40:35Z</time>
      </trkpt>
      <trkpt lat="47.668056" lon="2.163253">
        <ele>151.0</ele>
        <time>2022-02-17T08:40:36Z</time>
      </trkpt>
      <trkpt lat="47.668056" lon="2.163253">
        <ele>151.0</ele>
        <time>2022-02-17T08:40:37Z</time>
      </trkpt>
      <trkpt lat="47.668056" lon="2.163253">
        <ele>151.0</ele>
        <time>2022-02-17T08:40:38Z</time>
      </trkpt>
      <trkpt lat="47.66809" lon="2.16324">
        <ele>150.0</ele>
        <time>2022-02-17T08:40:39Z</time>
      </trkpt>
      <trkpt lat="47.668102" lon="2.1632392">
        <ele>150.0</ele>
        <time>2022-02-17T08:40:40Z</time>
      </trkpt>
      <trkpt lat="47.668114" lon="2.1632388">
        <ele>150.0</ele>
        <time>2022-02-17T08:40:41Z</time>
      </trkpt>
      <trkpt lat="47.668133" lon="2.1632385">
        <ele>150.0</ele>
        <time>2022-02-17T08:40:42Z</time>
      </trkpt>
      <trkpt lat="47.668144" lon="2.1632338">
        <ele>150.0</ele>
        <time>2022-02-17T08:40:43Z</time>
      </trkpt>
      <trkpt lat="47.66816" lon="2.1632302">
        <ele>150.0</ele>
        <time>2022-02-17T08:40:44Z</time>
      </trkpt>
      <trkpt lat="47.668175" lon="2.1632314">
        <ele>150.0</ele>
        <time>2022-02-17T08:40:45Z</time>
      </trkpt>
      <trkpt lat="47.66819" lon="2.1632228">
        <ele>150.0</ele>
        <time>2022-02-17T08:40:46Z</time>
      </trkpt>
      <trkpt lat="47.6682" lon="2.1632195">
        <ele>150.0</ele>
        <time>2022-02-17T08:40:47Z</time>
      </trkpt>
      <trkpt lat="47.6682" lon="2.1632195">
        <ele>150.0</ele>
        <time>2022-02-17T08:40:48Z</time>
      </trkpt>
      <trkpt lat="47.668224" lon="2.1632125">
        <ele>150.0</ele>
        <time>2022-02-17T08:40:49Z</time>
      </trkpt>
      <trkpt lat="47.66824" lon="2.1632097">
        <ele>150.0</ele>
        <time>2022-02-17T08:40:50Z</time>
      </trkpt>
      <trkpt lat="47.668255" lon="2.1632109">
        <ele>150.0</ele>
        <time>2022-02-17T08:40:51Z</time>
      </trkpt>
      <trkpt lat="47.668266" lon="2.1632104">
        <ele>149.0</ele>
        <time>2022-02-17T08:40:52Z</time>
      </trkpt>
      <trkpt lat="47.66828" lon="2.163218">
        <ele>149.0</ele>
        <time>2022-02-17T08:40:53Z</time>
      </trkpt>
      <trkpt lat="47.66828" lon="2.1632173">
        <ele>149.0</ele>
        <time>2022-02-17T08:40:54Z</time>
      </trkpt>
      <trkpt lat="47.668293" lon="2.1632135">
        <ele>150.0</ele>
        <time>2022-02-17T08:40:55Z</time>
      </trkpt>
      <trkpt lat="47.668304" lon="2.163217">
        <ele>150.0</ele>
        <time>2022-02-17T08:40:56Z</time>
      </trkpt>
      <trkpt lat="47.668316" lon="2.163216">
        <ele>149.0</ele>
        <time>2022-02-17T08:40:57Z</time>
      </trkpt>
      <trkpt lat="47.668327" lon="2.1632159">
        <ele>149.0</ele>
        <time>2022-02-17T08:40:58Z</time>
      </trkpt>
      <trkpt lat="47.668343" lon="2.1632128">
        <ele>149.0</ele>
        <time>2022-02-17T08:40:59Z</time>
      </trkpt>
      <trkpt lat="47.668343" lon="2.1632128">
        <ele>149.0</ele>
        <time>2022-02-17T08:41:00Z</time>
      </trkpt>
      <trkpt lat="47.668343" lon="2.1632128">
        <ele>149.0</ele>
        <time>2022-02-17T08:41:01Z</time>
      </trkpt>
      <trkpt lat="47.668373" lon="2.1632128">
        <ele>149.0</ele>
        <time>2022-02-17T08:41:02Z</time>
      </trkpt>
      <trkpt lat="47.668385" lon="2.1632092">
        <ele>149.0</ele>
        <time>2022-02-17T08:41:03Z</time>
      </trkpt>
      <trkpt lat="47.668396" lon="2.1632075">
        <ele>149.0</ele>
        <time>2022-02-17T08:41:04Z</time>
      </trkpt>
      <trkpt lat="47.66842" lon="2.1632075">
        <ele>150.0</ele>
        <time>2022-02-17T08:41:05Z</time>
      </trkpt>
      <trkpt lat="47.66842" lon="2.1632075">
        <ele>150.0</ele>
        <time>2022-02-17T08:41:06Z</time>
      </trkpt>
      <trkpt lat="47.66842" lon="2.1632075">
        <ele>150.0</ele>
        <time>2022-02-17T08:41:07Z</time>
      </trkpt>
      <trkpt lat="47.66845" lon="2.1632028">
        <ele>149.0</ele>
        <time>2022-02-17T08:41:08Z</time>
      </trkpt>
      <trkpt lat="47.66846" lon="2.1632013">
        <ele>149.0</ele>
        <time>2022-02-17T08:41:09Z</time>
      </trkpt>
      <trkpt lat="47.668472" lon="2.1631987">
        <ele>149.0</ele>
        <time>2022-02-17T08:41:10Z</time>
      </trkpt>
      <trkpt lat="47.668484" lon="2.163199">
        <ele>149.0</ele>
        <time>2022-02-17T08:41:11Z</time>
      </trkpt>
      <trkpt lat="47.668484" lon="2.163199">
        <ele>149.0</ele>
        <time>2022-02-17T08:41:12Z</time>
      </trkpt>
      <trkpt lat="47.668484" lon="2.163199">
        <ele>149.0</ele>
        <time>2022-02-17T08:41:13Z</time>
      </trkpt>
      <trkpt lat="47.66851" lon="2.1631954">
        <ele>148.0</ele>
        <time>2022-02-17T08:41:14Z</time>
      </trkpt>
      <trkpt lat="47.66852" lon="2.1631963">
        <ele>147.0</ele>
        <time>2022-02-17T08:41:15Z</time>
      </trkpt>
      <trkpt lat="47.668533" lon="2.163204">
        <ele>147.0</ele>
        <time>2022-02-17T08:41:16Z</time>
      </trkpt>
      <trkpt lat="47.668545" lon="2.1632001">
        <ele>147.0</ele>
        <time>2022-02-17T08:41:17Z</time>
      </trkpt>
      <trkpt lat="47.66856" lon="2.163195">
        <ele>147.0</ele>
        <time>2022-02-17T08:41:18Z</time>
      </trkpt>
      <trkpt lat="47.66857" lon="2.1631944">
        <ele>147.0</ele>
        <time>2022-02-17T08:41:19Z</time>
      </trkpt>
      <trkpt lat="47.668583" lon="2.1631932">
        <ele>147.0</ele>
        <time>2022-02-17T08:41:20Z</time>
      </trkpt>
      <trkpt lat="47.668594" lon="2.1631896">
        <ele>147.0</ele>
        <time>2022-02-17T08:41:21Z</time>
      </trkpt>
      <trkpt lat="47.668594" lon="2.1631896">
        <ele>147.0</ele>
        <time>2022-02-17T08:41:22Z</time>
      </trkpt>
      <trkpt lat="47.668594" lon="2.1631896">
        <ele>147.0</ele>
        <time>2022-02-17T08:41:23Z</time>
      </trkpt>
      <trkpt lat="47.66863" lon="2.1631794">
        <ele>148.0</ele>
        <time>2022-02-17T08:41:24Z</time>
      </trkpt>
      <trkpt lat="47.668636" lon="2.163177">
        <ele>148.0</ele>
        <time>2022-02-17T08:41:25Z</time>
      </trkpt>
      <trkpt lat="47.66865" lon="2.1631706">
        <ele>148.0</ele>
        <time>2022-02-17T08:41:26Z</time>
      </trkpt>
      <trkpt lat="47.66866" lon="2.1631696">
        <ele>148.0</ele>
        <time>2022-02-17T08:41:27Z</time>
      </trkpt>
      <trkpt lat="47.668667" lon="2.163172">
        <ele>148.0</ele>
        <time>2022-02-17T08:41:28Z</time>
      </trkpt>
      <trkpt lat="47.668682" lon="2.1631699">
        <ele>148.0</ele>
        <time>2022-02-17T08:41:29Z</time>
      </trkpt>
      <trkpt lat="47.6687" lon="2.1631746">
        <ele>148.0</ele>
        <time>2022-02-17T08:41:30Z</time>
      </trkpt>
      <trkpt lat="47.668716" lon="2.1631742">
        <ele>148.0</ele>
        <time>2022-02-17T08:41:31Z</time>
      </trkpt>
      <trkpt lat="47.668736" lon="2.1631734">
        <ele>148.0</ele>
        <time>2022-02-17T08:41:32Z</time>
      </trkpt>
      <trkpt lat="47.668747" lon="2.1631694">
        <ele>148.0</ele>
        <time>2022-02-17T08:41:33Z</time>
      </trkpt>
      <trkpt lat="47.668766" lon="2.1631634">
        <ele>148.0</ele>
        <time>2022-02-17T08:41:34Z</time>
      </trkpt>
      <trkpt lat="47.668777" lon="2.1631591">
        <ele>148.0</ele>
        <time>2022-02-17T08:41:35Z</time>
      </trkpt>
      <trkpt lat="47.668793" lon="2.1631577">
        <ele>148.0</ele>
        <time>2022-02-17T08:41:36Z</time>
      </trkpt>
      <trkpt lat="47.668804" lon="2.1631603">
        <ele>148.0</ele>
        <time>2022-02-17T08:41:37Z</time>
      </trkpt>
      <trkpt lat="47.668816" lon="2.1631594">
        <ele>148.0</ele>
        <time>2022-02-17T08:41:38Z</time>
      </trkpt>
      <trkpt lat="47.668827" lon="2.1631577">
        <ele>148.0</ele>
        <time>2022-02-17T08:41:39Z</time>
      </trkpt>
      <trkpt lat="47.66884" lon="2.1631584">
        <ele>148.0</ele>
        <time>2022-02-17T08:41:40Z</time>
      </trkpt>
      <trkpt lat="47.66885" lon="2.1631544">
        <ele>148.0</ele>
        <time>2022-02-17T08:41:41Z</time>
      </trkpt>
      <trkpt lat="47.66885" lon="2.1631544">
        <ele>148.0</ele>
        <time>2022-02-17T08:41:42Z</time>
      </trkpt>
      <trkpt lat="47.66885" lon="2.1631544">
        <ele>148.0</ele>
        <time>2022-02-17T08:41:43Z</time>
      </trkpt>
      <trkpt lat="47.66888" lon="2.1631477">
        <ele>148.0</ele>
        <time>2022-02-17T08:41:44Z</time>
      </trkpt>
      <trkpt lat="47.66889" lon="2.163142">
        <ele>148.0</ele>
        <time>2022-02-17T08:41:45Z</time>
      </trkpt>
      <trkpt lat="47.6689" lon="2.1631365">
        <ele>147.0</ele>
        <time>2022-02-17T08:41:46Z</time>
      </trkpt>
      <trkpt lat="47.668915" lon="2.1631346">
        <ele>148.0</ele>
        <time>2022-02-17T08:41:47Z</time>
      </trkpt>
      <trkpt lat="47.668915" lon="2.1631346">
        <ele>148.0</ele>
        <time>2022-02-17T08:41:48Z</time>
      </trkpt>
      <trkpt lat="47.668915" lon="2.1631346">
        <ele>148.0</ele>
        <time>2022-02-17T08:41:49Z</time>
      </trkpt>
      <trkpt lat="47.66894" lon="2.1631255">
        <ele>148.0</ele>
        <time>2022-02-17T08:41:50Z</time>
      </trkpt>
      <trkpt lat="47.668953" lon="2.1631281">
        <ele>147.0</ele>
        <time>2022-02-17T08:41:51Z</time>
      </trkpt>
      <trkpt lat="47.668964" lon="2.1631317">
        <ele>146.0</ele>
        <time>2022-02-17T08:41:52Z</time>
      </trkpt>
      <trkpt lat="47.668976" lon="2.1631308">
        <ele>146.0</ele>
        <time>2022-02-17T08:41:53Z</time>
      </trkpt>
      <trkpt lat="47.668976" lon="2.1631308">
        <ele>146.0</ele>
        <time>2022-02-17T08:41:54Z</time>
      </trkpt>
      <trkpt lat="47.668976" lon="2.1631308">
        <ele>146.0</ele>
        <time>2022-02-17T08:41:55Z</time>
      </trkpt>
      <trkpt lat="47.669003" lon="2.1631334">
        <ele>145.0</ele>
        <time>2022-02-17T08:41:56Z</time>
      </trkpt>
      <trkpt lat="47.66901" lon="2.1631286">
        <ele>145.0</ele>
        <time>2022-02-17T08:41:57Z</time>
      </trkpt>
      <trkpt lat="47.669025" lon="2.1631205">
        <ele>145.0</ele>
        <time>2022-02-17T08:41:58Z</time>
      </trkpt>
      <trkpt lat="47.669037" lon="2.1631165">
        <ele>144.0</ele>
        <time>2022-02-17T08:41:59Z</time>
      </trkpt>
      <trkpt lat="47.669037" lon="2.1631165">
        <ele>144.0</ele>
        <time>2022-02-17T08:42:00Z</time>
      </trkpt>
      <trkpt lat="47.669037" lon="2.1631165">
        <ele>144.0</ele>
        <time>2022-02-17T08:42:01Z</time>
      </trkpt>
      <trkpt lat="47.669064" lon="2.1631238">
        <ele>143.0</ele>
        <time>2022-02-17T08:42:02Z</time>
      </trkpt>
      <trkpt lat="47.66907" lon="2.1631231">
        <ele>142.0</ele>
        <time>2022-02-17T08:42:03Z</time>
      </trkpt>
      <trkpt lat="47.669083" lon="2.1631236">
        <ele>142.0</ele>
        <time>2022-02-17T08:42:04Z</time>
      </trkpt>
      <trkpt lat="47.66909" lon="2.1631205">
        <ele>142.0</ele>
        <time>2022-02-17T08:42:05Z</time>
      </trkpt>
      <trkpt lat="47.66909" lon="2.1631205">
        <ele>142.0</ele>
        <time>2022-02-17T08:42:06Z</time>
      </trkpt>
      <trkpt lat="47.66909" lon="2.1631205">
        <ele>142.0</ele>
        <time>2022-02-17T08:42:07Z</time>
      </trkpt>
      <trkpt lat="47.669113" lon="2.1631072">
        <ele>143.0</ele>
        <time>2022-02-17T08:42:08Z</time>
      </trkpt>
      <trkpt lat="47.669125" lon="2.1631024">
        <ele>143.0</ele>
        <time>2022-02-17T08:42:09Z</time>
      </trkpt>
      <trkpt lat="47.669136" lon="2.1630962">
        <ele>143.0</ele>
        <time>2022-02-17T08:42:10Z</time>
      </trkpt>
      <trkpt lat="47.669147" lon="2.163092">
        <ele>142.0</ele>
        <time>2022-02-17T08:42:11Z</time>
      </trkpt>
      <trkpt lat="47.669163" lon="2.1630878">
        <ele>142.0</ele>
        <time>2022-02-17T08:42:12Z</time>
      </trkpt>
      <trkpt lat="47.669178" lon="2.163085">
        <ele>142.0</ele>
        <time>2022-02-17T08:42:13Z</time>
      </trkpt>
      <trkpt lat="47.66919" lon="2.1630864">
        <ele>142.0</ele>
        <time>2022-02-17T08:42:14Z</time>
      </trkpt>
      <trkpt lat="47.669197" lon="2.1630852">
        <ele>142.0</ele>
        <time>2022-02-17T08:42:15Z</time>
      </trkpt>
      <trkpt lat="47.66921" lon="2.1630871">
        <ele>143.0</ele>
        <time>2022-02-17T08:42:16Z</time>
      </trkpt>
      <trkpt lat="47.66922" lon="2.1630876">
        <ele>143.0</ele>
        <time>2022-02-17T08:42:17Z</time>
      </trkpt>
      <trkpt lat="47.66923" lon="2.1630857">
        <ele>143.0</ele>
        <time>2022-02-17T08:42:18Z</time>
      </trkpt>
      <trkpt lat="47.669243" lon="2.1630838">
        <ele>143.0</ele>
        <time>2022-02-17T08:42:19Z</time>
      </trkpt>
      <trkpt lat="47.669254" lon="2.163083">
        <ele>143.0</ele>
        <time>2022-02-17T08:42:20Z</time>
      </trkpt>
      <trkpt lat="47.669266" lon="2.1630816">
        <ele>143.0</ele>
        <time>2022-02-17T08:42:21Z</time>
      </trkpt>
      <trkpt lat="47.669266" lon="2.1630816">
        <ele>143.0</ele>
        <time>2022-02-17T08:42:22Z</time>
      </trkpt>
      <trkpt lat="47.669266" lon="2.1630816">
        <ele>143.0</ele>
        <time>2022-02-17T08:42:23Z</time>
      </trkpt>
      <trkpt lat="47.669292" lon="2.163087">
        <ele>145.0</ele>
        <time>2022-02-17T08:42:24Z</time>
      </trkpt>
      <trkpt lat="47.669304" lon="2.163081">
        <ele>145.0</ele>
        <time>2022-02-17T08:42:25Z</time>
      </trkpt>
      <trkpt lat="47.669315" lon="2.163078">
        <ele>145.0</ele>
        <time>2022-02-17T08:42:26Z</time>
      </trkpt>
      <trkpt lat="47.66933" lon="2.163071">
        <ele>146.0</ele>
        <time>2022-02-17T08:42:27Z</time>
      </trkpt>
      <trkpt lat="47.669346" lon="2.1630666">
        <ele>146.0</ele>
        <time>2022-02-17T08:42:28Z</time>
      </trkpt>
      <trkpt lat="47.669365" lon="2.1630664">
        <ele>146.0</ele>
        <time>2022-02-17T08:42:29Z</time>
      </trkpt>
      <trkpt lat="47.669384" lon="2.1630638">
        <ele>146.0</ele>
        <time>2022-02-17T08:42:30Z</time>
      </trkpt>
      <trkpt lat="47.669403" lon="2.1630626">
        <ele>146.0</ele>
        <time>2022-02-17T08:42:31Z</time>
      </trkpt>
      <trkpt lat="47.66942" lon="2.163064">
        <ele>146.0</ele>
        <time>2022-02-17T08:42:32Z</time>
      </trkpt>
      <trkpt lat="47.669434" lon="2.1630619">
        <ele>147.0</ele>
        <time>2022-02-17T08:42:33Z</time>
      </trkpt>
      <trkpt lat="47.66944" lon="2.163057">
        <ele>146.0</ele>
        <time>2022-02-17T08:42:34Z</time>
      </trkpt>
      <trkpt lat="47.669453" lon="2.1630518">
        <ele>145.0</ele>
        <time>2022-02-17T08:42:35Z</time>
      </trkpt>
      <trkpt lat="47.669453" lon="2.1630518">
        <ele>145.0</ele>
        <time>2022-02-17T08:42:36Z</time>
      </trkpt>
      <trkpt lat="47.669453" lon="2.1630518">
        <ele>145.0</ele>
        <time>2022-02-17T08:42:37Z</time>
      </trkpt>
      <trkpt lat="47.66949" lon="2.1630566">
        <ele>146.0</ele>
        <time>2022-02-17T08:42:38Z</time>
      </trkpt>
      <trkpt lat="47.669506" lon="2.1630557">
        <ele>145.0</ele>
        <time>2022-02-17T08:42:39Z</time>
      </trkpt>
      <trkpt lat="47.669518" lon="2.1630547">
        <ele>146.0</ele>
        <time>2022-02-17T08:42:40Z</time>
      </trkpt>
      <trkpt lat="47.66953" lon="2.1630542">
        <ele>145.0</ele>
        <time>2022-02-17T08:42:41Z</time>
      </trkpt>
      <trkpt lat="47.669537" lon="2.1630514">
        <ele>145.0</ele>
        <time>2022-02-17T08:42:42Z</time>
      </trkpt>
      <trkpt lat="47.669537" lon="2.1630514">
        <ele>145.0</ele>
        <time>2022-02-17T08:42:43Z</time>
      </trkpt>
      <trkpt lat="47.669537" lon="2.1630514">
        <ele>145.0</ele>
        <time>2022-02-17T08:42:44Z</time>
      </trkpt>
      <trkpt lat="47.669563" lon="2.1630504">
        <ele>144.0</ele>
        <time>2022-02-17T08:42:45Z</time>
      </trkpt>
      <trkpt lat="47.669575" lon="2.1630523">
        <ele>144.0</ele>
        <time>2022-02-17T08:42:46Z</time>
      </trkpt>
      <trkpt lat="47.669582" lon="2.1630507">
        <ele>145.0</ele>
        <time>2022-02-17T08:42:47Z</time>
      </trkpt>
      <trkpt lat="47.669594" lon="2.1630526">
        <ele>145.0</ele>
        <time>2022-02-17T08:42:48Z</time>
      </trkpt>
      <trkpt lat="47.669594" lon="2.1630526">
        <ele>145.0</ele>
        <time>2022-02-17T08:42:49Z</time>
      </trkpt>
      <trkpt lat="47.669594" lon="2.1630526">
        <ele>145.0</ele>
        <time>2022-02-17T08:42:50Z</time>
      </trkpt>
      <trkpt lat="47.66962" lon="2.1630466">
        <ele>144.0</ele>
        <time>2022-02-17T08:42:51Z</time>
      </trkpt>
      <trkpt lat="47.66963" lon="2.1630409">
        <ele>144.0</ele>
        <time>2022-02-17T08:42:52Z</time>
      </trkpt>
      <trkpt lat="47.669636" lon="2.1630378">
        <ele>144.0</ele>
        <time>2022-02-17T08:42:53Z</time>
      </trkpt>
      <trkpt lat="47.669647" lon="2.1630366">
        <ele>144.0</ele>
        <time>2022-02-17T08:42:54Z</time>
      </trkpt>
      <trkpt lat="47.669647" lon="2.1630366">
        <ele>144.0</ele>
        <time>2022-02-17T08:42:55Z</time>
      </trkpt>
      <trkpt lat="47.669647" lon="2.1630366">
        <ele>144.0</ele>
        <time>2022-02-17T08:42:56Z</time>
      </trkpt>
      <trkpt lat="47.669678" lon="2.1630344">
        <ele>144.0</ele>
        <time>2022-02-17T08:42:57Z</time>
      </trkpt>
      <trkpt lat="47.66969" lon="2.1630373">
        <ele>144.0</ele>
        <time>2022-02-17T08:42:58Z</time>
      </trkpt>
      <trkpt lat="47.669704" lon="2.163036">
        <ele>144.0</ele>
        <time>2022-02-17T08:42:59Z</time>
      </trkpt>
      <trkpt lat="47.669716" lon="2.1630342">
        <ele>144.0</ele>
        <time>2022-02-17T08:43:00Z</time>
      </trkpt>
      <trkpt lat="47.669727" lon="2.1630323">
        <ele>144.0</ele>
        <time>2022-02-17T08:43:01Z</time>
      </trkpt>
      <trkpt lat="47.66974" lon="2.163036">
        <ele>144.0</ele>
        <time>2022-02-17T08:43:02Z</time>
      </trkpt>
      <trkpt lat="47.669754" lon="2.163037">
        <ele>144.0</ele>
        <time>2022-02-17T08:43:03Z</time>
      </trkpt>
      <trkpt lat="47.66977" lon="2.1630368">
        <ele>144.0</ele>
        <time>2022-02-17T08:43:04Z</time>
      </trkpt>
      <trkpt lat="47.669785" lon="2.163036">
        <ele>144.0</ele>
        <time>2022-02-17T08:43:05Z</time>
      </trkpt>
      <trkpt lat="47.669804" lon="2.16304">
        <ele>143.0</ele>
        <time>2022-02-17T08:43:06Z</time>
      </trkpt>
      <trkpt lat="47.66982" lon="2.163045">
        <ele>143.0</ele>
        <time>2022-02-17T08:43:07Z</time>
      </trkpt>
      <trkpt lat="47.669838" lon="2.1630468">
        <ele>143.0</ele>
        <time>2022-02-17T08:43:08Z</time>
      </trkpt>
      <trkpt lat="47.66985" lon="2.1630442">
        <ele>143.0</ele>
        <time>2022-02-17T08:43:09Z</time>
      </trkpt>
      <trkpt lat="47.66986" lon="2.163041">
        <ele>143.0</ele>
        <time>2022-02-17T08:43:10Z</time>
      </trkpt>
      <trkpt lat="47.669872" lon="2.163037">
        <ele>143.0</ele>
        <time>2022-02-17T08:43:11Z</time>
      </trkpt>
      <trkpt lat="47.669888" lon="2.1630385">
        <ele>143.0</ele>
        <time>2022-02-17T08:43:12Z</time>
      </trkpt>
      <trkpt lat="47.6699" lon="2.1630368">
        <ele>143.0</ele>
        <time>2022-02-17T08:43:13Z</time>
      </trkpt>
      <trkpt lat="47.6699" lon="2.1630368">
        <ele>143.0</ele>
        <time>2022-02-17T08:43:14Z</time>
      </trkpt>
      <trkpt lat="47.6699" lon="2.1630368">
        <ele>143.0</ele>
        <time>2022-02-17T08:43:15Z</time>
      </trkpt>
      <trkpt lat="47.66992" lon="2.163035">
        <ele>143.0</ele>
        <time>2022-02-17T08:43:16Z</time>
      </trkpt>
      <trkpt lat="47.66993" lon="2.1630392">
        <ele>143.0</ele>
        <time>2022-02-17T08:43:17Z</time>
      </trkpt>
      <trkpt lat="47.66994" lon="2.1630392">
        <ele>142.0</ele>
        <time>2022-02-17T08:43:18Z</time>
      </trkpt>
      <trkpt lat="47.669952" lon="2.163042">
        <ele>142.0</ele>
        <time>2022-02-17T08:43:19Z</time>
      </trkpt>
      <trkpt lat="47.669952" lon="2.163042">
        <ele>142.0</ele>
        <time>2022-02-17T08:43:20Z</time>
      </trkpt>
      <trkpt lat="47.669952" lon="2.163042">
        <ele>142.0</ele>
        <time>2022-02-17T08:43:21Z</time>
      </trkpt>
      <trkpt lat="47.669975" lon="2.1630435">
        <ele>141.0</ele>
        <time>2022-02-17T08:43:22Z</time>
      </trkpt>
      <trkpt lat="47.669983" lon="2.1630442">
        <ele>141.0</ele>
        <time>2022-02-17T08:43:23Z</time>
      </trkpt>
      <trkpt lat="47.669994" lon="2.1630423">
        <ele>140.0</ele>
        <time>2022-02-17T08:43:24Z</time>
      </trkpt>
      <trkpt lat="47.670006" lon="2.1630394">
        <ele>140.0</ele>
        <time>2022-02-17T08:43:25Z</time>
      </trkpt>
      <trkpt lat="47.670006" lon="2.1630394">
        <ele>140.0</ele>
        <time>2022-02-17T08:43:26Z</time>
      </trkpt>
      <trkpt lat="47.670006" lon="2.1630394">
        <ele>140.0</ele>
        <time>2022-02-17T08:43:27Z</time>
      </trkpt>
      <trkpt lat="47.670044" lon="2.1630292">
        <ele>139.0</ele>
        <time>2022-02-17T08:43:28Z</time>
      </trkpt>
      <trkpt lat="47.670055" lon="2.1630268">
        <ele>139.0</ele>
        <time>2022-02-17T08:43:29Z</time>
      </trkpt>
      <trkpt lat="47.670067" lon="2.1630218">
        <ele>139.0</ele>
        <time>2022-02-17T08:43:30Z</time>
      </trkpt>
      <trkpt lat="47.67008" lon="2.1630201">
        <ele>139.0</ele>
        <time>2022-02-17T08:43:31Z</time>
      </trkpt>
      <trkpt lat="47.67008" lon="2.1630201">
        <ele>139.0</ele>
        <time>2022-02-17T08:43:32Z</time>
      </trkpt>
      <trkpt lat="47.67008" lon="2.1630201">
        <ele>139.0</ele>
        <time>2022-02-17T08:43:33Z</time>
      </trkpt>
      <trkpt lat="47.670113" lon="2.1630177">
        <ele>139.0</ele>
        <time>2022-02-17T08:43:34Z</time>
      </trkpt>
      <trkpt lat="47.670128" lon="2.163015">
        <ele>138.0</ele>
        <time>2022-02-17T08:43:35Z</time>
      </trkpt>
      <trkpt lat="47.670143" lon="2.1630135">
        <ele>138.0</ele>
        <time>2022-02-17T08:43:36Z</time>
      </trkpt>
      <trkpt lat="47.670162" lon="2.163016">
        <ele>137.0</ele>
        <time>2022-02-17T08:43:37Z</time>
      </trkpt>
      <trkpt lat="47.670177" lon="2.1630168">
        <ele>136.0</ele>
        <time>2022-02-17T08:43:38Z</time>
      </trkpt>
      <trkpt lat="47.67019" lon="2.1630147">
        <ele>136.0</ele>
        <time>2022-02-17T08:43:39Z</time>
      </trkpt>
      <trkpt lat="47.670204" lon="2.1630113">
        <ele>136.0</ele>
        <time>2022-02-17T08:43:40Z</time>
      </trkpt>
      <trkpt lat="47.670223" lon="2.1630113">
        <ele>136.0</ele>
        <time>2022-02-17T08:43:41Z</time>
      </trkpt>
      <trkpt lat="47.67024" lon="2.1630037">
        <ele>136.0</ele>
        <time>2022-02-17T08:43:42Z</time>
      </trkpt>
      <trkpt lat="47.670258" lon="2.1629999">
        <ele>136.0</ele>
        <time>2022-02-17T08:43:43Z</time>
      </trkpt>
      <trkpt lat="47.670273" lon="2.1629937">
        <ele>137.0</ele>
        <time>2022-02-17T08:43:44Z</time>
      </trkpt>
      <trkpt lat="47.670288" lon="2.162989">
        <ele>137.0</ele>
        <time>2022-02-17T08:43:45Z</time>
      </trkpt>
      <trkpt lat="47.6703" lon="2.1629858">
        <ele>138.0</ele>
        <time>2022-02-17T08:43:46Z</time>
      </trkpt>
      <trkpt lat="47.67031" lon="2.1629887">
        <ele>138.0</ele>
        <time>2022-02-17T08:43:47Z</time>
      </trkpt>
      <trkpt lat="47.670322" lon="2.1629899">
        <ele>138.0</ele>
        <time>2022-02-17T08:43:48Z</time>
      </trkpt>
      <trkpt lat="47.670322" lon="2.1629899">
        <ele>138.0</ele>
        <time>2022-02-17T08:43:49Z</time>
      </trkpt>
      <trkpt lat="47.670322" lon="2.1629899">
        <ele>138.0</ele>
        <time>2022-02-17T08:43:50Z</time>
      </trkpt>
      <trkpt lat="47.670353" lon="2.1629837">
        <ele>139.0</ele>
        <time>2022-02-17T08:43:51Z</time>
      </trkpt>
      <trkpt lat="47.670364" lon="2.162979">
        <ele>139.0</ele>
        <time>2022-02-17T08:43:52Z</time>
      </trkpt>
      <trkpt lat="47.670376" lon="2.1629777">
        <ele>140.0</ele>
        <time>2022-02-17T08:43:53Z</time>
      </trkpt>
      <trkpt lat="47.67039" lon="2.162975">
        <ele>140.0</ele>
        <time>2022-02-17T08:43:54Z</time>
      </trkpt>
      <trkpt lat="47.670406" lon="2.1629794">
        <ele>140.0</ele>
        <time>2022-02-17T08:43:55Z</time>
      </trkpt>
      <trkpt lat="47.670418" lon="2.1629784">
        <ele>139.0</ele>
        <time>2022-02-17T08:43:56Z</time>
      </trkpt>
      <trkpt lat="47.67043" lon="2.162974">
        <ele>139.0</ele>
        <time>2022-02-17T08:43:57Z</time>
      </trkpt>
      <trkpt lat="47.670437" lon="2.1629722">
        <ele>139.0</ele>
        <time>2022-02-17T08:43:58Z</time>
      </trkpt>
      <trkpt lat="47.67045" lon="2.1629705">
        <ele>139.0</ele>
        <time>2022-02-17T08:43:59Z</time>
      </trkpt>
      <trkpt lat="47.67045" lon="2.1629705">
        <ele>139.0</ele>
        <time>2022-02-17T08:44:00Z</time>
      </trkpt>
      <trkpt lat="47.67045" lon="2.1629705">
        <ele>139.0</ele>
        <time>2022-02-17T08:44:01Z</time>
      </trkpt>
      <trkpt lat="47.670475" lon="2.1629627">
        <ele>139.0</ele>
        <time>2022-02-17T08:44:02Z</time>
      </trkpt>
      <trkpt lat="47.670486" lon="2.1629596">
        <ele>139.0</ele>
        <time>2022-02-17T08:44:03Z</time>
      </trkpt>
      <trkpt lat="47.6705" lon="2.1629605">
        <ele>139.0</ele>
        <time>2022-02-17T08:44:04Z</time>
      </trkpt>
      <trkpt lat="47.670517" lon="2.1629577">
        <ele>139.0</ele>
        <time>2022-02-17T08:44:05Z</time>
      </trkpt>
      <trkpt lat="47.670532" lon="2.1629546">
        <ele>140.0</ele>
        <time>2022-02-17T08:44:06Z</time>
      </trkpt>
      <trkpt lat="47.67055" lon="2.1629527">
        <ele>140.0</ele>
        <time>2022-02-17T08:44:07Z</time>
      </trkpt>
      <trkpt lat="47.670563" lon="2.162956">
        <ele>140.0</ele>
        <time>2022-02-17T08:44:08Z</time>
      </trkpt>
      <trkpt lat="47.670578" lon="2.1629584">
        <ele>140.0</ele>
        <time>2022-02-17T08:44:09Z</time>
      </trkpt>
      <trkpt lat="47.67059" lon="2.162959">
        <ele>140.0</ele>
        <time>2022-02-17T08:44:10Z</time>
      </trkpt>
      <trkpt lat="47.670605" lon="2.1629586">
        <ele>140.0</ele>
        <time>2022-02-17T08:44:11Z</time>
      </trkpt>
      <trkpt lat="47.670605" lon="2.1629586">
        <ele>140.0</ele>
        <time>2022-02-17T08:44:12Z</time>
      </trkpt>
      <trkpt lat="47.670605" lon="2.1629586">
        <ele>140.0</ele>
        <time>2022-02-17T08:44:13Z</time>
      </trkpt>
      <trkpt lat="47.670635" lon="2.1629589">
        <ele>141.0</ele>
        <time>2022-02-17T08:44:14Z</time>
      </trkpt>
      <trkpt lat="47.670647" lon="2.1629548">
        <ele>141.0</ele>
        <time>2022-02-17T08:44:15Z</time>
      </trkpt>
      <trkpt lat="47.67066" lon="2.1629543">
        <ele>141.0</ele>
        <time>2022-02-17T08:44:16Z</time>
      </trkpt>
      <trkpt lat="47.670666" lon="2.1629539">
        <ele>142.0</ele>
        <time>2022-02-17T08:44:17Z</time>
      </trkpt>
      <trkpt lat="47.670666" lon="2.1629539">
        <ele>142.0</ele>
        <time>2022-02-17T08:44:18Z</time>
      </trkpt>
      <trkpt lat="47.670666" lon="2.1629539">
        <ele>142.0</ele>
        <time>2022-02-17T08:44:19Z</time>
      </trkpt>
      <trkpt lat="47.6707" lon="2.1629555">
        <ele>142.0</ele>
        <time>2022-02-17T08:44:20Z</time>
      </trkpt>
      <trkpt lat="47.670708" lon="2.1629565">
        <ele>142.0</ele>
        <time>2022-02-17T08:44:21Z</time>
      </trkpt>
      <trkpt lat="47.67072" lon="2.1629581">
        <ele>142.0</ele>
        <time>2022-02-17T08:44:22Z</time>
      </trkpt>
      <trkpt lat="47.670727" lon="2.1629572">
        <ele>143.0</ele>
        <time>2022-02-17T08:44:23Z</time>
      </trkpt>
      <trkpt lat="47.670727" lon="2.1629572">
        <ele>143.0</ele>
        <time>2022-02-17T08:44:24Z</time>
      </trkpt>
      <trkpt lat="47.670727" lon="2.1629572">
        <ele>143.0</ele>
        <time>2022-02-17T08:44:25Z</time>
      </trkpt>
      <trkpt lat="47.67077" lon="2.1629546">
        <ele>144.0</ele>
        <time>2022-02-17T08:44:26Z</time>
      </trkpt>
      <trkpt lat="47.670784" lon="2.1629517">
        <ele>144.0</ele>
        <time>2022-02-17T08:44:27Z</time>
      </trkpt>
      <trkpt lat="47.6708" lon="2.1629436">
        <ele>144.0</ele>
        <time>2022-02-17T08:44:28Z</time>
      </trkpt>
      <trkpt lat="47.67082" lon="2.1629348">
        <ele>144.0</ele>
        <time>2022-02-17T08:44:29Z</time>
      </trkpt>
      <trkpt lat="47.67083" lon="2.1629283">
        <ele>144.0</ele>
        <time>2022-02-17T08:44:30Z</time>
      </trkpt>
      <trkpt lat="47.67084" lon="2.1629236">
        <ele>143.0</ele>
        <time>2022-02-17T08:44:31Z</time>
      </trkpt>
      <trkpt lat="47.670856" lon="2.1629186">
        <ele>143.0</ele>
        <time>2022-02-17T08:44:32Z</time>
      </trkpt>
      <trkpt lat="47.670856" lon="2.1629186">
        <ele>143.0</ele>
        <time>2022-02-17T08:44:33Z</time>
      </trkpt>
      <trkpt lat="47.670856" lon="2.1629186">
        <ele>143.0</ele>
        <time>2022-02-17T08:44:34Z</time>
      </trkpt>
      <trkpt lat="47.670883" lon="2.1629193">
        <ele>142.0</ele>
        <time>2022-02-17T08:44:35Z</time>
      </trkpt>
      <trkpt lat="47.670895" lon="2.1629176">
        <ele>142.0</ele>
        <time>2022-02-17T08:44:36Z</time>
      </trkpt>
      <trkpt lat="47.670902" lon="2.1629136">
        <ele>141.0</ele>
        <time>2022-02-17T08:44:37Z</time>
      </trkpt>
      <trkpt lat="47.670914" lon="2.162911">
        <ele>141.0</ele>
        <time>2022-02-17T08:44:38Z</time>
      </trkpt>
      <trkpt lat="47.670914" lon="2.162911">
        <ele>141.0</ele>
        <time>2022-02-17T08:44:39Z</time>
      </trkpt>
      <trkpt lat="47.670914" lon="2.162911">
        <ele>141.0</ele>
        <time>2022-02-17T08:44:40Z</time>
      </trkpt>
      <trkpt lat="47.670944" lon="2.1629095">
        <ele>141.0</ele>
        <time>2022-02-17T08:44:41Z</time>
      </trkpt>
      <trkpt lat="47.670956" lon="2.1629057">
        <ele>141.0</ele>
        <time>2022-02-17T08:44:42Z</time>
      </trkpt>
      <trkpt lat="47.670967" lon="2.1629033">
        <ele>141.0</ele>
        <time>2022-02-17T08:44:43Z</time>
      </trkpt>
      <trkpt lat="47.670982" lon="2.1629024">
        <ele>141.0</ele>
        <time>2022-02-17T08:44:44Z</time>
      </trkpt>
      <trkpt lat="47.670998" lon="2.1629007">
        <ele>141.0</ele>
        <time>2022-02-17T08:44:45Z</time>
      </trkpt>
      <trkpt lat="47.671017" lon="2.162906">
        <ele>141.0</ele>
        <time>2022-02-17T08:44:46Z</time>
      </trkpt>
      <trkpt lat="47.671024" lon="2.162911">
        <ele>141.0</ele>
        <time>2022-02-17T08:44:47Z</time>
      </trkpt>
      <trkpt lat="47.671024" lon="2.162911">
        <ele>141.0</ele>
        <time>2022-02-17T08:44:48Z</time>
      </trkpt>
      <trkpt lat="47.671024" lon="2.162911">
        <ele>141.0</ele>
        <time>2022-02-17T08:44:49Z</time>
      </trkpt>
      <trkpt lat="47.67105" lon="2.1629117">
        <ele>139.0</ele>
        <time>2022-02-17T08:44:50Z</time>
      </trkpt>
      <trkpt lat="47.671062" lon="2.1629128">
        <ele>139.0</ele>
        <time>2022-02-17T08:44:51Z</time>
      </trkpt>
      <trkpt lat="47.671078" lon="2.1629179">
        <ele>139.0</ele>
        <time>2022-02-17T08:44:52Z</time>
      </trkpt>
      <trkpt lat="47.67109" lon="2.1629212">
        <ele>139.0</ele>
        <time>2022-02-17T08:44:53Z</time>
      </trkpt>
      <trkpt lat="47.6711" lon="2.1629214">
        <ele>139.0</ele>
        <time>2022-02-17T08:44:54Z</time>
      </trkpt>
      <trkpt lat="47.6711" lon="2.1629214">
        <ele>139.0</ele>
        <time>2022-02-17T08:44:55Z</time>
      </trkpt>
      <trkpt lat="47.6711" lon="2.1629214">
        <ele>139.0</ele>
        <time>2022-02-17T08:44:56Z</time>
      </trkpt>
      <trkpt lat="47.67113" lon="2.1629252">
        <ele>139.0</ele>
        <time>2022-02-17T08:44:57Z</time>
      </trkpt>
      <trkpt lat="47.671146" lon="2.1629317">
        <ele>140.0</ele>
        <time>2022-02-17T08:44:58Z</time>
      </trkpt>
      <trkpt lat="47.671158" lon="2.1629357">
        <ele>139.0</ele>
        <time>2022-02-17T08:44:59Z</time>
      </trkpt>
      <trkpt lat="47.67117" lon="2.1629386">
        <ele>139.0</ele>
        <time>2022-02-17T08:45:00Z</time>
      </trkpt>
      <trkpt lat="47.671185" lon="2.1629343">
        <ele>140.0</ele>
        <time>2022-02-17T08:45:01Z</time>
      </trkpt>
      <trkpt lat="47.671185" lon="2.1629343">
        <ele>140.0</ele>
        <time>2022-02-17T08:45:02Z</time>
      </trkpt>
      <trkpt lat="47.671185" lon="2.1629343">
        <ele>140.0</ele>
        <time>2022-02-17T08:45:03Z</time>
      </trkpt>
      <trkpt lat="47.67122" lon="2.1629295">
        <ele>138.0</ele>
        <time>2022-02-17T08:45:04Z</time>
      </trkpt>
      <trkpt lat="47.671234" lon="2.1629267">
        <ele>137.0</ele>
        <time>2022-02-17T08:45:05Z</time>
      </trkpt>
      <trkpt lat="47.671253" lon="2.1629243">
        <ele>136.0</ele>
        <time>2022-02-17T08:45:06Z</time>
      </trkpt>
      <trkpt lat="47.67127" lon="2.162925">
        <ele>136.0</ele>
        <time>2022-02-17T08:45:07Z</time>
      </trkpt>
      <trkpt lat="47.67128" lon="2.1629245">
        <ele>136.0</ele>
        <time>2022-02-17T08:45:08Z</time>
      </trkpt>
      <trkpt lat="47.6713" lon="2.1629262">
        <ele>136.0</ele>
        <time>2022-02-17T08:45:09Z</time>
      </trkpt>
      <trkpt lat="47.67131" lon="2.1629238">
        <ele>136.0</ele>
        <time>2022-02-17T08:45:10Z</time>
      </trkpt>
      <trkpt lat="47.671326" lon="2.1629217">
        <ele>137.0</ele>
        <time>2022-02-17T08:45:11Z</time>
      </trkpt>
      <trkpt lat="47.671337" lon="2.1629171">
        <ele>137.0</ele>
        <time>2022-02-17T08:45:12Z</time>
      </trkpt>
      <trkpt lat="47.671337" lon="2.1629171">
        <ele>137.0</ele>
        <time>2022-02-17T08:45:13Z</time>
      </trkpt>
      <trkpt lat="47.671337" lon="2.1629171">
        <ele>137.0</ele>
        <time>2022-02-17T08:45:14Z</time>
      </trkpt>
      <trkpt lat="47.671368" lon="2.1629105">
        <ele>136.0</ele>
        <time>2022-02-17T08:45:15Z</time>
      </trkpt>
      <trkpt lat="47.671383" lon="2.162906">
        <ele>136.0</ele>
        <time>2022-02-17T08:45:16Z</time>
      </trkpt>
      <trkpt lat="47.6714" lon="2.1629086">
        <ele>136.0</ele>
        <time>2022-02-17T08:45:17Z</time>
      </trkpt>
      <trkpt lat="47.671406" lon="2.1629064">
        <ele>136.0</ele>
        <time>2022-02-17T08:45:18Z</time>
      </trkpt>
      <trkpt lat="47.671417" lon="2.1629078">
        <ele>136.0</ele>
        <time>2022-02-17T08:45:19Z</time>
      </trkpt>
      <trkpt lat="47.67143" lon="2.1629055">
        <ele>136.0</ele>
        <time>2022-02-17T08:45:20Z</time>
      </trkpt>
      <trkpt lat="47.671444" lon="2.1629052">
        <ele>136.0</ele>
        <time>2022-02-17T08:45:21Z</time>
      </trkpt>
      <trkpt lat="47.67146" lon="2.1629055">
        <ele>136.0</ele>
        <time>2022-02-17T08:45:22Z</time>
      </trkpt>
      <trkpt lat="47.67147" lon="2.1629007">
        <ele>137.0</ele>
        <time>2022-02-17T08:45:23Z</time>
      </trkpt>
      <trkpt lat="47.67149" lon="2.1629007">
        <ele>137.0</ele>
        <time>2022-02-17T08:45:24Z</time>
      </trkpt>
      <trkpt lat="47.6715" lon="2.1628985">
        <ele>137.0</ele>
        <time>2022-02-17T08:45:25Z</time>
      </trkpt>
      <trkpt lat="47.671516" lon="2.1628945">
        <ele>137.0</ele>
        <time>2022-02-17T08:45:26Z</time>
      </trkpt>
      <trkpt lat="47.67153" lon="2.1628926">
        <ele>138.0</ele>
        <time>2022-02-17T08:45:27Z</time>
      </trkpt>
      <trkpt lat="47.67154" lon="2.1628866">
        <ele>139.0</ele>
        <time>2022-02-17T08:45:28Z</time>
      </trkpt>
      <trkpt lat="47.67155" lon="2.1628785">
        <ele>140.0</ele>
        <time>2022-02-17T08:45:29Z</time>
      </trkpt>
      <trkpt lat="47.671562" lon="2.1628718">
        <ele>141.0</ele>
        <time>2022-02-17T08:45:30Z</time>
      </trkpt>
      <trkpt lat="47.671574" lon="2.162867">
        <ele>142.0</ele>
        <time>2022-02-17T08:45:31Z</time>
      </trkpt>
      <trkpt lat="47.67159" lon="2.1628633">
        <ele>142.0</ele>
        <time>2022-02-17T08:45:32Z</time>
      </trkpt>
      <trkpt lat="47.671608" lon="2.1628628">
        <ele>143.0</ele>
        <time>2022-02-17T08:45:33Z</time>
      </trkpt>
      <trkpt lat="47.671623" lon="2.1628647">
        <ele>143.0</ele>
        <time>2022-02-17T08:45:34Z</time>
      </trkpt>
      <trkpt lat="47.671635" lon="2.1628602">
        <ele>143.0</ele>
        <time>2022-02-17T08:45:35Z</time>
      </trkpt>
      <trkpt lat="47.67165" lon="2.162856">
        <ele>144.0</ele>
        <time>2022-02-17T08:45:36Z</time>
      </trkpt>
      <trkpt lat="47.671665" lon="2.1628523">
        <ele>144.0</ele>
        <time>2022-02-17T08:45:37Z</time>
      </trkpt>
      <trkpt lat="47.67168" lon="2.1628516">
        <ele>144.0</ele>
        <time>2022-02-17T08:45:38Z</time>
      </trkpt>
      <trkpt lat="47.6717" lon="2.1628506">
        <ele>144.0</ele>
        <time>2022-02-17T08:45:39Z</time>
      </trkpt>
      <trkpt lat="47.67171" lon="2.162847">
        <ele>145.0</ele>
        <time>2022-02-17T08:45:40Z</time>
      </trkpt>
      <trkpt lat="47.671726" lon="2.1628463">
        <ele>144.0</ele>
        <time>2022-02-17T08:45:41Z</time>
      </trkpt>
      <trkpt lat="47.671745" lon="2.1628468">
        <ele>143.0</ele>
        <time>2022-02-17T08:45:42Z</time>
      </trkpt>
      <trkpt lat="47.67176" lon="2.1628458">
        <ele>143.0</ele>
        <time>2022-02-17T08:45:43Z</time>
      </trkpt>
      <trkpt lat="47.671776" lon="2.1628447">
        <ele>143.0</ele>
        <time>2022-02-17T08:45:44Z</time>
      </trkpt>
      <trkpt lat="47.671787" lon="2.1628404">
        <ele>142.0</ele>
        <time>2022-02-17T08:45:45Z</time>
      </trkpt>
      <trkpt lat="47.671787" lon="2.1628404">
        <ele>142.0</ele>
        <time>2022-02-17T08:45:46Z</time>
      </trkpt>
      <trkpt lat="47.671787" lon="2.1628404">
        <ele>142.0</ele>
        <time>2022-02-17T08:45:47Z</time>
      </trkpt>
      <trkpt lat="47.671818" lon="2.1628325">
        <ele>143.0</ele>
        <time>2022-02-17T08:45:48Z</time>
      </trkpt>
      <trkpt lat="47.67183" lon="2.162831">
        <ele>143.0</ele>
        <time>2022-02-17T08:45:49Z</time>
      </trkpt>
      <trkpt lat="47.67184" lon="2.162829">
        <ele>143.0</ele>
        <time>2022-02-17T08:45:50Z</time>
      </trkpt>
      <trkpt lat="47.671852" lon="2.162823">
        <ele>143.0</ele>
        <time>2022-02-17T08:45:51Z</time>
      </trkpt>
      <trkpt lat="47.671852" lon="2.162823">
        <ele>143.0</ele>
        <time>2022-02-17T08:45:52Z</time>
      </trkpt>
      <trkpt lat="47.671852" lon="2.162823">
        <ele>143.0</ele>
        <time>2022-02-17T08:45:53Z</time>
      </trkpt>
      <trkpt lat="47.671883" lon="2.1628165">
        <ele>142.0</ele>
        <time>2022-02-17T08:45:54Z</time>
      </trkpt>
      <trkpt lat="47.67189" lon="2.162813">
        <ele>143.0</ele>
        <time>2022-02-17T08:45:55Z</time>
      </trkpt>
      <trkpt lat="47.671898" lon="2.1628103">
        <ele>143.0</ele>
        <time>2022-02-17T08:45:56Z</time>
      </trkpt>
      <trkpt lat="47.671913" lon="2.1628075">
        <ele>143.0</ele>
        <time>2022-02-17T08:45:57Z</time>
      </trkpt>
      <trkpt lat="47.67193" lon="2.1628041">
        <ele>143.0</ele>
        <time>2022-02-17T08:45:58Z</time>
      </trkpt>
      <trkpt lat="47.671944" lon="2.1628027">
        <ele>143.0</ele>
        <time>2022-02-17T08:45:59Z</time>
      </trkpt>
      <trkpt lat="47.67196" lon="2.1628053">
        <ele>142.0</ele>
        <time>2022-02-17T08:46:00Z</time>
      </trkpt>
      <trkpt lat="47.671978" lon="2.1628034">
        <ele>142.0</ele>
        <time>2022-02-17T08:46:01Z</time>
      </trkpt>
      <trkpt lat="47.67199" lon="2.162809">
        <ele>142.0</ele>
        <time>2022-02-17T08:46:02Z</time>
      </trkpt>
      <trkpt lat="47.67199" lon="2.162809">
        <ele>142.0</ele>
        <time>2022-02-17T08:46:03Z</time>
      </trkpt>
      <trkpt lat="47.67199" lon="2.162809">
        <ele>142.0</ele>
        <time>2022-02-17T08:46:04Z</time>
      </trkpt>
      <trkpt lat="47.672016" lon="2.162808">
        <ele>144.0</ele>
        <time>2022-02-17T08:46:05Z</time>
      </trkpt>
      <trkpt lat="47.672024" lon="2.1628075">
        <ele>144.0</ele>
        <time>2022-02-17T08:46:06Z</time>
      </trkpt>
      <trkpt lat="47.67204" lon="2.1628036">
        <ele>144.0</ele>
        <time>2022-02-17T08:46:07Z</time>
      </trkpt>
      <trkpt lat="47.672047" lon="2.1628034">
        <ele>144.0</ele>
        <time>2022-02-17T08:46:08Z</time>
      </trkpt>
      <trkpt lat="47.67206" lon="2.1628046">
        <ele>145.0</ele>
        <time>2022-02-17T08:46:09Z</time>
      </trkpt>
      <trkpt lat="47.67206" lon="2.1628046">
        <ele>145.0</ele>
        <time>2022-02-17T08:46:10Z</time>
      </trkpt>
      <trkpt lat="47.67206" lon="2.1628046">
        <ele>145.0</ele>
        <time>2022-02-17T08:46:11Z</time>
      </trkpt>
      <trkpt lat="47.672085" lon="2.1627996">
        <ele>145.0</ele>
        <time>2022-02-17T08:46:12Z</time>
      </trkpt>
      <trkpt lat="47.672092" lon="2.1627998">
        <ele>146.0</ele>
        <time>2022-02-17T08:46:13Z</time>
      </trkpt>
      <trkpt lat="47.672104" lon="2.1628022">
        <ele>146.0</ele>
        <time>2022-02-17T08:46:14Z</time>
      </trkpt>
      <trkpt lat="47.672115" lon="2.1628017">
        <ele>146.0</ele>
        <time>2022-02-17T08:46:15Z</time>
      </trkpt>
      <trkpt lat="47.672115" lon="2.1628017">
        <ele>146.0</ele>
        <time>2022-02-17T08:46:16Z</time>
      </trkpt>
      <trkpt lat="47.672115" lon="2.1628017">
        <ele>146.0</ele>
        <time>2022-02-17T08:46:17Z</time>
      </trkpt>
      <trkpt lat="47.672142" lon="2.1627972">
        <ele>146.0</ele>
        <time>2022-02-17T08:46:18Z</time>
      </trkpt>
      <trkpt lat="47.672153" lon="2.1628003">
        <ele>147.0</ele>
        <time>2022-02-17T08:46:19Z</time>
      </trkpt>
      <trkpt lat="47.67216" lon="2.1627994">
        <ele>147.0</ele>
        <time>2022-02-17T08:46:20Z</time>
      </trkpt>
      <trkpt lat="47.672173" lon="2.1627982">
        <ele>147.0</ele>
        <time>2022-02-17T08:46:21Z</time>
      </trkpt>
      <trkpt lat="47.672173" lon="2.1627982">
        <ele>147.0</ele>
        <time>2022-02-17T08:46:22Z</time>
      </trkpt>
      <trkpt lat="47.672173" lon="2.1627982">
        <ele>147.0</ele>
        <time>2022-02-17T08:46:23Z</time>
      </trkpt>
      <trkpt lat="47.672203" lon="2.1627955">
        <ele>147.0</ele>
        <time>2022-02-17T08:46:24Z</time>
      </trkpt>
      <trkpt lat="47.672215" lon="2.1627944">
        <ele>146.0</ele>
        <time>2022-02-17T08:46:25Z</time>
      </trkpt>
      <trkpt lat="47.672226" lon="2.1627932">
        <ele>146.0</ele>
        <time>2022-02-17T08:46:26Z</time>
      </trkpt>
      <trkpt lat="47.672237" lon="2.1627905">
        <ele>146.0</ele>
        <time>2022-02-17T08:46:27Z</time>
      </trkpt>
      <trkpt lat="47.67225" lon="2.1627882">
        <ele>146.0</ele>
        <time>2022-02-17T08:46:28Z</time>
      </trkpt>
      <trkpt lat="47.67226" lon="2.1627893">
        <ele>146.0</ele>
        <time>2022-02-17T08:46:29Z</time>
      </trkpt>
      <trkpt lat="47.67226" lon="2.1627893">
        <ele>146.0</ele>
        <time>2022-02-17T08:46:30Z</time>
      </trkpt>
      <trkpt lat="47.672287" lon="2.1627808">
        <ele>145.0</ele>
        <time>2022-02-17T08:46:31Z</time>
      </trkpt>
      <trkpt lat="47.672302" lon="2.1627808">
        <ele>145.0</ele>
        <time>2022-02-17T08:46:32Z</time>
      </trkpt>
      <trkpt lat="47.672318" lon="2.1627798">
        <ele>145.0</ele>
        <time>2022-02-17T08:46:33Z</time>
      </trkpt>
      <trkpt lat="47.67233" lon="2.1627789">
        <ele>144.0</ele>
        <time>2022-02-17T08:46:34Z</time>
      </trkpt>
      <trkpt lat="47.672344" lon="2.1627817">
        <ele>144.0</ele>
        <time>2022-02-17T08:46:35Z</time>
      </trkpt>
      <trkpt lat="47.67236" lon="2.1627777">
        <ele>143.0</ele>
        <time>2022-02-17T08:46:36Z</time>
      </trkpt>
      <trkpt lat="47.67236" lon="2.1627777">
        <ele>143.0</ele>
        <time>2022-02-17T08:46:37Z</time>
      </trkpt>
      <trkpt lat="47.67236" lon="2.1627777">
        <ele>143.0</ele>
        <time>2022-02-17T08:46:38Z</time>
      </trkpt>
      <trkpt lat="47.67239" lon="2.1627634">
        <ele>143.0</ele>
        <time>2022-02-17T08:46:39Z</time>
      </trkpt>
      <trkpt lat="47.6724" lon="2.1627572">
        <ele>142.0</ele>
        <time>2022-02-17T08:46:40Z</time>
      </trkpt>
      <trkpt lat="47.672413" lon="2.1627529">
        <ele>142.0</ele>
        <time>2022-02-17T08:46:41Z</time>
      </trkpt>
      <trkpt lat="47.672432" lon="2.1627476">
        <ele>142.0</ele>
        <time>2022-02-17T08:46:42Z</time>
      </trkpt>
      <trkpt lat="47.67245" lon="2.16274">
        <ele>142.0</ele>
        <time>2022-02-17T08:46:43Z</time>
      </trkpt>
      <trkpt lat="47.672466" lon="2.1627357">
        <ele>142.0</ele>
        <time>2022-02-17T08:46:44Z</time>
      </trkpt>
      <trkpt lat="47.67248" lon="2.1627321">
        <ele>141.0</ele>
        <time>2022-02-17T08:46:45Z</time>
      </trkpt>
      <trkpt lat="47.6725" lon="2.1627283">
        <ele>142.0</ele>
        <time>2022-02-17T08:46:46Z</time>
      </trkpt>
      <trkpt lat="47.6725" lon="2.1627283">
        <ele>142.0</ele>
        <time>2022-02-17T08:46:47Z</time>
      </trkpt>
      <trkpt lat="47.6725" lon="2.1627283">
        <ele>142.0</ele>
        <time>2022-02-17T08:46:48Z</time>
      </trkpt>
      <trkpt lat="47.672527" lon="2.16272">
        <ele>141.0</ele>
        <time>2022-02-17T08:46:49Z</time>
      </trkpt>
      <trkpt lat="47.67254" lon="2.1627204">
        <ele>141.0</ele>
        <time>2022-02-17T08:46:50Z</time>
      </trkpt>
      <trkpt lat="47.672554" lon="2.162721">
        <ele>141.0</ele>
        <time>2022-02-17T08:46:51Z</time>
      </trkpt>
      <trkpt lat="47.67256" lon="2.1627197">
        <ele>141.0</ele>
        <time>2022-02-17T08:46:52Z</time>
      </trkpt>
      <trkpt lat="47.67256" lon="2.1627197">
        <ele>141.0</ele>
        <time>2022-02-17T08:46:53Z</time>
      </trkpt>
      <trkpt lat="47.67258" lon="2.1627216">
        <ele>141.0</ele>
        <time>2022-02-17T08:46:54Z</time>
      </trkpt>
      <trkpt lat="47.672592" lon="2.1627164">
        <ele>141.0</ele>
        <time>2022-02-17T08:46:55Z</time>
      </trkpt>
      <trkpt lat="47.672607" lon="2.1627123">
        <ele>141.0</ele>
        <time>2022-02-17T08:46:56Z</time>
      </trkpt>
      <trkpt lat="47.67262" lon="2.1627078">
        <ele>141.0</ele>
        <time>2022-02-17T08:46:57Z</time>
      </trkpt>
      <trkpt lat="47.672634" lon="2.162706">
        <ele>142.0</ele>
        <time>2022-02-17T08:46:58Z</time>
      </trkpt>
      <trkpt lat="47.672646" lon="2.162708">
        <ele>142.0</ele>
        <time>2022-02-17T08:46:59Z</time>
      </trkpt>
      <trkpt lat="47.67266" lon="2.162705">
        <ele>142.0</ele>
        <time>2022-02-17T08:47:00Z</time>
      </trkpt>
      <trkpt lat="47.672676" lon="2.1627035">
        <ele>143.0</ele>
        <time>2022-02-17T08:47:01Z</time>
      </trkpt>
      <trkpt lat="47.67269" lon="2.1627054">
        <ele>143.0</ele>
        <time>2022-02-17T08:47:03Z</time>
      </trkpt>
      <trkpt lat="47.672703" lon="2.162705">
        <ele>143.0</ele>
        <time>2022-02-17T08:47:04Z</time>
      </trkpt>
      <trkpt lat="47.672714" lon="2.1627035">
        <ele>143.0</ele>
        <time>2022-02-17T08:47:05Z</time>
      </trkpt>
      <trkpt lat="47.672726" lon="2.162705">
        <ele>143.0</ele>
        <time>2022-02-17T08:47:06Z</time>
      </trkpt>
      <trkpt lat="47.67274" lon="2.162704">
        <ele>143.0</ele>
        <time>2022-02-17T08:47:07Z</time>
      </trkpt>
      <trkpt lat="47.672764" lon="2.1627023">
        <ele>143.0</ele>
        <time>2022-02-17T08:47:08Z</time>
      </trkpt>
      <trkpt lat="47.672775" lon="2.162698">
        <ele>143.0</ele>
        <time>2022-02-17T08:47:09Z</time>
      </trkpt>
      <trkpt lat="47.672787" lon="2.1626933">
        <ele>143.0</ele>
        <time>2022-02-17T08:47:10Z</time>
      </trkpt>
      <trkpt lat="47.672787" lon="2.1626933">
        <ele>143.0</ele>
        <time>2022-02-17T08:47:11Z</time>
      </trkpt>
      <trkpt lat="47.672787" lon="2.1626933">
        <ele>143.0</ele>
        <time>2022-02-17T08:47:12Z</time>
      </trkpt>
      <trkpt lat="47.672817" lon="2.1626809">
        <ele>142.0</ele>
        <time>2022-02-17T08:47:13Z</time>
      </trkpt>
      <trkpt lat="47.672832" lon="2.162681">
        <ele>141.0</ele>
        <time>2022-02-17T08:47:14Z</time>
      </trkpt>
      <trkpt lat="47.672848" lon="2.162684">
        <ele>141.0</ele>
        <time>2022-02-17T08:47:15Z</time>
      </trkpt>
      <trkpt lat="47.672863" lon="2.162681">
        <ele>141.0</ele>
        <time>2022-02-17T08:47:16Z</time>
      </trkpt>
      <trkpt lat="47.672882" lon="2.162675">
        <ele>142.0</ele>
        <time>2022-02-17T08:47:17Z</time>
      </trkpt>
      <trkpt lat="47.672897" lon="2.1626718">
        <ele>142.0</ele>
        <time>2022-02-17T08:47:18Z</time>
      </trkpt>
      <trkpt lat="47.67291" lon="2.1626673">
        <ele>141.0</ele>
        <time>2022-02-17T08:47:19Z</time>
      </trkpt>
      <trkpt lat="47.672928" lon="2.1626594">
        <ele>141.0</ele>
        <time>2022-02-17T08:47:20Z</time>
      </trkpt>
      <trkpt lat="47.672943" lon="2.1626513">
        <ele>141.0</ele>
        <time>2022-02-17T08:47:21Z</time>
      </trkpt>
      <trkpt lat="47.672955" lon="2.1626446">
        <ele>141.0</ele>
        <time>2022-02-17T08:47:22Z</time>
      </trkpt>
      <trkpt lat="47.672966" lon="2.1626415">
        <ele>142.0</ele>
        <time>2022-02-17T08:47:23Z</time>
      </trkpt>
      <trkpt lat="47.672977" lon="2.1626382">
        <ele>143.0</ele>
        <time>2022-02-17T08:47:24Z</time>
      </trkpt>
      <trkpt lat="47.672993" lon="2.1626363">
        <ele>143.0</ele>
        <time>2022-02-17T08:47:25Z</time>
      </trkpt>
      <trkpt lat="47.673008" lon="2.162635">
        <ele>144.0</ele>
        <time>2022-02-17T08:47:26Z</time>
      </trkpt>
      <trkpt lat="47.673027" lon="2.1626422">
        <ele>144.0</ele>
        <time>2022-02-17T08:47:27Z</time>
      </trkpt>
      <trkpt lat="47.673042" lon="2.1626432">
        <ele>145.0</ele>
        <time>2022-02-17T08:47:28Z</time>
      </trkpt>
      <trkpt lat="47.673058" lon="2.1626422">
        <ele>144.0</ele>
        <time>2022-02-17T08:47:29Z</time>
      </trkpt>
      <trkpt lat="47.673073" lon="2.162641">
        <ele>144.0</ele>
        <time>2022-02-17T08:47:30Z</time>
      </trkpt>
      <trkpt lat="47.673088" lon="2.1626394">
        <ele>144.0</ele>
        <time>2022-02-17T08:47:31Z</time>
      </trkpt>
      <trkpt lat="47.673103" lon="2.1626372">
        <ele>144.0</ele>
        <time>2022-02-17T08:47:32Z</time>
      </trkpt>
      <trkpt lat="47.67312" lon="2.1626325">
        <ele>144.0</ele>
        <time>2022-02-17T08:47:33Z</time>
      </trkpt>
      <trkpt lat="47.673134" lon="2.1626318">
        <ele>144.0</ele>
        <time>2022-02-17T08:47:34Z</time>
      </trkpt>
      <trkpt lat="47.673153" lon="2.1626277">
        <ele>144.0</ele>
        <time>2022-02-17T08:47:35Z</time>
      </trkpt>
      <trkpt lat="47.673172" lon="2.1626236">
        <ele>144.0</ele>
        <time>2022-02-17T08:47:36Z</time>
      </trkpt>
      <trkpt lat="47.673187" lon="2.1626205">
        <ele>144.0</ele>
        <time>2022-02-17T08:47:37Z</time>
      </trkpt>
      <trkpt lat="47.673187" lon="2.1626205">
        <ele>144.0</ele>
        <time>2022-02-17T08:47:38Z</time>
      </trkpt>
      <trkpt lat="47.673187" lon="2.1626205">
        <ele>144.0</ele>
        <time>2022-02-17T08:47:39Z</time>
      </trkpt>
      <trkpt lat="47.673203" lon="2.1626203">
        <ele>144.0</ele>
        <time>2022-02-17T08:47:40Z</time>
      </trkpt>
      <trkpt lat="47.67321" lon="2.16262">
        <ele>144.0</ele>
        <time>2022-02-17T08:47:41Z</time>
      </trkpt>
      <trkpt lat="47.673214" lon="2.1626155">
        <ele>145.0</ele>
        <time>2022-02-17T08:47:42Z</time>
      </trkpt>
      <trkpt lat="47.673218" lon="2.1626112">
        <ele>145.0</ele>
        <time>2022-02-17T08:47:43Z</time>
      </trkpt>
      <trkpt lat="47.673218" lon="2.1626112">
        <ele>145.0</ele>
        <time>2022-02-17T08:47:44Z</time>
      </trkpt>
      <trkpt lat="47.673218" lon="2.1626112">
        <ele>145.0</ele>
        <time>2022-02-17T08:47:45Z</time>
      </trkpt>
      <trkpt lat="47.673244" lon="2.1625986">
        <ele>145.0</ele>
        <time>2022-02-17T08:47:46Z</time>
      </trkpt>
      <trkpt lat="47.673256" lon="2.1625974">
        <ele>145.0</ele>
        <time>2022-02-17T08:47:47Z</time>
      </trkpt>
      <trkpt lat="47.673264" lon="2.162595">
        <ele>145.0</ele>
        <time>2022-02-17T08:47:48Z</time>
      </trkpt>
      <trkpt lat="47.67328" lon="2.1625888">
        <ele>146.0</ele>
        <time>2022-02-17T08:47:49Z</time>
      </trkpt>
      <trkpt lat="47.67328" lon="2.1625888">
        <ele>146.0</ele>
        <time>2022-02-17T08:47:50Z</time>
      </trkpt>
      <trkpt lat="47.67328" lon="2.1625888">
        <ele>146.0</ele>
        <time>2022-02-17T08:47:51Z</time>
      </trkpt>
      <trkpt lat="47.673306" lon="2.162576">
        <ele>147.0</ele>
        <time>2022-02-17T08:47:52Z</time>
      </trkpt>
      <trkpt lat="47.673317" lon="2.162573">
        <ele>147.0</ele>
        <time>2022-02-17T08:47:53Z</time>
      </trkpt>
      <trkpt lat="47.673336" lon="2.1625693">
        <ele>147.0</ele>
        <time>2022-02-17T08:47:54Z</time>
      </trkpt>
      <trkpt lat="47.67335" lon="2.1625657">
        <ele>147.0</ele>
        <time>2022-02-17T08:47:55Z</time>
      </trkpt>
      <trkpt lat="47.673363" lon="2.1625617">
        <ele>146.0</ele>
        <time>2022-02-17T08:47:56Z</time>
      </trkpt>
      <trkpt lat="47.673374" lon="2.1625607">
        <ele>146.0</ele>
        <time>2022-02-17T08:47:57Z</time>
      </trkpt>
      <trkpt lat="47.67339" lon="2.1625621">
        <ele>146.0</ele>
        <time>2022-02-17T08:47:58Z</time>
      </trkpt>
      <trkpt lat="47.673397" lon="2.1625607">
        <ele>146.0</ele>
        <time>2022-02-17T08:47:59Z</time>
      </trkpt>
      <trkpt lat="47.67341" lon="2.162557">
        <ele>146.0</ele>
        <time>2022-02-17T08:48:00Z</time>
      </trkpt>
      <trkpt lat="47.673416" lon="2.1625528">
        <ele>146.0</ele>
        <time>2022-02-17T08:48:01Z</time>
      </trkpt>
      <trkpt lat="47.673416" lon="2.1625528">
        <ele>146.0</ele>
        <time>2022-02-17T08:48:02Z</time>
      </trkpt>
      <trkpt lat="47.673416" lon="2.1625528">
        <ele>146.0</ele>
        <time>2022-02-17T08:48:03Z</time>
      </trkpt>
      <trkpt lat="47.673454" lon="2.1625452">
        <ele>146.0</ele>
        <time>2022-02-17T08:48:04Z</time>
      </trkpt>
      <trkpt lat="47.67347" lon="2.1625447">
        <ele>145.0</ele>
        <time>2022-02-17T08:48:05Z</time>
      </trkpt>
      <trkpt lat="47.67349" lon="2.1625383">
        <ele>144.0</ele>
        <time>2022-02-17T08:48:06Z</time>
      </trkpt>
      <trkpt lat="47.673508" lon="2.1625335">
        <ele>143.0</ele>
        <time>2022-02-17T08:48:07Z</time>
      </trkpt>
      <trkpt lat="47.673523" lon="2.1625307">
        <ele>142.0</ele>
        <time>2022-02-17T08:48:08Z</time>
      </trkpt>
      <trkpt lat="47.673542" lon="2.1625278">
        <ele>142.0</ele>
        <time>2022-02-17T08:48:09Z</time>
      </trkpt>
      <trkpt lat="47.673557" lon="2.1625264">
        <ele>141.0</ele>
        <time>2022-02-17T08:48:10Z</time>
      </trkpt>
      <trkpt lat="47.673573" lon="2.1625266">
        <ele>141.0</ele>
        <time>2022-02-17T08:48:11Z</time>
      </trkpt>
      <trkpt lat="47.673584" lon="2.162524">
        <ele>140.0</ele>
        <time>2022-02-17T08:48:12Z</time>
      </trkpt>
      <trkpt lat="47.673595" lon="2.1625175">
        <ele>140.0</ele>
        <time>2022-02-17T08:48:13Z</time>
      </trkpt>
      <trkpt lat="47.67361" lon="2.1625152">
        <ele>139.0</ele>
        <time>2022-02-17T08:48:14Z</time>
      </trkpt>
      <trkpt lat="47.673626" lon="2.1625118">
        <ele>139.0</ele>
        <time>2022-02-17T08:48:15Z</time>
      </trkpt>
      <trkpt lat="47.67364" lon="2.1625063">
        <ele>139.0</ele>
        <time>2022-02-17T08:48:16Z</time>
      </trkpt>
      <trkpt lat="47.673653" lon="2.1625006">
        <ele>139.0</ele>
        <time>2022-02-17T08:48:17Z</time>
      </trkpt>
      <trkpt lat="47.67367" lon="2.1624918">
        <ele>140.0</ele>
        <time>2022-02-17T08:48:18Z</time>
      </trkpt>
      <trkpt lat="47.673687" lon="2.1624908">
        <ele>139.0</ele>
        <time>2022-02-17T08:48:19Z</time>
      </trkpt>
      <trkpt lat="47.673706" lon="2.1624944">
        <ele>140.0</ele>
        <time>2022-02-17T08:48:20Z</time>
      </trkpt>
      <trkpt lat="47.67372" lon="2.1624925">
        <ele>139.0</ele>
        <time>2022-02-17T08:48:21Z</time>
      </trkpt>
      <trkpt lat="47.673733" lon="2.1624959">
        <ele>139.0</ele>
        <time>2022-02-17T08:48:22Z</time>
      </trkpt>
      <trkpt lat="47.673748" lon="2.1624985">
        <ele>140.0</ele>
        <time>2022-02-17T08:48:23Z</time>
      </trkpt>
      <trkpt lat="47.673748" lon="2.1624985">
        <ele>140.0</ele>
        <time>2022-02-17T08:48:24Z</time>
      </trkpt>
      <trkpt lat="47.673748" lon="2.1624985">
        <ele>140.0</ele>
        <time>2022-02-17T08:48:25Z</time>
      </trkpt>
      <trkpt lat="47.67377" lon="2.162501">
        <ele>141.0</ele>
        <time>2022-02-17T08:48:26Z</time>
      </trkpt>
      <trkpt lat="47.673782" lon="2.162498">
        <ele>141.0</ele>
        <time>2022-02-17T08:48:27Z</time>
      </trkpt>
      <trkpt lat="47.673794" lon="2.1624968">
        <ele>142.0</ele>
        <time>2022-02-17T08:48:28Z</time>
      </trkpt>
      <trkpt lat="47.673805" lon="2.1625001">
        <ele>142.0</ele>
        <time>2022-02-17T08:48:29Z</time>
      </trkpt>
      <trkpt lat="47.673805" lon="2.1625001">
        <ele>142.0</ele>
        <time>2022-02-17T08:48:30Z</time>
      </trkpt>
      <trkpt lat="47.673805" lon="2.1625001">
        <ele>142.0</ele>
        <time>2022-02-17T08:48:31Z</time>
      </trkpt>
      <trkpt lat="47.673832" lon="2.1624951">
        <ele>143.0</ele>
        <time>2022-02-17T08:48:32Z</time>
      </trkpt>
      <trkpt lat="47.673843" lon="2.1624906">
        <ele>144.0</ele>
        <time>2022-02-17T08:48:33Z</time>
      </trkpt>
      <trkpt lat="47.67386" lon="2.1624877">
        <ele>145.0</ele>
        <time>2022-02-17T08:48:34Z</time>
      </trkpt>
      <trkpt lat="47.67387" lon="2.1624856">
        <ele>146.0</ele>
        <time>2022-02-17T08:48:35Z</time>
      </trkpt>
      <trkpt lat="47.67389" lon="2.1624877">
        <ele>147.0</ele>
        <time>2022-02-17T08:48:36Z</time>
      </trkpt>
      <trkpt lat="47.6739" lon="2.1624823">
        <ele>147.0</ele>
        <time>2022-02-17T08:48:37Z</time>
      </trkpt>
      <trkpt lat="47.67391" lon="2.162479">
        <ele>147.0</ele>
        <time>2022-02-17T08:48:38Z</time>
      </trkpt>
      <trkpt lat="47.67391" lon="2.162479">
        <ele>147.0</ele>
        <time>2022-02-17T08:48:39Z</time>
      </trkpt>
      <trkpt lat="47.67391" lon="2.162479">
        <ele>147.0</ele>
        <time>2022-02-17T08:48:40Z</time>
      </trkpt>
      <trkpt lat="47.67393" lon="2.1624732">
        <ele>148.0</ele>
        <time>2022-02-17T08:48:41Z</time>
      </trkpt>
      <trkpt lat="47.67393" lon="2.1624732">
        <ele>148.0</ele>
        <time>2022-02-17T08:48:41Z</time>
      </trkpt>
      <trkpt lat="47.67393" lon="2.1624732">
        <ele>148.0</ele>
        <time>2022-02-17T08:48:41Z</time>
      </trkpt>
      <trkpt lat="47.67404" lon="2.1624744">
        <ele>153.0</ele>
        <time>2022-02-17T08:49:20Z</time>
      </trkpt>
      <trkpt lat="47.67404" lon="2.1624744">
        <ele>153.0</ele>
        <time>2022-02-17T08:49:21Z</time>
      </trkpt>
      <trkpt lat="47.67408" lon="2.1624548">
        <ele>153.0</ele>
        <time>2022-02-17T08:49:22Z</time>
      </trkpt>
      <trkpt lat="47.67409" lon="2.1624525">
        <ele>152.0</ele>
        <time>2022-02-17T08:49:23Z</time>
      </trkpt>
      <trkpt lat="47.67411" lon="2.1624484">
        <ele>152.0</ele>
        <time>2022-02-17T08:49:24Z</time>
      </trkpt>
      <trkpt lat="47.674126" lon="2.1624417">
        <ele>152.0</ele>
        <time>2022-02-17T08:49:25Z</time>
      </trkpt>
      <trkpt lat="47.674126" lon="2.1624417">
        <ele>152.0</ele>
        <time>2022-02-17T08:49:26Z</time>
      </trkpt>
      <trkpt lat="47.674126" lon="2.1624417">
        <ele>152.0</ele>
        <time>2022-02-17T08:49:27Z</time>
      </trkpt>
      <trkpt lat="47.674156" lon="2.1624246">
        <ele>153.0</ele>
        <time>2022-02-17T08:49:28Z</time>
      </trkpt>
      <trkpt lat="47.674168" lon="2.1624148">
        <ele>153.0</ele>
        <time>2022-02-17T08:49:29Z</time>
      </trkpt>
      <trkpt lat="47.674175" lon="2.1624048">
        <ele>152.0</ele>
        <time>2022-02-17T08:49:30Z</time>
      </trkpt>
      <trkpt lat="47.674183" lon="2.1623945">
        <ele>152.0</ele>
        <time>2022-02-17T08:49:31Z</time>
      </trkpt>
      <trkpt lat="47.67419" lon="2.162386">
        <ele>153.0</ele>
        <time>2022-02-17T08:49:32Z</time>
      </trkpt>
      <trkpt lat="47.674202" lon="2.162386">
        <ele>153.0</ele>
        <time>2022-02-17T08:49:33Z</time>
      </trkpt>
      <trkpt lat="47.674217" lon="2.1623795">
        <ele>153.0</ele>
        <time>2022-02-17T08:49:34Z</time>
      </trkpt>
      <trkpt lat="47.674217" lon="2.1623795">
        <ele>153.0</ele>
        <time>2022-02-17T08:49:35Z</time>
      </trkpt>
      <trkpt lat="47.674217" lon="2.1623795">
        <ele>153.0</ele>
        <time>2022-02-17T08:49:36Z</time>
      </trkpt>
      <trkpt lat="47.674217" lon="2.1623795">
        <ele>153.0</ele>
        <time>2022-02-17T08:49:37Z</time>
      </trkpt>
      <trkpt lat="47.674217" lon="2.1623795">
        <ele>153.0</ele>
        <time>2022-02-17T08:49:38Z</time>
      </trkpt>
      <trkpt lat="47.674217" lon="2.1623795">
        <ele>153.0</ele>
        <time>2022-02-17T08:49:38Z</time>
      </trkpt>
      <trkpt lat="47.674217" lon="2.1623795">
        <ele>153.0</ele>
        <time>2022-02-17T08:49:38Z</time>
      </trkpt>
      <trkpt lat="47.674324" lon="2.1622975">
        <ele>158.0</ele>
        <time>2022-02-17T08:49:47Z</time>
      </trkpt>
      <trkpt lat="47.67434" lon="2.1622832">
        <ele>159.0</ele>
        <time>2022-02-17T08:49:48Z</time>
      </trkpt>
      <trkpt lat="47.67434" lon="2.1622832">
        <ele>159.0</ele>
        <time>2022-02-17T08:49:49Z</time>
      </trkpt>
      <trkpt lat="47.67434" lon="2.1622832">
        <ele>159.0</ele>
        <time>2022-02-17T08:49:50Z</time>
      </trkpt>
      <trkpt lat="47.674366" lon="2.162252">
        <ele>160.0</ele>
        <time>2022-02-17T08:49:51Z</time>
      </trkpt>
      <trkpt lat="47.674374" lon="2.16224">
        <ele>160.0</ele>
        <time>2022-02-17T08:49:52Z</time>
      </trkpt>
      <trkpt lat="47.674385" lon="2.162231">
        <ele>160.0</ele>
        <time>2022-02-17T08:49:53Z</time>
      </trkpt>
      <trkpt lat="47.674397" lon="2.1622188">
        <ele>160.0</ele>
        <time>2022-02-17T08:49:54Z</time>
      </trkpt>
      <trkpt lat="47.674397" lon="2.1622188">
        <ele>160.0</ele>
        <time>2022-02-17T08:49:55Z</time>
      </trkpt>
      <trkpt lat="47.674397" lon="2.1622188">
        <ele>160.0</ele>
        <time>2022-02-17T08:49:56Z</time>
      </trkpt>
      <trkpt lat="47.674423" lon="2.162188">
        <ele>159.0</ele>
        <time>2022-02-17T08:49:57Z</time>
      </trkpt>
      <trkpt lat="47.674435" lon="2.1621754">
        <ele>159.0</ele>
        <time>2022-02-17T08:49:58Z</time>
      </trkpt>
      <trkpt lat="47.674446" lon="2.162163">
        <ele>158.0</ele>
        <time>2022-02-17T08:49:59Z</time>
      </trkpt>
      <trkpt lat="47.674458" lon="2.1621504">
        <ele>158.0</ele>
        <time>2022-02-17T08:50:00Z</time>
      </trkpt>
      <trkpt lat="47.674465" lon="2.1621368">
        <ele>158.0</ele>
        <time>2022-02-17T08:50:01Z</time>
      </trkpt>
      <trkpt lat="47.67447" lon="2.1621222">
        <ele>159.0</ele>
        <time>2022-02-17T08:50:02Z</time>
      </trkpt>
      <trkpt lat="47.67447" lon="2.1621222">
        <ele>159.0</ele>
        <time>2022-02-17T08:50:03Z</time>
      </trkpt>
      <trkpt lat="47.67447" lon="2.1621222">
        <ele>159.0</ele>
        <time>2022-02-17T08:50:04Z</time>
      </trkpt>
      <trkpt lat="47.674488" lon="2.1620924">
        <ele>159.0</ele>
        <time>2022-02-17T08:50:05Z</time>
      </trkpt>
      <trkpt lat="47.6745" lon="2.1620836">
        <ele>159.0</ele>
        <time>2022-02-17T08:50:06Z</time>
      </trkpt>
      <trkpt lat="47.67451" lon="2.1620777">
        <ele>159.0</ele>
        <time>2022-02-17T08:50:07Z</time>
      </trkpt>
      <trkpt lat="47.67452" lon="2.1620674">
        <ele>159.0</ele>
        <time>2022-02-17T08:50:08Z</time>
      </trkpt>
      <trkpt lat="47.674522" lon="2.162059">
        <ele>160.0</ele>
        <time>2022-02-17T08:50:09Z</time>
      </trkpt>
      <trkpt lat="47.674522" lon="2.162059">
        <ele>160.0</ele>
        <time>2022-02-17T08:50:10Z</time>
      </trkpt>
      <trkpt lat="47.674522" lon="2.162059">
        <ele>160.0</ele>
        <time>2022-02-17T08:50:11Z</time>
      </trkpt>
      <trkpt lat="47.674545" lon="2.1620283">
        <ele>160.0</ele>
        <time>2022-02-17T08:50:12Z</time>
      </trkpt>
      <trkpt lat="47.674553" lon="2.1620166">
        <ele>161.0</ele>
        <time>2022-02-17T08:50:13Z</time>
      </trkpt>
      <trkpt lat="47.67456" lon="2.1620073">
        <ele>161.0</ele>
        <time>2022-02-17T08:50:14Z</time>
      </trkpt>
      <trkpt lat="47.674572" lon="2.161996">
        <ele>161.0</ele>
        <time>2022-02-17T08:50:15Z</time>
      </trkpt>
      <trkpt lat="47.674572" lon="2.161996">
        <ele>161.0</ele>
        <time>2022-02-17T08:50:16Z</time>
      </trkpt>
      <trkpt lat="47.674572" lon="2.161996">
        <ele>161.0</ele>
        <time>2022-02-17T08:50:17Z</time>
      </trkpt>
      <trkpt lat="47.674587" lon="2.1619623">
        <ele>162.0</ele>
        <time>2022-02-17T08:50:18Z</time>
      </trkpt>
      <trkpt lat="47.674595" lon="2.1619499">
        <ele>162.0</ele>
        <time>2022-02-17T08:50:19Z</time>
      </trkpt>
      <trkpt lat="47.674603" lon="2.1619396">
        <ele>162.0</ele>
        <time>2022-02-17T08:50:20Z</time>
      </trkpt>
      <trkpt lat="47.67461" lon="2.161929">
        <ele>163.0</ele>
        <time>2022-02-17T08:50:21Z</time>
      </trkpt>
      <trkpt lat="47.67461" lon="2.161929">
        <ele>163.0</ele>
        <time>2022-02-17T08:50:22Z</time>
      </trkpt>
      <trkpt lat="47.67461" lon="2.161929">
        <ele>163.0</ele>
        <time>2022-02-17T08:50:23Z</time>
      </trkpt>
      <trkpt lat="47.67462" lon="2.1618984">
        <ele>163.0</ele>
        <time>2022-02-17T08:50:24Z</time>
      </trkpt>
      <trkpt lat="47.674625" lon="2.1618867">
        <ele>163.0</ele>
        <time>2022-02-17T08:50:25Z</time>
      </trkpt>
      <trkpt lat="47.674625" lon="2.161879">
        <ele>163.0</ele>
        <time>2022-02-17T08:50:26Z</time>
      </trkpt>
      <trkpt lat="47.67463" lon="2.1618667">
        <ele>162.0</ele>
        <time>2022-02-17T08:50:27Z</time>
      </trkpt>
      <trkpt lat="47.67463" lon="2.1618667">
        <ele>162.0</ele>
        <time>2022-02-17T08:50:28Z</time>
      </trkpt>
      <trkpt lat="47.67463" lon="2.1618667">
        <ele>162.0</ele>
        <time>2022-02-17T08:50:29Z</time>
      </trkpt>
      <trkpt lat="47.674637" lon="2.161836">
        <ele>162.0</ele>
        <time>2022-02-17T08:50:30Z</time>
      </trkpt>
      <trkpt lat="47.67464" lon="2.1618223">
        <ele>161.0</ele>
        <time>2022-02-17T08:50:31Z</time>
      </trkpt>
      <trkpt lat="47.67464" lon="2.1618085">
        <ele>161.0</ele>
        <time>2022-02-17T08:50:32Z</time>
      </trkpt>
      <trkpt lat="47.674644" lon="2.161791">
        <ele>161.0</ele>
        <time>2022-02-17T08:50:33Z</time>
      </trkpt>
      <trkpt lat="47.674644" lon="2.161791">
        <ele>161.0</ele>
        <time>2022-02-17T08:50:34Z</time>
      </trkpt>
      <trkpt lat="47.674644" lon="2.161791">
        <ele>161.0</ele>
        <time>2022-02-17T08:50:35Z</time>
      </trkpt>
      <trkpt lat="47.67465" lon="2.1617537">
        <ele>161.0</ele>
        <time>2022-02-17T08:50:36Z</time>
      </trkpt>
      <trkpt lat="47.674644" lon="2.1617422">
        <ele>161.0</ele>
        <time>2022-02-17T08:50:37Z</time>
      </trkpt>
      <trkpt lat="47.674644" lon="2.161725">
        <ele>161.0</ele>
        <time>2022-02-17T08:50:38Z</time>
      </trkpt>
      <trkpt lat="47.67465" lon="2.1617067">
        <ele>160.0</ele>
        <time>2022-02-17T08:50:39Z</time>
      </trkpt>
      <trkpt lat="47.67465" lon="2.1617067">
        <ele>160.0</ele>
        <time>2022-02-17T08:50:40Z</time>
      </trkpt>
      <trkpt lat="47.67465" lon="2.1617067">
        <ele>160.0</ele>
        <time>2022-02-17T08:50:41Z</time>
      </trkpt>
      <trkpt lat="47.67465" lon="2.1616633">
        <ele>159.0</ele>
        <time>2022-02-17T08:50:42Z</time>
      </trkpt>
      <trkpt lat="47.674652" lon="2.1616478">
        <ele>159.0</ele>
        <time>2022-02-17T08:50:43Z</time>
      </trkpt>
      <trkpt lat="47.674652" lon="2.1616313">
        <ele>158.0</ele>
        <time>2022-02-17T08:50:44Z</time>
      </trkpt>
      <trkpt lat="47.67465" lon="2.1616182">
        <ele>158.0</ele>
        <time>2022-02-17T08:50:45Z</time>
      </trkpt>
      <trkpt lat="47.67465" lon="2.1616182">
        <ele>158.0</ele>
        <time>2022-02-17T08:50:46Z</time>
      </trkpt>
      <trkpt lat="47.67465" lon="2.1616182">
        <ele>158.0</ele>
        <time>2022-02-17T08:50:47Z</time>
      </trkpt>
      <trkpt lat="47.674644" lon="2.161586">
        <ele>158.0</ele>
        <time>2022-02-17T08:50:48Z</time>
      </trkpt>
      <trkpt lat="47.67464" lon="2.1615705">
        <ele>158.0</ele>
        <time>2022-02-17T08:50:49Z</time>
      </trkpt>
      <trkpt lat="47.67464" lon="2.1615546">
        <ele>158.0</ele>
        <time>2022-02-17T08:50:50Z</time>
      </trkpt>
      <trkpt lat="47.67464" lon="2.1615403">
        <ele>158.0</ele>
        <time>2022-02-17T08:50:51Z</time>
      </trkpt>
      <trkpt lat="47.674644" lon="2.1615288">
        <ele>158.0</ele>
        <time>2022-02-17T08:50:52Z</time>
      </trkpt>
      <trkpt lat="47.674644" lon="2.1615288">
        <ele>158.0</ele>
        <time>2022-02-17T08:50:53Z</time>
      </trkpt>
      <trkpt lat="47.674644" lon="2.1615288">
        <ele>158.0</ele>
        <time>2022-02-17T08:50:54Z</time>
      </trkpt>
      <trkpt lat="47.674652" lon="2.1614978">
        <ele>158.0</ele>
        <time>2022-02-17T08:50:55Z</time>
      </trkpt>
      <trkpt lat="47.674656" lon="2.161482">
        <ele>157.0</ele>
        <time>2022-02-17T08:50:56Z</time>
      </trkpt>
      <trkpt lat="47.67466" lon="2.1614668">
        <ele>157.0</ele>
        <time>2022-02-17T08:50:57Z</time>
      </trkpt>
      <trkpt lat="47.67466" lon="2.1614487">
        <ele>156.0</ele>
        <time>2022-02-17T08:50:58Z</time>
      </trkpt>
      <trkpt lat="47.67466" lon="2.1614487">
        <ele>156.0</ele>
        <time>2022-02-17T08:50:59Z</time>
      </trkpt>
      <trkpt lat="47.67466" lon="2.1614487">
        <ele>156.0</ele>
        <time>2022-02-17T08:51:00Z</time>
      </trkpt>
      <trkpt lat="47.67466" lon="2.1613975">
        <ele>156.0</ele>
        <time>2022-02-17T08:51:01Z</time>
      </trkpt>
      <trkpt lat="47.67466" lon="2.1613784">
        <ele>156.0</ele>
        <time>2022-02-17T08:51:02Z</time>
      </trkpt>
      <trkpt lat="47.674656" lon="2.1613615">
        <ele>157.0</ele>
        <time>2022-02-17T08:51:03Z</time>
      </trkpt>
      <trkpt lat="47.674652" lon="2.1613486">
        <ele>157.0</ele>
        <time>2022-02-17T08:51:04Z</time>
      </trkpt>
      <trkpt lat="47.674652" lon="2.1613486">
        <ele>157.0</ele>
        <time>2022-02-17T08:51:05Z</time>
      </trkpt>
      <trkpt lat="47.674652" lon="2.1613486">
        <ele>157.0</ele>
        <time>2022-02-17T08:51:06Z</time>
      </trkpt>
      <trkpt lat="47.67465" lon="2.1613078">
        <ele>156.0</ele>
        <time>2022-02-17T08:51:07Z</time>
      </trkpt>
      <trkpt lat="47.67465" lon="2.1612906">
        <ele>156.0</ele>
        <time>2022-02-17T08:51:08Z</time>
      </trkpt>
      <trkpt lat="47.674644" lon="2.16127">
        <ele>156.0</ele>
        <time>2022-02-17T08:51:09Z</time>
      </trkpt>
      <trkpt lat="47.67465" lon="2.1612532">
        <ele>156.0</ele>
        <time>2022-02-17T08:51:10Z</time>
      </trkpt>
      <trkpt lat="47.67465" lon="2.1612327">
        <ele>156.0</ele>
        <time>2022-02-17T08:51:11Z</time>
      </trkpt>
      <trkpt lat="47.67465" lon="2.1612105">
        <ele>155.0</ele>
        <time>2022-02-17T08:51:12Z</time>
      </trkpt>
      <trkpt lat="47.674644" lon="2.1611931">
        <ele>155.0</ele>
        <time>2022-02-17T08:51:13Z</time>
      </trkpt>
      <trkpt lat="47.674644" lon="2.1611755">
        <ele>155.0</ele>
        <time>2022-02-17T08:51:14Z</time>
      </trkpt>
      <trkpt lat="47.674644" lon="2.1611567">
        <ele>155.0</ele>
        <time>2022-02-17T08:51:15Z</time>
      </trkpt>
      <trkpt lat="47.674644" lon="2.1611567">
        <ele>155.0</ele>
        <time>2022-02-17T08:51:16Z</time>
      </trkpt>
      <trkpt lat="47.674644" lon="2.1611567">
        <ele>155.0</ele>
        <time>2022-02-17T08:51:17Z</time>
      </trkpt>
      <trkpt lat="47.674644" lon="2.16111">
        <ele>155.0</ele>
        <time>2022-02-17T08:51:18Z</time>
      </trkpt>
      <trkpt lat="47.674644" lon="2.161092">
        <ele>156.0</ele>
        <time>2022-02-17T08:51:19Z</time>
      </trkpt>
      <trkpt lat="47.67465" lon="2.1610775">
        <ele>156.0</ele>
        <time>2022-02-17T08:51:20Z</time>
      </trkpt>
      <trkpt lat="47.674652" lon="2.1610627">
        <ele>156.0</ele>
        <time>2022-02-17T08:51:21Z</time>
      </trkpt>
      <trkpt lat="47.674652" lon="2.1610627">
        <ele>156.0</ele>
        <time>2022-02-17T08:51:22Z</time>
      </trkpt>
      <trkpt lat="47.674652" lon="2.1610627">
        <ele>156.0</ele>
        <time>2022-02-17T08:51:23Z</time>
      </trkpt>
      <trkpt lat="47.674656" lon="2.1610134">
        <ele>156.0</ele>
        <time>2022-02-17T08:51:24Z</time>
      </trkpt>
      <trkpt lat="47.674656" lon="2.1609964">
        <ele>157.0</ele>
        <time>2022-02-17T08:51:25Z</time>
      </trkpt>
      <trkpt lat="47.67466" lon="2.1609786">
        <ele>157.0</ele>
        <time>2022-02-17T08:51:26Z</time>
      </trkpt>
      <trkpt lat="47.67466" lon="2.1609576">
        <ele>157.0</ele>
        <time>2022-02-17T08:51:27Z</time>
      </trkpt>
      <trkpt lat="47.67466" lon="2.1609576">
        <ele>157.0</ele>
        <time>2022-02-17T08:51:28Z</time>
      </trkpt>
      <trkpt lat="47.67466" lon="2.1609576">
        <ele>157.0</ele>
        <time>2022-02-17T08:51:29Z</time>
      </trkpt>
      <trkpt lat="47.674667" lon="2.1609092">
        <ele>158.0</ele>
        <time>2022-02-17T08:51:30Z</time>
      </trkpt>
      <trkpt lat="47.674667" lon="2.1608903">
        <ele>158.0</ele>
        <time>2022-02-17T08:51:31Z</time>
      </trkpt>
      <trkpt lat="47.67467" lon="2.1608706">
        <ele>158.0</ele>
        <time>2022-02-17T08:51:32Z</time>
      </trkpt>
      <trkpt lat="47.67468" lon="2.1608553">
        <ele>158.0</ele>
        <time>2022-02-17T08:51:33Z</time>
      </trkpt>
      <trkpt lat="47.674686" lon="2.1608386">
        <ele>159.0</ele>
        <time>2022-02-17T08:51:34Z</time>
      </trkpt>
      <trkpt lat="47.67469" lon="2.1608217">
        <ele>159.0</ele>
        <time>2022-02-17T08:51:35Z</time>
      </trkpt>
      <trkpt lat="47.67469" lon="2.1608043">
        <ele>160.0</ele>
        <time>2022-02-17T08:51:36Z</time>
      </trkpt>
      <trkpt lat="47.67469" lon="2.1608043">
        <ele>160.0</ele>
        <time>2022-02-17T08:51:37Z</time>
      </trkpt>
      <trkpt lat="47.67469" lon="2.1608043">
        <ele>160.0</ele>
        <time>2022-02-17T08:51:38Z</time>
      </trkpt>
      <trkpt lat="47.6747" lon="2.1607692">
        <ele>159.0</ele>
        <time>2022-02-17T08:51:39Z</time>
      </trkpt>
      <trkpt lat="47.674706" lon="2.1607556">
        <ele>160.0</ele>
        <time>2022-02-17T08:51:40Z</time>
      </trkpt>
      <trkpt lat="47.674706" lon="2.1607459">
        <ele>159.0</ele>
        <time>2022-02-17T08:51:41Z</time>
      </trkpt>
      <trkpt lat="47.67471" lon="2.160736">
        <ele>159.0</ele>
        <time>2022-02-17T08:51:42Z</time>
      </trkpt>
      <trkpt lat="47.67471" lon="2.160736">
        <ele>159.0</ele>
        <time>2022-02-17T08:51:43Z</time>
      </trkpt>
      <trkpt lat="47.67471" lon="2.160736">
        <ele>159.0</ele>
        <time>2022-02-17T08:51:44Z</time>
      </trkpt>
      <trkpt lat="47.674717" lon="2.160706">
        <ele>159.0</ele>
        <time>2022-02-17T08:51:45Z</time>
      </trkpt>
      <trkpt lat="47.67472" lon="2.1606936">
        <ele>160.0</ele>
        <time>2022-02-17T08:51:46Z</time>
      </trkpt>
      <trkpt lat="47.674725" lon="2.1606832">
        <ele>160.0</ele>
        <time>2022-02-17T08:51:47Z</time>
      </trkpt>
      <trkpt lat="47.67473" lon="2.1606743">
        <ele>159.0</ele>
        <time>2022-02-17T08:51:48Z</time>
      </trkpt>
      <trkpt lat="47.67473" lon="2.1606743">
        <ele>159.0</ele>
        <time>2022-02-17T08:51:49Z</time>
      </trkpt>
      <trkpt lat="47.67473" lon="2.1606743">
        <ele>159.0</ele>
        <time>2022-02-17T08:51:50Z</time>
      </trkpt>
      <trkpt lat="47.67474" lon="2.1606452">
        <ele>159.0</ele>
        <time>2022-02-17T08:51:51Z</time>
      </trkpt>
      <trkpt lat="47.67474" lon="2.1606326">
        <ele>159.0</ele>
        <time>2022-02-17T08:51:52Z</time>
      </trkpt>
      <trkpt lat="47.674744" lon="2.1606147">
        <ele>159.0</ele>
        <time>2022-02-17T08:51:53Z</time>
      </trkpt>
      <trkpt lat="47.67475" lon="2.1605968">
        <ele>159.0</ele>
        <time>2022-02-17T08:51:54Z</time>
      </trkpt>
      <trkpt lat="47.67475" lon="2.1605968">
        <ele>159.0</ele>
        <time>2022-02-17T08:51:55Z</time>
      </trkpt>
      <trkpt lat="47.67475" lon="2.1605968">
        <ele>159.0</ele>
        <time>2022-02-17T08:51:56Z</time>
      </trkpt>
      <trkpt lat="47.67476" lon="2.1605685">
        <ele>159.0</ele>
        <time>2022-02-17T08:51:57Z</time>
      </trkpt>
      <trkpt lat="47.674763" lon="2.1605508">
        <ele>159.0</ele>
        <time>2022-02-17T08:51:58Z</time>
      </trkpt>
      <trkpt lat="47.674763" lon="2.1605375">
        <ele>160.0</ele>
        <time>2022-02-17T08:51:59Z</time>
      </trkpt>
      <trkpt lat="47.67477" lon="2.1605196">
        <ele>160.0</ele>
        <time>2022-02-17T08:52:00Z</time>
      </trkpt>
      <trkpt lat="47.674774" lon="2.1604981">
        <ele>160.0</ele>
        <time>2022-02-17T08:52:01Z</time>
      </trkpt>
      <trkpt lat="47.674774" lon="2.16048">
        <ele>160.0</ele>
        <time>2022-02-17T08:52:02Z</time>
      </trkpt>
      <trkpt lat="47.674778" lon="2.1604595">
        <ele>160.0</ele>
        <time>2022-02-17T08:52:03Z</time>
      </trkpt>
      <trkpt lat="47.67478" lon="2.1604416">
        <ele>159.0</ele>
        <time>2022-02-17T08:52:04Z</time>
      </trkpt>
      <trkpt lat="47.67479" lon="2.1604228">
        <ele>158.0</ele>
        <time>2022-02-17T08:52:05Z</time>
      </trkpt>
      <trkpt lat="47.674793" lon="2.1604114">
        <ele>157.0</ele>
        <time>2022-02-17T08:52:06Z</time>
      </trkpt>
      <trkpt lat="47.674793" lon="2.1604114">
        <ele>157.0</ele>
        <time>2022-02-17T08:52:07Z</time>
      </trkpt>
      <trkpt lat="47.674793" lon="2.1604114">
        <ele>157.0</ele>
        <time>2022-02-17T08:52:08Z</time>
      </trkpt>
      <trkpt lat="47.674797" lon="2.160363">
        <ele>156.0</ele>
        <time>2022-02-17T08:52:09Z</time>
      </trkpt>
      <trkpt lat="47.6748" lon="2.160339">
        <ele>156.0</ele>
        <time>2022-02-17T08:52:10Z</time>
      </trkpt>
      <trkpt lat="47.6748" lon="2.1603222">
        <ele>156.0</ele>
        <time>2022-02-17T08:52:11Z</time>
      </trkpt>
      <trkpt lat="47.6748" lon="2.1603034">
        <ele>156.0</ele>
        <time>2022-02-17T08:52:12Z</time>
      </trkpt>
      <trkpt lat="47.6748" lon="2.1603034">
        <ele>156.0</ele>
        <time>2022-02-17T08:52:13Z</time>
      </trkpt>
      <trkpt lat="47.6748" lon="2.1603034">
        <ele>156.0</ele>
        <time>2022-02-17T08:52:14Z</time>
      </trkpt>
      <trkpt lat="47.67481" lon="2.1602595">
        <ele>156.0</ele>
        <time>2022-02-17T08:52:15Z</time>
      </trkpt>
      <trkpt lat="47.674812" lon="2.160241">
        <ele>156.0</ele>
        <time>2022-02-17T08:52:16Z</time>
      </trkpt>
      <trkpt lat="47.674816" lon="2.1602235">
        <ele>156.0</ele>
        <time>2022-02-17T08:52:17Z</time>
      </trkpt>
      <trkpt lat="47.67482" lon="2.1602013">
        <ele>156.0</ele>
        <time>2022-02-17T08:52:18Z</time>
      </trkpt>
      <trkpt lat="47.67482" lon="2.1601777">
        <ele>156.0</ele>
        <time>2022-02-17T08:52:19Z</time>
      </trkpt>
      <trkpt lat="47.674824" lon="2.1601636">
        <ele>156.0</ele>
        <time>2022-02-17T08:52:20Z</time>
      </trkpt>
      <trkpt lat="47.674828" lon="2.1601472">
        <ele>156.0</ele>
        <time>2022-02-17T08:52:21Z</time>
      </trkpt>
      <trkpt lat="47.67483" lon="2.1601343">
        <ele>156.0</ele>
        <time>2022-02-17T08:52:22Z</time>
      </trkpt>
      <trkpt lat="47.674835" lon="2.1601162">
        <ele>155.0</ele>
        <time>2022-02-17T08:52:23Z</time>
      </trkpt>
      <trkpt lat="47.674835" lon="2.1601162">
        <ele>155.0</ele>
        <time>2022-02-17T08:52:24Z</time>
      </trkpt>
      <trkpt lat="47.674835" lon="2.1601162">
        <ele>155.0</ele>
        <time>2022-02-17T08:52:25Z</time>
      </trkpt>
      <trkpt lat="47.674847" lon="2.1600783">
        <ele>155.0</ele>
        <time>2022-02-17T08:52:26Z</time>
      </trkpt>
      <trkpt lat="47.67485" lon="2.1600661">
        <ele>155.0</ele>
        <time>2022-02-17T08:52:27Z</time>
      </trkpt>
      <trkpt lat="47.674854" lon="2.1600473">
        <ele>155.0</ele>
        <time>2022-02-17T08:52:28Z</time>
      </trkpt>
      <trkpt lat="47.674854" lon="2.1600268">
        <ele>155.0</ele>
        <time>2022-02-17T08:52:29Z</time>
      </trkpt>
      <trkpt lat="47.674854" lon="2.1600268">
        <ele>155.0</ele>
        <time>2022-02-17T08:52:30Z</time>
      </trkpt>
      <trkpt lat="47.674854" lon="2.1599934">
        <ele>154.0</ele>
        <time>2022-02-17T08:52:31Z</time>
      </trkpt>
      <trkpt lat="47.674854" lon="2.1599758">
        <ele>153.0</ele>
        <time>2022-02-17T08:52:32Z</time>
      </trkpt>
      <trkpt lat="47.67485" lon="2.1599555">
        <ele>152.0</ele>
        <time>2022-02-17T08:52:33Z</time>
      </trkpt>
      <trkpt lat="47.67485" lon="2.1599422">
        <ele>152.0</ele>
        <time>2022-02-17T08:52:34Z</time>
      </trkpt>
      <trkpt lat="47.67485" lon="2.1599283">
        <ele>152.0</ele>
        <time>2022-02-17T08:52:35Z</time>
      </trkpt>
      <trkpt lat="47.674847" lon="2.1599095">
        <ele>151.0</ele>
        <time>2022-02-17T08:52:36Z</time>
      </trkpt>
      <trkpt lat="47.674847" lon="2.1598952">
        <ele>151.0</ele>
        <time>2022-02-17T08:52:37Z</time>
      </trkpt>
      <trkpt lat="47.674843" lon="2.1598768">
        <ele>151.0</ele>
        <time>2022-02-17T08:52:38Z</time>
      </trkpt>
      <trkpt lat="47.674835" lon="2.1598508">
        <ele>150.0</ele>
        <time>2022-02-17T08:52:39Z</time>
      </trkpt>
      <trkpt lat="47.674835" lon="2.1598508">
        <ele>150.0</ele>
        <time>2022-02-17T08:52:40Z</time>
      </trkpt>
      <trkpt lat="47.674835" lon="2.1598508">
        <ele>150.0</ele>
        <time>2022-02-17T08:52:41Z</time>
      </trkpt>
      <trkpt lat="47.67483" lon="2.1598046">
        <ele>150.0</ele>
        <time>2022-02-17T08:52:42Z</time>
      </trkpt>
      <trkpt lat="47.67483" lon="2.1598048">
        <ele>150.0</ele>
        <time>2022-02-17T08:52:43Z</time>
      </trkpt>
      <trkpt lat="47.674828" lon="2.1597922">
        <ele>150.0</ele>
        <time>2022-02-17T08:52:44Z</time>
      </trkpt>
      <trkpt lat="47.674828" lon="2.1597738">
        <ele>149.0</ele>
        <time>2022-02-17T08:52:45Z</time>
      </trkpt>
      <trkpt lat="47.674828" lon="2.1597738">
        <ele>149.0</ele>
        <time>2022-02-17T08:52:46Z</time>
      </trkpt>
      <trkpt lat="47.674828" lon="2.1597738">
        <ele>149.0</ele>
        <time>2022-02-17T08:52:47Z</time>
      </trkpt>
      <trkpt lat="47.67482" lon="2.1597319">
        <ele>148.0</ele>
        <time>2022-02-17T08:52:48Z</time>
      </trkpt>
      <trkpt lat="47.674816" lon="2.1597137">
        <ele>148.0</ele>
        <time>2022-02-17T08:52:49Z</time>
      </trkpt>
      <trkpt lat="47.67481" lon="2.159697">
        <ele>148.0</ele>
        <time>2022-02-17T08:52:50Z</time>
      </trkpt>
      <trkpt lat="47.674805" lon="2.1596777">
        <ele>148.0</ele>
        <time>2022-02-17T08:52:51Z</time>
      </trkpt>
      <trkpt lat="47.674805" lon="2.159659">
        <ele>148.0</ele>
        <time>2022-02-17T08:52:52Z</time>
      </trkpt>
      <trkpt lat="47.6748" lon="2.1596444">
        <ele>148.0</ele>
        <time>2022-02-17T08:52:53Z</time>
      </trkpt>
      <trkpt lat="47.6748" lon="2.1596236">
        <ele>148.0</ele>
        <time>2022-02-17T08:52:54Z</time>
      </trkpt>
      <trkpt lat="47.6748" lon="2.1596236">
        <ele>148.0</ele>
        <time>2022-02-17T08:52:55Z</time>
      </trkpt>
      <trkpt lat="47.6748" lon="2.1596236">
        <ele>148.0</ele>
        <time>2022-02-17T08:52:56Z</time>
      </trkpt>
      <trkpt lat="47.674797" lon="2.1595733">
        <ele>148.0</ele>
        <time>2022-02-17T08:52:57Z</time>
      </trkpt>
      <trkpt lat="47.674797" lon="2.159557">
        <ele>148.0</ele>
        <time>2022-02-17T08:52:58Z</time>
      </trkpt>
      <trkpt lat="47.67479" lon="2.1595488">
        <ele>148.0</ele>
        <time>2022-02-17T08:52:59Z</time>
      </trkpt>
      <trkpt lat="47.67478" lon="2.1595392">
        <ele>148.0</ele>
        <time>2022-02-17T08:53:00Z</time>
      </trkpt>
      <trkpt lat="47.674778" lon="2.1595294">
        <ele>148.0</ele>
        <time>2022-02-17T08:53:01Z</time>
      </trkpt>
      <trkpt lat="47.674778" lon="2.1595294">
        <ele>148.0</ele>
        <time>2022-02-17T08:53:02Z</time>
      </trkpt>
      <trkpt lat="47.674778" lon="2.1595294">
        <ele>148.0</ele>
        <time>2022-02-17T08:53:03Z</time>
      </trkpt>
      <trkpt lat="47.67477" lon="2.1594856">
        <ele>149.0</ele>
        <time>2022-02-17T08:53:04Z</time>
      </trkpt>
      <trkpt lat="47.674767" lon="2.1594644">
        <ele>148.0</ele>
        <time>2022-02-17T08:53:05Z</time>
      </trkpt>
      <trkpt lat="47.674763" lon="2.1594443">
        <ele>148.0</ele>
        <time>2022-02-17T08:53:06Z</time>
      </trkpt>
      <trkpt lat="47.67476" lon="2.1594274">
        <ele>148.0</ele>
        <time>2022-02-17T08:53:07Z</time>
      </trkpt>
      <trkpt lat="47.674755" lon="2.1594114">
        <ele>147.0</ele>
        <time>2022-02-17T08:53:08Z</time>
      </trkpt>
      <trkpt lat="47.674747" lon="2.1593902">
        <ele>147.0</ele>
        <time>2022-02-17T08:53:09Z</time>
      </trkpt>
      <trkpt lat="47.67474" lon="2.1593666">
        <ele>148.0</ele>
        <time>2022-02-17T08:53:10Z</time>
      </trkpt>
      <trkpt lat="47.674736" lon="2.1593463">
        <ele>148.0</ele>
        <time>2022-02-17T08:53:11Z</time>
      </trkpt>
      <trkpt lat="47.67474" lon="2.1593285">
        <ele>148.0</ele>
        <time>2022-02-17T08:53:12Z</time>
      </trkpt>
      <trkpt lat="47.674736" lon="2.1593072">
        <ele>147.0</ele>
        <time>2022-02-17T08:53:13Z</time>
      </trkpt>
      <trkpt lat="47.674732" lon="2.1592875">
        <ele>147.0</ele>
        <time>2022-02-17T08:53:14Z</time>
      </trkpt>
      <trkpt lat="47.67473" lon="2.1592743">
        <ele>147.0</ele>
        <time>2022-02-17T08:53:15Z</time>
      </trkpt>
      <trkpt lat="47.674725" lon="2.1592622">
        <ele>147.0</ele>
        <time>2022-02-17T08:53:16Z</time>
      </trkpt>
      <trkpt lat="47.674725" lon="2.1592622">
        <ele>147.0</ele>
        <time>2022-02-17T08:53:17Z</time>
      </trkpt>
      <trkpt lat="47.67472" lon="2.159241">
        <ele>148.0</ele>
        <time>2022-02-17T08:53:18Z</time>
      </trkpt>
      <trkpt lat="47.674713" lon="2.1592166">
        <ele>148.0</ele>
        <time>2022-02-17T08:53:19Z</time>
      </trkpt>
      <trkpt lat="47.67471" lon="2.1591985">
        <ele>147.0</ele>
        <time>2022-02-17T08:53:20Z</time>
      </trkpt>
      <trkpt lat="47.674706" lon="2.1591825">
        <ele>147.0</ele>
        <time>2022-02-17T08:53:21Z</time>
      </trkpt>
      <trkpt lat="47.6747" lon="2.159162">
        <ele>146.0</ele>
        <time>2022-02-17T08:53:22Z</time>
      </trkpt>
      <trkpt lat="47.6747" lon="2.159162">
        <ele>146.0</ele>
        <time>2022-02-17T08:53:23Z</time>
      </trkpt>
      <trkpt lat="47.6747" lon="2.159162">
        <ele>146.0</ele>
        <time>2022-02-17T08:53:24Z</time>
      </trkpt>
      <trkpt lat="47.674698" lon="2.1591196">
        <ele>147.0</ele>
        <time>2022-02-17T08:53:25Z</time>
      </trkpt>
      <trkpt lat="47.674694" lon="2.1590986">
        <ele>147.0</ele>
        <time>2022-02-17T08:53:26Z</time>
      </trkpt>
      <trkpt lat="47.674694" lon="2.1590843">
        <ele>147.0</ele>
        <time>2022-02-17T08:53:27Z</time>
      </trkpt>
      <trkpt lat="47.67469" lon="2.1590722">
        <ele>147.0</ele>
        <time>2022-02-17T08:53:28Z</time>
      </trkpt>
      <trkpt lat="47.67469" lon="2.1590722">
        <ele>147.0</ele>
        <time>2022-02-17T08:53:29Z</time>
      </trkpt>
      <trkpt lat="47.67469" lon="2.1590722">
        <ele>147.0</ele>
        <time>2022-02-17T08:53:30Z</time>
      </trkpt>
      <trkpt lat="47.674675" lon="2.1590397">
        <ele>146.0</ele>
        <time>2022-02-17T08:53:31Z</time>
      </trkpt>
      <trkpt lat="47.67467" lon="2.1590214">
        <ele>146.0</ele>
        <time>2022-02-17T08:53:32Z</time>
      </trkpt>
      <trkpt lat="47.674667" lon="2.1590044">
        <ele>146.0</ele>
        <time>2022-02-17T08:53:33Z</time>
      </trkpt>
      <trkpt lat="47.674667" lon="2.158987">
        <ele>146.0</ele>
        <time>2022-02-17T08:53:34Z</time>
      </trkpt>
      <trkpt lat="47.674664" lon="2.1589732">
        <ele>146.0</ele>
        <time>2022-02-17T08:53:35Z</time>
      </trkpt>
      <trkpt lat="47.67466" lon="2.1589563">
        <ele>146.0</ele>
        <time>2022-02-17T08:53:36Z</time>
      </trkpt>
      <trkpt lat="47.674656" lon="2.158941">
        <ele>145.0</ele>
        <time>2022-02-17T08:53:37Z</time>
      </trkpt>
      <trkpt lat="47.674656" lon="2.158941">
        <ele>145.0</ele>
        <time>2022-02-17T08:53:38Z</time>
      </trkpt>
      <trkpt lat="47.674656" lon="2.158941">
        <ele>145.0</ele>
        <time>2022-02-17T08:53:39Z</time>
      </trkpt>
      <trkpt lat="47.67464" lon="2.1588917">
        <ele>144.0</ele>
        <time>2022-02-17T08:53:40Z</time>
      </trkpt>
      <trkpt lat="47.674633" lon="2.158873">
        <ele>144.0</ele>
        <time>2022-02-17T08:53:41Z</time>
      </trkpt>
      <trkpt lat="47.674625" lon="2.1588485">
        <ele>144.0</ele>
        <time>2022-02-17T08:53:42Z</time>
      </trkpt>
      <trkpt lat="47.674618" lon="2.1588295">
        <ele>144.0</ele>
        <time>2022-02-17T08:53:43Z</time>
      </trkpt>
      <trkpt lat="47.674614" lon="2.158807">
        <ele>144.0</ele>
        <time>2022-02-17T08:53:44Z</time>
      </trkpt>
      <trkpt lat="47.674614" lon="2.1587875">
        <ele>144.0</ele>
        <time>2022-02-17T08:53:45Z</time>
      </trkpt>
      <trkpt lat="47.67461" lon="2.1587698">
        <ele>143.0</ele>
        <time>2022-02-17T08:53:46Z</time>
      </trkpt>
      <trkpt lat="47.67461" lon="2.1587522">
        <ele>143.0</ele>
        <time>2022-02-17T08:53:47Z</time>
      </trkpt>
      <trkpt lat="47.674606" lon="2.158734">
        <ele>143.0</ele>
        <time>2022-02-17T08:53:48Z</time>
      </trkpt>
      <trkpt lat="47.674606" lon="2.158734">
        <ele>143.0</ele>
        <time>2022-02-17T08:53:49Z</time>
      </trkpt>
      <trkpt lat="47.674606" lon="2.158734">
        <ele>143.0</ele>
        <time>2022-02-17T08:53:50Z</time>
      </trkpt>
      <trkpt lat="47.6746" lon="2.1586955">
        <ele>142.0</ele>
        <time>2022-02-17T08:53:51Z</time>
      </trkpt>
      <trkpt lat="47.6746" lon="2.1586754">
        <ele>142.0</ele>
        <time>2022-02-17T08:53:52Z</time>
      </trkpt>
      <trkpt lat="47.674595" lon="2.158661">
        <ele>142.0</ele>
        <time>2022-02-17T08:53:53Z</time>
      </trkpt>
      <trkpt lat="47.674595" lon="2.158648">
        <ele>142.0</ele>
        <time>2022-02-17T08:53:54Z</time>
      </trkpt>
      <trkpt lat="47.674595" lon="2.158648">
        <ele>142.0</ele>
        <time>2022-02-17T08:53:55Z</time>
      </trkpt>
      <trkpt lat="47.674595" lon="2.158648">
        <ele>142.0</ele>
        <time>2022-02-17T08:53:56Z</time>
      </trkpt>
      <trkpt lat="47.674583" lon="2.1586115">
        <ele>143.0</ele>
        <time>2022-02-17T08:53:57Z</time>
      </trkpt>
      <trkpt lat="47.67458" lon="2.158596">
        <ele>143.0</ele>
        <time>2022-02-17T08:53:58Z</time>
      </trkpt>
      <trkpt lat="47.674576" lon="2.1585803">
        <ele>143.0</ele>
        <time>2022-02-17T08:53:59Z</time>
      </trkpt>
      <trkpt lat="47.674572" lon="2.158565">
        <ele>144.0</ele>
        <time>2022-02-17T08:54:00Z</time>
      </trkpt>
      <trkpt lat="47.674572" lon="2.158565">
        <ele>144.0</ele>
        <time>2022-02-17T08:54:01Z</time>
      </trkpt>
      <trkpt lat="47.674572" lon="2.158565">
        <ele>144.0</ele>
        <time>2022-02-17T08:54:02Z</time>
      </trkpt>
      <trkpt lat="47.67456" lon="2.158526">
        <ele>144.0</ele>
        <time>2022-02-17T08:54:03Z</time>
      </trkpt>
      <trkpt lat="47.674553" lon="2.1585138">
        <ele>144.0</ele>
        <time>2022-02-17T08:54:04Z</time>
      </trkpt>
      <trkpt lat="47.674553" lon="2.1585019">
        <ele>145.0</ele>
        <time>2022-02-17T08:54:05Z</time>
      </trkpt>
      <trkpt lat="47.67455" lon="2.1584885">
        <ele>146.0</ele>
        <time>2022-02-17T08:54:06Z</time>
      </trkpt>
      <trkpt lat="47.67454" lon="2.1584756">
        <ele>147.0</ele>
        <time>2022-02-17T08:54:07Z</time>
      </trkpt>
      <trkpt lat="47.67454" lon="2.1584756">
        <ele>147.0</ele>
        <time>2022-02-17T08:54:07Z</time>
      </trkpt>
      <trkpt lat="47.67454" lon="2.1584756">
        <ele>147.0</ele>
        <time>2022-02-17T08:54:07Z</time>
      </trkpt>
      <trkpt lat="47.674526" lon="2.1584048">
        <ele>148.0</ele>
        <time>2022-02-17T08:54:13Z</time>
      </trkpt>
      <trkpt lat="47.674522" lon="2.1583939">
        <ele>148.0</ele>
        <time>2022-02-17T08:54:14Z</time>
      </trkpt>
      <trkpt lat="47.674522" lon="2.1583812">
        <ele>149.0</ele>
        <time>2022-02-17T08:54:15Z</time>
      </trkpt>
      <trkpt lat="47.67452" lon="2.1583686">
        <ele>149.0</ele>
        <time>2022-02-17T08:54:16Z</time>
      </trkpt>
      <trkpt lat="47.67452" lon="2.1583686">
        <ele>149.0</ele>
        <time>2022-02-17T08:54:17Z</time>
      </trkpt>
      <trkpt lat="47.67452" lon="2.1583686">
        <ele>149.0</ele>
        <time>2022-02-17T08:54:18Z</time>
      </trkpt>
      <trkpt lat="47.674507" lon="2.1583319">
        <ele>149.0</ele>
        <time>2022-02-17T08:54:19Z</time>
      </trkpt>
      <trkpt lat="47.674507" lon="2.1583142">
        <ele>149.0</ele>
        <time>2022-02-17T08:54:20Z</time>
      </trkpt>
      <trkpt lat="47.674503" lon="2.158304">
        <ele>149.0</ele>
        <time>2022-02-17T08:54:21Z</time>
      </trkpt>
      <trkpt lat="47.674503" lon="2.158292">
        <ele>149.0</ele>
        <time>2022-02-17T08:54:22Z</time>
      </trkpt>
      <trkpt lat="47.674503" lon="2.158292">
        <ele>149.0</ele>
        <time>2022-02-17T08:54:23Z</time>
      </trkpt>
      <trkpt lat="47.674503" lon="2.158292">
        <ele>149.0</ele>
        <time>2022-02-17T08:54:24Z</time>
      </trkpt>
      <trkpt lat="47.674496" lon="2.1582549">
        <ele>149.0</ele>
        <time>2022-02-17T08:54:25Z</time>
      </trkpt>
      <trkpt lat="47.674496" lon="2.158255">
        <ele>149.0</ele>
        <time>2022-02-17T08:54:26Z</time>
      </trkpt>
      <trkpt lat="47.67449" lon="2.158248">
        <ele>149.0</ele>
        <time>2022-02-17T08:54:27Z</time>
      </trkpt>
      <trkpt lat="47.674488" lon="2.1582446">
        <ele>148.0</ele>
        <time>2022-02-17T08:54:28Z</time>
      </trkpt>
      <trkpt lat="47.674488" lon="2.1582446">
        <ele>148.0</ele>
        <time>2022-02-17T08:54:29Z</time>
      </trkpt>
      <trkpt lat="47.674488" lon="2.1582446">
        <ele>148.0</ele>
        <time>2022-02-17T08:54:30Z</time>
      </trkpt>
      <trkpt lat="47.674477" lon="2.1582146">
        <ele>149.0</ele>
        <time>2022-02-17T08:54:31Z</time>
      </trkpt>
      <trkpt lat="47.674477" lon="2.1581986">
        <ele>149.0</ele>
        <time>2022-02-17T08:54:32Z</time>
      </trkpt>
      <trkpt lat="47.67447" lon="2.158184">
        <ele>149.0</ele>
        <time>2022-02-17T08:54:33Z</time>
      </trkpt>
      <trkpt lat="47.67446" lon="2.1581662">
        <ele>149.0</ele>
        <time>2022-02-17T08:54:34Z</time>
      </trkpt>
      <trkpt lat="47.67446" lon="2.1581662">
        <ele>149.0</ele>
        <time>2022-02-17T08:54:35Z</time>
      </trkpt>
      <trkpt lat="47.67446" lon="2.1581662">
        <ele>149.0</ele>
        <time>2022-02-17T08:54:36Z</time>
      </trkpt>
      <trkpt lat="47.674454" lon="2.1581218">
        <ele>149.0</ele>
        <time>2022-02-17T08:54:37Z</time>
      </trkpt>
      <trkpt lat="47.67445" lon="2.1581147">
        <ele>150.0</ele>
        <time>2022-02-17T08:54:38Z</time>
      </trkpt>
      <trkpt lat="47.674446" lon="2.1581023">
        <ele>150.0</ele>
        <time>2022-02-17T08:54:39Z</time>
      </trkpt>
      <trkpt lat="47.674442" lon="2.1580834">
        <ele>150.0</ele>
        <time>2022-02-17T08:54:40Z</time>
      </trkpt>
      <trkpt lat="47.674442" lon="2.15807">
        <ele>151.0</ele>
        <time>2022-02-17T08:54:41Z</time>
      </trkpt>
      <trkpt lat="47.674446" lon="2.1580641">
        <ele>151.0</ele>
        <time>2022-02-17T08:54:42Z</time>
      </trkpt>
      <trkpt lat="47.674442" lon="2.158049">
        <ele>152.0</ele>
        <time>2022-02-17T08:54:43Z</time>
      </trkpt>
      <trkpt lat="47.674442" lon="2.1580389">
        <ele>152.0</ele>
        <time>2022-02-17T08:54:44Z</time>
      </trkpt>
      <trkpt lat="47.674442" lon="2.1580389">
        <ele>152.0</ele>
        <time>2022-02-17T08:54:44Z</time>
      </trkpt>
      <trkpt lat="47.674442" lon="2.1580389">
        <ele>152.0</ele>
        <time>2022-02-17T08:54:44Z</time>
      </trkpt>
      <trkpt lat="47.67442" lon="2.1579757">
        <ele>153.0</ele>
        <time>2022-02-17T08:54:51Z</time>
      </trkpt>
      <trkpt lat="47.67442" lon="2.1579757">
        <ele>153.0</ele>
        <time>2022-02-17T08:54:52Z</time>
      </trkpt>
      <trkpt lat="47.674408" lon="2.1579475">
        <ele>155.0</ele>
        <time>2022-02-17T08:54:53Z</time>
      </trkpt>
      <trkpt lat="47.6744" lon="2.1579394">
        <ele>155.0</ele>
        <time>2022-02-17T08:54:54Z</time>
      </trkpt>
      <trkpt lat="47.674397" lon="2.157928">
        <ele>155.0</ele>
        <time>2022-02-17T08:54:55Z</time>
      </trkpt>
      <trkpt lat="47.674393" lon="2.157924">
        <ele>155.0</ele>
        <time>2022-02-17T08:54:56Z</time>
      </trkpt>
      <trkpt lat="47.674393" lon="2.157924">
        <ele>155.0</ele>
        <time>2022-02-17T08:54:57Z</time>
      </trkpt>
      <trkpt lat="47.674393" lon="2.157924">
        <ele>155.0</ele>
        <time>2022-02-17T08:54:58Z</time>
      </trkpt>
      <trkpt lat="47.674393" lon="2.1578975">
        <ele>155.0</ele>
        <time>2022-02-17T08:54:59Z</time>
      </trkpt>
      <trkpt lat="47.67439" lon="2.1578865">
        <ele>156.0</ele>
        <time>2022-02-17T08:55:00Z</time>
      </trkpt>
      <trkpt lat="47.67439" lon="2.1578772">
        <ele>155.0</ele>
        <time>2022-02-17T08:55:01Z</time>
      </trkpt>
      <trkpt lat="47.67438" lon="2.1578643">
        <ele>155.0</ele>
        <time>2022-02-17T08:55:02Z</time>
      </trkpt>
      <trkpt lat="47.67438" lon="2.1578643">
        <ele>155.0</ele>
        <time>2022-02-17T08:55:02Z</time>
      </trkpt>
      <trkpt lat="47.67438" lon="2.1578643">
        <ele>155.0</ele>
        <time>2022-02-17T08:55:04Z</time>
      </trkpt>
      <trkpt lat="47.67437" lon="2.1578171">
        <ele>155.0</ele>
        <time>2022-02-17T08:55:05Z</time>
      </trkpt>
      <trkpt lat="47.67437" lon="2.1578171">
        <ele>155.0</ele>
        <time>2022-02-17T08:55:05Z</time>
      </trkpt>
      <trkpt lat="47.67437" lon="2.1578012">
        <ele>155.0</ele>
        <time>2022-02-17T08:55:07Z</time>
      </trkpt>
      <trkpt lat="47.67437" lon="2.1577847">
        <ele>155.0</ele>
        <time>2022-02-17T08:55:08Z</time>
      </trkpt>
      <trkpt lat="47.67437" lon="2.1577847">
        <ele>155.0</ele>
        <time>2022-02-17T08:55:09Z</time>
      </trkpt>
      <trkpt lat="47.67437" lon="2.1577847">
        <ele>155.0</ele>
        <time>2022-02-17T08:55:10Z</time>
      </trkpt>
      <trkpt lat="47.674362" lon="2.157739">
        <ele>155.0</ele>
        <time>2022-02-17T08:55:11Z</time>
      </trkpt>
      <trkpt lat="47.674362" lon="2.1577182">
        <ele>156.0</ele>
        <time>2022-02-17T08:55:12Z</time>
      </trkpt>
      <trkpt lat="47.67436" lon="2.1577048">
        <ele>156.0</ele>
        <time>2022-02-17T08:55:13Z</time>
      </trkpt>
      <trkpt lat="47.674355" lon="2.1576898">
        <ele>155.0</ele>
        <time>2022-02-17T08:55:14Z</time>
      </trkpt>
      <trkpt lat="47.67435" lon="2.1576676">
        <ele>156.0</ele>
        <time>2022-02-17T08:55:15Z</time>
      </trkpt>
      <trkpt lat="47.674347" lon="2.1576536">
        <ele>156.0</ele>
        <time>2022-02-17T08:55:16Z</time>
      </trkpt>
      <trkpt lat="47.67434" lon="2.1576385">
        <ele>155.0</ele>
        <time>2022-02-17T08:55:17Z</time>
      </trkpt>
      <trkpt lat="47.674335" lon="2.1576228">
        <ele>156.0</ele>
        <time>2022-02-17T08:55:18Z</time>
      </trkpt>
      <trkpt lat="47.674324" lon="2.1576066">
        <ele>156.0</ele>
        <time>2022-02-17T08:55:19Z</time>
      </trkpt>
      <trkpt lat="47.67432" lon="2.1575892">
        <ele>156.0</ele>
        <time>2022-02-17T08:55:20Z</time>
      </trkpt>
      <trkpt lat="47.674316" lon="2.157574">
        <ele>156.0</ele>
        <time>2022-02-17T08:55:21Z</time>
      </trkpt>
      <trkpt lat="47.674313" lon="2.1575637">
        <ele>157.0</ele>
        <time>2022-02-17T08:55:22Z</time>
      </trkpt>
      <trkpt lat="47.6743" lon="2.1575599">
        <ele>157.0</ele>
        <time>2022-02-17T08:55:23Z</time>
      </trkpt>
      <trkpt lat="47.674294" lon="2.1575377">
        <ele>157.0</ele>
        <time>2022-02-17T08:55:24Z</time>
      </trkpt>
      <trkpt lat="47.67429" lon="2.157523">
        <ele>157.0</ele>
        <time>2022-02-17T08:55:25Z</time>
      </trkpt>
      <trkpt lat="47.67429" lon="2.157523">
        <ele>157.0</ele>
        <time>2022-02-17T08:55:25Z</time>
      </trkpt>
      <trkpt lat="47.674282" lon="2.1574962">
        <ele>156.0</ele>
        <time>2022-02-17T08:55:27Z</time>
      </trkpt>
      <trkpt lat="47.674282" lon="2.1574962">
        <ele>156.0</ele>
        <time>2022-02-17T08:55:28Z</time>
      </trkpt>
      <trkpt lat="47.674282" lon="2.1574962">
        <ele>156.0</ele>
        <time>2022-02-17T08:55:29Z</time>
      </trkpt>
      <trkpt lat="47.674282" lon="2.1574962">
        <ele>156.0</ele>
        <time>2022-02-17T08:55:29Z</time>
      </trkpt>
      <trkpt lat="47.67428" lon="2.1574404">
        <ele>155.0</ele>
        <time>2022-02-17T08:55:31Z</time>
      </trkpt>
      <trkpt lat="47.674274" lon="2.1574252">
        <ele>155.0</ele>
        <time>2022-02-17T08:55:32Z</time>
      </trkpt>
      <trkpt lat="47.67427" lon="2.157414">
        <ele>155.0</ele>
        <time>2022-02-17T08:55:33Z</time>
      </trkpt>
      <trkpt lat="47.67427" lon="2.157414">
        <ele>155.0</ele>
        <time>2022-02-17T08:55:34Z</time>
      </trkpt>
      <trkpt lat="47.67427" lon="2.157414">
        <ele>155.0</ele>
        <time>2022-02-17T08:55:35Z</time>
      </trkpt>
      <trkpt lat="47.674267" lon="2.1573856">
        <ele>156.0</ele>
        <time>2022-02-17T08:55:36Z</time>
      </trkpt>
      <trkpt lat="47.674267" lon="2.1573682">
        <ele>156.0</ele>
        <time>2022-02-17T08:55:37Z</time>
      </trkpt>
      <trkpt lat="47.674263" lon="2.1573553">
        <ele>156.0</ele>
        <time>2022-02-17T08:55:38Z</time>
      </trkpt>
      <trkpt lat="47.674263" lon="2.15734">
        <ele>156.0</ele>
        <time>2022-02-17T08:55:39Z</time>
      </trkpt>
      <trkpt lat="47.674255" lon="2.1573246">
        <ele>156.0</ele>
        <time>2022-02-17T08:55:40Z</time>
      </trkpt>
      <trkpt lat="47.674248" lon="2.1573129">
        <ele>157.0</ele>
        <time>2022-02-17T08:55:41Z</time>
      </trkpt>
      <trkpt lat="47.674236" lon="2.157302">
        <ele>157.0</ele>
        <time>2022-02-17T08:55:42Z</time>
      </trkpt>
      <trkpt lat="47.67423" lon="2.1572895">
        <ele>157.0</ele>
        <time>2022-02-17T08:55:43Z</time>
      </trkpt>
      <trkpt lat="47.67422" lon="2.1572762">
        <ele>157.0</ele>
        <time>2022-02-17T08:55:44Z</time>
      </trkpt>
      <trkpt lat="47.67422" lon="2.1572762">
        <ele>157.0</ele>
        <time>2022-02-17T08:55:45Z</time>
      </trkpt>
      <trkpt lat="47.67422" lon="2.1572762">
        <ele>157.0</ele>
        <time>2022-02-17T08:55:46Z</time>
      </trkpt>
      <trkpt lat="47.674213" lon="2.1572254">
        <ele>156.0</ele>
        <time>2022-02-17T08:55:47Z</time>
      </trkpt>
      <trkpt lat="47.674213" lon="2.1572073">
        <ele>155.0</ele>
        <time>2022-02-17T08:55:48Z</time>
      </trkpt>
      <trkpt lat="47.674206" lon="2.1571937">
        <ele>155.0</ele>
        <time>2022-02-17T08:55:49Z</time>
      </trkpt>
      <trkpt lat="47.674202" lon="2.1571789">
        <ele>155.0</ele>
        <time>2022-02-17T08:55:50Z</time>
      </trkpt>
      <trkpt lat="47.674202" lon="2.1571789">
        <ele>155.0</ele>
        <time>2022-02-17T08:55:51Z</time>
      </trkpt>
      <trkpt lat="47.674202" lon="2.1571789">
        <ele>155.0</ele>
        <time>2022-02-17T08:55:51Z</time>
      </trkpt>
      <trkpt lat="47.674194" lon="2.1571538">
        <ele>155.0</ele>
        <time>2022-02-17T08:55:53Z</time>
      </trkpt>
      <trkpt lat="47.67419" lon="2.1571426">
        <ele>155.0</ele>
        <time>2022-02-17T08:55:54Z</time>
      </trkpt>
      <trkpt lat="47.67419" lon="2.1571426">
        <ele>155.0</ele>
        <time>2022-02-17T08:55:54Z</time>
      </trkpt>
      <trkpt lat="47.67418" lon="2.157132">
        <ele>155.0</ele>
        <time>2022-02-17T08:55:56Z</time>
      </trkpt>
      <trkpt lat="47.67418" lon="2.157132">
        <ele>155.0</ele>
        <time>2022-02-17T08:55:57Z</time>
      </trkpt>
      <trkpt lat="47.67418" lon="2.1571233">
        <ele>155.0</ele>
        <time>2022-02-17T08:55:58Z</time>
      </trkpt>
      <trkpt lat="47.67418" lon="2.1571233">
        <ele>155.0</ele>
        <time>2022-02-17T08:55:59Z</time>
      </trkpt>
      <trkpt lat="47.67418" lon="2.1571233">
        <ele>155.0</ele>
        <time>2022-02-17T08:56:00Z</time>
      </trkpt>
      <trkpt lat="47.674187" lon="2.157109">
        <ele>154.0</ele>
        <time>2022-02-17T08:56:01Z</time>
      </trkpt>
      <trkpt lat="47.674187" lon="2.1571035">
        <ele>154.0</ele>
        <time>2022-02-17T08:56:02Z</time>
      </trkpt>
      <trkpt lat="47.674187" lon="2.1570938">
        <ele>155.0</ele>
        <time>2022-02-17T08:56:03Z</time>
      </trkpt>
      <trkpt lat="47.674187" lon="2.1570938">
        <ele>155.0</ele>
        <time>2022-02-17T08:56:03Z</time>
      </trkpt>
      <trkpt lat="47.67418" lon="2.157085">
        <ele>155.0</ele>
        <time>2022-02-17T08:56:05Z</time>
      </trkpt>
      <trkpt lat="47.67418" lon="2.157085">
        <ele>155.0</ele>
        <time>2022-02-17T08:56:06Z</time>
      </trkpt>
      <trkpt lat="47.674168" lon="2.157063">
        <ele>156.0</ele>
        <time>2022-02-17T08:56:07Z</time>
      </trkpt>
      <trkpt lat="47.674164" lon="2.157054">
        <ele>156.0</ele>
        <time>2022-02-17T08:56:08Z</time>
      </trkpt>
      <trkpt lat="47.67416" lon="2.157036">
        <ele>156.0</ele>
        <time>2022-02-17T08:56:09Z</time>
      </trkpt>
      <trkpt lat="47.67416" lon="2.157022">
        <ele>156.0</ele>
        <time>2022-02-17T08:56:10Z</time>
      </trkpt>
      <trkpt lat="47.67416" lon="2.157022">
        <ele>156.0</ele>
        <time>2022-02-17T08:56:11Z</time>
      </trkpt>
      <trkpt lat="47.67416" lon="2.157022">
        <ele>156.0</ele>
        <time>2022-02-17T08:56:12Z</time>
      </trkpt>
      <trkpt lat="47.67415" lon="2.156978">
        <ele>155.0</ele>
        <time>2022-02-17T08:56:13Z</time>
      </trkpt>
      <trkpt lat="47.674145" lon="2.1569636">
        <ele>154.0</ele>
        <time>2022-02-17T08:56:14Z</time>
      </trkpt>
      <trkpt lat="47.67414" lon="2.156947">
        <ele>154.0</ele>
        <time>2022-02-17T08:56:15Z</time>
      </trkpt>
      <trkpt lat="47.674137" lon="2.1569314">
        <ele>155.0</ele>
        <time>2022-02-17T08:56:16Z</time>
      </trkpt>
      <trkpt lat="47.674137" lon="2.1569157">
        <ele>155.0</ele>
        <time>2022-02-17T08:56:17Z</time>
      </trkpt>
      <trkpt lat="47.674137" lon="2.1569157">
        <ele>155.0</ele>
        <time>2022-02-17T08:56:17Z</time>
      </trkpt>
      <trkpt lat="47.674126" lon="2.1568787">
        <ele>154.0</ele>
        <time>2022-02-17T08:56:19Z</time>
      </trkpt>
      <trkpt lat="47.674126" lon="2.1568787">
        <ele>154.0</ele>
        <time>2022-02-17T08:56:19Z</time>
      </trkpt>
      <trkpt lat="47.67411" lon="2.1568415">
        <ele>154.0</ele>
        <time>2022-02-17T08:56:21Z</time>
      </trkpt>
      <trkpt lat="47.674103" lon="2.1568217">
        <ele>154.0</ele>
        <time>2022-02-17T08:56:22Z</time>
      </trkpt>
      <trkpt lat="47.6741" lon="2.156807">
        <ele>154.0</ele>
        <time>2022-02-17T08:56:23Z</time>
      </trkpt>
      <trkpt lat="47.67409" lon="2.1567905">
        <ele>154.0</ele>
        <time>2022-02-17T08:56:24Z</time>
      </trkpt>
      <trkpt lat="47.674088" lon="2.1567726">
        <ele>153.0</ele>
        <time>2022-02-17T08:56:25Z</time>
      </trkpt>
      <trkpt lat="47.674084" lon="2.1567557">
        <ele>153.0</ele>
        <time>2022-02-17T08:56:26Z</time>
      </trkpt>
      <trkpt lat="47.674076" lon="2.1567347">
        <ele>152.0</ele>
        <time>2022-02-17T08:56:27Z</time>
      </trkpt>
      <trkpt lat="47.674076" lon="2.1567166">
        <ele>151.0</ele>
        <time>2022-02-17T08:56:28Z</time>
      </trkpt>
      <trkpt lat="47.67407" lon="2.156703">
        <ele>151.0</ele>
        <time>2022-02-17T08:56:29Z</time>
      </trkpt>
      <trkpt lat="47.67407" lon="2.156703">
        <ele>151.0</ele>
        <time>2022-02-17T08:56:30Z</time>
      </trkpt>
      <trkpt lat="47.67407" lon="2.156703">
        <ele>151.0</ele>
        <time>2022-02-17T08:56:31Z</time>
      </trkpt>
      <trkpt lat="47.67407" lon="2.156667">
        <ele>152.0</ele>
        <time>2022-02-17T08:56:32Z</time>
      </trkpt>
      <trkpt lat="47.67407" lon="2.1566534">
        <ele>152.0</ele>
        <time>2022-02-17T08:56:33Z</time>
      </trkpt>
      <trkpt lat="47.67407" lon="2.1566367">
        <ele>152.0</ele>
        <time>2022-02-17T08:56:34Z</time>
      </trkpt>
      <trkpt lat="47.67406" lon="2.1566222">
        <ele>151.0</ele>
        <time>2022-02-17T08:56:35Z</time>
      </trkpt>
      <trkpt lat="47.674057" lon="2.1566079">
        <ele>152.0</ele>
        <time>2022-02-17T08:56:36Z</time>
      </trkpt>
      <trkpt lat="47.674053" lon="2.1565979">
        <ele>152.0</ele>
        <time>2022-02-17T08:56:37Z</time>
      </trkpt>
      <trkpt lat="47.674053" lon="2.1565979">
        <ele>152.0</ele>
        <time>2022-02-17T08:56:37Z</time>
      </trkpt>
      <trkpt lat="47.674053" lon="2.1565979">
        <ele>152.0</ele>
        <time>2022-02-17T08:56:39Z</time>
      </trkpt>
      <trkpt lat="47.674046" lon="2.156565">
        <ele>152.0</ele>
        <time>2022-02-17T08:56:40Z</time>
      </trkpt>
      <trkpt lat="47.674046" lon="2.156565">
        <ele>152.0</ele>
        <time>2022-02-17T08:56:40Z</time>
      </trkpt>
      <trkpt lat="47.674038" lon="2.1565351">
        <ele>152.0</ele>
        <time>2022-02-17T08:56:42Z</time>
      </trkpt>
      <trkpt lat="47.67403" lon="2.1565201">
        <ele>151.0</ele>
        <time>2022-02-17T08:56:43Z</time>
      </trkpt>
      <trkpt lat="47.674023" lon="2.1565049">
        <ele>151.0</ele>
        <time>2022-02-17T08:56:44Z</time>
      </trkpt>
      <trkpt lat="47.67402" lon="2.1565042">
        <ele>152.0</ele>
        <time>2022-02-17T08:56:45Z</time>
      </trkpt>
      <trkpt lat="47.674015" lon="2.1565046">
        <ele>152.0</ele>
        <time>2022-02-17T08:56:46Z</time>
      </trkpt>
      <trkpt lat="47.67401" lon="2.1564991">
        <ele>152.0</ele>
        <time>2022-02-17T08:56:47Z</time>
      </trkpt>
      <trkpt lat="47.67401" lon="2.1564991">
        <ele>152.0</ele>
        <time>2022-02-17T08:56:48Z</time>
      </trkpt>
      <trkpt lat="47.67401" lon="2.1564991">
        <ele>152.0</ele>
        <time>2022-02-17T08:56:48Z</time>
      </trkpt>
      <trkpt lat="47.67401" lon="2.1564991">
        <ele>152.0</ele>
        <time>2022-02-17T08:56:48Z</time>
      </trkpt>
      <trkpt lat="47.673992" lon="2.156428">
        <ele>153.0</ele>
        <time>2022-02-17T08:57:02Z</time>
      </trkpt>
      <trkpt lat="47.673992" lon="2.1564262">
        <ele>153.0</ele>
        <time>2022-02-17T08:57:03Z</time>
      </trkpt>
      <trkpt lat="47.673985" lon="2.1564326">
        <ele>154.0</ele>
        <time>2022-02-17T08:57:04Z</time>
      </trkpt>
      <trkpt lat="47.67398" lon="2.1564312">
        <ele>154.0</ele>
        <time>2022-02-17T08:57:05Z</time>
      </trkpt>
      <trkpt lat="47.673977" lon="2.1564238">
        <ele>154.0</ele>
        <time>2022-02-17T08:57:06Z</time>
      </trkpt>
      <trkpt lat="47.673977" lon="2.1564238">
        <ele>154.0</ele>
        <time>2022-02-17T08:57:06Z</time>
      </trkpt>
      <trkpt lat="47.673977" lon="2.1564238">
        <ele>154.0</ele>
        <time>2022-02-17T08:57:06Z</time>
      </trkpt>
      <trkpt lat="47.673977" lon="2.1563458">
        <ele>155.0</ele>
        <time>2022-02-17T08:57:14Z</time>
      </trkpt>
      <trkpt lat="47.673973" lon="2.1563346">
        <ele>155.0</ele>
        <time>2022-02-17T08:57:15Z</time>
      </trkpt>
      <trkpt lat="47.673965" lon="2.1563265">
        <ele>154.0</ele>
        <time>2022-02-17T08:57:16Z</time>
      </trkpt>
      <trkpt lat="47.67396" lon="2.1563165">
        <ele>154.0</ele>
        <time>2022-02-17T08:57:17Z</time>
      </trkpt>
      <trkpt lat="47.67396" lon="2.1563165">
        <ele>154.0</ele>
        <time>2022-02-17T08:57:18Z</time>
      </trkpt>
      <trkpt lat="47.67396" lon="2.1563165">
        <ele>154.0</ele>
        <time>2022-02-17T08:57:19Z</time>
      </trkpt>
      <trkpt lat="47.67395" lon="2.156283">
        <ele>153.0</ele>
        <time>2022-02-17T08:57:20Z</time>
      </trkpt>
      <trkpt lat="47.67395" lon="2.1562667">
        <ele>154.0</ele>
        <time>2022-02-17T08:57:21Z</time>
      </trkpt>
      <trkpt lat="47.673946" lon="2.156252">
        <ele>153.0</ele>
        <time>2022-02-17T08:57:22Z</time>
      </trkpt>
      <trkpt lat="47.673943" lon="2.1562376">
        <ele>154.0</ele>
        <time>2022-02-17T08:57:23Z</time>
      </trkpt>
      <trkpt lat="47.67394" lon="2.1562216">
        <ele>154.0</ele>
        <time>2022-02-17T08:57:24Z</time>
      </trkpt>
      <trkpt lat="47.673935" lon="2.156202">
        <ele>154.0</ele>
        <time>2022-02-17T08:57:25Z</time>
      </trkpt>
      <trkpt lat="47.67393" lon="2.156183">
        <ele>155.0</ele>
        <time>2022-02-17T08:57:26Z</time>
      </trkpt>
      <trkpt lat="47.673927" lon="2.1561654">
        <ele>155.0</ele>
        <time>2022-02-17T08:57:27Z</time>
      </trkpt>
      <trkpt lat="47.673927" lon="2.1561468">
        <ele>155.0</ele>
        <time>2022-02-17T08:57:28Z</time>
      </trkpt>
      <trkpt lat="47.673923" lon="2.15613">
        <ele>155.0</ele>
        <time>2022-02-17T08:57:29Z</time>
      </trkpt>
      <trkpt lat="47.67392" lon="2.1561139">
        <ele>155.0</ele>
        <time>2022-02-17T08:57:30Z</time>
      </trkpt>
      <trkpt lat="47.673916" lon="2.1560934">
        <ele>155.0</ele>
        <time>2022-02-17T08:57:31Z</time>
      </trkpt>
      <trkpt lat="47.673916" lon="2.1560779">
        <ele>155.0</ele>
        <time>2022-02-17T08:57:32Z</time>
      </trkpt>
      <trkpt lat="47.673912" lon="2.1560614">
        <ele>155.0</ele>
        <time>2022-02-17T08:57:33Z</time>
      </trkpt>
      <trkpt lat="47.673904" lon="2.1560473">
        <ele>156.0</ele>
        <time>2022-02-17T08:57:34Z</time>
      </trkpt>
      <trkpt lat="47.67391" lon="2.1560307">
        <ele>156.0</ele>
        <time>2022-02-17T08:57:35Z</time>
      </trkpt>
      <trkpt lat="47.673904" lon="2.1560183">
        <ele>156.0</ele>
        <time>2022-02-17T08:57:36Z</time>
      </trkpt>
      <trkpt lat="47.673904" lon="2.1560183">
        <ele>156.0</ele>
        <time>2022-02-17T08:57:37Z</time>
      </trkpt>
      <trkpt lat="47.6739" lon="2.1559925">
        <ele>155.0</ele>
        <time>2022-02-17T08:57:38Z</time>
      </trkpt>
      <trkpt lat="47.6739" lon="2.155984">
        <ele>155.0</ele>
        <time>2022-02-17T08:57:39Z</time>
      </trkpt>
      <trkpt lat="47.673904" lon="2.1559863">
        <ele>156.0</ele>
        <time>2022-02-17T08:57:40Z</time>
      </trkpt>
      <trkpt lat="47.673897" lon="2.1559782">
        <ele>157.0</ele>
        <time>2022-02-17T08:57:41Z</time>
      </trkpt>
      <trkpt lat="47.673893" lon="2.155966">
        <ele>157.0</ele>
        <time>2022-02-17T08:57:42Z</time>
      </trkpt>
      <trkpt lat="47.673893" lon="2.155966">
        <ele>157.0</ele>
        <time>2022-02-17T08:57:43Z</time>
      </trkpt>
      <trkpt lat="47.673893" lon="2.155966">
        <ele>157.0</ele>
        <time>2022-02-17T08:57:44Z</time>
      </trkpt>
      <trkpt lat="47.673893" lon="2.155966">
        <ele>157.0</ele>
        <time>2022-02-17T08:57:45Z</time>
      </trkpt>
      <trkpt lat="47.673893" lon="2.155966">
        <ele>157.0</ele>
        <time>2022-02-17T08:57:46Z</time>
      </trkpt>
      <trkpt lat="47.673893" lon="2.155966">
        <ele>157.0</ele>
        <time>2022-02-17T08:57:46Z</time>
      </trkpt>
      <trkpt lat="47.673893" lon="2.155966">
        <ele>157.0</ele>
        <time>2022-02-17T08:57:46Z</time>
      </trkpt>
      <trkpt lat="47.673885" lon="2.1558716">
        <ele>158.0</ele>
        <time>2022-02-17T08:58:02Z</time>
      </trkpt>
      <trkpt lat="47.67387" lon="2.1558504">
        <ele>157.0</ele>
        <time>2022-02-17T08:58:04Z</time>
      </trkpt>
      <trkpt lat="47.673866" lon="2.1558325">
        <ele>157.0</ele>
        <time>2022-02-17T08:58:05Z</time>
      </trkpt>
      <trkpt lat="47.673862" lon="2.1558177">
        <ele>157.0</ele>
        <time>2022-02-17T08:58:06Z</time>
      </trkpt>
      <trkpt lat="47.67386" lon="2.1558068">
        <ele>157.0</ele>
        <time>2022-02-17T08:58:07Z</time>
      </trkpt>
      <trkpt lat="47.67385" lon="2.155796">
        <ele>157.0</ele>
        <time>2022-02-17T08:58:08Z</time>
      </trkpt>
      <trkpt lat="47.673843" lon="2.155786">
        <ele>156.0</ele>
        <time>2022-02-17T08:58:09Z</time>
      </trkpt>
      <trkpt lat="47.673836" lon="2.1557739">
        <ele>156.0</ele>
        <time>2022-02-17T08:58:10Z</time>
      </trkpt>
      <trkpt lat="47.67383" lon="2.1557636">
        <ele>156.0</ele>
        <time>2022-02-17T08:58:11Z</time>
      </trkpt>
      <trkpt lat="47.67382" lon="2.1557536">
        <ele>156.0</ele>
        <time>2022-02-17T08:58:12Z</time>
      </trkpt>
      <trkpt lat="47.673813" lon="2.1557407">
        <ele>157.0</ele>
        <time>2022-02-17T08:58:13Z</time>
      </trkpt>
      <trkpt lat="47.67381" lon="2.155733">
        <ele>157.0</ele>
        <time>2022-02-17T08:58:14Z</time>
      </trkpt>
      <trkpt lat="47.6738" lon="2.1557233">
        <ele>156.0</ele>
        <time>2022-02-17T08:58:15Z</time>
      </trkpt>
      <trkpt lat="47.6738" lon="2.155724">
        <ele>156.0</ele>
        <time>2022-02-17T08:58:16Z</time>
      </trkpt>
      <trkpt lat="47.6738" lon="2.155724">
        <ele>156.0</ele>
        <time>2022-02-17T08:58:17Z</time>
      </trkpt>
      <trkpt lat="47.6738" lon="2.155724">
        <ele>156.0</ele>
        <time>2022-02-17T08:58:18Z</time>
      </trkpt>
      <trkpt lat="47.673786" lon="2.1556966">
        <ele>156.0</ele>
        <time>2022-02-17T08:58:19Z</time>
      </trkpt>
      <trkpt lat="47.67378" lon="2.1556845">
        <ele>156.0</ele>
        <time>2022-02-17T08:58:20Z</time>
      </trkpt>
      <trkpt lat="47.67377" lon="2.1556697">
        <ele>155.0</ele>
        <time>2022-02-17T08:58:21Z</time>
      </trkpt>
      <trkpt lat="47.673763" lon="2.155653">
        <ele>155.0</ele>
        <time>2022-02-17T08:58:22Z</time>
      </trkpt>
      <trkpt lat="47.67375" lon="2.1556349">
        <ele>155.0</ele>
        <time>2022-02-17T08:58:23Z</time>
      </trkpt>
      <trkpt lat="47.67374" lon="2.1556227">
        <ele>155.0</ele>
        <time>2022-02-17T08:58:24Z</time>
      </trkpt>
      <trkpt lat="47.673733" lon="2.155607">
        <ele>155.0</ele>
        <time>2022-02-17T08:58:25Z</time>
      </trkpt>
      <trkpt lat="47.67372" lon="2.1555915">
        <ele>156.0</ele>
        <time>2022-02-17T08:58:26Z</time>
      </trkpt>
      <trkpt lat="47.673714" lon="2.1555765">
        <ele>155.0</ele>
        <time>2022-02-17T08:58:27Z</time>
      </trkpt>
      <trkpt lat="47.673706" lon="2.1555612">
        <ele>155.0</ele>
        <time>2022-02-17T08:58:28Z</time>
      </trkpt>
      <trkpt lat="47.6737" lon="2.1555464">
        <ele>155.0</ele>
        <time>2022-02-17T08:58:29Z</time>
      </trkpt>
      <trkpt lat="47.67369" lon="2.1555345">
        <ele>155.0</ele>
        <time>2022-02-17T08:58:30Z</time>
      </trkpt>
      <trkpt lat="47.673687" lon="2.1555226">
        <ele>155.0</ele>
        <time>2022-02-17T08:58:31Z</time>
      </trkpt>
      <trkpt lat="47.67368" lon="2.1555083">
        <ele>155.0</ele>
        <time>2022-02-17T08:58:32Z</time>
      </trkpt>
      <trkpt lat="47.673676" lon="2.1554906">
        <ele>156.0</ele>
        <time>2022-02-17T08:58:33Z</time>
      </trkpt>
      <trkpt lat="47.67367" lon="2.1554782">
        <ele>156.0</ele>
        <time>2022-02-17T08:58:34Z</time>
      </trkpt>
      <trkpt lat="47.673664" lon="2.1554654">
        <ele>156.0</ele>
        <time>2022-02-17T08:58:35Z</time>
      </trkpt>
      <trkpt lat="47.67366" lon="2.1554563">
        <ele>156.0</ele>
        <time>2022-02-17T08:58:36Z</time>
      </trkpt>
      <trkpt lat="47.673656" lon="2.1554449">
        <ele>156.0</ele>
        <time>2022-02-17T08:58:37Z</time>
      </trkpt>
      <trkpt lat="47.673656" lon="2.1554449">
        <ele>156.0</ele>
        <time>2022-02-17T08:58:38Z</time>
      </trkpt>
      <trkpt lat="47.673656" lon="2.1554449">
        <ele>156.0</ele>
        <time>2022-02-17T08:58:39Z</time>
      </trkpt>
      <trkpt lat="47.673637" lon="2.155415">
        <ele>155.0</ele>
        <time>2022-02-17T08:58:40Z</time>
      </trkpt>
      <trkpt lat="47.673634" lon="2.155405">
        <ele>155.0</ele>
        <time>2022-02-17T08:58:41Z</time>
      </trkpt>
      <trkpt lat="47.673626" lon="2.1553962">
        <ele>156.0</ele>
        <time>2022-02-17T08:58:42Z</time>
      </trkpt>
      <trkpt lat="47.673622" lon="2.155384">
        <ele>156.0</ele>
        <time>2022-02-17T08:58:43Z</time>
      </trkpt>
      <trkpt lat="47.673615" lon="2.1553729">
        <ele>156.0</ele>
        <time>2022-02-17T08:58:44Z</time>
      </trkpt>
      <trkpt lat="47.67361" lon="2.1553624">
        <ele>156.0</ele>
        <time>2022-02-17T08:58:45Z</time>
      </trkpt>
      <trkpt lat="47.673607" lon="2.1553543">
        <ele>157.0</ele>
        <time>2022-02-17T08:58:46Z</time>
      </trkpt>
      <trkpt lat="47.6736" lon="2.1553473">
        <ele>157.0</ele>
        <time>2022-02-17T08:58:47Z</time>
      </trkpt>
      <trkpt lat="47.67359" lon="2.155337">
        <ele>157.0</ele>
        <time>2022-02-17T08:58:48Z</time>
      </trkpt>
      <trkpt lat="47.673584" lon="2.155328">
        <ele>157.0</ele>
        <time>2022-02-17T08:58:49Z</time>
      </trkpt>
      <trkpt lat="47.67358" lon="2.1553154">
        <ele>157.0</ele>
        <time>2022-02-17T08:58:50Z</time>
      </trkpt>
      <trkpt lat="47.673573" lon="2.1553047">
        <ele>157.0</ele>
        <time>2022-02-17T08:58:51Z</time>
      </trkpt>
      <trkpt lat="47.67357" lon="2.1552942">
        <ele>157.0</ele>
        <time>2022-02-17T08:58:52Z</time>
      </trkpt>
      <trkpt lat="47.67356" lon="2.1552782">
        <ele>157.0</ele>
        <time>2022-02-17T08:58:53Z</time>
      </trkpt>
      <trkpt lat="47.673553" lon="2.1552622">
        <ele>157.0</ele>
        <time>2022-02-17T08:58:54Z</time>
      </trkpt>
      <trkpt lat="47.673546" lon="2.1552496">
        <ele>157.0</ele>
        <time>2022-02-17T08:58:55Z</time>
      </trkpt>
      <trkpt lat="47.67354" lon="2.1552312">
        <ele>157.0</ele>
        <time>2022-02-17T08:58:56Z</time>
      </trkpt>
      <trkpt lat="47.67353" lon="2.1552176">
        <ele>157.0</ele>
        <time>2022-02-17T08:58:57Z</time>
      </trkpt>
      <trkpt lat="47.673523" lon="2.155205">
        <ele>156.0</ele>
        <time>2022-02-17T08:58:58Z</time>
      </trkpt>
      <trkpt lat="47.673515" lon="2.1551945">
        <ele>156.0</ele>
        <time>2022-02-17T08:58:59Z</time>
      </trkpt>
      <trkpt lat="47.67351" lon="2.1551812">
        <ele>156.0</ele>
        <time>2022-02-17T08:59:00Z</time>
      </trkpt>
      <trkpt lat="47.673504" lon="2.1551683">
        <ele>157.0</ele>
        <time>2022-02-17T08:59:01Z</time>
      </trkpt>
      <trkpt lat="47.6735" lon="2.155155">
        <ele>156.0</ele>
        <time>2022-02-17T08:59:02Z</time>
      </trkpt>
      <trkpt lat="47.673496" lon="2.1551392">
        <ele>156.0</ele>
        <time>2022-02-17T08:59:03Z</time>
      </trkpt>
      <trkpt lat="47.673492" lon="2.1551256">
        <ele>156.0</ele>
        <time>2022-02-17T08:59:04Z</time>
      </trkpt>
      <trkpt lat="47.67349" lon="2.1551116">
        <ele>156.0</ele>
        <time>2022-02-17T08:59:05Z</time>
      </trkpt>
      <trkpt lat="47.673485" lon="2.1550984">
        <ele>156.0</ele>
        <time>2022-02-17T08:59:06Z</time>
      </trkpt>
      <trkpt lat="47.67348" lon="2.1550915">
        <ele>156.0</ele>
        <time>2022-02-17T08:59:07Z</time>
      </trkpt>
      <trkpt lat="47.67348" lon="2.1550915">
        <ele>156.0</ele>
        <time>2022-02-17T08:59:08Z</time>
      </trkpt>
      <trkpt lat="47.67348" lon="2.1550915">
        <ele>156.0</ele>
        <time>2022-02-17T08:59:09Z</time>
      </trkpt>
      <trkpt lat="47.673466" lon="2.1550534">
        <ele>155.0</ele>
        <time>2022-02-17T08:59:10Z</time>
      </trkpt>
      <trkpt lat="47.673462" lon="2.1550364">
        <ele>155.0</ele>
        <time>2022-02-17T08:59:11Z</time>
      </trkpt>
      <trkpt lat="47.67346" lon="2.1550205">
        <ele>155.0</ele>
        <time>2022-02-17T08:59:12Z</time>
      </trkpt>
      <trkpt lat="47.673454" lon="2.1550007">
        <ele>155.0</ele>
        <time>2022-02-17T08:59:13Z</time>
      </trkpt>
      <trkpt lat="47.67345" lon="2.1549792">
        <ele>155.0</ele>
        <time>2022-02-17T08:59:14Z</time>
      </trkpt>
      <trkpt lat="47.673447" lon="2.154964">
        <ele>155.0</ele>
        <time>2022-02-17T08:59:15Z</time>
      </trkpt>
      <trkpt lat="47.67344" lon="2.1549454">
        <ele>155.0</ele>
        <time>2022-02-17T08:59:16Z</time>
      </trkpt>
      <trkpt lat="47.673435" lon="2.1549344">
        <ele>155.0</ele>
        <time>2022-02-17T08:59:17Z</time>
      </trkpt>
      <trkpt lat="47.673435" lon="2.1549206">
        <ele>155.0</ele>
        <time>2022-02-17T08:59:18Z</time>
      </trkpt>
      <trkpt lat="47.673435" lon="2.1549108">
        <ele>155.0</ele>
        <time>2022-02-17T08:59:19Z</time>
      </trkpt>
      <trkpt lat="47.673435" lon="2.1548986">
        <ele>155.0</ele>
        <time>2022-02-17T08:59:20Z</time>
      </trkpt>
      <trkpt lat="47.67344" lon="2.1548824">
        <ele>156.0</ele>
        <time>2022-02-17T08:59:21Z</time>
      </trkpt>
      <trkpt lat="47.673443" lon="2.1548638">
        <ele>156.0</ele>
        <time>2022-02-17T08:59:22Z</time>
      </trkpt>
      <trkpt lat="47.673447" lon="2.1548457">
        <ele>155.0</ele>
        <time>2022-02-17T08:59:23Z</time>
      </trkpt>
      <trkpt lat="47.67345" lon="2.1548274">
        <ele>156.0</ele>
        <time>2022-02-17T08:59:24Z</time>
      </trkpt>
      <trkpt lat="47.673454" lon="2.1548069">
        <ele>155.0</ele>
        <time>2022-02-17T08:59:25Z</time>
      </trkpt>
      <trkpt lat="47.67346" lon="2.1547887">
        <ele>155.0</ele>
        <time>2022-02-17T08:59:26Z</time>
      </trkpt>
      <trkpt lat="47.673462" lon="2.1547713">
        <ele>155.0</ele>
        <time>2022-02-17T08:59:27Z</time>
      </trkpt>
      <trkpt lat="47.67347" lon="2.1547527">
        <ele>155.0</ele>
        <time>2022-02-17T08:59:28Z</time>
      </trkpt>
      <trkpt lat="47.673473" lon="2.1547353">
        <ele>155.0</ele>
        <time>2022-02-17T08:59:29Z</time>
      </trkpt>
      <trkpt lat="47.67348" lon="2.154721">
        <ele>155.0</ele>
        <time>2022-02-17T08:59:30Z</time>
      </trkpt>
      <trkpt lat="47.673485" lon="2.154709">
        <ele>155.0</ele>
        <time>2022-02-17T08:59:31Z</time>
      </trkpt>
      <trkpt lat="47.673492" lon="2.1547">
        <ele>155.0</ele>
        <time>2022-02-17T08:59:32Z</time>
      </trkpt>
      <trkpt lat="47.6735" lon="2.154689">
        <ele>155.0</ele>
        <time>2022-02-17T08:59:33Z</time>
      </trkpt>
      <trkpt lat="47.673508" lon="2.154678">
        <ele>155.0</ele>
        <time>2022-02-17T08:59:34Z</time>
      </trkpt>
      <trkpt lat="47.67351" lon="2.1546636">
        <ele>155.0</ele>
        <time>2022-02-17T08:59:35Z</time>
      </trkpt>
      <trkpt lat="47.67352" lon="2.1546502">
        <ele>156.0</ele>
        <time>2022-02-17T08:59:36Z</time>
      </trkpt>
      <trkpt lat="47.673527" lon="2.1546357">
        <ele>156.0</ele>
        <time>2022-02-17T08:59:37Z</time>
      </trkpt>
      <trkpt lat="47.67353" lon="2.154623">
        <ele>156.0</ele>
        <time>2022-02-17T08:59:38Z</time>
      </trkpt>
      <trkpt lat="47.67354" lon="2.1546104">
        <ele>156.0</ele>
        <time>2022-02-17T08:59:39Z</time>
      </trkpt>
      <trkpt lat="47.673546" lon="2.1545956">
        <ele>155.0</ele>
        <time>2022-02-17T08:59:40Z</time>
      </trkpt>
      <trkpt lat="47.67355" lon="2.154579">
        <ele>155.0</ele>
        <time>2022-02-17T08:59:41Z</time>
      </trkpt>
      <trkpt lat="47.673557" lon="2.1545584">
        <ele>155.0</ele>
        <time>2022-02-17T08:59:42Z</time>
      </trkpt>
      <trkpt lat="47.673565" lon="2.1545413">
        <ele>154.0</ele>
        <time>2022-02-17T08:59:43Z</time>
      </trkpt>
      <trkpt lat="47.67357" lon="2.154528">
        <ele>155.0</ele>
        <time>2022-02-17T08:59:44Z</time>
      </trkpt>
      <trkpt lat="47.673576" lon="2.1545155">
        <ele>154.0</ele>
        <time>2022-02-17T08:59:45Z</time>
      </trkpt>
      <trkpt lat="47.673584" lon="2.154504">
        <ele>155.0</ele>
        <time>2022-02-17T08:59:46Z</time>
      </trkpt>
      <trkpt lat="47.67359" lon="2.1544926">
        <ele>154.0</ele>
        <time>2022-02-17T08:59:47Z</time>
      </trkpt>
      <trkpt lat="47.6736" lon="2.15448">
        <ele>154.0</ele>
        <time>2022-02-17T08:59:48Z</time>
      </trkpt>
      <trkpt lat="47.673607" lon="2.154466">
        <ele>154.0</ele>
        <time>2022-02-17T08:59:49Z</time>
      </trkpt>
      <trkpt lat="47.67362" lon="2.1544518">
        <ele>154.0</ele>
        <time>2022-02-17T08:59:50Z</time>
      </trkpt>
      <trkpt lat="47.673626" lon="2.1544387">
        <ele>154.0</ele>
        <time>2022-02-17T08:59:51Z</time>
      </trkpt>
      <trkpt lat="47.673634" lon="2.1544268">
        <ele>154.0</ele>
        <time>2022-02-17T08:59:52Z</time>
      </trkpt>
      <trkpt lat="47.67364" lon="2.1544135">
        <ele>155.0</ele>
        <time>2022-02-17T08:59:53Z</time>
      </trkpt>
      <trkpt lat="47.67365" lon="2.1544025">
        <ele>155.0</ele>
        <time>2022-02-17T08:59:54Z</time>
      </trkpt>
      <trkpt lat="47.673653" lon="2.1543996">
        <ele>155.0</ele>
        <time>2022-02-17T08:59:55Z</time>
      </trkpt>
      <trkpt lat="47.673653" lon="2.1544006">
        <ele>155.0</ele>
        <time>2022-02-17T08:59:56Z</time>
      </trkpt>
      <trkpt lat="47.673653" lon="2.1544">
        <ele>155.0</ele>
        <time>2022-02-17T08:59:57Z</time>
      </trkpt>
      <trkpt lat="47.673653" lon="2.1544">
        <ele>155.0</ele>
        <time>2022-02-17T08:59:58Z</time>
      </trkpt>
      <trkpt lat="47.67366" lon="2.1543956">
        <ele>156.0</ele>
        <time>2022-02-17T08:59:59Z</time>
      </trkpt>
      <trkpt lat="47.673668" lon="2.1543794">
        <ele>157.0</ele>
        <time>2022-02-17T09:00:00Z</time>
      </trkpt>
      <trkpt lat="47.67367" lon="2.1543698">
        <ele>157.0</ele>
        <time>2022-02-17T09:00:01Z</time>
      </trkpt>
      <trkpt lat="47.67368" lon="2.1543555">
        <ele>157.0</ele>
        <time>2022-02-17T09:00:02Z</time>
      </trkpt>
      <trkpt lat="47.67369" lon="2.154342">
        <ele>157.0</ele>
        <time>2022-02-17T09:00:03Z</time>
      </trkpt>
      <trkpt lat="47.673695" lon="2.1543314">
        <ele>157.0</ele>
        <time>2022-02-17T09:00:04Z</time>
      </trkpt>
      <trkpt lat="47.673702" lon="2.1543193">
        <ele>157.0</ele>
        <time>2022-02-17T09:00:05Z</time>
      </trkpt>
      <trkpt lat="47.67371" lon="2.1543047">
        <ele>157.0</ele>
        <time>2022-02-17T09:00:06Z</time>
      </trkpt>
      <trkpt lat="47.67372" lon="2.154289">
        <ele>157.0</ele>
        <time>2022-02-17T09:00:07Z</time>
      </trkpt>
      <trkpt lat="47.67373" lon="2.154276">
        <ele>157.0</ele>
        <time>2022-02-17T09:00:08Z</time>
      </trkpt>
      <trkpt lat="47.673737" lon="2.15426">
        <ele>157.0</ele>
        <time>2022-02-17T09:00:09Z</time>
      </trkpt>
      <trkpt lat="47.673744" lon="2.1542442">
        <ele>157.0</ele>
        <time>2022-02-17T09:00:10Z</time>
      </trkpt>
      <trkpt lat="47.673756" lon="2.1542304">
        <ele>157.0</ele>
        <time>2022-02-17T09:00:11Z</time>
      </trkpt>
      <trkpt lat="47.673763" lon="2.1542196">
        <ele>158.0</ele>
        <time>2022-02-17T09:00:12Z</time>
      </trkpt>
      <trkpt lat="47.67377" lon="2.154212">
        <ele>158.0</ele>
        <time>2022-02-17T09:00:13Z</time>
      </trkpt>
      <trkpt lat="47.67378" lon="2.1542041">
        <ele>158.0</ele>
        <time>2022-02-17T09:00:14Z</time>
      </trkpt>
      <trkpt lat="47.673786" lon="2.1541936">
        <ele>158.0</ele>
        <time>2022-02-17T09:00:15Z</time>
      </trkpt>
      <trkpt lat="47.673794" lon="2.1541831">
        <ele>159.0</ele>
        <time>2022-02-17T09:00:16Z</time>
      </trkpt>
      <trkpt lat="47.673798" lon="2.1541753">
        <ele>159.0</ele>
        <time>2022-02-17T09:00:17Z</time>
      </trkpt>
      <trkpt lat="47.673805" lon="2.1541667">
        <ele>159.0</ele>
        <time>2022-02-17T09:00:18Z</time>
      </trkpt>
      <trkpt lat="47.67381" lon="2.1541567">
        <ele>159.0</ele>
        <time>2022-02-17T09:00:19Z</time>
      </trkpt>
      <trkpt lat="47.673817" lon="2.1541471">
        <ele>159.0</ele>
        <time>2022-02-17T09:00:20Z</time>
      </trkpt>
      <trkpt lat="47.67383" lon="2.1541345">
        <ele>159.0</ele>
        <time>2022-02-17T09:00:21Z</time>
      </trkpt>
      <trkpt lat="47.67384" lon="2.1541212">
        <ele>159.0</ele>
        <time>2022-02-17T09:00:22Z</time>
      </trkpt>
      <trkpt lat="47.673855" lon="2.1541133">
        <ele>158.0</ele>
        <time>2022-02-17T09:00:23Z</time>
      </trkpt>
      <trkpt lat="47.673862" lon="2.1541042">
        <ele>159.0</ele>
        <time>2022-02-17T09:00:24Z</time>
      </trkpt>
      <trkpt lat="47.67387" lon="2.1540961">
        <ele>158.0</ele>
        <time>2022-02-17T09:00:25Z</time>
      </trkpt>
      <trkpt lat="47.67388" lon="2.154081">
        <ele>158.0</ele>
        <time>2022-02-17T09:00:26Z</time>
      </trkpt>
      <trkpt lat="47.673893" lon="2.1540718">
        <ele>159.0</ele>
        <time>2022-02-17T09:00:27Z</time>
      </trkpt>
      <trkpt lat="47.673904" lon="2.1540635">
        <ele>159.0</ele>
        <time>2022-02-17T09:00:28Z</time>
      </trkpt>
      <trkpt lat="47.673916" lon="2.1540542">
        <ele>159.0</ele>
        <time>2022-02-17T09:00:29Z</time>
      </trkpt>
      <trkpt lat="47.673927" lon="2.154041">
        <ele>159.0</ele>
        <time>2022-02-17T09:00:30Z</time>
      </trkpt>
      <trkpt lat="47.67394" lon="2.1540265">
        <ele>160.0</ele>
        <time>2022-02-17T09:00:31Z</time>
      </trkpt>
      <trkpt lat="47.673946" lon="2.1540115">
        <ele>160.0</ele>
        <time>2022-02-17T09:00:32Z</time>
      </trkpt>
      <trkpt lat="47.673954" lon="2.153995">
        <ele>160.0</ele>
        <time>2022-02-17T09:00:33Z</time>
      </trkpt>
      <trkpt lat="47.67396" lon="2.1539836">
        <ele>160.0</ele>
        <time>2022-02-17T09:00:34Z</time>
      </trkpt>
      <trkpt lat="47.67397" lon="2.1539743">
        <ele>160.0</ele>
        <time>2022-02-17T09:00:35Z</time>
      </trkpt>
      <trkpt lat="47.673973" lon="2.1539657">
        <ele>160.0</ele>
        <time>2022-02-17T09:00:36Z</time>
      </trkpt>
      <trkpt lat="47.67398" lon="2.1539524">
        <ele>160.0</ele>
        <time>2022-02-17T09:00:37Z</time>
      </trkpt>
      <trkpt lat="47.673985" lon="2.1539414">
        <ele>160.0</ele>
        <time>2022-02-17T09:00:38Z</time>
      </trkpt>
      <trkpt lat="47.673992" lon="2.1539292">
        <ele>159.0</ele>
        <time>2022-02-17T09:00:39Z</time>
      </trkpt>
      <trkpt lat="47.674004" lon="2.153916">
        <ele>159.0</ele>
        <time>2022-02-17T09:00:40Z</time>
      </trkpt>
      <trkpt lat="47.67401" lon="2.1539016">
        <ele>159.0</ele>
        <time>2022-02-17T09:00:41Z</time>
      </trkpt>
      <trkpt lat="47.674023" lon="2.1538904">
        <ele>159.0</ele>
        <time>2022-02-17T09:00:42Z</time>
      </trkpt>
      <trkpt lat="47.674034" lon="2.1538768">
        <ele>159.0</ele>
        <time>2022-02-17T09:00:43Z</time>
      </trkpt>
      <trkpt lat="47.674046" lon="2.153864">
        <ele>158.0</ele>
        <time>2022-02-17T09:00:44Z</time>
      </trkpt>
      <trkpt lat="47.674053" lon="2.153851">
        <ele>158.0</ele>
        <time>2022-02-17T09:00:45Z</time>
      </trkpt>
      <trkpt lat="47.67406" lon="2.1538396">
        <ele>159.0</ele>
        <time>2022-02-17T09:00:46Z</time>
      </trkpt>
      <trkpt lat="47.67407" lon="2.153828">
        <ele>159.0</ele>
        <time>2022-02-17T09:00:47Z</time>
      </trkpt>
      <trkpt lat="47.67408" lon="2.1538153">
        <ele>159.0</ele>
        <time>2022-02-17T09:00:48Z</time>
      </trkpt>
      <trkpt lat="47.674084" lon="2.1538048">
        <ele>159.0</ele>
        <time>2022-02-17T09:00:49Z</time>
      </trkpt>
      <trkpt lat="47.67409" lon="2.1537964">
        <ele>159.0</ele>
        <time>2022-02-17T09:00:50Z</time>
      </trkpt>
      <trkpt lat="47.6741" lon="2.1537848">
        <ele>159.0</ele>
        <time>2022-02-17T09:00:51Z</time>
      </trkpt>
      <trkpt lat="47.674107" lon="2.1537704">
        <ele>159.0</ele>
        <time>2022-02-17T09:00:52Z</time>
      </trkpt>
      <trkpt lat="47.674118" lon="2.1537645">
        <ele>160.0</ele>
        <time>2022-02-17T09:00:53Z</time>
      </trkpt>
      <trkpt lat="47.674126" lon="2.1537588">
        <ele>160.0</ele>
        <time>2022-02-17T09:00:54Z</time>
      </trkpt>
      <trkpt lat="47.674137" lon="2.1537488">
        <ele>160.0</ele>
        <time>2022-02-17T09:00:55Z</time>
      </trkpt>
      <trkpt lat="47.674145" lon="2.153731">
        <ele>160.0</ele>
        <time>2022-02-17T09:00:56Z</time>
      </trkpt>
      <trkpt lat="47.674156" lon="2.1537168">
        <ele>160.0</ele>
        <time>2022-02-17T09:00:57Z</time>
      </trkpt>
      <trkpt lat="47.674164" lon="2.1537006">
        <ele>159.0</ele>
        <time>2022-02-17T09:00:58Z</time>
      </trkpt>
      <trkpt lat="47.674175" lon="2.1536891">
        <ele>160.0</ele>
        <time>2022-02-17T09:00:59Z</time>
      </trkpt>
      <trkpt lat="47.674183" lon="2.153679">
        <ele>160.0</ele>
        <time>2022-02-17T09:01:00Z</time>
      </trkpt>
      <trkpt lat="47.674194" lon="2.1536686">
        <ele>160.0</ele>
        <time>2022-02-17T09:01:01Z</time>
      </trkpt>
      <trkpt lat="47.674202" lon="2.1536577">
        <ele>160.0</ele>
        <time>2022-02-17T09:01:02Z</time>
      </trkpt>
      <trkpt lat="47.674213" lon="2.1536481">
        <ele>160.0</ele>
        <time>2022-02-17T09:01:03Z</time>
      </trkpt>
      <trkpt lat="47.674225" lon="2.1536381">
        <ele>159.0</ele>
        <time>2022-02-17T09:01:04Z</time>
      </trkpt>
      <trkpt lat="47.674232" lon="2.1536248">
        <ele>160.0</ele>
        <time>2022-02-17T09:01:05Z</time>
      </trkpt>
      <trkpt lat="47.67424" lon="2.1536126">
        <ele>160.0</ele>
        <time>2022-02-17T09:01:06Z</time>
      </trkpt>
      <trkpt lat="47.674248" lon="2.1535985">
        <ele>160.0</ele>
        <time>2022-02-17T09:01:07Z</time>
      </trkpt>
      <trkpt lat="47.67426" lon="2.1535852">
        <ele>160.0</ele>
        <time>2022-02-17T09:01:08Z</time>
      </trkpt>
      <trkpt lat="47.67427" lon="2.15357">
        <ele>160.0</ele>
        <time>2022-02-17T09:01:09Z</time>
      </trkpt>
      <trkpt lat="47.67428" lon="2.1535563">
        <ele>160.0</ele>
        <time>2022-02-17T09:01:10Z</time>
      </trkpt>
      <trkpt lat="47.674286" lon="2.153542">
        <ele>160.0</ele>
        <time>2022-02-17T09:01:11Z</time>
      </trkpt>
      <trkpt lat="47.674294" lon="2.1535258">
        <ele>161.0</ele>
        <time>2022-02-17T09:01:12Z</time>
      </trkpt>
      <trkpt lat="47.6743" lon="2.153512">
        <ele>161.0</ele>
        <time>2022-02-17T09:01:13Z</time>
      </trkpt>
      <trkpt lat="47.67431" lon="2.1535015">
        <ele>161.0</ele>
        <time>2022-02-17T09:01:14Z</time>
      </trkpt>
      <trkpt lat="47.674316" lon="2.1534903">
        <ele>161.0</ele>
        <time>2022-02-17T09:01:15Z</time>
      </trkpt>
      <trkpt lat="47.674324" lon="2.15348">
        <ele>160.0</ele>
        <time>2022-02-17T09:01:16Z</time>
      </trkpt>
      <trkpt lat="47.67433" lon="2.1534698">
        <ele>161.0</ele>
        <time>2022-02-17T09:01:17Z</time>
      </trkpt>
      <trkpt lat="47.674343" lon="2.153462">
        <ele>161.0</ele>
        <time>2022-02-17T09:01:18Z</time>
      </trkpt>
      <trkpt lat="47.67435" lon="2.1534488">
        <ele>161.0</ele>
        <time>2022-02-17T09:01:19Z</time>
      </trkpt>
      <trkpt lat="47.674366" lon="2.1534357">
        <ele>161.0</ele>
        <time>2022-02-17T09:01:20Z</time>
      </trkpt>
      <trkpt lat="47.674374" lon="2.1534245">
        <ele>161.0</ele>
        <time>2022-02-17T09:01:21Z</time>
      </trkpt>
      <trkpt lat="47.67438" lon="2.1534128">
        <ele>161.0</ele>
        <time>2022-02-17T09:01:22Z</time>
      </trkpt>
      <trkpt lat="47.67439" lon="2.1534011">
        <ele>161.0</ele>
        <time>2022-02-17T09:01:23Z</time>
      </trkpt>
      <trkpt lat="47.674397" lon="2.1533895">
        <ele>160.0</ele>
        <time>2022-02-17T09:01:24Z</time>
      </trkpt>
      <trkpt lat="47.674404" lon="2.1533756">
        <ele>160.0</ele>
        <time>2022-02-17T09:01:25Z</time>
      </trkpt>
      <trkpt lat="47.67441" lon="2.1533628">
        <ele>160.0</ele>
        <time>2022-02-17T09:01:26Z</time>
      </trkpt>
      <trkpt lat="47.67442" lon="2.1533499">
        <ele>160.0</ele>
        <time>2022-02-17T09:01:27Z</time>
      </trkpt>
      <trkpt lat="47.67443" lon="2.153345">
        <ele>160.0</ele>
        <time>2022-02-17T09:01:28Z</time>
      </trkpt>
      <trkpt lat="47.674442" lon="2.1533346">
        <ele>159.0</ele>
        <time>2022-02-17T09:01:29Z</time>
      </trkpt>
      <trkpt lat="47.674454" lon="2.1533206">
        <ele>159.0</ele>
        <time>2022-02-17T09:01:30Z</time>
      </trkpt>
      <trkpt lat="47.674465" lon="2.153303">
        <ele>159.0</ele>
        <time>2022-02-17T09:01:31Z</time>
      </trkpt>
      <trkpt lat="47.674473" lon="2.1532893">
        <ele>159.0</ele>
        <time>2022-02-17T09:01:32Z</time>
      </trkpt>
      <trkpt lat="47.67448" lon="2.1532793">
        <ele>159.0</ele>
        <time>2022-02-17T09:01:33Z</time>
      </trkpt>
      <trkpt lat="47.674488" lon="2.1532655">
        <ele>159.0</ele>
        <time>2022-02-17T09:01:34Z</time>
      </trkpt>
      <trkpt lat="47.6745" lon="2.153251">
        <ele>159.0</ele>
        <time>2022-02-17T09:01:35Z</time>
      </trkpt>
      <trkpt lat="47.674507" lon="2.1532395">
        <ele>159.0</ele>
        <time>2022-02-17T09:01:36Z</time>
      </trkpt>
      <trkpt lat="47.674515" lon="2.1532266">
        <ele>159.0</ele>
        <time>2022-02-17T09:01:37Z</time>
      </trkpt>
      <trkpt lat="47.674522" lon="2.1532104">
        <ele>159.0</ele>
        <time>2022-02-17T09:01:38Z</time>
      </trkpt>
      <trkpt lat="47.674526" lon="2.1532004">
        <ele>159.0</ele>
        <time>2022-02-17T09:01:39Z</time>
      </trkpt>
      <trkpt lat="47.67453" lon="2.1531887">
        <ele>158.0</ele>
        <time>2022-02-17T09:01:40Z</time>
      </trkpt>
      <trkpt lat="47.674538" lon="2.1531782">
        <ele>158.0</ele>
        <time>2022-02-17T09:01:41Z</time>
      </trkpt>
      <trkpt lat="47.674538" lon="2.1531782">
        <ele>158.0</ele>
        <time>2022-02-17T09:01:42Z</time>
      </trkpt>
      <trkpt lat="47.674553" lon="2.1531615">
        <ele>157.0</ele>
        <time>2022-02-17T09:01:43Z</time>
      </trkpt>
      <trkpt lat="47.67456" lon="2.1531525">
        <ele>157.0</ele>
        <time>2022-02-17T09:01:44Z</time>
      </trkpt>
      <trkpt lat="47.67457" lon="2.1531448">
        <ele>157.0</ele>
        <time>2022-02-17T09:01:45Z</time>
      </trkpt>
      <trkpt lat="47.674576" lon="2.1531396">
        <ele>157.0</ele>
        <time>2022-02-17T09:01:46Z</time>
      </trkpt>
      <trkpt lat="47.674583" lon="2.1531308">
        <ele>157.0</ele>
        <time>2022-02-17T09:01:47Z</time>
      </trkpt>
      <trkpt lat="47.67459" lon="2.1531208">
        <ele>157.0</ele>
        <time>2022-02-17T09:01:48Z</time>
      </trkpt>
      <trkpt lat="47.6746" lon="2.1531067">
        <ele>157.0</ele>
        <time>2022-02-17T09:01:49Z</time>
      </trkpt>
      <trkpt lat="47.674606" lon="2.1530936">
        <ele>156.0</ele>
        <time>2022-02-17T09:01:50Z</time>
      </trkpt>
      <trkpt lat="47.674614" lon="2.1530778">
        <ele>156.0</ele>
        <time>2022-02-17T09:01:51Z</time>
      </trkpt>
      <trkpt lat="47.67462" lon="2.153064">
        <ele>155.0</ele>
        <time>2022-02-17T09:01:52Z</time>
      </trkpt>
      <trkpt lat="47.67463" lon="2.15305">
        <ele>155.0</ele>
        <time>2022-02-17T09:01:53Z</time>
      </trkpt>
      <trkpt lat="47.67464" lon="2.153043">
        <ele>155.0</ele>
        <time>2022-02-17T09:01:54Z</time>
      </trkpt>
      <trkpt lat="47.674652" lon="2.1530328">
        <ele>155.0</ele>
        <time>2022-02-17T09:01:55Z</time>
      </trkpt>
      <trkpt lat="47.674664" lon="2.1530216">
        <ele>155.0</ele>
        <time>2022-02-17T09:01:56Z</time>
      </trkpt>
      <trkpt lat="47.674675" lon="2.1530118">
        <ele>156.0</ele>
        <time>2022-02-17T09:01:57Z</time>
      </trkpt>
      <trkpt lat="47.674683" lon="2.1530006">
        <ele>156.0</ele>
        <time>2022-02-17T09:01:58Z</time>
      </trkpt>
      <trkpt lat="47.674694" lon="2.152996">
        <ele>156.0</ele>
        <time>2022-02-17T09:01:59Z</time>
      </trkpt>
      <trkpt lat="47.6747" lon="2.1529908">
        <ele>156.0</ele>
        <time>2022-02-17T09:02:00Z</time>
      </trkpt>
      <trkpt lat="47.674713" lon="2.1529822">
        <ele>155.0</ele>
        <time>2022-02-17T09:02:01Z</time>
      </trkpt>
      <trkpt lat="47.67472" lon="2.1529753">
        <ele>155.0</ele>
        <time>2022-02-17T09:02:02Z</time>
      </trkpt>
      <trkpt lat="47.67473" lon="2.1529672">
        <ele>155.0</ele>
        <time>2022-02-17T09:02:03Z</time>
      </trkpt>
      <trkpt lat="47.674736" lon="2.1529558">
        <ele>156.0</ele>
        <time>2022-02-17T09:02:04Z</time>
      </trkpt>
      <trkpt lat="47.674747" lon="2.152947">
        <ele>156.0</ele>
        <time>2022-02-17T09:02:05Z</time>
      </trkpt>
      <trkpt lat="47.674755" lon="2.1529374">
        <ele>156.0</ele>
        <time>2022-02-17T09:02:06Z</time>
      </trkpt>
      <trkpt lat="47.67476" lon="2.1529217">
        <ele>157.0</ele>
        <time>2022-02-17T09:02:07Z</time>
      </trkpt>
      <trkpt lat="47.67477" lon="2.1529126">
        <ele>157.0</ele>
        <time>2022-02-17T09:02:08Z</time>
      </trkpt>
      <trkpt lat="47.674774" lon="2.1529036">
        <ele>157.0</ele>
        <time>2022-02-17T09:02:09Z</time>
      </trkpt>
      <trkpt lat="47.674786" lon="2.1528943">
        <ele>157.0</ele>
        <time>2022-02-17T09:02:10Z</time>
      </trkpt>
      <trkpt lat="47.674793" lon="2.152886">
        <ele>157.0</ele>
        <time>2022-02-17T09:02:11Z</time>
      </trkpt>
      <trkpt lat="47.674797" lon="2.1528788">
        <ele>158.0</ele>
        <time>2022-02-17T09:02:12Z</time>
      </trkpt>
      <trkpt lat="47.674797" lon="2.1528788">
        <ele>158.0</ele>
        <time>2022-02-17T09:02:13Z</time>
      </trkpt>
      <trkpt lat="47.67481" lon="2.1528585">
        <ele>157.0</ele>
        <time>2022-02-17T09:02:14Z</time>
      </trkpt>
      <trkpt lat="47.674816" lon="2.1528466">
        <ele>157.0</ele>
        <time>2022-02-17T09:02:15Z</time>
      </trkpt>
      <trkpt lat="47.674824" lon="2.1528373">
        <ele>157.0</ele>
        <time>2022-02-17T09:02:16Z</time>
      </trkpt>
      <trkpt lat="47.674835" lon="2.1528258">
        <ele>158.0</ele>
        <time>2022-02-17T09:02:17Z</time>
      </trkpt>
      <trkpt lat="47.674847" lon="2.15281">
        <ele>157.0</ele>
        <time>2022-02-17T09:02:18Z</time>
      </trkpt>
      <trkpt lat="47.674854" lon="2.1527946">
        <ele>157.0</ele>
        <time>2022-02-17T09:02:19Z</time>
      </trkpt>
      <trkpt lat="47.674862" lon="2.1527753">
        <ele>156.0</ele>
        <time>2022-02-17T09:02:20Z</time>
      </trkpt>
      <trkpt lat="47.674873" lon="2.1527593">
        <ele>156.0</ele>
        <time>2022-02-17T09:02:21Z</time>
      </trkpt>
      <trkpt lat="47.674885" lon="2.152744">
        <ele>156.0</ele>
        <time>2022-02-17T09:02:22Z</time>
      </trkpt>
      <trkpt lat="47.674896" lon="2.1527288">
        <ele>156.0</ele>
        <time>2022-02-17T09:02:23Z</time>
      </trkpt>
      <trkpt lat="47.67491" lon="2.1527011">
        <ele>156.0</ele>
        <time>2022-02-17T09:02:25Z</time>
      </trkpt>
      <trkpt lat="47.674915" lon="2.1526859">
        <ele>156.0</ele>
        <time>2022-02-17T09:02:26Z</time>
      </trkpt>
      <trkpt lat="47.674923" lon="2.1526701">
        <ele>156.0</ele>
        <time>2022-02-17T09:02:27Z</time>
      </trkpt>
      <trkpt lat="47.674927" lon="2.1526556">
        <ele>155.0</ele>
        <time>2022-02-17T09:02:28Z</time>
      </trkpt>
      <trkpt lat="47.67493" lon="2.1526387">
        <ele>155.0</ele>
        <time>2022-02-17T09:02:29Z</time>
      </trkpt>
      <trkpt lat="47.67494" lon="2.1526277">
        <ele>155.0</ele>
        <time>2022-02-17T09:02:30Z</time>
      </trkpt>
      <trkpt lat="47.674942" lon="2.1526103">
        <ele>156.0</ele>
        <time>2022-02-17T09:02:31Z</time>
      </trkpt>
      <trkpt lat="47.674953" lon="2.1526022">
        <ele>156.0</ele>
        <time>2022-02-17T09:02:32Z</time>
      </trkpt>
      <trkpt lat="47.674957" lon="2.1525881">
        <ele>156.0</ele>
        <time>2022-02-17T09:02:33Z</time>
      </trkpt>
      <trkpt lat="47.674965" lon="2.1525767">
        <ele>156.0</ele>
        <time>2022-02-17T09:02:34Z</time>
      </trkpt>
      <trkpt lat="47.674973" lon="2.1525624">
        <ele>157.0</ele>
        <time>2022-02-17T09:02:35Z</time>
      </trkpt>
      <trkpt lat="47.674984" lon="2.1525483">
        <ele>157.0</ele>
        <time>2022-02-17T09:02:36Z</time>
      </trkpt>
      <trkpt lat="47.674995" lon="2.152531">
        <ele>157.0</ele>
        <time>2022-02-17T09:02:37Z</time>
      </trkpt>
      <trkpt lat="47.675007" lon="2.1525145">
        <ele>157.0</ele>
        <time>2022-02-17T09:02:38Z</time>
      </trkpt>
      <trkpt lat="47.67502" lon="2.152495">
        <ele>158.0</ele>
        <time>2022-02-17T09:02:39Z</time>
      </trkpt>
      <trkpt lat="47.675022" lon="2.1524823">
        <ele>159.0</ele>
        <time>2022-02-17T09:02:40Z</time>
      </trkpt>
      <trkpt lat="47.675034" lon="2.1524694">
        <ele>159.0</ele>
        <time>2022-02-17T09:02:41Z</time>
      </trkpt>
      <trkpt lat="47.67504" lon="2.1524546">
        <ele>159.0</ele>
        <time>2022-02-17T09:02:42Z</time>
      </trkpt>
      <trkpt lat="47.67505" lon="2.1524374">
        <ele>159.0</ele>
        <time>2022-02-17T09:02:43Z</time>
      </trkpt>
      <trkpt lat="47.675056" lon="2.1524234">
        <ele>159.0</ele>
        <time>2022-02-17T09:02:44Z</time>
      </trkpt>
      <trkpt lat="47.675064" lon="2.1524022">
        <ele>159.0</ele>
        <time>2022-02-17T09:02:45Z</time>
      </trkpt>
      <trkpt lat="47.67507" lon="2.1523857">
        <ele>159.0</ele>
        <time>2022-02-17T09:02:46Z</time>
      </trkpt>
      <trkpt lat="47.67508" lon="2.1523669">
        <ele>159.0</ele>
        <time>2022-02-17T09:02:47Z</time>
      </trkpt>
      <trkpt lat="47.675087" lon="2.1523542">
        <ele>158.0</ele>
        <time>2022-02-17T09:02:48Z</time>
      </trkpt>
      <trkpt lat="47.67509" lon="2.1523395">
        <ele>157.0</ele>
        <time>2022-02-17T09:02:49Z</time>
      </trkpt>
      <trkpt lat="47.67509" lon="2.1523395">
        <ele>157.0</ele>
        <time>2022-02-17T09:02:50Z</time>
      </trkpt>
      <trkpt lat="47.67509" lon="2.1523395">
        <ele>157.0</ele>
        <time>2022-02-17T09:02:51Z</time>
      </trkpt>
      <trkpt lat="47.67511" lon="2.152314">
        <ele>157.0</ele>
        <time>2022-02-17T09:02:52Z</time>
      </trkpt>
      <trkpt lat="47.675114" lon="2.1523051">
        <ele>156.0</ele>
        <time>2022-02-17T09:02:53Z</time>
      </trkpt>
      <trkpt lat="47.67512" lon="2.1522954">
        <ele>156.0</ele>
        <time>2022-02-17T09:02:54Z</time>
      </trkpt>
      <trkpt lat="47.675125" lon="2.1522841">
        <ele>156.0</ele>
        <time>2022-02-17T09:02:55Z</time>
      </trkpt>
      <trkpt lat="47.675125" lon="2.1522841">
        <ele>156.0</ele>
        <time>2022-02-17T09:02:56Z</time>
      </trkpt>
      <trkpt lat="47.675125" lon="2.1522648">
        <ele>156.0</ele>
        <time>2022-02-17T09:02:57Z</time>
      </trkpt>
      <trkpt lat="47.67513" lon="2.1522465">
        <ele>156.0</ele>
        <time>2022-02-17T09:02:58Z</time>
      </trkpt>
      <trkpt lat="47.675137" lon="2.1522279">
        <ele>156.0</ele>
        <time>2022-02-17T09:02:59Z</time>
      </trkpt>
      <trkpt lat="47.675144" lon="2.1522083">
        <ele>156.0</ele>
        <time>2022-02-17T09:03:00Z</time>
      </trkpt>
      <trkpt lat="47.675148" lon="2.1521919">
        <ele>156.0</ele>
        <time>2022-02-17T09:03:01Z</time>
      </trkpt>
      <trkpt lat="47.675156" lon="2.1521792">
        <ele>156.0</ele>
        <time>2022-02-17T09:03:02Z</time>
      </trkpt>
      <trkpt lat="47.675163" lon="2.1521657">
        <ele>156.0</ele>
        <time>2022-02-17T09:03:03Z</time>
      </trkpt>
      <trkpt lat="47.67517" lon="2.152148">
        <ele>156.0</ele>
        <time>2022-02-17T09:03:04Z</time>
      </trkpt>
      <trkpt lat="47.675175" lon="2.1521306">
        <ele>156.0</ele>
        <time>2022-02-17T09:03:05Z</time>
      </trkpt>
      <trkpt lat="47.675182" lon="2.1521146">
        <ele>156.0</ele>
        <time>2022-02-17T09:03:06Z</time>
      </trkpt>
      <trkpt lat="47.67519" lon="2.1520987">
        <ele>156.0</ele>
        <time>2022-02-17T09:03:07Z</time>
      </trkpt>
      <trkpt lat="47.675198" lon="2.152086">
        <ele>157.0</ele>
        <time>2022-02-17T09:03:08Z</time>
      </trkpt>
      <trkpt lat="47.675205" lon="2.1520724">
        <ele>157.0</ele>
        <time>2022-02-17T09:03:09Z</time>
      </trkpt>
      <trkpt lat="47.67521" lon="2.152058">
        <ele>157.0</ele>
        <time>2022-02-17T09:03:10Z</time>
      </trkpt>
      <trkpt lat="47.675213" lon="2.15204">
        <ele>157.0</ele>
        <time>2022-02-17T09:03:11Z</time>
      </trkpt>
      <trkpt lat="47.67522" lon="2.152024">
        <ele>158.0</ele>
        <time>2022-02-17T09:03:12Z</time>
      </trkpt>
      <trkpt lat="47.675224" lon="2.1520088">
        <ele>157.0</ele>
        <time>2022-02-17T09:03:13Z</time>
      </trkpt>
      <trkpt lat="47.675232" lon="2.151998">
        <ele>157.0</ele>
        <time>2022-02-17T09:03:14Z</time>
      </trkpt>
      <trkpt lat="47.67524" lon="2.1519876">
        <ele>157.0</ele>
        <time>2022-02-17T09:03:15Z</time>
      </trkpt>
      <trkpt lat="47.675243" lon="2.151975">
        <ele>157.0</ele>
        <time>2022-02-17T09:03:16Z</time>
      </trkpt>
      <trkpt lat="47.67525" lon="2.151961">
        <ele>157.0</ele>
        <time>2022-02-17T09:03:17Z</time>
      </trkpt>
      <trkpt lat="47.675262" lon="2.1519494">
        <ele>158.0</ele>
        <time>2022-02-17T09:03:18Z</time>
      </trkpt>
      <trkpt lat="47.67527" lon="2.1519392">
        <ele>158.0</ele>
        <time>2022-02-17T09:03:19Z</time>
      </trkpt>
      <trkpt lat="47.67528" lon="2.1519248">
        <ele>158.0</ele>
        <time>2022-02-17T09:03:20Z</time>
      </trkpt>
      <trkpt lat="47.675285" lon="2.151911">
        <ele>158.0</ele>
        <time>2022-02-17T09:03:21Z</time>
      </trkpt>
      <trkpt lat="47.675293" lon="2.1518986">
        <ele>158.0</ele>
        <time>2022-02-17T09:03:22Z</time>
      </trkpt>
      <trkpt lat="47.675297" lon="2.1518872">
        <ele>158.0</ele>
        <time>2022-02-17T09:03:23Z</time>
      </trkpt>
      <trkpt lat="47.6753" lon="2.1518767">
        <ele>158.0</ele>
        <time>2022-02-17T09:03:24Z</time>
      </trkpt>
      <trkpt lat="47.67531" lon="2.1518617">
        <ele>158.0</ele>
        <time>2022-02-17T09:03:25Z</time>
      </trkpt>
      <trkpt lat="47.675312" lon="2.1518512">
        <ele>158.0</ele>
        <time>2022-02-17T09:03:26Z</time>
      </trkpt>
      <trkpt lat="47.67532" lon="2.1518345">
        <ele>158.0</ele>
        <time>2022-02-17T09:03:27Z</time>
      </trkpt>
      <trkpt lat="47.675323" lon="2.151814">
        <ele>158.0</ele>
        <time>2022-02-17T09:03:28Z</time>
      </trkpt>
      <trkpt lat="47.675327" lon="2.1517947">
        <ele>158.0</ele>
        <time>2022-02-17T09:03:29Z</time>
      </trkpt>
      <trkpt lat="47.67533" lon="2.1517763">
        <ele>158.0</ele>
        <time>2022-02-17T09:03:30Z</time>
      </trkpt>
      <trkpt lat="47.67534" lon="2.151757">
        <ele>158.0</ele>
        <time>2022-02-17T09:03:31Z</time>
      </trkpt>
      <trkpt lat="47.67535" lon="2.1517403">
        <ele>158.0</ele>
        <time>2022-02-17T09:03:32Z</time>
      </trkpt>
      <trkpt lat="47.675358" lon="2.1517284">
        <ele>158.0</ele>
        <time>2022-02-17T09:03:33Z</time>
      </trkpt>
      <trkpt lat="47.67536" lon="2.151713">
        <ele>158.0</ele>
        <time>2022-02-17T09:03:34Z</time>
      </trkpt>
      <trkpt lat="47.67537" lon="2.151697">
        <ele>159.0</ele>
        <time>2022-02-17T09:03:35Z</time>
      </trkpt>
      <trkpt lat="47.675377" lon="2.1516786">
        <ele>158.0</ele>
        <time>2022-02-17T09:03:36Z</time>
      </trkpt>
      <trkpt lat="47.67538" lon="2.1516585">
        <ele>158.0</ele>
        <time>2022-02-17T09:03:37Z</time>
      </trkpt>
      <trkpt lat="47.67539" lon="2.1516416">
        <ele>158.0</ele>
        <time>2022-02-17T09:03:38Z</time>
      </trkpt>
      <trkpt lat="47.675396" lon="2.1516285">
        <ele>158.0</ele>
        <time>2022-02-17T09:03:39Z</time>
      </trkpt>
      <trkpt lat="47.675404" lon="2.1516101">
        <ele>158.0</ele>
        <time>2022-02-17T09:03:40Z</time>
      </trkpt>
      <trkpt lat="47.67541" lon="2.151594">
        <ele>158.0</ele>
        <time>2022-02-17T09:03:41Z</time>
      </trkpt>
      <trkpt lat="47.675423" lon="2.151581">
        <ele>157.0</ele>
        <time>2022-02-17T09:03:42Z</time>
      </trkpt>
      <trkpt lat="47.67543" lon="2.1515636">
        <ele>157.0</ele>
        <time>2022-02-17T09:03:43Z</time>
      </trkpt>
      <trkpt lat="47.675438" lon="2.15155">
        <ele>157.0</ele>
        <time>2022-02-17T09:03:44Z</time>
      </trkpt>
      <trkpt lat="47.675446" lon="2.1515322">
        <ele>157.0</ele>
        <time>2022-02-17T09:03:45Z</time>
      </trkpt>
      <trkpt lat="47.675453" lon="2.1515183">
        <ele>157.0</ele>
        <time>2022-02-17T09:03:46Z</time>
      </trkpt>
      <trkpt lat="47.67546" lon="2.1515062">
        <ele>157.0</ele>
        <time>2022-02-17T09:03:47Z</time>
      </trkpt>
      <trkpt lat="47.67547" lon="2.1514957">
        <ele>157.0</ele>
        <time>2022-02-17T09:03:48Z</time>
      </trkpt>
      <trkpt lat="47.675476" lon="2.1514814">
        <ele>157.0</ele>
        <time>2022-02-17T09:03:49Z</time>
      </trkpt>
      <trkpt lat="47.675476" lon="2.1514819">
        <ele>157.0</ele>
        <time>2022-02-17T09:03:50Z</time>
      </trkpt>
      <trkpt lat="47.67548" lon="2.151472">
        <ele>157.0</ele>
        <time>2022-02-17T09:03:51Z</time>
      </trkpt>
      <trkpt lat="47.675488" lon="2.1514595">
        <ele>157.0</ele>
        <time>2022-02-17T09:03:52Z</time>
      </trkpt>
      <trkpt lat="47.67549" lon="2.1514463">
        <ele>156.0</ele>
        <time>2022-02-17T09:03:53Z</time>
      </trkpt>
      <trkpt lat="47.6755" lon="2.1514337">
        <ele>156.0</ele>
        <time>2022-02-17T09:03:54Z</time>
      </trkpt>
      <trkpt lat="47.675507" lon="2.151421">
        <ele>157.0</ele>
        <time>2022-02-17T09:03:55Z</time>
      </trkpt>
      <trkpt lat="47.675514" lon="2.1514103">
        <ele>156.0</ele>
        <time>2022-02-17T09:03:56Z</time>
      </trkpt>
      <trkpt lat="47.675526" lon="2.1513994">
        <ele>156.0</ele>
        <time>2022-02-17T09:03:57Z</time>
      </trkpt>
      <trkpt lat="47.675533" lon="2.1513882">
        <ele>157.0</ele>
        <time>2022-02-17T09:03:58Z</time>
      </trkpt>
      <trkpt lat="47.675545" lon="2.1513793">
        <ele>157.0</ele>
        <time>2022-02-17T09:03:59Z</time>
      </trkpt>
      <trkpt lat="47.675552" lon="2.1513638">
        <ele>158.0</ele>
        <time>2022-02-17T09:04:00Z</time>
      </trkpt>
      <trkpt lat="47.67556" lon="2.1513472">
        <ele>158.0</ele>
        <time>2022-02-17T09:04:01Z</time>
      </trkpt>
      <trkpt lat="47.675575" lon="2.1513333">
        <ele>158.0</ele>
        <time>2022-02-17T09:04:02Z</time>
      </trkpt>
      <trkpt lat="47.675587" lon="2.151322">
        <ele>158.0</ele>
        <time>2022-02-17T09:04:03Z</time>
      </trkpt>
      <trkpt lat="47.6756" lon="2.1513114">
        <ele>158.0</ele>
        <time>2022-02-17T09:04:04Z</time>
      </trkpt>
      <trkpt lat="47.67561" lon="2.1513">
        <ele>158.0</ele>
        <time>2022-02-17T09:04:05Z</time>
      </trkpt>
      <trkpt lat="47.675617" lon="2.151291">
        <ele>158.0</ele>
        <time>2022-02-17T09:04:06Z</time>
      </trkpt>
      <trkpt lat="47.67563" lon="2.1512775">
        <ele>158.0</ele>
        <time>2022-02-17T09:04:07Z</time>
      </trkpt>
      <trkpt lat="47.67564" lon="2.1512625">
        <ele>159.0</ele>
        <time>2022-02-17T09:04:08Z</time>
      </trkpt>
      <trkpt lat="47.675648" lon="2.1512477">
        <ele>159.0</ele>
        <time>2022-02-17T09:04:09Z</time>
      </trkpt>
      <trkpt lat="47.67566" lon="2.151234">
        <ele>159.0</ele>
        <time>2022-02-17T09:04:10Z</time>
      </trkpt>
      <trkpt lat="47.67567" lon="2.1512191">
        <ele>159.0</ele>
        <time>2022-02-17T09:04:11Z</time>
      </trkpt>
      <trkpt lat="47.67568" lon="2.1512036">
        <ele>159.0</ele>
        <time>2022-02-17T09:04:12Z</time>
      </trkpt>
      <trkpt lat="47.67569" lon="2.151191">
        <ele>160.0</ele>
        <time>2022-02-17T09:04:13Z</time>
      </trkpt>
      <trkpt lat="47.675697" lon="2.151181">
        <ele>159.0</ele>
        <time>2022-02-17T09:04:14Z</time>
      </trkpt>
      <trkpt lat="47.67571" lon="2.15117">
        <ele>160.0</ele>
        <time>2022-02-17T09:04:15Z</time>
      </trkpt>
      <trkpt lat="47.67572" lon="2.1511543">
        <ele>160.0</ele>
        <time>2022-02-17T09:04:16Z</time>
      </trkpt>
      <trkpt lat="47.675735" lon="2.1511426">
        <ele>160.0</ele>
        <time>2022-02-17T09:04:17Z</time>
      </trkpt>
      <trkpt lat="47.675743" lon="2.1511304">
        <ele>160.0</ele>
        <time>2022-02-17T09:04:18Z</time>
      </trkpt>
      <trkpt lat="47.675755" lon="2.1511176">
        <ele>160.0</ele>
        <time>2022-02-17T09:04:19Z</time>
      </trkpt>
      <trkpt lat="47.67576" lon="2.1511028">
        <ele>160.0</ele>
        <time>2022-02-17T09:04:20Z</time>
      </trkpt>
      <trkpt lat="47.67577" lon="2.1510878">
        <ele>160.0</ele>
        <time>2022-02-17T09:04:21Z</time>
      </trkpt>
      <trkpt lat="47.675777" lon="2.151074">
        <ele>160.0</ele>
        <time>2022-02-17T09:04:22Z</time>
      </trkpt>
      <trkpt lat="47.675785" lon="2.1510646">
        <ele>160.0</ele>
        <time>2022-02-17T09:04:23Z</time>
      </trkpt>
      <trkpt lat="47.675793" lon="2.1510556">
        <ele>161.0</ele>
        <time>2022-02-17T09:04:24Z</time>
      </trkpt>
      <trkpt lat="47.6758" lon="2.151044">
        <ele>161.0</ele>
        <time>2022-02-17T09:04:25Z</time>
      </trkpt>
      <trkpt lat="47.67581" lon="2.1510303">
        <ele>160.0</ele>
        <time>2022-02-17T09:04:26Z</time>
      </trkpt>
      <trkpt lat="47.675823" lon="2.1510212">
        <ele>160.0</ele>
        <time>2022-02-17T09:04:27Z</time>
      </trkpt>
      <trkpt lat="47.675835" lon="2.1510112">
        <ele>161.0</ele>
        <time>2022-02-17T09:04:28Z</time>
      </trkpt>
      <trkpt lat="47.675842" lon="2.1510003">
        <ele>161.0</ele>
        <time>2022-02-17T09:04:29Z</time>
      </trkpt>
      <trkpt lat="47.675854" lon="2.1509898">
        <ele>161.0</ele>
        <time>2022-02-17T09:04:30Z</time>
      </trkpt>
      <trkpt lat="47.67586" lon="2.1509829">
        <ele>161.0</ele>
        <time>2022-02-17T09:04:31Z</time>
      </trkpt>
      <trkpt lat="47.675873" lon="2.1509776">
        <ele>161.0</ele>
        <time>2022-02-17T09:04:32Z</time>
      </trkpt>
      <trkpt lat="47.67588" lon="2.1509714">
        <ele>161.0</ele>
        <time>2022-02-17T09:04:33Z</time>
      </trkpt>
      <trkpt lat="47.675888" lon="2.1509614">
        <ele>162.0</ele>
        <time>2022-02-17T09:04:34Z</time>
      </trkpt>
      <trkpt lat="47.6759" lon="2.1509478">
        <ele>162.0</ele>
        <time>2022-02-17T09:04:35Z</time>
      </trkpt>
      <trkpt lat="47.67591" lon="2.1509354">
        <ele>161.0</ele>
        <time>2022-02-17T09:04:36Z</time>
      </trkpt>
      <trkpt lat="47.675922" lon="2.1509237">
        <ele>161.0</ele>
        <time>2022-02-17T09:04:37Z</time>
      </trkpt>
      <trkpt lat="47.675934" lon="2.1509125">
        <ele>161.0</ele>
        <time>2022-02-17T09:04:38Z</time>
      </trkpt>
      <trkpt lat="47.675945" lon="2.1509018">
        <ele>161.0</ele>
        <time>2022-02-17T09:04:39Z</time>
      </trkpt>
      <trkpt lat="47.675957" lon="2.1508899">
        <ele>161.0</ele>
        <time>2022-02-17T09:04:40Z</time>
      </trkpt>
      <trkpt lat="47.675964" lon="2.150882">
        <ele>161.0</ele>
        <time>2022-02-17T09:04:41Z</time>
      </trkpt>
      <trkpt lat="47.675972" lon="2.1508725">
        <ele>162.0</ele>
        <time>2022-02-17T09:04:42Z</time>
      </trkpt>
      <trkpt lat="47.675983" lon="2.1508646">
        <ele>162.0</ele>
        <time>2022-02-17T09:04:43Z</time>
      </trkpt>
      <trkpt lat="47.67599" lon="2.1508546">
        <ele>162.0</ele>
        <time>2022-02-17T09:04:44Z</time>
      </trkpt>
      <trkpt lat="47.676003" lon="2.1508455">
        <ele>162.0</ele>
        <time>2022-02-17T09:04:45Z</time>
      </trkpt>
      <trkpt lat="47.67601" lon="2.1508362">
        <ele>162.0</ele>
        <time>2022-02-17T09:04:46Z</time>
      </trkpt>
      <trkpt lat="47.676018" lon="2.1508253">
        <ele>161.0</ele>
        <time>2022-02-17T09:04:47Z</time>
      </trkpt>
      <trkpt lat="47.67603" lon="2.150816">
        <ele>161.0</ele>
        <time>2022-02-17T09:04:48Z</time>
      </trkpt>
      <trkpt lat="47.67604" lon="2.1508067">
        <ele>161.0</ele>
        <time>2022-02-17T09:04:49Z</time>
      </trkpt>
      <trkpt lat="47.676052" lon="2.1507995">
        <ele>162.0</ele>
        <time>2022-02-17T09:04:50Z</time>
      </trkpt>
      <trkpt lat="47.676064" lon="2.1507914">
        <ele>162.0</ele>
        <time>2022-02-17T09:04:51Z</time>
      </trkpt>
      <trkpt lat="47.67607" lon="2.150783">
        <ele>162.0</ele>
        <time>2022-02-17T09:04:52Z</time>
      </trkpt>
      <trkpt lat="47.67608" lon="2.1507747">
        <ele>162.0</ele>
        <time>2022-02-17T09:04:53Z</time>
      </trkpt>
      <trkpt lat="47.67609" lon="2.1507664">
        <ele>162.0</ele>
        <time>2022-02-17T09:04:54Z</time>
      </trkpt>
      <trkpt lat="47.676098" lon="2.150759">
        <ele>162.0</ele>
        <time>2022-02-17T09:04:55Z</time>
      </trkpt>
      <trkpt lat="47.67611" lon="2.15075">
        <ele>163.0</ele>
        <time>2022-02-17T09:04:56Z</time>
      </trkpt>
      <trkpt lat="47.67612" lon="2.150743">
        <ele>163.0</ele>
        <time>2022-02-17T09:04:57Z</time>
      </trkpt>
      <trkpt lat="47.676132" lon="2.1507351">
        <ele>163.0</ele>
        <time>2022-02-17T09:04:58Z</time>
      </trkpt>
      <trkpt lat="47.67614" lon="2.1507275">
        <ele>163.0</ele>
        <time>2022-02-17T09:04:59Z</time>
      </trkpt>
      <trkpt lat="47.676155" lon="2.1507185">
        <ele>163.0</ele>
        <time>2022-02-17T09:05:00Z</time>
      </trkpt>
      <trkpt lat="47.676163" lon="2.1507084">
        <ele>163.0</ele>
        <time>2022-02-17T09:05:01Z</time>
      </trkpt>
      <trkpt lat="47.67617" lon="2.1506953">
        <ele>162.0</ele>
        <time>2022-02-17T09:05:02Z</time>
      </trkpt>
      <trkpt lat="47.67618" lon="2.1506827">
        <ele>162.0</ele>
        <time>2022-02-17T09:05:03Z</time>
      </trkpt>
      <trkpt lat="47.67619" lon="2.15067">
        <ele>162.0</ele>
        <time>2022-02-17T09:05:04Z</time>
      </trkpt>
      <trkpt lat="47.6762" lon="2.1506596">
        <ele>162.0</ele>
        <time>2022-02-17T09:05:05Z</time>
      </trkpt>
      <trkpt lat="47.676212" lon="2.15065">
        <ele>162.0</ele>
        <time>2022-02-17T09:05:06Z</time>
      </trkpt>
      <trkpt lat="47.67622" lon="2.150639">
        <ele>162.0</ele>
        <time>2022-02-17T09:05:07Z</time>
      </trkpt>
      <trkpt lat="47.676228" lon="2.1506314">
        <ele>161.0</ele>
        <time>2022-02-17T09:05:08Z</time>
      </trkpt>
      <trkpt lat="47.67624" lon="2.1506248">
        <ele>161.0</ele>
        <time>2022-02-17T09:05:09Z</time>
      </trkpt>
      <trkpt lat="47.676247" lon="2.1506155">
        <ele>162.0</ele>
        <time>2022-02-17T09:05:10Z</time>
      </trkpt>
      <trkpt lat="47.676258" lon="2.1506045">
        <ele>162.0</ele>
        <time>2022-02-17T09:05:11Z</time>
      </trkpt>
      <trkpt lat="47.67627" lon="2.1505916">
        <ele>162.0</ele>
        <time>2022-02-17T09:05:12Z</time>
      </trkpt>
      <trkpt lat="47.676277" lon="2.150575">
        <ele>162.0</ele>
        <time>2022-02-17T09:05:13Z</time>
      </trkpt>
      <trkpt lat="47.676285" lon="2.150564">
        <ele>163.0</ele>
        <time>2022-02-17T09:05:14Z</time>
      </trkpt>
      <trkpt lat="47.676292" lon="2.1505492">
        <ele>163.0</ele>
        <time>2022-02-17T09:05:15Z</time>
      </trkpt>
      <trkpt lat="47.676304" lon="2.1505394">
        <ele>162.0</ele>
        <time>2022-02-17T09:05:16Z</time>
      </trkpt>
      <trkpt lat="47.676315" lon="2.1505318">
        <ele>162.0</ele>
        <time>2022-02-17T09:05:17Z</time>
      </trkpt>
      <trkpt lat="47.67633" lon="2.1505263">
        <ele>162.0</ele>
        <time>2022-02-17T09:05:18Z</time>
      </trkpt>
      <trkpt lat="47.676342" lon="2.1505206">
        <ele>162.0</ele>
        <time>2022-02-17T09:05:19Z</time>
      </trkpt>
      <trkpt lat="47.67635" lon="2.1505175">
        <ele>162.0</ele>
        <time>2022-02-17T09:05:20Z</time>
      </trkpt>
      <trkpt lat="47.676365" lon="2.1505127">
        <ele>162.0</ele>
        <time>2022-02-17T09:05:21Z</time>
      </trkpt>
      <trkpt lat="47.676376" lon="2.1505084">
        <ele>163.0</ele>
        <time>2022-02-17T09:05:22Z</time>
      </trkpt>
      <trkpt lat="47.676388" lon="2.150507">
        <ele>163.0</ele>
        <time>2022-02-17T09:05:23Z</time>
      </trkpt>
      <trkpt lat="47.6764" lon="2.1504993">
        <ele>163.0</ele>
        <time>2022-02-17T09:05:24Z</time>
      </trkpt>
      <trkpt lat="47.676414" lon="2.150496">
        <ele>163.0</ele>
        <time>2022-02-17T09:05:25Z</time>
      </trkpt>
      <trkpt lat="47.676426" lon="2.1504889">
        <ele>163.0</ele>
        <time>2022-02-17T09:05:26Z</time>
      </trkpt>
      <trkpt lat="47.676434" lon="2.1504848">
        <ele>164.0</ele>
        <time>2022-02-17T09:05:27Z</time>
      </trkpt>
      <trkpt lat="47.676445" lon="2.1504824">
        <ele>164.0</ele>
        <time>2022-02-17T09:05:28Z</time>
      </trkpt>
      <trkpt lat="47.676453" lon="2.1504762">
        <ele>164.0</ele>
        <time>2022-02-17T09:05:29Z</time>
      </trkpt>
      <trkpt lat="47.676464" lon="2.1504683">
        <ele>165.0</ele>
        <time>2022-02-17T09:05:30Z</time>
      </trkpt>
      <trkpt lat="47.676476" lon="2.15046">
        <ele>165.0</ele>
        <time>2022-02-17T09:05:31Z</time>
      </trkpt>
      <trkpt lat="47.676487" lon="2.150454">
        <ele>165.0</ele>
        <time>2022-02-17T09:05:32Z</time>
      </trkpt>
      <trkpt lat="47.6765" lon="2.150447">
        <ele>165.0</ele>
        <time>2022-02-17T09:05:33Z</time>
      </trkpt>
      <trkpt lat="47.67651" lon="2.150439">
        <ele>165.0</ele>
        <time>2022-02-17T09:05:34Z</time>
      </trkpt>
      <trkpt lat="47.67652" lon="2.150431">
        <ele>164.0</ele>
        <time>2022-02-17T09:05:35Z</time>
      </trkpt>
      <trkpt lat="47.67653" lon="2.1504245">
        <ele>164.0</ele>
        <time>2022-02-17T09:05:36Z</time>
      </trkpt>
      <trkpt lat="47.67654" lon="2.150415">
        <ele>164.0</ele>
        <time>2022-02-17T09:05:37Z</time>
      </trkpt>
      <trkpt lat="47.676548" lon="2.1504083">
        <ele>164.0</ele>
        <time>2022-02-17T09:05:38Z</time>
      </trkpt>
      <trkpt lat="47.676556" lon="2.1504002">
        <ele>164.0</ele>
        <time>2022-02-17T09:05:39Z</time>
      </trkpt>
      <trkpt lat="47.676567" lon="2.1503944">
        <ele>163.0</ele>
        <time>2022-02-17T09:05:40Z</time>
      </trkpt>
      <trkpt lat="47.67658" lon="2.1503904">
        <ele>164.0</ele>
        <time>2022-02-17T09:05:41Z</time>
      </trkpt>
      <trkpt lat="47.67659" lon="2.1503808">
        <ele>164.0</ele>
        <time>2022-02-17T09:05:42Z</time>
      </trkpt>
      <trkpt lat="47.6766" lon="2.150376">
        <ele>164.0</ele>
        <time>2022-02-17T09:05:43Z</time>
      </trkpt>
      <trkpt lat="47.676613" lon="2.150377">
        <ele>165.0</ele>
        <time>2022-02-17T09:05:44Z</time>
      </trkpt>
      <trkpt lat="47.67663" lon="2.1503744">
        <ele>165.0</ele>
        <time>2022-02-17T09:05:45Z</time>
      </trkpt>
      <trkpt lat="47.676643" lon="2.150371">
        <ele>166.0</ele>
        <time>2022-02-17T09:05:46Z</time>
      </trkpt>
      <trkpt lat="47.676655" lon="2.1503634">
        <ele>166.0</ele>
        <time>2022-02-17T09:05:47Z</time>
      </trkpt>
      <trkpt lat="47.676662" lon="2.1503549">
        <ele>166.0</ele>
        <time>2022-02-17T09:05:48Z</time>
      </trkpt>
      <trkpt lat="47.676674" lon="2.1503491">
        <ele>166.0</ele>
        <time>2022-02-17T09:05:49Z</time>
      </trkpt>
      <trkpt lat="47.67669" lon="2.150344">
        <ele>167.0</ele>
        <time>2022-02-17T09:05:50Z</time>
      </trkpt>
      <trkpt lat="47.6767" lon="2.1503398">
        <ele>167.0</ele>
        <time>2022-02-17T09:05:51Z</time>
      </trkpt>
      <trkpt lat="47.676712" lon="2.1503358">
        <ele>167.0</ele>
        <time>2022-02-17T09:05:52Z</time>
      </trkpt>
      <trkpt lat="47.676723" lon="2.1503298">
        <ele>167.0</ele>
        <time>2022-02-17T09:05:53Z</time>
      </trkpt>
      <trkpt lat="47.676735" lon="2.1503267">
        <ele>167.0</ele>
        <time>2022-02-17T09:05:54Z</time>
      </trkpt>
      <trkpt lat="47.676746" lon="2.150324">
        <ele>167.0</ele>
        <time>2022-02-17T09:05:55Z</time>
      </trkpt>
      <trkpt lat="47.67676" lon="2.1503193">
        <ele>168.0</ele>
        <time>2022-02-17T09:05:56Z</time>
      </trkpt>
      <trkpt lat="47.67677" lon="2.150312">
        <ele>168.0</ele>
        <time>2022-02-17T09:05:57Z</time>
      </trkpt>
      <trkpt lat="47.67678" lon="2.1503043">
        <ele>168.0</ele>
        <time>2022-02-17T09:05:58Z</time>
      </trkpt>
      <trkpt lat="47.676796" lon="2.1502974">
        <ele>168.0</ele>
        <time>2022-02-17T09:05:59Z</time>
      </trkpt>
      <trkpt lat="47.676804" lon="2.1502888">
        <ele>168.0</ele>
        <time>2022-02-17T09:06:00Z</time>
      </trkpt>
      <trkpt lat="47.67682" lon="2.1502845">
        <ele>168.0</ele>
        <time>2022-02-17T09:06:01Z</time>
      </trkpt>
      <trkpt lat="47.676826" lon="2.1502767">
        <ele>168.0</ele>
        <time>2022-02-17T09:06:02Z</time>
      </trkpt>
      <trkpt lat="47.676838" lon="2.1502647">
        <ele>167.0</ele>
        <time>2022-02-17T09:06:03Z</time>
      </trkpt>
      <trkpt lat="47.67685" lon="2.1502562">
        <ele>167.0</ele>
        <time>2022-02-17T09:06:04Z</time>
      </trkpt>
      <trkpt lat="47.67686" lon="2.1502526">
        <ele>166.0</ele>
        <time>2022-02-17T09:06:05Z</time>
      </trkpt>
      <trkpt lat="47.676872" lon="2.1502457">
        <ele>166.0</ele>
        <time>2022-02-17T09:06:06Z</time>
      </trkpt>
      <trkpt lat="47.67688" lon="2.1502392">
        <ele>167.0</ele>
        <time>2022-02-17T09:06:07Z</time>
      </trkpt>
      <trkpt lat="47.67689" lon="2.1502323">
        <ele>166.0</ele>
        <time>2022-02-17T09:06:08Z</time>
      </trkpt>
      <trkpt lat="47.676907" lon="2.1502268">
        <ele>167.0</ele>
        <time>2022-02-17T09:06:09Z</time>
      </trkpt>
      <trkpt lat="47.676914" lon="2.1502182">
        <ele>166.0</ele>
        <time>2022-02-17T09:06:10Z</time>
      </trkpt>
      <trkpt lat="47.67692" lon="2.150209">
        <ele>166.0</ele>
        <time>2022-02-17T09:06:11Z</time>
      </trkpt>
      <trkpt lat="47.67693" lon="2.1502037">
        <ele>165.0</ele>
        <time>2022-02-17T09:06:12Z</time>
      </trkpt>
      <trkpt lat="47.676937" lon="2.1502004">
        <ele>165.0</ele>
        <time>2022-02-17T09:06:13Z</time>
      </trkpt>
      <trkpt lat="47.67695" lon="2.1501973">
        <ele>165.0</ele>
        <time>2022-02-17T09:06:14Z</time>
      </trkpt>
      <trkpt lat="47.67696" lon="2.1501925">
        <ele>165.0</ele>
        <time>2022-02-17T09:06:15Z</time>
      </trkpt>
      <trkpt lat="47.676968" lon="2.1501853">
        <ele>165.0</ele>
        <time>2022-02-17T09:06:16Z</time>
      </trkpt>
      <trkpt lat="47.67698" lon="2.1501815">
        <ele>165.0</ele>
        <time>2022-02-17T09:06:17Z</time>
      </trkpt>
      <trkpt lat="47.676994" lon="2.1501768">
        <ele>166.0</ele>
        <time>2022-02-17T09:06:18Z</time>
      </trkpt>
      <trkpt lat="47.67701" lon="2.1501741">
        <ele>166.0</ele>
        <time>2022-02-17T09:06:19Z</time>
      </trkpt>
      <trkpt lat="47.677025" lon="2.1501687">
        <ele>166.0</ele>
        <time>2022-02-17T09:06:20Z</time>
      </trkpt>
      <trkpt lat="47.677036" lon="2.1501615">
        <ele>166.0</ele>
        <time>2022-02-17T09:06:21Z</time>
      </trkpt>
      <trkpt lat="47.677044" lon="2.150157">
        <ele>166.0</ele>
        <time>2022-02-17T09:06:22Z</time>
      </trkpt>
      <trkpt lat="47.67705" lon="2.1501505">
        <ele>166.0</ele>
        <time>2022-02-17T09:06:23Z</time>
      </trkpt>
      <trkpt lat="47.677067" lon="2.1501431">
        <ele>166.0</ele>
        <time>2022-02-17T09:06:24Z</time>
      </trkpt>
      <trkpt lat="47.67708" lon="2.1501365">
        <ele>166.0</ele>
        <time>2022-02-17T09:06:25Z</time>
      </trkpt>
      <trkpt lat="47.677086" lon="2.150132">
        <ele>166.0</ele>
        <time>2022-02-17T09:06:26Z</time>
      </trkpt>
      <trkpt lat="47.677094" lon="2.1501257">
        <ele>166.0</ele>
        <time>2022-02-17T09:06:27Z</time>
      </trkpt>
      <trkpt lat="47.67711" lon="2.1501207">
        <ele>167.0</ele>
        <time>2022-02-17T09:06:28Z</time>
      </trkpt>
      <trkpt lat="47.67712" lon="2.1501167">
        <ele>167.0</ele>
        <time>2022-02-17T09:06:29Z</time>
      </trkpt>
      <trkpt lat="47.677128" lon="2.15011">
        <ele>167.0</ele>
        <time>2022-02-17T09:06:30Z</time>
      </trkpt>
      <trkpt lat="47.677143" lon="2.1501045">
        <ele>167.0</ele>
        <time>2022-02-17T09:06:31Z</time>
      </trkpt>
      <trkpt lat="47.677155" lon="2.1500938">
        <ele>167.0</ele>
        <time>2022-02-17T09:06:32Z</time>
      </trkpt>
      <trkpt lat="47.677166" lon="2.150085">
        <ele>167.0</ele>
        <time>2022-02-17T09:06:33Z</time>
      </trkpt>
      <trkpt lat="47.677174" lon="2.1500678">
        <ele>167.0</ele>
        <time>2022-02-17T09:06:34Z</time>
      </trkpt>
      <trkpt lat="47.677185" lon="2.1500561">
        <ele>167.0</ele>
        <time>2022-02-17T09:06:35Z</time>
      </trkpt>
      <trkpt lat="47.677193" lon="2.1500466">
        <ele>167.0</ele>
        <time>2022-02-17T09:06:36Z</time>
      </trkpt>
      <trkpt lat="47.6772" lon="2.150036">
        <ele>167.0</ele>
        <time>2022-02-17T09:06:37Z</time>
      </trkpt>
      <trkpt lat="47.67721" lon="2.150025">
        <ele>167.0</ele>
        <time>2022-02-17T09:06:38Z</time>
      </trkpt>
      <trkpt lat="47.67722" lon="2.150015">
        <ele>167.0</ele>
        <time>2022-02-17T09:06:39Z</time>
      </trkpt>
      <trkpt lat="47.677227" lon="2.1500046">
        <ele>167.0</ele>
        <time>2022-02-17T09:06:40Z</time>
      </trkpt>
      <trkpt lat="47.677235" lon="2.1499934">
        <ele>167.0</ele>
        <time>2022-02-17T09:06:41Z</time>
      </trkpt>
      <trkpt lat="47.677242" lon="2.1499803">
        <ele>167.0</ele>
        <time>2022-02-17T09:06:42Z</time>
      </trkpt>
      <trkpt lat="47.67725" lon="2.1499703">
        <ele>167.0</ele>
        <time>2022-02-17T09:06:43Z</time>
      </trkpt>
      <trkpt lat="47.677254" lon="2.1499605">
        <ele>167.0</ele>
        <time>2022-02-17T09:06:44Z</time>
      </trkpt>
      <trkpt lat="47.677258" lon="2.149949">
        <ele>167.0</ele>
        <time>2022-02-17T09:06:45Z</time>
      </trkpt>
      <trkpt lat="47.677265" lon="2.1499336">
        <ele>166.0</ele>
        <time>2022-02-17T09:06:46Z</time>
      </trkpt>
      <trkpt lat="47.677273" lon="2.149919">
        <ele>166.0</ele>
        <time>2022-02-17T09:06:47Z</time>
      </trkpt>
      <trkpt lat="47.677284" lon="2.1499064">
        <ele>166.0</ele>
        <time>2022-02-17T09:06:48Z</time>
      </trkpt>
      <trkpt lat="47.677296" lon="2.1498954">
        <ele>166.0</ele>
        <time>2022-02-17T09:06:49Z</time>
      </trkpt>
      <trkpt lat="47.677303" lon="2.149885">
        <ele>166.0</ele>
        <time>2022-02-17T09:06:50Z</time>
      </trkpt>
      <trkpt lat="47.67731" lon="2.1498742">
        <ele>166.0</ele>
        <time>2022-02-17T09:06:51Z</time>
      </trkpt>
      <trkpt lat="47.67732" lon="2.1498632">
        <ele>166.0</ele>
        <time>2022-02-17T09:06:52Z</time>
      </trkpt>
      <trkpt lat="47.677326" lon="2.1498516">
        <ele>166.0</ele>
        <time>2022-02-17T09:06:53Z</time>
      </trkpt>
      <trkpt lat="47.677334" lon="2.149837">
        <ele>165.0</ele>
        <time>2022-02-17T09:06:54Z</time>
      </trkpt>
      <trkpt lat="47.677338" lon="2.1498246">
        <ele>164.0</ele>
        <time>2022-02-17T09:06:55Z</time>
      </trkpt>
      <trkpt lat="47.677345" lon="2.149817">
        <ele>164.0</ele>
        <time>2022-02-17T09:06:56Z</time>
      </trkpt>
      <trkpt lat="47.677353" lon="2.1498086">
        <ele>163.0</ele>
        <time>2022-02-17T09:06:57Z</time>
      </trkpt>
      <trkpt lat="47.67736" lon="2.1497962">
        <ele>163.0</ele>
        <time>2022-02-17T09:06:58Z</time>
      </trkpt>
      <trkpt lat="47.67737" lon="2.1497843">
        <ele>162.0</ele>
        <time>2022-02-17T09:06:59Z</time>
      </trkpt>
      <trkpt lat="47.677372" lon="2.1497717">
        <ele>161.0</ele>
        <time>2022-02-17T09:07:00Z</time>
      </trkpt>
      <trkpt lat="47.67738" lon="2.1497571">
        <ele>161.0</ele>
        <time>2022-02-17T09:07:01Z</time>
      </trkpt>
      <trkpt lat="47.677387" lon="2.1497428">
        <ele>160.0</ele>
        <time>2022-02-17T09:07:02Z</time>
      </trkpt>
      <trkpt lat="47.67739" lon="2.149731">
        <ele>159.0</ele>
        <time>2022-02-17T09:07:03Z</time>
      </trkpt>
      <trkpt lat="47.6774" lon="2.1497226">
        <ele>158.0</ele>
        <time>2022-02-17T09:07:04Z</time>
      </trkpt>
      <trkpt lat="47.677406" lon="2.1497178">
        <ele>158.0</ele>
        <time>2022-02-17T09:07:05Z</time>
      </trkpt>
      <trkpt lat="47.677414" lon="2.1497114">
        <ele>158.0</ele>
        <time>2022-02-17T09:07:06Z</time>
      </trkpt>
      <trkpt lat="47.67742" lon="2.149708">
        <ele>158.0</ele>
        <time>2022-02-17T09:07:07Z</time>
      </trkpt>
      <trkpt lat="47.67743" lon="2.149703">
        <ele>159.0</ele>
        <time>2022-02-17T09:07:08Z</time>
      </trkpt>
      <trkpt lat="47.677437" lon="2.1496933">
        <ele>159.0</ele>
        <time>2022-02-17T09:07:09Z</time>
      </trkpt>
      <trkpt lat="47.67745" lon="2.1496837">
        <ele>159.0</ele>
        <time>2022-02-17T09:07:10Z</time>
      </trkpt>
      <trkpt lat="47.677452" lon="2.1496718">
        <ele>159.0</ele>
        <time>2022-02-17T09:07:11Z</time>
      </trkpt>
      <trkpt lat="47.67746" lon="2.1496582">
        <ele>160.0</ele>
        <time>2022-02-17T09:07:12Z</time>
      </trkpt>
      <trkpt lat="47.67746" lon="2.1496484">
        <ele>160.0</ele>
        <time>2022-02-17T09:07:13Z</time>
      </trkpt>
      <trkpt lat="47.677464" lon="2.149634">
        <ele>160.0</ele>
        <time>2022-02-17T09:07:14Z</time>
      </trkpt>
      <trkpt lat="47.677464" lon="2.1496186">
        <ele>161.0</ele>
        <time>2022-02-17T09:07:15Z</time>
      </trkpt>
      <trkpt lat="47.677464" lon="2.1496024">
        <ele>161.0</ele>
        <time>2022-02-17T09:07:16Z</time>
      </trkpt>
      <trkpt lat="47.677467" lon="2.1495852">
        <ele>161.0</ele>
        <time>2022-02-17T09:07:17Z</time>
      </trkpt>
      <trkpt lat="47.677467" lon="2.1495686">
        <ele>161.0</ele>
        <time>2022-02-17T09:07:18Z</time>
      </trkpt>
      <trkpt lat="47.677464" lon="2.1495519">
        <ele>161.0</ele>
        <time>2022-02-17T09:07:19Z</time>
      </trkpt>
      <trkpt lat="47.677464" lon="2.149534">
        <ele>161.0</ele>
        <time>2022-02-17T09:07:20Z</time>
      </trkpt>
      <trkpt lat="47.67746" lon="2.1495187">
        <ele>161.0</ele>
        <time>2022-02-17T09:07:21Z</time>
      </trkpt>
      <trkpt lat="47.67746" lon="2.1495037">
        <ele>161.0</ele>
        <time>2022-02-17T09:07:22Z</time>
      </trkpt>
      <trkpt lat="47.67746" lon="2.1494865">
        <ele>162.0</ele>
        <time>2022-02-17T09:07:23Z</time>
      </trkpt>
      <trkpt lat="47.67746" lon="2.1494684">
        <ele>162.0</ele>
        <time>2022-02-17T09:07:24Z</time>
      </trkpt>
      <trkpt lat="47.67746" lon="2.1494508">
        <ele>162.0</ele>
        <time>2022-02-17T09:07:25Z</time>
      </trkpt>
      <trkpt lat="47.677456" lon="2.1494355">
        <ele>162.0</ele>
        <time>2022-02-17T09:07:26Z</time>
      </trkpt>
      <trkpt lat="47.677456" lon="2.1494164">
        <ele>162.0</ele>
        <time>2022-02-17T09:07:27Z</time>
      </trkpt>
      <trkpt lat="47.677456" lon="2.1493993">
        <ele>162.0</ele>
        <time>2022-02-17T09:07:28Z</time>
      </trkpt>
      <trkpt lat="47.677456" lon="2.1493802">
        <ele>162.0</ele>
        <time>2022-02-17T09:07:29Z</time>
      </trkpt>
      <trkpt lat="47.677456" lon="2.1493604">
        <ele>163.0</ele>
        <time>2022-02-17T09:07:30Z</time>
      </trkpt>
      <trkpt lat="47.677456" lon="2.1493433">
        <ele>163.0</ele>
        <time>2022-02-17T09:07:31Z</time>
      </trkpt>
      <trkpt lat="47.677452" lon="2.1493323">
        <ele>163.0</ele>
        <time>2022-02-17T09:07:32Z</time>
      </trkpt>
      <trkpt lat="47.67745" lon="2.1493149">
        <ele>163.0</ele>
        <time>2022-02-17T09:07:33Z</time>
      </trkpt>
      <trkpt lat="47.677444" lon="2.1492994">
        <ele>163.0</ele>
        <time>2022-02-17T09:07:34Z</time>
      </trkpt>
      <trkpt lat="47.67744" lon="2.149285">
        <ele>164.0</ele>
        <time>2022-02-17T09:07:35Z</time>
      </trkpt>
      <trkpt lat="47.67744" lon="2.1492686">
        <ele>164.0</ele>
        <time>2022-02-17T09:07:36Z</time>
      </trkpt>
      <trkpt lat="47.677437" lon="2.1492565">
        <ele>164.0</ele>
        <time>2022-02-17T09:07:37Z</time>
      </trkpt>
      <trkpt lat="47.67743" lon="2.1492474">
        <ele>163.0</ele>
        <time>2022-02-17T09:07:38Z</time>
      </trkpt>
      <trkpt lat="47.67743" lon="2.1492271">
        <ele>163.0</ele>
        <time>2022-02-17T09:07:39Z</time>
      </trkpt>
      <trkpt lat="47.677425" lon="2.1492069">
        <ele>163.0</ele>
        <time>2022-02-17T09:07:40Z</time>
      </trkpt>
      <trkpt lat="47.67742" lon="2.1491838">
        <ele>162.0</ele>
        <time>2022-02-17T09:07:41Z</time>
      </trkpt>
      <trkpt lat="47.677418" lon="2.1491625">
        <ele>162.0</ele>
        <time>2022-02-17T09:07:42Z</time>
      </trkpt>
      <trkpt lat="47.677414" lon="2.149146">
        <ele>162.0</ele>
        <time>2022-02-17T09:07:43Z</time>
      </trkpt>
      <trkpt lat="47.677414" lon="2.1491232">
        <ele>162.0</ele>
        <time>2022-02-17T09:07:44Z</time>
      </trkpt>
      <trkpt lat="47.67741" lon="2.1491027">
        <ele>162.0</ele>
        <time>2022-02-17T09:07:45Z</time>
      </trkpt>
      <trkpt lat="47.677406" lon="2.1490853">
        <ele>162.0</ele>
        <time>2022-02-17T09:07:46Z</time>
      </trkpt>
      <trkpt lat="47.677406" lon="2.149072">
        <ele>162.0</ele>
        <time>2022-02-17T09:07:47Z</time>
      </trkpt>
      <trkpt lat="47.677406" lon="2.149059">
        <ele>162.0</ele>
        <time>2022-02-17T09:07:48Z</time>
      </trkpt>
      <trkpt lat="47.677406" lon="2.1490467">
        <ele>162.0</ele>
        <time>2022-02-17T09:07:49Z</time>
      </trkpt>
      <trkpt lat="47.677406" lon="2.1490324">
        <ele>162.0</ele>
        <time>2022-02-17T09:07:50Z</time>
      </trkpt>
      <trkpt lat="47.677402" lon="2.1490188">
        <ele>162.0</ele>
        <time>2022-02-17T09:07:51Z</time>
      </trkpt>
      <trkpt lat="47.6774" lon="2.149007">
        <ele>162.0</ele>
        <time>2022-02-17T09:07:52Z</time>
      </trkpt>
      <trkpt lat="47.677395" lon="2.148991">
        <ele>162.0</ele>
        <time>2022-02-17T09:07:53Z</time>
      </trkpt>
      <trkpt lat="47.677395" lon="2.1489723">
        <ele>162.0</ele>
        <time>2022-02-17T09:07:54Z</time>
      </trkpt>
      <trkpt lat="47.67739" lon="2.1489549">
        <ele>162.0</ele>
        <time>2022-02-17T09:07:55Z</time>
      </trkpt>
      <trkpt lat="47.67739" lon="2.148934">
        <ele>163.0</ele>
        <time>2022-02-17T09:07:56Z</time>
      </trkpt>
      <trkpt lat="47.677387" lon="2.1489146">
        <ele>163.0</ele>
        <time>2022-02-17T09:07:57Z</time>
      </trkpt>
      <trkpt lat="47.677387" lon="2.1488993">
        <ele>162.0</ele>
        <time>2022-02-17T09:07:58Z</time>
      </trkpt>
      <trkpt lat="47.677387" lon="2.1488833">
        <ele>163.0</ele>
        <time>2022-02-17T09:07:59Z</time>
      </trkpt>
      <trkpt lat="47.677383" lon="2.148868">
        <ele>163.0</ele>
        <time>2022-02-17T09:08:00Z</time>
      </trkpt>
      <trkpt lat="47.67738" lon="2.1488547">
        <ele>163.0</ele>
        <time>2022-02-17T09:08:01Z</time>
      </trkpt>
      <trkpt lat="47.67738" lon="2.1488445">
        <ele>163.0</ele>
        <time>2022-02-17T09:08:02Z</time>
      </trkpt>
      <trkpt lat="47.677376" lon="2.1488307">
        <ele>163.0</ele>
        <time>2022-02-17T09:08:03Z</time>
      </trkpt>
      <trkpt lat="47.677376" lon="2.148817">
        <ele>162.0</ele>
        <time>2022-02-17T09:08:04Z</time>
      </trkpt>
      <trkpt lat="47.677372" lon="2.148805">
        <ele>162.0</ele>
        <time>2022-02-17T09:08:05Z</time>
      </trkpt>
      <trkpt lat="47.677372" lon="2.14879">
        <ele>162.0</ele>
        <time>2022-02-17T09:08:06Z</time>
      </trkpt>
      <trkpt lat="47.677372" lon="2.1487806">
        <ele>162.0</ele>
        <time>2022-02-17T09:08:07Z</time>
      </trkpt>
      <trkpt lat="47.67737" lon="2.1487694">
        <ele>161.0</ele>
        <time>2022-02-17T09:08:08Z</time>
      </trkpt>
      <trkpt lat="47.67737" lon="2.1487694">
        <ele>161.0</ele>
        <time>2022-02-17T09:08:09Z</time>
      </trkpt>
      <trkpt lat="47.677364" lon="2.1487455">
        <ele>160.0</ele>
        <time>2022-02-17T09:08:10Z</time>
      </trkpt>
      <trkpt lat="47.677364" lon="2.148734">
        <ele>160.0</ele>
        <time>2022-02-17T09:08:11Z</time>
      </trkpt>
      <trkpt lat="47.67736" lon="2.1487236">
        <ele>160.0</ele>
        <time>2022-02-17T09:08:12Z</time>
      </trkpt>
      <trkpt lat="47.67736" lon="2.1487033">
        <ele>160.0</ele>
        <time>2022-02-17T09:08:13Z</time>
      </trkpt>
      <trkpt lat="47.67736" lon="2.1486878">
        <ele>160.0</ele>
        <time>2022-02-17T09:08:14Z</time>
      </trkpt>
      <trkpt lat="47.677357" lon="2.1486762">
        <ele>160.0</ele>
        <time>2022-02-17T09:08:15Z</time>
      </trkpt>
      <trkpt lat="47.677357" lon="2.1486607">
        <ele>159.0</ele>
        <time>2022-02-17T09:08:16Z</time>
      </trkpt>
      <trkpt lat="47.677357" lon="2.1486473">
        <ele>159.0</ele>
        <time>2022-02-17T09:08:17Z</time>
      </trkpt>
      <trkpt lat="47.677353" lon="2.148633">
        <ele>159.0</ele>
        <time>2022-02-17T09:08:18Z</time>
      </trkpt>
      <trkpt lat="47.677353" lon="2.1486185">
        <ele>159.0</ele>
        <time>2022-02-17T09:08:19Z</time>
      </trkpt>
      <trkpt lat="47.677345" lon="2.1485991">
        <ele>159.0</ele>
        <time>2022-02-17T09:08:20Z</time>
      </trkpt>
      <trkpt lat="47.67734" lon="2.148583">
        <ele>159.0</ele>
        <time>2022-02-17T09:08:21Z</time>
      </trkpt>
      <trkpt lat="47.677338" lon="2.14857">
        <ele>159.0</ele>
        <time>2022-02-17T09:08:22Z</time>
      </trkpt>
      <trkpt lat="47.677334" lon="2.1485603">
        <ele>158.0</ele>
        <time>2022-02-17T09:08:23Z</time>
      </trkpt>
      <trkpt lat="47.677334" lon="2.1485426">
        <ele>158.0</ele>
        <time>2022-02-17T09:08:24Z</time>
      </trkpt>
      <trkpt lat="47.677334" lon="2.1485252">
        <ele>158.0</ele>
        <time>2022-02-17T09:08:25Z</time>
      </trkpt>
      <trkpt lat="47.67733" lon="2.1485078">
        <ele>158.0</ele>
        <time>2022-02-17T09:08:26Z</time>
      </trkpt>
      <trkpt lat="47.677326" lon="2.1484904">
        <ele>158.0</ele>
        <time>2022-02-17T09:08:27Z</time>
      </trkpt>
      <trkpt lat="47.677326" lon="2.1484706">
        <ele>158.0</ele>
        <time>2022-02-17T09:08:28Z</time>
      </trkpt>
      <trkpt lat="47.677322" lon="2.1484487">
        <ele>157.0</ele>
        <time>2022-02-17T09:08:29Z</time>
      </trkpt>
      <trkpt lat="47.67732" lon="2.1484296">
        <ele>157.0</ele>
        <time>2022-02-17T09:08:30Z</time>
      </trkpt>
      <trkpt lat="47.677315" lon="2.1484127">
        <ele>156.0</ele>
        <time>2022-02-17T09:08:31Z</time>
      </trkpt>
      <trkpt lat="47.677315" lon="2.1483932">
        <ele>156.0</ele>
        <time>2022-02-17T09:08:32Z</time>
      </trkpt>
      <trkpt lat="47.677315" lon="2.1483762">
        <ele>155.0</ele>
        <time>2022-02-17T09:08:33Z</time>
      </trkpt>
      <trkpt lat="47.67731" lon="2.1483598">
        <ele>155.0</ele>
        <time>2022-02-17T09:08:34Z</time>
      </trkpt>
      <trkpt lat="47.677307" lon="2.1483493">
        <ele>155.0</ele>
        <time>2022-02-17T09:08:35Z</time>
      </trkpt>
      <trkpt lat="47.677303" lon="2.148332">
        <ele>155.0</ele>
        <time>2022-02-17T09:08:36Z</time>
      </trkpt>
      <trkpt lat="47.6773" lon="2.1483154">
        <ele>155.0</ele>
        <time>2022-02-17T09:08:37Z</time>
      </trkpt>
      <trkpt lat="47.677296" lon="2.1482935">
        <ele>154.0</ele>
        <time>2022-02-17T09:08:38Z</time>
      </trkpt>
      <trkpt lat="47.677296" lon="2.148274">
        <ele>154.0</ele>
        <time>2022-02-17T09:08:39Z</time>
      </trkpt>
      <trkpt lat="47.67729" lon="2.14825">
        <ele>154.0</ele>
        <time>2022-02-17T09:08:40Z</time>
      </trkpt>
      <trkpt lat="47.677288" lon="2.1482244">
        <ele>154.0</ele>
        <time>2022-02-17T09:08:41Z</time>
      </trkpt>
      <trkpt lat="47.677284" lon="2.148201">
        <ele>154.0</ele>
        <time>2022-02-17T09:08:42Z</time>
      </trkpt>
      <trkpt lat="47.677284" lon="2.1481824">
        <ele>154.0</ele>
        <time>2022-02-17T09:08:43Z</time>
      </trkpt>
      <trkpt lat="47.677284" lon="2.148163">
        <ele>154.0</ele>
        <time>2022-02-17T09:08:44Z</time>
      </trkpt>
      <trkpt lat="47.67728" lon="2.1481416">
        <ele>153.0</ele>
        <time>2022-02-17T09:08:45Z</time>
      </trkpt>
      <trkpt lat="47.677277" lon="2.1481242">
        <ele>154.0</ele>
        <time>2022-02-17T09:08:46Z</time>
      </trkpt>
      <trkpt lat="47.67728" lon="2.1481054">
        <ele>154.0</ele>
        <time>2022-02-17T09:08:47Z</time>
      </trkpt>
      <trkpt lat="47.67728" lon="2.1480947">
        <ele>153.0</ele>
        <time>2022-02-17T09:08:48Z</time>
      </trkpt>
      <trkpt lat="47.67728" lon="2.1480894">
        <ele>153.0</ele>
        <time>2022-02-17T09:08:49Z</time>
      </trkpt>
      <trkpt lat="47.67728" lon="2.148081">
        <ele>153.0</ele>
        <time>2022-02-17T09:08:50Z</time>
      </trkpt>
      <trkpt lat="47.677277" lon="2.1480658">
        <ele>153.0</ele>
        <time>2022-02-17T09:08:51Z</time>
      </trkpt>
      <trkpt lat="47.67728" lon="2.1480427">
        <ele>154.0</ele>
        <time>2022-02-17T09:08:52Z</time>
      </trkpt>
      <trkpt lat="47.67728" lon="2.1480129">
        <ele>155.0</ele>
        <time>2022-02-17T09:08:53Z</time>
      </trkpt>
      <trkpt lat="47.677284" lon="2.1479871">
        <ele>156.0</ele>
        <time>2022-02-17T09:08:54Z</time>
      </trkpt>
      <trkpt lat="47.677284" lon="2.1479661">
        <ele>157.0</ele>
        <time>2022-02-17T09:08:55Z</time>
      </trkpt>
      <trkpt lat="47.677288" lon="2.147939">
        <ele>159.0</ele>
        <time>2022-02-17T09:08:56Z</time>
      </trkpt>
      <trkpt lat="47.67729" lon="2.1479204">
        <ele>160.0</ele>
        <time>2022-02-17T09:08:57Z</time>
      </trkpt>
      <trkpt lat="47.677296" lon="2.1478996">
        <ele>161.0</ele>
        <time>2022-02-17T09:08:58Z</time>
      </trkpt>
      <trkpt lat="47.6773" lon="2.1478834">
        <ele>161.0</ele>
        <time>2022-02-17T09:08:59Z</time>
      </trkpt>
      <trkpt lat="47.677303" lon="2.147861">
        <ele>162.0</ele>
        <time>2022-02-17T09:09:00Z</time>
      </trkpt>
      <trkpt lat="47.677303" lon="2.147832">
        <ele>162.0</ele>
        <time>2022-02-17T09:09:01Z</time>
      </trkpt>
      <trkpt lat="47.677307" lon="2.147804">
        <ele>162.0</ele>
        <time>2022-02-17T09:09:02Z</time>
      </trkpt>
      <trkpt lat="47.677307" lon="2.1477787">
        <ele>163.0</ele>
        <time>2022-02-17T09:09:03Z</time>
      </trkpt>
      <trkpt lat="47.677307" lon="2.1477592">
        <ele>163.0</ele>
        <time>2022-02-17T09:09:04Z</time>
      </trkpt>
      <trkpt lat="47.677315" lon="2.1477373">
        <ele>164.0</ele>
        <time>2022-02-17T09:09:05Z</time>
      </trkpt>
      <trkpt lat="47.67732" lon="2.1477184">
        <ele>164.0</ele>
        <time>2022-02-17T09:09:06Z</time>
      </trkpt>
      <trkpt lat="47.677322" lon="2.147701">
        <ele>165.0</ele>
        <time>2022-02-17T09:09:07Z</time>
      </trkpt>
      <trkpt lat="47.677322" lon="2.1476793">
        <ele>165.0</ele>
        <time>2022-02-17T09:09:08Z</time>
      </trkpt>
      <trkpt lat="47.67733" lon="2.147663">
        <ele>165.0</ele>
        <time>2022-02-17T09:09:09Z</time>
      </trkpt>
      <trkpt lat="47.677334" lon="2.1476498">
        <ele>165.0</ele>
        <time>2022-02-17T09:09:10Z</time>
      </trkpt>
      <trkpt lat="47.677338" lon="2.1476333">
        <ele>166.0</ele>
        <time>2022-02-17T09:09:11Z</time>
      </trkpt>
      <trkpt lat="47.677334" lon="2.147611">
        <ele>166.0</ele>
        <time>2022-02-17T09:09:12Z</time>
      </trkpt>
      <trkpt lat="47.677334" lon="2.1475873">
        <ele>166.0</ele>
        <time>2022-02-17T09:09:13Z</time>
      </trkpt>
      <trkpt lat="47.677338" lon="2.1475432">
        <ele>166.0</ele>
        <time>2022-02-17T09:09:15Z</time>
      </trkpt>
      <trkpt lat="47.67734" lon="2.147496">
        <ele>167.0</ele>
        <time>2022-02-17T09:09:17Z</time>
      </trkpt>
      <trkpt lat="47.677345" lon="2.147476">
        <ele>167.0</ele>
        <time>2022-02-17T09:09:18Z</time>
      </trkpt>
      <trkpt lat="47.67735" lon="2.1474574">
        <ele>167.0</ele>
        <time>2022-02-17T09:09:19Z</time>
      </trkpt>
      <trkpt lat="47.677353" lon="2.1474388">
        <ele>167.0</ele>
        <time>2022-02-17T09:09:20Z</time>
      </trkpt>
      <trkpt lat="47.677357" lon="2.1474202">
        <ele>168.0</ele>
        <time>2022-02-17T09:09:21Z</time>
      </trkpt>
      <trkpt lat="47.67736" lon="2.1474028">
        <ele>168.0</ele>
        <time>2022-02-17T09:09:22Z</time>
      </trkpt>
      <trkpt lat="47.67737" lon="2.1473827">
        <ele>168.0</ele>
        <time>2022-02-17T09:09:23Z</time>
      </trkpt>
      <trkpt lat="47.677376" lon="2.1473677">
        <ele>168.0</ele>
        <time>2022-02-17T09:09:24Z</time>
      </trkpt>
      <trkpt lat="47.67738" lon="2.147354">
        <ele>168.0</ele>
        <time>2022-02-17T09:09:25Z</time>
      </trkpt>
      <trkpt lat="47.677383" lon="2.1473372">
        <ele>168.0</ele>
        <time>2022-02-17T09:09:26Z</time>
      </trkpt>
      <trkpt lat="47.677387" lon="2.1473184">
        <ele>168.0</ele>
        <time>2022-02-17T09:09:27Z</time>
      </trkpt>
      <trkpt lat="47.67739" lon="2.1473002">
        <ele>168.0</ele>
        <time>2022-02-17T09:09:28Z</time>
      </trkpt>
      <trkpt lat="47.6774" lon="2.147285">
        <ele>168.0</ele>
        <time>2022-02-17T09:09:29Z</time>
      </trkpt>
      <trkpt lat="47.677402" lon="2.147273">
        <ele>168.0</ele>
        <time>2022-02-17T09:09:30Z</time>
      </trkpt>
      <trkpt lat="47.677414" lon="2.1472595">
        <ele>168.0</ele>
        <time>2022-02-17T09:09:31Z</time>
      </trkpt>
      <trkpt lat="47.677418" lon="2.1472454">
        <ele>167.0</ele>
        <time>2022-02-17T09:09:32Z</time>
      </trkpt>
      <trkpt lat="47.677425" lon="2.1472342">
        <ele>168.0</ele>
        <time>2022-02-17T09:09:33Z</time>
      </trkpt>
      <trkpt lat="47.677437" lon="2.147226">
        <ele>168.0</ele>
        <time>2022-02-17T09:09:34Z</time>
      </trkpt>
      <trkpt lat="47.67745" lon="2.1472192">
        <ele>168.0</ele>
        <time>2022-02-17T09:09:35Z</time>
      </trkpt>
      <trkpt lat="47.677456" lon="2.1472049">
        <ele>168.0</ele>
        <time>2022-02-17T09:09:36Z</time>
      </trkpt>
      <trkpt lat="47.677464" lon="2.1471875">
        <ele>168.0</ele>
        <time>2022-02-17T09:09:37Z</time>
      </trkpt>
      <trkpt lat="47.677475" lon="2.1471734">
        <ele>169.0</ele>
        <time>2022-02-17T09:09:38Z</time>
      </trkpt>
      <trkpt lat="47.677483" lon="2.147158">
        <ele>169.0</ele>
        <time>2022-02-17T09:09:39Z</time>
      </trkpt>
      <trkpt lat="47.677486" lon="2.1471426">
        <ele>169.0</ele>
        <time>2022-02-17T09:09:40Z</time>
      </trkpt>
      <trkpt lat="47.67749" lon="2.1471272">
        <ele>169.0</ele>
        <time>2022-02-17T09:09:41Z</time>
      </trkpt>
      <trkpt lat="47.67749" lon="2.14711">
        <ele>169.0</ele>
        <time>2022-02-17T09:09:42Z</time>
      </trkpt>
      <trkpt lat="47.67749" lon="2.1470904">
        <ele>168.0</ele>
        <time>2022-02-17T09:09:43Z</time>
      </trkpt>
      <trkpt lat="47.67749" lon="2.147074">
        <ele>168.0</ele>
        <time>2022-02-17T09:09:44Z</time>
      </trkpt>
      <trkpt lat="47.67749" lon="2.1470551">
        <ele>167.0</ele>
        <time>2022-02-17T09:09:45Z</time>
      </trkpt>
      <trkpt lat="47.677494" lon="2.147039">
        <ele>167.0</ele>
        <time>2022-02-17T09:09:46Z</time>
      </trkpt>
      <trkpt lat="47.677494" lon="2.147018">
        <ele>166.0</ele>
        <time>2022-02-17T09:09:47Z</time>
      </trkpt>
      <trkpt lat="47.677494" lon="2.1469975">
        <ele>166.0</ele>
        <time>2022-02-17T09:09:48Z</time>
      </trkpt>
      <trkpt lat="47.677498" lon="2.146978">
        <ele>166.0</ele>
        <time>2022-02-17T09:09:49Z</time>
      </trkpt>
      <trkpt lat="47.6775" lon="2.1469588">
        <ele>166.0</ele>
        <time>2022-02-17T09:09:50Z</time>
      </trkpt>
      <trkpt lat="47.6775" lon="2.1469388">
        <ele>166.0</ele>
        <time>2022-02-17T09:09:51Z</time>
      </trkpt>
      <trkpt lat="47.677505" lon="2.1469197">
        <ele>166.0</ele>
        <time>2022-02-17T09:09:52Z</time>
      </trkpt>
      <trkpt lat="47.67751" lon="2.1469052">
        <ele>166.0</ele>
        <time>2022-02-17T09:09:53Z</time>
      </trkpt>
      <trkpt lat="47.677505" lon="2.1468918">
        <ele>166.0</ele>
        <time>2022-02-17T09:09:54Z</time>
      </trkpt>
      <trkpt lat="47.6775" lon="2.1468763">
        <ele>167.0</ele>
        <time>2022-02-17T09:09:55Z</time>
      </trkpt>
      <trkpt lat="47.6775" lon="2.1468716">
        <ele>166.0</ele>
        <time>2022-02-17T09:09:56Z</time>
      </trkpt>
      <trkpt lat="47.677498" lon="2.1468601">
        <ele>166.0</ele>
        <time>2022-02-17T09:09:57Z</time>
      </trkpt>
      <trkpt lat="47.677498" lon="2.1468482">
        <ele>166.0</ele>
        <time>2022-02-17T09:09:58Z</time>
      </trkpt>
      <trkpt lat="47.6775" lon="2.1468346">
        <ele>166.0</ele>
        <time>2022-02-17T09:09:59Z</time>
      </trkpt>
      <trkpt lat="47.677505" lon="2.1468215">
        <ele>166.0</ele>
        <time>2022-02-17T09:10:00Z</time>
      </trkpt>
      <trkpt lat="47.67751" lon="2.1468077">
        <ele>166.0</ele>
        <time>2022-02-17T09:10:01Z</time>
      </trkpt>
      <trkpt lat="47.677513" lon="2.1467957">
        <ele>166.0</ele>
        <time>2022-02-17T09:10:02Z</time>
      </trkpt>
      <trkpt lat="47.677517" lon="2.1467843">
        <ele>166.0</ele>
        <time>2022-02-17T09:10:03Z</time>
      </trkpt>
      <trkpt lat="47.677517" lon="2.1467733">
        <ele>166.0</ele>
        <time>2022-02-17T09:10:04Z</time>
      </trkpt>
      <trkpt lat="47.67752" lon="2.1467593">
        <ele>166.0</ele>
        <time>2022-02-17T09:10:05Z</time>
      </trkpt>
      <trkpt lat="47.677525" lon="2.1467435">
        <ele>166.0</ele>
        <time>2022-02-17T09:10:06Z</time>
      </trkpt>
      <trkpt lat="47.67753" lon="2.1467268">
        <ele>166.0</ele>
        <time>2022-02-17T09:10:07Z</time>
      </trkpt>
      <trkpt lat="47.677532" lon="2.1467128">
        <ele>166.0</ele>
        <time>2022-02-17T09:10:08Z</time>
      </trkpt>
      <trkpt lat="47.677536" lon="2.1466992">
        <ele>166.0</ele>
        <time>2022-02-17T09:10:09Z</time>
      </trkpt>
      <trkpt lat="47.67754" lon="2.1466854">
        <ele>166.0</ele>
        <time>2022-02-17T09:10:10Z</time>
      </trkpt>
      <trkpt lat="47.677544" lon="2.146674">
        <ele>166.0</ele>
        <time>2022-02-17T09:10:11Z</time>
      </trkpt>
      <trkpt lat="47.67755" lon="2.1466594">
        <ele>166.0</ele>
        <time>2022-02-17T09:10:12Z</time>
      </trkpt>
      <trkpt lat="47.677555" lon="2.1466439">
        <ele>166.0</ele>
        <time>2022-02-17T09:10:13Z</time>
      </trkpt>
      <trkpt lat="47.677563" lon="2.1466286">
        <ele>166.0</ele>
        <time>2022-02-17T09:10:14Z</time>
      </trkpt>
      <trkpt lat="47.677567" lon="2.1466143">
        <ele>167.0</ele>
        <time>2022-02-17T09:10:15Z</time>
      </trkpt>
      <trkpt lat="47.67757" lon="2.1465964">
        <ele>167.0</ele>
        <time>2022-02-17T09:10:16Z</time>
      </trkpt>
      <trkpt lat="47.677574" lon="2.1465821">
        <ele>167.0</ele>
        <time>2022-02-17T09:10:17Z</time>
      </trkpt>
      <trkpt lat="47.67758" lon="2.1465633">
        <ele>167.0</ele>
        <time>2022-02-17T09:10:18Z</time>
      </trkpt>
      <trkpt lat="47.677586" lon="2.1465456">
        <ele>167.0</ele>
        <time>2022-02-17T09:10:19Z</time>
      </trkpt>
      <trkpt lat="47.67759" lon="2.14653">
        <ele>167.0</ele>
        <time>2022-02-17T09:10:20Z</time>
      </trkpt>
      <trkpt lat="47.677593" lon="2.1465125">
        <ele>167.0</ele>
        <time>2022-02-17T09:10:21Z</time>
      </trkpt>
      <trkpt lat="47.677597" lon="2.1464922">
        <ele>167.0</ele>
        <time>2022-02-17T09:10:22Z</time>
      </trkpt>
      <trkpt lat="47.677597" lon="2.1464698">
        <ele>166.0</ele>
        <time>2022-02-17T09:10:23Z</time>
      </trkpt>
      <trkpt lat="47.677597" lon="2.1464493">
        <ele>166.0</ele>
        <time>2022-02-17T09:10:24Z</time>
      </trkpt>
      <trkpt lat="47.6776" lon="2.1464298">
        <ele>166.0</ele>
        <time>2022-02-17T09:10:25Z</time>
      </trkpt>
      <trkpt lat="47.67761" lon="2.1464143">
        <ele>166.0</ele>
        <time>2022-02-17T09:10:26Z</time>
      </trkpt>
      <trkpt lat="47.677612" lon="2.146396">
        <ele>167.0</ele>
        <time>2022-02-17T09:10:27Z</time>
      </trkpt>
      <trkpt lat="47.677616" lon="2.1463802">
        <ele>167.0</ele>
        <time>2022-02-17T09:10:28Z</time>
      </trkpt>
      <trkpt lat="47.67762" lon="2.1463683">
        <ele>167.0</ele>
        <time>2022-02-17T09:10:29Z</time>
      </trkpt>
      <trkpt lat="47.677624" lon="2.1463587">
        <ele>167.0</ele>
        <time>2022-02-17T09:10:30Z</time>
      </trkpt>
      <trkpt lat="47.677628" lon="2.1463478">
        <ele>167.0</ele>
        <time>2022-02-17T09:10:31Z</time>
      </trkpt>
      <trkpt lat="47.677628" lon="2.1463358">
        <ele>166.0</ele>
        <time>2022-02-17T09:10:32Z</time>
      </trkpt>
      <trkpt lat="47.67763" lon="2.1463227">
        <ele>166.0</ele>
        <time>2022-02-17T09:10:33Z</time>
      </trkpt>
      <trkpt lat="47.67763" lon="2.1463125">
        <ele>166.0</ele>
        <time>2022-02-17T09:10:34Z</time>
      </trkpt>
      <trkpt lat="47.67763" lon="2.1463125">
        <ele>166.0</ele>
        <time>2022-02-17T09:10:35Z</time>
      </trkpt>
      <trkpt lat="47.67763" lon="2.1463125">
        <ele>166.0</ele>
        <time>2022-02-17T09:10:36Z</time>
      </trkpt>
      <trkpt lat="47.677643" lon="2.1462765">
        <ele>166.0</ele>
        <time>2022-02-17T09:10:37Z</time>
      </trkpt>
      <trkpt lat="47.677647" lon="2.1462662">
        <ele>167.0</ele>
        <time>2022-02-17T09:10:38Z</time>
      </trkpt>
      <trkpt lat="47.67765" lon="2.1462502">
        <ele>167.0</ele>
        <time>2022-02-17T09:10:39Z</time>
      </trkpt>
      <trkpt lat="47.677658" lon="2.146234">
        <ele>167.0</ele>
        <time>2022-02-17T09:10:40Z</time>
      </trkpt>
      <trkpt lat="47.677666" lon="2.1462214">
        <ele>167.0</ele>
        <time>2022-02-17T09:10:41Z</time>
      </trkpt>
      <trkpt lat="47.67767" lon="2.1462073">
        <ele>167.0</ele>
        <time>2022-02-17T09:10:42Z</time>
      </trkpt>
      <trkpt lat="47.67767" lon="2.1461966">
        <ele>167.0</ele>
        <time>2022-02-17T09:10:43Z</time>
      </trkpt>
      <trkpt lat="47.677673" lon="2.1461883">
        <ele>167.0</ele>
        <time>2022-02-17T09:10:44Z</time>
      </trkpt>
      <trkpt lat="47.67768" lon="2.1461747">
        <ele>167.0</ele>
        <time>2022-02-17T09:10:45Z</time>
      </trkpt>
      <trkpt lat="47.67769" lon="2.1461692">
        <ele>166.0</ele>
        <time>2022-02-17T09:10:46Z</time>
      </trkpt>
      <trkpt lat="47.677692" lon="2.1461601">
        <ele>166.0</ele>
        <time>2022-02-17T09:10:47Z</time>
      </trkpt>
      <trkpt lat="47.677704" lon="2.1461518">
        <ele>166.0</ele>
        <time>2022-02-17T09:10:48Z</time>
      </trkpt>
      <trkpt lat="47.677708" lon="2.1461422">
        <ele>166.0</ele>
        <time>2022-02-17T09:10:49Z</time>
      </trkpt>
      <trkpt lat="47.67771" lon="2.1461298">
        <ele>166.0</ele>
        <time>2022-02-17T09:10:50Z</time>
      </trkpt>
      <trkpt lat="47.67771" lon="2.1461298">
        <ele>166.0</ele>
        <time>2022-02-17T09:10:51Z</time>
      </trkpt>
      <trkpt lat="47.677727" lon="2.1461043">
        <ele>165.0</ele>
        <time>2022-02-17T09:10:52Z</time>
      </trkpt>
      <trkpt lat="47.677734" lon="2.1460848">
        <ele>165.0</ele>
        <time>2022-02-17T09:10:53Z</time>
      </trkpt>
      <trkpt lat="47.677742" lon="2.1460679">
        <ele>165.0</ele>
        <time>2022-02-17T09:10:54Z</time>
      </trkpt>
      <trkpt lat="47.677753" lon="2.1460536">
        <ele>164.0</ele>
        <time>2022-02-17T09:10:55Z</time>
      </trkpt>
      <trkpt lat="47.677765" lon="2.1460378">
        <ele>164.0</ele>
        <time>2022-02-17T09:10:56Z</time>
      </trkpt>
      <trkpt lat="47.677776" lon="2.1460247">
        <ele>164.0</ele>
        <time>2022-02-17T09:10:57Z</time>
      </trkpt>
      <trkpt lat="47.677784" lon="2.146011">
        <ele>163.0</ele>
        <time>2022-02-17T09:10:58Z</time>
      </trkpt>
      <trkpt lat="47.67779" lon="2.1459956">
        <ele>164.0</ele>
        <time>2022-02-17T09:10:59Z</time>
      </trkpt>
      <trkpt lat="47.6778" lon="2.1459816">
        <ele>164.0</ele>
        <time>2022-02-17T09:11:00Z</time>
      </trkpt>
      <trkpt lat="47.677807" lon="2.145967">
        <ele>163.0</ele>
        <time>2022-02-17T09:11:01Z</time>
      </trkpt>
      <trkpt lat="47.67782" lon="2.1459525">
        <ele>163.0</ele>
        <time>2022-02-17T09:11:02Z</time>
      </trkpt>
      <trkpt lat="47.677826" lon="2.1459343">
        <ele>163.0</ele>
        <time>2022-02-17T09:11:03Z</time>
      </trkpt>
      <trkpt lat="47.67783" lon="2.1459193">
        <ele>162.0</ele>
        <time>2022-02-17T09:11:04Z</time>
      </trkpt>
      <trkpt lat="47.677834" lon="2.1459045">
        <ele>162.0</ele>
        <time>2022-02-17T09:11:05Z</time>
      </trkpt>
      <trkpt lat="47.67784" lon="2.1458871">
        <ele>162.0</ele>
        <time>2022-02-17T09:11:06Z</time>
      </trkpt>
      <trkpt lat="47.67785" lon="2.1458724">
        <ele>162.0</ele>
        <time>2022-02-17T09:11:07Z</time>
      </trkpt>
      <trkpt lat="47.677856" lon="2.145857">
        <ele>162.0</ele>
        <time>2022-02-17T09:11:08Z</time>
      </trkpt>
      <trkpt lat="47.677864" lon="2.1458426">
        <ele>162.0</ele>
        <time>2022-02-17T09:11:09Z</time>
      </trkpt>
      <trkpt lat="47.677876" lon="2.145829">
        <ele>162.0</ele>
        <time>2022-02-17T09:11:10Z</time>
      </trkpt>
      <trkpt lat="47.677887" lon="2.1458118">
        <ele>162.0</ele>
        <time>2022-02-17T09:11:11Z</time>
      </trkpt>
      <trkpt lat="47.6779" lon="2.1457984">
        <ele>162.0</ele>
        <time>2022-02-17T09:11:12Z</time>
      </trkpt>
      <trkpt lat="47.677906" lon="2.145789">
        <ele>163.0</ele>
        <time>2022-02-17T09:11:13Z</time>
      </trkpt>
      <trkpt lat="47.677914" lon="2.1457744">
        <ele>163.0</ele>
        <time>2022-02-17T09:11:14Z</time>
      </trkpt>
      <trkpt lat="47.67792" lon="2.1457627">
        <ele>163.0</ele>
        <time>2022-02-17T09:11:15Z</time>
      </trkpt>
      <trkpt lat="47.677933" lon="2.1457484">
        <ele>163.0</ele>
        <time>2022-02-17T09:11:16Z</time>
      </trkpt>
      <trkpt lat="47.67794" lon="2.145735">
        <ele>164.0</ele>
        <time>2022-02-17T09:11:17Z</time>
      </trkpt>
      <trkpt lat="47.677944" lon="2.1457255">
        <ele>163.0</ele>
        <time>2022-02-17T09:11:18Z</time>
      </trkpt>
      <trkpt lat="47.67795" lon="2.1457107">
        <ele>164.0</ele>
        <time>2022-02-17T09:11:19Z</time>
      </trkpt>
      <trkpt lat="47.677963" lon="2.1456919">
        <ele>164.0</ele>
        <time>2022-02-17T09:11:20Z</time>
      </trkpt>
      <trkpt lat="47.67797" lon="2.1456773">
        <ele>164.0</ele>
        <time>2022-02-17T09:11:21Z</time>
      </trkpt>
      <trkpt lat="47.677975" lon="2.1456678">
        <ele>163.0</ele>
        <time>2022-02-17T09:11:22Z</time>
      </trkpt>
      <trkpt lat="47.677982" lon="2.1456585">
        <ele>163.0</ele>
        <time>2022-02-17T09:11:23Z</time>
      </trkpt>
      <trkpt lat="47.677986" lon="2.1456456">
        <ele>163.0</ele>
        <time>2022-02-17T09:11:24Z</time>
      </trkpt>
      <trkpt lat="47.677994" lon="2.1456332">
        <ele>163.0</ele>
        <time>2022-02-17T09:11:25Z</time>
      </trkpt>
      <trkpt lat="47.677998" lon="2.1456234">
        <ele>162.0</ele>
        <time>2022-02-17T09:11:26Z</time>
      </trkpt>
      <trkpt lat="47.678" lon="2.145608">
        <ele>163.0</ele>
        <time>2022-02-17T09:11:27Z</time>
      </trkpt>
      <trkpt lat="47.67801" lon="2.1455917">
        <ele>163.0</ele>
        <time>2022-02-17T09:11:28Z</time>
      </trkpt>
      <trkpt lat="47.678017" lon="2.1455746">
        <ele>163.0</ele>
        <time>2022-02-17T09:11:29Z</time>
      </trkpt>
      <trkpt lat="47.678024" lon="2.1455607">
        <ele>162.0</ele>
        <time>2022-02-17T09:11:30Z</time>
      </trkpt>
      <trkpt lat="47.67803" lon="2.1455448">
        <ele>162.0</ele>
        <time>2022-02-17T09:11:31Z</time>
      </trkpt>
      <trkpt lat="47.678032" lon="2.145528">
        <ele>162.0</ele>
        <time>2022-02-17T09:11:32Z</time>
      </trkpt>
      <trkpt lat="47.678036" lon="2.1455162">
        <ele>162.0</ele>
        <time>2022-02-17T09:11:33Z</time>
      </trkpt>
      <trkpt lat="47.67804" lon="2.145506">
        <ele>162.0</ele>
        <time>2022-02-17T09:11:34Z</time>
      </trkpt>
      <trkpt lat="47.678047" lon="2.1454995">
        <ele>162.0</ele>
        <time>2022-02-17T09:11:35Z</time>
      </trkpt>
      <trkpt lat="47.67805" lon="2.1454797">
        <ele>162.0</ele>
        <time>2022-02-17T09:11:36Z</time>
      </trkpt>
      <trkpt lat="47.67806" lon="2.1454628">
        <ele>161.0</ele>
        <time>2022-02-17T09:11:37Z</time>
      </trkpt>
      <trkpt lat="47.67806" lon="2.1454465">
        <ele>161.0</ele>
        <time>2022-02-17T09:11:38Z</time>
      </trkpt>
      <trkpt lat="47.678066" lon="2.1454294">
        <ele>160.0</ele>
        <time>2022-02-17T09:11:39Z</time>
      </trkpt>
      <trkpt lat="47.678074" lon="2.1454139">
        <ele>160.0</ele>
        <time>2022-02-17T09:11:40Z</time>
      </trkpt>
      <trkpt lat="47.678078" lon="2.1453998">
        <ele>159.0</ele>
        <time>2022-02-17T09:11:41Z</time>
      </trkpt>
      <trkpt lat="47.678085" lon="2.1453888">
        <ele>159.0</ele>
        <time>2022-02-17T09:11:42Z</time>
      </trkpt>
      <trkpt lat="47.67809" lon="2.1453695">
        <ele>158.0</ele>
        <time>2022-02-17T09:11:43Z</time>
      </trkpt>
      <trkpt lat="47.678093" lon="2.145354">
        <ele>157.0</ele>
        <time>2022-02-17T09:11:44Z</time>
      </trkpt>
      <trkpt lat="47.678097" lon="2.1453393">
        <ele>157.0</ele>
        <time>2022-02-17T09:11:45Z</time>
      </trkpt>
      <trkpt lat="47.6781" lon="2.1453254">
        <ele>156.0</ele>
        <time>2022-02-17T09:11:46Z</time>
      </trkpt>
      <trkpt lat="47.6781" lon="2.1453118">
        <ele>156.0</ele>
        <time>2022-02-17T09:11:47Z</time>
      </trkpt>
      <trkpt lat="47.678104" lon="2.1452956">
        <ele>156.0</ele>
        <time>2022-02-17T09:11:48Z</time>
      </trkpt>
      <trkpt lat="47.678112" lon="2.1452804">
        <ele>156.0</ele>
        <time>2022-02-17T09:11:49Z</time>
      </trkpt>
      <trkpt lat="47.678112" lon="2.1452682">
        <ele>155.0</ele>
        <time>2022-02-17T09:11:50Z</time>
      </trkpt>
      <trkpt lat="47.67811" lon="2.145258">
        <ele>155.0</ele>
        <time>2022-02-17T09:11:51Z</time>
      </trkpt>
      <trkpt lat="47.678112" lon="2.1452465">
        <ele>155.0</ele>
        <time>2022-02-17T09:11:52Z</time>
      </trkpt>
      <trkpt lat="47.678116" lon="2.1452365">
        <ele>156.0</ele>
        <time>2022-02-17T09:11:53Z</time>
      </trkpt>
      <trkpt lat="47.67812" lon="2.145225">
        <ele>155.0</ele>
        <time>2022-02-17T09:11:54Z</time>
      </trkpt>
      <trkpt lat="47.678123" lon="2.145208">
        <ele>155.0</ele>
        <time>2022-02-17T09:11:55Z</time>
      </trkpt>
      <trkpt lat="47.67813" lon="2.1451962">
        <ele>156.0</ele>
        <time>2022-02-17T09:11:56Z</time>
      </trkpt>
      <trkpt lat="47.678143" lon="2.1451864">
        <ele>156.0</ele>
        <time>2022-02-17T09:11:57Z</time>
      </trkpt>
      <trkpt lat="47.678154" lon="2.145173">
        <ele>156.0</ele>
        <time>2022-02-17T09:11:58Z</time>
      </trkpt>
      <trkpt lat="47.678165" lon="2.1451619">
        <ele>156.0</ele>
        <time>2022-02-17T09:11:59Z</time>
      </trkpt>
      <trkpt lat="47.67817" lon="2.1451478">
        <ele>156.0</ele>
        <time>2022-02-17T09:12:00Z</time>
      </trkpt>
      <trkpt lat="47.678177" lon="2.145136">
        <ele>156.0</ele>
        <time>2022-02-17T09:12:01Z</time>
      </trkpt>
      <trkpt lat="47.67818" lon="2.1451228">
        <ele>156.0</ele>
        <time>2022-02-17T09:12:02Z</time>
      </trkpt>
      <trkpt lat="47.678185" lon="2.1451058">
        <ele>157.0</ele>
        <time>2022-02-17T09:12:03Z</time>
      </trkpt>
      <trkpt lat="47.678185" lon="2.1450896">
        <ele>158.0</ele>
        <time>2022-02-17T09:12:04Z</time>
      </trkpt>
      <trkpt lat="47.678185" lon="2.145074">
        <ele>158.0</ele>
        <time>2022-02-17T09:12:05Z</time>
      </trkpt>
      <trkpt lat="47.678185" lon="2.145058">
        <ele>158.0</ele>
        <time>2022-02-17T09:12:06Z</time>
      </trkpt>
      <trkpt lat="47.678185" lon="2.1450398">
        <ele>159.0</ele>
        <time>2022-02-17T09:12:07Z</time>
      </trkpt>
      <trkpt lat="47.678185" lon="2.1450245">
        <ele>158.0</ele>
        <time>2022-02-17T09:12:08Z</time>
      </trkpt>
      <trkpt lat="47.678185" lon="2.1450071">
        <ele>158.0</ele>
        <time>2022-02-17T09:12:09Z</time>
      </trkpt>
      <trkpt lat="47.678185" lon="2.1449919">
        <ele>158.0</ele>
        <time>2022-02-17T09:12:10Z</time>
      </trkpt>
      <trkpt lat="47.678185" lon="2.1449776">
        <ele>159.0</ele>
        <time>2022-02-17T09:12:11Z</time>
      </trkpt>
      <trkpt lat="47.67818" lon="2.1449628">
        <ele>159.0</ele>
        <time>2022-02-17T09:12:12Z</time>
      </trkpt>
      <trkpt lat="47.67818" lon="2.1449442">
        <ele>159.0</ele>
        <time>2022-02-17T09:12:13Z</time>
      </trkpt>
      <trkpt lat="47.67818" lon="2.1449256">
        <ele>159.0</ele>
        <time>2022-02-17T09:12:14Z</time>
      </trkpt>
      <trkpt lat="47.67818" lon="2.1449075">
        <ele>159.0</ele>
        <time>2022-02-17T09:12:15Z</time>
      </trkpt>
      <trkpt lat="47.67818" lon="2.1448865">
        <ele>159.0</ele>
        <time>2022-02-17T09:12:16Z</time>
      </trkpt>
      <trkpt lat="47.678185" lon="2.1448689">
        <ele>158.0</ele>
        <time>2022-02-17T09:12:17Z</time>
      </trkpt>
      <trkpt lat="47.67819" lon="2.1448517">
        <ele>159.0</ele>
        <time>2022-02-17T09:12:18Z</time>
      </trkpt>
      <trkpt lat="47.678192" lon="2.1448352">
        <ele>159.0</ele>
        <time>2022-02-17T09:12:19Z</time>
      </trkpt>
      <trkpt lat="47.678192" lon="2.1448178">
        <ele>159.0</ele>
        <time>2022-02-17T09:12:20Z</time>
      </trkpt>
      <trkpt lat="47.678192" lon="2.1447988">
        <ele>159.0</ele>
        <time>2022-02-17T09:12:21Z</time>
      </trkpt>
      <trkpt lat="47.67819" lon="2.1447802">
        <ele>159.0</ele>
        <time>2022-02-17T09:12:22Z</time>
      </trkpt>
      <trkpt lat="47.678185" lon="2.1447654">
        <ele>159.0</ele>
        <time>2022-02-17T09:12:23Z</time>
      </trkpt>
      <trkpt lat="47.678185" lon="2.1447484">
        <ele>159.0</ele>
        <time>2022-02-17T09:12:24Z</time>
      </trkpt>
      <trkpt lat="47.67818" lon="2.1447327">
        <ele>159.0</ele>
        <time>2022-02-17T09:12:25Z</time>
      </trkpt>
      <trkpt lat="47.67818" lon="2.144723">
        <ele>160.0</ele>
        <time>2022-02-17T09:12:26Z</time>
      </trkpt>
      <trkpt lat="47.678177" lon="2.1447098">
        <ele>160.0</ele>
        <time>2022-02-17T09:12:27Z</time>
      </trkpt>
      <trkpt lat="47.678177" lon="2.1446962">
        <ele>160.0</ele>
        <time>2022-02-17T09:12:28Z</time>
      </trkpt>
      <trkpt lat="47.678173" lon="2.1446805">
        <ele>160.0</ele>
        <time>2022-02-17T09:12:29Z</time>
      </trkpt>
      <trkpt lat="47.678173" lon="2.1446638">
        <ele>160.0</ele>
        <time>2022-02-17T09:12:30Z</time>
      </trkpt>
      <trkpt lat="47.678173" lon="2.1446493">
        <ele>161.0</ele>
        <time>2022-02-17T09:12:31Z</time>
      </trkpt>
      <trkpt lat="47.67817" lon="2.1446373">
        <ele>160.0</ele>
        <time>2022-02-17T09:12:32Z</time>
      </trkpt>
      <trkpt lat="47.678165" lon="2.144625">
        <ele>160.0</ele>
        <time>2022-02-17T09:12:33Z</time>
      </trkpt>
      <trkpt lat="47.678165" lon="2.1446111">
        <ele>160.0</ele>
        <time>2022-02-17T09:12:34Z</time>
      </trkpt>
      <trkpt lat="47.678165" lon="2.1445935">
        <ele>160.0</ele>
        <time>2022-02-17T09:12:35Z</time>
      </trkpt>
      <trkpt lat="47.67816" lon="2.1445725">
        <ele>159.0</ele>
        <time>2022-02-17T09:12:36Z</time>
      </trkpt>
      <trkpt lat="47.678158" lon="2.1445515">
        <ele>159.0</ele>
        <time>2022-02-17T09:12:37Z</time>
      </trkpt>
      <trkpt lat="47.678154" lon="2.1445293">
        <ele>160.0</ele>
        <time>2022-02-17T09:12:38Z</time>
      </trkpt>
      <trkpt lat="47.67815" lon="2.1445074">
        <ele>160.0</ele>
        <time>2022-02-17T09:12:39Z</time>
      </trkpt>
      <trkpt lat="47.678146" lon="2.1444926">
        <ele>160.0</ele>
        <time>2022-02-17T09:12:40Z</time>
      </trkpt>
      <trkpt lat="47.678146" lon="2.1444826">
        <ele>159.0</ele>
        <time>2022-02-17T09:12:41Z</time>
      </trkpt>
      <trkpt lat="47.678143" lon="2.1444693">
        <ele>159.0</ele>
        <time>2022-02-17T09:12:42Z</time>
      </trkpt>
      <trkpt lat="47.678143" lon="2.144458">
        <ele>159.0</ele>
        <time>2022-02-17T09:12:43Z</time>
      </trkpt>
      <trkpt lat="47.678143" lon="2.1444416">
        <ele>158.0</ele>
        <time>2022-02-17T09:12:44Z</time>
      </trkpt>
      <trkpt lat="47.678146" lon="2.1444213">
        <ele>159.0</ele>
        <time>2022-02-17T09:12:45Z</time>
      </trkpt>
      <trkpt lat="47.678146" lon="2.1444008">
        <ele>160.0</ele>
        <time>2022-02-17T09:12:46Z</time>
      </trkpt>
      <trkpt lat="47.678143" lon="2.144385">
        <ele>159.0</ele>
        <time>2022-02-17T09:12:47Z</time>
      </trkpt>
      <trkpt lat="47.67814" lon="2.1443744">
        <ele>159.0</ele>
        <time>2022-02-17T09:12:48Z</time>
      </trkpt>
      <trkpt lat="47.67814" lon="2.1443648">
        <ele>159.0</ele>
        <time>2022-02-17T09:12:49Z</time>
      </trkpt>
      <trkpt lat="47.67814" lon="2.144349">
        <ele>159.0</ele>
        <time>2022-02-17T09:12:50Z</time>
      </trkpt>
      <trkpt lat="47.678135" lon="2.1443338">
        <ele>159.0</ele>
        <time>2022-02-17T09:12:51Z</time>
      </trkpt>
      <trkpt lat="47.678135" lon="2.1443172">
        <ele>159.0</ele>
        <time>2022-02-17T09:12:52Z</time>
      </trkpt>
      <trkpt lat="47.678135" lon="2.1443012">
        <ele>159.0</ele>
        <time>2022-02-17T09:12:53Z</time>
      </trkpt>
      <trkpt lat="47.67813" lon="2.144282">
        <ele>159.0</ele>
        <time>2022-02-17T09:12:54Z</time>
      </trkpt>
      <trkpt lat="47.678127" lon="2.1442635">
        <ele>158.0</ele>
        <time>2022-02-17T09:12:55Z</time>
      </trkpt>
      <trkpt lat="47.678127" lon="2.144248">
        <ele>158.0</ele>
        <time>2022-02-17T09:12:56Z</time>
      </trkpt>
      <trkpt lat="47.67812" lon="2.144244">
        <ele>158.0</ele>
        <time>2022-02-17T09:12:57Z</time>
      </trkpt>
      <trkpt lat="47.67812" lon="2.1442485">
        <ele>158.0</ele>
        <time>2022-02-17T09:12:58Z</time>
      </trkpt>
      <trkpt lat="47.67812" lon="2.1442504">
        <ele>158.0</ele>
        <time>2022-02-17T09:12:59Z</time>
      </trkpt>
      <trkpt lat="47.678116" lon="2.144245">
        <ele>159.0</ele>
        <time>2022-02-17T09:13:00Z</time>
      </trkpt>
      <trkpt lat="47.67811" lon="2.1442363">
        <ele>159.0</ele>
        <time>2022-02-17T09:13:01Z</time>
      </trkpt>
      <trkpt lat="47.678104" lon="2.1442213">
        <ele>160.0</ele>
        <time>2022-02-17T09:13:02Z</time>
      </trkpt>
      <trkpt lat="47.678097" lon="2.144203">
        <ele>160.0</ele>
        <time>2022-02-17T09:13:03Z</time>
      </trkpt>
      <trkpt lat="47.67809" lon="2.1441908">
        <ele>161.0</ele>
        <time>2022-02-17T09:13:04Z</time>
      </trkpt>
      <trkpt lat="47.678085" lon="2.1441727">
        <ele>161.0</ele>
        <time>2022-02-17T09:13:05Z</time>
      </trkpt>
      <trkpt lat="47.678085" lon="2.1441543">
        <ele>161.0</ele>
        <time>2022-02-17T09:13:06Z</time>
      </trkpt>
      <trkpt lat="47.67809" lon="2.1441321">
        <ele>160.0</ele>
        <time>2022-02-17T09:13:07Z</time>
      </trkpt>
      <trkpt lat="47.67809" lon="2.1441112">
        <ele>160.0</ele>
        <time>2022-02-17T09:13:08Z</time>
      </trkpt>
      <trkpt lat="47.67809" lon="2.1440988">
        <ele>160.0</ele>
        <time>2022-02-17T09:13:09Z</time>
      </trkpt>
      <trkpt lat="47.67809" lon="2.1440864">
        <ele>160.0</ele>
        <time>2022-02-17T09:13:10Z</time>
      </trkpt>
      <trkpt lat="47.678085" lon="2.1440694">
        <ele>160.0</ele>
        <time>2022-02-17T09:13:11Z</time>
      </trkpt>
      <trkpt lat="47.67808" lon="2.14405">
        <ele>160.0</ele>
        <time>2022-02-17T09:13:12Z</time>
      </trkpt>
      <trkpt lat="47.67808" lon="2.1440306">
        <ele>160.0</ele>
        <time>2022-02-17T09:13:13Z</time>
      </trkpt>
      <trkpt lat="47.67808" lon="2.1440144">
        <ele>160.0</ele>
        <time>2022-02-17T09:13:14Z</time>
      </trkpt>
      <trkpt lat="47.67808" lon="2.1439986">
        <ele>160.0</ele>
        <time>2022-02-17T09:13:15Z</time>
      </trkpt>
      <trkpt lat="47.67808" lon="2.1439848">
        <ele>160.0</ele>
        <time>2022-02-17T09:13:16Z</time>
      </trkpt>
      <trkpt lat="47.678078" lon="2.143968">
        <ele>160.0</ele>
        <time>2022-02-17T09:13:17Z</time>
      </trkpt>
      <trkpt lat="47.678074" lon="2.1439545">
        <ele>159.0</ele>
        <time>2022-02-17T09:13:18Z</time>
      </trkpt>
      <trkpt lat="47.67807" lon="2.1439402">
        <ele>159.0</ele>
        <time>2022-02-17T09:13:19Z</time>
      </trkpt>
      <trkpt lat="47.678066" lon="2.1439252">
        <ele>159.0</ele>
        <time>2022-02-17T09:13:20Z</time>
      </trkpt>
      <trkpt lat="47.678066" lon="2.1439078">
        <ele>159.0</ele>
        <time>2022-02-17T09:13:21Z</time>
      </trkpt>
      <trkpt lat="47.678062" lon="2.1438866">
        <ele>160.0</ele>
        <time>2022-02-17T09:13:22Z</time>
      </trkpt>
      <trkpt lat="47.678062" lon="2.1438663">
        <ele>160.0</ele>
        <time>2022-02-17T09:13:23Z</time>
      </trkpt>
      <trkpt lat="47.67806" lon="2.143848">
        <ele>159.0</ele>
        <time>2022-02-17T09:13:24Z</time>
      </trkpt>
      <trkpt lat="47.67806" lon="2.1438293">
        <ele>159.0</ele>
        <time>2022-02-17T09:13:25Z</time>
      </trkpt>
      <trkpt lat="47.67806" lon="2.14381">
        <ele>159.0</ele>
        <time>2022-02-17T09:13:26Z</time>
      </trkpt>
      <trkpt lat="47.67806" lon="2.143791">
        <ele>159.0</ele>
        <time>2022-02-17T09:13:27Z</time>
      </trkpt>
      <trkpt lat="47.67805" lon="2.1437752">
        <ele>159.0</ele>
        <time>2022-02-17T09:13:28Z</time>
      </trkpt>
      <trkpt lat="47.678047" lon="2.1437557">
        <ele>159.0</ele>
        <time>2022-02-17T09:13:29Z</time>
      </trkpt>
      <trkpt lat="47.678043" lon="2.1437368">
        <ele>159.0</ele>
        <time>2022-02-17T09:13:30Z</time>
      </trkpt>
      <trkpt lat="47.678043" lon="2.1437175">
        <ele>159.0</ele>
        <time>2022-02-17T09:13:31Z</time>
      </trkpt>
      <trkpt lat="47.67804" lon="2.1437001">
        <ele>159.0</ele>
        <time>2022-02-17T09:13:32Z</time>
      </trkpt>
      <trkpt lat="47.678032" lon="2.1436856">
        <ele>159.0</ele>
        <time>2022-02-17T09:13:33Z</time>
      </trkpt>
      <trkpt lat="47.678032" lon="2.1436725">
        <ele>160.0</ele>
        <time>2022-02-17T09:13:34Z</time>
      </trkpt>
      <trkpt lat="47.678024" lon="2.1436584">
        <ele>160.0</ele>
        <time>2022-02-17T09:13:35Z</time>
      </trkpt>
      <trkpt lat="47.678017" lon="2.1436443">
        <ele>160.0</ele>
        <time>2022-02-17T09:13:36Z</time>
      </trkpt>
      <trkpt lat="47.678005" lon="2.1436324">
        <ele>160.0</ele>
        <time>2022-02-17T09:13:37Z</time>
      </trkpt>
      <trkpt lat="47.677994" lon="2.1436243">
        <ele>160.0</ele>
        <time>2022-02-17T09:13:38Z</time>
      </trkpt>
      <trkpt lat="47.67798" lon="2.1436176">
        <ele>160.0</ele>
        <time>2022-02-17T09:13:39Z</time>
      </trkpt>
      <trkpt lat="47.677967" lon="2.1436124">
        <ele>160.0</ele>
        <time>2022-02-17T09:13:40Z</time>
      </trkpt>
      <trkpt lat="47.67795" lon="2.1436143">
        <ele>160.0</ele>
        <time>2022-02-17T09:13:41Z</time>
      </trkpt>
      <trkpt lat="47.677937" lon="2.1436179">
        <ele>160.0</ele>
        <time>2022-02-17T09:13:42Z</time>
      </trkpt>
      <trkpt lat="47.67792" lon="2.143621">
        <ele>160.0</ele>
        <time>2022-02-17T09:13:43Z</time>
      </trkpt>
      <trkpt lat="47.67791" lon="2.143621">
        <ele>159.0</ele>
        <time>2022-02-17T09:13:44Z</time>
      </trkpt>
      <trkpt lat="47.677895" lon="2.143625">
        <ele>159.0</ele>
        <time>2022-02-17T09:13:45Z</time>
      </trkpt>
      <trkpt lat="47.677883" lon="2.143622">
        <ele>160.0</ele>
        <time>2022-02-17T09:13:46Z</time>
      </trkpt>
      <trkpt lat="47.67787" lon="2.1436203">
        <ele>160.0</ele>
        <time>2022-02-17T09:13:47Z</time>
      </trkpt>
      <trkpt lat="47.677856" lon="2.1436248">
        <ele>160.0</ele>
        <time>2022-02-17T09:13:48Z</time>
      </trkpt>
      <trkpt lat="47.67784" lon="2.1436245">
        <ele>160.0</ele>
        <time>2022-02-17T09:13:49Z</time>
      </trkpt>
      <trkpt lat="47.67783" lon="2.1436276">
        <ele>160.0</ele>
        <time>2022-02-17T09:13:50Z</time>
      </trkpt>
      <trkpt lat="47.67782" lon="2.1436284">
        <ele>160.0</ele>
        <time>2022-02-17T09:13:51Z</time>
      </trkpt>
      <trkpt lat="47.67781" lon="2.1436286">
        <ele>160.0</ele>
        <time>2022-02-17T09:13:52Z</time>
      </trkpt>
      <trkpt lat="47.677803" lon="2.1436284">
        <ele>160.0</ele>
        <time>2022-02-17T09:13:53Z</time>
      </trkpt>
      <trkpt lat="47.67779" lon="2.1436298">
        <ele>160.0</ele>
        <time>2022-02-17T09:13:54Z</time>
      </trkpt>
      <trkpt lat="47.67778" lon="2.1436336">
        <ele>160.0</ele>
        <time>2022-02-17T09:13:55Z</time>
      </trkpt>
      <trkpt lat="47.67777" lon="2.1436315">
        <ele>160.0</ele>
        <time>2022-02-17T09:13:56Z</time>
      </trkpt>
      <trkpt lat="47.67776" lon="2.1436286">
        <ele>161.0</ele>
        <time>2022-02-17T09:13:57Z</time>
      </trkpt>
      <trkpt lat="47.677746" lon="2.1436265">
        <ele>161.0</ele>
        <time>2022-02-17T09:13:58Z</time>
      </trkpt>
      <trkpt lat="47.677734" lon="2.143628">
        <ele>161.0</ele>
        <time>2022-02-17T09:13:59Z</time>
      </trkpt>
      <trkpt lat="47.67772" lon="2.1436293">
        <ele>161.0</ele>
        <time>2022-02-17T09:14:00Z</time>
      </trkpt>
      <trkpt lat="47.677708" lon="2.1436305">
        <ele>161.0</ele>
        <time>2022-02-17T09:14:01Z</time>
      </trkpt>
      <trkpt lat="47.677696" lon="2.1436322">
        <ele>161.0</ele>
        <time>2022-02-17T09:14:02Z</time>
      </trkpt>
      <trkpt lat="47.677685" lon="2.14363">
        <ele>161.0</ele>
        <time>2022-02-17T09:14:03Z</time>
      </trkpt>
      <trkpt lat="47.677677" lon="2.14363">
        <ele>161.0</ele>
        <time>2022-02-17T09:14:04Z</time>
      </trkpt>
      <trkpt lat="47.677666" lon="2.143632">
        <ele>161.0</ele>
        <time>2022-02-17T09:14:05Z</time>
      </trkpt>
      <trkpt lat="47.677654" lon="2.1436331">
        <ele>161.0</ele>
        <time>2022-02-17T09:14:06Z</time>
      </trkpt>
      <trkpt lat="47.677643" lon="2.143632">
        <ele>161.0</ele>
        <time>2022-02-17T09:14:07Z</time>
      </trkpt>
      <trkpt lat="47.677624" lon="2.1436331">
        <ele>160.0</ele>
        <time>2022-02-17T09:14:08Z</time>
      </trkpt>
      <trkpt lat="47.677612" lon="2.143631">
        <ele>161.0</ele>
        <time>2022-02-17T09:14:09Z</time>
      </trkpt>
      <trkpt lat="47.677605" lon="2.1436298">
        <ele>161.0</ele>
        <time>2022-02-17T09:14:10Z</time>
      </trkpt>
      <trkpt lat="47.677593" lon="2.143629">
        <ele>161.0</ele>
        <time>2022-02-17T09:14:11Z</time>
      </trkpt>
      <trkpt lat="47.67758" lon="2.1436286">
        <ele>162.0</ele>
        <time>2022-02-17T09:14:12Z</time>
      </trkpt>
      <trkpt lat="47.677563" lon="2.1436293">
        <ele>162.0</ele>
        <time>2022-02-17T09:14:13Z</time>
      </trkpt>
      <trkpt lat="47.677547" lon="2.1436288">
        <ele>162.0</ele>
        <time>2022-02-17T09:14:14Z</time>
      </trkpt>
      <trkpt lat="47.677536" lon="2.1436296">
        <ele>162.0</ele>
        <time>2022-02-17T09:14:15Z</time>
      </trkpt>
      <trkpt lat="47.67752" lon="2.1436293">
        <ele>162.0</ele>
        <time>2022-02-17T09:14:16Z</time>
      </trkpt>
      <trkpt lat="47.67751" lon="2.1436312">
        <ele>163.0</ele>
        <time>2022-02-17T09:14:17Z</time>
      </trkpt>
      <trkpt lat="47.677494" lon="2.14363">
        <ele>163.0</ele>
        <time>2022-02-17T09:14:18Z</time>
      </trkpt>
      <trkpt lat="47.677483" lon="2.143628">
        <ele>163.0</ele>
        <time>2022-02-17T09:14:19Z</time>
      </trkpt>
      <trkpt lat="47.677467" lon="2.143629">
        <ele>163.0</ele>
        <time>2022-02-17T09:14:20Z</time>
      </trkpt>
      <trkpt lat="47.677452" lon="2.143631">
        <ele>163.0</ele>
        <time>2022-02-17T09:14:21Z</time>
      </trkpt>
      <trkpt lat="47.67744" lon="2.143625">
        <ele>164.0</ele>
        <time>2022-02-17T09:14:22Z</time>
      </trkpt>
      <trkpt lat="47.677425" lon="2.1436222">
        <ele>164.0</ele>
        <time>2022-02-17T09:14:23Z</time>
      </trkpt>
      <trkpt lat="47.677414" lon="2.1436212">
        <ele>164.0</ele>
        <time>2022-02-17T09:14:24Z</time>
      </trkpt>
      <trkpt lat="47.6774" lon="2.1436203">
        <ele>164.0</ele>
        <time>2022-02-17T09:14:25Z</time>
      </trkpt>
      <trkpt lat="47.67738" lon="2.1436224">
        <ele>165.0</ele>
        <time>2022-02-17T09:14:26Z</time>
      </trkpt>
      <trkpt lat="47.677364" lon="2.1436243">
        <ele>165.0</ele>
        <time>2022-02-17T09:14:27Z</time>
      </trkpt>
      <trkpt lat="47.67735" lon="2.1436272">
        <ele>166.0</ele>
        <time>2022-02-17T09:14:28Z</time>
      </trkpt>
      <trkpt lat="47.677338" lon="2.1436276">
        <ele>166.0</ele>
        <time>2022-02-17T09:14:29Z</time>
      </trkpt>
      <trkpt lat="47.677322" lon="2.143624">
        <ele>166.0</ele>
        <time>2022-02-17T09:14:30Z</time>
      </trkpt>
      <trkpt lat="47.67731" lon="2.143622">
        <ele>167.0</ele>
        <time>2022-02-17T09:14:31Z</time>
      </trkpt>
      <trkpt lat="47.677296" lon="2.1436207">
        <ele>167.0</ele>
        <time>2022-02-17T09:14:32Z</time>
      </trkpt>
      <trkpt lat="47.677284" lon="2.1436224">
        <ele>166.0</ele>
        <time>2022-02-17T09:14:33Z</time>
      </trkpt>
      <trkpt lat="47.677273" lon="2.1436224">
        <ele>166.0</ele>
        <time>2022-02-17T09:14:34Z</time>
      </trkpt>
      <trkpt lat="47.67726" lon="2.143623">
        <ele>166.0</ele>
        <time>2022-02-17T09:14:35Z</time>
      </trkpt>
      <trkpt lat="47.677246" lon="2.1436224">
        <ele>166.0</ele>
        <time>2022-02-17T09:14:36Z</time>
      </trkpt>
      <trkpt lat="47.67724" lon="2.1436203">
        <ele>166.0</ele>
        <time>2022-02-17T09:14:37Z</time>
      </trkpt>
      <trkpt lat="47.677227" lon="2.1436155">
        <ele>166.0</ele>
        <time>2022-02-17T09:14:38Z</time>
      </trkpt>
      <trkpt lat="47.67722" lon="2.1436148">
        <ele>166.0</ele>
        <time>2022-02-17T09:14:39Z</time>
      </trkpt>
      <trkpt lat="47.677208" lon="2.1436186">
        <ele>167.0</ele>
        <time>2022-02-17T09:14:40Z</time>
      </trkpt>
      <trkpt lat="47.677193" lon="2.14362">
        <ele>167.0</ele>
        <time>2022-02-17T09:14:41Z</time>
      </trkpt>
      <trkpt lat="47.677177" lon="2.1436243">
        <ele>168.0</ele>
        <time>2022-02-17T09:14:42Z</time>
      </trkpt>
      <trkpt lat="47.677162" lon="2.143624">
        <ele>168.0</ele>
        <time>2022-02-17T09:14:43Z</time>
      </trkpt>
      <trkpt lat="47.67715" lon="2.1436229">
        <ele>167.0</ele>
        <time>2022-02-17T09:14:44Z</time>
      </trkpt>
      <trkpt lat="47.677143" lon="2.143626">
        <ele>167.0</ele>
        <time>2022-02-17T09:14:45Z</time>
      </trkpt>
      <trkpt lat="47.67713" lon="2.1436234">
        <ele>166.0</ele>
        <time>2022-02-17T09:14:46Z</time>
      </trkpt>
      <trkpt lat="47.677124" lon="2.1436238">
        <ele>166.0</ele>
        <time>2022-02-17T09:14:47Z</time>
      </trkpt>
      <trkpt lat="47.67711" lon="2.1436274">
        <ele>165.0</ele>
        <time>2022-02-17T09:14:48Z</time>
      </trkpt>
      <trkpt lat="47.677094" lon="2.1436286">
        <ele>166.0</ele>
        <time>2022-02-17T09:14:49Z</time>
      </trkpt>
      <trkpt lat="47.67708" lon="2.1436293">
        <ele>166.0</ele>
        <time>2022-02-17T09:14:50Z</time>
      </trkpt>
      <trkpt lat="47.677063" lon="2.14363">
        <ele>166.0</ele>
        <time>2022-02-17T09:14:51Z</time>
      </trkpt>
      <trkpt lat="47.677048" lon="2.1436293">
        <ele>166.0</ele>
        <time>2022-02-17T09:14:52Z</time>
      </trkpt>
      <trkpt lat="47.677036" lon="2.1436315">
        <ele>165.0</ele>
        <time>2022-02-17T09:14:53Z</time>
      </trkpt>
      <trkpt lat="47.67702" lon="2.143634">
        <ele>165.0</ele>
        <time>2022-02-17T09:14:54Z</time>
      </trkpt>
      <trkpt lat="47.677006" lon="2.1436353">
        <ele>165.0</ele>
        <time>2022-02-17T09:14:55Z</time>
      </trkpt>
      <trkpt lat="47.67699" lon="2.143641">
        <ele>165.0</ele>
        <time>2022-02-17T09:14:56Z</time>
      </trkpt>
      <trkpt lat="47.67697" lon="2.1436427">
        <ele>165.0</ele>
        <time>2022-02-17T09:14:57Z</time>
      </trkpt>
      <trkpt lat="47.676956" lon="2.143639">
        <ele>166.0</ele>
        <time>2022-02-17T09:14:58Z</time>
      </trkpt>
      <trkpt lat="47.676945" lon="2.1436386">
        <ele>165.0</ele>
        <time>2022-02-17T09:14:59Z</time>
      </trkpt>
      <trkpt lat="47.67693" lon="2.14364">
        <ele>166.0</ele>
        <time>2022-02-17T09:15:00Z</time>
      </trkpt>
      <trkpt lat="47.676918" lon="2.143635">
        <ele>166.0</ele>
        <time>2022-02-17T09:15:01Z</time>
      </trkpt>
      <trkpt lat="47.676903" lon="2.1436331">
        <ele>166.0</ele>
        <time>2022-02-17T09:15:02Z</time>
      </trkpt>
      <trkpt lat="47.67689" lon="2.1436317">
        <ele>167.0</ele>
        <time>2022-02-17T09:15:03Z</time>
      </trkpt>
      <trkpt lat="47.676884" lon="2.1436286">
        <ele>166.0</ele>
        <time>2022-02-17T09:15:04Z</time>
      </trkpt>
      <trkpt lat="47.67687" lon="2.1436267">
        <ele>166.0</ele>
        <time>2022-02-17T09:15:05Z</time>
      </trkpt>
      <trkpt lat="47.676857" lon="2.1436207">
        <ele>166.0</ele>
        <time>2022-02-17T09:15:06Z</time>
      </trkpt>
      <trkpt lat="47.676846" lon="2.143613">
        <ele>165.0</ele>
        <time>2022-02-17T09:15:07Z</time>
      </trkpt>
      <trkpt lat="47.676834" lon="2.143614">
        <ele>165.0</ele>
        <time>2022-02-17T09:15:08Z</time>
      </trkpt>
      <trkpt lat="47.676815" lon="2.1436145">
        <ele>165.0</ele>
        <time>2022-02-17T09:15:09Z</time>
      </trkpt>
      <trkpt lat="47.676804" lon="2.1436172">
        <ele>165.0</ele>
        <time>2022-02-17T09:15:10Z</time>
      </trkpt>
      <trkpt lat="47.676792" lon="2.1436126">
        <ele>165.0</ele>
        <time>2022-02-17T09:15:11Z</time>
      </trkpt>
      <trkpt lat="47.67678" lon="2.143607">
        <ele>165.0</ele>
        <time>2022-02-17T09:15:12Z</time>
      </trkpt>
      <trkpt lat="47.67677" lon="2.1436067">
        <ele>165.0</ele>
        <time>2022-02-17T09:15:13Z</time>
      </trkpt>
      <trkpt lat="47.676754" lon="2.1436062">
        <ele>165.0</ele>
        <time>2022-02-17T09:15:14Z</time>
      </trkpt>
      <trkpt lat="47.676743" lon="2.1436062">
        <ele>165.0</ele>
        <time>2022-02-17T09:15:15Z</time>
      </trkpt>
      <trkpt lat="47.676735" lon="2.1436021">
        <ele>166.0</ele>
        <time>2022-02-17T09:15:16Z</time>
      </trkpt>
      <trkpt lat="47.676727" lon="2.1435962">
        <ele>166.0</ele>
        <time>2022-02-17T09:15:17Z</time>
      </trkpt>
      <trkpt lat="47.67672" lon="2.1435905">
        <ele>165.0</ele>
        <time>2022-02-17T09:15:18Z</time>
      </trkpt>
      <trkpt lat="47.676704" lon="2.143587">
        <ele>166.0</ele>
        <time>2022-02-17T09:15:19Z</time>
      </trkpt>
      <trkpt lat="47.676693" lon="2.1435835">
        <ele>166.0</ele>
        <time>2022-02-17T09:15:20Z</time>
      </trkpt>
      <trkpt lat="47.67668" lon="2.1435816">
        <ele>166.0</ele>
        <time>2022-02-17T09:15:21Z</time>
      </trkpt>
      <trkpt lat="47.676666" lon="2.143583">
        <ele>166.0</ele>
        <time>2022-02-17T09:15:22Z</time>
      </trkpt>
      <trkpt lat="47.676655" lon="2.1435823">
        <ele>166.0</ele>
        <time>2022-02-17T09:15:23Z</time>
      </trkpt>
      <trkpt lat="47.676643" lon="2.1435819">
        <ele>167.0</ele>
        <time>2022-02-17T09:15:24Z</time>
      </trkpt>
      <trkpt lat="47.676632" lon="2.1435788">
        <ele>167.0</ele>
        <time>2022-02-17T09:15:25Z</time>
      </trkpt>
      <trkpt lat="47.676617" lon="2.1435733">
        <ele>167.0</ele>
        <time>2022-02-17T09:15:26Z</time>
      </trkpt>
      <trkpt lat="47.676605" lon="2.1435735">
        <ele>167.0</ele>
        <time>2022-02-17T09:15:27Z</time>
      </trkpt>
      <trkpt lat="47.67659" lon="2.1435733">
        <ele>167.0</ele>
        <time>2022-02-17T09:15:28Z</time>
      </trkpt>
      <trkpt lat="47.67658" lon="2.143571">
        <ele>167.0</ele>
        <time>2022-02-17T09:15:29Z</time>
      </trkpt>
      <trkpt lat="47.676563" lon="2.1435664">
        <ele>167.0</ele>
        <time>2022-02-17T09:15:30Z</time>
      </trkpt>
      <trkpt lat="47.676556" lon="2.1435637">
        <ele>167.0</ele>
        <time>2022-02-17T09:15:31Z</time>
      </trkpt>
      <trkpt lat="47.676548" lon="2.143559">
        <ele>167.0</ele>
        <time>2022-02-17T09:15:32Z</time>
      </trkpt>
      <trkpt lat="47.67654" lon="2.1435544">
        <ele>167.0</ele>
        <time>2022-02-17T09:15:33Z</time>
      </trkpt>
      <trkpt lat="47.67653" lon="2.1435497">
        <ele>168.0</ele>
        <time>2022-02-17T09:15:34Z</time>
      </trkpt>
      <trkpt lat="47.67652" lon="2.143542">
        <ele>167.0</ele>
        <time>2022-02-17T09:15:35Z</time>
      </trkpt>
      <trkpt lat="47.676514" lon="2.143538">
        <ele>167.0</ele>
        <time>2022-02-17T09:15:36Z</time>
      </trkpt>
      <trkpt lat="47.676502" lon="2.1435347">
        <ele>168.0</ele>
        <time>2022-02-17T09:15:37Z</time>
      </trkpt>
      <trkpt lat="47.67649" lon="2.1435294">
        <ele>169.0</ele>
        <time>2022-02-17T09:15:38Z</time>
      </trkpt>
      <trkpt lat="47.676483" lon="2.1435282">
        <ele>169.0</ele>
        <time>2022-02-17T09:15:39Z</time>
      </trkpt>
      <trkpt lat="47.67648" lon="2.143529">
        <ele>169.0</ele>
        <time>2022-02-17T09:15:40Z</time>
      </trkpt>
      <trkpt lat="47.676476" lon="2.143529">
        <ele>168.0</ele>
        <time>2022-02-17T09:15:41Z</time>
      </trkpt>
      <trkpt lat="47.676476" lon="2.1435304">
        <ele>167.0</ele>
        <time>2022-02-17T09:15:42Z</time>
      </trkpt>
      <trkpt lat="47.676476" lon="2.1435304">
        <ele>167.0</ele>
        <time>2022-02-17T09:15:43Z</time>
      </trkpt>
      <trkpt lat="47.676476" lon="2.1435304">
        <ele>167.0</ele>
        <time>2022-02-17T09:15:44Z</time>
      </trkpt>
      <trkpt lat="47.676476" lon="2.1435304">
        <ele>167.0</ele>
        <time>2022-02-17T09:15:45Z</time>
      </trkpt>
      <trkpt lat="47.676476" lon="2.1435304">
        <ele>167.0</ele>
        <time>2022-02-17T09:15:45Z</time>
      </trkpt>
      <trkpt lat="47.676476" lon="2.1435304">
        <ele>167.0</ele>
        <time>2022-02-17T09:15:45Z</time>
      </trkpt>
      <trkpt lat="47.676346" lon="2.1434793">
        <ele>168.0</ele>
        <time>2022-02-17T09:16:09Z</time>
      </trkpt>
      <trkpt lat="47.676334" lon="2.1434734">
        <ele>168.0</ele>
        <time>2022-02-17T09:16:10Z</time>
      </trkpt>
      <trkpt lat="47.676323" lon="2.143472">
        <ele>167.0</ele>
        <time>2022-02-17T09:16:11Z</time>
      </trkpt>
      <trkpt lat="47.676315" lon="2.1434739">
        <ele>167.0</ele>
        <time>2022-02-17T09:16:12Z</time>
      </trkpt>
      <trkpt lat="47.676304" lon="2.1434743">
        <ele>167.0</ele>
        <time>2022-02-17T09:16:13Z</time>
      </trkpt>
      <trkpt lat="47.676296" lon="2.143467">
        <ele>167.0</ele>
        <time>2022-02-17T09:16:14Z</time>
      </trkpt>
      <trkpt lat="47.67629" lon="2.1434605">
        <ele>166.0</ele>
        <time>2022-02-17T09:16:15Z</time>
      </trkpt>
      <trkpt lat="47.67628" lon="2.1434572">
        <ele>166.0</ele>
        <time>2022-02-17T09:16:16Z</time>
      </trkpt>
      <trkpt lat="47.67627" lon="2.143451">
        <ele>166.0</ele>
        <time>2022-02-17T09:16:17Z</time>
      </trkpt>
      <trkpt lat="47.676258" lon="2.143448">
        <ele>166.0</ele>
        <time>2022-02-17T09:16:18Z</time>
      </trkpt>
      <trkpt lat="47.676247" lon="2.143444">
        <ele>165.0</ele>
        <time>2022-02-17T09:16:19Z</time>
      </trkpt>
      <trkpt lat="47.676235" lon="2.1434388">
        <ele>165.0</ele>
        <time>2022-02-17T09:16:20Z</time>
      </trkpt>
      <trkpt lat="47.676228" lon="2.1434329">
        <ele>165.0</ele>
        <time>2022-02-17T09:16:21Z</time>
      </trkpt>
      <trkpt lat="47.67622" lon="2.1434329">
        <ele>165.0</ele>
        <time>2022-02-17T09:16:22Z</time>
      </trkpt>
      <trkpt lat="47.67621" lon="2.143432">
        <ele>164.0</ele>
        <time>2022-02-17T09:16:23Z</time>
      </trkpt>
      <trkpt lat="47.676197" lon="2.1434252">
        <ele>164.0</ele>
        <time>2022-02-17T09:16:24Z</time>
      </trkpt>
      <trkpt lat="47.676186" lon="2.1434205">
        <ele>164.0</ele>
        <time>2022-02-17T09:16:25Z</time>
      </trkpt>
      <trkpt lat="47.676178" lon="2.1434162">
        <ele>163.0</ele>
        <time>2022-02-17T09:16:26Z</time>
      </trkpt>
      <trkpt lat="47.676167" lon="2.1434114">
        <ele>163.0</ele>
        <time>2022-02-17T09:16:27Z</time>
      </trkpt>
      <trkpt lat="47.676155" lon="2.1434093">
        <ele>163.0</ele>
        <time>2022-02-17T09:16:28Z</time>
      </trkpt>
      <trkpt lat="47.676144" lon="2.14341">
        <ele>163.0</ele>
        <time>2022-02-17T09:16:29Z</time>
      </trkpt>
      <trkpt lat="47.67613" lon="2.1434057">
        <ele>163.0</ele>
        <time>2022-02-17T09:16:30Z</time>
      </trkpt>
      <trkpt lat="47.676117" lon="2.1434026">
        <ele>163.0</ele>
        <time>2022-02-17T09:16:31Z</time>
      </trkpt>
      <trkpt lat="47.676105" lon="2.1433978">
        <ele>163.0</ele>
        <time>2022-02-17T09:16:32Z</time>
      </trkpt>
      <trkpt lat="47.676094" lon="2.1433978">
        <ele>163.0</ele>
        <time>2022-02-17T09:16:33Z</time>
      </trkpt>
      <trkpt lat="47.67608" lon="2.1433902">
        <ele>163.0</ele>
        <time>2022-02-17T09:16:34Z</time>
      </trkpt>
      <trkpt lat="47.676067" lon="2.1433873">
        <ele>164.0</ele>
        <time>2022-02-17T09:16:35Z</time>
      </trkpt>
      <trkpt lat="47.67606" lon="2.1433852">
        <ele>164.0</ele>
        <time>2022-02-17T09:16:36Z</time>
      </trkpt>
      <trkpt lat="47.67605" lon="2.143384">
        <ele>165.0</ele>
        <time>2022-02-17T09:16:37Z</time>
      </trkpt>
      <trkpt lat="47.676037" lon="2.1433837">
        <ele>164.0</ele>
        <time>2022-02-17T09:16:38Z</time>
      </trkpt>
      <trkpt lat="47.676025" lon="2.14338">
        <ele>164.0</ele>
        <time>2022-02-17T09:16:39Z</time>
      </trkpt>
      <trkpt lat="47.67601" lon="2.1433768">
        <ele>164.0</ele>
        <time>2022-02-17T09:16:40Z</time>
      </trkpt>
      <trkpt lat="47.676" lon="2.143371">
        <ele>164.0</ele>
        <time>2022-02-17T09:16:41Z</time>
      </trkpt>
      <trkpt lat="47.67599" lon="2.14337">
        <ele>164.0</ele>
        <time>2022-02-17T09:16:42Z</time>
      </trkpt>
      <trkpt lat="47.67598" lon="2.1433682">
        <ele>164.0</ele>
        <time>2022-02-17T09:16:43Z</time>
      </trkpt>
      <trkpt lat="47.67597" lon="2.1433625">
        <ele>164.0</ele>
        <time>2022-02-17T09:16:44Z</time>
      </trkpt>
      <trkpt lat="47.67596" lon="2.1433594">
        <ele>164.0</ele>
        <time>2022-02-17T09:16:45Z</time>
      </trkpt>
      <trkpt lat="47.67595" lon="2.1433568">
        <ele>164.0</ele>
        <time>2022-02-17T09:16:46Z</time>
      </trkpt>
      <trkpt lat="47.675934" lon="2.1433482">
        <ele>164.0</ele>
        <time>2022-02-17T09:16:47Z</time>
      </trkpt>
      <trkpt lat="47.67592" lon="2.1433442">
        <ele>164.0</ele>
        <time>2022-02-17T09:16:48Z</time>
      </trkpt>
      <trkpt lat="47.67591" lon="2.143338">
        <ele>164.0</ele>
        <time>2022-02-17T09:16:49Z</time>
      </trkpt>
      <trkpt lat="47.6759" lon="2.143332">
        <ele>164.0</ele>
        <time>2022-02-17T09:16:50Z</time>
      </trkpt>
      <trkpt lat="47.675888" lon="2.1433249">
        <ele>164.0</ele>
        <time>2022-02-17T09:16:51Z</time>
      </trkpt>
      <trkpt lat="47.675873" lon="2.1433218">
        <ele>164.0</ele>
        <time>2022-02-17T09:16:52Z</time>
      </trkpt>
      <trkpt lat="47.675858" lon="2.14332">
        <ele>165.0</ele>
        <time>2022-02-17T09:16:53Z</time>
      </trkpt>
      <trkpt lat="47.67585" lon="2.1433096">
        <ele>164.0</ele>
        <time>2022-02-17T09:16:54Z</time>
      </trkpt>
      <trkpt lat="47.67584" lon="2.1433036">
        <ele>164.0</ele>
        <time>2022-02-17T09:16:55Z</time>
      </trkpt>
      <trkpt lat="47.675827" lon="2.143298">
        <ele>164.0</ele>
        <time>2022-02-17T09:16:56Z</time>
      </trkpt>
      <trkpt lat="47.675816" lon="2.1432908">
        <ele>164.0</ele>
        <time>2022-02-17T09:16:57Z</time>
      </trkpt>
      <trkpt lat="47.675804" lon="2.143286">
        <ele>164.0</ele>
        <time>2022-02-17T09:16:58Z</time>
      </trkpt>
      <trkpt lat="47.675797" lon="2.1432824">
        <ele>164.0</ele>
        <time>2022-02-17T09:16:59Z</time>
      </trkpt>
      <trkpt lat="47.675785" lon="2.1432817">
        <ele>164.0</ele>
        <time>2022-02-17T09:17:00Z</time>
      </trkpt>
      <trkpt lat="47.675774" lon="2.1432803">
        <ele>164.0</ele>
        <time>2022-02-17T09:17:01Z</time>
      </trkpt>
      <trkpt lat="47.675762" lon="2.1432781">
        <ele>163.0</ele>
        <time>2022-02-17T09:17:02Z</time>
      </trkpt>
      <trkpt lat="47.675747" lon="2.143281">
        <ele>163.0</ele>
        <time>2022-02-17T09:17:03Z</time>
      </trkpt>
      <trkpt lat="47.67573" lon="2.143279">
        <ele>163.0</ele>
        <time>2022-02-17T09:17:04Z</time>
      </trkpt>
      <trkpt lat="47.67572" lon="2.1432767">
        <ele>163.0</ele>
        <time>2022-02-17T09:17:05Z</time>
      </trkpt>
      <trkpt lat="47.67571" lon="2.1432767">
        <ele>163.0</ele>
        <time>2022-02-17T09:17:06Z</time>
      </trkpt>
      <trkpt lat="47.675694" lon="2.1432745">
        <ele>163.0</ele>
        <time>2022-02-17T09:17:07Z</time>
      </trkpt>
      <trkpt lat="47.67568" lon="2.1432698">
        <ele>163.0</ele>
        <time>2022-02-17T09:17:08Z</time>
      </trkpt>
      <trkpt lat="47.675667" lon="2.1432614">
        <ele>163.0</ele>
        <time>2022-02-17T09:17:09Z</time>
      </trkpt>
      <trkpt lat="47.675655" lon="2.1432588">
        <ele>163.0</ele>
        <time>2022-02-17T09:17:10Z</time>
      </trkpt>
      <trkpt lat="47.675644" lon="2.143266">
        <ele>163.0</ele>
        <time>2022-02-17T09:17:11Z</time>
      </trkpt>
      <trkpt lat="47.675632" lon="2.1432636">
        <ele>163.0</ele>
        <time>2022-02-17T09:17:12Z</time>
      </trkpt>
      <trkpt lat="47.67562" lon="2.1432626">
        <ele>163.0</ele>
        <time>2022-02-17T09:17:13Z</time>
      </trkpt>
      <trkpt lat="47.67561" lon="2.1432562">
        <ele>163.0</ele>
        <time>2022-02-17T09:17:14Z</time>
      </trkpt>
      <trkpt lat="47.675594" lon="2.143255">
        <ele>163.0</ele>
        <time>2022-02-17T09:17:15Z</time>
      </trkpt>
      <trkpt lat="47.675587" lon="2.1432526">
        <ele>164.0</ele>
        <time>2022-02-17T09:17:16Z</time>
      </trkpt>
      <trkpt lat="47.675575" lon="2.1432526">
        <ele>164.0</ele>
        <time>2022-02-17T09:17:17Z</time>
      </trkpt>
      <trkpt lat="47.67556" lon="2.1432512">
        <ele>163.0</ele>
        <time>2022-02-17T09:17:18Z</time>
      </trkpt>
      <trkpt lat="47.67555" lon="2.1432476">
        <ele>163.0</ele>
        <time>2022-02-17T09:17:19Z</time>
      </trkpt>
      <trkpt lat="47.675537" lon="2.1432462">
        <ele>163.0</ele>
        <time>2022-02-17T09:17:20Z</time>
      </trkpt>
      <trkpt lat="47.675526" lon="2.143243">
        <ele>163.0</ele>
        <time>2022-02-17T09:17:21Z</time>
      </trkpt>
      <trkpt lat="47.67551" lon="2.1432393">
        <ele>163.0</ele>
        <time>2022-02-17T09:17:22Z</time>
      </trkpt>
      <trkpt lat="47.675495" lon="2.1432343">
        <ele>163.0</ele>
        <time>2022-02-17T09:17:23Z</time>
      </trkpt>
      <trkpt lat="47.67548" lon="2.1432314">
        <ele>163.0</ele>
        <time>2022-02-17T09:17:24Z</time>
      </trkpt>
      <trkpt lat="47.675465" lon="2.143223">
        <ele>163.0</ele>
        <time>2022-02-17T09:17:25Z</time>
      </trkpt>
      <trkpt lat="47.67545" lon="2.143218">
        <ele>164.0</ele>
        <time>2022-02-17T09:17:26Z</time>
      </trkpt>
      <trkpt lat="47.675434" lon="2.1432145">
        <ele>164.0</ele>
        <time>2022-02-17T09:17:27Z</time>
      </trkpt>
      <trkpt lat="47.67542" lon="2.1432102">
        <ele>164.0</ele>
        <time>2022-02-17T09:17:28Z</time>
      </trkpt>
      <trkpt lat="47.675404" lon="2.1432042">
        <ele>164.0</ele>
        <time>2022-02-17T09:17:29Z</time>
      </trkpt>
      <trkpt lat="47.675392" lon="2.1432002">
        <ele>165.0</ele>
        <time>2022-02-17T09:17:30Z</time>
      </trkpt>
      <trkpt lat="47.675377" lon="2.1431983">
        <ele>165.0</ele>
        <time>2022-02-17T09:17:31Z</time>
      </trkpt>
      <trkpt lat="47.675365" lon="2.143195">
        <ele>165.0</ele>
        <time>2022-02-17T09:17:32Z</time>
      </trkpt>
      <trkpt lat="47.675354" lon="2.1431916">
        <ele>165.0</ele>
        <time>2022-02-17T09:17:33Z</time>
      </trkpt>
      <trkpt lat="47.675343" lon="2.1431854">
        <ele>165.0</ele>
        <time>2022-02-17T09:17:34Z</time>
      </trkpt>
      <trkpt lat="47.675327" lon="2.1431804">
        <ele>166.0</ele>
        <time>2022-02-17T09:17:35Z</time>
      </trkpt>
      <trkpt lat="47.675316" lon="2.143175">
        <ele>166.0</ele>
        <time>2022-02-17T09:17:36Z</time>
      </trkpt>
      <trkpt lat="47.675304" lon="2.1431735">
        <ele>166.0</ele>
        <time>2022-02-17T09:17:37Z</time>
      </trkpt>
      <trkpt lat="47.67529" lon="2.143172">
        <ele>166.0</ele>
        <time>2022-02-17T09:17:38Z</time>
      </trkpt>
      <trkpt lat="47.675278" lon="2.1431658">
        <ele>166.0</ele>
        <time>2022-02-17T09:17:39Z</time>
      </trkpt>
      <trkpt lat="47.675266" lon="2.1431603">
        <ele>166.0</ele>
        <time>2022-02-17T09:17:40Z</time>
      </trkpt>
      <trkpt lat="47.675255" lon="2.1431508">
        <ele>166.0</ele>
        <time>2022-02-17T09:17:41Z</time>
      </trkpt>
      <trkpt lat="47.675243" lon="2.143147">
        <ele>166.0</ele>
        <time>2022-02-17T09:17:42Z</time>
      </trkpt>
      <trkpt lat="47.675232" lon="2.1431453">
        <ele>166.0</ele>
        <time>2022-02-17T09:17:43Z</time>
      </trkpt>
      <trkpt lat="47.67522" lon="2.143144">
        <ele>166.0</ele>
        <time>2022-02-17T09:17:44Z</time>
      </trkpt>
      <trkpt lat="47.67521" lon="2.1431403">
        <ele>165.0</ele>
        <time>2022-02-17T09:17:45Z</time>
      </trkpt>
      <trkpt lat="47.6752" lon="2.143141">
        <ele>165.0</ele>
        <time>2022-02-17T09:17:46Z</time>
      </trkpt>
      <trkpt lat="47.67519" lon="2.1431336">
        <ele>165.0</ele>
        <time>2022-02-17T09:17:47Z</time>
      </trkpt>
      <trkpt lat="47.67518" lon="2.1431293">
        <ele>165.0</ele>
        <time>2022-02-17T09:17:48Z</time>
      </trkpt>
      <trkpt lat="47.675167" lon="2.1431239">
        <ele>166.0</ele>
        <time>2022-02-17T09:17:49Z</time>
      </trkpt>
      <trkpt lat="47.67515" lon="2.143124">
        <ele>166.0</ele>
        <time>2022-02-17T09:17:50Z</time>
      </trkpt>
      <trkpt lat="47.67514" lon="2.143123">
        <ele>166.0</ele>
        <time>2022-02-17T09:17:51Z</time>
      </trkpt>
      <trkpt lat="47.675133" lon="2.1431172">
        <ele>167.0</ele>
        <time>2022-02-17T09:17:52Z</time>
      </trkpt>
      <trkpt lat="47.67512" lon="2.1431108">
        <ele>167.0</ele>
        <time>2022-02-17T09:17:53Z</time>
      </trkpt>
      <trkpt lat="47.675106" lon="2.1431017">
        <ele>167.0</ele>
        <time>2022-02-17T09:17:54Z</time>
      </trkpt>
      <trkpt lat="47.6751" lon="2.143097">
        <ele>167.0</ele>
        <time>2022-02-17T09:17:55Z</time>
      </trkpt>
      <trkpt lat="47.67509" lon="2.1430922">
        <ele>166.0</ele>
        <time>2022-02-17T09:17:56Z</time>
      </trkpt>
      <trkpt lat="47.675083" lon="2.1430912">
        <ele>166.0</ele>
        <time>2022-02-17T09:17:57Z</time>
      </trkpt>
      <trkpt lat="47.675076" lon="2.1430879">
        <ele>166.0</ele>
        <time>2022-02-17T09:17:58Z</time>
      </trkpt>
      <trkpt lat="47.675064" lon="2.143088">
        <ele>167.0</ele>
        <time>2022-02-17T09:17:59Z</time>
      </trkpt>
      <trkpt lat="47.67506" lon="2.1430857">
        <ele>167.0</ele>
        <time>2022-02-17T09:18:00Z</time>
      </trkpt>
      <trkpt lat="47.675053" lon="2.1430829">
        <ele>167.0</ele>
        <time>2022-02-17T09:18:01Z</time>
      </trkpt>
      <trkpt lat="47.67505" lon="2.1430871">
        <ele>167.0</ele>
        <time>2022-02-17T09:18:02Z</time>
      </trkpt>
      <trkpt lat="47.67504" lon="2.1430771">
        <ele>167.0</ele>
        <time>2022-02-17T09:18:03Z</time>
      </trkpt>
      <trkpt lat="47.67503" lon="2.1430721">
        <ele>167.0</ele>
        <time>2022-02-17T09:18:04Z</time>
      </trkpt>
      <trkpt lat="47.675022" lon="2.1430678">
        <ele>167.0</ele>
        <time>2022-02-17T09:18:05Z</time>
      </trkpt>
      <trkpt lat="47.675014" lon="2.143064">
        <ele>167.0</ele>
        <time>2022-02-17T09:18:06Z</time>
      </trkpt>
      <trkpt lat="47.675007" lon="2.1430628">
        <ele>168.0</ele>
        <time>2022-02-17T09:18:07Z</time>
      </trkpt>
      <trkpt lat="47.674995" lon="2.143059">
        <ele>167.0</ele>
        <time>2022-02-17T09:18:08Z</time>
      </trkpt>
      <trkpt lat="47.674988" lon="2.143054">
        <ele>168.0</ele>
        <time>2022-02-17T09:18:09Z</time>
      </trkpt>
      <trkpt lat="47.67498" lon="2.1430461">
        <ele>168.0</ele>
        <time>2022-02-17T09:18:10Z</time>
      </trkpt>
      <trkpt lat="47.67497" lon="2.1430404">
        <ele>168.0</ele>
        <time>2022-02-17T09:18:11Z</time>
      </trkpt>
      <trkpt lat="47.67496" lon="2.143037">
        <ele>168.0</ele>
        <time>2022-02-17T09:18:12Z</time>
      </trkpt>
      <trkpt lat="47.674953" lon="2.1430357">
        <ele>168.0</ele>
        <time>2022-02-17T09:18:13Z</time>
      </trkpt>
      <trkpt lat="47.674942" lon="2.1430342">
        <ele>169.0</ele>
        <time>2022-02-17T09:18:14Z</time>
      </trkpt>
      <trkpt lat="47.67493" lon="2.1430342">
        <ele>168.0</ele>
        <time>2022-02-17T09:18:15Z</time>
      </trkpt>
      <trkpt lat="47.67492" lon="2.1430333">
        <ele>168.0</ele>
        <time>2022-02-17T09:18:16Z</time>
      </trkpt>
      <trkpt lat="47.674908" lon="2.1430275">
        <ele>167.0</ele>
        <time>2022-02-17T09:18:17Z</time>
      </trkpt>
      <trkpt lat="47.674908" lon="2.1430275">
        <ele>167.0</ele>
        <time>2022-02-17T09:18:18Z</time>
      </trkpt>
      <trkpt lat="47.674885" lon="2.143019">
        <ele>167.0</ele>
        <time>2022-02-17T09:18:19Z</time>
      </trkpt>
      <trkpt lat="47.674873" lon="2.143009">
        <ele>167.0</ele>
        <time>2022-02-17T09:18:20Z</time>
      </trkpt>
      <trkpt lat="47.674854" lon="2.1430073">
        <ele>167.0</ele>
        <time>2022-02-17T09:18:21Z</time>
      </trkpt>
      <trkpt lat="47.674843" lon="2.1430066">
        <ele>166.0</ele>
        <time>2022-02-17T09:18:22Z</time>
      </trkpt>
      <trkpt lat="47.67483" lon="2.1430085">
        <ele>167.0</ele>
        <time>2022-02-17T09:18:23Z</time>
      </trkpt>
      <trkpt lat="47.67482" lon="2.143004">
        <ele>167.0</ele>
        <time>2022-02-17T09:18:24Z</time>
      </trkpt>
      <trkpt lat="47.67481" lon="2.1430018">
        <ele>167.0</ele>
        <time>2022-02-17T09:18:25Z</time>
      </trkpt>
      <trkpt lat="47.674797" lon="2.1430008">
        <ele>167.0</ele>
        <time>2022-02-17T09:18:26Z</time>
      </trkpt>
      <trkpt lat="47.67478" lon="2.1429987">
        <ele>166.0</ele>
        <time>2022-02-17T09:18:27Z</time>
      </trkpt>
      <trkpt lat="47.67477" lon="2.142992">
        <ele>166.0</ele>
        <time>2022-02-17T09:18:28Z</time>
      </trkpt>
      <trkpt lat="47.674755" lon="2.1429858">
        <ele>166.0</ele>
        <time>2022-02-17T09:18:29Z</time>
      </trkpt>
      <trkpt lat="47.674744" lon="2.14298">
        <ele>166.0</ele>
        <time>2022-02-17T09:18:30Z</time>
      </trkpt>
      <trkpt lat="47.674732" lon="2.1429746">
        <ele>166.0</ele>
        <time>2022-02-17T09:18:31Z</time>
      </trkpt>
      <trkpt lat="47.674717" lon="2.1429691">
        <ele>166.0</ele>
        <time>2022-02-17T09:18:32Z</time>
      </trkpt>
      <trkpt lat="47.6747" lon="2.1429684">
        <ele>166.0</ele>
        <time>2022-02-17T09:18:33Z</time>
      </trkpt>
      <trkpt lat="47.67469" lon="2.1429687">
        <ele>166.0</ele>
        <time>2022-02-17T09:18:34Z</time>
      </trkpt>
      <trkpt lat="47.674675" lon="2.1429663">
        <ele>166.0</ele>
        <time>2022-02-17T09:18:35Z</time>
      </trkpt>
      <trkpt lat="47.67466" lon="2.142963">
        <ele>166.0</ele>
        <time>2022-02-17T09:18:36Z</time>
      </trkpt>
      <trkpt lat="47.67465" lon="2.1429584">
        <ele>166.0</ele>
        <time>2022-02-17T09:18:37Z</time>
      </trkpt>
      <trkpt lat="47.674633" lon="2.1429558">
        <ele>166.0</ele>
        <time>2022-02-17T09:18:38Z</time>
      </trkpt>
      <trkpt lat="47.67462" lon="2.142955">
        <ele>166.0</ele>
        <time>2022-02-17T09:18:39Z</time>
      </trkpt>
      <trkpt lat="47.67461" lon="2.142951">
        <ele>166.0</ele>
        <time>2022-02-17T09:18:40Z</time>
      </trkpt>
      <trkpt lat="47.6746" lon="2.1429477">
        <ele>166.0</ele>
        <time>2022-02-17T09:18:41Z</time>
      </trkpt>
      <trkpt lat="47.674583" lon="2.1429465">
        <ele>167.0</ele>
        <time>2022-02-17T09:18:42Z</time>
      </trkpt>
      <trkpt lat="47.67457" lon="2.1429384">
        <ele>167.0</ele>
        <time>2022-02-17T09:18:43Z</time>
      </trkpt>
      <trkpt lat="47.674553" lon="2.142934">
        <ele>166.0</ele>
        <time>2022-02-17T09:18:44Z</time>
      </trkpt>
      <trkpt lat="47.67454" lon="2.1429262">
        <ele>166.0</ele>
        <time>2022-02-17T09:18:45Z</time>
      </trkpt>
      <trkpt lat="47.674522" lon="2.1429186">
        <ele>166.0</ele>
        <time>2022-02-17T09:18:46Z</time>
      </trkpt>
      <trkpt lat="47.674507" lon="2.1429121">
        <ele>167.0</ele>
        <time>2022-02-17T09:18:47Z</time>
      </trkpt>
      <trkpt lat="47.674496" lon="2.1429067">
        <ele>166.0</ele>
        <time>2022-02-17T09:18:48Z</time>
      </trkpt>
      <trkpt lat="47.674484" lon="2.1429002">
        <ele>167.0</ele>
        <time>2022-02-17T09:18:49Z</time>
      </trkpt>
      <trkpt lat="47.67447" lon="2.1428928">
        <ele>167.0</ele>
        <time>2022-02-17T09:18:50Z</time>
      </trkpt>
      <trkpt lat="47.674458" lon="2.1428876">
        <ele>167.0</ele>
        <time>2022-02-17T09:18:51Z</time>
      </trkpt>
      <trkpt lat="47.674446" lon="2.14288">
        <ele>167.0</ele>
        <time>2022-02-17T09:18:52Z</time>
      </trkpt>
      <trkpt lat="47.67443" lon="2.1428719">
        <ele>168.0</ele>
        <time>2022-02-17T09:18:53Z</time>
      </trkpt>
      <trkpt lat="47.67442" lon="2.1428633">
        <ele>167.0</ele>
        <time>2022-02-17T09:18:54Z</time>
      </trkpt>
      <trkpt lat="47.674404" lon="2.142858">
        <ele>167.0</ele>
        <time>2022-02-17T09:18:55Z</time>
      </trkpt>
      <trkpt lat="47.674393" lon="2.1428535">
        <ele>167.0</ele>
        <time>2022-02-17T09:18:56Z</time>
      </trkpt>
      <trkpt lat="47.67438" lon="2.14285">
        <ele>167.0</ele>
        <time>2022-02-17T09:18:57Z</time>
      </trkpt>
      <trkpt lat="47.67437" lon="2.142853">
        <ele>167.0</ele>
        <time>2022-02-17T09:18:58Z</time>
      </trkpt>
      <trkpt lat="47.674362" lon="2.142849">
        <ele>168.0</ele>
        <time>2022-02-17T09:18:59Z</time>
      </trkpt>
      <trkpt lat="47.674355" lon="2.1428423">
        <ele>168.0</ele>
        <time>2022-02-17T09:19:00Z</time>
      </trkpt>
      <trkpt lat="47.67435" lon="2.1428425">
        <ele>168.0</ele>
        <time>2022-02-17T09:19:01Z</time>
      </trkpt>
      <trkpt lat="47.67435" lon="2.1428425">
        <ele>168.0</ele>
        <time>2022-02-17T09:19:02Z</time>
      </trkpt>
      <trkpt lat="47.67435" lon="2.1428425">
        <ele>168.0</ele>
        <time>2022-02-17T09:19:03Z</time>
      </trkpt>
      <trkpt lat="47.674328" lon="2.1428335">
        <ele>168.0</ele>
        <time>2022-02-17T09:19:04Z</time>
      </trkpt>
      <trkpt lat="47.67432" lon="2.1428313">
        <ele>168.0</ele>
        <time>2022-02-17T09:19:05Z</time>
      </trkpt>
      <trkpt lat="47.674313" lon="2.1428242">
        <ele>167.0</ele>
        <time>2022-02-17T09:19:06Z</time>
      </trkpt>
      <trkpt lat="47.6743" lon="2.1428175">
        <ele>167.0</ele>
        <time>2022-02-17T09:19:07Z</time>
      </trkpt>
      <trkpt lat="47.67429" lon="2.1428132">
        <ele>167.0</ele>
        <time>2022-02-17T09:19:08Z</time>
      </trkpt>
      <trkpt lat="47.67428" lon="2.1428092">
        <ele>167.0</ele>
        <time>2022-02-17T09:19:09Z</time>
      </trkpt>
      <trkpt lat="47.674263" lon="2.1428049">
        <ele>168.0</ele>
        <time>2022-02-17T09:19:10Z</time>
      </trkpt>
      <trkpt lat="47.67425" lon="2.1428034">
        <ele>168.0</ele>
        <time>2022-02-17T09:19:11Z</time>
      </trkpt>
      <trkpt lat="47.674236" lon="2.142801">
        <ele>168.0</ele>
        <time>2022-02-17T09:19:12Z</time>
      </trkpt>
      <trkpt lat="47.674225" lon="2.1427999">
        <ele>168.0</ele>
        <time>2022-02-17T09:19:13Z</time>
      </trkpt>
      <trkpt lat="47.67421" lon="2.1427994">
        <ele>168.0</ele>
        <time>2022-02-17T09:19:14Z</time>
      </trkpt>
      <trkpt lat="47.674194" lon="2.1427963">
        <ele>169.0</ele>
        <time>2022-02-17T09:19:15Z</time>
      </trkpt>
      <trkpt lat="47.674183" lon="2.1427987">
        <ele>169.0</ele>
        <time>2022-02-17T09:19:16Z</time>
      </trkpt>
      <trkpt lat="47.674168" lon="2.1428015">
        <ele>169.0</ele>
        <time>2022-02-17T09:19:17Z</time>
      </trkpt>
      <trkpt lat="47.67415" lon="2.1427999">
        <ele>170.0</ele>
        <time>2022-02-17T09:19:18Z</time>
      </trkpt>
      <trkpt lat="47.674133" lon="2.1427977">
        <ele>170.0</ele>
        <time>2022-02-17T09:19:19Z</time>
      </trkpt>
      <trkpt lat="47.674118" lon="2.1427925">
        <ele>170.0</ele>
        <time>2022-02-17T09:19:20Z</time>
      </trkpt>
      <trkpt lat="47.674103" lon="2.1427865">
        <ele>170.0</ele>
        <time>2022-02-17T09:19:21Z</time>
      </trkpt>
      <trkpt lat="47.674084" lon="2.1427805">
        <ele>170.0</ele>
        <time>2022-02-17T09:19:22Z</time>
      </trkpt>
      <trkpt lat="47.674072" lon="2.1427813">
        <ele>171.0</ele>
        <time>2022-02-17T09:19:23Z</time>
      </trkpt>
      <trkpt lat="47.674057" lon="2.142782">
        <ele>171.0</ele>
        <time>2022-02-17T09:19:24Z</time>
      </trkpt>
      <trkpt lat="47.67404" lon="2.1427746">
        <ele>171.0</ele>
        <time>2022-02-17T09:19:25Z</time>
      </trkpt>
      <trkpt lat="47.674026" lon="2.1427674">
        <ele>171.0</ele>
        <time>2022-02-17T09:19:26Z</time>
      </trkpt>
      <trkpt lat="47.674015" lon="2.142758">
        <ele>170.0</ele>
        <time>2022-02-17T09:19:27Z</time>
      </trkpt>
      <trkpt lat="47.674004" lon="2.142755">
        <ele>170.0</ele>
        <time>2022-02-17T09:19:28Z</time>
      </trkpt>
      <trkpt lat="47.67399" lon="2.142753">
        <ele>171.0</ele>
        <time>2022-02-17T09:19:29Z</time>
      </trkpt>
      <trkpt lat="47.673977" lon="2.1427495">
        <ele>171.0</ele>
        <time>2022-02-17T09:19:30Z</time>
      </trkpt>
      <trkpt lat="47.67396" lon="2.14275">
        <ele>171.0</ele>
        <time>2022-02-17T09:19:31Z</time>
      </trkpt>
      <trkpt lat="47.673954" lon="2.142749">
        <ele>170.0</ele>
        <time>2022-02-17T09:19:32Z</time>
      </trkpt>
      <trkpt lat="47.673943" lon="2.1427498">
        <ele>171.0</ele>
        <time>2022-02-17T09:19:33Z</time>
      </trkpt>
      <trkpt lat="47.673927" lon="2.1427455">
        <ele>171.0</ele>
        <time>2022-02-17T09:19:34Z</time>
      </trkpt>
      <trkpt lat="47.673912" lon="2.142743">
        <ele>171.0</ele>
        <time>2022-02-17T09:19:35Z</time>
      </trkpt>
      <trkpt lat="47.673904" lon="2.142742">
        <ele>171.0</ele>
        <time>2022-02-17T09:19:36Z</time>
      </trkpt>
      <trkpt lat="47.67389" lon="2.142742">
        <ele>170.0</ele>
        <time>2022-02-17T09:19:37Z</time>
      </trkpt>
      <trkpt lat="47.67388" lon="2.1427388">
        <ele>170.0</ele>
        <time>2022-02-17T09:19:38Z</time>
      </trkpt>
      <trkpt lat="47.673866" lon="2.1427343">
        <ele>170.0</ele>
        <time>2022-02-17T09:19:39Z</time>
      </trkpt>
      <trkpt lat="47.673855" lon="2.142731">
        <ele>169.0</ele>
        <time>2022-02-17T09:19:40Z</time>
      </trkpt>
      <trkpt lat="47.67384" lon="2.1427279">
        <ele>169.0</ele>
        <time>2022-02-17T09:19:41Z</time>
      </trkpt>
      <trkpt lat="47.67383" lon="2.1427178">
        <ele>169.0</ele>
        <time>2022-02-17T09:19:42Z</time>
      </trkpt>
      <trkpt lat="47.673813" lon="2.1427135">
        <ele>170.0</ele>
        <time>2022-02-17T09:19:43Z</time>
      </trkpt>
      <trkpt lat="47.6738" lon="2.1427104">
        <ele>170.0</ele>
        <time>2022-02-17T09:19:44Z</time>
      </trkpt>
      <trkpt lat="47.67379" lon="2.1427057">
        <ele>170.0</ele>
        <time>2022-02-17T09:19:45Z</time>
      </trkpt>
      <trkpt lat="47.673775" lon="2.1426978">
        <ele>170.0</ele>
        <time>2022-02-17T09:19:46Z</time>
      </trkpt>
      <trkpt lat="47.673763" lon="2.142692">
        <ele>170.0</ele>
        <time>2022-02-17T09:19:47Z</time>
      </trkpt>
      <trkpt lat="47.67375" lon="2.1426854">
        <ele>170.0</ele>
        <time>2022-02-17T09:19:48Z</time>
      </trkpt>
      <trkpt lat="47.67374" lon="2.1426876">
        <ele>170.0</ele>
        <time>2022-02-17T09:19:49Z</time>
      </trkpt>
      <trkpt lat="47.67372" lon="2.1426852">
        <ele>170.0</ele>
        <time>2022-02-17T09:19:50Z</time>
      </trkpt>
      <trkpt lat="47.673702" lon="2.1426818">
        <ele>170.0</ele>
        <time>2022-02-17T09:19:51Z</time>
      </trkpt>
      <trkpt lat="47.673687" lon="2.1426754">
        <ele>171.0</ele>
        <time>2022-02-17T09:19:52Z</time>
      </trkpt>
      <trkpt lat="47.67367" lon="2.1426713">
        <ele>171.0</ele>
        <time>2022-02-17T09:19:53Z</time>
      </trkpt>
      <trkpt lat="47.673656" lon="2.142666">
        <ele>171.0</ele>
        <time>2022-02-17T09:19:54Z</time>
      </trkpt>
      <trkpt lat="47.673637" lon="2.1426647">
        <ele>172.0</ele>
        <time>2022-02-17T09:19:55Z</time>
      </trkpt>
      <trkpt lat="47.673622" lon="2.1426654">
        <ele>172.0</ele>
        <time>2022-02-17T09:19:56Z</time>
      </trkpt>
      <trkpt lat="47.673603" lon="2.1426594">
        <ele>172.0</ele>
        <time>2022-02-17T09:19:57Z</time>
      </trkpt>
      <trkpt lat="47.673584" lon="2.1426537">
        <ele>172.0</ele>
        <time>2022-02-17T09:19:58Z</time>
      </trkpt>
      <trkpt lat="47.67357" lon="2.1426475">
        <ele>172.0</ele>
        <time>2022-02-17T09:19:59Z</time>
      </trkpt>
      <trkpt lat="47.673553" lon="2.1426463">
        <ele>172.0</ele>
        <time>2022-02-17T09:20:00Z</time>
      </trkpt>
      <trkpt lat="47.673542" lon="2.14264">
        <ele>172.0</ele>
        <time>2022-02-17T09:20:01Z</time>
      </trkpt>
      <trkpt lat="47.673527" lon="2.1426382">
        <ele>172.0</ele>
        <time>2022-02-17T09:20:02Z</time>
      </trkpt>
      <trkpt lat="47.673515" lon="2.1426256">
        <ele>171.0</ele>
        <time>2022-02-17T09:20:03Z</time>
      </trkpt>
      <trkpt lat="47.673504" lon="2.14262">
        <ele>171.0</ele>
        <time>2022-02-17T09:20:04Z</time>
      </trkpt>
      <trkpt lat="47.673492" lon="2.142621">
        <ele>171.0</ele>
        <time>2022-02-17T09:20:05Z</time>
      </trkpt>
      <trkpt lat="47.67348" lon="2.1426191">
        <ele>171.0</ele>
        <time>2022-02-17T09:20:06Z</time>
      </trkpt>
      <trkpt lat="47.673473" lon="2.1426077">
        <ele>170.0</ele>
        <time>2022-02-17T09:20:07Z</time>
      </trkpt>
      <trkpt lat="47.673462" lon="2.1426015">
        <ele>170.0</ele>
        <time>2022-02-17T09:20:08Z</time>
      </trkpt>
      <trkpt lat="47.67345" lon="2.1425948">
        <ele>170.0</ele>
        <time>2022-02-17T09:20:09Z</time>
      </trkpt>
      <trkpt lat="47.67344" lon="2.1425884">
        <ele>170.0</ele>
        <time>2022-02-17T09:20:10Z</time>
      </trkpt>
      <trkpt lat="47.673424" lon="2.142584">
        <ele>170.0</ele>
        <time>2022-02-17T09:20:11Z</time>
      </trkpt>
      <trkpt lat="47.673412" lon="2.1425798">
        <ele>170.0</ele>
        <time>2022-02-17T09:20:12Z</time>
      </trkpt>
      <trkpt lat="47.6734" lon="2.142579">
        <ele>170.0</ele>
        <time>2022-02-17T09:20:13Z</time>
      </trkpt>
      <trkpt lat="47.67339" lon="2.1425757">
        <ele>170.0</ele>
        <time>2022-02-17T09:20:14Z</time>
      </trkpt>
      <trkpt lat="47.673378" lon="2.1425714">
        <ele>170.0</ele>
        <time>2022-02-17T09:20:15Z</time>
      </trkpt>
      <trkpt lat="47.673367" lon="2.142568">
        <ele>170.0</ele>
        <time>2022-02-17T09:20:16Z</time>
      </trkpt>
      <trkpt lat="47.67335" lon="2.142567">
        <ele>170.0</ele>
        <time>2022-02-17T09:20:17Z</time>
      </trkpt>
      <trkpt lat="47.673336" lon="2.1425655">
        <ele>170.0</ele>
        <time>2022-02-17T09:20:18Z</time>
      </trkpt>
      <trkpt lat="47.67332" lon="2.1425614">
        <ele>170.0</ele>
        <time>2022-02-17T09:20:19Z</time>
      </trkpt>
      <trkpt lat="47.673306" lon="2.1425579">
        <ele>170.0</ele>
        <time>2022-02-17T09:20:20Z</time>
      </trkpt>
      <trkpt lat="47.673294" lon="2.1425564">
        <ele>170.0</ele>
        <time>2022-02-17T09:20:21Z</time>
      </trkpt>
      <trkpt lat="47.673283" lon="2.142552">
        <ele>170.0</ele>
        <time>2022-02-17T09:20:22Z</time>
      </trkpt>
      <trkpt lat="47.673275" lon="2.1425512">
        <ele>170.0</ele>
        <time>2022-02-17T09:20:23Z</time>
      </trkpt>
      <trkpt lat="47.67326" lon="2.142552">
        <ele>170.0</ele>
        <time>2022-02-17T09:20:24Z</time>
      </trkpt>
      <trkpt lat="47.67325" lon="2.1425478">
        <ele>170.0</ele>
        <time>2022-02-17T09:20:25Z</time>
      </trkpt>
      <trkpt lat="47.673237" lon="2.1425457">
        <ele>170.0</ele>
        <time>2022-02-17T09:20:26Z</time>
      </trkpt>
      <trkpt lat="47.673225" lon="2.1425421">
        <ele>170.0</ele>
        <time>2022-02-17T09:20:27Z</time>
      </trkpt>
      <trkpt lat="47.673214" lon="2.1425343">
        <ele>170.0</ele>
        <time>2022-02-17T09:20:28Z</time>
      </trkpt>
      <trkpt lat="47.673203" lon="2.1425347">
        <ele>170.0</ele>
        <time>2022-02-17T09:20:29Z</time>
      </trkpt>
      <trkpt lat="47.673187" lon="2.1425295">
        <ele>170.0</ele>
        <time>2022-02-17T09:20:30Z</time>
      </trkpt>
      <trkpt lat="47.67318" lon="2.1425235">
        <ele>170.0</ele>
        <time>2022-02-17T09:20:31Z</time>
      </trkpt>
      <trkpt lat="47.67317" lon="2.142518">
        <ele>170.0</ele>
        <time>2022-02-17T09:20:32Z</time>
      </trkpt>
      <trkpt lat="47.673157" lon="2.1425154">
        <ele>171.0</ele>
        <time>2022-02-17T09:20:33Z</time>
      </trkpt>
      <trkpt lat="47.673145" lon="2.14251">
        <ele>170.0</ele>
        <time>2022-02-17T09:20:34Z</time>
      </trkpt>
      <trkpt lat="47.673138" lon="2.1425068">
        <ele>170.0</ele>
        <time>2022-02-17T09:20:35Z</time>
      </trkpt>
      <trkpt lat="47.673126" lon="2.1424997">
        <ele>171.0</ele>
        <time>2022-02-17T09:20:36Z</time>
      </trkpt>
      <trkpt lat="47.673115" lon="2.142495">
        <ele>171.0</ele>
        <time>2022-02-17T09:20:37Z</time>
      </trkpt>
      <trkpt lat="47.6731" lon="2.1424913">
        <ele>171.0</ele>
        <time>2022-02-17T09:20:38Z</time>
      </trkpt>
      <trkpt lat="47.67309" lon="2.1424792">
        <ele>171.0</ele>
        <time>2022-02-17T09:20:39Z</time>
      </trkpt>
      <trkpt lat="47.67308" lon="2.1424737">
        <ele>171.0</ele>
        <time>2022-02-17T09:20:40Z</time>
      </trkpt>
      <trkpt lat="47.67307" lon="2.1424687">
        <ele>171.0</ele>
        <time>2022-02-17T09:20:41Z</time>
      </trkpt>
      <trkpt lat="47.673058" lon="2.142467">
        <ele>171.0</ele>
        <time>2022-02-17T09:20:42Z</time>
      </trkpt>
      <trkpt lat="47.67305" lon="2.1424577">
        <ele>170.0</ele>
        <time>2022-02-17T09:20:43Z</time>
      </trkpt>
      <trkpt lat="47.673042" lon="2.1424506">
        <ele>170.0</ele>
        <time>2022-02-17T09:20:44Z</time>
      </trkpt>
      <trkpt lat="47.67303" lon="2.1424458">
        <ele>170.0</ele>
        <time>2022-02-17T09:20:45Z</time>
      </trkpt>
      <trkpt lat="47.673023" lon="2.1424375">
        <ele>170.0</ele>
        <time>2022-02-17T09:20:46Z</time>
      </trkpt>
      <trkpt lat="47.673016" lon="2.1424353">
        <ele>170.0</ele>
        <time>2022-02-17T09:20:47Z</time>
      </trkpt>
      <trkpt lat="47.673004" lon="2.1424334">
        <ele>170.0</ele>
        <time>2022-02-17T09:20:48Z</time>
      </trkpt>
      <trkpt lat="47.672993" lon="2.1424317">
        <ele>170.0</ele>
        <time>2022-02-17T09:20:49Z</time>
      </trkpt>
      <trkpt lat="47.67298" lon="2.1424277">
        <ele>170.0</ele>
        <time>2022-02-17T09:20:50Z</time>
      </trkpt>
      <trkpt lat="47.672974" lon="2.1424148">
        <ele>170.0</ele>
        <time>2022-02-17T09:20:51Z</time>
      </trkpt>
      <trkpt lat="47.672962" lon="2.1424065">
        <ele>169.0</ele>
        <time>2022-02-17T09:20:52Z</time>
      </trkpt>
      <trkpt lat="47.672955" lon="2.1424005">
        <ele>169.0</ele>
        <time>2022-02-17T09:20:53Z</time>
      </trkpt>
      <trkpt lat="47.672943" lon="2.1423984">
        <ele>170.0</ele>
        <time>2022-02-17T09:20:54Z</time>
      </trkpt>
      <trkpt lat="47.672935" lon="2.1423943">
        <ele>170.0</ele>
        <time>2022-02-17T09:20:55Z</time>
      </trkpt>
      <trkpt lat="47.67292" lon="2.1423867">
        <ele>169.0</ele>
        <time>2022-02-17T09:20:56Z</time>
      </trkpt>
      <trkpt lat="47.67291" lon="2.142381">
        <ele>169.0</ele>
        <time>2022-02-17T09:20:57Z</time>
      </trkpt>
      <trkpt lat="47.672897" lon="2.1423728">
        <ele>169.0</ele>
        <time>2022-02-17T09:20:58Z</time>
      </trkpt>
      <trkpt lat="47.672886" lon="2.1423643">
        <ele>169.0</ele>
        <time>2022-02-17T09:20:59Z</time>
      </trkpt>
      <trkpt lat="47.67288" lon="2.1423573">
        <ele>169.0</ele>
        <time>2022-02-17T09:21:00Z</time>
      </trkpt>
      <trkpt lat="47.67287" lon="2.1423528">
        <ele>169.0</ele>
        <time>2022-02-17T09:21:01Z</time>
      </trkpt>
      <trkpt lat="47.67286" lon="2.142346">
        <ele>168.0</ele>
        <time>2022-02-17T09:21:02Z</time>
      </trkpt>
      <trkpt lat="47.672855" lon="2.1423416">
        <ele>169.0</ele>
        <time>2022-02-17T09:21:03Z</time>
      </trkpt>
      <trkpt lat="47.672844" lon="2.1423366">
        <ele>168.0</ele>
        <time>2022-02-17T09:21:04Z</time>
      </trkpt>
      <trkpt lat="47.672836" lon="2.1423287">
        <ele>168.0</ele>
        <time>2022-02-17T09:21:05Z</time>
      </trkpt>
      <trkpt lat="47.67282" lon="2.1423209">
        <ele>168.0</ele>
        <time>2022-02-17T09:21:06Z</time>
      </trkpt>
      <trkpt lat="47.67281" lon="2.142316">
        <ele>168.0</ele>
        <time>2022-02-17T09:21:07Z</time>
      </trkpt>
      <trkpt lat="47.6728" lon="2.1423128">
        <ele>169.0</ele>
        <time>2022-02-17T09:21:08Z</time>
      </trkpt>
      <trkpt lat="47.672787" lon="2.142313">
        <ele>169.0</ele>
        <time>2022-02-17T09:21:09Z</time>
      </trkpt>
      <trkpt lat="47.672775" lon="2.1423154">
        <ele>169.0</ele>
        <time>2022-02-17T09:21:10Z</time>
      </trkpt>
      <trkpt lat="47.67276" lon="2.142312">
        <ele>169.0</ele>
        <time>2022-02-17T09:21:11Z</time>
      </trkpt>
      <trkpt lat="47.67275" lon="2.1423082">
        <ele>169.0</ele>
        <time>2022-02-17T09:21:12Z</time>
      </trkpt>
      <trkpt lat="47.672737" lon="2.1422982">
        <ele>169.0</ele>
        <time>2022-02-17T09:21:13Z</time>
      </trkpt>
      <trkpt lat="47.672726" lon="2.142292">
        <ele>169.0</ele>
        <time>2022-02-17T09:21:14Z</time>
      </trkpt>
      <trkpt lat="47.672714" lon="2.142286">
        <ele>169.0</ele>
        <time>2022-02-17T09:21:15Z</time>
      </trkpt>
      <trkpt lat="47.672703" lon="2.1422815">
        <ele>169.0</ele>
        <time>2022-02-17T09:21:16Z</time>
      </trkpt>
      <trkpt lat="47.672695" lon="2.1422734">
        <ele>169.0</ele>
        <time>2022-02-17T09:21:17Z</time>
      </trkpt>
      <trkpt lat="47.672684" lon="2.1422684">
        <ele>169.0</ele>
        <time>2022-02-17T09:21:18Z</time>
      </trkpt>
      <trkpt lat="47.672676" lon="2.142262">
        <ele>168.0</ele>
        <time>2022-02-17T09:21:19Z</time>
      </trkpt>
      <trkpt lat="47.672665" lon="2.1422575">
        <ele>168.0</ele>
        <time>2022-02-17T09:21:20Z</time>
      </trkpt>
      <trkpt lat="47.672653" lon="2.1422498">
        <ele>168.0</ele>
        <time>2022-02-17T09:21:21Z</time>
      </trkpt>
      <trkpt lat="47.672638" lon="2.1422405">
        <ele>168.0</ele>
        <time>2022-02-17T09:21:22Z</time>
      </trkpt>
      <trkpt lat="47.672626" lon="2.1422324">
        <ele>168.0</ele>
        <time>2022-02-17T09:21:23Z</time>
      </trkpt>
      <trkpt lat="47.672615" lon="2.1422276">
        <ele>168.0</ele>
        <time>2022-02-17T09:21:24Z</time>
      </trkpt>
      <trkpt lat="47.672604" lon="2.1422172">
        <ele>168.0</ele>
        <time>2022-02-17T09:21:25Z</time>
      </trkpt>
      <trkpt lat="47.67259" lon="2.1422095">
        <ele>168.0</ele>
        <time>2022-02-17T09:21:26Z</time>
      </trkpt>
      <trkpt lat="47.67258" lon="2.1421978">
        <ele>168.0</ele>
        <time>2022-02-17T09:21:27Z</time>
      </trkpt>
      <trkpt lat="47.67257" lon="2.1421926">
        <ele>168.0</ele>
        <time>2022-02-17T09:21:28Z</time>
      </trkpt>
      <trkpt lat="47.67256" lon="2.1421847">
        <ele>169.0</ele>
        <time>2022-02-17T09:21:29Z</time>
      </trkpt>
      <trkpt lat="47.67255" lon="2.1421745">
        <ele>168.0</ele>
        <time>2022-02-17T09:21:30Z</time>
      </trkpt>
      <trkpt lat="47.67254" lon="2.1421697">
        <ele>168.0</ele>
        <time>2022-02-17T09:21:31Z</time>
      </trkpt>
      <trkpt lat="47.67253" lon="2.1421654">
        <ele>169.0</ele>
        <time>2022-02-17T09:21:32Z</time>
      </trkpt>
      <trkpt lat="47.67252" lon="2.1421628">
        <ele>168.0</ele>
        <time>2022-02-17T09:21:33Z</time>
      </trkpt>
      <trkpt lat="47.672512" lon="2.1421533">
        <ele>168.0</ele>
        <time>2022-02-17T09:21:34Z</time>
      </trkpt>
      <trkpt lat="47.6725" lon="2.1421485">
        <ele>168.0</ele>
        <time>2022-02-17T09:21:35Z</time>
      </trkpt>
      <trkpt lat="47.67249" lon="2.1421406">
        <ele>168.0</ele>
        <time>2022-02-17T09:21:36Z</time>
      </trkpt>
      <trkpt lat="47.672478" lon="2.1421301">
        <ele>168.0</ele>
        <time>2022-02-17T09:21:37Z</time>
      </trkpt>
      <trkpt lat="47.672466" lon="2.1421175">
        <ele>168.0</ele>
        <time>2022-02-17T09:21:38Z</time>
      </trkpt>
      <trkpt lat="47.672455" lon="2.1421041">
        <ele>168.0</ele>
        <time>2022-02-17T09:21:39Z</time>
      </trkpt>
      <trkpt lat="47.672447" lon="2.1420944">
        <ele>167.0</ele>
        <time>2022-02-17T09:21:40Z</time>
      </trkpt>
      <trkpt lat="47.672443" lon="2.14208">
        <ele>167.0</ele>
        <time>2022-02-17T09:21:41Z</time>
      </trkpt>
      <trkpt lat="47.67244" lon="2.1420722">
        <ele>167.0</ele>
        <time>2022-02-17T09:21:42Z</time>
      </trkpt>
      <trkpt lat="47.67244" lon="2.1420715">
        <ele>168.0</ele>
        <time>2022-02-17T09:21:43Z</time>
      </trkpt>
      <trkpt lat="47.672436" lon="2.142068">
        <ele>168.0</ele>
        <time>2022-02-17T09:21:44Z</time>
      </trkpt>
      <trkpt lat="47.672432" lon="2.1420732">
        <ele>168.0</ele>
        <time>2022-02-17T09:21:45Z</time>
      </trkpt>
      <trkpt lat="47.672432" lon="2.1420732">
        <ele>168.0</ele>
        <time>2022-02-17T09:21:45Z</time>
      </trkpt>
      <trkpt lat="47.672432" lon="2.1420732">
        <ele>168.0</ele>
        <time>2022-02-17T09:21:45Z</time>
      </trkpt>
      <trkpt lat="47.67238" lon="2.142053">
        <ele>169.0</ele>
        <time>2022-02-17T09:21:51Z</time>
      </trkpt>
      <trkpt lat="47.672363" lon="2.1420493">
        <ele>169.0</ele>
        <time>2022-02-17T09:21:52Z</time>
      </trkpt>
      <trkpt lat="47.67235" lon="2.142042">
        <ele>169.0</ele>
        <time>2022-02-17T09:21:53Z</time>
      </trkpt>
      <trkpt lat="47.67234" lon="2.142034">
        <ele>170.0</ele>
        <time>2022-02-17T09:21:54Z</time>
      </trkpt>
      <trkpt lat="47.672333" lon="2.1420279">
        <ele>170.0</ele>
        <time>2022-02-17T09:21:55Z</time>
      </trkpt>
      <trkpt lat="47.67232" lon="2.1420202">
        <ele>170.0</ele>
        <time>2022-02-17T09:21:56Z</time>
      </trkpt>
      <trkpt lat="47.672314" lon="2.1420135">
        <ele>170.0</ele>
        <time>2022-02-17T09:21:57Z</time>
      </trkpt>
      <trkpt lat="47.672302" lon="2.1420057">
        <ele>170.0</ele>
        <time>2022-02-17T09:21:58Z</time>
      </trkpt>
      <trkpt lat="47.672287" lon="2.141996">
        <ele>170.0</ele>
        <time>2022-02-17T09:21:59Z</time>
      </trkpt>
      <trkpt lat="47.672276" lon="2.1419885">
        <ele>171.0</ele>
        <time>2022-02-17T09:22:00Z</time>
      </trkpt>
      <trkpt lat="47.672264" lon="2.141984">
        <ele>171.0</ele>
        <time>2022-02-17T09:22:01Z</time>
      </trkpt>
      <trkpt lat="47.672253" lon="2.1419768">
        <ele>172.0</ele>
        <time>2022-02-17T09:22:02Z</time>
      </trkpt>
      <trkpt lat="47.672245" lon="2.1419725">
        <ele>172.0</ele>
        <time>2022-02-17T09:22:03Z</time>
      </trkpt>
      <trkpt lat="47.672237" lon="2.1419692">
        <ele>171.0</ele>
        <time>2022-02-17T09:22:04Z</time>
      </trkpt>
      <trkpt lat="47.67223" lon="2.1419697">
        <ele>171.0</ele>
        <time>2022-02-17T09:22:05Z</time>
      </trkpt>
      <trkpt lat="47.67222" lon="2.1419652">
        <ele>171.0</ele>
        <time>2022-02-17T09:22:06Z</time>
      </trkpt>
      <trkpt lat="47.672207" lon="2.1419563">
        <ele>171.0</ele>
        <time>2022-02-17T09:22:07Z</time>
      </trkpt>
      <trkpt lat="47.672195" lon="2.1419508">
        <ele>171.0</ele>
        <time>2022-02-17T09:22:08Z</time>
      </trkpt>
      <trkpt lat="47.672184" lon="2.141944">
        <ele>171.0</ele>
        <time>2022-02-17T09:22:09Z</time>
      </trkpt>
      <trkpt lat="47.672173" lon="2.1419427">
        <ele>171.0</ele>
        <time>2022-02-17T09:22:10Z</time>
      </trkpt>
      <trkpt lat="47.672157" lon="2.1419358">
        <ele>171.0</ele>
        <time>2022-02-17T09:22:11Z</time>
      </trkpt>
      <trkpt lat="47.672146" lon="2.1419284">
        <ele>171.0</ele>
        <time>2022-02-17T09:22:12Z</time>
      </trkpt>
      <trkpt lat="47.672134" lon="2.141919">
        <ele>171.0</ele>
        <time>2022-02-17T09:22:13Z</time>
      </trkpt>
      <trkpt lat="47.672123" lon="2.1419113">
        <ele>171.0</ele>
        <time>2022-02-17T09:22:14Z</time>
      </trkpt>
      <trkpt lat="47.67211" lon="2.1419013">
        <ele>171.0</ele>
        <time>2022-02-17T09:22:15Z</time>
      </trkpt>
      <trkpt lat="47.6721" lon="2.1418939">
        <ele>171.0</ele>
        <time>2022-02-17T09:22:16Z</time>
      </trkpt>
      <trkpt lat="47.67209" lon="2.1418886">
        <ele>170.0</ele>
        <time>2022-02-17T09:22:17Z</time>
      </trkpt>
      <trkpt lat="47.672073" lon="2.1418824">
        <ele>171.0</ele>
        <time>2022-02-17T09:22:18Z</time>
      </trkpt>
      <trkpt lat="47.67206" lon="2.141873">
        <ele>170.0</ele>
        <time>2022-02-17T09:22:19Z</time>
      </trkpt>
      <trkpt lat="47.672047" lon="2.1418664">
        <ele>171.0</ele>
        <time>2022-02-17T09:22:20Z</time>
      </trkpt>
      <trkpt lat="47.67203" lon="2.1418545">
        <ele>171.0</ele>
        <time>2022-02-17T09:22:21Z</time>
      </trkpt>
      <trkpt lat="47.67202" lon="2.1418457">
        <ele>171.0</ele>
        <time>2022-02-17T09:22:22Z</time>
      </trkpt>
      <trkpt lat="47.672012" lon="2.1418374">
        <ele>171.0</ele>
        <time>2022-02-17T09:22:23Z</time>
      </trkpt>
      <trkpt lat="47.671997" lon="2.141828">
        <ele>172.0</ele>
        <time>2022-02-17T09:22:24Z</time>
      </trkpt>
      <trkpt lat="47.671986" lon="2.141822">
        <ele>172.0</ele>
        <time>2022-02-17T09:22:25Z</time>
      </trkpt>
      <trkpt lat="47.671974" lon="2.141816">
        <ele>172.0</ele>
        <time>2022-02-17T09:22:26Z</time>
      </trkpt>
      <trkpt lat="47.67196" lon="2.141815">
        <ele>173.0</ele>
        <time>2022-02-17T09:22:27Z</time>
      </trkpt>
      <trkpt lat="47.671947" lon="2.1418068">
        <ele>173.0</ele>
        <time>2022-02-17T09:22:28Z</time>
      </trkpt>
      <trkpt lat="47.671936" lon="2.141805">
        <ele>174.0</ele>
        <time>2022-02-17T09:22:29Z</time>
      </trkpt>
      <trkpt lat="47.671925" lon="2.1418035">
        <ele>174.0</ele>
        <time>2022-02-17T09:22:30Z</time>
      </trkpt>
      <trkpt lat="47.67191" lon="2.1417992">
        <ele>175.0</ele>
        <time>2022-02-17T09:22:31Z</time>
      </trkpt>
      <trkpt lat="47.671894" lon="2.1417892">
        <ele>175.0</ele>
        <time>2022-02-17T09:22:32Z</time>
      </trkpt>
      <trkpt lat="47.671883" lon="2.1417768">
        <ele>175.0</ele>
        <time>2022-02-17T09:22:33Z</time>
      </trkpt>
      <trkpt lat="47.671875" lon="2.1417663">
        <ele>174.0</ele>
        <time>2022-02-17T09:22:34Z</time>
      </trkpt>
      <trkpt lat="47.671867" lon="2.141758">
        <ele>174.0</ele>
        <time>2022-02-17T09:22:35Z</time>
      </trkpt>
      <trkpt lat="47.671856" lon="2.1417437">
        <ele>174.0</ele>
        <time>2022-02-17T09:22:36Z</time>
      </trkpt>
      <trkpt lat="47.67185" lon="2.1417315">
        <ele>174.0</ele>
        <time>2022-02-17T09:22:37Z</time>
      </trkpt>
      <trkpt lat="47.671833" lon="2.141724">
        <ele>174.0</ele>
        <time>2022-02-17T09:22:38Z</time>
      </trkpt>
      <trkpt lat="47.671825" lon="2.1417174">
        <ele>174.0</ele>
        <time>2022-02-17T09:22:39Z</time>
      </trkpt>
      <trkpt lat="47.67181" lon="2.1417143">
        <ele>175.0</ele>
        <time>2022-02-17T09:22:40Z</time>
      </trkpt>
      <trkpt lat="47.671803" lon="2.1417043">
        <ele>175.0</ele>
        <time>2022-02-17T09:22:41Z</time>
      </trkpt>
      <trkpt lat="47.671795" lon="2.141695">
        <ele>175.0</ele>
        <time>2022-02-17T09:22:42Z</time>
      </trkpt>
      <trkpt lat="47.671787" lon="2.141689">
        <ele>175.0</ele>
        <time>2022-02-17T09:22:43Z</time>
      </trkpt>
      <trkpt lat="47.671776" lon="2.1416814">
        <ele>175.0</ele>
        <time>2022-02-17T09:22:44Z</time>
      </trkpt>
      <trkpt lat="47.671764" lon="2.1416755">
        <ele>175.0</ele>
        <time>2022-02-17T09:22:45Z</time>
      </trkpt>
      <trkpt lat="47.671757" lon="2.1416698">
        <ele>175.0</ele>
        <time>2022-02-17T09:22:46Z</time>
      </trkpt>
      <trkpt lat="47.671745" lon="2.1416652">
        <ele>175.0</ele>
        <time>2022-02-17T09:22:47Z</time>
      </trkpt>
      <trkpt lat="47.671734" lon="2.1416585">
        <ele>175.0</ele>
        <time>2022-02-17T09:22:48Z</time>
      </trkpt>
      <trkpt lat="47.671722" lon="2.1416535">
        <ele>175.0</ele>
        <time>2022-02-17T09:22:49Z</time>
      </trkpt>
      <trkpt lat="47.67171" lon="2.1416473">
        <ele>175.0</ele>
        <time>2022-02-17T09:22:50Z</time>
      </trkpt>
      <trkpt lat="47.671703" lon="2.141643">
        <ele>175.0</ele>
        <time>2022-02-17T09:22:51Z</time>
      </trkpt>
      <trkpt lat="47.671688" lon="2.1416395">
        <ele>175.0</ele>
        <time>2022-02-17T09:22:52Z</time>
      </trkpt>
      <trkpt lat="47.671677" lon="2.1416373">
        <ele>175.0</ele>
        <time>2022-02-17T09:22:53Z</time>
      </trkpt>
      <trkpt lat="47.671665" lon="2.1416333">
        <ele>175.0</ele>
        <time>2022-02-17T09:22:54Z</time>
      </trkpt>
      <trkpt lat="47.671654" lon="2.1416256">
        <ele>175.0</ele>
        <time>2022-02-17T09:22:55Z</time>
      </trkpt>
      <trkpt lat="47.67164" lon="2.1416233">
        <ele>175.0</ele>
        <time>2022-02-17T09:22:56Z</time>
      </trkpt>
      <trkpt lat="47.671627" lon="2.1416206">
        <ele>175.0</ele>
        <time>2022-02-17T09:22:57Z</time>
      </trkpt>
      <trkpt lat="47.67162" lon="2.1416125">
        <ele>175.0</ele>
        <time>2022-02-17T09:22:58Z</time>
      </trkpt>
      <trkpt lat="47.671604" lon="2.1416101">
        <ele>175.0</ele>
        <time>2022-02-17T09:22:59Z</time>
      </trkpt>
      <trkpt lat="47.67159" lon="2.1416101">
        <ele>175.0</ele>
        <time>2022-02-17T09:23:00Z</time>
      </trkpt>
      <trkpt lat="47.671577" lon="2.141608">
        <ele>175.0</ele>
        <time>2022-02-17T09:23:01Z</time>
      </trkpt>
      <trkpt lat="47.671562" lon="2.1416023">
        <ele>175.0</ele>
        <time>2022-02-17T09:23:02Z</time>
      </trkpt>
      <trkpt lat="47.671547" lon="2.1416035">
        <ele>176.0</ele>
        <time>2022-02-17T09:23:03Z</time>
      </trkpt>
      <trkpt lat="47.671535" lon="2.1415994">
        <ele>177.0</ele>
        <time>2022-02-17T09:23:04Z</time>
      </trkpt>
      <trkpt lat="47.67153" lon="2.1415951">
        <ele>177.0</ele>
        <time>2022-02-17T09:23:05Z</time>
      </trkpt>
      <trkpt lat="47.671528" lon="2.141592">
        <ele>176.0</ele>
        <time>2022-02-17T09:23:06Z</time>
      </trkpt>
      <trkpt lat="47.67152" lon="2.141585">
        <ele>176.0</ele>
        <time>2022-02-17T09:23:07Z</time>
      </trkpt>
      <trkpt lat="47.671513" lon="2.141589">
        <ele>177.0</ele>
        <time>2022-02-17T09:23:08Z</time>
      </trkpt>
      <trkpt lat="47.671505" lon="2.1415954">
        <ele>177.0</ele>
        <time>2022-02-17T09:23:09Z</time>
      </trkpt>
      <trkpt lat="47.671505" lon="2.141595">
        <ele>178.0</ele>
        <time>2022-02-17T09:23:10Z</time>
      </trkpt>
      <trkpt lat="47.67151" lon="2.1415942">
        <ele>177.0</ele>
        <time>2022-02-17T09:23:11Z</time>
      </trkpt>
      <trkpt lat="47.67151" lon="2.1415942">
        <ele>177.0</ele>
        <time>2022-02-17T09:23:12Z</time>
      </trkpt>
      <trkpt lat="47.67151" lon="2.1415942">
        <ele>177.0</ele>
        <time>2022-02-17T09:23:12Z</time>
      </trkpt>
      <trkpt lat="47.67151" lon="2.1415942">
        <ele>177.0</ele>
        <time>2022-02-17T09:23:12Z</time>
      </trkpt>
      <trkpt lat="47.671562" lon="2.1415818">
        <ele>176.0</ele>
        <time>2022-02-17T09:26:31Z</time>
      </trkpt>
      <trkpt lat="47.671562" lon="2.1415818">
        <ele>176.0</ele>
        <time>2022-02-17T09:26:32Z</time>
      </trkpt>
      <trkpt lat="47.671562" lon="2.1415818">
        <ele>176.0</ele>
        <time>2022-02-17T09:26:33Z</time>
      </trkpt>
      <trkpt lat="47.671562" lon="2.1415818">
        <ele>176.0</ele>
        <time>2022-02-17T09:26:34Z</time>
      </trkpt>
      <trkpt lat="47.671562" lon="2.1415818">
        <ele>176.0</ele>
        <time>2022-02-17T09:26:34Z</time>
      </trkpt>
      <trkpt lat="47.671562" lon="2.1415818">
        <ele>176.0</ele>
        <time>2022-02-17T09:26:34Z</time>
      </trkpt>
      <trkpt lat="47.671616" lon="2.1415908">
        <ele>178.0</ele>
        <time>2022-02-17T09:30:25Z</time>
      </trkpt>
      <trkpt lat="47.671627" lon="2.1415935">
        <ele>178.0</ele>
        <time>2022-02-17T09:30:26Z</time>
      </trkpt>
      <trkpt lat="47.671635" lon="2.141594">
        <ele>178.0</ele>
        <time>2022-02-17T09:30:27Z</time>
      </trkpt>
      <trkpt lat="47.671642" lon="2.1415956">
        <ele>179.0</ele>
        <time>2022-02-17T09:30:28Z</time>
      </trkpt>
      <trkpt lat="47.67165" lon="2.1415935">
        <ele>179.0</ele>
        <time>2022-02-17T09:30:29Z</time>
      </trkpt>
      <trkpt lat="47.671654" lon="2.141591">
        <ele>179.0</ele>
        <time>2022-02-17T09:30:30Z</time>
      </trkpt>
      <trkpt lat="47.671658" lon="2.14159">
        <ele>179.0</ele>
        <time>2022-02-17T09:30:31Z</time>
      </trkpt>
      <trkpt lat="47.671658" lon="2.14159">
        <ele>179.0</ele>
        <time>2022-02-17T09:30:32Z</time>
      </trkpt>
      <trkpt lat="47.671658" lon="2.14159">
        <ele>179.0</ele>
        <time>2022-02-17T09:30:33Z</time>
      </trkpt>
      <trkpt lat="47.671658" lon="2.14159">
        <ele>179.0</ele>
        <time>2022-02-17T09:30:34Z</time>
      </trkpt>
      <trkpt lat="47.671658" lon="2.14159">
        <ele>179.0</ele>
        <time>2022-02-17T09:30:34Z</time>
      </trkpt>
      <trkpt lat="47.671658" lon="2.14159">
        <ele>179.0</ele>
        <time>2022-02-17T09:30:34Z</time>
      </trkpt>
      <trkpt lat="47.671608" lon="2.1416092">
        <ele>179.0</ele>
        <time>2022-02-17T09:31:26Z</time>
      </trkpt>
      <trkpt lat="47.671597" lon="2.1416035">
        <ele>179.0</ele>
        <time>2022-02-17T09:31:27Z</time>
      </trkpt>
      <trkpt lat="47.67158" lon="2.1415966">
        <ele>179.0</ele>
        <time>2022-02-17T09:31:28Z</time>
      </trkpt>
      <trkpt lat="47.671574" lon="2.1415904">
        <ele>179.0</ele>
        <time>2022-02-17T09:31:29Z</time>
      </trkpt>
      <trkpt lat="47.671566" lon="2.1415856">
        <ele>179.0</ele>
        <time>2022-02-17T09:31:30Z</time>
      </trkpt>
      <trkpt lat="47.671562" lon="2.1415813">
        <ele>179.0</ele>
        <time>2022-02-17T09:31:31Z</time>
      </trkpt>
      <trkpt lat="47.67155" lon="2.141579">
        <ele>179.0</ele>
        <time>2022-02-17T09:31:32Z</time>
      </trkpt>
      <trkpt lat="47.671543" lon="2.1415782">
        <ele>179.0</ele>
        <time>2022-02-17T09:31:33Z</time>
      </trkpt>
      <trkpt lat="47.671543" lon="2.141576">
        <ele>179.0</ele>
        <time>2022-02-17T09:31:34Z</time>
      </trkpt>
      <trkpt lat="47.671543" lon="2.1415799">
        <ele>178.0</ele>
        <time>2022-02-17T09:31:35Z</time>
      </trkpt>
      <trkpt lat="47.671543" lon="2.1415818">
        <ele>178.0</ele>
        <time>2022-02-17T09:31:36Z</time>
      </trkpt>
      <trkpt lat="47.671543" lon="2.1415818">
        <ele>178.0</ele>
        <time>2022-02-17T09:31:37Z</time>
      </trkpt>
      <trkpt lat="47.671543" lon="2.1415818">
        <ele>178.0</ele>
        <time>2022-02-17T09:31:37Z</time>
      </trkpt>
      <trkpt lat="47.671543" lon="2.1415818">
        <ele>178.0</ele>
        <time>2022-02-17T09:31:37Z</time>
      </trkpt>
      <trkpt lat="47.671535" lon="2.141607">
        <ele>180.0</ele>
        <time>2022-02-17T09:33:34Z</time>
      </trkpt>
      <trkpt lat="47.671535" lon="2.141607">
        <ele>180.0</ele>
        <time>2022-02-17T09:33:35Z</time>
      </trkpt>
      <trkpt lat="47.671535" lon="2.141607">
        <ele>180.0</ele>
        <time>2022-02-17T09:33:36Z</time>
      </trkpt>
      <trkpt lat="47.671535" lon="2.141607">
        <ele>180.0</ele>
        <time>2022-02-17T09:33:36Z</time>
      </trkpt>
      <trkpt lat="47.671535" lon="2.141607">
        <ele>180.0</ele>
        <time>2022-02-17T09:33:36Z</time>
      </trkpt>
      <trkpt lat="47.671494" lon="2.1415892">
        <ele>179.0</ele>
        <time>2022-02-17T09:34:14Z</time>
      </trkpt>
      <trkpt lat="47.671482" lon="2.1415915">
        <ele>180.0</ele>
        <time>2022-02-17T09:34:15Z</time>
      </trkpt>
      <trkpt lat="47.671474" lon="2.141584">
        <ele>180.0</ele>
        <time>2022-02-17T09:34:16Z</time>
      </trkpt>
      <trkpt lat="47.67146" lon="2.1415808">
        <ele>180.0</ele>
        <time>2022-02-17T09:34:17Z</time>
      </trkpt>
      <trkpt lat="47.671448" lon="2.1415815">
        <ele>180.0</ele>
        <time>2022-02-17T09:34:18Z</time>
      </trkpt>
      <trkpt lat="47.671436" lon="2.1415792">
        <ele>180.0</ele>
        <time>2022-02-17T09:34:19Z</time>
      </trkpt>
      <trkpt lat="47.67143" lon="2.141576">
        <ele>181.0</ele>
        <time>2022-02-17T09:34:20Z</time>
      </trkpt>
      <trkpt lat="47.671417" lon="2.141577">
        <ele>181.0</ele>
        <time>2022-02-17T09:34:21Z</time>
      </trkpt>
      <trkpt lat="47.671406" lon="2.1415782">
        <ele>181.0</ele>
        <time>2022-02-17T09:34:22Z</time>
      </trkpt>
      <trkpt lat="47.671394" lon="2.141579">
        <ele>181.0</ele>
        <time>2022-02-17T09:34:23Z</time>
      </trkpt>
      <trkpt lat="47.671383" lon="2.141582">
        <ele>181.0</ele>
        <time>2022-02-17T09:34:24Z</time>
      </trkpt>
      <trkpt lat="47.67137" lon="2.1415825">
        <ele>182.0</ele>
        <time>2022-02-17T09:34:25Z</time>
      </trkpt>
      <trkpt lat="47.671352" lon="2.141587">
        <ele>181.0</ele>
        <time>2022-02-17T09:34:26Z</time>
      </trkpt>
      <trkpt lat="47.67134" lon="2.1415844">
        <ele>181.0</ele>
        <time>2022-02-17T09:34:27Z</time>
      </trkpt>
      <trkpt lat="47.67133" lon="2.141585">
        <ele>181.0</ele>
        <time>2022-02-17T09:34:28Z</time>
      </trkpt>
      <trkpt lat="47.67132" lon="2.141581">
        <ele>181.0</ele>
        <time>2022-02-17T09:34:29Z</time>
      </trkpt>
      <trkpt lat="47.671307" lon="2.1415815">
        <ele>181.0</ele>
        <time>2022-02-17T09:34:30Z</time>
      </trkpt>
      <trkpt lat="47.67129" lon="2.1415799">
        <ele>181.0</ele>
        <time>2022-02-17T09:34:31Z</time>
      </trkpt>
      <trkpt lat="47.671284" lon="2.1415775">
        <ele>181.0</ele>
        <time>2022-02-17T09:34:32Z</time>
      </trkpt>
      <trkpt lat="47.671272" lon="2.1415746">
        <ele>181.0</ele>
        <time>2022-02-17T09:34:33Z</time>
      </trkpt>
      <trkpt lat="47.671265" lon="2.1415744">
        <ele>181.0</ele>
        <time>2022-02-17T09:34:34Z</time>
      </trkpt>
      <trkpt lat="47.671253" lon="2.1415753">
        <ele>181.0</ele>
        <time>2022-02-17T09:34:35Z</time>
      </trkpt>
      <trkpt lat="47.67124" lon="2.1415799">
        <ele>181.0</ele>
        <time>2022-02-17T09:34:36Z</time>
      </trkpt>
      <trkpt lat="47.67123" lon="2.1415799">
        <ele>181.0</ele>
        <time>2022-02-17T09:34:37Z</time>
      </trkpt>
      <trkpt lat="47.671223" lon="2.1415784">
        <ele>181.0</ele>
        <time>2022-02-17T09:34:38Z</time>
      </trkpt>
      <trkpt lat="47.671204" lon="2.1415749">
        <ele>180.0</ele>
        <time>2022-02-17T09:34:39Z</time>
      </trkpt>
      <trkpt lat="47.671192" lon="2.1415756">
        <ele>180.0</ele>
        <time>2022-02-17T09:34:40Z</time>
      </trkpt>
      <trkpt lat="47.671185" lon="2.1415765">
        <ele>180.0</ele>
        <time>2022-02-17T09:34:41Z</time>
      </trkpt>
      <trkpt lat="47.671177" lon="2.1415775">
        <ele>180.0</ele>
        <time>2022-02-17T09:34:42Z</time>
      </trkpt>
      <trkpt lat="47.671165" lon="2.1415782">
        <ele>180.0</ele>
        <time>2022-02-17T09:34:43Z</time>
      </trkpt>
      <trkpt lat="47.671154" lon="2.1415744">
        <ele>180.0</ele>
        <time>2022-02-17T09:34:44Z</time>
      </trkpt>
      <trkpt lat="47.671143" lon="2.1415744">
        <ele>181.0</ele>
        <time>2022-02-17T09:34:45Z</time>
      </trkpt>
      <trkpt lat="47.67113" lon="2.141577">
        <ele>181.0</ele>
        <time>2022-02-17T09:34:46Z</time>
      </trkpt>
      <trkpt lat="47.67112" lon="2.141582">
        <ele>181.0</ele>
        <time>2022-02-17T09:34:47Z</time>
      </trkpt>
      <trkpt lat="47.67111" lon="2.1415846">
        <ele>181.0</ele>
        <time>2022-02-17T09:34:48Z</time>
      </trkpt>
      <trkpt lat="47.671097" lon="2.1415894">
        <ele>181.0</ele>
        <time>2022-02-17T09:34:49Z</time>
      </trkpt>
      <trkpt lat="47.671085" lon="2.1415923">
        <ele>181.0</ele>
        <time>2022-02-17T09:34:50Z</time>
      </trkpt>
      <trkpt lat="47.671074" lon="2.1415951">
        <ele>181.0</ele>
        <time>2022-02-17T09:34:51Z</time>
      </trkpt>
      <trkpt lat="47.67106" lon="2.1416042">
        <ele>181.0</ele>
        <time>2022-02-17T09:34:52Z</time>
      </trkpt>
      <trkpt lat="47.671047" lon="2.1416137">
        <ele>181.0</ele>
        <time>2022-02-17T09:34:53Z</time>
      </trkpt>
      <trkpt lat="47.671036" lon="2.1416228">
        <ele>180.0</ele>
        <time>2022-02-17T09:34:54Z</time>
      </trkpt>
      <trkpt lat="47.67103" lon="2.1416283">
        <ele>181.0</ele>
        <time>2022-02-17T09:34:55Z</time>
      </trkpt>
      <trkpt lat="47.671017" lon="2.1416285">
        <ele>180.0</ele>
        <time>2022-02-17T09:34:56Z</time>
      </trkpt>
      <trkpt lat="47.671" lon="2.141629">
        <ele>180.0</ele>
        <time>2022-02-17T09:34:57Z</time>
      </trkpt>
      <trkpt lat="47.67099" lon="2.1416295">
        <ele>180.0</ele>
        <time>2022-02-17T09:34:58Z</time>
      </trkpt>
      <trkpt lat="47.670975" lon="2.1416335">
        <ele>180.0</ele>
        <time>2022-02-17T09:34:59Z</time>
      </trkpt>
      <trkpt lat="47.670967" lon="2.1416368">
        <ele>180.0</ele>
        <time>2022-02-17T09:35:00Z</time>
      </trkpt>
      <trkpt lat="47.670956" lon="2.1416326">
        <ele>180.0</ele>
        <time>2022-02-17T09:35:01Z</time>
      </trkpt>
      <trkpt lat="47.670944" lon="2.141628">
        <ele>180.0</ele>
        <time>2022-02-17T09:35:02Z</time>
      </trkpt>
      <trkpt lat="47.670933" lon="2.1416225">
        <ele>180.0</ele>
        <time>2022-02-17T09:35:03Z</time>
      </trkpt>
      <trkpt lat="47.67092" lon="2.1416247">
        <ele>180.0</ele>
        <time>2022-02-17T09:35:04Z</time>
      </trkpt>
      <trkpt lat="47.67091" lon="2.1416273">
        <ele>181.0</ele>
        <time>2022-02-17T09:35:05Z</time>
      </trkpt>
      <trkpt lat="47.670902" lon="2.141634">
        <ele>181.0</ele>
        <time>2022-02-17T09:35:06Z</time>
      </trkpt>
      <trkpt lat="47.670895" lon="2.141629">
        <ele>181.0</ele>
        <time>2022-02-17T09:35:07Z</time>
      </trkpt>
      <trkpt lat="47.670883" lon="2.1416297">
        <ele>181.0</ele>
        <time>2022-02-17T09:35:08Z</time>
      </trkpt>
      <trkpt lat="47.670876" lon="2.1416368">
        <ele>181.0</ele>
        <time>2022-02-17T09:35:09Z</time>
      </trkpt>
      <trkpt lat="47.670864" lon="2.1416433">
        <ele>182.0</ele>
        <time>2022-02-17T09:35:10Z</time>
      </trkpt>
      <trkpt lat="47.67085" lon="2.1416469">
        <ele>182.0</ele>
        <time>2022-02-17T09:35:11Z</time>
      </trkpt>
      <trkpt lat="47.67084" lon="2.1416543">
        <ele>182.0</ele>
        <time>2022-02-17T09:35:12Z</time>
      </trkpt>
      <trkpt lat="47.670826" lon="2.141663">
        <ele>181.0</ele>
        <time>2022-02-17T09:35:13Z</time>
      </trkpt>
      <trkpt lat="47.670815" lon="2.1416647">
        <ele>181.0</ele>
        <time>2022-02-17T09:35:14Z</time>
      </trkpt>
      <trkpt lat="47.670807" lon="2.1416652">
        <ele>181.0</ele>
        <time>2022-02-17T09:35:15Z</time>
      </trkpt>
      <trkpt lat="47.6708" lon="2.1416652">
        <ele>181.0</ele>
        <time>2022-02-17T09:35:16Z</time>
      </trkpt>
      <trkpt lat="47.670788" lon="2.1416643">
        <ele>181.0</ele>
        <time>2022-02-17T09:35:17Z</time>
      </trkpt>
      <trkpt lat="47.67078" lon="2.1416652">
        <ele>181.0</ele>
        <time>2022-02-17T09:35:18Z</time>
      </trkpt>
      <trkpt lat="47.670776" lon="2.1416655">
        <ele>181.0</ele>
        <time>2022-02-17T09:35:19Z</time>
      </trkpt>
      <trkpt lat="47.670765" lon="2.1416688">
        <ele>181.0</ele>
        <time>2022-02-17T09:35:20Z</time>
      </trkpt>
      <trkpt lat="47.670753" lon="2.14167">
        <ele>181.0</ele>
        <time>2022-02-17T09:35:21Z</time>
      </trkpt>
      <trkpt lat="47.670742" lon="2.141675">
        <ele>181.0</ele>
        <time>2022-02-17T09:35:22Z</time>
      </trkpt>
      <trkpt lat="47.670734" lon="2.1416755">
        <ele>181.0</ele>
        <time>2022-02-17T09:35:23Z</time>
      </trkpt>
      <trkpt lat="47.670723" lon="2.1416786">
        <ele>181.0</ele>
        <time>2022-02-17T09:35:24Z</time>
      </trkpt>
      <trkpt lat="47.670708" lon="2.1416874">
        <ele>181.0</ele>
        <time>2022-02-17T09:35:25Z</time>
      </trkpt>
      <trkpt lat="47.670692" lon="2.1416945">
        <ele>181.0</ele>
        <time>2022-02-17T09:35:26Z</time>
      </trkpt>
      <trkpt lat="47.67067" lon="2.1416974">
        <ele>181.0</ele>
        <time>2022-02-17T09:35:28Z</time>
      </trkpt>
      <trkpt lat="47.67066" lon="2.1417034">
        <ele>181.0</ele>
        <time>2022-02-17T09:35:29Z</time>
      </trkpt>
      <trkpt lat="47.67065" lon="2.1417055">
        <ele>180.0</ele>
        <time>2022-02-17T09:35:30Z</time>
      </trkpt>
      <trkpt lat="47.670643" lon="2.141705">
        <ele>180.0</ele>
        <time>2022-02-17T09:35:31Z</time>
      </trkpt>
      <trkpt lat="47.670635" lon="2.1417012">
        <ele>180.0</ele>
        <time>2022-02-17T09:35:32Z</time>
      </trkpt>
      <trkpt lat="47.670628" lon="2.1417038">
        <ele>180.0</ele>
        <time>2022-02-17T09:35:33Z</time>
      </trkpt>
      <trkpt lat="47.670624" lon="2.1417043">
        <ele>180.0</ele>
        <time>2022-02-17T09:35:34Z</time>
      </trkpt>
      <trkpt lat="47.67062" lon="2.1417053">
        <ele>180.0</ele>
        <time>2022-02-17T09:35:35Z</time>
      </trkpt>
      <trkpt lat="47.670612" lon="2.1417046">
        <ele>180.0</ele>
        <time>2022-02-17T09:35:36Z</time>
      </trkpt>
      <trkpt lat="47.670605" lon="2.1417065">
        <ele>180.0</ele>
        <time>2022-02-17T09:35:37Z</time>
      </trkpt>
      <trkpt lat="47.6706" lon="2.1417065">
        <ele>180.0</ele>
        <time>2022-02-17T09:35:38Z</time>
      </trkpt>
      <trkpt lat="47.670593" lon="2.141709">
        <ele>180.0</ele>
        <time>2022-02-17T09:35:39Z</time>
      </trkpt>
      <trkpt lat="47.67058" lon="2.141711">
        <ele>180.0</ele>
        <time>2022-02-17T09:35:40Z</time>
      </trkpt>
      <trkpt lat="47.670574" lon="2.1417086">
        <ele>180.0</ele>
        <time>2022-02-17T09:35:41Z</time>
      </trkpt>
      <trkpt lat="47.670563" lon="2.1417105">
        <ele>180.0</ele>
        <time>2022-02-17T09:35:42Z</time>
      </trkpt>
      <trkpt lat="47.670547" lon="2.1417108">
        <ele>180.0</ele>
        <time>2022-02-17T09:35:43Z</time>
      </trkpt>
      <trkpt lat="47.670536" lon="2.1417143">
        <ele>180.0</ele>
        <time>2022-02-17T09:35:44Z</time>
      </trkpt>
      <trkpt lat="47.67053" lon="2.141715">
        <ele>180.0</ele>
        <time>2022-02-17T09:35:45Z</time>
      </trkpt>
      <trkpt lat="47.67052" lon="2.1417196">
        <ele>180.0</ele>
        <time>2022-02-17T09:35:46Z</time>
      </trkpt>
      <trkpt lat="47.670517" lon="2.1417217">
        <ele>180.0</ele>
        <time>2022-02-17T09:35:47Z</time>
      </trkpt>
      <trkpt lat="47.670506" lon="2.1417217">
        <ele>180.0</ele>
        <time>2022-02-17T09:35:48Z</time>
      </trkpt>
      <trkpt lat="47.670494" lon="2.1417217">
        <ele>180.0</ele>
        <time>2022-02-17T09:35:49Z</time>
      </trkpt>
      <trkpt lat="47.670486" lon="2.1417274">
        <ele>180.0</ele>
        <time>2022-02-17T09:35:50Z</time>
      </trkpt>
      <trkpt lat="47.670475" lon="2.1417284">
        <ele>180.0</ele>
        <time>2022-02-17T09:35:51Z</time>
      </trkpt>
      <trkpt lat="47.670464" lon="2.1417289">
        <ele>179.0</ele>
        <time>2022-02-17T09:35:52Z</time>
      </trkpt>
      <trkpt lat="47.670452" lon="2.1417305">
        <ele>179.0</ele>
        <time>2022-02-17T09:35:53Z</time>
      </trkpt>
      <trkpt lat="47.67044" lon="2.1417322">
        <ele>179.0</ele>
        <time>2022-02-17T09:35:54Z</time>
      </trkpt>
      <trkpt lat="47.67043" lon="2.141737">
        <ele>179.0</ele>
        <time>2022-02-17T09:35:55Z</time>
      </trkpt>
      <trkpt lat="47.670414" lon="2.1417413">
        <ele>179.0</ele>
        <time>2022-02-17T09:35:56Z</time>
      </trkpt>
      <trkpt lat="47.670406" lon="2.1417458">
        <ele>179.0</ele>
        <time>2022-02-17T09:35:57Z</time>
      </trkpt>
      <trkpt lat="47.670395" lon="2.141747">
        <ele>179.0</ele>
        <time>2022-02-17T09:35:58Z</time>
      </trkpt>
      <trkpt lat="47.67038" lon="2.1417482">
        <ele>179.0</ele>
        <time>2022-02-17T09:35:59Z</time>
      </trkpt>
      <trkpt lat="47.67037" lon="2.1417475">
        <ele>179.0</ele>
        <time>2022-02-17T09:36:00Z</time>
      </trkpt>
      <trkpt lat="47.670357" lon="2.141747">
        <ele>179.0</ele>
        <time>2022-02-17T09:36:01Z</time>
      </trkpt>
      <trkpt lat="47.670345" lon="2.1417458">
        <ele>178.0</ele>
        <time>2022-02-17T09:36:02Z</time>
      </trkpt>
      <trkpt lat="47.670334" lon="2.1417465">
        <ele>178.0</ele>
        <time>2022-02-17T09:36:03Z</time>
      </trkpt>
      <trkpt lat="47.670322" lon="2.1417477">
        <ele>179.0</ele>
        <time>2022-02-17T09:36:04Z</time>
      </trkpt>
      <trkpt lat="47.67031" lon="2.1417477">
        <ele>179.0</ele>
        <time>2022-02-17T09:36:05Z</time>
      </trkpt>
      <trkpt lat="47.670303" lon="2.1417475">
        <ele>179.0</ele>
        <time>2022-02-17T09:36:06Z</time>
      </trkpt>
      <trkpt lat="47.67029" lon="2.1417499">
        <ele>178.0</ele>
        <time>2022-02-17T09:36:07Z</time>
      </trkpt>
      <trkpt lat="47.67028" lon="2.1417546">
        <ele>178.0</ele>
        <time>2022-02-17T09:36:08Z</time>
      </trkpt>
      <trkpt lat="47.67027" lon="2.1417618">
        <ele>178.0</ele>
        <time>2022-02-17T09:36:09Z</time>
      </trkpt>
      <trkpt lat="47.670258" lon="2.1417644">
        <ele>178.0</ele>
        <time>2022-02-17T09:36:10Z</time>
      </trkpt>
      <trkpt lat="47.670242" lon="2.1417682">
        <ele>177.0</ele>
        <time>2022-02-17T09:36:11Z</time>
      </trkpt>
      <trkpt lat="47.67023" lon="2.1417687">
        <ele>178.0</ele>
        <time>2022-02-17T09:36:12Z</time>
      </trkpt>
      <trkpt lat="47.67022" lon="2.141772">
        <ele>178.0</ele>
        <time>2022-02-17T09:36:13Z</time>
      </trkpt>
      <trkpt lat="47.670208" lon="2.141772">
        <ele>178.0</ele>
        <time>2022-02-17T09:36:14Z</time>
      </trkpt>
      <trkpt lat="47.670197" lon="2.1417756">
        <ele>178.0</ele>
        <time>2022-02-17T09:36:15Z</time>
      </trkpt>
      <trkpt lat="47.67019" lon="2.1417742">
        <ele>179.0</ele>
        <time>2022-02-17T09:36:16Z</time>
      </trkpt>
      <trkpt lat="47.67018" lon="2.141772">
        <ele>179.0</ele>
        <time>2022-02-17T09:36:17Z</time>
      </trkpt>
      <trkpt lat="47.67017" lon="2.1417742">
        <ele>179.0</ele>
        <time>2022-02-17T09:36:18Z</time>
      </trkpt>
      <trkpt lat="47.67016" lon="2.1417756">
        <ele>180.0</ele>
        <time>2022-02-17T09:36:19Z</time>
      </trkpt>
      <trkpt lat="47.670143" lon="2.1417782">
        <ele>180.0</ele>
        <time>2022-02-17T09:36:20Z</time>
      </trkpt>
      <trkpt lat="47.67013" lon="2.141783">
        <ele>180.0</ele>
        <time>2022-02-17T09:36:21Z</time>
      </trkpt>
      <trkpt lat="47.67012" lon="2.1417832">
        <ele>180.0</ele>
        <time>2022-02-17T09:36:22Z</time>
      </trkpt>
      <trkpt lat="47.67011" lon="2.1417897">
        <ele>180.0</ele>
        <time>2022-02-17T09:36:23Z</time>
      </trkpt>
      <trkpt lat="47.670097" lon="2.1418018">
        <ele>180.0</ele>
        <time>2022-02-17T09:36:24Z</time>
      </trkpt>
      <trkpt lat="47.670086" lon="2.141808">
        <ele>180.0</ele>
        <time>2022-02-17T09:36:25Z</time>
      </trkpt>
      <trkpt lat="47.67007" lon="2.141818">
        <ele>180.0</ele>
        <time>2022-02-17T09:36:26Z</time>
      </trkpt>
      <trkpt lat="47.67006" lon="2.1418235">
        <ele>180.0</ele>
        <time>2022-02-17T09:36:27Z</time>
      </trkpt>
      <trkpt lat="47.670048" lon="2.141822">
        <ele>180.0</ele>
        <time>2022-02-17T09:36:28Z</time>
      </trkpt>
      <trkpt lat="47.67004" lon="2.1418269">
        <ele>180.0</ele>
        <time>2022-02-17T09:36:29Z</time>
      </trkpt>
      <trkpt lat="47.670025" lon="2.1418307">
        <ele>180.0</ele>
        <time>2022-02-17T09:36:30Z</time>
      </trkpt>
      <trkpt lat="47.670013" lon="2.1418397">
        <ele>180.0</ele>
        <time>2022-02-17T09:36:31Z</time>
      </trkpt>
      <trkpt lat="47.670002" lon="2.1418462">
        <ele>180.0</ele>
        <time>2022-02-17T09:36:32Z</time>
      </trkpt>
      <trkpt lat="47.66999" lon="2.1418526">
        <ele>180.0</ele>
        <time>2022-02-17T09:36:33Z</time>
      </trkpt>
      <trkpt lat="47.669975" lon="2.1418626">
        <ele>180.0</ele>
        <time>2022-02-17T09:36:34Z</time>
      </trkpt>
      <trkpt lat="47.669964" lon="2.1418693">
        <ele>180.0</ele>
        <time>2022-02-17T09:36:35Z</time>
      </trkpt>
      <trkpt lat="47.669952" lon="2.1418784">
        <ele>181.0</ele>
        <time>2022-02-17T09:36:36Z</time>
      </trkpt>
      <trkpt lat="47.669937" lon="2.1418798">
        <ele>180.0</ele>
        <time>2022-02-17T09:36:37Z</time>
      </trkpt>
      <trkpt lat="47.66992" lon="2.1418805">
        <ele>180.0</ele>
        <time>2022-02-17T09:36:38Z</time>
      </trkpt>
      <trkpt lat="47.669914" lon="2.141882">
        <ele>180.0</ele>
        <time>2022-02-17T09:36:39Z</time>
      </trkpt>
      <trkpt lat="47.669903" lon="2.1418858">
        <ele>180.0</ele>
        <time>2022-02-17T09:36:40Z</time>
      </trkpt>
      <trkpt lat="47.669895" lon="2.141889">
        <ele>181.0</ele>
        <time>2022-02-17T09:36:41Z</time>
      </trkpt>
      <trkpt lat="47.669888" lon="2.141893">
        <ele>181.0</ele>
        <time>2022-02-17T09:36:42Z</time>
      </trkpt>
      <trkpt lat="47.669872" lon="2.1418989">
        <ele>181.0</ele>
        <time>2022-02-17T09:36:43Z</time>
      </trkpt>
      <trkpt lat="47.669865" lon="2.1419048">
        <ele>181.0</ele>
        <time>2022-02-17T09:36:44Z</time>
      </trkpt>
      <trkpt lat="47.66985" lon="2.1419127">
        <ele>181.0</ele>
        <time>2022-02-17T09:36:45Z</time>
      </trkpt>
      <trkpt lat="47.66985" lon="2.1419127">
        <ele>181.0</ele>
        <time>2022-02-17T09:36:46Z</time>
      </trkpt>
      <trkpt lat="47.66983" lon="2.141921">
        <ele>181.0</ele>
        <time>2022-02-17T09:36:47Z</time>
      </trkpt>
      <trkpt lat="47.66982" lon="2.1419263">
        <ele>181.0</ele>
        <time>2022-02-17T09:36:48Z</time>
      </trkpt>
      <trkpt lat="47.669804" lon="2.141931">
        <ele>180.0</ele>
        <time>2022-02-17T09:36:49Z</time>
      </trkpt>
      <trkpt lat="47.66979" lon="2.1419363">
        <ele>180.0</ele>
        <time>2022-02-17T09:36:50Z</time>
      </trkpt>
      <trkpt lat="47.669777" lon="2.1419375">
        <ele>180.0</ele>
        <time>2022-02-17T09:36:51Z</time>
      </trkpt>
      <trkpt lat="47.66976" lon="2.1419387">
        <ele>179.0</ele>
        <time>2022-02-17T09:36:52Z</time>
      </trkpt>
      <trkpt lat="47.669746" lon="2.141936">
        <ele>179.0</ele>
        <time>2022-02-17T09:36:53Z</time>
      </trkpt>
      <trkpt lat="47.66973" lon="2.1419427">
        <ele>180.0</ele>
        <time>2022-02-17T09:36:54Z</time>
      </trkpt>
      <trkpt lat="47.66972" lon="2.1419494">
        <ele>180.0</ele>
        <time>2022-02-17T09:36:55Z</time>
      </trkpt>
      <trkpt lat="47.669704" lon="2.141956">
        <ele>180.0</ele>
        <time>2022-02-17T09:36:56Z</time>
      </trkpt>
      <trkpt lat="47.66969" lon="2.1419654">
        <ele>180.0</ele>
        <time>2022-02-17T09:36:57Z</time>
      </trkpt>
      <trkpt lat="47.669678" lon="2.1419723">
        <ele>181.0</ele>
        <time>2022-02-17T09:36:58Z</time>
      </trkpt>
      <trkpt lat="47.66967" lon="2.14198">
        <ele>181.0</ele>
        <time>2022-02-17T09:36:59Z</time>
      </trkpt>
      <trkpt lat="47.66966" lon="2.1419845">
        <ele>180.0</ele>
        <time>2022-02-17T09:37:00Z</time>
      </trkpt>
      <trkpt lat="47.669647" lon="2.1419888">
        <ele>180.0</ele>
        <time>2022-02-17T09:37:01Z</time>
      </trkpt>
      <trkpt lat="47.669636" lon="2.1419907">
        <ele>180.0</ele>
        <time>2022-02-17T09:37:02Z</time>
      </trkpt>
      <trkpt lat="47.669624" lon="2.141993">
        <ele>180.0</ele>
        <time>2022-02-17T09:37:03Z</time>
      </trkpt>
      <trkpt lat="47.669617" lon="2.1419957">
        <ele>181.0</ele>
        <time>2022-02-17T09:37:04Z</time>
      </trkpt>
      <trkpt lat="47.6696" lon="2.1419992">
        <ele>181.0</ele>
        <time>2022-02-17T09:37:05Z</time>
      </trkpt>
      <trkpt lat="47.669586" lon="2.1420012">
        <ele>180.0</ele>
        <time>2022-02-17T09:37:06Z</time>
      </trkpt>
      <trkpt lat="47.669575" lon="2.1420083">
        <ele>181.0</ele>
        <time>2022-02-17T09:37:07Z</time>
      </trkpt>
      <trkpt lat="47.669563" lon="2.142014">
        <ele>181.0</ele>
        <time>2022-02-17T09:37:08Z</time>
      </trkpt>
      <trkpt lat="47.669556" lon="2.1420226">
        <ele>180.0</ele>
        <time>2022-02-17T09:37:09Z</time>
      </trkpt>
      <trkpt lat="47.669556" lon="2.1420226">
        <ele>180.0</ele>
        <time>2022-02-17T09:37:10Z</time>
      </trkpt>
      <trkpt lat="47.669556" lon="2.1420226">
        <ele>180.0</ele>
        <time>2022-02-17T09:37:11Z</time>
      </trkpt>
      <trkpt lat="47.66953" lon="2.142039">
        <ele>180.0</ele>
        <time>2022-02-17T09:37:12Z</time>
      </trkpt>
      <trkpt lat="47.669518" lon="2.1420474">
        <ele>180.0</ele>
        <time>2022-02-17T09:37:13Z</time>
      </trkpt>
      <trkpt lat="47.669506" lon="2.1420555">
        <ele>180.0</ele>
        <time>2022-02-17T09:37:14Z</time>
      </trkpt>
      <trkpt lat="47.669495" lon="2.1420596">
        <ele>180.0</ele>
        <time>2022-02-17T09:37:15Z</time>
      </trkpt>
      <trkpt lat="47.669483" lon="2.1420646">
        <ele>180.0</ele>
        <time>2022-02-17T09:37:16Z</time>
      </trkpt>
      <trkpt lat="47.669468" lon="2.1420703">
        <ele>180.0</ele>
        <time>2022-02-17T09:37:17Z</time>
      </trkpt>
      <trkpt lat="47.669456" lon="2.1420767">
        <ele>180.0</ele>
        <time>2022-02-17T09:37:18Z</time>
      </trkpt>
      <trkpt lat="47.669445" lon="2.1420798">
        <ele>180.0</ele>
        <time>2022-02-17T09:37:19Z</time>
      </trkpt>
      <trkpt lat="47.669434" lon="2.1420827">
        <ele>180.0</ele>
        <time>2022-02-17T09:37:20Z</time>
      </trkpt>
      <trkpt lat="47.669422" lon="2.1420844">
        <ele>180.0</ele>
        <time>2022-02-17T09:37:21Z</time>
      </trkpt>
      <trkpt lat="47.66941" lon="2.142092">
        <ele>179.0</ele>
        <time>2022-02-17T09:37:22Z</time>
      </trkpt>
      <trkpt lat="47.6694" lon="2.1421003">
        <ele>179.0</ele>
        <time>2022-02-17T09:37:23Z</time>
      </trkpt>
      <trkpt lat="47.669384" lon="2.1421096">
        <ele>179.0</ele>
        <time>2022-02-17T09:37:24Z</time>
      </trkpt>
      <trkpt lat="47.669373" lon="2.1421223">
        <ele>179.0</ele>
        <time>2022-02-17T09:37:25Z</time>
      </trkpt>
      <trkpt lat="47.669357" lon="2.1421332">
        <ele>179.0</ele>
        <time>2022-02-17T09:37:26Z</time>
      </trkpt>
      <trkpt lat="47.669346" lon="2.1421437">
        <ele>179.0</ele>
        <time>2022-02-17T09:37:27Z</time>
      </trkpt>
      <trkpt lat="47.669334" lon="2.1421545">
        <ele>178.0</ele>
        <time>2022-02-17T09:37:28Z</time>
      </trkpt>
      <trkpt lat="47.669323" lon="2.1421626">
        <ele>178.0</ele>
        <time>2022-02-17T09:37:29Z</time>
      </trkpt>
      <trkpt lat="47.669315" lon="2.142165">
        <ele>178.0</ele>
        <time>2022-02-17T09:37:30Z</time>
      </trkpt>
      <trkpt lat="47.669308" lon="2.1421716">
        <ele>178.0</ele>
        <time>2022-02-17T09:37:31Z</time>
      </trkpt>
      <trkpt lat="47.669308" lon="2.1421716">
        <ele>178.0</ele>
        <time>2022-02-17T09:37:32Z</time>
      </trkpt>
      <trkpt lat="47.669285" lon="2.142171">
        <ele>178.0</ele>
        <time>2022-02-17T09:37:33Z</time>
      </trkpt>
      <trkpt lat="47.669273" lon="2.1421764">
        <ele>178.0</ele>
        <time>2022-02-17T09:37:34Z</time>
      </trkpt>
      <trkpt lat="47.669266" lon="2.142179">
        <ele>178.0</ele>
        <time>2022-02-17T09:37:35Z</time>
      </trkpt>
      <trkpt lat="47.669254" lon="2.142181">
        <ele>177.0</ele>
        <time>2022-02-17T09:37:36Z</time>
      </trkpt>
      <trkpt lat="47.669247" lon="2.1421862">
        <ele>178.0</ele>
        <time>2022-02-17T09:37:37Z</time>
      </trkpt>
      <trkpt lat="47.66924" lon="2.142195">
        <ele>178.0</ele>
        <time>2022-02-17T09:37:38Z</time>
      </trkpt>
      <trkpt lat="47.669228" lon="2.1422021">
        <ele>178.0</ele>
        <time>2022-02-17T09:37:39Z</time>
      </trkpt>
      <trkpt lat="47.66922" lon="2.1422098">
        <ele>178.0</ele>
        <time>2022-02-17T09:37:40Z</time>
      </trkpt>
      <trkpt lat="47.66921" lon="2.142212">
        <ele>178.0</ele>
        <time>2022-02-17T09:37:41Z</time>
      </trkpt>
      <trkpt lat="47.6692" lon="2.1422164">
        <ele>178.0</ele>
        <time>2022-02-17T09:37:42Z</time>
      </trkpt>
      <trkpt lat="47.66919" lon="2.142224">
        <ele>178.0</ele>
        <time>2022-02-17T09:37:43Z</time>
      </trkpt>
      <trkpt lat="47.669178" lon="2.1422324">
        <ele>177.0</ele>
        <time>2022-02-17T09:37:44Z</time>
      </trkpt>
      <trkpt lat="47.669167" lon="2.1422365">
        <ele>177.0</ele>
        <time>2022-02-17T09:37:45Z</time>
      </trkpt>
      <trkpt lat="47.669155" lon="2.1422398">
        <ele>177.0</ele>
        <time>2022-02-17T09:37:46Z</time>
      </trkpt>
      <trkpt lat="47.669147" lon="2.1422439">
        <ele>177.0</ele>
        <time>2022-02-17T09:37:47Z</time>
      </trkpt>
      <trkpt lat="47.669132" lon="2.1422472">
        <ele>178.0</ele>
        <time>2022-02-17T09:37:48Z</time>
      </trkpt>
      <trkpt lat="47.669117" lon="2.142249">
        <ele>178.0</ele>
        <time>2022-02-17T09:37:49Z</time>
      </trkpt>
      <trkpt lat="47.6691" lon="2.1422546">
        <ele>178.0</ele>
        <time>2022-02-17T09:37:50Z</time>
      </trkpt>
      <trkpt lat="47.66909" lon="2.1422603">
        <ele>178.0</ele>
        <time>2022-02-17T09:37:51Z</time>
      </trkpt>
      <trkpt lat="47.66908" lon="2.1422684">
        <ele>179.0</ele>
        <time>2022-02-17T09:37:52Z</time>
      </trkpt>
      <trkpt lat="47.66907" lon="2.1422725">
        <ele>178.0</ele>
        <time>2022-02-17T09:37:53Z</time>
      </trkpt>
      <trkpt lat="47.66906" lon="2.142273">
        <ele>179.0</ele>
        <time>2022-02-17T09:37:54Z</time>
      </trkpt>
      <trkpt lat="47.66905" lon="2.1422744">
        <ele>179.0</ele>
        <time>2022-02-17T09:37:55Z</time>
      </trkpt>
      <trkpt lat="47.66904" lon="2.1422803">
        <ele>179.0</ele>
        <time>2022-02-17T09:37:56Z</time>
      </trkpt>
      <trkpt lat="47.66903" lon="2.1422849">
        <ele>179.0</ele>
        <time>2022-02-17T09:37:57Z</time>
      </trkpt>
      <trkpt lat="47.669014" lon="2.1422906">
        <ele>179.0</ele>
        <time>2022-02-17T09:37:58Z</time>
      </trkpt>
      <trkpt lat="47.669" lon="2.1422927">
        <ele>178.0</ele>
        <time>2022-02-17T09:37:59Z</time>
      </trkpt>
      <trkpt lat="47.668983" lon="2.1422942">
        <ele>178.0</ele>
        <time>2022-02-17T09:38:00Z</time>
      </trkpt>
      <trkpt lat="47.668972" lon="2.1423006">
        <ele>178.0</ele>
        <time>2022-02-17T09:38:01Z</time>
      </trkpt>
      <trkpt lat="47.66896" lon="2.1423056">
        <ele>178.0</ele>
        <time>2022-02-17T09:38:02Z</time>
      </trkpt>
      <trkpt lat="47.668945" lon="2.14231">
        <ele>178.0</ele>
        <time>2022-02-17T09:38:03Z</time>
      </trkpt>
      <trkpt lat="47.668934" lon="2.142315">
        <ele>178.0</ele>
        <time>2022-02-17T09:38:04Z</time>
      </trkpt>
      <trkpt lat="47.66892" lon="2.14232">
        <ele>178.0</ele>
        <time>2022-02-17T09:38:05Z</time>
      </trkpt>
      <trkpt lat="47.668907" lon="2.1423244">
        <ele>179.0</ele>
        <time>2022-02-17T09:38:06Z</time>
      </trkpt>
      <trkpt lat="47.66889" lon="2.1423275">
        <ele>179.0</ele>
        <time>2022-02-17T09:38:07Z</time>
      </trkpt>
      <trkpt lat="47.66888" lon="2.142331">
        <ele>179.0</ele>
        <time>2022-02-17T09:38:08Z</time>
      </trkpt>
      <trkpt lat="47.66887" lon="2.1423335">
        <ele>179.0</ele>
        <time>2022-02-17T09:38:09Z</time>
      </trkpt>
      <trkpt lat="47.668858" lon="2.1423328">
        <ele>178.0</ele>
        <time>2022-02-17T09:38:10Z</time>
      </trkpt>
      <trkpt lat="47.668842" lon="2.1423318">
        <ele>179.0</ele>
        <time>2022-02-17T09:38:11Z</time>
      </trkpt>
      <trkpt lat="47.668827" lon="2.14233">
        <ele>179.0</ele>
        <time>2022-02-17T09:38:12Z</time>
      </trkpt>
      <trkpt lat="47.668816" lon="2.1423297">
        <ele>179.0</ele>
        <time>2022-02-17T09:38:13Z</time>
      </trkpt>
      <trkpt lat="47.668808" lon="2.142327">
        <ele>179.0</ele>
        <time>2022-02-17T09:38:14Z</time>
      </trkpt>
      <trkpt lat="47.668797" lon="2.1423235">
        <ele>179.0</ele>
        <time>2022-02-17T09:38:15Z</time>
      </trkpt>
      <trkpt lat="47.668785" lon="2.1423206">
        <ele>179.0</ele>
        <time>2022-02-17T09:38:16Z</time>
      </trkpt>
      <trkpt lat="47.66877" lon="2.142316">
        <ele>180.0</ele>
        <time>2022-02-17T09:38:17Z</time>
      </trkpt>
      <trkpt lat="47.66876" lon="2.1423154">
        <ele>179.0</ele>
        <time>2022-02-17T09:38:18Z</time>
      </trkpt>
      <trkpt lat="47.668743" lon="2.1423068">
        <ele>179.0</ele>
        <time>2022-02-17T09:38:19Z</time>
      </trkpt>
      <trkpt lat="47.66873" lon="2.142305">
        <ele>179.0</ele>
        <time>2022-02-17T09:38:20Z</time>
      </trkpt>
      <trkpt lat="47.668716" lon="2.142302">
        <ele>180.0</ele>
        <time>2022-02-17T09:38:21Z</time>
      </trkpt>
      <trkpt lat="47.6687" lon="2.1422992">
        <ele>180.0</ele>
        <time>2022-02-17T09:38:22Z</time>
      </trkpt>
      <trkpt lat="47.66869" lon="2.1423001">
        <ele>180.0</ele>
        <time>2022-02-17T09:38:23Z</time>
      </trkpt>
      <trkpt lat="47.668682" lon="2.1423042">
        <ele>181.0</ele>
        <time>2022-02-17T09:38:24Z</time>
      </trkpt>
      <trkpt lat="47.66867" lon="2.1423044">
        <ele>181.0</ele>
        <time>2022-02-17T09:38:25Z</time>
      </trkpt>
      <trkpt lat="47.668663" lon="2.1422997">
        <ele>181.0</ele>
        <time>2022-02-17T09:38:26Z</time>
      </trkpt>
      <trkpt lat="47.66865" lon="2.142292">
        <ele>181.0</ele>
        <time>2022-02-17T09:38:27Z</time>
      </trkpt>
      <trkpt lat="47.66864" lon="2.1422873">
        <ele>181.0</ele>
        <time>2022-02-17T09:38:28Z</time>
      </trkpt>
      <trkpt lat="47.668625" lon="2.1422865">
        <ele>180.0</ele>
        <time>2022-02-17T09:38:29Z</time>
      </trkpt>
      <trkpt lat="47.668617" lon="2.142287">
        <ele>180.0</ele>
        <time>2022-02-17T09:38:30Z</time>
      </trkpt>
      <trkpt lat="47.668606" lon="2.142287">
        <ele>181.0</ele>
        <time>2022-02-17T09:38:31Z</time>
      </trkpt>
      <trkpt lat="47.66859" lon="2.1422863">
        <ele>181.0</ele>
        <time>2022-02-17T09:38:32Z</time>
      </trkpt>
      <trkpt lat="47.66858" lon="2.1422834">
        <ele>181.0</ele>
        <time>2022-02-17T09:38:33Z</time>
      </trkpt>
      <trkpt lat="47.668564" lon="2.1422791">
        <ele>181.0</ele>
        <time>2022-02-17T09:38:34Z</time>
      </trkpt>
      <trkpt lat="47.668552" lon="2.142276">
        <ele>181.0</ele>
        <time>2022-02-17T09:38:35Z</time>
      </trkpt>
      <trkpt lat="47.66854" lon="2.142274">
        <ele>181.0</ele>
        <time>2022-02-17T09:38:36Z</time>
      </trkpt>
      <trkpt lat="47.66853" lon="2.1422715">
        <ele>181.0</ele>
        <time>2022-02-17T09:38:37Z</time>
      </trkpt>
      <trkpt lat="47.66852" lon="2.1422656">
        <ele>181.0</ele>
        <time>2022-02-17T09:38:38Z</time>
      </trkpt>
      <trkpt lat="47.668507" lon="2.142262">
        <ele>180.0</ele>
        <time>2022-02-17T09:38:39Z</time>
      </trkpt>
      <trkpt lat="47.668488" lon="2.1422596">
        <ele>180.0</ele>
        <time>2022-02-17T09:38:40Z</time>
      </trkpt>
      <trkpt lat="47.668476" lon="2.1422586">
        <ele>180.0</ele>
        <time>2022-02-17T09:38:41Z</time>
      </trkpt>
      <trkpt lat="47.668465" lon="2.1422498">
        <ele>180.0</ele>
        <time>2022-02-17T09:38:42Z</time>
      </trkpt>
      <trkpt lat="47.668453" lon="2.1422417">
        <ele>180.0</ele>
        <time>2022-02-17T09:38:43Z</time>
      </trkpt>
      <trkpt lat="47.66844" lon="2.1422424">
        <ele>180.0</ele>
        <time>2022-02-17T09:38:44Z</time>
      </trkpt>
      <trkpt lat="47.668434" lon="2.1422439">
        <ele>180.0</ele>
        <time>2022-02-17T09:38:45Z</time>
      </trkpt>
      <trkpt lat="47.668427" lon="2.1422427">
        <ele>179.0</ele>
        <time>2022-02-17T09:38:46Z</time>
      </trkpt>
      <trkpt lat="47.66841" lon="2.14224">
        <ele>179.0</ele>
        <time>2022-02-17T09:38:47Z</time>
      </trkpt>
      <trkpt lat="47.6684" lon="2.1422365">
        <ele>179.0</ele>
        <time>2022-02-17T09:38:48Z</time>
      </trkpt>
      <trkpt lat="47.66839" lon="2.1422324">
        <ele>179.0</ele>
        <time>2022-02-17T09:38:49Z</time>
      </trkpt>
      <trkpt lat="47.668377" lon="2.1422293">
        <ele>179.0</ele>
        <time>2022-02-17T09:38:50Z</time>
      </trkpt>
      <trkpt lat="47.668365" lon="2.1422255">
        <ele>179.0</ele>
        <time>2022-02-17T09:38:51Z</time>
      </trkpt>
      <trkpt lat="47.66835" lon="2.1422188">
        <ele>179.0</ele>
        <time>2022-02-17T09:38:52Z</time>
      </trkpt>
      <trkpt lat="47.668343" lon="2.1422126">
        <ele>179.0</ele>
        <time>2022-02-17T09:38:53Z</time>
      </trkpt>
      <trkpt lat="47.668335" lon="2.1422136">
        <ele>179.0</ele>
        <time>2022-02-17T09:38:54Z</time>
      </trkpt>
      <trkpt lat="47.668324" lon="2.1422102">
        <ele>179.0</ele>
        <time>2022-02-17T09:38:55Z</time>
      </trkpt>
      <trkpt lat="47.668312" lon="2.142213">
        <ele>179.0</ele>
        <time>2022-02-17T09:38:56Z</time>
      </trkpt>
      <trkpt lat="47.6683" lon="2.142215">
        <ele>179.0</ele>
        <time>2022-02-17T09:38:57Z</time>
      </trkpt>
      <trkpt lat="47.668285" lon="2.1422098">
        <ele>179.0</ele>
        <time>2022-02-17T09:38:58Z</time>
      </trkpt>
      <trkpt lat="47.66827" lon="2.1422079">
        <ele>180.0</ele>
        <time>2022-02-17T09:38:59Z</time>
      </trkpt>
      <trkpt lat="47.66826" lon="2.142208">
        <ele>179.0</ele>
        <time>2022-02-17T09:39:00Z</time>
      </trkpt>
      <trkpt lat="47.668243" lon="2.1422033">
        <ele>178.0</ele>
        <time>2022-02-17T09:39:01Z</time>
      </trkpt>
      <trkpt lat="47.668236" lon="2.1422026">
        <ele>178.0</ele>
        <time>2022-02-17T09:39:02Z</time>
      </trkpt>
      <trkpt lat="47.66822" lon="2.1422012">
        <ele>178.0</ele>
        <time>2022-02-17T09:39:03Z</time>
      </trkpt>
      <trkpt lat="47.66821" lon="2.1422014">
        <ele>178.0</ele>
        <time>2022-02-17T09:39:04Z</time>
      </trkpt>
      <trkpt lat="47.668198" lon="2.1421983">
        <ele>177.0</ele>
        <time>2022-02-17T09:39:05Z</time>
      </trkpt>
      <trkpt lat="47.66819" lon="2.1422007">
        <ele>178.0</ele>
        <time>2022-02-17T09:39:06Z</time>
      </trkpt>
      <trkpt lat="47.668182" lon="2.142198">
        <ele>179.0</ele>
        <time>2022-02-17T09:39:07Z</time>
      </trkpt>
      <trkpt lat="47.66817" lon="2.142196">
        <ele>179.0</ele>
        <time>2022-02-17T09:39:08Z</time>
      </trkpt>
      <trkpt lat="47.66816" lon="2.142193">
        <ele>180.0</ele>
        <time>2022-02-17T09:39:09Z</time>
      </trkpt>
      <trkpt lat="47.668148" lon="2.142192">
        <ele>180.0</ele>
        <time>2022-02-17T09:39:10Z</time>
      </trkpt>
      <trkpt lat="47.668137" lon="2.1421943">
        <ele>180.0</ele>
        <time>2022-02-17T09:39:11Z</time>
      </trkpt>
      <trkpt lat="47.668125" lon="2.1422002">
        <ele>180.0</ele>
        <time>2022-02-17T09:39:12Z</time>
      </trkpt>
      <trkpt lat="47.66811" lon="2.142198">
        <ele>180.0</ele>
        <time>2022-02-17T09:39:13Z</time>
      </trkpt>
      <trkpt lat="47.6681" lon="2.1422017">
        <ele>180.0</ele>
        <time>2022-02-17T09:39:14Z</time>
      </trkpt>
      <trkpt lat="47.668087" lon="2.142205">
        <ele>180.0</ele>
        <time>2022-02-17T09:39:15Z</time>
      </trkpt>
      <trkpt lat="47.668076" lon="2.1422064">
        <ele>180.0</ele>
        <time>2022-02-17T09:39:16Z</time>
      </trkpt>
      <trkpt lat="47.66806" lon="2.1422055">
        <ele>181.0</ele>
        <time>2022-02-17T09:39:17Z</time>
      </trkpt>
      <trkpt lat="47.66805" lon="2.142204">
        <ele>181.0</ele>
        <time>2022-02-17T09:39:18Z</time>
      </trkpt>
      <trkpt lat="47.668037" lon="2.142206">
        <ele>181.0</ele>
        <time>2022-02-17T09:39:19Z</time>
      </trkpt>
      <trkpt lat="47.66803" lon="2.1422093">
        <ele>180.0</ele>
        <time>2022-02-17T09:39:20Z</time>
      </trkpt>
      <trkpt lat="47.66802" lon="2.1422112">
        <ele>180.0</ele>
        <time>2022-02-17T09:39:21Z</time>
      </trkpt>
      <trkpt lat="47.668007" lon="2.1422138">
        <ele>180.0</ele>
        <time>2022-02-17T09:39:22Z</time>
      </trkpt>
      <trkpt lat="47.667995" lon="2.1422167">
        <ele>180.0</ele>
        <time>2022-02-17T09:39:23Z</time>
      </trkpt>
      <trkpt lat="47.667988" lon="2.1422205">
        <ele>180.0</ele>
        <time>2022-02-17T09:39:24Z</time>
      </trkpt>
      <trkpt lat="47.667976" lon="2.1422238">
        <ele>180.0</ele>
        <time>2022-02-17T09:39:25Z</time>
      </trkpt>
      <trkpt lat="47.667965" lon="2.142232">
        <ele>180.0</ele>
        <time>2022-02-17T09:39:26Z</time>
      </trkpt>
      <trkpt lat="47.667957" lon="2.1422346">
        <ele>180.0</ele>
        <time>2022-02-17T09:39:27Z</time>
      </trkpt>
      <trkpt lat="47.66795" lon="2.1422343">
        <ele>180.0</ele>
        <time>2022-02-17T09:39:28Z</time>
      </trkpt>
      <trkpt lat="47.66795" lon="2.1422343">
        <ele>180.0</ele>
        <time>2022-02-17T09:39:29Z</time>
      </trkpt>
      <trkpt lat="47.66793" lon="2.1422393">
        <ele>180.0</ele>
        <time>2022-02-17T09:39:30Z</time>
      </trkpt>
      <trkpt lat="47.66792" lon="2.1422465">
        <ele>180.0</ele>
        <time>2022-02-17T09:39:31Z</time>
      </trkpt>
      <trkpt lat="47.667908" lon="2.1422558">
        <ele>179.0</ele>
        <time>2022-02-17T09:39:32Z</time>
      </trkpt>
      <trkpt lat="47.667892" lon="2.142266">
        <ele>179.0</ele>
        <time>2022-02-17T09:39:33Z</time>
      </trkpt>
      <trkpt lat="47.66788" lon="2.1422782">
        <ele>179.0</ele>
        <time>2022-02-17T09:39:34Z</time>
      </trkpt>
      <trkpt lat="47.66787" lon="2.1422937">
        <ele>179.0</ele>
        <time>2022-02-17T09:39:35Z</time>
      </trkpt>
      <trkpt lat="47.667854" lon="2.1423042">
        <ele>179.0</ele>
        <time>2022-02-17T09:39:36Z</time>
      </trkpt>
      <trkpt lat="47.667843" lon="2.1423123">
        <ele>180.0</ele>
        <time>2022-02-17T09:39:37Z</time>
      </trkpt>
      <trkpt lat="47.66783" lon="2.1423228">
        <ele>180.0</ele>
        <time>2022-02-17T09:39:38Z</time>
      </trkpt>
      <trkpt lat="47.66782" lon="2.1423337">
        <ele>180.0</ele>
        <time>2022-02-17T09:39:39Z</time>
      </trkpt>
      <trkpt lat="47.667812" lon="2.1423407">
        <ele>180.0</ele>
        <time>2022-02-17T09:39:40Z</time>
      </trkpt>
      <trkpt lat="47.667805" lon="2.1423512">
        <ele>181.0</ele>
        <time>2022-02-17T09:39:41Z</time>
      </trkpt>
      <trkpt lat="47.667797" lon="2.142364">
        <ele>180.0</ele>
        <time>2022-02-17T09:39:42Z</time>
      </trkpt>
      <trkpt lat="47.667786" lon="2.1423812">
        <ele>180.0</ele>
        <time>2022-02-17T09:39:43Z</time>
      </trkpt>
      <trkpt lat="47.667778" lon="2.1423945">
        <ele>180.0</ele>
        <time>2022-02-17T09:39:44Z</time>
      </trkpt>
      <trkpt lat="47.66777" lon="2.142409">
        <ele>180.0</ele>
        <time>2022-02-17T09:39:45Z</time>
      </trkpt>
      <trkpt lat="47.66776" lon="2.1424248">
        <ele>180.0</ele>
        <time>2022-02-17T09:39:46Z</time>
      </trkpt>
      <trkpt lat="47.66775" lon="2.1424382">
        <ele>180.0</ele>
        <time>2022-02-17T09:39:47Z</time>
      </trkpt>
      <trkpt lat="47.66774" lon="2.1424494">
        <ele>180.0</ele>
        <time>2022-02-17T09:39:48Z</time>
      </trkpt>
      <trkpt lat="47.667732" lon="2.1424618">
        <ele>180.0</ele>
        <time>2022-02-17T09:39:49Z</time>
      </trkpt>
      <trkpt lat="47.667725" lon="2.1424713">
        <ele>180.0</ele>
        <time>2022-02-17T09:39:50Z</time>
      </trkpt>
      <trkpt lat="47.66772" lon="2.1424828">
        <ele>179.0</ele>
        <time>2022-02-17T09:39:51Z</time>
      </trkpt>
      <trkpt lat="47.667713" lon="2.1424937">
        <ele>180.0</ele>
        <time>2022-02-17T09:39:52Z</time>
      </trkpt>
      <trkpt lat="47.667706" lon="2.1425076">
        <ele>180.0</ele>
        <time>2022-02-17T09:39:53Z</time>
      </trkpt>
      <trkpt lat="47.6677" lon="2.1425214">
        <ele>180.0</ele>
        <time>2022-02-17T09:39:54Z</time>
      </trkpt>
      <trkpt lat="47.667694" lon="2.1425343">
        <ele>180.0</ele>
        <time>2022-02-17T09:39:55Z</time>
      </trkpt>
      <trkpt lat="47.667686" lon="2.1425447">
        <ele>179.0</ele>
        <time>2022-02-17T09:39:56Z</time>
      </trkpt>
      <trkpt lat="47.667683" lon="2.1425526">
        <ele>179.0</ele>
        <time>2022-02-17T09:39:57Z</time>
      </trkpt>
      <trkpt lat="47.667675" lon="2.1425629">
        <ele>179.0</ele>
        <time>2022-02-17T09:39:58Z</time>
      </trkpt>
      <trkpt lat="47.667667" lon="2.1425767">
        <ele>179.0</ele>
        <time>2022-02-17T09:39:59Z</time>
      </trkpt>
      <trkpt lat="47.667656" lon="2.1425896">
        <ele>179.0</ele>
        <time>2022-02-17T09:40:00Z</time>
      </trkpt>
      <trkpt lat="47.667652" lon="2.142601">
        <ele>179.0</ele>
        <time>2022-02-17T09:40:01Z</time>
      </trkpt>
      <trkpt lat="47.667645" lon="2.1426108">
        <ele>179.0</ele>
        <time>2022-02-17T09:40:02Z</time>
      </trkpt>
      <trkpt lat="47.66764" lon="2.1426187">
        <ele>179.0</ele>
        <time>2022-02-17T09:40:03Z</time>
      </trkpt>
      <trkpt lat="47.667637" lon="2.1426203">
        <ele>180.0</ele>
        <time>2022-02-17T09:40:04Z</time>
      </trkpt>
      <trkpt lat="47.667625" lon="2.1426318">
        <ele>179.0</ele>
        <time>2022-02-17T09:40:05Z</time>
      </trkpt>
      <trkpt lat="47.66762" lon="2.142645">
        <ele>180.0</ele>
        <time>2022-02-17T09:40:06Z</time>
      </trkpt>
      <trkpt lat="47.667614" lon="2.1426547">
        <ele>180.0</ele>
        <time>2022-02-17T09:40:07Z</time>
      </trkpt>
      <trkpt lat="47.667606" lon="2.1426654">
        <ele>179.0</ele>
        <time>2022-02-17T09:40:08Z</time>
      </trkpt>
      <trkpt lat="47.6676" lon="2.1426768">
        <ele>179.0</ele>
        <time>2022-02-17T09:40:09Z</time>
      </trkpt>
      <trkpt lat="47.667587" lon="2.1426885">
        <ele>179.0</ele>
        <time>2022-02-17T09:40:10Z</time>
      </trkpt>
      <trkpt lat="47.66758" lon="2.142704">
        <ele>180.0</ele>
        <time>2022-02-17T09:40:11Z</time>
      </trkpt>
      <trkpt lat="47.667572" lon="2.1427193">
        <ele>180.0</ele>
        <time>2022-02-17T09:40:12Z</time>
      </trkpt>
      <trkpt lat="47.667564" lon="2.1427338">
        <ele>180.0</ele>
        <time>2022-02-17T09:40:13Z</time>
      </trkpt>
      <trkpt lat="47.667553" lon="2.1427484">
        <ele>179.0</ele>
        <time>2022-02-17T09:40:14Z</time>
      </trkpt>
      <trkpt lat="47.667545" lon="2.1427627">
        <ele>179.0</ele>
        <time>2022-02-17T09:40:15Z</time>
      </trkpt>
      <trkpt lat="47.667534" lon="2.142777">
        <ele>180.0</ele>
        <time>2022-02-17T09:40:16Z</time>
      </trkpt>
      <trkpt lat="47.667526" lon="2.142784">
        <ele>180.0</ele>
        <time>2022-02-17T09:40:17Z</time>
      </trkpt>
      <trkpt lat="47.66752" lon="2.142794">
        <ele>180.0</ele>
        <time>2022-02-17T09:40:18Z</time>
      </trkpt>
      <trkpt lat="47.66751" lon="2.1428025">
        <ele>180.0</ele>
        <time>2022-02-17T09:40:19Z</time>
      </trkpt>
      <trkpt lat="47.667503" lon="2.1428149">
        <ele>179.0</ele>
        <time>2022-02-17T09:40:20Z</time>
      </trkpt>
      <trkpt lat="47.667492" lon="2.1428301">
        <ele>179.0</ele>
        <time>2022-02-17T09:40:21Z</time>
      </trkpt>
      <trkpt lat="47.66748" lon="2.142844">
        <ele>179.0</ele>
        <time>2022-02-17T09:40:22Z</time>
      </trkpt>
      <trkpt lat="47.667473" lon="2.1428556">
        <ele>179.0</ele>
        <time>2022-02-17T09:40:23Z</time>
      </trkpt>
      <trkpt lat="47.66747" lon="2.1428668">
        <ele>178.0</ele>
        <time>2022-02-17T09:40:24Z</time>
      </trkpt>
      <trkpt lat="47.66746" lon="2.1428773">
        <ele>178.0</ele>
        <time>2022-02-17T09:40:25Z</time>
      </trkpt>
      <trkpt lat="47.66745" lon="2.142887">
        <ele>179.0</ele>
        <time>2022-02-17T09:40:26Z</time>
      </trkpt>
      <trkpt lat="47.667442" lon="2.1428974">
        <ele>179.0</ele>
        <time>2022-02-17T09:40:27Z</time>
      </trkpt>
      <trkpt lat="47.667435" lon="2.1429079">
        <ele>179.0</ele>
        <time>2022-02-17T09:40:28Z</time>
      </trkpt>
      <trkpt lat="47.66743" lon="2.1429226">
        <ele>179.0</ele>
        <time>2022-02-17T09:40:29Z</time>
      </trkpt>
      <trkpt lat="47.66742" lon="2.1429367">
        <ele>179.0</ele>
        <time>2022-02-17T09:40:30Z</time>
      </trkpt>
      <trkpt lat="47.66741" lon="2.142949">
        <ele>179.0</ele>
        <time>2022-02-17T09:40:31Z</time>
      </trkpt>
      <trkpt lat="47.667404" lon="2.1429608">
        <ele>179.0</ele>
        <time>2022-02-17T09:40:32Z</time>
      </trkpt>
      <trkpt lat="47.667393" lon="2.142975">
        <ele>180.0</ele>
        <time>2022-02-17T09:40:33Z</time>
      </trkpt>
      <trkpt lat="47.66738" lon="2.1429908">
        <ele>180.0</ele>
        <time>2022-02-17T09:40:34Z</time>
      </trkpt>
      <trkpt lat="47.667374" lon="2.1430066">
        <ele>180.0</ele>
        <time>2022-02-17T09:40:35Z</time>
      </trkpt>
      <trkpt lat="47.667366" lon="2.1430225">
        <ele>181.0</ele>
        <time>2022-02-17T09:40:36Z</time>
      </trkpt>
      <trkpt lat="47.66736" lon="2.1430347">
        <ele>181.0</ele>
        <time>2022-02-17T09:40:37Z</time>
      </trkpt>
      <trkpt lat="47.66735" lon="2.1430407">
        <ele>181.0</ele>
        <time>2022-02-17T09:40:38Z</time>
      </trkpt>
      <trkpt lat="47.667343" lon="2.1430495">
        <ele>181.0</ele>
        <time>2022-02-17T09:40:39Z</time>
      </trkpt>
      <trkpt lat="47.667336" lon="2.1430585">
        <ele>181.0</ele>
        <time>2022-02-17T09:40:40Z</time>
      </trkpt>
      <trkpt lat="47.667324" lon="2.1430738">
        <ele>181.0</ele>
        <time>2022-02-17T09:40:41Z</time>
      </trkpt>
      <trkpt lat="47.667313" lon="2.1430893">
        <ele>181.0</ele>
        <time>2022-02-17T09:40:42Z</time>
      </trkpt>
      <trkpt lat="47.6673" lon="2.1431026">
        <ele>181.0</ele>
        <time>2022-02-17T09:40:43Z</time>
      </trkpt>
      <trkpt lat="47.667294" lon="2.143116">
        <ele>181.0</ele>
        <time>2022-02-17T09:40:44Z</time>
      </trkpt>
      <trkpt lat="47.667282" lon="2.1431274">
        <ele>181.0</ele>
        <time>2022-02-17T09:40:45Z</time>
      </trkpt>
      <trkpt lat="47.667274" lon="2.1431432">
        <ele>182.0</ele>
        <time>2022-02-17T09:40:46Z</time>
      </trkpt>
      <trkpt lat="47.667267" lon="2.1431508">
        <ele>182.0</ele>
        <time>2022-02-17T09:40:47Z</time>
      </trkpt>
      <trkpt lat="47.66726" lon="2.1431592">
        <ele>181.0</ele>
        <time>2022-02-17T09:40:48Z</time>
      </trkpt>
      <trkpt lat="47.66725" lon="2.14317">
        <ele>181.0</ele>
        <time>2022-02-17T09:40:49Z</time>
      </trkpt>
      <trkpt lat="47.667244" lon="2.1431813">
        <ele>181.0</ele>
        <time>2022-02-17T09:40:50Z</time>
      </trkpt>
      <trkpt lat="47.667233" lon="2.1431925">
        <ele>181.0</ele>
        <time>2022-02-17T09:40:51Z</time>
      </trkpt>
      <trkpt lat="47.66722" lon="2.1432073">
        <ele>182.0</ele>
        <time>2022-02-17T09:40:52Z</time>
      </trkpt>
      <trkpt lat="47.66721" lon="2.1432161">
        <ele>182.0</ele>
        <time>2022-02-17T09:40:53Z</time>
      </trkpt>
      <trkpt lat="47.6672" lon="2.1432242">
        <ele>182.0</ele>
        <time>2022-02-17T09:40:54Z</time>
      </trkpt>
      <trkpt lat="47.667187" lon="2.143231">
        <ele>182.0</ele>
        <time>2022-02-17T09:40:55Z</time>
      </trkpt>
      <trkpt lat="47.66718" lon="2.1432347">
        <ele>183.0</ele>
        <time>2022-02-17T09:40:56Z</time>
      </trkpt>
      <trkpt lat="47.667168" lon="2.143244">
        <ele>183.0</ele>
        <time>2022-02-17T09:40:57Z</time>
      </trkpt>
      <trkpt lat="47.667156" lon="2.143252">
        <ele>183.0</ele>
        <time>2022-02-17T09:40:58Z</time>
      </trkpt>
      <trkpt lat="47.66715" lon="2.1432598">
        <ele>183.0</ele>
        <time>2022-02-17T09:40:59Z</time>
      </trkpt>
      <trkpt lat="47.667137" lon="2.1432657">
        <ele>182.0</ele>
        <time>2022-02-17T09:41:00Z</time>
      </trkpt>
      <trkpt lat="47.66713" lon="2.1432745">
        <ele>182.0</ele>
        <time>2022-02-17T09:41:01Z</time>
      </trkpt>
      <trkpt lat="47.66712" lon="2.1432855">
        <ele>182.0</ele>
        <time>2022-02-17T09:41:02Z</time>
      </trkpt>
      <trkpt lat="47.66711" lon="2.143298">
        <ele>182.0</ele>
        <time>2022-02-17T09:41:03Z</time>
      </trkpt>
      <trkpt lat="47.667095" lon="2.1433089">
        <ele>182.0</ele>
        <time>2022-02-17T09:41:04Z</time>
      </trkpt>
      <trkpt lat="47.667084" lon="2.143317">
        <ele>182.0</ele>
        <time>2022-02-17T09:41:05Z</time>
      </trkpt>
      <trkpt lat="47.667072" lon="2.1433258">
        <ele>182.0</ele>
        <time>2022-02-17T09:41:06Z</time>
      </trkpt>
      <trkpt lat="47.667065" lon="2.1433308">
        <ele>182.0</ele>
        <time>2022-02-17T09:41:07Z</time>
      </trkpt>
      <trkpt lat="47.667053" lon="2.1433358">
        <ele>182.0</ele>
        <time>2022-02-17T09:41:08Z</time>
      </trkpt>
      <trkpt lat="47.667046" lon="2.1433387">
        <ele>182.0</ele>
        <time>2022-02-17T09:41:09Z</time>
      </trkpt>
      <trkpt lat="47.667034" lon="2.143342">
        <ele>182.0</ele>
        <time>2022-02-17T09:41:10Z</time>
      </trkpt>
      <trkpt lat="47.667027" lon="2.143352">
        <ele>181.0</ele>
        <time>2022-02-17T09:41:11Z</time>
      </trkpt>
      <trkpt lat="47.667015" lon="2.1433609">
        <ele>181.0</ele>
        <time>2022-02-17T09:41:12Z</time>
      </trkpt>
      <trkpt lat="47.667007" lon="2.14337">
        <ele>180.0</ele>
        <time>2022-02-17T09:41:13Z</time>
      </trkpt>
      <trkpt lat="47.666996" lon="2.143377">
        <ele>180.0</ele>
        <time>2022-02-17T09:41:14Z</time>
      </trkpt>
      <trkpt lat="47.66699" lon="2.1433935">
        <ele>180.0</ele>
        <time>2022-02-17T09:41:15Z</time>
      </trkpt>
      <trkpt lat="47.666977" lon="2.1434097">
        <ele>180.0</ele>
        <time>2022-02-17T09:41:16Z</time>
      </trkpt>
      <trkpt lat="47.666965" lon="2.1434247">
        <ele>180.0</ele>
        <time>2022-02-17T09:41:17Z</time>
      </trkpt>
      <trkpt lat="47.666954" lon="2.1434367">
        <ele>180.0</ele>
        <time>2022-02-17T09:41:18Z</time>
      </trkpt>
      <trkpt lat="47.666946" lon="2.1434493">
        <ele>180.0</ele>
        <time>2022-02-17T09:41:19Z</time>
      </trkpt>
      <trkpt lat="47.666935" lon="2.1434586">
        <ele>180.0</ele>
        <time>2022-02-17T09:41:20Z</time>
      </trkpt>
      <trkpt lat="47.66692" lon="2.1434662">
        <ele>180.0</ele>
        <time>2022-02-17T09:41:21Z</time>
      </trkpt>
      <trkpt lat="47.66691" lon="2.1434734">
        <ele>180.0</ele>
        <time>2022-02-17T09:41:22Z</time>
      </trkpt>
      <trkpt lat="47.666904" lon="2.14348">
        <ele>180.0</ele>
        <time>2022-02-17T09:41:23Z</time>
      </trkpt>
      <trkpt lat="47.666897" lon="2.1434858">
        <ele>180.0</ele>
        <time>2022-02-17T09:41:24Z</time>
      </trkpt>
      <trkpt lat="47.666885" lon="2.1434908">
        <ele>180.0</ele>
        <time>2022-02-17T09:41:25Z</time>
      </trkpt>
      <trkpt lat="47.666874" lon="2.1435">
        <ele>180.0</ele>
        <time>2022-02-17T09:41:26Z</time>
      </trkpt>
      <trkpt lat="47.666862" lon="2.1435084">
        <ele>180.0</ele>
        <time>2022-02-17T09:41:27Z</time>
      </trkpt>
      <trkpt lat="47.66685" lon="2.1435168">
        <ele>181.0</ele>
        <time>2022-02-17T09:41:28Z</time>
      </trkpt>
      <trkpt lat="47.666843" lon="2.1435199">
        <ele>181.0</ele>
        <time>2022-02-17T09:41:29Z</time>
      </trkpt>
      <trkpt lat="47.666836" lon="2.1435218">
        <ele>181.0</ele>
        <time>2022-02-17T09:41:30Z</time>
      </trkpt>
      <trkpt lat="47.66683" lon="2.1435275">
        <ele>181.0</ele>
        <time>2022-02-17T09:41:31Z</time>
      </trkpt>
      <trkpt lat="47.666817" lon="2.1435368">
        <ele>181.0</ele>
        <time>2022-02-17T09:41:32Z</time>
      </trkpt>
      <trkpt lat="47.66681" lon="2.143549">
        <ele>181.0</ele>
        <time>2022-02-17T09:41:33Z</time>
      </trkpt>
      <trkpt lat="47.6668" lon="2.1435585">
        <ele>181.0</ele>
        <time>2022-02-17T09:41:34Z</time>
      </trkpt>
      <trkpt lat="47.66679" lon="2.1435673">
        <ele>181.0</ele>
        <time>2022-02-17T09:41:35Z</time>
      </trkpt>
      <trkpt lat="47.666782" lon="2.143575">
        <ele>181.0</ele>
        <time>2022-02-17T09:41:36Z</time>
      </trkpt>
      <trkpt lat="47.666775" lon="2.1435862">
        <ele>181.0</ele>
        <time>2022-02-17T09:41:37Z</time>
      </trkpt>
      <trkpt lat="47.666763" lon="2.143597">
        <ele>181.0</ele>
        <time>2022-02-17T09:41:38Z</time>
      </trkpt>
      <trkpt lat="47.666756" lon="2.1436057">
        <ele>181.0</ele>
        <time>2022-02-17T09:41:39Z</time>
      </trkpt>
      <trkpt lat="47.666748" lon="2.1436152">
        <ele>181.0</ele>
        <time>2022-02-17T09:41:40Z</time>
      </trkpt>
      <trkpt lat="47.66674" lon="2.1436286">
        <ele>181.0</ele>
        <time>2022-02-17T09:41:41Z</time>
      </trkpt>
      <trkpt lat="47.66673" lon="2.143644">
        <ele>181.0</ele>
        <time>2022-02-17T09:41:42Z</time>
      </trkpt>
      <trkpt lat="47.666718" lon="2.1436558">
        <ele>181.0</ele>
        <time>2022-02-17T09:41:43Z</time>
      </trkpt>
      <trkpt lat="47.66671" lon="2.1436687">
        <ele>181.0</ele>
        <time>2022-02-17T09:41:44Z</time>
      </trkpt>
      <trkpt lat="47.666702" lon="2.1436794">
        <ele>181.0</ele>
        <time>2022-02-17T09:41:45Z</time>
      </trkpt>
      <trkpt lat="47.66669" lon="2.1436903">
        <ele>180.0</ele>
        <time>2022-02-17T09:41:46Z</time>
      </trkpt>
      <trkpt lat="47.666683" lon="2.1437016">
        <ele>180.0</ele>
        <time>2022-02-17T09:41:47Z</time>
      </trkpt>
      <trkpt lat="47.66667" lon="2.1437118">
        <ele>180.0</ele>
        <time>2022-02-17T09:41:48Z</time>
      </trkpt>
      <trkpt lat="47.666664" lon="2.143723">
        <ele>180.0</ele>
        <time>2022-02-17T09:41:49Z</time>
      </trkpt>
      <trkpt lat="47.666656" lon="2.14373">
        <ele>180.0</ele>
        <time>2022-02-17T09:41:50Z</time>
      </trkpt>
      <trkpt lat="47.66665" lon="2.143741">
        <ele>180.0</ele>
        <time>2022-02-17T09:41:51Z</time>
      </trkpt>
      <trkpt lat="47.666634" lon="2.143748">
        <ele>180.0</ele>
        <time>2022-02-17T09:41:52Z</time>
      </trkpt>
      <trkpt lat="47.666626" lon="2.1437542">
        <ele>179.0</ele>
        <time>2022-02-17T09:41:53Z</time>
      </trkpt>
      <trkpt lat="47.66661" lon="2.14376">
        <ele>179.0</ele>
        <time>2022-02-17T09:41:54Z</time>
      </trkpt>
      <trkpt lat="47.6666" lon="2.1437697">
        <ele>179.0</ele>
        <time>2022-02-17T09:41:55Z</time>
      </trkpt>
      <trkpt lat="47.666584" lon="2.143777">
        <ele>179.0</ele>
        <time>2022-02-17T09:41:56Z</time>
      </trkpt>
      <trkpt lat="47.666573" lon="2.1437845">
        <ele>179.0</ele>
        <time>2022-02-17T09:41:57Z</time>
      </trkpt>
      <trkpt lat="47.66657" lon="2.1437929">
        <ele>179.0</ele>
        <time>2022-02-17T09:41:58Z</time>
      </trkpt>
      <trkpt lat="47.66657" lon="2.1437929">
        <ele>179.0</ele>
        <time>2022-02-17T09:41:59Z</time>
      </trkpt>
      <trkpt lat="47.66657" lon="2.1437929">
        <ele>179.0</ele>
        <time>2022-02-17T09:42:00Z</time>
      </trkpt>
      <trkpt lat="47.666542" lon="2.1438036">
        <ele>180.0</ele>
        <time>2022-02-17T09:42:01Z</time>
      </trkpt>
      <trkpt lat="47.66653" lon="2.1438107">
        <ele>180.0</ele>
        <time>2022-02-17T09:42:02Z</time>
      </trkpt>
      <trkpt lat="47.666523" lon="2.1438165">
        <ele>180.0</ele>
        <time>2022-02-17T09:42:03Z</time>
      </trkpt>
      <trkpt lat="47.66652" lon="2.1438186">
        <ele>180.0</ele>
        <time>2022-02-17T09:42:04Z</time>
      </trkpt>
      <trkpt lat="47.66651" lon="2.1438222">
        <ele>179.0</ele>
        <time>2022-02-17T09:42:05Z</time>
      </trkpt>
      <trkpt lat="47.66651" lon="2.1438222">
        <ele>179.0</ele>
        <time>2022-02-17T09:42:06Z</time>
      </trkpt>
      <trkpt lat="47.666496" lon="2.1438322">
        <ele>179.0</ele>
        <time>2022-02-17T09:42:07Z</time>
      </trkpt>
      <trkpt lat="47.666485" lon="2.1438296">
        <ele>179.0</ele>
        <time>2022-02-17T09:42:08Z</time>
      </trkpt>
      <trkpt lat="47.666473" lon="2.1438286">
        <ele>179.0</ele>
        <time>2022-02-17T09:42:09Z</time>
      </trkpt>
      <trkpt lat="47.666466" lon="2.1438334">
        <ele>179.0</ele>
        <time>2022-02-17T09:42:10Z</time>
      </trkpt>
      <trkpt lat="47.666466" lon="2.1438334">
        <ele>179.0</ele>
        <time>2022-02-17T09:42:11Z</time>
      </trkpt>
      <trkpt lat="47.666447" lon="2.1438408">
        <ele>179.0</ele>
        <time>2022-02-17T09:42:12Z</time>
      </trkpt>
      <trkpt lat="47.666435" lon="2.1438484">
        <ele>179.0</ele>
        <time>2022-02-17T09:42:13Z</time>
      </trkpt>
      <trkpt lat="47.666424" lon="2.143859">
        <ele>179.0</ele>
        <time>2022-02-17T09:42:14Z</time>
      </trkpt>
      <trkpt lat="47.666412" lon="2.143867">
        <ele>180.0</ele>
        <time>2022-02-17T09:42:15Z</time>
      </trkpt>
      <trkpt lat="47.6664" lon="2.1438704">
        <ele>180.0</ele>
        <time>2022-02-17T09:42:16Z</time>
      </trkpt>
      <trkpt lat="47.66639" lon="2.1438758">
        <ele>180.0</ele>
        <time>2022-02-17T09:42:17Z</time>
      </trkpt>
      <trkpt lat="47.66639" lon="2.1438758">
        <ele>180.0</ele>
        <time>2022-02-17T09:42:18Z</time>
      </trkpt>
      <trkpt lat="47.666374" lon="2.1438854">
        <ele>180.0</ele>
        <time>2022-02-17T09:42:19Z</time>
      </trkpt>
      <trkpt lat="47.666363" lon="2.1438885">
        <ele>180.0</ele>
        <time>2022-02-17T09:42:20Z</time>
      </trkpt>
      <trkpt lat="47.666348" lon="2.1438932">
        <ele>180.0</ele>
        <time>2022-02-17T09:42:21Z</time>
      </trkpt>
      <trkpt lat="47.666336" lon="2.1438994">
        <ele>180.0</ele>
        <time>2022-02-17T09:42:22Z</time>
      </trkpt>
      <trkpt lat="47.666325" lon="2.1439092">
        <ele>180.0</ele>
        <time>2022-02-17T09:42:23Z</time>
      </trkpt>
      <trkpt lat="47.666313" lon="2.1439161">
        <ele>180.0</ele>
        <time>2022-02-17T09:42:24Z</time>
      </trkpt>
      <trkpt lat="47.6663" lon="2.1439238">
        <ele>180.0</ele>
        <time>2022-02-17T09:42:25Z</time>
      </trkpt>
      <trkpt lat="47.666286" lon="2.1439414">
        <ele>179.0</ele>
        <time>2022-02-17T09:42:26Z</time>
      </trkpt>
      <trkpt lat="47.666275" lon="2.1439495">
        <ele>179.0</ele>
        <time>2022-02-17T09:42:27Z</time>
      </trkpt>
      <trkpt lat="47.666275" lon="2.1439495">
        <ele>179.0</ele>
        <time>2022-02-17T09:42:28Z</time>
      </trkpt>
      <trkpt lat="47.66626" lon="2.1439567">
        <ele>179.0</ele>
        <time>2022-02-17T09:42:29Z</time>
      </trkpt>
      <trkpt lat="47.666245" lon="2.1439617">
        <ele>179.0</ele>
        <time>2022-02-17T09:42:30Z</time>
      </trkpt>
      <trkpt lat="47.666237" lon="2.143962">
        <ele>179.0</ele>
        <time>2022-02-17T09:42:31Z</time>
      </trkpt>
      <trkpt lat="47.666225" lon="2.1439679">
        <ele>179.0</ele>
        <time>2022-02-17T09:42:32Z</time>
      </trkpt>
      <trkpt lat="47.666218" lon="2.1439712">
        <ele>179.0</ele>
        <time>2022-02-17T09:42:33Z</time>
      </trkpt>
      <trkpt lat="47.666218" lon="2.1439712">
        <ele>179.0</ele>
        <time>2022-02-17T09:42:34Z</time>
      </trkpt>
      <trkpt lat="47.666218" lon="2.1439712">
        <ele>179.0</ele>
        <time>2022-02-17T09:42:35Z</time>
      </trkpt>
      <trkpt lat="47.6662" lon="2.1439917">
        <ele>179.0</ele>
        <time>2022-02-17T09:42:36Z</time>
      </trkpt>
      <trkpt lat="47.66619" lon="2.1439927">
        <ele>180.0</ele>
        <time>2022-02-17T09:42:37Z</time>
      </trkpt>
      <trkpt lat="47.666183" lon="2.1439939">
        <ele>180.0</ele>
        <time>2022-02-17T09:42:38Z</time>
      </trkpt>
      <trkpt lat="47.666176" lon="2.1440012">
        <ele>179.0</ele>
        <time>2022-02-17T09:42:39Z</time>
      </trkpt>
      <trkpt lat="47.66617" lon="2.144008">
        <ele>179.0</ele>
        <time>2022-02-17T09:42:40Z</time>
      </trkpt>
      <trkpt lat="47.666164" lon="2.1440172">
        <ele>179.0</ele>
        <time>2022-02-17T09:42:41Z</time>
      </trkpt>
      <trkpt lat="47.666164" lon="2.1440172">
        <ele>179.0</ele>
        <time>2022-02-17T09:42:42Z</time>
      </trkpt>
      <trkpt lat="47.666164" lon="2.1440172">
        <ele>179.0</ele>
        <time>2022-02-17T09:42:43Z</time>
      </trkpt>
      <trkpt lat="47.666145" lon="2.1440365">
        <ele>179.0</ele>
        <time>2022-02-17T09:42:44Z</time>
      </trkpt>
      <trkpt lat="47.666145" lon="2.1440363">
        <ele>179.0</ele>
        <time>2022-02-17T09:42:45Z</time>
      </trkpt>
      <trkpt lat="47.666138" lon="2.144042">
        <ele>179.0</ele>
        <time>2022-02-17T09:42:46Z</time>
      </trkpt>
      <trkpt lat="47.66613" lon="2.1440494">
        <ele>178.0</ele>
        <time>2022-02-17T09:42:47Z</time>
      </trkpt>
      <trkpt lat="47.66612" lon="2.144063">
        <ele>178.0</ele>
        <time>2022-02-17T09:42:48Z</time>
      </trkpt>
      <trkpt lat="47.666107" lon="2.1440737">
        <ele>178.0</ele>
        <time>2022-02-17T09:42:49Z</time>
      </trkpt>
      <trkpt lat="47.666096" lon="2.1440818">
        <ele>179.0</ele>
        <time>2022-02-17T09:42:50Z</time>
      </trkpt>
      <trkpt lat="47.666092" lon="2.1440864">
        <ele>179.0</ele>
        <time>2022-02-17T09:42:51Z</time>
      </trkpt>
      <trkpt lat="47.66608" lon="2.1440945">
        <ele>179.0</ele>
        <time>2022-02-17T09:42:52Z</time>
      </trkpt>
      <trkpt lat="47.66607" lon="2.1441016">
        <ele>179.0</ele>
        <time>2022-02-17T09:42:53Z</time>
      </trkpt>
      <trkpt lat="47.66607" lon="2.1441016">
        <ele>179.0</ele>
        <time>2022-02-17T09:42:54Z</time>
      </trkpt>
      <trkpt lat="47.666042" lon="2.1441104">
        <ele>179.0</ele>
        <time>2022-02-17T09:42:55Z</time>
      </trkpt>
      <trkpt lat="47.666023" lon="2.1441169">
        <ele>179.0</ele>
        <time>2022-02-17T09:42:56Z</time>
      </trkpt>
      <trkpt lat="47.666016" lon="2.1441267">
        <ele>178.0</ele>
        <time>2022-02-17T09:42:57Z</time>
      </trkpt>
      <trkpt lat="47.666004" lon="2.1441374">
        <ele>178.0</ele>
        <time>2022-02-17T09:42:58Z</time>
      </trkpt>
      <trkpt lat="47.66599" lon="2.1441445">
        <ele>178.0</ele>
        <time>2022-02-17T09:42:59Z</time>
      </trkpt>
      <trkpt lat="47.665977" lon="2.144152">
        <ele>178.0</ele>
        <time>2022-02-17T09:43:00Z</time>
      </trkpt>
      <trkpt lat="47.665966" lon="2.1441612">
        <ele>178.0</ele>
        <time>2022-02-17T09:43:01Z</time>
      </trkpt>
      <trkpt lat="47.66595" lon="2.1441734">
        <ele>178.0</ele>
        <time>2022-02-17T09:43:02Z</time>
      </trkpt>
      <trkpt lat="47.665936" lon="2.1441855">
        <ele>177.0</ele>
        <time>2022-02-17T09:43:03Z</time>
      </trkpt>
      <trkpt lat="47.66592" lon="2.1441922">
        <ele>177.0</ele>
        <time>2022-02-17T09:43:04Z</time>
      </trkpt>
      <trkpt lat="47.66591" lon="2.1441903">
        <ele>177.0</ele>
        <time>2022-02-17T09:43:05Z</time>
      </trkpt>
      <trkpt lat="47.665897" lon="2.1441925">
        <ele>177.0</ele>
        <time>2022-02-17T09:43:06Z</time>
      </trkpt>
      <trkpt lat="47.665882" lon="2.144191">
        <ele>177.0</ele>
        <time>2022-02-17T09:43:07Z</time>
      </trkpt>
      <trkpt lat="47.665863" lon="2.1441936">
        <ele>177.0</ele>
        <time>2022-02-17T09:43:08Z</time>
      </trkpt>
      <trkpt lat="47.665855" lon="2.1441972">
        <ele>178.0</ele>
        <time>2022-02-17T09:43:09Z</time>
      </trkpt>
      <trkpt lat="47.66584" lon="2.1441972">
        <ele>178.0</ele>
        <time>2022-02-17T09:43:10Z</time>
      </trkpt>
      <trkpt lat="47.66583" lon="2.144199">
        <ele>178.0</ele>
        <time>2022-02-17T09:43:11Z</time>
      </trkpt>
      <trkpt lat="47.665817" lon="2.1441982">
        <ele>178.0</ele>
        <time>2022-02-17T09:43:12Z</time>
      </trkpt>
      <trkpt lat="47.665806" lon="2.1441972">
        <ele>178.0</ele>
        <time>2022-02-17T09:43:13Z</time>
      </trkpt>
      <trkpt lat="47.6658" lon="2.1441965">
        <ele>178.0</ele>
        <time>2022-02-17T09:43:14Z</time>
      </trkpt>
      <trkpt lat="47.665787" lon="2.1441967">
        <ele>178.0</ele>
        <time>2022-02-17T09:43:15Z</time>
      </trkpt>
      <trkpt lat="47.66578" lon="2.1441932">
        <ele>178.0</ele>
        <time>2022-02-17T09:43:16Z</time>
      </trkpt>
      <trkpt lat="47.66577" lon="2.144186">
        <ele>178.0</ele>
        <time>2022-02-17T09:43:17Z</time>
      </trkpt>
      <trkpt lat="47.66576" lon="2.144183">
        <ele>178.0</ele>
        <time>2022-02-17T09:43:18Z</time>
      </trkpt>
      <trkpt lat="47.66575" lon="2.1441832">
        <ele>178.0</ele>
        <time>2022-02-17T09:43:19Z</time>
      </trkpt>
      <trkpt lat="47.665733" lon="2.1441875">
        <ele>178.0</ele>
        <time>2022-02-17T09:43:20Z</time>
      </trkpt>
      <trkpt lat="47.665718" lon="2.1441867">
        <ele>178.0</ele>
        <time>2022-02-17T09:43:21Z</time>
      </trkpt>
      <trkpt lat="47.665707" lon="2.1441834">
        <ele>178.0</ele>
        <time>2022-02-17T09:43:22Z</time>
      </trkpt>
      <trkpt lat="47.665695" lon="2.1441793">
        <ele>177.0</ele>
        <time>2022-02-17T09:43:23Z</time>
      </trkpt>
      <trkpt lat="47.665684" lon="2.1441748">
        <ele>177.0</ele>
        <time>2022-02-17T09:43:24Z</time>
      </trkpt>
      <trkpt lat="47.66567" lon="2.1441727">
        <ele>177.0</ele>
        <time>2022-02-17T09:43:25Z</time>
      </trkpt>
      <trkpt lat="47.665657" lon="2.1441686">
        <ele>177.0</ele>
        <time>2022-02-17T09:43:26Z</time>
      </trkpt>
      <trkpt lat="47.66564" lon="2.1441693">
        <ele>177.0</ele>
        <time>2022-02-17T09:43:27Z</time>
      </trkpt>
      <trkpt lat="47.665627" lon="2.144167">
        <ele>178.0</ele>
        <time>2022-02-17T09:43:28Z</time>
      </trkpt>
      <trkpt lat="47.665615" lon="2.144168">
        <ele>178.0</ele>
        <time>2022-02-17T09:43:29Z</time>
      </trkpt>
      <trkpt lat="47.665604" lon="2.144169">
        <ele>179.0</ele>
        <time>2022-02-17T09:43:30Z</time>
      </trkpt>
      <trkpt lat="47.665592" lon="2.1441658">
        <ele>179.0</ele>
        <time>2022-02-17T09:43:31Z</time>
      </trkpt>
      <trkpt lat="47.665577" lon="2.144165">
        <ele>179.0</ele>
        <time>2022-02-17T09:43:32Z</time>
      </trkpt>
      <trkpt lat="47.665565" lon="2.144164">
        <ele>179.0</ele>
        <time>2022-02-17T09:43:33Z</time>
      </trkpt>
      <trkpt lat="47.66555" lon="2.1441598">
        <ele>179.0</ele>
        <time>2022-02-17T09:43:34Z</time>
      </trkpt>
      <trkpt lat="47.665535" lon="2.144153">
        <ele>179.0</ele>
        <time>2022-02-17T09:43:35Z</time>
      </trkpt>
      <trkpt lat="47.665524" lon="2.1441493">
        <ele>178.0</ele>
        <time>2022-02-17T09:43:36Z</time>
      </trkpt>
      <trkpt lat="47.665512" lon="2.1441472">
        <ele>178.0</ele>
        <time>2022-02-17T09:43:37Z</time>
      </trkpt>
      <trkpt lat="47.6655" lon="2.1441426">
        <ele>178.0</ele>
        <time>2022-02-17T09:43:38Z</time>
      </trkpt>
      <trkpt lat="47.665485" lon="2.1441424">
        <ele>178.0</ele>
        <time>2022-02-17T09:43:39Z</time>
      </trkpt>
      <trkpt lat="47.66547" lon="2.1441357">
        <ele>178.0</ele>
        <time>2022-02-17T09:43:40Z</time>
      </trkpt>
      <trkpt lat="47.66546" lon="2.1441367">
        <ele>178.0</ele>
        <time>2022-02-17T09:43:41Z</time>
      </trkpt>
      <trkpt lat="47.66545" lon="2.144129">
        <ele>178.0</ele>
        <time>2022-02-17T09:43:42Z</time>
      </trkpt>
      <trkpt lat="47.665447" lon="2.1441207">
        <ele>179.0</ele>
        <time>2022-02-17T09:43:43Z</time>
      </trkpt>
      <trkpt lat="47.665447" lon="2.1441207">
        <ele>179.0</ele>
        <time>2022-02-17T09:43:44Z</time>
      </trkpt>
      <trkpt lat="47.665447" lon="2.144121">
        <ele>179.0</ele>
        <time>2022-02-17T09:43:45Z</time>
      </trkpt>
      <trkpt lat="47.665447" lon="2.144121">
        <ele>179.0</ele>
        <time>2022-02-17T09:43:46Z</time>
      </trkpt>
      <trkpt lat="47.665447" lon="2.144121">
        <ele>179.0</ele>
        <time>2022-02-17T09:43:46Z</time>
      </trkpt>
      <trkpt lat="47.665447" lon="2.144121">
        <ele>179.0</ele>
        <time>2022-02-17T09:43:46Z</time>
      </trkpt>
      <trkpt lat="47.66534" lon="2.1442237">
        <ele>183.0</ele>
        <time>2022-02-17T09:44:03Z</time>
      </trkpt>
      <trkpt lat="47.665333" lon="2.1442404">
        <ele>183.0</ele>
        <time>2022-02-17T09:44:04Z</time>
      </trkpt>
      <trkpt lat="47.66532" lon="2.1442525">
        <ele>183.0</ele>
        <time>2022-02-17T09:44:05Z</time>
      </trkpt>
      <trkpt lat="47.66531" lon="2.1442614">
        <ele>183.0</ele>
        <time>2022-02-17T09:44:06Z</time>
      </trkpt>
      <trkpt lat="47.6653" lon="2.1442742">
        <ele>183.0</ele>
        <time>2022-02-17T09:44:07Z</time>
      </trkpt>
      <trkpt lat="47.665287" lon="2.1442816">
        <ele>183.0</ele>
        <time>2022-02-17T09:44:08Z</time>
      </trkpt>
      <trkpt lat="47.665276" lon="2.1442907">
        <ele>184.0</ele>
        <time>2022-02-17T09:44:09Z</time>
      </trkpt>
      <trkpt lat="47.665276" lon="2.1442907">
        <ele>184.0</ele>
        <time>2022-02-17T09:44:10Z</time>
      </trkpt>
      <trkpt lat="47.665257" lon="2.1442976">
        <ele>184.0</ele>
        <time>2022-02-17T09:44:11Z</time>
      </trkpt>
      <trkpt lat="47.665245" lon="2.144305">
        <ele>184.0</ele>
        <time>2022-02-17T09:44:12Z</time>
      </trkpt>
      <trkpt lat="47.665234" lon="2.1443055">
        <ele>184.0</ele>
        <time>2022-02-17T09:44:13Z</time>
      </trkpt>
      <trkpt lat="47.66522" lon="2.1443112">
        <ele>184.0</ele>
        <time>2022-02-17T09:44:14Z</time>
      </trkpt>
      <trkpt lat="47.665203" lon="2.1443202">
        <ele>184.0</ele>
        <time>2022-02-17T09:44:15Z</time>
      </trkpt>
      <trkpt lat="47.665188" lon="2.144324">
        <ele>184.0</ele>
        <time>2022-02-17T09:44:16Z</time>
      </trkpt>
      <trkpt lat="47.665176" lon="2.1443276">
        <ele>184.0</ele>
        <time>2022-02-17T09:44:17Z</time>
      </trkpt>
      <trkpt lat="47.665165" lon="2.1443286">
        <ele>184.0</ele>
        <time>2022-02-17T09:44:18Z</time>
      </trkpt>
      <trkpt lat="47.665154" lon="2.1443272">
        <ele>185.0</ele>
        <time>2022-02-17T09:44:19Z</time>
      </trkpt>
      <trkpt lat="47.665142" lon="2.1443298">
        <ele>185.0</ele>
        <time>2022-02-17T09:44:20Z</time>
      </trkpt>
      <trkpt lat="47.665134" lon="2.1443303">
        <ele>185.0</ele>
        <time>2022-02-17T09:44:21Z</time>
      </trkpt>
      <trkpt lat="47.665123" lon="2.1443334">
        <ele>185.0</ele>
        <time>2022-02-17T09:44:22Z</time>
      </trkpt>
      <trkpt lat="47.665108" lon="2.1443355">
        <ele>185.0</ele>
        <time>2022-02-17T09:44:23Z</time>
      </trkpt>
      <trkpt lat="47.665096" lon="2.1443398">
        <ele>185.0</ele>
        <time>2022-02-17T09:44:24Z</time>
      </trkpt>
      <trkpt lat="47.66508" lon="2.1443393">
        <ele>185.0</ele>
        <time>2022-02-17T09:44:25Z</time>
      </trkpt>
      <trkpt lat="47.66507" lon="2.144335">
        <ele>185.0</ele>
        <time>2022-02-17T09:44:26Z</time>
      </trkpt>
      <trkpt lat="47.66506" lon="2.1443353">
        <ele>185.0</ele>
        <time>2022-02-17T09:44:27Z</time>
      </trkpt>
      <trkpt lat="47.66505" lon="2.1443367">
        <ele>185.0</ele>
        <time>2022-02-17T09:44:28Z</time>
      </trkpt>
      <trkpt lat="47.66504" lon="2.1443346">
        <ele>185.0</ele>
        <time>2022-02-17T09:44:29Z</time>
      </trkpt>
      <trkpt lat="47.665028" lon="2.1443343">
        <ele>185.0</ele>
        <time>2022-02-17T09:44:30Z</time>
      </trkpt>
      <trkpt lat="47.665016" lon="2.1443343">
        <ele>185.0</ele>
        <time>2022-02-17T09:44:31Z</time>
      </trkpt>
      <trkpt lat="47.665005" lon="2.144329">
        <ele>185.0</ele>
        <time>2022-02-17T09:44:32Z</time>
      </trkpt>
      <trkpt lat="47.66499" lon="2.1443233">
        <ele>186.0</ele>
        <time>2022-02-17T09:44:33Z</time>
      </trkpt>
      <trkpt lat="47.664978" lon="2.1443167">
        <ele>186.0</ele>
        <time>2022-02-17T09:44:34Z</time>
      </trkpt>
      <trkpt lat="47.664967" lon="2.1443098">
        <ele>186.0</ele>
        <time>2022-02-17T09:44:35Z</time>
      </trkpt>
      <trkpt lat="47.66495" lon="2.1443055">
        <ele>186.0</ele>
        <time>2022-02-17T09:44:36Z</time>
      </trkpt>
      <trkpt lat="47.66494" lon="2.144304">
        <ele>186.0</ele>
        <time>2022-02-17T09:44:37Z</time>
      </trkpt>
      <trkpt lat="47.664925" lon="2.1443002">
        <ele>186.0</ele>
        <time>2022-02-17T09:44:38Z</time>
      </trkpt>
      <trkpt lat="47.664913" lon="2.144294">
        <ele>186.0</ele>
        <time>2022-02-17T09:44:39Z</time>
      </trkpt>
      <trkpt lat="47.6649" lon="2.144293">
        <ele>187.0</ele>
        <time>2022-02-17T09:44:40Z</time>
      </trkpt>
      <trkpt lat="47.66489" lon="2.1442897">
        <ele>187.0</ele>
        <time>2022-02-17T09:44:41Z</time>
      </trkpt>
      <trkpt lat="47.66488" lon="2.1442907">
        <ele>187.0</ele>
        <time>2022-02-17T09:44:42Z</time>
      </trkpt>
      <trkpt lat="47.664864" lon="2.144288">
        <ele>187.0</ele>
        <time>2022-02-17T09:44:43Z</time>
      </trkpt>
      <trkpt lat="47.664852" lon="2.1442862">
        <ele>187.0</ele>
        <time>2022-02-17T09:44:44Z</time>
      </trkpt>
      <trkpt lat="47.664837" lon="2.1442823">
        <ele>188.0</ele>
        <time>2022-02-17T09:44:45Z</time>
      </trkpt>
      <trkpt lat="47.66483" lon="2.1442797">
        <ele>188.0</ele>
        <time>2022-02-17T09:44:46Z</time>
      </trkpt>
      <trkpt lat="47.664818" lon="2.1442785">
        <ele>188.0</ele>
        <time>2022-02-17T09:44:47Z</time>
      </trkpt>
      <trkpt lat="47.664806" lon="2.1442745">
        <ele>188.0</ele>
        <time>2022-02-17T09:44:48Z</time>
      </trkpt>
      <trkpt lat="47.664795" lon="2.1442692">
        <ele>188.0</ele>
        <time>2022-02-17T09:44:49Z</time>
      </trkpt>
      <trkpt lat="47.664783" lon="2.1442661">
        <ele>188.0</ele>
        <time>2022-02-17T09:44:50Z</time>
      </trkpt>
      <trkpt lat="47.664772" lon="2.144261">
        <ele>188.0</ele>
        <time>2022-02-17T09:44:51Z</time>
      </trkpt>
      <trkpt lat="47.664764" lon="2.1442602">
        <ele>188.0</ele>
        <time>2022-02-17T09:44:52Z</time>
      </trkpt>
      <trkpt lat="47.664753" lon="2.1442573">
        <ele>189.0</ele>
        <time>2022-02-17T09:44:53Z</time>
      </trkpt>
      <trkpt lat="47.66474" lon="2.1442566">
        <ele>189.0</ele>
        <time>2022-02-17T09:44:54Z</time>
      </trkpt>
      <trkpt lat="47.664734" lon="2.1442513">
        <ele>189.0</ele>
        <time>2022-02-17T09:44:55Z</time>
      </trkpt>
      <trkpt lat="47.66472" lon="2.144249">
        <ele>189.0</ele>
        <time>2022-02-17T09:44:56Z</time>
      </trkpt>
      <trkpt lat="47.664707" lon="2.1442454">
        <ele>189.0</ele>
        <time>2022-02-17T09:44:57Z</time>
      </trkpt>
      <trkpt lat="47.664692" lon="2.1442406">
        <ele>190.0</ele>
        <time>2022-02-17T09:44:58Z</time>
      </trkpt>
      <trkpt lat="47.66468" lon="2.144236">
        <ele>190.0</ele>
        <time>2022-02-17T09:44:59Z</time>
      </trkpt>
      <trkpt lat="47.66467" lon="2.1442316">
        <ele>190.0</ele>
        <time>2022-02-17T09:45:00Z</time>
      </trkpt>
      <trkpt lat="47.664658" lon="2.1442287">
        <ele>190.0</ele>
        <time>2022-02-17T09:45:01Z</time>
      </trkpt>
      <trkpt lat="47.664642" lon="2.1442218">
        <ele>190.0</ele>
        <time>2022-02-17T09:45:02Z</time>
      </trkpt>
      <trkpt lat="47.664627" lon="2.1442208">
        <ele>190.0</ele>
        <time>2022-02-17T09:45:03Z</time>
      </trkpt>
      <trkpt lat="47.66461" lon="2.1442215">
        <ele>190.0</ele>
        <time>2022-02-17T09:45:04Z</time>
      </trkpt>
      <trkpt lat="47.6646" lon="2.1442227">
        <ele>189.0</ele>
        <time>2022-02-17T09:45:05Z</time>
      </trkpt>
      <trkpt lat="47.664593" lon="2.1442187">
        <ele>189.0</ele>
        <time>2022-02-17T09:45:06Z</time>
      </trkpt>
      <trkpt lat="47.66458" lon="2.1442156">
        <ele>189.0</ele>
        <time>2022-02-17T09:45:07Z</time>
      </trkpt>
      <trkpt lat="47.66457" lon="2.1442127">
        <ele>189.0</ele>
        <time>2022-02-17T09:45:08Z</time>
      </trkpt>
      <trkpt lat="47.664562" lon="2.1442118">
        <ele>189.0</ele>
        <time>2022-02-17T09:45:09Z</time>
      </trkpt>
      <trkpt lat="47.664547" lon="2.1442087">
        <ele>189.0</ele>
        <time>2022-02-17T09:45:10Z</time>
      </trkpt>
      <trkpt lat="47.664536" lon="2.144208">
        <ele>190.0</ele>
        <time>2022-02-17T09:45:11Z</time>
      </trkpt>
      <trkpt lat="47.664524" lon="2.144204">
        <ele>189.0</ele>
        <time>2022-02-17T09:45:12Z</time>
      </trkpt>
      <trkpt lat="47.66451" lon="2.1442013">
        <ele>189.0</ele>
        <time>2022-02-17T09:45:13Z</time>
      </trkpt>
      <trkpt lat="47.664497" lon="2.1441994">
        <ele>189.0</ele>
        <time>2022-02-17T09:45:14Z</time>
      </trkpt>
      <trkpt lat="47.664482" lon="2.1441956">
        <ele>189.0</ele>
        <time>2022-02-17T09:45:15Z</time>
      </trkpt>
      <trkpt lat="47.66447" lon="2.1441927">
        <ele>189.0</ele>
        <time>2022-02-17T09:45:16Z</time>
      </trkpt>
      <trkpt lat="47.66446" lon="2.1441944">
        <ele>188.0</ele>
        <time>2022-02-17T09:45:17Z</time>
      </trkpt>
      <trkpt lat="47.664444" lon="2.1441898">
        <ele>188.0</ele>
        <time>2022-02-17T09:45:18Z</time>
      </trkpt>
      <trkpt lat="47.664433" lon="2.1441853">
        <ele>188.0</ele>
        <time>2022-02-17T09:45:19Z</time>
      </trkpt>
      <trkpt lat="47.66442" lon="2.1441848">
        <ele>188.0</ele>
        <time>2022-02-17T09:45:20Z</time>
      </trkpt>
      <trkpt lat="47.66441" lon="2.1441824">
        <ele>188.0</ele>
        <time>2022-02-17T09:45:21Z</time>
      </trkpt>
      <trkpt lat="47.6644" lon="2.1441765">
        <ele>188.0</ele>
        <time>2022-02-17T09:45:22Z</time>
      </trkpt>
      <trkpt lat="47.664387" lon="2.1441703">
        <ele>188.0</ele>
        <time>2022-02-17T09:45:23Z</time>
      </trkpt>
      <trkpt lat="47.66438" lon="2.1441658">
        <ele>188.0</ele>
        <time>2022-02-17T09:45:24Z</time>
      </trkpt>
      <trkpt lat="47.66437" lon="2.144159">
        <ele>188.0</ele>
        <time>2022-02-17T09:45:25Z</time>
      </trkpt>
      <trkpt lat="47.664364" lon="2.144153">
        <ele>188.0</ele>
        <time>2022-02-17T09:45:26Z</time>
      </trkpt>
      <trkpt lat="47.664352" lon="2.1441524">
        <ele>188.0</ele>
        <time>2022-02-17T09:45:27Z</time>
      </trkpt>
      <trkpt lat="47.66434" lon="2.1441488">
        <ele>188.0</ele>
        <time>2022-02-17T09:45:28Z</time>
      </trkpt>
      <trkpt lat="47.66433" lon="2.1441395">
        <ele>187.0</ele>
        <time>2022-02-17T09:45:29Z</time>
      </trkpt>
      <trkpt lat="47.664318" lon="2.1441348">
        <ele>187.0</ele>
        <time>2022-02-17T09:45:30Z</time>
      </trkpt>
      <trkpt lat="47.664307" lon="2.1441336">
        <ele>187.0</ele>
        <time>2022-02-17T09:45:31Z</time>
      </trkpt>
      <trkpt lat="47.664295" lon="2.1441338">
        <ele>187.0</ele>
        <time>2022-02-17T09:45:32Z</time>
      </trkpt>
      <trkpt lat="47.664284" lon="2.1441352">
        <ele>187.0</ele>
        <time>2022-02-17T09:45:33Z</time>
      </trkpt>
      <trkpt lat="47.664272" lon="2.1441324">
        <ele>187.0</ele>
        <time>2022-02-17T09:45:34Z</time>
      </trkpt>
      <trkpt lat="47.664257" lon="2.1441326">
        <ele>187.0</ele>
        <time>2022-02-17T09:45:35Z</time>
      </trkpt>
      <trkpt lat="47.664246" lon="2.1441312">
        <ele>188.0</ele>
        <time>2022-02-17T09:45:36Z</time>
      </trkpt>
      <trkpt lat="47.664234" lon="2.1441278">
        <ele>188.0</ele>
        <time>2022-02-17T09:45:37Z</time>
      </trkpt>
      <trkpt lat="47.66422" lon="2.144122">
        <ele>188.0</ele>
        <time>2022-02-17T09:45:38Z</time>
      </trkpt>
      <trkpt lat="47.664207" lon="2.1441152">
        <ele>188.0</ele>
        <time>2022-02-17T09:45:39Z</time>
      </trkpt>
      <trkpt lat="47.664196" lon="2.1441145">
        <ele>188.0</ele>
        <time>2022-02-17T09:45:40Z</time>
      </trkpt>
      <trkpt lat="47.664185" lon="2.1441092">
        <ele>188.0</ele>
        <time>2022-02-17T09:45:41Z</time>
      </trkpt>
      <trkpt lat="47.664173" lon="2.144109">
        <ele>188.0</ele>
        <time>2022-02-17T09:45:42Z</time>
      </trkpt>
      <trkpt lat="47.66416" lon="2.1441076">
        <ele>188.0</ele>
        <time>2022-02-17T09:45:43Z</time>
      </trkpt>
      <trkpt lat="47.664146" lon="2.1441069">
        <ele>188.0</ele>
        <time>2022-02-17T09:45:44Z</time>
      </trkpt>
      <trkpt lat="47.66413" lon="2.1441076">
        <ele>188.0</ele>
        <time>2022-02-17T09:45:45Z</time>
      </trkpt>
      <trkpt lat="47.664116" lon="2.144103">
        <ele>188.0</ele>
        <time>2022-02-17T09:45:46Z</time>
      </trkpt>
      <trkpt lat="47.6641" lon="2.1441073">
        <ele>188.0</ele>
        <time>2022-02-17T09:45:47Z</time>
      </trkpt>
      <trkpt lat="47.66409" lon="2.1441076">
        <ele>188.0</ele>
        <time>2022-02-17T09:45:48Z</time>
      </trkpt>
      <trkpt lat="47.664078" lon="2.1441095">
        <ele>187.0</ele>
        <time>2022-02-17T09:45:49Z</time>
      </trkpt>
      <trkpt lat="47.664062" lon="2.144103">
        <ele>187.0</ele>
        <time>2022-02-17T09:45:50Z</time>
      </trkpt>
      <trkpt lat="47.664055" lon="2.1441014">
        <ele>187.0</ele>
        <time>2022-02-17T09:45:51Z</time>
      </trkpt>
      <trkpt lat="47.664043" lon="2.1441007">
        <ele>187.0</ele>
        <time>2022-02-17T09:45:52Z</time>
      </trkpt>
      <trkpt lat="47.664032" lon="2.1441">
        <ele>188.0</ele>
        <time>2022-02-17T09:45:53Z</time>
      </trkpt>
      <trkpt lat="47.664017" lon="2.1440978">
        <ele>188.0</ele>
        <time>2022-02-17T09:45:54Z</time>
      </trkpt>
      <trkpt lat="47.664005" lon="2.1440954">
        <ele>188.0</ele>
        <time>2022-02-17T09:45:55Z</time>
      </trkpt>
      <trkpt lat="47.663994" lon="2.1440954">
        <ele>188.0</ele>
        <time>2022-02-17T09:45:56Z</time>
      </trkpt>
      <trkpt lat="47.663982" lon="2.1440945">
        <ele>188.0</ele>
        <time>2022-02-17T09:45:57Z</time>
      </trkpt>
      <trkpt lat="47.663975" lon="2.1440923">
        <ele>188.0</ele>
        <time>2022-02-17T09:45:58Z</time>
      </trkpt>
      <trkpt lat="47.66396" lon="2.1440868">
        <ele>189.0</ele>
        <time>2022-02-17T09:45:59Z</time>
      </trkpt>
      <trkpt lat="47.663948" lon="2.1440814">
        <ele>188.0</ele>
        <time>2022-02-17T09:46:00Z</time>
      </trkpt>
      <trkpt lat="47.66394" lon="2.1440787">
        <ele>188.0</ele>
        <time>2022-02-17T09:46:01Z</time>
      </trkpt>
      <trkpt lat="47.663925" lon="2.144074">
        <ele>188.0</ele>
        <time>2022-02-17T09:46:02Z</time>
      </trkpt>
      <trkpt lat="47.663914" lon="2.1440718">
        <ele>189.0</ele>
        <time>2022-02-17T09:46:03Z</time>
      </trkpt>
      <trkpt lat="47.663902" lon="2.1440647">
        <ele>189.0</ele>
        <time>2022-02-17T09:46:04Z</time>
      </trkpt>
      <trkpt lat="47.66389" lon="2.1440618">
        <ele>189.0</ele>
        <time>2022-02-17T09:46:05Z</time>
      </trkpt>
      <trkpt lat="47.66388" lon="2.14406">
        <ele>188.0</ele>
        <time>2022-02-17T09:46:06Z</time>
      </trkpt>
      <trkpt lat="47.663868" lon="2.1440573">
        <ele>188.0</ele>
        <time>2022-02-17T09:46:07Z</time>
      </trkpt>
      <trkpt lat="47.663857" lon="2.1440537">
        <ele>188.0</ele>
        <time>2022-02-17T09:46:08Z</time>
      </trkpt>
      <trkpt lat="47.663845" lon="2.144048">
        <ele>188.0</ele>
        <time>2022-02-17T09:46:09Z</time>
      </trkpt>
      <trkpt lat="47.663834" lon="2.1440403">
        <ele>188.0</ele>
        <time>2022-02-17T09:46:10Z</time>
      </trkpt>
      <trkpt lat="47.663822" lon="2.1440394">
        <ele>188.0</ele>
        <time>2022-02-17T09:46:11Z</time>
      </trkpt>
      <trkpt lat="47.66381" lon="2.1440353">
        <ele>188.0</ele>
        <time>2022-02-17T09:46:12Z</time>
      </trkpt>
      <trkpt lat="47.663807" lon="2.1440322">
        <ele>188.0</ele>
        <time>2022-02-17T09:46:13Z</time>
      </trkpt>
      <trkpt lat="47.663795" lon="2.1440291">
        <ele>189.0</ele>
        <time>2022-02-17T09:46:14Z</time>
      </trkpt>
      <trkpt lat="47.663784" lon="2.144029">
        <ele>189.0</ele>
        <time>2022-02-17T09:46:15Z</time>
      </trkpt>
      <trkpt lat="47.663773" lon="2.144023">
        <ele>189.0</ele>
        <time>2022-02-17T09:46:16Z</time>
      </trkpt>
      <trkpt lat="47.66376" lon="2.1440194">
        <ele>188.0</ele>
        <time>2022-02-17T09:46:17Z</time>
      </trkpt>
      <trkpt lat="47.66375" lon="2.1440153">
        <ele>189.0</ele>
        <time>2022-02-17T09:46:18Z</time>
      </trkpt>
      <trkpt lat="47.66374" lon="2.1440141">
        <ele>188.0</ele>
        <time>2022-02-17T09:46:19Z</time>
      </trkpt>
      <trkpt lat="47.66373" lon="2.1440127">
        <ele>188.0</ele>
        <time>2022-02-17T09:46:20Z</time>
      </trkpt>
      <trkpt lat="47.66372" lon="2.1440127">
        <ele>189.0</ele>
        <time>2022-02-17T09:46:21Z</time>
      </trkpt>
      <trkpt lat="47.66371" lon="2.1440108">
        <ele>189.0</ele>
        <time>2022-02-17T09:46:22Z</time>
      </trkpt>
      <trkpt lat="47.6637" lon="2.144007">
        <ele>188.0</ele>
        <time>2022-02-17T09:46:23Z</time>
      </trkpt>
      <trkpt lat="47.663685" lon="2.1440015">
        <ele>188.0</ele>
        <time>2022-02-17T09:46:24Z</time>
      </trkpt>
      <trkpt lat="47.663673" lon="2.1439965">
        <ele>188.0</ele>
        <time>2022-02-17T09:46:25Z</time>
      </trkpt>
      <trkpt lat="47.663654" lon="2.143992">
        <ele>188.0</ele>
        <time>2022-02-17T09:46:26Z</time>
      </trkpt>
      <trkpt lat="47.663643" lon="2.1439865">
        <ele>188.0</ele>
        <time>2022-02-17T09:46:27Z</time>
      </trkpt>
      <trkpt lat="47.66363" lon="2.1439884">
        <ele>189.0</ele>
        <time>2022-02-17T09:46:28Z</time>
      </trkpt>
      <trkpt lat="47.66362" lon="2.1439874">
        <ele>189.0</ele>
        <time>2022-02-17T09:46:29Z</time>
      </trkpt>
      <trkpt lat="47.663605" lon="2.1439867">
        <ele>189.0</ele>
        <time>2022-02-17T09:46:30Z</time>
      </trkpt>
      <trkpt lat="47.66359" lon="2.1439831">
        <ele>189.0</ele>
        <time>2022-02-17T09:46:31Z</time>
      </trkpt>
      <trkpt lat="47.663578" lon="2.1439784">
        <ele>189.0</ele>
        <time>2022-02-17T09:46:32Z</time>
      </trkpt>
      <trkpt lat="47.663563" lon="2.1439772">
        <ele>189.0</ele>
        <time>2022-02-17T09:46:33Z</time>
      </trkpt>
      <trkpt lat="47.663548" lon="2.1439736">
        <ele>189.0</ele>
        <time>2022-02-17T09:46:34Z</time>
      </trkpt>
      <trkpt lat="47.663536" lon="2.1439693">
        <ele>190.0</ele>
        <time>2022-02-17T09:46:35Z</time>
      </trkpt>
      <trkpt lat="47.663525" lon="2.1439643">
        <ele>191.0</ele>
        <time>2022-02-17T09:46:36Z</time>
      </trkpt>
      <trkpt lat="47.66351" lon="2.1439643">
        <ele>191.0</ele>
        <time>2022-02-17T09:46:37Z</time>
      </trkpt>
      <trkpt lat="47.663498" lon="2.143966">
        <ele>191.0</ele>
        <time>2022-02-17T09:46:38Z</time>
      </trkpt>
      <trkpt lat="47.663483" lon="2.1439602">
        <ele>191.0</ele>
        <time>2022-02-17T09:46:39Z</time>
      </trkpt>
      <trkpt lat="47.663475" lon="2.1439536">
        <ele>191.0</ele>
        <time>2022-02-17T09:46:40Z</time>
      </trkpt>
      <trkpt lat="47.66346" lon="2.143951">
        <ele>191.0</ele>
        <time>2022-02-17T09:46:41Z</time>
      </trkpt>
      <trkpt lat="47.66345" lon="2.14395">
        <ele>191.0</ele>
        <time>2022-02-17T09:46:42Z</time>
      </trkpt>
      <trkpt lat="47.663437" lon="2.1439507">
        <ele>192.0</ele>
        <time>2022-02-17T09:46:43Z</time>
      </trkpt>
      <trkpt lat="47.66343" lon="2.1439495">
        <ele>192.0</ele>
        <time>2022-02-17T09:46:44Z</time>
      </trkpt>
      <trkpt lat="47.663414" lon="2.1439457">
        <ele>192.0</ele>
        <time>2022-02-17T09:46:45Z</time>
      </trkpt>
      <trkpt lat="47.663406" lon="2.1439419">
        <ele>192.0</ele>
        <time>2022-02-17T09:46:46Z</time>
      </trkpt>
      <trkpt lat="47.663403" lon="2.1439419">
        <ele>191.0</ele>
        <time>2022-02-17T09:46:47Z</time>
      </trkpt>
      <trkpt lat="47.663395" lon="2.1439402">
        <ele>191.0</ele>
        <time>2022-02-17T09:46:48Z</time>
      </trkpt>
      <trkpt lat="47.66338" lon="2.1439373">
        <ele>191.0</ele>
        <time>2022-02-17T09:46:49Z</time>
      </trkpt>
      <trkpt lat="47.663372" lon="2.1439397">
        <ele>191.0</ele>
        <time>2022-02-17T09:46:50Z</time>
      </trkpt>
      <trkpt lat="47.66336" lon="2.1439402">
        <ele>190.0</ele>
        <time>2022-02-17T09:46:51Z</time>
      </trkpt>
      <trkpt lat="47.66335" lon="2.1439395">
        <ele>190.0</ele>
        <time>2022-02-17T09:46:52Z</time>
      </trkpt>
      <trkpt lat="47.663338" lon="2.143937">
        <ele>190.0</ele>
        <time>2022-02-17T09:46:53Z</time>
      </trkpt>
      <trkpt lat="47.663322" lon="2.143937">
        <ele>190.0</ele>
        <time>2022-02-17T09:46:54Z</time>
      </trkpt>
      <trkpt lat="47.66331" lon="2.1439326">
        <ele>189.0</ele>
        <time>2022-02-17T09:46:55Z</time>
      </trkpt>
      <trkpt lat="47.6633" lon="2.1439323">
        <ele>189.0</ele>
        <time>2022-02-17T09:46:56Z</time>
      </trkpt>
      <trkpt lat="47.663292" lon="2.143931">
        <ele>189.0</ele>
        <time>2022-02-17T09:46:57Z</time>
      </trkpt>
      <trkpt lat="47.66328" lon="2.1439323">
        <ele>189.0</ele>
        <time>2022-02-17T09:46:58Z</time>
      </trkpt>
      <trkpt lat="47.66327" lon="2.1439347">
        <ele>189.0</ele>
        <time>2022-02-17T09:46:59Z</time>
      </trkpt>
      <trkpt lat="47.663258" lon="2.1439357">
        <ele>189.0</ele>
        <time>2022-02-17T09:47:00Z</time>
      </trkpt>
      <trkpt lat="47.663246" lon="2.1439364">
        <ele>189.0</ele>
        <time>2022-02-17T09:47:01Z</time>
      </trkpt>
      <trkpt lat="47.66324" lon="2.1439342">
        <ele>190.0</ele>
        <time>2022-02-17T09:47:02Z</time>
      </trkpt>
      <trkpt lat="47.663223" lon="2.1439328">
        <ele>189.0</ele>
        <time>2022-02-17T09:47:03Z</time>
      </trkpt>
      <trkpt lat="47.663208" lon="2.1439323">
        <ele>190.0</ele>
        <time>2022-02-17T09:47:04Z</time>
      </trkpt>
      <trkpt lat="47.663197" lon="2.143934">
        <ele>190.0</ele>
        <time>2022-02-17T09:47:05Z</time>
      </trkpt>
      <trkpt lat="47.66318" lon="2.1439345">
        <ele>190.0</ele>
        <time>2022-02-17T09:47:06Z</time>
      </trkpt>
      <trkpt lat="47.66317" lon="2.143933">
        <ele>190.0</ele>
        <time>2022-02-17T09:47:07Z</time>
      </trkpt>
      <trkpt lat="47.66316" lon="2.1439304">
        <ele>190.0</ele>
        <time>2022-02-17T09:47:08Z</time>
      </trkpt>
      <trkpt lat="47.663143" lon="2.143923">
        <ele>190.0</ele>
        <time>2022-02-17T09:47:09Z</time>
      </trkpt>
      <trkpt lat="47.663136" lon="2.1439142">
        <ele>190.0</ele>
        <time>2022-02-17T09:47:10Z</time>
      </trkpt>
      <trkpt lat="47.663124" lon="2.1439064">
        <ele>189.0</ele>
        <time>2022-02-17T09:47:11Z</time>
      </trkpt>
      <trkpt lat="47.663116" lon="2.1439111">
        <ele>190.0</ele>
        <time>2022-02-17T09:47:12Z</time>
      </trkpt>
      <trkpt lat="47.663105" lon="2.1439137">
        <ele>189.0</ele>
        <time>2022-02-17T09:47:13Z</time>
      </trkpt>
      <trkpt lat="47.663097" lon="2.143919">
        <ele>189.0</ele>
        <time>2022-02-17T09:47:14Z</time>
      </trkpt>
      <trkpt lat="47.663086" lon="2.1439192">
        <ele>190.0</ele>
        <time>2022-02-17T09:47:15Z</time>
      </trkpt>
      <trkpt lat="47.663074" lon="2.1439178">
        <ele>189.0</ele>
        <time>2022-02-17T09:47:16Z</time>
      </trkpt>
      <trkpt lat="47.663067" lon="2.1439133">
        <ele>190.0</ele>
        <time>2022-02-17T09:47:17Z</time>
      </trkpt>
      <trkpt lat="47.663055" lon="2.143909">
        <ele>190.0</ele>
        <time>2022-02-17T09:47:18Z</time>
      </trkpt>
      <trkpt lat="47.663044" lon="2.1439066">
        <ele>190.0</ele>
        <time>2022-02-17T09:47:19Z</time>
      </trkpt>
      <trkpt lat="47.663033" lon="2.1439042">
        <ele>190.0</ele>
        <time>2022-02-17T09:47:20Z</time>
      </trkpt>
      <trkpt lat="47.66302" lon="2.1439004">
        <ele>189.0</ele>
        <time>2022-02-17T09:47:21Z</time>
      </trkpt>
      <trkpt lat="47.663006" lon="2.1438963">
        <ele>189.0</ele>
        <time>2022-02-17T09:47:22Z</time>
      </trkpt>
      <trkpt lat="47.662994" lon="2.143887">
        <ele>189.0</ele>
        <time>2022-02-17T09:47:23Z</time>
      </trkpt>
      <trkpt lat="47.66298" lon="2.1438818">
        <ele>190.0</ele>
        <time>2022-02-17T09:47:24Z</time>
      </trkpt>
      <trkpt lat="47.662968" lon="2.1438754">
        <ele>190.0</ele>
        <time>2022-02-17T09:47:25Z</time>
      </trkpt>
      <trkpt lat="47.662956" lon="2.1438663">
        <ele>190.0</ele>
        <time>2022-02-17T09:47:26Z</time>
      </trkpt>
      <trkpt lat="47.662945" lon="2.1438591">
        <ele>190.0</ele>
        <time>2022-02-17T09:47:27Z</time>
      </trkpt>
      <trkpt lat="47.662933" lon="2.1438565">
        <ele>190.0</ele>
        <time>2022-02-17T09:47:28Z</time>
      </trkpt>
      <trkpt lat="47.66292" lon="2.143856">
        <ele>189.0</ele>
        <time>2022-02-17T09:47:29Z</time>
      </trkpt>
      <trkpt lat="47.66291" lon="2.1438532">
        <ele>190.0</ele>
        <time>2022-02-17T09:47:30Z</time>
      </trkpt>
      <trkpt lat="47.6629" lon="2.14385">
        <ele>190.0</ele>
        <time>2022-02-17T09:47:31Z</time>
      </trkpt>
      <trkpt lat="47.662888" lon="2.143847">
        <ele>190.0</ele>
        <time>2022-02-17T09:47:32Z</time>
      </trkpt>
      <trkpt lat="47.66288" lon="2.1438353">
        <ele>190.0</ele>
        <time>2022-02-17T09:47:33Z</time>
      </trkpt>
      <trkpt lat="47.66287" lon="2.1438313">
        <ele>190.0</ele>
        <time>2022-02-17T09:47:34Z</time>
      </trkpt>
      <trkpt lat="47.662857" lon="2.1438274">
        <ele>190.0</ele>
        <time>2022-02-17T09:47:35Z</time>
      </trkpt>
      <trkpt lat="47.662846" lon="2.1438236">
        <ele>190.0</ele>
        <time>2022-02-17T09:47:36Z</time>
      </trkpt>
      <trkpt lat="47.662834" lon="2.143818">
        <ele>189.0</ele>
        <time>2022-02-17T09:47:37Z</time>
      </trkpt>
      <trkpt lat="47.662823" lon="2.143816">
        <ele>190.0</ele>
        <time>2022-02-17T09:47:38Z</time>
      </trkpt>
      <trkpt lat="47.66281" lon="2.143816">
        <ele>190.0</ele>
        <time>2022-02-17T09:47:39Z</time>
      </trkpt>
      <trkpt lat="47.6628" lon="2.143817">
        <ele>190.0</ele>
        <time>2022-02-17T09:47:40Z</time>
      </trkpt>
      <trkpt lat="47.662792" lon="2.1438155">
        <ele>190.0</ele>
        <time>2022-02-17T09:47:41Z</time>
      </trkpt>
      <trkpt lat="47.66278" lon="2.143813">
        <ele>190.0</ele>
        <time>2022-02-17T09:47:42Z</time>
      </trkpt>
      <trkpt lat="47.662766" lon="2.1438136">
        <ele>190.0</ele>
        <time>2022-02-17T09:47:43Z</time>
      </trkpt>
      <trkpt lat="47.662754" lon="2.1438146">
        <ele>190.0</ele>
        <time>2022-02-17T09:47:44Z</time>
      </trkpt>
      <trkpt lat="47.662735" lon="2.143813">
        <ele>190.0</ele>
        <time>2022-02-17T09:47:45Z</time>
      </trkpt>
      <trkpt lat="47.662724" lon="2.1438093">
        <ele>190.0</ele>
        <time>2022-02-17T09:47:46Z</time>
      </trkpt>
      <trkpt lat="47.662712" lon="2.143808">
        <ele>190.0</ele>
        <time>2022-02-17T09:47:47Z</time>
      </trkpt>
      <trkpt lat="47.662697" lon="2.1438086">
        <ele>190.0</ele>
        <time>2022-02-17T09:47:48Z</time>
      </trkpt>
      <trkpt lat="47.662685" lon="2.143808">
        <ele>190.0</ele>
        <time>2022-02-17T09:47:49Z</time>
      </trkpt>
      <trkpt lat="47.662674" lon="2.1438005">
        <ele>191.0</ele>
        <time>2022-02-17T09:47:50Z</time>
      </trkpt>
      <trkpt lat="47.66266" lon="2.1437948">
        <ele>190.0</ele>
        <time>2022-02-17T09:47:51Z</time>
      </trkpt>
      <trkpt lat="47.662647" lon="2.1437905">
        <ele>190.0</ele>
        <time>2022-02-17T09:47:52Z</time>
      </trkpt>
      <trkpt lat="47.66264" lon="2.1437905">
        <ele>190.0</ele>
        <time>2022-02-17T09:47:53Z</time>
      </trkpt>
      <trkpt lat="47.662624" lon="2.1437871">
        <ele>191.0</ele>
        <time>2022-02-17T09:47:54Z</time>
      </trkpt>
      <trkpt lat="47.662613" lon="2.1437783">
        <ele>191.0</ele>
        <time>2022-02-17T09:47:55Z</time>
      </trkpt>
      <trkpt lat="47.6626" lon="2.1437752">
        <ele>191.0</ele>
        <time>2022-02-17T09:47:56Z</time>
      </trkpt>
      <trkpt lat="47.662586" lon="2.1437747">
        <ele>192.0</ele>
        <time>2022-02-17T09:47:57Z</time>
      </trkpt>
      <trkpt lat="47.662567" lon="2.1437736">
        <ele>191.0</ele>
        <time>2022-02-17T09:47:58Z</time>
      </trkpt>
      <trkpt lat="47.662556" lon="2.143776">
        <ele>191.0</ele>
        <time>2022-02-17T09:47:59Z</time>
      </trkpt>
      <trkpt lat="47.662544" lon="2.1437778">
        <ele>191.0</ele>
        <time>2022-02-17T09:48:00Z</time>
      </trkpt>
      <trkpt lat="47.662533" lon="2.1437778">
        <ele>191.0</ele>
        <time>2022-02-17T09:48:01Z</time>
      </trkpt>
      <trkpt lat="47.662525" lon="2.1437738">
        <ele>191.0</ele>
        <time>2022-02-17T09:48:02Z</time>
      </trkpt>
      <trkpt lat="47.662514" lon="2.1437743">
        <ele>191.0</ele>
        <time>2022-02-17T09:48:03Z</time>
      </trkpt>
      <trkpt lat="47.662506" lon="2.1437716">
        <ele>191.0</ele>
        <time>2022-02-17T09:48:04Z</time>
      </trkpt>
      <trkpt lat="47.662495" lon="2.1437685">
        <ele>191.0</ele>
        <time>2022-02-17T09:48:05Z</time>
      </trkpt>
      <trkpt lat="47.662483" lon="2.1437654">
        <ele>191.0</ele>
        <time>2022-02-17T09:48:06Z</time>
      </trkpt>
      <trkpt lat="47.66247" lon="2.143766">
        <ele>191.0</ele>
        <time>2022-02-17T09:48:07Z</time>
      </trkpt>
      <trkpt lat="47.66246" lon="2.1437674">
        <ele>192.0</ele>
        <time>2022-02-17T09:48:08Z</time>
      </trkpt>
      <trkpt lat="47.662445" lon="2.1437674">
        <ele>191.0</ele>
        <time>2022-02-17T09:48:09Z</time>
      </trkpt>
      <trkpt lat="47.66243" lon="2.1437652">
        <ele>191.0</ele>
        <time>2022-02-17T09:48:10Z</time>
      </trkpt>
      <trkpt lat="47.66242" lon="2.1437635">
        <ele>191.0</ele>
        <time>2022-02-17T09:48:11Z</time>
      </trkpt>
      <trkpt lat="47.662407" lon="2.14376">
        <ele>191.0</ele>
        <time>2022-02-17T09:48:12Z</time>
      </trkpt>
      <trkpt lat="47.662395" lon="2.143759">
        <ele>191.0</ele>
        <time>2022-02-17T09:48:13Z</time>
      </trkpt>
      <trkpt lat="47.66238" lon="2.143759">
        <ele>191.0</ele>
        <time>2022-02-17T09:48:14Z</time>
      </trkpt>
      <trkpt lat="47.662365" lon="2.1437607">
        <ele>191.0</ele>
        <time>2022-02-17T09:48:15Z</time>
      </trkpt>
      <trkpt lat="47.66235" lon="2.1437624">
        <ele>191.0</ele>
        <time>2022-02-17T09:48:16Z</time>
      </trkpt>
      <trkpt lat="47.662342" lon="2.1437619">
        <ele>191.0</ele>
        <time>2022-02-17T09:48:17Z</time>
      </trkpt>
      <trkpt lat="47.66233" lon="2.1437604">
        <ele>191.0</ele>
        <time>2022-02-17T09:48:18Z</time>
      </trkpt>
      <trkpt lat="47.662315" lon="2.143757">
        <ele>190.0</ele>
        <time>2022-02-17T09:48:19Z</time>
      </trkpt>
      <trkpt lat="47.662304" lon="2.143756">
        <ele>190.0</ele>
        <time>2022-02-17T09:48:20Z</time>
      </trkpt>
      <trkpt lat="47.66229" lon="2.1437497">
        <ele>190.0</ele>
        <time>2022-02-17T09:48:21Z</time>
      </trkpt>
      <trkpt lat="47.66228" lon="2.1437492">
        <ele>190.0</ele>
        <time>2022-02-17T09:48:22Z</time>
      </trkpt>
      <trkpt lat="47.662266" lon="2.1437473">
        <ele>190.0</ele>
        <time>2022-02-17T09:48:23Z</time>
      </trkpt>
      <trkpt lat="47.662254" lon="2.1437416">
        <ele>190.0</ele>
        <time>2022-02-17T09:48:24Z</time>
      </trkpt>
      <trkpt lat="47.662243" lon="2.143739">
        <ele>190.0</ele>
        <time>2022-02-17T09:48:25Z</time>
      </trkpt>
      <trkpt lat="47.66223" lon="2.14374">
        <ele>191.0</ele>
        <time>2022-02-17T09:48:26Z</time>
      </trkpt>
      <trkpt lat="47.662216" lon="2.1437354">
        <ele>190.0</ele>
        <time>2022-02-17T09:48:27Z</time>
      </trkpt>
      <trkpt lat="47.662205" lon="2.1437297">
        <ele>190.0</ele>
        <time>2022-02-17T09:48:28Z</time>
      </trkpt>
      <trkpt lat="47.662193" lon="2.1437275">
        <ele>190.0</ele>
        <time>2022-02-17T09:48:29Z</time>
      </trkpt>
      <trkpt lat="47.66218" lon="2.1437237">
        <ele>190.0</ele>
        <time>2022-02-17T09:48:30Z</time>
      </trkpt>
      <trkpt lat="47.662167" lon="2.14372">
        <ele>190.0</ele>
        <time>2022-02-17T09:48:31Z</time>
      </trkpt>
      <trkpt lat="47.662155" lon="2.143719">
        <ele>190.0</ele>
        <time>2022-02-17T09:48:32Z</time>
      </trkpt>
      <trkpt lat="47.662144" lon="2.1437151">
        <ele>190.0</ele>
        <time>2022-02-17T09:48:33Z</time>
      </trkpt>
      <trkpt lat="47.662132" lon="2.1437163">
        <ele>190.0</ele>
        <time>2022-02-17T09:48:34Z</time>
      </trkpt>
      <trkpt lat="47.662117" lon="2.143712">
        <ele>190.0</ele>
        <time>2022-02-17T09:48:35Z</time>
      </trkpt>
      <trkpt lat="47.662106" lon="2.143711">
        <ele>190.0</ele>
        <time>2022-02-17T09:48:36Z</time>
      </trkpt>
      <trkpt lat="47.66209" lon="2.1437092">
        <ele>191.0</ele>
        <time>2022-02-17T09:48:37Z</time>
      </trkpt>
      <trkpt lat="47.66208" lon="2.1437075">
        <ele>191.0</ele>
        <time>2022-02-17T09:48:38Z</time>
      </trkpt>
      <trkpt lat="47.662067" lon="2.1437051">
        <ele>191.0</ele>
        <time>2022-02-17T09:48:39Z</time>
      </trkpt>
      <trkpt lat="47.662056" lon="2.143702">
        <ele>191.0</ele>
        <time>2022-02-17T09:48:40Z</time>
      </trkpt>
      <trkpt lat="47.662045" lon="2.1437">
        <ele>191.0</ele>
        <time>2022-02-17T09:48:41Z</time>
      </trkpt>
      <trkpt lat="47.662033" lon="2.1437001">
        <ele>191.0</ele>
        <time>2022-02-17T09:48:42Z</time>
      </trkpt>
      <trkpt lat="47.66202" lon="2.1436973">
        <ele>191.0</ele>
        <time>2022-02-17T09:48:43Z</time>
      </trkpt>
      <trkpt lat="47.66201" lon="2.1436956">
        <ele>191.0</ele>
        <time>2022-02-17T09:48:44Z</time>
      </trkpt>
      <trkpt lat="47.662003" lon="2.1436913">
        <ele>191.0</ele>
        <time>2022-02-17T09:48:45Z</time>
      </trkpt>
      <trkpt lat="47.66199" lon="2.1436877">
        <ele>191.0</ele>
        <time>2022-02-17T09:48:46Z</time>
      </trkpt>
      <trkpt lat="47.661983" lon="2.1436844">
        <ele>191.0</ele>
        <time>2022-02-17T09:48:47Z</time>
      </trkpt>
      <trkpt lat="47.661972" lon="2.14368">
        <ele>190.0</ele>
        <time>2022-02-17T09:48:48Z</time>
      </trkpt>
      <trkpt lat="47.661964" lon="2.143679">
        <ele>190.0</ele>
        <time>2022-02-17T09:48:49Z</time>
      </trkpt>
      <trkpt lat="47.661953" lon="2.1436777">
        <ele>191.0</ele>
        <time>2022-02-17T09:48:50Z</time>
      </trkpt>
      <trkpt lat="47.66194" lon="2.1436749">
        <ele>191.0</ele>
        <time>2022-02-17T09:48:51Z</time>
      </trkpt>
      <trkpt lat="47.661934" lon="2.1436713">
        <ele>190.0</ele>
        <time>2022-02-17T09:48:52Z</time>
      </trkpt>
      <trkpt lat="47.661922" lon="2.14367">
        <ele>191.0</ele>
        <time>2022-02-17T09:48:53Z</time>
      </trkpt>
      <trkpt lat="47.661907" lon="2.1436656">
        <ele>190.0</ele>
        <time>2022-02-17T09:48:54Z</time>
      </trkpt>
      <trkpt lat="47.661896" lon="2.143667">
        <ele>190.0</ele>
        <time>2022-02-17T09:48:55Z</time>
      </trkpt>
      <trkpt lat="47.66188" lon="2.1436653">
        <ele>190.0</ele>
        <time>2022-02-17T09:48:56Z</time>
      </trkpt>
      <trkpt lat="47.66187" lon="2.1436644">
        <ele>190.0</ele>
        <time>2022-02-17T09:48:57Z</time>
      </trkpt>
      <trkpt lat="47.661858" lon="2.1436572">
        <ele>190.0</ele>
        <time>2022-02-17T09:48:58Z</time>
      </trkpt>
      <trkpt lat="47.661846" lon="2.1436489">
        <ele>191.0</ele>
        <time>2022-02-17T09:48:59Z</time>
      </trkpt>
      <trkpt lat="47.66183" lon="2.1436412">
        <ele>190.0</ele>
        <time>2022-02-17T09:49:00Z</time>
      </trkpt>
      <trkpt lat="47.66183" lon="2.143642">
        <ele>190.0</ele>
        <time>2022-02-17T09:49:01Z</time>
      </trkpt>
      <trkpt lat="47.66183" lon="2.143642">
        <ele>190.0</ele>
        <time>2022-02-17T09:49:02Z</time>
      </trkpt>
      <trkpt lat="47.661827" lon="2.1436431">
        <ele>190.0</ele>
        <time>2022-02-17T09:49:03Z</time>
      </trkpt>
      <trkpt lat="47.66182" lon="2.1436458">
        <ele>190.0</ele>
        <time>2022-02-17T09:49:04Z</time>
      </trkpt>
      <trkpt lat="47.66181" lon="2.143646">
        <ele>190.0</ele>
        <time>2022-02-17T09:49:05Z</time>
      </trkpt>
      <trkpt lat="47.6618" lon="2.1436455">
        <ele>189.0</ele>
        <time>2022-02-17T09:49:06Z</time>
      </trkpt>
      <trkpt lat="47.66178" lon="2.1436481">
        <ele>189.0</ele>
        <time>2022-02-17T09:49:07Z</time>
      </trkpt>
      <trkpt lat="47.66177" lon="2.1436486">
        <ele>189.0</ele>
        <time>2022-02-17T09:49:08Z</time>
      </trkpt>
      <trkpt lat="47.66175" lon="2.1436415">
        <ele>188.0</ele>
        <time>2022-02-17T09:49:09Z</time>
      </trkpt>
      <trkpt lat="47.661736" lon="2.1436372">
        <ele>188.0</ele>
        <time>2022-02-17T09:49:10Z</time>
      </trkpt>
      <trkpt lat="47.66172" lon="2.1436355">
        <ele>188.0</ele>
        <time>2022-02-17T09:49:11Z</time>
      </trkpt>
      <trkpt lat="47.66171" lon="2.1436403">
        <ele>188.0</ele>
        <time>2022-02-17T09:49:12Z</time>
      </trkpt>
      <trkpt lat="47.661697" lon="2.1436453">
        <ele>188.0</ele>
        <time>2022-02-17T09:49:13Z</time>
      </trkpt>
      <trkpt lat="47.661686" lon="2.1436496">
        <ele>188.0</ele>
        <time>2022-02-17T09:49:14Z</time>
      </trkpt>
      <trkpt lat="47.66168" lon="2.1436563">
        <ele>188.0</ele>
        <time>2022-02-17T09:49:15Z</time>
      </trkpt>
      <trkpt lat="47.66167" lon="2.1436663">
        <ele>188.0</ele>
        <time>2022-02-17T09:49:16Z</time>
      </trkpt>
      <trkpt lat="47.661667" lon="2.14368">
        <ele>187.0</ele>
        <time>2022-02-17T09:49:17Z</time>
      </trkpt>
      <trkpt lat="47.661663" lon="2.1436899">
        <ele>187.0</ele>
        <time>2022-02-17T09:49:18Z</time>
      </trkpt>
      <trkpt lat="47.661663" lon="2.143697">
        <ele>187.0</ele>
        <time>2022-02-17T09:49:19Z</time>
      </trkpt>
      <trkpt lat="47.661663" lon="2.143697">
        <ele>187.0</ele>
        <time>2022-02-17T09:49:20Z</time>
      </trkpt>
      <trkpt lat="47.661663" lon="2.143697">
        <ele>187.0</ele>
        <time>2022-02-17T09:49:21Z</time>
      </trkpt>
      <trkpt lat="47.66165" lon="2.143723">
        <ele>187.0</ele>
        <time>2022-02-17T09:49:22Z</time>
      </trkpt>
      <trkpt lat="47.661648" lon="2.1437373">
        <ele>187.0</ele>
        <time>2022-02-17T09:49:23Z</time>
      </trkpt>
      <trkpt lat="47.66164" lon="2.1437523">
        <ele>187.0</ele>
        <time>2022-02-17T09:49:24Z</time>
      </trkpt>
      <trkpt lat="47.66164" lon="2.143768">
        <ele>187.0</ele>
        <time>2022-02-17T09:49:25Z</time>
      </trkpt>
      <trkpt lat="47.66164" lon="2.1437871">
        <ele>188.0</ele>
        <time>2022-02-17T09:49:26Z</time>
      </trkpt>
      <trkpt lat="47.66164" lon="2.1438155">
        <ele>187.0</ele>
        <time>2022-02-17T09:49:27Z</time>
      </trkpt>
      <trkpt lat="47.661644" lon="2.1438336">
        <ele>186.0</ele>
        <time>2022-02-17T09:49:28Z</time>
      </trkpt>
      <trkpt lat="47.661648" lon="2.1438525">
        <ele>185.0</ele>
        <time>2022-02-17T09:49:29Z</time>
      </trkpt>
      <trkpt lat="47.661648" lon="2.1438754">
        <ele>184.0</ele>
        <time>2022-02-17T09:49:30Z</time>
      </trkpt>
      <trkpt lat="47.66165" lon="2.1438942">
        <ele>183.0</ele>
        <time>2022-02-17T09:49:31Z</time>
      </trkpt>
      <trkpt lat="47.66165" lon="2.1439118">
        <ele>182.0</ele>
        <time>2022-02-17T09:49:32Z</time>
      </trkpt>
      <trkpt lat="47.661655" lon="2.143925">
        <ele>182.0</ele>
        <time>2022-02-17T09:49:33Z</time>
      </trkpt>
      <trkpt lat="47.661655" lon="2.143925">
        <ele>182.0</ele>
        <time>2022-02-17T09:49:34Z</time>
      </trkpt>
      <trkpt lat="47.661655" lon="2.143925">
        <ele>182.0</ele>
        <time>2022-02-17T09:49:35Z</time>
      </trkpt>
      <trkpt lat="47.66166" lon="2.143968">
        <ele>182.0</ele>
        <time>2022-02-17T09:49:36Z</time>
      </trkpt>
      <trkpt lat="47.66166" lon="2.1439843">
        <ele>182.0</ele>
        <time>2022-02-17T09:49:37Z</time>
      </trkpt>
      <trkpt lat="47.66166" lon="2.144">
        <ele>183.0</ele>
        <time>2022-02-17T09:49:38Z</time>
      </trkpt>
      <trkpt lat="47.661655" lon="2.1440184">
        <ele>182.0</ele>
        <time>2022-02-17T09:49:39Z</time>
      </trkpt>
      <trkpt lat="47.661655" lon="2.1440344">
        <ele>183.0</ele>
        <time>2022-02-17T09:49:40Z</time>
      </trkpt>
      <trkpt lat="47.66165" lon="2.1440518">
        <ele>182.0</ele>
        <time>2022-02-17T09:49:41Z</time>
      </trkpt>
      <trkpt lat="47.66165" lon="2.1440675">
        <ele>182.0</ele>
        <time>2022-02-17T09:49:42Z</time>
      </trkpt>
      <trkpt lat="47.66165" lon="2.14408">
        <ele>182.0</ele>
        <time>2022-02-17T09:49:43Z</time>
      </trkpt>
      <trkpt lat="47.66165" lon="2.14408">
        <ele>182.0</ele>
        <time>2022-02-17T09:49:44Z</time>
      </trkpt>
      <trkpt lat="47.66165" lon="2.14408">
        <ele>182.0</ele>
        <time>2022-02-17T09:49:45Z</time>
      </trkpt>
      <trkpt lat="47.661648" lon="2.1441035">
        <ele>182.0</ele>
        <time>2022-02-17T09:49:46Z</time>
      </trkpt>
      <trkpt lat="47.661648" lon="2.1441176">
        <ele>182.0</ele>
        <time>2022-02-17T09:49:47Z</time>
      </trkpt>
      <trkpt lat="47.66165" lon="2.1441321">
        <ele>181.0</ele>
        <time>2022-02-17T09:49:48Z</time>
      </trkpt>
      <trkpt lat="47.661648" lon="2.1441512">
        <ele>180.0</ele>
        <time>2022-02-17T09:49:49Z</time>
      </trkpt>
      <trkpt lat="47.661648" lon="2.1441512">
        <ele>180.0</ele>
        <time>2022-02-17T09:49:50Z</time>
      </trkpt>
      <trkpt lat="47.661648" lon="2.1441512">
        <ele>180.0</ele>
        <time>2022-02-17T09:49:51Z</time>
      </trkpt>
      <trkpt lat="47.661644" lon="2.1441972">
        <ele>179.0</ele>
        <time>2022-02-17T09:49:52Z</time>
      </trkpt>
      <trkpt lat="47.661644" lon="2.1442144">
        <ele>180.0</ele>
        <time>2022-02-17T09:49:53Z</time>
      </trkpt>
      <trkpt lat="47.661636" lon="2.1442325">
        <ele>179.0</ele>
        <time>2022-02-17T09:49:54Z</time>
      </trkpt>
      <trkpt lat="47.661636" lon="2.1442497">
        <ele>179.0</ele>
        <time>2022-02-17T09:49:55Z</time>
      </trkpt>
      <trkpt lat="47.661636" lon="2.1442497">
        <ele>179.0</ele>
        <time>2022-02-17T09:49:56Z</time>
      </trkpt>
      <trkpt lat="47.661636" lon="2.1442497">
        <ele>179.0</ele>
        <time>2022-02-17T09:49:57Z</time>
      </trkpt>
      <trkpt lat="47.66164" lon="2.14429">
        <ele>178.0</ele>
        <time>2022-02-17T09:49:58Z</time>
      </trkpt>
      <trkpt lat="47.66164" lon="2.1443052">
        <ele>178.0</ele>
        <time>2022-02-17T09:49:59Z</time>
      </trkpt>
      <trkpt lat="47.66164" lon="2.1443236">
        <ele>177.0</ele>
        <time>2022-02-17T09:50:00Z</time>
      </trkpt>
      <trkpt lat="47.66164" lon="2.1443412">
        <ele>177.0</ele>
        <time>2022-02-17T09:50:01Z</time>
      </trkpt>
      <trkpt lat="47.66164" lon="2.1443412">
        <ele>177.0</ele>
        <time>2022-02-17T09:50:02Z</time>
      </trkpt>
      <trkpt lat="47.66164" lon="2.1443412">
        <ele>177.0</ele>
        <time>2022-02-17T09:50:03Z</time>
      </trkpt>
      <trkpt lat="47.661644" lon="2.1443899">
        <ele>176.0</ele>
        <time>2022-02-17T09:50:04Z</time>
      </trkpt>
      <trkpt lat="47.661644" lon="2.1444075">
        <ele>176.0</ele>
        <time>2022-02-17T09:50:05Z</time>
      </trkpt>
      <trkpt lat="47.661644" lon="2.1444285">
        <ele>176.0</ele>
        <time>2022-02-17T09:50:06Z</time>
      </trkpt>
      <trkpt lat="47.661644" lon="2.1444473">
        <ele>175.0</ele>
        <time>2022-02-17T09:50:07Z</time>
      </trkpt>
      <trkpt lat="47.66164" lon="2.1444662">
        <ele>175.0</ele>
        <time>2022-02-17T09:50:08Z</time>
      </trkpt>
      <trkpt lat="47.66164" lon="2.1444864">
        <ele>175.0</ele>
        <time>2022-02-17T09:50:09Z</time>
      </trkpt>
      <trkpt lat="47.661636" lon="2.1445012">
        <ele>175.0</ele>
        <time>2022-02-17T09:50:10Z</time>
      </trkpt>
      <trkpt lat="47.661633" lon="2.144519">
        <ele>175.0</ele>
        <time>2022-02-17T09:50:11Z</time>
      </trkpt>
      <trkpt lat="47.661625" lon="2.1445317">
        <ele>175.0</ele>
        <time>2022-02-17T09:50:12Z</time>
      </trkpt>
      <trkpt lat="47.661625" lon="2.1445518">
        <ele>175.0</ele>
        <time>2022-02-17T09:50:13Z</time>
      </trkpt>
      <trkpt lat="47.66162" lon="2.144569">
        <ele>174.0</ele>
        <time>2022-02-17T09:50:14Z</time>
      </trkpt>
      <trkpt lat="47.661617" lon="2.144589">
        <ele>174.0</ele>
        <time>2022-02-17T09:50:15Z</time>
      </trkpt>
      <trkpt lat="47.661613" lon="2.1446114">
        <ele>174.0</ele>
        <time>2022-02-17T09:50:16Z</time>
      </trkpt>
      <trkpt lat="47.661613" lon="2.144627">
        <ele>174.0</ele>
        <time>2022-02-17T09:50:17Z</time>
      </trkpt>
      <trkpt lat="47.661613" lon="2.1446428">
        <ele>173.0</ele>
        <time>2022-02-17T09:50:18Z</time>
      </trkpt>
      <trkpt lat="47.661613" lon="2.14466">
        <ele>173.0</ele>
        <time>2022-02-17T09:50:19Z</time>
      </trkpt>
      <trkpt lat="47.66161" lon="2.1446817">
        <ele>173.0</ele>
        <time>2022-02-17T09:50:20Z</time>
      </trkpt>
      <trkpt lat="47.66161" lon="2.1446974">
        <ele>173.0</ele>
        <time>2022-02-17T09:50:21Z</time>
      </trkpt>
      <trkpt lat="47.661613" lon="2.1447139">
        <ele>172.0</ele>
        <time>2022-02-17T09:50:22Z</time>
      </trkpt>
      <trkpt lat="47.66161" lon="2.1447306">
        <ele>173.0</ele>
        <time>2022-02-17T09:50:23Z</time>
      </trkpt>
      <trkpt lat="47.66161" lon="2.144748">
        <ele>173.0</ele>
        <time>2022-02-17T09:50:24Z</time>
      </trkpt>
      <trkpt lat="47.661606" lon="2.1447651">
        <ele>173.0</ele>
        <time>2022-02-17T09:50:25Z</time>
      </trkpt>
      <trkpt lat="47.661602" lon="2.1447787">
        <ele>174.0</ele>
        <time>2022-02-17T09:50:26Z</time>
      </trkpt>
      <trkpt lat="47.661606" lon="2.144796">
        <ele>174.0</ele>
        <time>2022-02-17T09:50:27Z</time>
      </trkpt>
      <trkpt lat="47.661606" lon="2.144813">
        <ele>174.0</ele>
        <time>2022-02-17T09:50:28Z</time>
      </trkpt>
      <trkpt lat="47.661606" lon="2.144831">
        <ele>173.0</ele>
        <time>2022-02-17T09:50:29Z</time>
      </trkpt>
      <trkpt lat="47.661606" lon="2.1448462">
        <ele>173.0</ele>
        <time>2022-02-17T09:50:30Z</time>
      </trkpt>
      <trkpt lat="47.661606" lon="2.1448627">
        <ele>174.0</ele>
        <time>2022-02-17T09:50:31Z</time>
      </trkpt>
      <trkpt lat="47.661606" lon="2.1448627">
        <ele>174.0</ele>
        <time>2022-02-17T09:50:32Z</time>
      </trkpt>
      <trkpt lat="47.661606" lon="2.1448941">
        <ele>174.0</ele>
        <time>2022-02-17T09:50:33Z</time>
      </trkpt>
      <trkpt lat="47.661606" lon="2.144912">
        <ele>174.0</ele>
        <time>2022-02-17T09:50:34Z</time>
      </trkpt>
      <trkpt lat="47.66161" lon="2.1449301">
        <ele>174.0</ele>
        <time>2022-02-17T09:50:35Z</time>
      </trkpt>
      <trkpt lat="47.66161" lon="2.1449502">
        <ele>173.0</ele>
        <time>2022-02-17T09:50:36Z</time>
      </trkpt>
      <trkpt lat="47.66161" lon="2.1449673">
        <ele>173.0</ele>
        <time>2022-02-17T09:50:37Z</time>
      </trkpt>
      <trkpt lat="47.661613" lon="2.144983">
        <ele>173.0</ele>
        <time>2022-02-17T09:50:38Z</time>
      </trkpt>
      <trkpt lat="47.661613" lon="2.1450043">
        <ele>173.0</ele>
        <time>2022-02-17T09:50:39Z</time>
      </trkpt>
      <trkpt lat="47.66162" lon="2.1450195">
        <ele>172.0</ele>
        <time>2022-02-17T09:50:40Z</time>
      </trkpt>
      <trkpt lat="47.66162" lon="2.145035">
        <ele>172.0</ele>
        <time>2022-02-17T09:50:41Z</time>
      </trkpt>
      <trkpt lat="47.661625" lon="2.1450481">
        <ele>172.0</ele>
        <time>2022-02-17T09:50:42Z</time>
      </trkpt>
      <trkpt lat="47.661625" lon="2.1450636">
        <ele>171.0</ele>
        <time>2022-02-17T09:50:43Z</time>
      </trkpt>
      <trkpt lat="47.661625" lon="2.1450825">
        <ele>171.0</ele>
        <time>2022-02-17T09:50:44Z</time>
      </trkpt>
      <trkpt lat="47.661625" lon="2.1451037">
        <ele>170.0</ele>
        <time>2022-02-17T09:50:45Z</time>
      </trkpt>
      <trkpt lat="47.661625" lon="2.1451178">
        <ele>170.0</ele>
        <time>2022-02-17T09:50:46Z</time>
      </trkpt>
      <trkpt lat="47.66163" lon="2.1451292">
        <ele>170.0</ele>
        <time>2022-02-17T09:50:47Z</time>
      </trkpt>
      <trkpt lat="47.661625" lon="2.1451402">
        <ele>170.0</ele>
        <time>2022-02-17T09:50:48Z</time>
      </trkpt>
      <trkpt lat="47.66162" lon="2.1451516">
        <ele>170.0</ele>
        <time>2022-02-17T09:50:49Z</time>
      </trkpt>
      <trkpt lat="47.661617" lon="2.1451643">
        <ele>170.0</ele>
        <time>2022-02-17T09:50:50Z</time>
      </trkpt>
      <trkpt lat="47.661613" lon="2.1451778">
        <ele>170.0</ele>
        <time>2022-02-17T09:50:51Z</time>
      </trkpt>
      <trkpt lat="47.661613" lon="2.1451945">
        <ele>170.0</ele>
        <time>2022-02-17T09:50:52Z</time>
      </trkpt>
      <trkpt lat="47.661613" lon="2.1452067">
        <ele>169.0</ele>
        <time>2022-02-17T09:50:53Z</time>
      </trkpt>
      <trkpt lat="47.66162" lon="2.1452155">
        <ele>169.0</ele>
        <time>2022-02-17T09:50:54Z</time>
      </trkpt>
      <trkpt lat="47.66163" lon="2.145226">
        <ele>169.0</ele>
        <time>2022-02-17T09:50:55Z</time>
      </trkpt>
      <trkpt lat="47.661633" lon="2.1452363">
        <ele>168.0</ele>
        <time>2022-02-17T09:50:56Z</time>
      </trkpt>
      <trkpt lat="47.661636" lon="2.1452491">
        <ele>168.0</ele>
        <time>2022-02-17T09:50:57Z</time>
      </trkpt>
      <trkpt lat="47.661636" lon="2.1452622">
        <ele>167.0</ele>
        <time>2022-02-17T09:50:58Z</time>
      </trkpt>
      <trkpt lat="47.661636" lon="2.145274">
        <ele>167.0</ele>
        <time>2022-02-17T09:50:59Z</time>
      </trkpt>
      <trkpt lat="47.661636" lon="2.1452851">
        <ele>167.0</ele>
        <time>2022-02-17T09:51:00Z</time>
      </trkpt>
      <trkpt lat="47.661636" lon="2.1452851">
        <ele>167.0</ele>
        <time>2022-02-17T09:51:01Z</time>
      </trkpt>
      <trkpt lat="47.661636" lon="2.1452851">
        <ele>167.0</ele>
        <time>2022-02-17T09:51:02Z</time>
      </trkpt>
      <trkpt lat="47.66164" lon="2.1453176">
        <ele>166.0</ele>
        <time>2022-02-17T09:51:03Z</time>
      </trkpt>
      <trkpt lat="47.66164" lon="2.1453333">
        <ele>166.0</ele>
        <time>2022-02-17T09:51:04Z</time>
      </trkpt>
      <trkpt lat="47.66164" lon="2.1453495">
        <ele>166.0</ele>
        <time>2022-02-17T09:51:05Z</time>
      </trkpt>
      <trkpt lat="47.661636" lon="2.1453624">
        <ele>166.0</ele>
        <time>2022-02-17T09:51:06Z</time>
      </trkpt>
      <trkpt lat="47.661636" lon="2.145373">
        <ele>167.0</ele>
        <time>2022-02-17T09:51:07Z</time>
      </trkpt>
      <trkpt lat="47.661633" lon="2.1453836">
        <ele>166.0</ele>
        <time>2022-02-17T09:51:08Z</time>
      </trkpt>
      <trkpt lat="47.661633" lon="2.1453836">
        <ele>166.0</ele>
        <time>2022-02-17T09:51:09Z</time>
      </trkpt>
      <trkpt lat="47.661633" lon="2.1453836">
        <ele>166.0</ele>
        <time>2022-02-17T09:51:10Z</time>
      </trkpt>
      <trkpt lat="47.661633" lon="2.1454253">
        <ele>167.0</ele>
        <time>2022-02-17T09:51:11Z</time>
      </trkpt>
      <trkpt lat="47.661636" lon="2.1454437">
        <ele>166.0</ele>
        <time>2022-02-17T09:51:12Z</time>
      </trkpt>
      <trkpt lat="47.66164" lon="2.1454628">
        <ele>166.0</ele>
        <time>2022-02-17T09:51:13Z</time>
      </trkpt>
      <trkpt lat="47.66164" lon="2.145482">
        <ele>166.0</ele>
        <time>2022-02-17T09:51:14Z</time>
      </trkpt>
      <trkpt lat="47.661644" lon="2.1455002">
        <ele>165.0</ele>
        <time>2022-02-17T09:51:15Z</time>
      </trkpt>
      <trkpt lat="47.661648" lon="2.1455176">
        <ele>165.0</ele>
        <time>2022-02-17T09:51:16Z</time>
      </trkpt>
      <trkpt lat="47.661655" lon="2.145536">
        <ele>164.0</ele>
        <time>2022-02-17T09:51:17Z</time>
      </trkpt>
      <trkpt lat="47.661655" lon="2.1455503">
        <ele>165.0</ele>
        <time>2022-02-17T09:51:18Z</time>
      </trkpt>
      <trkpt lat="47.661655" lon="2.1455636">
        <ele>165.0</ele>
        <time>2022-02-17T09:51:19Z</time>
      </trkpt>
      <trkpt lat="47.66166" lon="2.145575">
        <ele>165.0</ele>
        <time>2022-02-17T09:51:20Z</time>
      </trkpt>
      <trkpt lat="47.66166" lon="2.145588">
        <ele>165.0</ele>
        <time>2022-02-17T09:51:21Z</time>
      </trkpt>
      <trkpt lat="47.66166" lon="2.1456065">
        <ele>165.0</ele>
        <time>2022-02-17T09:51:22Z</time>
      </trkpt>
      <trkpt lat="47.661655" lon="2.145629">
        <ele>165.0</ele>
        <time>2022-02-17T09:51:23Z</time>
      </trkpt>
      <trkpt lat="47.66165" lon="2.1456532">
        <ele>165.0</ele>
        <time>2022-02-17T09:51:24Z</time>
      </trkpt>
      <trkpt lat="47.661648" lon="2.145672">
        <ele>164.0</ele>
        <time>2022-02-17T09:51:25Z</time>
      </trkpt>
      <trkpt lat="47.661648" lon="2.1456873">
        <ele>164.0</ele>
        <time>2022-02-17T09:51:26Z</time>
      </trkpt>
      <trkpt lat="47.661644" lon="2.1457021">
        <ele>164.0</ele>
        <time>2022-02-17T09:51:27Z</time>
      </trkpt>
      <trkpt lat="47.661636" lon="2.1457183">
        <ele>163.0</ele>
        <time>2022-02-17T09:51:28Z</time>
      </trkpt>
      <trkpt lat="47.661636" lon="2.1457183">
        <ele>163.0</ele>
        <time>2022-02-17T09:51:29Z</time>
      </trkpt>
      <trkpt lat="47.661636" lon="2.1457183">
        <ele>163.0</ele>
        <time>2022-02-17T09:51:30Z</time>
      </trkpt>
      <trkpt lat="47.661636" lon="2.1457582">
        <ele>163.0</ele>
        <time>2022-02-17T09:51:31Z</time>
      </trkpt>
      <trkpt lat="47.661633" lon="2.1457756">
        <ele>163.0</ele>
        <time>2022-02-17T09:51:32Z</time>
      </trkpt>
      <trkpt lat="47.661633" lon="2.1457906">
        <ele>163.0</ele>
        <time>2022-02-17T09:51:33Z</time>
      </trkpt>
      <trkpt lat="47.66163" lon="2.1458037">
        <ele>163.0</ele>
        <time>2022-02-17T09:51:34Z</time>
      </trkpt>
      <trkpt lat="47.661633" lon="2.1458244">
        <ele>163.0</ele>
        <time>2022-02-17T09:51:35Z</time>
      </trkpt>
      <trkpt lat="47.66163" lon="2.145844">
        <ele>164.0</ele>
        <time>2022-02-17T09:51:36Z</time>
      </trkpt>
      <trkpt lat="47.66163" lon="2.145862">
        <ele>165.0</ele>
        <time>2022-02-17T09:51:37Z</time>
      </trkpt>
      <trkpt lat="47.661633" lon="2.1458783">
        <ele>164.0</ele>
        <time>2022-02-17T09:51:38Z</time>
      </trkpt>
      <trkpt lat="47.661633" lon="2.1458783">
        <ele>164.0</ele>
        <time>2022-02-17T09:51:39Z</time>
      </trkpt>
      <trkpt lat="47.661633" lon="2.1458783">
        <ele>164.0</ele>
        <time>2022-02-17T09:51:40Z</time>
      </trkpt>
      <trkpt lat="47.66164" lon="2.145915">
        <ele>165.0</ele>
        <time>2022-02-17T09:51:41Z</time>
      </trkpt>
      <trkpt lat="47.661644" lon="2.1459296">
        <ele>165.0</ele>
        <time>2022-02-17T09:51:42Z</time>
      </trkpt>
      <trkpt lat="47.661648" lon="2.1459434">
        <ele>166.0</ele>
        <time>2022-02-17T09:51:43Z</time>
      </trkpt>
      <trkpt lat="47.66165" lon="2.1459608">
        <ele>166.0</ele>
        <time>2022-02-17T09:51:44Z</time>
      </trkpt>
      <trkpt lat="47.66165" lon="2.1459801">
        <ele>166.0</ele>
        <time>2022-02-17T09:51:45Z</time>
      </trkpt>
      <trkpt lat="47.661648" lon="2.1459978">
        <ele>166.0</ele>
        <time>2022-02-17T09:51:46Z</time>
      </trkpt>
      <trkpt lat="47.661644" lon="2.1460145">
        <ele>166.0</ele>
        <time>2022-02-17T09:51:47Z</time>
      </trkpt>
      <trkpt lat="47.661644" lon="2.1460319">
        <ele>166.0</ele>
        <time>2022-02-17T09:51:48Z</time>
      </trkpt>
      <trkpt lat="47.661644" lon="2.1460457">
        <ele>166.0</ele>
        <time>2022-02-17T09:51:49Z</time>
      </trkpt>
      <trkpt lat="47.66164" lon="2.146061">
        <ele>166.0</ele>
        <time>2022-02-17T09:51:50Z</time>
      </trkpt>
      <trkpt lat="47.66164" lon="2.146078">
        <ele>166.0</ele>
        <time>2022-02-17T09:51:51Z</time>
      </trkpt>
      <trkpt lat="47.661636" lon="2.146092">
        <ele>166.0</ele>
        <time>2022-02-17T09:51:52Z</time>
      </trkpt>
      <trkpt lat="47.661633" lon="2.146107">
        <ele>166.0</ele>
        <time>2022-02-17T09:51:53Z</time>
      </trkpt>
      <trkpt lat="47.661633" lon="2.1461246">
        <ele>167.0</ele>
        <time>2022-02-17T09:51:54Z</time>
      </trkpt>
      <trkpt lat="47.66163" lon="2.146139">
        <ele>166.0</ele>
        <time>2022-02-17T09:51:55Z</time>
      </trkpt>
      <trkpt lat="47.66163" lon="2.1461565">
        <ele>166.0</ele>
        <time>2022-02-17T09:51:56Z</time>
      </trkpt>
      <trkpt lat="47.66163" lon="2.1461763">
        <ele>167.0</ele>
        <time>2022-02-17T09:51:57Z</time>
      </trkpt>
      <trkpt lat="47.66163" lon="2.1461763">
        <ele>167.0</ele>
        <time>2022-02-17T09:51:58Z</time>
      </trkpt>
      <trkpt lat="47.66163" lon="2.1461763">
        <ele>167.0</ele>
        <time>2022-02-17T09:51:59Z</time>
      </trkpt>
      <trkpt lat="47.661636" lon="2.146211">
        <ele>168.0</ele>
        <time>2022-02-17T09:52:00Z</time>
      </trkpt>
      <trkpt lat="47.661636" lon="2.1462288">
        <ele>168.0</ele>
        <time>2022-02-17T09:52:01Z</time>
      </trkpt>
      <trkpt lat="47.661633" lon="2.1462462">
        <ele>168.0</ele>
        <time>2022-02-17T09:52:02Z</time>
      </trkpt>
      <trkpt lat="47.661625" lon="2.1462655">
        <ele>168.0</ele>
        <time>2022-02-17T09:52:04Z</time>
      </trkpt>
      <trkpt lat="47.66162" lon="2.1462753">
        <ele>168.0</ele>
        <time>2022-02-17T09:52:05Z</time>
      </trkpt>
      <trkpt lat="47.661613" lon="2.146282">
        <ele>169.0</ele>
        <time>2022-02-17T09:52:06Z</time>
      </trkpt>
      <trkpt lat="47.66161" lon="2.1462913">
        <ele>169.0</ele>
        <time>2022-02-17T09:52:07Z</time>
      </trkpt>
      <trkpt lat="47.66161" lon="2.1462913">
        <ele>169.0</ele>
        <time>2022-02-17T09:52:08Z</time>
      </trkpt>
      <trkpt lat="47.66161" lon="2.1462958">
        <ele>169.0</ele>
        <time>2022-02-17T09:52:09Z</time>
      </trkpt>
      <trkpt lat="47.661606" lon="2.1463041">
        <ele>169.0</ele>
        <time>2022-02-17T09:52:10Z</time>
      </trkpt>
      <trkpt lat="47.6616" lon="2.1463113">
        <ele>169.0</ele>
        <time>2022-02-17T09:52:11Z</time>
      </trkpt>
      <trkpt lat="47.661587" lon="2.146316">
        <ele>169.0</ele>
        <time>2022-02-17T09:52:12Z</time>
      </trkpt>
      <trkpt lat="47.66158" lon="2.1463218">
        <ele>170.0</ele>
        <time>2022-02-17T09:52:13Z</time>
      </trkpt>
      <trkpt lat="47.66157" lon="2.1463244">
        <ele>169.0</ele>
        <time>2022-02-17T09:52:14Z</time>
      </trkpt>
      <trkpt lat="47.661564" lon="2.1463263">
        <ele>170.0</ele>
        <time>2022-02-17T09:52:15Z</time>
      </trkpt>
      <trkpt lat="47.661552" lon="2.1463344">
        <ele>170.0</ele>
        <time>2022-02-17T09:52:16Z</time>
      </trkpt>
      <trkpt lat="47.66154" lon="2.1463368">
        <ele>170.0</ele>
        <time>2022-02-17T09:52:17Z</time>
      </trkpt>
      <trkpt lat="47.661533" lon="2.146341">
        <ele>170.0</ele>
        <time>2022-02-17T09:52:18Z</time>
      </trkpt>
      <trkpt lat="47.661522" lon="2.146341">
        <ele>170.0</ele>
        <time>2022-02-17T09:52:19Z</time>
      </trkpt>
      <trkpt lat="47.661514" lon="2.146345">
        <ele>171.0</ele>
        <time>2022-02-17T09:52:20Z</time>
      </trkpt>
      <trkpt lat="47.661507" lon="2.1463504">
        <ele>171.0</ele>
        <time>2022-02-17T09:52:21Z</time>
      </trkpt>
      <trkpt lat="47.6615" lon="2.1463523">
        <ele>171.0</ele>
        <time>2022-02-17T09:52:22Z</time>
      </trkpt>
      <trkpt lat="47.6615" lon="2.1463532">
        <ele>171.0</ele>
        <time>2022-02-17T09:52:23Z</time>
      </trkpt>
      <trkpt lat="47.661495" lon="2.1463554">
        <ele>171.0</ele>
        <time>2022-02-17T09:52:24Z</time>
      </trkpt>
      <trkpt lat="47.661488" lon="2.1463616">
        <ele>171.0</ele>
        <time>2022-02-17T09:52:25Z</time>
      </trkpt>
      <trkpt lat="47.661476" lon="2.1463661">
        <ele>171.0</ele>
        <time>2022-02-17T09:52:26Z</time>
      </trkpt>
      <trkpt lat="47.66147" lon="2.1463661">
        <ele>172.0</ele>
        <time>2022-02-17T09:52:27Z</time>
      </trkpt>
      <trkpt lat="47.661457" lon="2.1463664">
        <ele>171.0</ele>
        <time>2022-02-17T09:52:28Z</time>
      </trkpt>
      <trkpt lat="47.66144" lon="2.1463695">
        <ele>171.0</ele>
        <time>2022-02-17T09:52:29Z</time>
      </trkpt>
      <trkpt lat="47.66143" lon="2.1463711">
        <ele>172.0</ele>
        <time>2022-02-17T09:52:30Z</time>
      </trkpt>
      <trkpt lat="47.661415" lon="2.146374">
        <ele>172.0</ele>
        <time>2022-02-17T09:52:31Z</time>
      </trkpt>
      <trkpt lat="47.661404" lon="2.1463754">
        <ele>172.0</ele>
        <time>2022-02-17T09:52:32Z</time>
      </trkpt>
      <trkpt lat="47.661392" lon="2.1463737">
        <ele>172.0</ele>
        <time>2022-02-17T09:52:33Z</time>
      </trkpt>
      <trkpt lat="47.661377" lon="2.1463737">
        <ele>172.0</ele>
        <time>2022-02-17T09:52:34Z</time>
      </trkpt>
      <trkpt lat="47.661366" lon="2.1463754">
        <ele>173.0</ele>
        <time>2022-02-17T09:52:35Z</time>
      </trkpt>
      <trkpt lat="47.661358" lon="2.146379">
        <ele>173.0</ele>
        <time>2022-02-17T09:52:36Z</time>
      </trkpt>
      <trkpt lat="47.66135" lon="2.146381">
        <ele>173.0</ele>
        <time>2022-02-17T09:52:37Z</time>
      </trkpt>
      <trkpt lat="47.66134" lon="2.1463778">
        <ele>173.0</ele>
        <time>2022-02-17T09:52:38Z</time>
      </trkpt>
      <trkpt lat="47.661327" lon="2.146381">
        <ele>173.0</ele>
        <time>2022-02-17T09:52:39Z</time>
      </trkpt>
      <trkpt lat="47.661316" lon="2.1463814">
        <ele>173.0</ele>
        <time>2022-02-17T09:52:40Z</time>
      </trkpt>
      <trkpt lat="47.66131" lon="2.1463869">
        <ele>173.0</ele>
        <time>2022-02-17T09:52:41Z</time>
      </trkpt>
      <trkpt lat="47.661297" lon="2.1463897">
        <ele>173.0</ele>
        <time>2022-02-17T09:52:42Z</time>
      </trkpt>
      <trkpt lat="47.66129" lon="2.146388">
        <ele>173.0</ele>
        <time>2022-02-17T09:52:43Z</time>
      </trkpt>
      <trkpt lat="47.661278" lon="2.1463933">
        <ele>174.0</ele>
        <time>2022-02-17T09:52:44Z</time>
      </trkpt>
      <trkpt lat="47.66127" lon="2.1463954">
        <ele>174.0</ele>
        <time>2022-02-17T09:52:45Z</time>
      </trkpt>
      <trkpt lat="47.661263" lon="2.1463995">
        <ele>174.0</ele>
        <time>2022-02-17T09:52:46Z</time>
      </trkpt>
      <trkpt lat="47.66125" lon="2.1464036">
        <ele>175.0</ele>
        <time>2022-02-17T09:52:47Z</time>
      </trkpt>
      <trkpt lat="47.661243" lon="2.1464057">
        <ele>175.0</ele>
        <time>2022-02-17T09:52:48Z</time>
      </trkpt>
      <trkpt lat="47.661232" lon="2.1464083">
        <ele>175.0</ele>
        <time>2022-02-17T09:52:49Z</time>
      </trkpt>
      <trkpt lat="47.66122" lon="2.1464088">
        <ele>175.0</ele>
        <time>2022-02-17T09:52:50Z</time>
      </trkpt>
      <trkpt lat="47.66121" lon="2.146414">
        <ele>176.0</ele>
        <time>2022-02-17T09:52:51Z</time>
      </trkpt>
      <trkpt lat="47.6612" lon="2.146421">
        <ele>176.0</ele>
        <time>2022-02-17T09:52:52Z</time>
      </trkpt>
      <trkpt lat="47.661194" lon="2.1464264">
        <ele>177.0</ele>
        <time>2022-02-17T09:52:53Z</time>
      </trkpt>
      <trkpt lat="47.661182" lon="2.1464312">
        <ele>177.0</ele>
        <time>2022-02-17T09:52:54Z</time>
      </trkpt>
      <trkpt lat="47.661167" lon="2.1464372">
        <ele>177.0</ele>
        <time>2022-02-17T09:52:55Z</time>
      </trkpt>
      <trkpt lat="47.661156" lon="2.1464415">
        <ele>177.0</ele>
        <time>2022-02-17T09:52:56Z</time>
      </trkpt>
      <trkpt lat="47.661144" lon="2.1464412">
        <ele>177.0</ele>
        <time>2022-02-17T09:52:57Z</time>
      </trkpt>
      <trkpt lat="47.661133" lon="2.1464412">
        <ele>178.0</ele>
        <time>2022-02-17T09:52:58Z</time>
      </trkpt>
      <trkpt lat="47.661125" lon="2.1464417">
        <ele>178.0</ele>
        <time>2022-02-17T09:52:59Z</time>
      </trkpt>
      <trkpt lat="47.661114" lon="2.146448">
        <ele>178.0</ele>
        <time>2022-02-17T09:53:00Z</time>
      </trkpt>
      <trkpt lat="47.6611" lon="2.1464558">
        <ele>178.0</ele>
        <time>2022-02-17T09:53:01Z</time>
      </trkpt>
      <trkpt lat="47.66109" lon="2.1464574">
        <ele>179.0</ele>
        <time>2022-02-17T09:53:02Z</time>
      </trkpt>
      <trkpt lat="47.661076" lon="2.1464567">
        <ele>179.0</ele>
        <time>2022-02-17T09:53:03Z</time>
      </trkpt>
      <trkpt lat="47.661064" lon="2.1464548">
        <ele>179.0</ele>
        <time>2022-02-17T09:53:04Z</time>
      </trkpt>
      <trkpt lat="47.661053" lon="2.1464567">
        <ele>179.0</ele>
        <time>2022-02-17T09:53:05Z</time>
      </trkpt>
      <trkpt lat="47.66104" lon="2.1464572">
        <ele>179.0</ele>
        <time>2022-02-17T09:53:06Z</time>
      </trkpt>
      <trkpt lat="47.66103" lon="2.1464555">
        <ele>179.0</ele>
        <time>2022-02-17T09:53:07Z</time>
      </trkpt>
      <trkpt lat="47.661015" lon="2.1464574">
        <ele>180.0</ele>
        <time>2022-02-17T09:53:08Z</time>
      </trkpt>
      <trkpt lat="47.661" lon="2.1464627">
        <ele>180.0</ele>
        <time>2022-02-17T09:53:09Z</time>
      </trkpt>
      <trkpt lat="47.660984" lon="2.146466">
        <ele>180.0</ele>
        <time>2022-02-17T09:53:10Z</time>
      </trkpt>
      <trkpt lat="47.660973" lon="2.1464653">
        <ele>180.0</ele>
        <time>2022-02-17T09:53:11Z</time>
      </trkpt>
      <trkpt lat="47.66096" lon="2.1464648">
        <ele>180.0</ele>
        <time>2022-02-17T09:53:12Z</time>
      </trkpt>
      <trkpt lat="47.660946" lon="2.1464653">
        <ele>180.0</ele>
        <time>2022-02-17T09:53:13Z</time>
      </trkpt>
      <trkpt lat="47.66094" lon="2.146465">
        <ele>180.0</ele>
        <time>2022-02-17T09:53:14Z</time>
      </trkpt>
      <trkpt lat="47.660927" lon="2.1464636">
        <ele>180.0</ele>
        <time>2022-02-17T09:53:15Z</time>
      </trkpt>
      <trkpt lat="47.660915" lon="2.146469">
        <ele>181.0</ele>
        <time>2022-02-17T09:53:16Z</time>
      </trkpt>
      <trkpt lat="47.6609" lon="2.1464756">
        <ele>181.0</ele>
        <time>2022-02-17T09:53:17Z</time>
      </trkpt>
      <trkpt lat="47.660892" lon="2.1464794">
        <ele>181.0</ele>
        <time>2022-02-17T09:53:18Z</time>
      </trkpt>
      <trkpt lat="47.660877" lon="2.1464825">
        <ele>181.0</ele>
        <time>2022-02-17T09:53:19Z</time>
      </trkpt>
      <trkpt lat="47.660866" lon="2.146484">
        <ele>182.0</ele>
        <time>2022-02-17T09:53:20Z</time>
      </trkpt>
      <trkpt lat="47.66085" lon="2.146485">
        <ele>182.0</ele>
        <time>2022-02-17T09:53:21Z</time>
      </trkpt>
      <trkpt lat="47.66084" lon="2.1464827">
        <ele>182.0</ele>
        <time>2022-02-17T09:53:22Z</time>
      </trkpt>
      <trkpt lat="47.660824" lon="2.1464818">
        <ele>181.0</ele>
        <time>2022-02-17T09:53:23Z</time>
      </trkpt>
      <trkpt lat="47.660812" lon="2.1464813">
        <ele>182.0</ele>
        <time>2022-02-17T09:53:24Z</time>
      </trkpt>
      <trkpt lat="47.6608" lon="2.1464806">
        <ele>181.0</ele>
        <time>2022-02-17T09:53:25Z</time>
      </trkpt>
      <trkpt lat="47.66079" lon="2.1464846">
        <ele>182.0</ele>
        <time>2022-02-17T09:53:26Z</time>
      </trkpt>
      <trkpt lat="47.66078" lon="2.1464908">
        <ele>182.0</ele>
        <time>2022-02-17T09:53:27Z</time>
      </trkpt>
      <trkpt lat="47.66077" lon="2.146496">
        <ele>181.0</ele>
        <time>2022-02-17T09:53:28Z</time>
      </trkpt>
      <trkpt lat="47.660763" lon="2.1464994">
        <ele>182.0</ele>
        <time>2022-02-17T09:53:29Z</time>
      </trkpt>
      <trkpt lat="47.660748" lon="2.1464965">
        <ele>183.0</ele>
        <time>2022-02-17T09:53:30Z</time>
      </trkpt>
      <trkpt lat="47.660736" lon="2.1464958">
        <ele>183.0</ele>
        <time>2022-02-17T09:53:31Z</time>
      </trkpt>
      <trkpt lat="47.66073" lon="2.146494">
        <ele>183.0</ele>
        <time>2022-02-17T09:53:32Z</time>
      </trkpt>
      <trkpt lat="47.660717" lon="2.1464953">
        <ele>183.0</ele>
        <time>2022-02-17T09:53:33Z</time>
      </trkpt>
      <trkpt lat="47.6607" lon="2.146497">
        <ele>183.0</ele>
        <time>2022-02-17T09:53:34Z</time>
      </trkpt>
      <trkpt lat="47.660686" lon="2.1465015">
        <ele>183.0</ele>
        <time>2022-02-17T09:53:35Z</time>
      </trkpt>
      <trkpt lat="47.660675" lon="2.1465073">
        <ele>183.0</ele>
        <time>2022-02-17T09:53:36Z</time>
      </trkpt>
      <trkpt lat="47.660667" lon="2.1465087">
        <ele>183.0</ele>
        <time>2022-02-17T09:53:37Z</time>
      </trkpt>
      <trkpt lat="47.660656" lon="2.1465101">
        <ele>183.0</ele>
        <time>2022-02-17T09:53:38Z</time>
      </trkpt>
      <trkpt lat="47.66064" lon="2.146513">
        <ele>183.0</ele>
        <time>2022-02-17T09:53:39Z</time>
      </trkpt>
      <trkpt lat="47.66063" lon="2.1465163">
        <ele>183.0</ele>
        <time>2022-02-17T09:53:40Z</time>
      </trkpt>
      <trkpt lat="47.660618" lon="2.1465185">
        <ele>183.0</ele>
        <time>2022-02-17T09:53:41Z</time>
      </trkpt>
      <trkpt lat="47.66061" lon="2.146517">
        <ele>183.0</ele>
        <time>2022-02-17T09:53:42Z</time>
      </trkpt>
      <trkpt lat="47.66061" lon="2.1465173">
        <ele>183.0</ele>
        <time>2022-02-17T09:53:43Z</time>
      </trkpt>
      <trkpt lat="47.66061" lon="2.1465173">
        <ele>183.0</ele>
        <time>2022-02-17T09:53:44Z</time>
      </trkpt>
      <trkpt lat="47.66061" lon="2.1465173">
        <ele>183.0</ele>
        <time>2022-02-17T09:53:45Z</time>
      </trkpt>
      <trkpt lat="47.66059" lon="2.1465232">
        <ele>183.0</ele>
        <time>2022-02-17T09:53:46Z</time>
      </trkpt>
      <trkpt lat="47.66058" lon="2.1465235">
        <ele>183.0</ele>
        <time>2022-02-17T09:53:47Z</time>
      </trkpt>
      <trkpt lat="47.660564" lon="2.1465254">
        <ele>183.0</ele>
        <time>2022-02-17T09:53:48Z</time>
      </trkpt>
      <trkpt lat="47.660553" lon="2.1465237">
        <ele>184.0</ele>
        <time>2022-02-17T09:53:49Z</time>
      </trkpt>
      <trkpt lat="47.660545" lon="2.1465282">
        <ele>184.0</ele>
        <time>2022-02-17T09:53:50Z</time>
      </trkpt>
      <trkpt lat="47.660534" lon="2.146532">
        <ele>184.0</ele>
        <time>2022-02-17T09:53:51Z</time>
      </trkpt>
      <trkpt lat="47.660522" lon="2.1465318">
        <ele>183.0</ele>
        <time>2022-02-17T09:53:52Z</time>
      </trkpt>
      <trkpt lat="47.660507" lon="2.146533">
        <ele>183.0</ele>
        <time>2022-02-17T09:53:53Z</time>
      </trkpt>
      <trkpt lat="47.66051" lon="2.146534">
        <ele>183.0</ele>
        <time>2022-02-17T09:53:54Z</time>
      </trkpt>
      <trkpt lat="47.6605" lon="2.146538">
        <ele>184.0</ele>
        <time>2022-02-17T09:53:55Z</time>
      </trkpt>
      <trkpt lat="47.66049" lon="2.1465418">
        <ele>184.0</ele>
        <time>2022-02-17T09:53:56Z</time>
      </trkpt>
      <trkpt lat="47.66049" lon="2.1465418">
        <ele>184.0</ele>
        <time>2022-02-17T09:53:57Z</time>
      </trkpt>
      <trkpt lat="47.66049" lon="2.1465418">
        <ele>184.0</ele>
        <time>2022-02-17T09:53:58Z</time>
      </trkpt>
      <trkpt lat="47.660458" lon="2.1465619">
        <ele>185.0</ele>
        <time>2022-02-17T09:53:59Z</time>
      </trkpt>
      <trkpt lat="47.660442" lon="2.146562">
        <ele>185.0</ele>
        <time>2022-02-17T09:54:00Z</time>
      </trkpt>
      <trkpt lat="47.660423" lon="2.146571">
        <ele>185.0</ele>
        <time>2022-02-17T09:54:01Z</time>
      </trkpt>
      <trkpt lat="47.660423" lon="2.1465716">
        <ele>185.0</ele>
        <time>2022-02-17T09:54:02Z</time>
      </trkpt>
      <trkpt lat="47.660416" lon="2.1465697">
        <ele>184.0</ele>
        <time>2022-02-17T09:54:03Z</time>
      </trkpt>
      <trkpt lat="47.6604" lon="2.1465743">
        <ele>185.0</ele>
        <time>2022-02-17T09:54:04Z</time>
      </trkpt>
      <trkpt lat="47.66039" lon="2.1465719">
        <ele>185.0</ele>
        <time>2022-02-17T09:54:05Z</time>
      </trkpt>
      <trkpt lat="47.660374" lon="2.1465735">
        <ele>185.0</ele>
        <time>2022-02-17T09:54:06Z</time>
      </trkpt>
      <trkpt lat="47.660362" lon="2.1465788">
        <ele>185.0</ele>
        <time>2022-02-17T09:54:07Z</time>
      </trkpt>
      <trkpt lat="47.660355" lon="2.146583">
        <ele>185.0</ele>
        <time>2022-02-17T09:54:08Z</time>
      </trkpt>
      <trkpt lat="47.66034" lon="2.146588">
        <ele>185.0</ele>
        <time>2022-02-17T09:54:09Z</time>
      </trkpt>
      <trkpt lat="47.66034" lon="2.1465883">
        <ele>185.0</ele>
        <time>2022-02-17T09:54:10Z</time>
      </trkpt>
      <trkpt lat="47.66034" lon="2.1465883">
        <ele>185.0</ele>
        <time>2022-02-17T09:54:11Z</time>
      </trkpt>
      <trkpt lat="47.66034" lon="2.1465883">
        <ele>185.0</ele>
        <time>2022-02-17T09:54:12Z</time>
      </trkpt>
      <trkpt lat="47.660316" lon="2.1466029">
        <ele>186.0</ele>
        <time>2022-02-17T09:54:13Z</time>
      </trkpt>
      <trkpt lat="47.660305" lon="2.1466043">
        <ele>186.0</ele>
        <time>2022-02-17T09:54:14Z</time>
      </trkpt>
      <trkpt lat="47.660294" lon="2.1466093">
        <ele>186.0</ele>
        <time>2022-02-17T09:54:15Z</time>
      </trkpt>
      <trkpt lat="47.660282" lon="2.1466112">
        <ele>186.0</ele>
        <time>2022-02-17T09:54:16Z</time>
      </trkpt>
      <trkpt lat="47.66027" lon="2.146605">
        <ele>186.0</ele>
        <time>2022-02-17T09:54:17Z</time>
      </trkpt>
      <trkpt lat="47.66026" lon="2.146602">
        <ele>186.0</ele>
        <time>2022-02-17T09:54:18Z</time>
      </trkpt>
      <trkpt lat="47.660248" lon="2.1466007">
        <ele>187.0</ele>
        <time>2022-02-17T09:54:19Z</time>
      </trkpt>
      <trkpt lat="47.660236" lon="2.1465993">
        <ele>188.0</ele>
        <time>2022-02-17T09:54:20Z</time>
      </trkpt>
      <trkpt lat="47.660225" lon="2.1465936">
        <ele>188.0</ele>
        <time>2022-02-17T09:54:21Z</time>
      </trkpt>
      <trkpt lat="47.66021" lon="2.1465952">
        <ele>188.0</ele>
        <time>2022-02-17T09:54:22Z</time>
      </trkpt>
      <trkpt lat="47.660194" lon="2.1466012">
        <ele>188.0</ele>
        <time>2022-02-17T09:54:23Z</time>
      </trkpt>
      <trkpt lat="47.660175" lon="2.1466072">
        <ele>187.0</ele>
        <time>2022-02-17T09:54:24Z</time>
      </trkpt>
      <trkpt lat="47.66016" lon="2.146613">
        <ele>187.0</ele>
        <time>2022-02-17T09:54:25Z</time>
      </trkpt>
      <trkpt lat="47.660145" lon="2.146619">
        <ele>187.0</ele>
        <time>2022-02-17T09:54:26Z</time>
      </trkpt>
      <trkpt lat="47.66013" lon="2.1466203">
        <ele>187.0</ele>
        <time>2022-02-17T09:54:27Z</time>
      </trkpt>
      <trkpt lat="47.660122" lon="2.1466217">
        <ele>187.0</ele>
        <time>2022-02-17T09:54:28Z</time>
      </trkpt>
      <trkpt lat="47.66011" lon="2.1466236">
        <ele>187.0</ele>
        <time>2022-02-17T09:54:29Z</time>
      </trkpt>
      <trkpt lat="47.6601" lon="2.146626">
        <ele>187.0</ele>
        <time>2022-02-17T09:54:30Z</time>
      </trkpt>
      <trkpt lat="47.660088" lon="2.1466286">
        <ele>188.0</ele>
        <time>2022-02-17T09:54:31Z</time>
      </trkpt>
      <trkpt lat="47.660076" lon="2.1466298">
        <ele>189.0</ele>
        <time>2022-02-17T09:54:32Z</time>
      </trkpt>
      <trkpt lat="47.66006" lon="2.146631">
        <ele>189.0</ele>
        <time>2022-02-17T09:54:33Z</time>
      </trkpt>
      <trkpt lat="47.660046" lon="2.1466308">
        <ele>189.0</ele>
        <time>2022-02-17T09:54:34Z</time>
      </trkpt>
      <trkpt lat="47.660034" lon="2.146632">
        <ele>189.0</ele>
        <time>2022-02-17T09:54:35Z</time>
      </trkpt>
      <trkpt lat="47.660023" lon="2.1466334">
        <ele>190.0</ele>
        <time>2022-02-17T09:54:36Z</time>
      </trkpt>
      <trkpt lat="47.660007" lon="2.1466315">
        <ele>189.0</ele>
        <time>2022-02-17T09:54:37Z</time>
      </trkpt>
      <trkpt lat="47.659992" lon="2.1466286">
        <ele>188.0</ele>
        <time>2022-02-17T09:54:38Z</time>
      </trkpt>
      <trkpt lat="47.659977" lon="2.1466277">
        <ele>188.0</ele>
        <time>2022-02-17T09:54:39Z</time>
      </trkpt>
      <trkpt lat="47.65996" lon="2.1466343">
        <ele>188.0</ele>
        <time>2022-02-17T09:54:40Z</time>
      </trkpt>
      <trkpt lat="47.659946" lon="2.1466389">
        <ele>188.0</ele>
        <time>2022-02-17T09:54:41Z</time>
      </trkpt>
      <trkpt lat="47.65993" lon="2.146644">
        <ele>189.0</ele>
        <time>2022-02-17T09:54:42Z</time>
      </trkpt>
      <trkpt lat="47.659916" lon="2.1466458">
        <ele>189.0</ele>
        <time>2022-02-17T09:54:43Z</time>
      </trkpt>
      <trkpt lat="47.65991" lon="2.1466455">
        <ele>189.0</ele>
        <time>2022-02-17T09:54:44Z</time>
      </trkpt>
      <trkpt lat="47.659897" lon="2.1466439">
        <ele>189.0</ele>
        <time>2022-02-17T09:54:45Z</time>
      </trkpt>
      <trkpt lat="47.659897" lon="2.1466439">
        <ele>189.0</ele>
        <time>2022-02-17T09:54:46Z</time>
      </trkpt>
      <trkpt lat="47.659897" lon="2.1466439">
        <ele>189.0</ele>
        <time>2022-02-17T09:54:47Z</time>
      </trkpt>
      <trkpt lat="47.659866" lon="2.1466448">
        <ele>190.0</ele>
        <time>2022-02-17T09:54:48Z</time>
      </trkpt>
      <trkpt lat="47.659855" lon="2.1466453">
        <ele>190.0</ele>
        <time>2022-02-17T09:54:49Z</time>
      </trkpt>
      <trkpt lat="47.659843" lon="2.146643">
        <ele>190.0</ele>
        <time>2022-02-17T09:54:50Z</time>
      </trkpt>
      <trkpt lat="47.65983" lon="2.14664">
        <ele>190.0</ele>
        <time>2022-02-17T09:54:51Z</time>
      </trkpt>
      <trkpt lat="47.659813" lon="2.1466367">
        <ele>190.0</ele>
        <time>2022-02-17T09:54:52Z</time>
      </trkpt>
      <trkpt lat="47.6598" lon="2.146634">
        <ele>190.0</ele>
        <time>2022-02-17T09:54:53Z</time>
      </trkpt>
      <trkpt lat="47.65979" lon="2.1466396">
        <ele>190.0</ele>
        <time>2022-02-17T09:54:54Z</time>
      </trkpt>
      <trkpt lat="47.659775" lon="2.1466453">
        <ele>190.0</ele>
        <time>2022-02-17T09:54:55Z</time>
      </trkpt>
      <trkpt lat="47.65976" lon="2.1466484">
        <ele>191.0</ele>
        <time>2022-02-17T09:54:56Z</time>
      </trkpt>
      <trkpt lat="47.659748" lon="2.146649">
        <ele>190.0</ele>
        <time>2022-02-17T09:54:57Z</time>
      </trkpt>
      <trkpt lat="47.659733" lon="2.1466513">
        <ele>190.0</ele>
        <time>2022-02-17T09:54:58Z</time>
      </trkpt>
      <trkpt lat="47.65972" lon="2.146653">
        <ele>190.0</ele>
        <time>2022-02-17T09:54:59Z</time>
      </trkpt>
      <trkpt lat="47.659714" lon="2.146653">
        <ele>190.0</ele>
        <time>2022-02-17T09:55:00Z</time>
      </trkpt>
      <trkpt lat="47.659706" lon="2.146655">
        <ele>190.0</ele>
        <time>2022-02-17T09:55:01Z</time>
      </trkpt>
      <trkpt lat="47.6597" lon="2.146658">
        <ele>190.0</ele>
        <time>2022-02-17T09:55:02Z</time>
      </trkpt>
      <trkpt lat="47.659687" lon="2.1466618">
        <ele>190.0</ele>
        <time>2022-02-17T09:55:03Z</time>
      </trkpt>
      <trkpt lat="47.659676" lon="2.1466672">
        <ele>191.0</ele>
        <time>2022-02-17T09:55:04Z</time>
      </trkpt>
      <trkpt lat="47.659668" lon="2.146668">
        <ele>191.0</ele>
        <time>2022-02-17T09:55:05Z</time>
      </trkpt>
      <trkpt lat="47.659668" lon="2.146668">
        <ele>191.0</ele>
        <time>2022-02-17T09:55:06Z</time>
      </trkpt>
      <trkpt lat="47.65965" lon="2.1466684">
        <ele>191.0</ele>
        <time>2022-02-17T09:55:07Z</time>
      </trkpt>
      <trkpt lat="47.659634" lon="2.14667">
        <ele>191.0</ele>
        <time>2022-02-17T09:55:08Z</time>
      </trkpt>
      <trkpt lat="47.659626" lon="2.146671">
        <ele>191.0</ele>
        <time>2022-02-17T09:55:09Z</time>
      </trkpt>
      <trkpt lat="47.659615" lon="2.1466703">
        <ele>191.0</ele>
        <time>2022-02-17T09:55:10Z</time>
      </trkpt>
      <trkpt lat="47.659603" lon="2.1466725">
        <ele>192.0</ele>
        <time>2022-02-17T09:55:11Z</time>
      </trkpt>
      <trkpt lat="47.65959" lon="2.1466746">
        <ele>192.0</ele>
        <time>2022-02-17T09:55:12Z</time>
      </trkpt>
      <trkpt lat="47.65958" lon="2.1466787">
        <ele>192.0</ele>
        <time>2022-02-17T09:55:13Z</time>
      </trkpt>
      <trkpt lat="47.65956" lon="2.1466856">
        <ele>192.0</ele>
        <time>2022-02-17T09:55:14Z</time>
      </trkpt>
      <trkpt lat="47.65955" lon="2.146694">
        <ele>192.0</ele>
        <time>2022-02-17T09:55:15Z</time>
      </trkpt>
      <trkpt lat="47.65954" lon="2.1466982">
        <ele>192.0</ele>
        <time>2022-02-17T09:55:16Z</time>
      </trkpt>
      <trkpt lat="47.65953" lon="2.1466997">
        <ele>192.0</ele>
        <time>2022-02-17T09:55:17Z</time>
      </trkpt>
      <trkpt lat="47.65952" lon="2.1467023">
        <ele>192.0</ele>
        <time>2022-02-17T09:55:18Z</time>
      </trkpt>
      <trkpt lat="47.659508" lon="2.146701">
        <ele>192.0</ele>
        <time>2022-02-17T09:55:19Z</time>
      </trkpt>
      <trkpt lat="47.659496" lon="2.1467042">
        <ele>193.0</ele>
        <time>2022-02-17T09:55:20Z</time>
      </trkpt>
      <trkpt lat="47.659485" lon="2.1467097">
        <ele>193.0</ele>
        <time>2022-02-17T09:55:21Z</time>
      </trkpt>
      <trkpt lat="47.659473" lon="2.146709">
        <ele>193.0</ele>
        <time>2022-02-17T09:55:22Z</time>
      </trkpt>
      <trkpt lat="47.659462" lon="2.1467104">
        <ele>193.0</ele>
        <time>2022-02-17T09:55:23Z</time>
      </trkpt>
      <trkpt lat="47.65945" lon="2.1467109">
        <ele>193.0</ele>
        <time>2022-02-17T09:55:24Z</time>
      </trkpt>
      <trkpt lat="47.65945" lon="2.1467109">
        <ele>193.0</ele>
        <time>2022-02-17T09:55:25Z</time>
      </trkpt>
      <trkpt lat="47.65945" lon="2.1467109">
        <ele>193.0</ele>
        <time>2022-02-17T09:55:26Z</time>
      </trkpt>
      <trkpt lat="47.659428" lon="2.1467142">
        <ele>193.0</ele>
        <time>2022-02-17T09:55:27Z</time>
      </trkpt>
      <trkpt lat="47.659416" lon="2.146717">
        <ele>194.0</ele>
        <time>2022-02-17T09:55:28Z</time>
      </trkpt>
      <trkpt lat="47.659405" lon="2.1467183">
        <ele>194.0</ele>
        <time>2022-02-17T09:55:29Z</time>
      </trkpt>
      <trkpt lat="47.659397" lon="2.1467118">
        <ele>194.0</ele>
        <time>2022-02-17T09:55:30Z</time>
      </trkpt>
      <trkpt lat="47.65939" lon="2.1467083">
        <ele>194.0</ele>
        <time>2022-02-17T09:55:31Z</time>
      </trkpt>
      <trkpt lat="47.659378" lon="2.1467113">
        <ele>195.0</ele>
        <time>2022-02-17T09:55:32Z</time>
      </trkpt>
      <trkpt lat="47.659367" lon="2.1467128">
        <ele>195.0</ele>
        <time>2022-02-17T09:55:33Z</time>
      </trkpt>
      <trkpt lat="47.659355" lon="2.1467152">
        <ele>195.0</ele>
        <time>2022-02-17T09:55:34Z</time>
      </trkpt>
      <trkpt lat="47.65935" lon="2.1467192">
        <ele>194.0</ele>
        <time>2022-02-17T09:55:35Z</time>
      </trkpt>
      <trkpt lat="47.659336" lon="2.1467183">
        <ele>194.0</ele>
        <time>2022-02-17T09:55:36Z</time>
      </trkpt>
      <trkpt lat="47.659325" lon="2.1467214">
        <ele>194.0</ele>
        <time>2022-02-17T09:55:37Z</time>
      </trkpt>
      <trkpt lat="47.659313" lon="2.1467268">
        <ele>194.0</ele>
        <time>2022-02-17T09:55:38Z</time>
      </trkpt>
      <trkpt lat="47.6593" lon="2.1467283">
        <ele>193.0</ele>
        <time>2022-02-17T09:55:39Z</time>
      </trkpt>
      <trkpt lat="47.65929" lon="2.1467283">
        <ele>193.0</ele>
        <time>2022-02-17T09:55:40Z</time>
      </trkpt>
      <trkpt lat="47.65928" lon="2.1467323">
        <ele>193.0</ele>
        <time>2022-02-17T09:55:41Z</time>
      </trkpt>
      <trkpt lat="47.659264" lon="2.1467319">
        <ele>193.0</ele>
        <time>2022-02-17T09:55:42Z</time>
      </trkpt>
      <trkpt lat="47.65925" lon="2.1467323">
        <ele>193.0</ele>
        <time>2022-02-17T09:55:43Z</time>
      </trkpt>
      <trkpt lat="47.659237" lon="2.146733">
        <ele>193.0</ele>
        <time>2022-02-17T09:55:44Z</time>
      </trkpt>
      <trkpt lat="47.659218" lon="2.1467307">
        <ele>193.0</ele>
        <time>2022-02-17T09:55:45Z</time>
      </trkpt>
      <trkpt lat="47.659203" lon="2.1467292">
        <ele>192.0</ele>
        <time>2022-02-17T09:55:46Z</time>
      </trkpt>
      <trkpt lat="47.65919" lon="2.146729">
        <ele>191.0</ele>
        <time>2022-02-17T09:55:47Z</time>
      </trkpt>
      <trkpt lat="47.659176" lon="2.1467264">
        <ele>190.0</ele>
        <time>2022-02-17T09:55:48Z</time>
      </trkpt>
      <trkpt lat="47.659164" lon="2.1467216">
        <ele>190.0</ele>
        <time>2022-02-17T09:55:49Z</time>
      </trkpt>
      <trkpt lat="47.659153" lon="2.146723">
        <ele>190.0</ele>
        <time>2022-02-17T09:55:50Z</time>
      </trkpt>
      <trkpt lat="47.659138" lon="2.1467211">
        <ele>190.0</ele>
        <time>2022-02-17T09:55:51Z</time>
      </trkpt>
      <trkpt lat="47.65913" lon="2.146723">
        <ele>190.0</ele>
        <time>2022-02-17T09:55:52Z</time>
      </trkpt>
      <trkpt lat="47.659122" lon="2.1467247">
        <ele>190.0</ele>
        <time>2022-02-17T09:55:53Z</time>
      </trkpt>
      <trkpt lat="47.659115" lon="2.146725">
        <ele>190.0</ele>
        <time>2022-02-17T09:55:54Z</time>
      </trkpt>
      <trkpt lat="47.659103" lon="2.1467242">
        <ele>190.0</ele>
        <time>2022-02-17T09:55:55Z</time>
      </trkpt>
      <trkpt lat="47.659103" lon="2.1467242">
        <ele>190.0</ele>
        <time>2022-02-17T09:55:56Z</time>
      </trkpt>
      <trkpt lat="47.65908" lon="2.1467156">
        <ele>190.0</ele>
        <time>2022-02-17T09:55:57Z</time>
      </trkpt>
      <trkpt lat="47.65907" lon="2.1467159">
        <ele>190.0</ele>
        <time>2022-02-17T09:55:58Z</time>
      </trkpt>
      <trkpt lat="47.659058" lon="2.146716">
        <ele>190.0</ele>
        <time>2022-02-17T09:55:59Z</time>
      </trkpt>
      <trkpt lat="47.659042" lon="2.1467123">
        <ele>190.0</ele>
        <time>2022-02-17T09:56:00Z</time>
      </trkpt>
      <trkpt lat="47.659027" lon="2.1467063">
        <ele>190.0</ele>
        <time>2022-02-17T09:56:01Z</time>
      </trkpt>
      <trkpt lat="47.65901" lon="2.1467052">
        <ele>191.0</ele>
        <time>2022-02-17T09:56:02Z</time>
      </trkpt>
      <trkpt lat="47.658997" lon="2.146704">
        <ele>191.0</ele>
        <time>2022-02-17T09:56:03Z</time>
      </trkpt>
      <trkpt lat="47.65898" lon="2.1467037">
        <ele>191.0</ele>
        <time>2022-02-17T09:56:04Z</time>
      </trkpt>
      <trkpt lat="47.658966" lon="2.146704">
        <ele>191.0</ele>
        <time>2022-02-17T09:56:05Z</time>
      </trkpt>
      <trkpt lat="47.65895" lon="2.1467004">
        <ele>190.0</ele>
        <time>2022-02-17T09:56:06Z</time>
      </trkpt>
      <trkpt lat="47.65894" lon="2.1466942">
        <ele>190.0</ele>
        <time>2022-02-17T09:56:07Z</time>
      </trkpt>
      <trkpt lat="47.658924" lon="2.1466904">
        <ele>190.0</ele>
        <time>2022-02-17T09:56:08Z</time>
      </trkpt>
      <trkpt lat="47.658913" lon="2.1466792">
        <ele>190.0</ele>
        <time>2022-02-17T09:56:09Z</time>
      </trkpt>
      <trkpt lat="47.6589" lon="2.1466691">
        <ele>190.0</ele>
        <time>2022-02-17T09:56:10Z</time>
      </trkpt>
      <trkpt lat="47.65889" lon="2.1466622">
        <ele>189.0</ele>
        <time>2022-02-17T09:56:11Z</time>
      </trkpt>
      <trkpt lat="47.65888" lon="2.1466532">
        <ele>189.0</ele>
        <time>2022-02-17T09:56:12Z</time>
      </trkpt>
      <trkpt lat="47.658867" lon="2.1466475">
        <ele>189.0</ele>
        <time>2022-02-17T09:56:13Z</time>
      </trkpt>
      <trkpt lat="47.658855" lon="2.1466372">
        <ele>188.0</ele>
        <time>2022-02-17T09:56:14Z</time>
      </trkpt>
      <trkpt lat="47.658844" lon="2.1466253">
        <ele>188.0</ele>
        <time>2022-02-17T09:56:15Z</time>
      </trkpt>
      <trkpt lat="47.658833" lon="2.1466177">
        <ele>188.0</ele>
        <time>2022-02-17T09:56:16Z</time>
      </trkpt>
      <trkpt lat="47.65882" lon="2.1466107">
        <ele>188.0</ele>
        <time>2022-02-17T09:56:17Z</time>
      </trkpt>
      <trkpt lat="47.65881" lon="2.146605">
        <ele>188.0</ele>
        <time>2022-02-17T09:56:18Z</time>
      </trkpt>
      <trkpt lat="47.658802" lon="2.1465971">
        <ele>188.0</ele>
        <time>2022-02-17T09:56:19Z</time>
      </trkpt>
      <trkpt lat="47.65879" lon="2.1465895">
        <ele>187.0</ele>
        <time>2022-02-17T09:56:20Z</time>
      </trkpt>
      <trkpt lat="47.658775" lon="2.1465852">
        <ele>187.0</ele>
        <time>2022-02-17T09:56:21Z</time>
      </trkpt>
      <trkpt lat="47.658764" lon="2.1465793">
        <ele>188.0</ele>
        <time>2022-02-17T09:56:22Z</time>
      </trkpt>
      <trkpt lat="47.65875" lon="2.1465697">
        <ele>189.0</ele>
        <time>2022-02-17T09:56:23Z</time>
      </trkpt>
      <trkpt lat="47.65874" lon="2.1465592">
        <ele>189.0</ele>
        <time>2022-02-17T09:56:24Z</time>
      </trkpt>
      <trkpt lat="47.65873" lon="2.1465492">
        <ele>189.0</ele>
        <time>2022-02-17T09:56:25Z</time>
      </trkpt>
      <trkpt lat="47.65872" lon="2.146544">
        <ele>189.0</ele>
        <time>2022-02-17T09:56:26Z</time>
      </trkpt>
      <trkpt lat="47.65871" lon="2.1465406">
        <ele>189.0</ele>
        <time>2022-02-17T09:56:27Z</time>
      </trkpt>
      <trkpt lat="47.658703" lon="2.146532">
        <ele>188.0</ele>
        <time>2022-02-17T09:56:28Z</time>
      </trkpt>
      <trkpt lat="47.65869" lon="2.1465254">
        <ele>188.0</ele>
        <time>2022-02-17T09:56:29Z</time>
      </trkpt>
      <trkpt lat="47.65868" lon="2.1465216">
        <ele>189.0</ele>
        <time>2022-02-17T09:56:30Z</time>
      </trkpt>
      <trkpt lat="47.65868" lon="2.1465216">
        <ele>189.0</ele>
        <time>2022-02-17T09:56:31Z</time>
      </trkpt>
      <trkpt lat="47.65868" lon="2.1465216">
        <ele>189.0</ele>
        <time>2022-02-17T09:56:32Z</time>
      </trkpt>
      <trkpt lat="47.658653" lon="2.1465106">
        <ele>189.0</ele>
        <time>2022-02-17T09:56:33Z</time>
      </trkpt>
      <trkpt lat="47.65864" lon="2.1465065">
        <ele>189.0</ele>
        <time>2022-02-17T09:56:34Z</time>
      </trkpt>
      <trkpt lat="47.658634" lon="2.1465068">
        <ele>188.0</ele>
        <time>2022-02-17T09:56:35Z</time>
      </trkpt>
      <trkpt lat="47.658623" lon="2.1465049">
        <ele>189.0</ele>
        <time>2022-02-17T09:56:36Z</time>
      </trkpt>
      <trkpt lat="47.65862" lon="2.146499">
        <ele>188.0</ele>
        <time>2022-02-17T09:56:37Z</time>
      </trkpt>
      <trkpt lat="47.658604" lon="2.1464906">
        <ele>188.0</ele>
        <time>2022-02-17T09:56:38Z</time>
      </trkpt>
      <trkpt lat="47.658592" lon="2.146484">
        <ele>189.0</ele>
        <time>2022-02-17T09:56:39Z</time>
      </trkpt>
      <trkpt lat="47.65858" lon="2.1464756">
        <ele>189.0</ele>
        <time>2022-02-17T09:56:40Z</time>
      </trkpt>
      <trkpt lat="47.65857" lon="2.1464703">
        <ele>189.0</ele>
        <time>2022-02-17T09:56:41Z</time>
      </trkpt>
      <trkpt lat="47.658558" lon="2.146465">
        <ele>189.0</ele>
        <time>2022-02-17T09:56:42Z</time>
      </trkpt>
      <trkpt lat="47.658546" lon="2.1464572">
        <ele>189.0</ele>
        <time>2022-02-17T09:56:43Z</time>
      </trkpt>
      <trkpt lat="47.658535" lon="2.1464503">
        <ele>190.0</ele>
        <time>2022-02-17T09:56:44Z</time>
      </trkpt>
      <trkpt lat="47.658527" lon="2.1464398">
        <ele>190.0</ele>
        <time>2022-02-17T09:56:45Z</time>
      </trkpt>
      <trkpt lat="47.658516" lon="2.1464326">
        <ele>191.0</ele>
        <time>2022-02-17T09:56:46Z</time>
      </trkpt>
      <trkpt lat="47.65851" lon="2.1464248">
        <ele>191.0</ele>
        <time>2022-02-17T09:56:47Z</time>
      </trkpt>
      <trkpt lat="47.658497" lon="2.1464133">
        <ele>191.0</ele>
        <time>2022-02-17T09:56:48Z</time>
      </trkpt>
      <trkpt lat="47.65848" lon="2.1464005">
        <ele>191.0</ele>
        <time>2022-02-17T09:56:49Z</time>
      </trkpt>
      <trkpt lat="47.658466" lon="2.1463945">
        <ele>191.0</ele>
        <time>2022-02-17T09:56:50Z</time>
      </trkpt>
      <trkpt lat="47.658455" lon="2.1463907">
        <ele>190.0</ele>
        <time>2022-02-17T09:56:51Z</time>
      </trkpt>
      <trkpt lat="47.658447" lon="2.1463845">
        <ele>190.0</ele>
        <time>2022-02-17T09:56:52Z</time>
      </trkpt>
      <trkpt lat="47.658436" lon="2.1463778">
        <ele>190.0</ele>
        <time>2022-02-17T09:56:53Z</time>
      </trkpt>
      <trkpt lat="47.65843" lon="2.146372">
        <ele>190.0</ele>
        <time>2022-02-17T09:56:54Z</time>
      </trkpt>
      <trkpt lat="47.658417" lon="2.1463645">
        <ele>190.0</ele>
        <time>2022-02-17T09:56:55Z</time>
      </trkpt>
      <trkpt lat="47.658417" lon="2.1463642">
        <ele>190.0</ele>
        <time>2022-02-17T09:56:56Z</time>
      </trkpt>
      <trkpt lat="47.65841" lon="2.146357">
        <ele>190.0</ele>
        <time>2022-02-17T09:56:57Z</time>
      </trkpt>
      <trkpt lat="47.6584" lon="2.1463478">
        <ele>190.0</ele>
        <time>2022-02-17T09:56:58Z</time>
      </trkpt>
      <trkpt lat="47.65839" lon="2.1463418">
        <ele>190.0</ele>
        <time>2022-02-17T09:56:59Z</time>
      </trkpt>
      <trkpt lat="47.658382" lon="2.1463308">
        <ele>190.0</ele>
        <time>2022-02-17T09:57:00Z</time>
      </trkpt>
      <trkpt lat="47.658382" lon="2.1463308">
        <ele>190.0</ele>
        <time>2022-02-17T09:57:01Z</time>
      </trkpt>
      <trkpt lat="47.658367" lon="2.1463177">
        <ele>191.0</ele>
        <time>2022-02-17T09:57:02Z</time>
      </trkpt>
      <trkpt lat="47.658356" lon="2.1463072">
        <ele>191.0</ele>
        <time>2022-02-17T09:57:03Z</time>
      </trkpt>
      <trkpt lat="47.658344" lon="2.1463008">
        <ele>191.0</ele>
        <time>2022-02-17T09:57:04Z</time>
      </trkpt>
      <trkpt lat="47.65833" lon="2.1462977">
        <ele>191.0</ele>
        <time>2022-02-17T09:57:05Z</time>
      </trkpt>
      <trkpt lat="47.658318" lon="2.1462944">
        <ele>192.0</ele>
        <time>2022-02-17T09:57:06Z</time>
      </trkpt>
      <trkpt lat="47.658302" lon="2.146289">
        <ele>191.0</ele>
        <time>2022-02-17T09:57:07Z</time>
      </trkpt>
      <trkpt lat="47.65829" lon="2.1462872">
        <ele>191.0</ele>
        <time>2022-02-17T09:57:08Z</time>
      </trkpt>
      <trkpt lat="47.658283" lon="2.1462815">
        <ele>192.0</ele>
        <time>2022-02-17T09:57:09Z</time>
      </trkpt>
      <trkpt lat="47.658276" lon="2.1462772">
        <ele>192.0</ele>
        <time>2022-02-17T09:57:10Z</time>
      </trkpt>
      <trkpt lat="47.658276" lon="2.1462772">
        <ele>192.0</ele>
        <time>2022-02-17T09:57:11Z</time>
      </trkpt>
      <trkpt lat="47.658276" lon="2.1462772">
        <ele>192.0</ele>
        <time>2022-02-17T09:57:12Z</time>
      </trkpt>
      <trkpt lat="47.65825" lon="2.1462584">
        <ele>192.0</ele>
        <time>2022-02-17T09:57:13Z</time>
      </trkpt>
      <trkpt lat="47.658237" lon="2.1462522">
        <ele>191.0</ele>
        <time>2022-02-17T09:57:14Z</time>
      </trkpt>
      <trkpt lat="47.658226" lon="2.1462448">
        <ele>191.0</ele>
        <time>2022-02-17T09:57:15Z</time>
      </trkpt>
      <trkpt lat="47.658215" lon="2.1462429">
        <ele>191.0</ele>
        <time>2022-02-17T09:57:16Z</time>
      </trkpt>
      <trkpt lat="47.658215" lon="2.1462429">
        <ele>191.0</ele>
        <time>2022-02-17T09:57:17Z</time>
      </trkpt>
      <trkpt lat="47.658215" lon="2.1462429">
        <ele>191.0</ele>
        <time>2022-02-17T09:57:18Z</time>
      </trkpt>
      <trkpt lat="47.658188" lon="2.1462362">
        <ele>191.0</ele>
        <time>2022-02-17T09:57:19Z</time>
      </trkpt>
      <trkpt lat="47.658176" lon="2.1462271">
        <ele>191.0</ele>
        <time>2022-02-17T09:57:20Z</time>
      </trkpt>
      <trkpt lat="47.658165" lon="2.1462219">
        <ele>190.0</ele>
        <time>2022-02-17T09:57:21Z</time>
      </trkpt>
      <trkpt lat="47.658154" lon="2.1462147">
        <ele>190.0</ele>
        <time>2022-02-17T09:57:22Z</time>
      </trkpt>
      <trkpt lat="47.658154" lon="2.1462147">
        <ele>190.0</ele>
        <time>2022-02-17T09:57:23Z</time>
      </trkpt>
      <trkpt lat="47.658154" lon="2.1462147">
        <ele>190.0</ele>
        <time>2022-02-17T09:57:24Z</time>
      </trkpt>
      <trkpt lat="47.65812" lon="2.1461966">
        <ele>189.0</ele>
        <time>2022-02-17T09:57:25Z</time>
      </trkpt>
      <trkpt lat="47.65811" lon="2.1461902">
        <ele>189.0</ele>
        <time>2022-02-17T09:57:26Z</time>
      </trkpt>
      <trkpt lat="47.6581" lon="2.1461825">
        <ele>189.0</ele>
        <time>2022-02-17T09:57:27Z</time>
      </trkpt>
      <trkpt lat="47.658085" lon="2.1461742">
        <ele>189.0</ele>
        <time>2022-02-17T09:57:28Z</time>
      </trkpt>
      <trkpt lat="47.658073" lon="2.1461723">
        <ele>189.0</ele>
        <time>2022-02-17T09:57:29Z</time>
      </trkpt>
      <trkpt lat="47.658062" lon="2.1461673">
        <ele>189.0</ele>
        <time>2022-02-17T09:57:30Z</time>
      </trkpt>
      <trkpt lat="47.658054" lon="2.1461613">
        <ele>189.0</ele>
        <time>2022-02-17T09:57:31Z</time>
      </trkpt>
      <trkpt lat="47.658054" lon="2.1461613">
        <ele>189.0</ele>
        <time>2022-02-17T09:57:32Z</time>
      </trkpt>
      <trkpt lat="47.658054" lon="2.1461613">
        <ele>189.0</ele>
        <time>2022-02-17T09:57:33Z</time>
      </trkpt>
      <trkpt lat="47.658024" lon="2.1461458">
        <ele>189.0</ele>
        <time>2022-02-17T09:57:34Z</time>
      </trkpt>
      <trkpt lat="47.658016" lon="2.146143">
        <ele>190.0</ele>
        <time>2022-02-17T09:57:35Z</time>
      </trkpt>
      <trkpt lat="47.658" lon="2.1461415">
        <ele>190.0</ele>
        <time>2022-02-17T09:57:36Z</time>
      </trkpt>
      <trkpt lat="47.65799" lon="2.1461353">
        <ele>190.0</ele>
        <time>2022-02-17T09:57:37Z</time>
      </trkpt>
      <trkpt lat="47.657978" lon="2.1461256">
        <ele>191.0</ele>
        <time>2022-02-17T09:57:38Z</time>
      </trkpt>
      <trkpt lat="47.65797" lon="2.1461203">
        <ele>191.0</ele>
        <time>2022-02-17T09:57:39Z</time>
      </trkpt>
      <trkpt lat="47.65796" lon="2.1461124">
        <ele>191.0</ele>
        <time>2022-02-17T09:57:40Z</time>
      </trkpt>
      <trkpt lat="47.657948" lon="2.146103">
        <ele>191.0</ele>
        <time>2022-02-17T09:57:41Z</time>
      </trkpt>
      <trkpt lat="47.657936" lon="2.146093">
        <ele>191.0</ele>
        <time>2022-02-17T09:57:42Z</time>
      </trkpt>
      <trkpt lat="47.65792" lon="2.1460807">
        <ele>191.0</ele>
        <time>2022-02-17T09:57:43Z</time>
      </trkpt>
      <trkpt lat="47.6579" lon="2.1460657">
        <ele>190.0</ele>
        <time>2022-02-17T09:57:44Z</time>
      </trkpt>
      <trkpt lat="47.6579" lon="2.1460657">
        <ele>190.0</ele>
        <time>2022-02-17T09:57:44Z</time>
      </trkpt>
      <trkpt lat="47.657894" lon="2.1460602">
        <ele>190.0</ele>
        <time>2022-02-17T09:57:46Z</time>
      </trkpt>
      <trkpt lat="47.657883" lon="2.146053">
        <ele>190.0</ele>
        <time>2022-02-17T09:57:47Z</time>
      </trkpt>
      <trkpt lat="47.65787" lon="2.146047">
        <ele>190.0</ele>
        <time>2022-02-17T09:57:48Z</time>
      </trkpt>
      <trkpt lat="47.657856" lon="2.1460366">
        <ele>189.0</ele>
        <time>2022-02-17T09:57:49Z</time>
      </trkpt>
      <trkpt lat="47.657845" lon="2.1460345">
        <ele>189.0</ele>
        <time>2022-02-17T09:57:50Z</time>
      </trkpt>
      <trkpt lat="47.65783" lon="2.1460278">
        <ele>189.0</ele>
        <time>2022-02-17T09:57:51Z</time>
      </trkpt>
      <trkpt lat="47.657818" lon="2.1460228">
        <ele>189.0</ele>
        <time>2022-02-17T09:57:52Z</time>
      </trkpt>
      <trkpt lat="47.657806" lon="2.1460192">
        <ele>189.0</ele>
        <time>2022-02-17T09:57:53Z</time>
      </trkpt>
      <trkpt lat="47.657795" lon="2.1460128">
        <ele>189.0</ele>
        <time>2022-02-17T09:57:54Z</time>
      </trkpt>
      <trkpt lat="47.657784" lon="2.1460056">
        <ele>189.0</ele>
        <time>2022-02-17T09:57:55Z</time>
      </trkpt>
      <trkpt lat="47.657776" lon="2.1459987">
        <ele>189.0</ele>
        <time>2022-02-17T09:57:56Z</time>
      </trkpt>
      <trkpt lat="47.65777" lon="2.145995">
        <ele>189.0</ele>
        <time>2022-02-17T09:57:57Z</time>
      </trkpt>
      <trkpt lat="47.657757" lon="2.1459854">
        <ele>188.0</ele>
        <time>2022-02-17T09:57:58Z</time>
      </trkpt>
      <trkpt lat="47.65775" lon="2.1459756">
        <ele>188.0</ele>
        <time>2022-02-17T09:57:59Z</time>
      </trkpt>
      <trkpt lat="47.657738" lon="2.145961">
        <ele>188.0</ele>
        <time>2022-02-17T09:58:00Z</time>
      </trkpt>
      <trkpt lat="47.65773" lon="2.1459486">
        <ele>187.0</ele>
        <time>2022-02-17T09:58:01Z</time>
      </trkpt>
      <trkpt lat="47.657722" lon="2.1459417">
        <ele>187.0</ele>
        <time>2022-02-17T09:58:02Z</time>
      </trkpt>
      <trkpt lat="47.65771" lon="2.145933">
        <ele>187.0</ele>
        <time>2022-02-17T09:58:03Z</time>
      </trkpt>
      <trkpt lat="47.657703" lon="2.1459281">
        <ele>187.0</ele>
        <time>2022-02-17T09:58:04Z</time>
      </trkpt>
      <trkpt lat="47.657692" lon="2.1459203">
        <ele>187.0</ele>
        <time>2022-02-17T09:58:05Z</time>
      </trkpt>
      <trkpt lat="47.65768" lon="2.1459079">
        <ele>186.0</ele>
        <time>2022-02-17T09:58:06Z</time>
      </trkpt>
      <trkpt lat="47.657673" lon="2.1458993">
        <ele>186.0</ele>
        <time>2022-02-17T09:58:07Z</time>
      </trkpt>
      <trkpt lat="47.657665" lon="2.1458912">
        <ele>186.0</ele>
        <time>2022-02-17T09:58:08Z</time>
      </trkpt>
      <trkpt lat="47.65766" lon="2.145888">
        <ele>187.0</ele>
        <time>2022-02-17T09:58:09Z</time>
      </trkpt>
      <trkpt lat="47.657658" lon="2.1458879">
        <ele>187.0</ele>
        <time>2022-02-17T09:58:10Z</time>
      </trkpt>
      <trkpt lat="47.657642" lon="2.145871">
        <ele>187.0</ele>
        <time>2022-02-17T09:58:11Z</time>
      </trkpt>
      <trkpt lat="47.657642" lon="2.145871">
        <ele>187.0</ele>
        <time>2022-02-17T09:58:11Z</time>
      </trkpt>
      <trkpt lat="47.65763" lon="2.1458685">
        <ele>187.0</ele>
        <time>2022-02-17T09:58:13Z</time>
      </trkpt>
      <trkpt lat="47.657623" lon="2.1458647">
        <ele>187.0</ele>
        <time>2022-02-17T09:58:14Z</time>
      </trkpt>
      <trkpt lat="47.65761" lon="2.1458583">
        <ele>187.0</ele>
        <time>2022-02-17T09:58:15Z</time>
      </trkpt>
      <trkpt lat="47.65759" lon="2.1458418">
        <ele>187.0</ele>
        <time>2022-02-17T09:58:16Z</time>
      </trkpt>
      <trkpt lat="47.65759" lon="2.1458418">
        <ele>187.0</ele>
        <time>2022-02-17T09:58:16Z</time>
      </trkpt>
      <trkpt lat="47.65758" lon="2.1458328">
        <ele>187.0</ele>
        <time>2022-02-17T09:58:18Z</time>
      </trkpt>
      <trkpt lat="47.65757" lon="2.1458223">
        <ele>187.0</ele>
        <time>2022-02-17T09:58:19Z</time>
      </trkpt>
      <trkpt lat="47.657555" lon="2.145813">
        <ele>186.0</ele>
        <time>2022-02-17T09:58:20Z</time>
      </trkpt>
      <trkpt lat="47.657555" lon="2.145813">
        <ele>186.0</ele>
        <time>2022-02-17T09:58:20Z</time>
      </trkpt>
      <trkpt lat="47.657543" lon="2.1458097">
        <ele>187.0</ele>
        <time>2022-02-17T09:58:22Z</time>
      </trkpt>
      <trkpt lat="47.657536" lon="2.1458073">
        <ele>186.0</ele>
        <time>2022-02-17T09:58:23Z</time>
      </trkpt>
      <trkpt lat="47.657524" lon="2.1458006">
        <ele>186.0</ele>
        <time>2022-02-17T09:58:24Z</time>
      </trkpt>
      <trkpt lat="47.657513" lon="2.145798">
        <ele>186.0</ele>
        <time>2022-02-17T09:58:25Z</time>
      </trkpt>
      <trkpt lat="47.657513" lon="2.145798">
        <ele>186.0</ele>
        <time>2022-02-17T09:58:26Z</time>
      </trkpt>
      <trkpt lat="47.657513" lon="2.145798">
        <ele>186.0</ele>
        <time>2022-02-17T09:58:26Z</time>
      </trkpt>
      <trkpt lat="47.657494" lon="2.1457927">
        <ele>186.0</ele>
        <time>2022-02-17T09:58:28Z</time>
      </trkpt>
      <trkpt lat="47.657486" lon="2.145789">
        <ele>186.0</ele>
        <time>2022-02-17T09:58:29Z</time>
      </trkpt>
      <trkpt lat="47.657467" lon="2.1457827">
        <ele>187.0</ele>
        <time>2022-02-17T09:58:30Z</time>
      </trkpt>
      <trkpt lat="47.657467" lon="2.1457827">
        <ele>187.0</ele>
        <time>2022-02-17T09:58:30Z</time>
      </trkpt>
      <trkpt lat="47.657448" lon="2.1457636">
        <ele>187.0</ele>
        <time>2022-02-17T09:58:32Z</time>
      </trkpt>
      <trkpt lat="47.657448" lon="2.1457636">
        <ele>187.0</ele>
        <time>2022-02-17T09:58:32Z</time>
      </trkpt>
      <trkpt lat="47.657436" lon="2.1457565">
        <ele>187.0</ele>
        <time>2022-02-17T09:58:34Z</time>
      </trkpt>
      <trkpt lat="47.65743" lon="2.1457512">
        <ele>187.0</ele>
        <time>2022-02-17T09:58:35Z</time>
      </trkpt>
      <trkpt lat="47.65743" lon="2.1457512">
        <ele>187.0</ele>
        <time>2022-02-17T09:58:35Z</time>
      </trkpt>
      <trkpt lat="47.657406" lon="2.1457407">
        <ele>188.0</ele>
        <time>2022-02-17T09:58:37Z</time>
      </trkpt>
      <trkpt lat="47.657394" lon="2.1457365">
        <ele>187.0</ele>
        <time>2022-02-17T09:58:38Z</time>
      </trkpt>
      <trkpt lat="47.657387" lon="2.145727">
        <ele>188.0</ele>
        <time>2022-02-17T09:58:39Z</time>
      </trkpt>
      <trkpt lat="47.65738" lon="2.14572">
        <ele>188.0</ele>
        <time>2022-02-17T09:58:40Z</time>
      </trkpt>
      <trkpt lat="47.657368" lon="2.1457157">
        <ele>188.0</ele>
        <time>2022-02-17T09:58:41Z</time>
      </trkpt>
      <trkpt lat="47.657368" lon="2.1457157">
        <ele>188.0</ele>
        <time>2022-02-17T09:58:41Z</time>
      </trkpt>
      <trkpt lat="47.65735" lon="2.1457055">
        <ele>188.0</ele>
        <time>2022-02-17T09:58:43Z</time>
      </trkpt>
      <trkpt lat="47.65735" lon="2.1457055">
        <ele>188.0</ele>
        <time>2022-02-17T09:58:44Z</time>
      </trkpt>
      <trkpt lat="47.65735" lon="2.1457055">
        <ele>188.0</ele>
        <time>2022-02-17T09:58:45Z</time>
      </trkpt>
      <trkpt lat="47.65732" lon="2.1456892">
        <ele>187.0</ele>
        <time>2022-02-17T09:58:46Z</time>
      </trkpt>
      <trkpt lat="47.65731" lon="2.1456819">
        <ele>187.0</ele>
        <time>2022-02-17T09:58:47Z</time>
      </trkpt>
      <trkpt lat="47.6573" lon="2.1456764">
        <ele>187.0</ele>
        <time>2022-02-17T09:58:48Z</time>
      </trkpt>
      <trkpt lat="47.65729" lon="2.1456754">
        <ele>188.0</ele>
        <time>2022-02-17T09:58:49Z</time>
      </trkpt>
      <trkpt lat="47.65729" lon="2.1456754">
        <ele>188.0</ele>
        <time>2022-02-17T09:58:50Z</time>
      </trkpt>
      <trkpt lat="47.65729" lon="2.1456754">
        <ele>188.0</ele>
        <time>2022-02-17T09:58:51Z</time>
      </trkpt>
      <trkpt lat="47.65727" lon="2.1456718">
        <ele>187.0</ele>
        <time>2022-02-17T09:58:52Z</time>
      </trkpt>
      <trkpt lat="47.657265" lon="2.1456738">
        <ele>187.0</ele>
        <time>2022-02-17T09:58:53Z</time>
      </trkpt>
      <trkpt lat="47.657253" lon="2.1456745">
        <ele>187.0</ele>
        <time>2022-02-17T09:58:54Z</time>
      </trkpt>
      <trkpt lat="47.657246" lon="2.1456742">
        <ele>187.0</ele>
        <time>2022-02-17T09:58:55Z</time>
      </trkpt>
      <trkpt lat="47.657246" lon="2.1456742">
        <ele>187.0</ele>
        <time>2022-02-17T09:58:56Z</time>
      </trkpt>
      <trkpt lat="47.657246" lon="2.1456742">
        <ele>187.0</ele>
        <time>2022-02-17T09:58:57Z</time>
      </trkpt>
      <trkpt lat="47.65722" lon="2.145665">
        <ele>187.0</ele>
        <time>2022-02-17T09:58:58Z</time>
      </trkpt>
      <trkpt lat="47.65721" lon="2.1456642">
        <ele>187.0</ele>
        <time>2022-02-17T09:58:59Z</time>
      </trkpt>
      <trkpt lat="47.6572" lon="2.1456618">
        <ele>187.0</ele>
        <time>2022-02-17T09:59:00Z</time>
      </trkpt>
      <trkpt lat="47.657185" lon="2.1456566">
        <ele>186.0</ele>
        <time>2022-02-17T09:59:01Z</time>
      </trkpt>
      <trkpt lat="47.657177" lon="2.145655">
        <ele>186.0</ele>
        <time>2022-02-17T09:59:02Z</time>
      </trkpt>
      <trkpt lat="47.657166" lon="2.1456563">
        <ele>186.0</ele>
        <time>2022-02-17T09:59:03Z</time>
      </trkpt>
      <trkpt lat="47.657166" lon="2.1456563">
        <ele>186.0</ele>
        <time>2022-02-17T09:59:04Z</time>
      </trkpt>
      <trkpt lat="47.657166" lon="2.1456563">
        <ele>186.0</ele>
        <time>2022-02-17T09:59:05Z</time>
      </trkpt>
      <trkpt lat="47.657135" lon="2.145656">
        <ele>186.0</ele>
        <time>2022-02-17T09:59:06Z</time>
      </trkpt>
      <trkpt lat="47.657124" lon="2.145654">
        <ele>186.0</ele>
        <time>2022-02-17T09:59:07Z</time>
      </trkpt>
      <trkpt lat="47.657112" lon="2.1456525">
        <ele>186.0</ele>
        <time>2022-02-17T09:59:08Z</time>
      </trkpt>
      <trkpt lat="47.657104" lon="2.1456494">
        <ele>186.0</ele>
        <time>2022-02-17T09:59:09Z</time>
      </trkpt>
      <trkpt lat="47.657104" lon="2.1456494">
        <ele>186.0</ele>
        <time>2022-02-17T09:59:10Z</time>
      </trkpt>
      <trkpt lat="47.657104" lon="2.1456494">
        <ele>186.0</ele>
        <time>2022-02-17T09:59:11Z</time>
      </trkpt>
      <trkpt lat="47.65708" lon="2.145641">
        <ele>187.0</ele>
        <time>2022-02-17T09:59:12Z</time>
      </trkpt>
      <trkpt lat="47.65707" lon="2.1456394">
        <ele>187.0</ele>
        <time>2022-02-17T09:59:13Z</time>
      </trkpt>
      <trkpt lat="47.65706" lon="2.1456337">
        <ele>187.0</ele>
        <time>2022-02-17T09:59:14Z</time>
      </trkpt>
      <trkpt lat="47.657047" lon="2.145633">
        <ele>188.0</ele>
        <time>2022-02-17T09:59:15Z</time>
      </trkpt>
      <trkpt lat="47.657036" lon="2.1456304">
        <ele>188.0</ele>
        <time>2022-02-17T09:59:16Z</time>
      </trkpt>
      <trkpt lat="47.657017" lon="2.1456263">
        <ele>187.0</ele>
        <time>2022-02-17T09:59:17Z</time>
      </trkpt>
      <trkpt lat="47.657005" lon="2.1456273">
        <ele>188.0</ele>
        <time>2022-02-17T09:59:18Z</time>
      </trkpt>
      <trkpt lat="47.656998" lon="2.1456256">
        <ele>188.0</ele>
        <time>2022-02-17T09:59:19Z</time>
      </trkpt>
      <trkpt lat="47.656998" lon="2.1456256">
        <ele>188.0</ele>
        <time>2022-02-17T09:59:20Z</time>
      </trkpt>
      <trkpt lat="47.656998" lon="2.1456256">
        <ele>188.0</ele>
        <time>2022-02-17T09:59:21Z</time>
      </trkpt>
      <trkpt lat="47.656967" lon="2.14563">
        <ele>188.0</ele>
        <time>2022-02-17T09:59:22Z</time>
      </trkpt>
      <trkpt lat="47.65696" lon="2.145628">
        <ele>187.0</ele>
        <time>2022-02-17T09:59:23Z</time>
      </trkpt>
      <trkpt lat="47.656948" lon="2.1456249">
        <ele>187.0</ele>
        <time>2022-02-17T09:59:24Z</time>
      </trkpt>
      <trkpt lat="47.656937" lon="2.1456206">
        <ele>188.0</ele>
        <time>2022-02-17T09:59:25Z</time>
      </trkpt>
      <trkpt lat="47.656937" lon="2.1456206">
        <ele>188.0</ele>
        <time>2022-02-17T09:59:26Z</time>
      </trkpt>
      <trkpt lat="47.656914" lon="2.1456163">
        <ele>189.0</ele>
        <time>2022-02-17T09:59:27Z</time>
      </trkpt>
      <trkpt lat="47.656906" lon="2.1456158">
        <ele>189.0</ele>
        <time>2022-02-17T09:59:28Z</time>
      </trkpt>
      <trkpt lat="47.656895" lon="2.1456156">
        <ele>190.0</ele>
        <time>2022-02-17T09:59:29Z</time>
      </trkpt>
      <trkpt lat="47.65688" lon="2.145612">
        <ele>189.0</ele>
        <time>2022-02-17T09:59:30Z</time>
      </trkpt>
      <trkpt lat="47.65687" lon="2.1456108">
        <ele>189.0</ele>
        <time>2022-02-17T09:59:31Z</time>
      </trkpt>
      <trkpt lat="47.656864" lon="2.145612">
        <ele>189.0</ele>
        <time>2022-02-17T09:59:32Z</time>
      </trkpt>
      <trkpt lat="47.656857" lon="2.1456137">
        <ele>189.0</ele>
        <time>2022-02-17T09:59:33Z</time>
      </trkpt>
      <trkpt lat="47.656857" lon="2.1456137">
        <ele>189.0</ele>
        <time>2022-02-17T09:59:34Z</time>
      </trkpt>
      <trkpt lat="47.656857" lon="2.1456137">
        <ele>189.0</ele>
        <time>2022-02-17T09:59:35Z</time>
      </trkpt>
      <trkpt lat="47.656826" lon="2.1456034">
        <ele>189.0</ele>
        <time>2022-02-17T09:59:36Z</time>
      </trkpt>
      <trkpt lat="47.65682" lon="2.1456">
        <ele>189.0</ele>
        <time>2022-02-17T09:59:37Z</time>
      </trkpt>
      <trkpt lat="47.656803" lon="2.1455915">
        <ele>188.0</ele>
        <time>2022-02-17T09:59:38Z</time>
      </trkpt>
      <trkpt lat="47.656796" lon="2.145587">
        <ele>188.0</ele>
        <time>2022-02-17T09:59:39Z</time>
      </trkpt>
      <trkpt lat="47.656788" lon="2.1455817">
        <ele>187.0</ele>
        <time>2022-02-17T09:59:40Z</time>
      </trkpt>
      <trkpt lat="47.656788" lon="2.1455817">
        <ele>187.0</ele>
        <time>2022-02-17T09:59:41Z</time>
      </trkpt>
      <trkpt lat="47.656788" lon="2.1455817">
        <ele>187.0</ele>
        <time>2022-02-17T09:59:42Z</time>
      </trkpt>
      <trkpt lat="47.656788" lon="2.1455817">
        <ele>187.0</ele>
        <time>2022-02-17T09:59:43Z</time>
      </trkpt>
      <trkpt lat="47.656765" lon="2.1455808">
        <ele>187.0</ele>
        <time>2022-02-17T09:59:44Z</time>
      </trkpt>
      <trkpt lat="47.656754" lon="2.1455758">
        <ele>188.0</ele>
        <time>2022-02-17T09:59:45Z</time>
      </trkpt>
      <trkpt lat="47.65675" lon="2.1455767">
        <ele>188.0</ele>
        <time>2022-02-17T09:59:46Z</time>
      </trkpt>
      <trkpt lat="47.656742" lon="2.1455758">
        <ele>188.0</ele>
        <time>2022-02-17T09:59:47Z</time>
      </trkpt>
      <trkpt lat="47.656742" lon="2.1455758">
        <ele>188.0</ele>
        <time>2022-02-17T09:59:48Z</time>
      </trkpt>
      <trkpt lat="47.656742" lon="2.1455758">
        <ele>188.0</ele>
        <time>2022-02-17T09:59:49Z</time>
      </trkpt>
      <trkpt lat="47.65671" lon="2.1455696">
        <ele>188.0</ele>
        <time>2022-02-17T09:59:50Z</time>
      </trkpt>
      <trkpt lat="47.6567" lon="2.145568">
        <ele>187.0</ele>
        <time>2022-02-17T09:59:51Z</time>
      </trkpt>
      <trkpt lat="47.65669" lon="2.145564">
        <ele>187.0</ele>
        <time>2022-02-17T09:59:52Z</time>
      </trkpt>
      <trkpt lat="47.656673" lon="2.1455607">
        <ele>187.0</ele>
        <time>2022-02-17T09:59:53Z</time>
      </trkpt>
      <trkpt lat="47.65666" lon="2.1455567">
        <ele>186.0</ele>
        <time>2022-02-17T09:59:54Z</time>
      </trkpt>
      <trkpt lat="47.656647" lon="2.1455543">
        <ele>186.0</ele>
        <time>2022-02-17T09:59:55Z</time>
      </trkpt>
      <trkpt lat="47.656643" lon="2.1455529">
        <ele>186.0</ele>
        <time>2022-02-17T09:59:56Z</time>
      </trkpt>
      <trkpt lat="47.656628" lon="2.145549">
        <ele>187.0</ele>
        <time>2022-02-17T09:59:57Z</time>
      </trkpt>
      <trkpt lat="47.656628" lon="2.145549">
        <ele>187.0</ele>
        <time>2022-02-17T09:59:58Z</time>
      </trkpt>
      <trkpt lat="47.656605" lon="2.1455407">
        <ele>187.0</ele>
        <time>2022-02-17T09:59:59Z</time>
      </trkpt>
      <trkpt lat="47.656593" lon="2.1455379">
        <ele>188.0</ele>
        <time>2022-02-17T10:00:00Z</time>
      </trkpt>
      <trkpt lat="47.65658" lon="2.145534">
        <ele>188.0</ele>
        <time>2022-02-17T10:00:01Z</time>
      </trkpt>
      <trkpt lat="47.65657" lon="2.145528">
        <ele>188.0</ele>
        <time>2022-02-17T10:00:02Z</time>
      </trkpt>
      <trkpt lat="47.65656" lon="2.1455233">
        <ele>188.0</ele>
        <time>2022-02-17T10:00:03Z</time>
      </trkpt>
      <trkpt lat="47.656548" lon="2.1455188">
        <ele>188.0</ele>
        <time>2022-02-17T10:00:04Z</time>
      </trkpt>
      <trkpt lat="47.656532" lon="2.1455114">
        <ele>187.0</ele>
        <time>2022-02-17T10:00:05Z</time>
      </trkpt>
      <trkpt lat="47.65652" lon="2.145504">
        <ele>187.0</ele>
        <time>2022-02-17T10:00:06Z</time>
      </trkpt>
      <trkpt lat="47.656513" lon="2.1454976">
        <ele>188.0</ele>
        <time>2022-02-17T10:00:07Z</time>
      </trkpt>
      <trkpt lat="47.65651" lon="2.1454914">
        <ele>187.0</ele>
        <time>2022-02-17T10:00:08Z</time>
      </trkpt>
      <trkpt lat="47.6565" lon="2.1454875">
        <ele>187.0</ele>
        <time>2022-02-17T10:00:09Z</time>
      </trkpt>
      <trkpt lat="47.656494" lon="2.1454878">
        <ele>187.0</ele>
        <time>2022-02-17T10:00:10Z</time>
      </trkpt>
      <trkpt lat="47.65648" lon="2.1454833">
        <ele>187.0</ele>
        <time>2022-02-17T10:00:11Z</time>
      </trkpt>
      <trkpt lat="47.65647" lon="2.145484">
        <ele>187.0</ele>
        <time>2022-02-17T10:00:12Z</time>
      </trkpt>
      <trkpt lat="47.656464" lon="2.1454933">
        <ele>186.0</ele>
        <time>2022-02-17T10:00:13Z</time>
      </trkpt>
      <trkpt lat="47.656452" lon="2.1454947">
        <ele>187.0</ele>
        <time>2022-02-17T10:00:14Z</time>
      </trkpt>
      <trkpt lat="47.65644" lon="2.1454961">
        <ele>187.0</ele>
        <time>2022-02-17T10:00:15Z</time>
      </trkpt>
      <trkpt lat="47.65644" lon="2.1454961">
        <ele>187.0</ele>
        <time>2022-02-17T10:00:16Z</time>
      </trkpt>
      <trkpt lat="47.65644" lon="2.1454961">
        <ele>187.0</ele>
        <time>2022-02-17T10:00:17Z</time>
      </trkpt>
      <trkpt lat="47.65641" lon="2.14549">
        <ele>185.0</ele>
        <time>2022-02-17T10:00:18Z</time>
      </trkpt>
      <trkpt lat="47.6564" lon="2.1454864">
        <ele>185.0</ele>
        <time>2022-02-17T10:00:19Z</time>
      </trkpt>
      <trkpt lat="47.656384" lon="2.1454828">
        <ele>185.0</ele>
        <time>2022-02-17T10:00:20Z</time>
      </trkpt>
      <trkpt lat="47.65637" lon="2.1454797">
        <ele>184.0</ele>
        <time>2022-02-17T10:00:21Z</time>
      </trkpt>
      <trkpt lat="47.656357" lon="2.1454787">
        <ele>184.0</ele>
        <time>2022-02-17T10:00:22Z</time>
      </trkpt>
      <trkpt lat="47.65635" lon="2.1454747">
        <ele>184.0</ele>
        <time>2022-02-17T10:00:23Z</time>
      </trkpt>
      <trkpt lat="47.656338" lon="2.14547">
        <ele>184.0</ele>
        <time>2022-02-17T10:00:24Z</time>
      </trkpt>
      <trkpt lat="47.656338" lon="2.14547">
        <ele>184.0</ele>
        <time>2022-02-17T10:00:25Z</time>
      </trkpt>
      <trkpt lat="47.656338" lon="2.14547">
        <ele>184.0</ele>
        <time>2022-02-17T10:00:26Z</time>
      </trkpt>
      <trkpt lat="47.656307" lon="2.1454644">
        <ele>184.0</ele>
        <time>2022-02-17T10:00:27Z</time>
      </trkpt>
      <trkpt lat="47.656296" lon="2.1454628">
        <ele>184.0</ele>
        <time>2022-02-17T10:00:28Z</time>
      </trkpt>
      <trkpt lat="47.656284" lon="2.145465">
        <ele>185.0</ele>
        <time>2022-02-17T10:00:29Z</time>
      </trkpt>
      <trkpt lat="47.65627" lon="2.1454582">
        <ele>185.0</ele>
        <time>2022-02-17T10:00:30Z</time>
      </trkpt>
      <trkpt lat="47.656258" lon="2.1454544">
        <ele>185.0</ele>
        <time>2022-02-17T10:00:31Z</time>
      </trkpt>
      <trkpt lat="47.65625" lon="2.1454458">
        <ele>185.0</ele>
        <time>2022-02-17T10:00:32Z</time>
      </trkpt>
      <trkpt lat="47.65624" lon="2.145439">
        <ele>186.0</ele>
        <time>2022-02-17T10:00:33Z</time>
      </trkpt>
      <trkpt lat="47.65623" lon="2.1454306">
        <ele>185.0</ele>
        <time>2022-02-17T10:00:34Z</time>
      </trkpt>
      <trkpt lat="47.65623" lon="2.1454306">
        <ele>185.0</ele>
        <time>2022-02-17T10:00:35Z</time>
      </trkpt>
      <trkpt lat="47.65623" lon="2.1454306">
        <ele>185.0</ele>
        <time>2022-02-17T10:00:36Z</time>
      </trkpt>
      <trkpt lat="47.656208" lon="2.145416">
        <ele>185.0</ele>
        <time>2022-02-17T10:00:37Z</time>
      </trkpt>
      <trkpt lat="47.656204" lon="2.1454096">
        <ele>184.0</ele>
        <time>2022-02-17T10:00:38Z</time>
      </trkpt>
      <trkpt lat="47.656197" lon="2.145401">
        <ele>184.0</ele>
        <time>2022-02-17T10:00:39Z</time>
      </trkpt>
      <trkpt lat="47.656193" lon="2.1453989">
        <ele>183.0</ele>
        <time>2022-02-17T10:00:40Z</time>
      </trkpt>
      <trkpt lat="47.656193" lon="2.1453989">
        <ele>183.0</ele>
        <time>2022-02-17T10:00:41Z</time>
      </trkpt>
      <trkpt lat="47.656178" lon="2.1453948">
        <ele>183.0</ele>
        <time>2022-02-17T10:00:42Z</time>
      </trkpt>
      <trkpt lat="47.656166" lon="2.1453924">
        <ele>182.0</ele>
        <time>2022-02-17T10:00:43Z</time>
      </trkpt>
      <trkpt lat="47.65616" lon="2.1453872">
        <ele>182.0</ele>
        <time>2022-02-17T10:00:44Z</time>
      </trkpt>
      <trkpt lat="47.65615" lon="2.1453764">
        <ele>182.0</ele>
        <time>2022-02-17T10:00:45Z</time>
      </trkpt>
      <trkpt lat="47.656143" lon="2.1453671">
        <ele>182.0</ele>
        <time>2022-02-17T10:00:46Z</time>
      </trkpt>
      <trkpt lat="47.656136" lon="2.1453555">
        <ele>182.0</ele>
        <time>2022-02-17T10:00:47Z</time>
      </trkpt>
      <trkpt lat="47.656124" lon="2.1453474">
        <ele>182.0</ele>
        <time>2022-02-17T10:00:48Z</time>
      </trkpt>
      <trkpt lat="47.656116" lon="2.145333">
        <ele>182.0</ele>
        <time>2022-02-17T10:00:49Z</time>
      </trkpt>
      <trkpt lat="47.65611" lon="2.145322">
        <ele>182.0</ele>
        <time>2022-02-17T10:00:50Z</time>
      </trkpt>
      <trkpt lat="47.6561" lon="2.1453106">
        <ele>183.0</ele>
        <time>2022-02-17T10:00:51Z</time>
      </trkpt>
      <trkpt lat="47.656094" lon="2.1453006">
        <ele>183.0</ele>
        <time>2022-02-17T10:00:52Z</time>
      </trkpt>
      <trkpt lat="47.65608" lon="2.145292">
        <ele>183.0</ele>
        <time>2022-02-17T10:00:53Z</time>
      </trkpt>
      <trkpt lat="47.656067" lon="2.1452806">
        <ele>183.0</ele>
        <time>2022-02-17T10:00:54Z</time>
      </trkpt>
      <trkpt lat="47.65605" lon="2.145274">
        <ele>183.0</ele>
        <time>2022-02-17T10:00:55Z</time>
      </trkpt>
      <trkpt lat="47.65604" lon="2.145267">
        <ele>183.0</ele>
        <time>2022-02-17T10:00:56Z</time>
      </trkpt>
      <trkpt lat="47.65603" lon="2.1452594">
        <ele>184.0</ele>
        <time>2022-02-17T10:00:57Z</time>
      </trkpt>
      <trkpt lat="47.65602" lon="2.1452534">
        <ele>184.0</ele>
        <time>2022-02-17T10:00:58Z</time>
      </trkpt>
      <trkpt lat="47.656013" lon="2.145247">
        <ele>184.0</ele>
        <time>2022-02-17T10:00:59Z</time>
      </trkpt>
      <trkpt lat="47.656013" lon="2.145247">
        <ele>184.0</ele>
        <time>2022-02-17T10:01:00Z</time>
      </trkpt>
      <trkpt lat="47.656013" lon="2.145247">
        <ele>184.0</ele>
        <time>2022-02-17T10:01:01Z</time>
      </trkpt>
      <trkpt lat="47.655987" lon="2.1452243">
        <ele>185.0</ele>
        <time>2022-02-17T10:01:02Z</time>
      </trkpt>
      <trkpt lat="47.65598" lon="2.1452186">
        <ele>186.0</ele>
        <time>2022-02-17T10:01:03Z</time>
      </trkpt>
      <trkpt lat="47.65597" lon="2.145212">
        <ele>186.0</ele>
        <time>2022-02-17T10:01:04Z</time>
      </trkpt>
      <trkpt lat="47.655964" lon="2.1452053">
        <ele>186.0</ele>
        <time>2022-02-17T10:01:05Z</time>
      </trkpt>
      <trkpt lat="47.655956" lon="2.1451967">
        <ele>186.0</ele>
        <time>2022-02-17T10:01:06Z</time>
      </trkpt>
      <trkpt lat="47.655956" lon="2.1451967">
        <ele>186.0</ele>
        <time>2022-02-17T10:01:07Z</time>
      </trkpt>
      <trkpt lat="47.655937" lon="2.145185">
        <ele>187.0</ele>
        <time>2022-02-17T10:01:08Z</time>
      </trkpt>
      <trkpt lat="47.655922" lon="2.1451788">
        <ele>187.0</ele>
        <time>2022-02-17T10:01:09Z</time>
      </trkpt>
      <trkpt lat="47.65591" lon="2.1451762">
        <ele>187.0</ele>
        <time>2022-02-17T10:01:10Z</time>
      </trkpt>
      <trkpt lat="47.6559" lon="2.1451745">
        <ele>188.0</ele>
        <time>2022-02-17T10:01:11Z</time>
      </trkpt>
      <trkpt lat="47.65589" lon="2.1451702">
        <ele>188.0</ele>
        <time>2022-02-17T10:01:12Z</time>
      </trkpt>
      <trkpt lat="47.65589" lon="2.1451702">
        <ele>188.0</ele>
        <time>2022-02-17T10:01:13Z</time>
      </trkpt>
      <trkpt lat="47.65589" lon="2.1451702">
        <ele>188.0</ele>
        <time>2022-02-17T10:01:14Z</time>
      </trkpt>
      <trkpt lat="47.65587" lon="2.1451619">
        <ele>189.0</ele>
        <time>2022-02-17T10:01:15Z</time>
      </trkpt>
      <trkpt lat="47.655857" lon="2.1451592">
        <ele>188.0</ele>
        <time>2022-02-17T10:01:16Z</time>
      </trkpt>
      <trkpt lat="47.655853" lon="2.1451552">
        <ele>188.0</ele>
        <time>2022-02-17T10:01:17Z</time>
      </trkpt>
      <trkpt lat="47.65584" lon="2.1451464">
        <ele>187.0</ele>
        <time>2022-02-17T10:01:18Z</time>
      </trkpt>
      <trkpt lat="47.65584" lon="2.1451464">
        <ele>187.0</ele>
        <time>2022-02-17T10:01:19Z</time>
      </trkpt>
      <trkpt lat="47.65584" lon="2.1451464">
        <ele>187.0</ele>
        <time>2022-02-17T10:01:20Z</time>
      </trkpt>
      <trkpt lat="47.655823" lon="2.1451418">
        <ele>188.0</ele>
        <time>2022-02-17T10:01:21Z</time>
      </trkpt>
      <trkpt lat="47.655815" lon="2.1451404">
        <ele>188.0</ele>
        <time>2022-02-17T10:01:22Z</time>
      </trkpt>
      <trkpt lat="47.655807" lon="2.1451378">
        <ele>188.0</ele>
        <time>2022-02-17T10:01:23Z</time>
      </trkpt>
      <trkpt lat="47.655796" lon="2.1451323">
        <ele>187.0</ele>
        <time>2022-02-17T10:01:24Z</time>
      </trkpt>
      <trkpt lat="47.655796" lon="2.1451323">
        <ele>187.0</ele>
        <time>2022-02-17T10:01:25Z</time>
      </trkpt>
      <trkpt lat="47.655796" lon="2.1451323">
        <ele>187.0</ele>
        <time>2022-02-17T10:01:26Z</time>
      </trkpt>
      <trkpt lat="47.65577" lon="2.1451247">
        <ele>186.0</ele>
        <time>2022-02-17T10:01:27Z</time>
      </trkpt>
      <trkpt lat="47.655758" lon="2.1451259">
        <ele>187.0</ele>
        <time>2022-02-17T10:01:28Z</time>
      </trkpt>
      <trkpt lat="47.655746" lon="2.1451266">
        <ele>187.0</ele>
        <time>2022-02-17T10:01:29Z</time>
      </trkpt>
      <trkpt lat="47.655735" lon="2.1451175">
        <ele>186.0</ele>
        <time>2022-02-17T10:01:30Z</time>
      </trkpt>
      <trkpt lat="47.655724" lon="2.14511">
        <ele>186.0</ele>
        <time>2022-02-17T10:01:31Z</time>
      </trkpt>
      <trkpt lat="47.655712" lon="2.145111">
        <ele>186.0</ele>
        <time>2022-02-17T10:01:32Z</time>
      </trkpt>
      <trkpt lat="47.6557" lon="2.145103">
        <ele>186.0</ele>
        <time>2022-02-17T10:01:33Z</time>
      </trkpt>
      <trkpt lat="47.655693" lon="2.1450922">
        <ele>185.0</ele>
        <time>2022-02-17T10:01:34Z</time>
      </trkpt>
      <trkpt lat="47.655693" lon="2.1450922">
        <ele>185.0</ele>
        <time>2022-02-17T10:01:35Z</time>
      </trkpt>
      <trkpt lat="47.655693" lon="2.1450922">
        <ele>185.0</ele>
        <time>2022-02-17T10:01:36Z</time>
      </trkpt>
      <trkpt lat="47.655674" lon="2.1450725">
        <ele>185.0</ele>
        <time>2022-02-17T10:01:37Z</time>
      </trkpt>
      <trkpt lat="47.655666" lon="2.1450682">
        <ele>185.0</ele>
        <time>2022-02-17T10:01:38Z</time>
      </trkpt>
      <trkpt lat="47.65566" lon="2.1450663">
        <ele>185.0</ele>
        <time>2022-02-17T10:01:39Z</time>
      </trkpt>
      <trkpt lat="47.655647" lon="2.1450624">
        <ele>185.0</ele>
        <time>2022-02-17T10:01:40Z</time>
      </trkpt>
      <trkpt lat="47.655636" lon="2.1450582">
        <ele>185.0</ele>
        <time>2022-02-17T10:01:41Z</time>
      </trkpt>
      <trkpt lat="47.655624" lon="2.1450546">
        <ele>184.0</ele>
        <time>2022-02-17T10:01:42Z</time>
      </trkpt>
      <trkpt lat="47.65561" lon="2.145048">
        <ele>183.0</ele>
        <time>2022-02-17T10:01:43Z</time>
      </trkpt>
      <trkpt lat="47.655598" lon="2.1450438">
        <ele>182.0</ele>
        <time>2022-02-17T10:01:44Z</time>
      </trkpt>
      <trkpt lat="47.655582" lon="2.1450405">
        <ele>182.0</ele>
        <time>2022-02-17T10:01:45Z</time>
      </trkpt>
      <trkpt lat="47.65557" lon="2.1450362">
        <ele>183.0</ele>
        <time>2022-02-17T10:01:46Z</time>
      </trkpt>
      <trkpt lat="47.65556" lon="2.1450336">
        <ele>182.0</ele>
        <time>2022-02-17T10:01:47Z</time>
      </trkpt>
      <trkpt lat="47.65554" lon="2.145026">
        <ele>183.0</ele>
        <time>2022-02-17T10:01:48Z</time>
      </trkpt>
      <trkpt lat="47.65553" lon="2.1450229">
        <ele>183.0</ele>
        <time>2022-02-17T10:01:49Z</time>
      </trkpt>
      <trkpt lat="47.655514" lon="2.1450193">
        <ele>183.0</ele>
        <time>2022-02-17T10:01:50Z</time>
      </trkpt>
      <trkpt lat="47.655502" lon="2.1450195">
        <ele>183.0</ele>
        <time>2022-02-17T10:01:51Z</time>
      </trkpt>
      <trkpt lat="47.655495" lon="2.145019">
        <ele>183.0</ele>
        <time>2022-02-17T10:01:52Z</time>
      </trkpt>
      <trkpt lat="47.655483" lon="2.1450112">
        <ele>183.0</ele>
        <time>2022-02-17T10:01:53Z</time>
      </trkpt>
      <trkpt lat="47.655468" lon="2.1450028">
        <ele>182.0</ele>
        <time>2022-02-17T10:01:54Z</time>
      </trkpt>
      <trkpt lat="47.65546" lon="2.1449976">
        <ele>181.0</ele>
        <time>2022-02-17T10:01:55Z</time>
      </trkpt>
      <trkpt lat="47.65546" lon="2.1449962">
        <ele>181.0</ele>
        <time>2022-02-17T10:01:56Z</time>
      </trkpt>
      <trkpt lat="47.655453" lon="2.1449964">
        <ele>182.0</ele>
        <time>2022-02-17T10:01:57Z</time>
      </trkpt>
      <trkpt lat="47.65545" lon="2.1449957">
        <ele>182.0</ele>
        <time>2022-02-17T10:01:58Z</time>
      </trkpt>
      <trkpt lat="47.65545" lon="2.1449957">
        <ele>182.0</ele>
        <time>2022-02-17T10:01:59Z</time>
      </trkpt>
      <trkpt lat="47.65545" lon="2.1449957">
        <ele>182.0</ele>
        <time>2022-02-17T10:02:00Z</time>
      </trkpt>
      <trkpt lat="47.65542" lon="2.1449814">
        <ele>183.0</ele>
        <time>2022-02-17T10:02:01Z</time>
      </trkpt>
      <trkpt lat="47.65541" lon="2.144979">
        <ele>184.0</ele>
        <time>2022-02-17T10:02:02Z</time>
      </trkpt>
      <trkpt lat="47.6554" lon="2.144982">
        <ele>184.0</ele>
        <time>2022-02-17T10:02:03Z</time>
      </trkpt>
      <trkpt lat="47.655384" lon="2.1449854">
        <ele>183.0</ele>
        <time>2022-02-17T10:02:04Z</time>
      </trkpt>
      <trkpt lat="47.655373" lon="2.1449873">
        <ele>183.0</ele>
        <time>2022-02-17T10:02:05Z</time>
      </trkpt>
      <trkpt lat="47.65536" lon="2.1449862">
        <ele>184.0</ele>
        <time>2022-02-17T10:02:06Z</time>
      </trkpt>
      <trkpt lat="47.65536" lon="2.1449862">
        <ele>184.0</ele>
        <time>2022-02-17T10:02:07Z</time>
      </trkpt>
      <trkpt lat="47.65534" lon="2.1449816">
        <ele>184.0</ele>
        <time>2022-02-17T10:02:08Z</time>
      </trkpt>
      <trkpt lat="47.655323" lon="2.1449747">
        <ele>184.0</ele>
        <time>2022-02-17T10:02:09Z</time>
      </trkpt>
      <trkpt lat="47.65531" lon="2.1449704">
        <ele>184.0</ele>
        <time>2022-02-17T10:02:10Z</time>
      </trkpt>
      <trkpt lat="47.6553" lon="2.1449625">
        <ele>184.0</ele>
        <time>2022-02-17T10:02:11Z</time>
      </trkpt>
      <trkpt lat="47.655293" lon="2.1449559">
        <ele>184.0</ele>
        <time>2022-02-17T10:02:12Z</time>
      </trkpt>
      <trkpt lat="47.655293" lon="2.1449559">
        <ele>184.0</ele>
        <time>2022-02-17T10:02:13Z</time>
      </trkpt>
      <trkpt lat="47.655293" lon="2.1449559">
        <ele>184.0</ele>
        <time>2022-02-17T10:02:14Z</time>
      </trkpt>
      <trkpt lat="47.655266" lon="2.1449475">
        <ele>184.0</ele>
        <time>2022-02-17T10:02:15Z</time>
      </trkpt>
      <trkpt lat="47.65526" lon="2.1449492">
        <ele>184.0</ele>
        <time>2022-02-17T10:02:16Z</time>
      </trkpt>
      <trkpt lat="47.655247" lon="2.1449447">
        <ele>184.0</ele>
        <time>2022-02-17T10:02:17Z</time>
      </trkpt>
      <trkpt lat="47.655235" lon="2.1449428">
        <ele>184.0</ele>
        <time>2022-02-17T10:02:18Z</time>
      </trkpt>
      <trkpt lat="47.65522" lon="2.1449416">
        <ele>184.0</ele>
        <time>2022-02-17T10:02:19Z</time>
      </trkpt>
      <trkpt lat="47.655205" lon="2.1449347">
        <ele>184.0</ele>
        <time>2022-02-17T10:02:20Z</time>
      </trkpt>
      <trkpt lat="47.655193" lon="2.1449306">
        <ele>184.0</ele>
        <time>2022-02-17T10:02:21Z</time>
      </trkpt>
      <trkpt lat="47.65518" lon="2.1449263">
        <ele>184.0</ele>
        <time>2022-02-17T10:02:22Z</time>
      </trkpt>
      <trkpt lat="47.655167" lon="2.1449225">
        <ele>183.0</ele>
        <time>2022-02-17T10:02:23Z</time>
      </trkpt>
      <trkpt lat="47.655155" lon="2.1449199">
        <ele>183.0</ele>
        <time>2022-02-17T10:02:24Z</time>
      </trkpt>
      <trkpt lat="47.65514" lon="2.144915">
        <ele>183.0</ele>
        <time>2022-02-17T10:02:25Z</time>
      </trkpt>
      <trkpt lat="47.65513" lon="2.1449075">
        <ele>183.0</ele>
        <time>2022-02-17T10:02:26Z</time>
      </trkpt>
      <trkpt lat="47.65511" lon="2.1448977">
        <ele>183.0</ele>
        <time>2022-02-17T10:02:27Z</time>
      </trkpt>
      <trkpt lat="47.655098" lon="2.1448903">
        <ele>184.0</ele>
        <time>2022-02-17T10:02:28Z</time>
      </trkpt>
      <trkpt lat="47.655087" lon="2.14488">
        <ele>184.0</ele>
        <time>2022-02-17T10:02:29Z</time>
      </trkpt>
      <trkpt lat="47.655075" lon="2.1448722">
        <ele>184.0</ele>
        <time>2022-02-17T10:02:30Z</time>
      </trkpt>
      <trkpt lat="47.655067" lon="2.1448658">
        <ele>184.0</ele>
        <time>2022-02-17T10:02:31Z</time>
      </trkpt>
      <trkpt lat="47.655056" lon="2.1448624">
        <ele>185.0</ele>
        <time>2022-02-17T10:02:32Z</time>
      </trkpt>
      <trkpt lat="47.65505" lon="2.1448634">
        <ele>185.0</ele>
        <time>2022-02-17T10:02:33Z</time>
      </trkpt>
      <trkpt lat="47.655037" lon="2.1448643">
        <ele>185.0</ele>
        <time>2022-02-17T10:02:34Z</time>
      </trkpt>
      <trkpt lat="47.655037" lon="2.1448643">
        <ele>185.0</ele>
        <time>2022-02-17T10:02:35Z</time>
      </trkpt>
      <trkpt lat="47.655037" lon="2.1448643">
        <ele>185.0</ele>
        <time>2022-02-17T10:02:36Z</time>
      </trkpt>
      <trkpt lat="47.65501" lon="2.1448624">
        <ele>185.0</ele>
        <time>2022-02-17T10:02:37Z</time>
      </trkpt>
      <trkpt lat="47.655" lon="2.1448586">
        <ele>185.0</ele>
        <time>2022-02-17T10:02:38Z</time>
      </trkpt>
      <trkpt lat="47.654984" lon="2.1448543">
        <ele>184.0</ele>
        <time>2022-02-17T10:02:39Z</time>
      </trkpt>
      <trkpt lat="47.654972" lon="2.1448505">
        <ele>184.0</ele>
        <time>2022-02-17T10:02:40Z</time>
      </trkpt>
      <trkpt lat="47.654964" lon="2.1448443">
        <ele>184.0</ele>
        <time>2022-02-17T10:02:41Z</time>
      </trkpt>
      <trkpt lat="47.654953" lon="2.1448338">
        <ele>184.0</ele>
        <time>2022-02-17T10:02:42Z</time>
      </trkpt>
      <trkpt lat="47.65494" lon="2.1448236">
        <ele>184.0</ele>
        <time>2022-02-17T10:02:43Z</time>
      </trkpt>
      <trkpt lat="47.654926" lon="2.1448183">
        <ele>184.0</ele>
        <time>2022-02-17T10:02:44Z</time>
      </trkpt>
      <trkpt lat="47.654915" lon="2.1448145">
        <ele>184.0</ele>
        <time>2022-02-17T10:02:45Z</time>
      </trkpt>
      <trkpt lat="47.654903" lon="2.1448083">
        <ele>184.0</ele>
        <time>2022-02-17T10:02:46Z</time>
      </trkpt>
      <trkpt lat="47.654892" lon="2.1448061">
        <ele>184.0</ele>
        <time>2022-02-17T10:02:47Z</time>
      </trkpt>
      <trkpt lat="47.654877" lon="2.1447997">
        <ele>184.0</ele>
        <time>2022-02-17T10:02:48Z</time>
      </trkpt>
      <trkpt lat="47.654865" lon="2.144796">
        <ele>184.0</ele>
        <time>2022-02-17T10:02:49Z</time>
      </trkpt>
      <trkpt lat="47.65485" lon="2.1447957">
        <ele>184.0</ele>
        <time>2022-02-17T10:02:50Z</time>
      </trkpt>
      <trkpt lat="47.654835" lon="2.1447945">
        <ele>184.0</ele>
        <time>2022-02-17T10:02:51Z</time>
      </trkpt>
      <trkpt lat="47.65482" lon="2.1447945">
        <ele>184.0</ele>
        <time>2022-02-17T10:02:52Z</time>
      </trkpt>
      <trkpt lat="47.654808" lon="2.144788">
        <ele>185.0</ele>
        <time>2022-02-17T10:02:53Z</time>
      </trkpt>
      <trkpt lat="47.6548" lon="2.1447797">
        <ele>185.0</ele>
        <time>2022-02-17T10:02:54Z</time>
      </trkpt>
      <trkpt lat="47.65479" lon="2.144772">
        <ele>184.0</ele>
        <time>2022-02-17T10:02:55Z</time>
      </trkpt>
      <trkpt lat="47.654778" lon="2.1447723">
        <ele>185.0</ele>
        <time>2022-02-17T10:02:56Z</time>
      </trkpt>
      <trkpt lat="47.654762" lon="2.1447692">
        <ele>185.0</ele>
        <time>2022-02-17T10:02:57Z</time>
      </trkpt>
      <trkpt lat="47.65475" lon="2.1447644">
        <ele>185.0</ele>
        <time>2022-02-17T10:02:58Z</time>
      </trkpt>
      <trkpt lat="47.65474" lon="2.1447601">
        <ele>185.0</ele>
        <time>2022-02-17T10:02:59Z</time>
      </trkpt>
      <trkpt lat="47.654728" lon="2.1447537">
        <ele>185.0</ele>
        <time>2022-02-17T10:03:00Z</time>
      </trkpt>
      <trkpt lat="47.654716" lon="2.1447496">
        <ele>184.0</ele>
        <time>2022-02-17T10:03:01Z</time>
      </trkpt>
      <trkpt lat="47.6547" lon="2.1447468">
        <ele>184.0</ele>
        <time>2022-02-17T10:03:02Z</time>
      </trkpt>
      <trkpt lat="47.654686" lon="2.1447484">
        <ele>184.0</ele>
        <time>2022-02-17T10:03:03Z</time>
      </trkpt>
      <trkpt lat="47.65467" lon="2.14475">
        <ele>184.0</ele>
        <time>2022-02-17T10:03:04Z</time>
      </trkpt>
      <trkpt lat="47.65466" lon="2.1447477">
        <ele>184.0</ele>
        <time>2022-02-17T10:03:05Z</time>
      </trkpt>
      <trkpt lat="47.654648" lon="2.1447453">
        <ele>183.0</ele>
        <time>2022-02-17T10:03:06Z</time>
      </trkpt>
      <trkpt lat="47.654633" lon="2.1447375">
        <ele>183.0</ele>
        <time>2022-02-17T10:03:07Z</time>
      </trkpt>
      <trkpt lat="47.65462" lon="2.1447353">
        <ele>184.0</ele>
        <time>2022-02-17T10:03:08Z</time>
      </trkpt>
      <trkpt lat="47.654606" lon="2.1447287">
        <ele>183.0</ele>
        <time>2022-02-17T10:03:09Z</time>
      </trkpt>
      <trkpt lat="47.654594" lon="2.144721">
        <ele>183.0</ele>
        <time>2022-02-17T10:03:10Z</time>
      </trkpt>
      <trkpt lat="47.654583" lon="2.144716">
        <ele>183.0</ele>
        <time>2022-02-17T10:03:11Z</time>
      </trkpt>
      <trkpt lat="47.65457" lon="2.1447084">
        <ele>183.0</ele>
        <time>2022-02-17T10:03:12Z</time>
      </trkpt>
      <trkpt lat="47.65456" lon="2.144703">
        <ele>183.0</ele>
        <time>2022-02-17T10:03:13Z</time>
      </trkpt>
      <trkpt lat="47.65455" lon="2.1446972">
        <ele>183.0</ele>
        <time>2022-02-17T10:03:14Z</time>
      </trkpt>
      <trkpt lat="47.654537" lon="2.1446924">
        <ele>182.0</ele>
        <time>2022-02-17T10:03:15Z</time>
      </trkpt>
      <trkpt lat="47.65453" lon="2.1446857">
        <ele>183.0</ele>
        <time>2022-02-17T10:03:16Z</time>
      </trkpt>
      <trkpt lat="47.654522" lon="2.144674">
        <ele>183.0</ele>
        <time>2022-02-17T10:03:17Z</time>
      </trkpt>
      <trkpt lat="47.654514" lon="2.1446676">
        <ele>183.0</ele>
        <time>2022-02-17T10:03:18Z</time>
      </trkpt>
      <trkpt lat="47.654507" lon="2.1446626">
        <ele>183.0</ele>
        <time>2022-02-17T10:03:19Z</time>
      </trkpt>
      <trkpt lat="47.654507" lon="2.1446626">
        <ele>183.0</ele>
        <time>2022-02-17T10:03:20Z</time>
      </trkpt>
      <trkpt lat="47.654507" lon="2.1446626">
        <ele>183.0</ele>
        <time>2022-02-17T10:03:21Z</time>
      </trkpt>
      <trkpt lat="47.654488" lon="2.1446617">
        <ele>184.0</ele>
        <time>2022-02-17T10:03:22Z</time>
      </trkpt>
      <trkpt lat="47.65448" lon="2.1446574">
        <ele>184.0</ele>
        <time>2022-02-17T10:03:23Z</time>
      </trkpt>
      <trkpt lat="47.654465" lon="2.144655">
        <ele>185.0</ele>
        <time>2022-02-17T10:03:24Z</time>
      </trkpt>
      <trkpt lat="47.654453" lon="2.1446557">
        <ele>185.0</ele>
        <time>2022-02-17T10:03:25Z</time>
      </trkpt>
      <trkpt lat="47.654453" lon="2.1446557">
        <ele>185.0</ele>
        <time>2022-02-17T10:03:26Z</time>
      </trkpt>
      <trkpt lat="47.654453" lon="2.1446557">
        <ele>185.0</ele>
        <time>2022-02-17T10:03:27Z</time>
      </trkpt>
      <trkpt lat="47.654423" lon="2.1446567">
        <ele>186.0</ele>
        <time>2022-02-17T10:03:28Z</time>
      </trkpt>
      <trkpt lat="47.654408" lon="2.1446567">
        <ele>186.0</ele>
        <time>2022-02-17T10:03:29Z</time>
      </trkpt>
      <trkpt lat="47.654396" lon="2.1446538">
        <ele>186.0</ele>
        <time>2022-02-17T10:03:30Z</time>
      </trkpt>
      <trkpt lat="47.654385" lon="2.1446514">
        <ele>186.0</ele>
        <time>2022-02-17T10:03:31Z</time>
      </trkpt>
      <trkpt lat="47.654385" lon="2.1446514">
        <ele>186.0</ele>
        <time>2022-02-17T10:03:32Z</time>
      </trkpt>
      <trkpt lat="47.654385" lon="2.1446514">
        <ele>186.0</ele>
        <time>2022-02-17T10:03:33Z</time>
      </trkpt>
      <trkpt lat="47.654354" lon="2.144637">
        <ele>187.0</ele>
        <time>2022-02-17T10:03:34Z</time>
      </trkpt>
      <trkpt lat="47.654343" lon="2.1446285">
        <ele>187.0</ele>
        <time>2022-02-17T10:03:35Z</time>
      </trkpt>
      <trkpt lat="47.654335" lon="2.1446242">
        <ele>188.0</ele>
        <time>2022-02-17T10:03:36Z</time>
      </trkpt>
      <trkpt lat="47.65432" lon="2.1446192">
        <ele>188.0</ele>
        <time>2022-02-17T10:03:37Z</time>
      </trkpt>
      <trkpt lat="47.654305" lon="2.1446126">
        <ele>187.0</ele>
        <time>2022-02-17T10:03:38Z</time>
      </trkpt>
      <trkpt lat="47.65429" lon="2.144604">
        <ele>187.0</ele>
        <time>2022-02-17T10:03:39Z</time>
      </trkpt>
      <trkpt lat="47.654274" lon="2.1445966">
        <ele>187.0</ele>
        <time>2022-02-17T10:03:40Z</time>
      </trkpt>
      <trkpt lat="47.654255" lon="2.1445901">
        <ele>187.0</ele>
        <time>2022-02-17T10:03:41Z</time>
      </trkpt>
      <trkpt lat="47.654243" lon="2.1445854">
        <ele>188.0</ele>
        <time>2022-02-17T10:03:42Z</time>
      </trkpt>
      <trkpt lat="47.654232" lon="2.1445775">
        <ele>187.0</ele>
        <time>2022-02-17T10:03:43Z</time>
      </trkpt>
      <trkpt lat="47.65422" lon="2.144573">
        <ele>187.0</ele>
        <time>2022-02-17T10:03:44Z</time>
      </trkpt>
      <trkpt lat="47.65421" lon="2.1445684">
        <ele>187.0</ele>
        <time>2022-02-17T10:03:45Z</time>
      </trkpt>
      <trkpt lat="47.654198" lon="2.1445715">
        <ele>187.0</ele>
        <time>2022-02-17T10:03:46Z</time>
      </trkpt>
      <trkpt lat="47.654186" lon="2.144573">
        <ele>187.0</ele>
        <time>2022-02-17T10:03:47Z</time>
      </trkpt>
      <trkpt lat="47.654175" lon="2.1445787">
        <ele>186.0</ele>
        <time>2022-02-17T10:03:48Z</time>
      </trkpt>
      <trkpt lat="47.654175" lon="2.1445787">
        <ele>186.0</ele>
        <time>2022-02-17T10:03:49Z</time>
      </trkpt>
      <trkpt lat="47.654175" lon="2.1445787">
        <ele>186.0</ele>
        <time>2022-02-17T10:03:50Z</time>
      </trkpt>
      <trkpt lat="47.65415" lon="2.144604">
        <ele>185.0</ele>
        <time>2022-02-17T10:03:51Z</time>
      </trkpt>
      <trkpt lat="47.65414" lon="2.1446142">
        <ele>185.0</ele>
        <time>2022-02-17T10:03:52Z</time>
      </trkpt>
      <trkpt lat="47.654133" lon="2.1446233">
        <ele>185.0</ele>
        <time>2022-02-17T10:03:53Z</time>
      </trkpt>
      <trkpt lat="47.65412" lon="2.1446376">
        <ele>185.0</ele>
        <time>2022-02-17T10:03:54Z</time>
      </trkpt>
      <trkpt lat="47.654114" lon="2.1446486">
        <ele>186.0</ele>
        <time>2022-02-17T10:03:55Z</time>
      </trkpt>
      <trkpt lat="47.654106" lon="2.1446629">
        <ele>186.0</ele>
        <time>2022-02-17T10:03:56Z</time>
      </trkpt>
      <trkpt lat="47.654095" lon="2.144673">
        <ele>186.0</ele>
        <time>2022-02-17T10:03:57Z</time>
      </trkpt>
      <trkpt lat="47.654087" lon="2.144687">
        <ele>186.0</ele>
        <time>2022-02-17T10:03:58Z</time>
      </trkpt>
      <trkpt lat="47.654083" lon="2.1447017">
        <ele>186.0</ele>
        <time>2022-02-17T10:03:59Z</time>
      </trkpt>
      <trkpt lat="47.654076" lon="2.144717">
        <ele>186.0</ele>
        <time>2022-02-17T10:04:00Z</time>
      </trkpt>
      <trkpt lat="47.65407" lon="2.1447306">
        <ele>187.0</ele>
        <time>2022-02-17T10:04:01Z</time>
      </trkpt>
      <trkpt lat="47.654064" lon="2.1447465">
        <ele>186.0</ele>
        <time>2022-02-17T10:04:02Z</time>
      </trkpt>
      <trkpt lat="47.654057" lon="2.1447594">
        <ele>186.0</ele>
        <time>2022-02-17T10:04:03Z</time>
      </trkpt>
      <trkpt lat="47.654053" lon="2.144769">
        <ele>186.0</ele>
        <time>2022-02-17T10:04:04Z</time>
      </trkpt>
      <trkpt lat="47.654053" lon="2.144769">
        <ele>186.0</ele>
        <time>2022-02-17T10:04:05Z</time>
      </trkpt>
      <trkpt lat="47.654053" lon="2.144769">
        <ele>186.0</ele>
        <time>2022-02-17T10:04:06Z</time>
      </trkpt>
      <trkpt lat="47.654045" lon="2.1447918">
        <ele>187.0</ele>
        <time>2022-02-17T10:04:07Z</time>
      </trkpt>
      <trkpt lat="47.654037" lon="2.1448007">
        <ele>187.0</ele>
        <time>2022-02-17T10:04:08Z</time>
      </trkpt>
      <trkpt lat="47.65403" lon="2.144813">
        <ele>188.0</ele>
        <time>2022-02-17T10:04:09Z</time>
      </trkpt>
      <trkpt lat="47.654022" lon="2.1448257">
        <ele>187.0</ele>
        <time>2022-02-17T10:04:10Z</time>
      </trkpt>
      <trkpt lat="47.654022" lon="2.1448257">
        <ele>187.0</ele>
        <time>2022-02-17T10:04:11Z</time>
      </trkpt>
      <trkpt lat="47.654022" lon="2.1448257">
        <ele>187.0</ele>
        <time>2022-02-17T10:04:12Z</time>
      </trkpt>
      <trkpt lat="47.654007" lon="2.1448646">
        <ele>188.0</ele>
        <time>2022-02-17T10:04:13Z</time>
      </trkpt>
      <trkpt lat="47.653996" lon="2.1448834">
        <ele>188.0</ele>
        <time>2022-02-17T10:04:14Z</time>
      </trkpt>
      <trkpt lat="47.65399" lon="2.1448984">
        <ele>187.0</ele>
        <time>2022-02-17T10:04:15Z</time>
      </trkpt>
      <trkpt lat="47.653988" lon="2.1449125">
        <ele>186.0</ele>
        <time>2022-02-17T10:04:16Z</time>
      </trkpt>
      <trkpt lat="47.65398" lon="2.1449308">
        <ele>187.0</ele>
        <time>2022-02-17T10:04:17Z</time>
      </trkpt>
      <trkpt lat="47.653973" lon="2.144946">
        <ele>187.0</ele>
        <time>2022-02-17T10:04:18Z</time>
      </trkpt>
      <trkpt lat="47.65397" lon="2.1449637">
        <ele>187.0</ele>
        <time>2022-02-17T10:04:19Z</time>
      </trkpt>
      <trkpt lat="47.65396" lon="2.1449769">
        <ele>187.0</ele>
        <time>2022-02-17T10:04:20Z</time>
      </trkpt>
      <trkpt lat="47.653957" lon="2.144988">
        <ele>187.0</ele>
        <time>2022-02-17T10:04:21Z</time>
      </trkpt>
      <trkpt lat="47.653954" lon="2.1449978">
        <ele>188.0</ele>
        <time>2022-02-17T10:04:22Z</time>
      </trkpt>
      <trkpt lat="47.653942" lon="2.145007">
        <ele>187.0</ele>
        <time>2022-02-17T10:04:23Z</time>
      </trkpt>
      <trkpt lat="47.65394" lon="2.1450188">
        <ele>188.0</ele>
        <time>2022-02-17T10:04:24Z</time>
      </trkpt>
      <trkpt lat="47.653934" lon="2.1450453">
        <ele>187.0</ele>
        <time>2022-02-17T10:04:25Z</time>
      </trkpt>
      <trkpt lat="47.653927" lon="2.1450627">
        <ele>187.0</ele>
        <time>2022-02-17T10:04:26Z</time>
      </trkpt>
      <trkpt lat="47.653927" lon="2.1450627">
        <ele>187.0</ele>
        <time>2022-02-17T10:04:27Z</time>
      </trkpt>
      <trkpt lat="47.653927" lon="2.1450627">
        <ele>187.0</ele>
        <time>2022-02-17T10:04:28Z</time>
      </trkpt>
      <trkpt lat="47.653915" lon="2.1450949">
        <ele>187.0</ele>
        <time>2022-02-17T10:04:29Z</time>
      </trkpt>
      <trkpt lat="47.653908" lon="2.145102">
        <ele>188.0</ele>
        <time>2022-02-17T10:04:30Z</time>
      </trkpt>
      <trkpt lat="47.653904" lon="2.145119">
        <ele>188.0</ele>
        <time>2022-02-17T10:04:31Z</time>
      </trkpt>
      <trkpt lat="47.6539" lon="2.145134">
        <ele>188.0</ele>
        <time>2022-02-17T10:04:32Z</time>
      </trkpt>
      <trkpt lat="47.653896" lon="2.1451507">
        <ele>188.0</ele>
        <time>2022-02-17T10:04:33Z</time>
      </trkpt>
      <trkpt lat="47.653893" lon="2.1451678">
        <ele>188.0</ele>
        <time>2022-02-17T10:04:34Z</time>
      </trkpt>
      <trkpt lat="47.653893" lon="2.1451678">
        <ele>188.0</ele>
        <time>2022-02-17T10:04:35Z</time>
      </trkpt>
      <trkpt lat="47.653893" lon="2.1451678">
        <ele>188.0</ele>
        <time>2022-02-17T10:04:36Z</time>
      </trkpt>
      <trkpt lat="47.653873" lon="2.1451945">
        <ele>187.0</ele>
        <time>2022-02-17T10:04:37Z</time>
      </trkpt>
      <trkpt lat="47.65387" lon="2.1452067">
        <ele>187.0</ele>
        <time>2022-02-17T10:04:38Z</time>
      </trkpt>
      <trkpt lat="47.65386" lon="2.1452227">
        <ele>186.0</ele>
        <time>2022-02-17T10:04:39Z</time>
      </trkpt>
      <trkpt lat="47.653854" lon="2.145235">
        <ele>186.0</ele>
        <time>2022-02-17T10:04:40Z</time>
      </trkpt>
      <trkpt lat="47.653847" lon="2.1452508">
        <ele>186.0</ele>
        <time>2022-02-17T10:04:41Z</time>
      </trkpt>
      <trkpt lat="47.653843" lon="2.1452677">
        <ele>186.0</ele>
        <time>2022-02-17T10:04:42Z</time>
      </trkpt>
      <trkpt lat="47.653835" lon="2.145285">
        <ele>185.0</ele>
        <time>2022-02-17T10:04:43Z</time>
      </trkpt>
      <trkpt lat="47.653828" lon="2.1452968">
        <ele>185.0</ele>
        <time>2022-02-17T10:04:44Z</time>
      </trkpt>
      <trkpt lat="47.653824" lon="2.1453106">
        <ele>185.0</ele>
        <time>2022-02-17T10:04:45Z</time>
      </trkpt>
      <trkpt lat="47.653816" lon="2.1453197">
        <ele>185.0</ele>
        <time>2022-02-17T10:04:46Z</time>
      </trkpt>
      <trkpt lat="47.65381" lon="2.1453364">
        <ele>185.0</ele>
        <time>2022-02-17T10:04:47Z</time>
      </trkpt>
      <trkpt lat="47.653805" lon="2.145354">
        <ele>185.0</ele>
        <time>2022-02-17T10:04:48Z</time>
      </trkpt>
      <trkpt lat="47.653797" lon="2.1453698">
        <ele>185.0</ele>
        <time>2022-02-17T10:04:49Z</time>
      </trkpt>
      <trkpt lat="47.65379" lon="2.1453872">
        <ele>185.0</ele>
        <time>2022-02-17T10:04:50Z</time>
      </trkpt>
      <trkpt lat="47.65378" lon="2.145407">
        <ele>184.0</ele>
        <time>2022-02-17T10:04:51Z</time>
      </trkpt>
      <trkpt lat="47.653774" lon="2.1454246">
        <ele>184.0</ele>
        <time>2022-02-17T10:04:52Z</time>
      </trkpt>
      <trkpt lat="47.653767" lon="2.1454422">
        <ele>184.0</ele>
        <time>2022-02-17T10:04:53Z</time>
      </trkpt>
      <trkpt lat="47.65376" lon="2.1454613">
        <ele>184.0</ele>
        <time>2022-02-17T10:04:54Z</time>
      </trkpt>
      <trkpt lat="47.65375" lon="2.1454818">
        <ele>184.0</ele>
        <time>2022-02-17T10:04:55Z</time>
      </trkpt>
      <trkpt lat="47.653748" lon="2.1455">
        <ele>184.0</ele>
        <time>2022-02-17T10:04:56Z</time>
      </trkpt>
      <trkpt lat="47.653744" lon="2.1455178">
        <ele>184.0</ele>
        <time>2022-02-17T10:04:57Z</time>
      </trkpt>
      <trkpt lat="47.65374" lon="2.1455336">
        <ele>184.0</ele>
        <time>2022-02-17T10:04:58Z</time>
      </trkpt>
      <trkpt lat="47.653732" lon="2.1455488">
        <ele>184.0</ele>
        <time>2022-02-17T10:04:59Z</time>
      </trkpt>
      <trkpt lat="47.65373" lon="2.1455617">
        <ele>184.0</ele>
        <time>2022-02-17T10:05:00Z</time>
      </trkpt>
      <trkpt lat="47.653725" lon="2.1455724">
        <ele>184.0</ele>
        <time>2022-02-17T10:05:01Z</time>
      </trkpt>
      <trkpt lat="47.653717" lon="2.1455846">
        <ele>185.0</ele>
        <time>2022-02-17T10:05:02Z</time>
      </trkpt>
      <trkpt lat="47.653713" lon="2.1455965">
        <ele>184.0</ele>
        <time>2022-02-17T10:05:03Z</time>
      </trkpt>
      <trkpt lat="47.65371" lon="2.145607">
        <ele>184.0</ele>
        <time>2022-02-17T10:05:04Z</time>
      </trkpt>
      <trkpt lat="47.6537" lon="2.1456158">
        <ele>184.0</ele>
        <time>2022-02-17T10:05:05Z</time>
      </trkpt>
      <trkpt lat="47.6537" lon="2.145625">
        <ele>184.0</ele>
        <time>2022-02-17T10:05:06Z</time>
      </trkpt>
      <trkpt lat="47.653694" lon="2.145637">
        <ele>184.0</ele>
        <time>2022-02-17T10:05:07Z</time>
      </trkpt>
      <trkpt lat="47.653687" lon="2.1456447">
        <ele>184.0</ele>
        <time>2022-02-17T10:05:08Z</time>
      </trkpt>
      <trkpt lat="47.653675" lon="2.1456602">
        <ele>184.0</ele>
        <time>2022-02-17T10:05:09Z</time>
      </trkpt>
      <trkpt lat="47.653667" lon="2.145677">
        <ele>184.0</ele>
        <time>2022-02-17T10:05:10Z</time>
      </trkpt>
      <trkpt lat="47.653656" lon="2.1456943">
        <ele>184.0</ele>
        <time>2022-02-17T10:05:11Z</time>
      </trkpt>
      <trkpt lat="47.65365" lon="2.1457105">
        <ele>184.0</ele>
        <time>2022-02-17T10:05:12Z</time>
      </trkpt>
      <trkpt lat="47.65364" lon="2.1457255">
        <ele>184.0</ele>
        <time>2022-02-17T10:05:13Z</time>
      </trkpt>
      <trkpt lat="47.653637" lon="2.1457412">
        <ele>184.0</ele>
        <time>2022-02-17T10:05:14Z</time>
      </trkpt>
      <trkpt lat="47.65363" lon="2.1457543">
        <ele>185.0</ele>
        <time>2022-02-17T10:05:15Z</time>
      </trkpt>
      <trkpt lat="47.653625" lon="2.1457705">
        <ele>185.0</ele>
        <time>2022-02-17T10:05:16Z</time>
      </trkpt>
      <trkpt lat="47.653618" lon="2.1457858">
        <ele>185.0</ele>
        <time>2022-02-17T10:05:17Z</time>
      </trkpt>
      <trkpt lat="47.653614" lon="2.1458023">
        <ele>185.0</ele>
        <time>2022-02-17T10:05:18Z</time>
      </trkpt>
      <trkpt lat="47.65361" lon="2.1458173">
        <ele>185.0</ele>
        <time>2022-02-17T10:05:19Z</time>
      </trkpt>
      <trkpt lat="47.653606" lon="2.1458344">
        <ele>185.0</ele>
        <time>2022-02-17T10:05:20Z</time>
      </trkpt>
      <trkpt lat="47.6536" lon="2.1458495">
        <ele>184.0</ele>
        <time>2022-02-17T10:05:21Z</time>
      </trkpt>
      <trkpt lat="47.653595" lon="2.1458666">
        <ele>184.0</ele>
        <time>2022-02-17T10:05:22Z</time>
      </trkpt>
      <trkpt lat="47.65359" lon="2.1458824">
        <ele>184.0</ele>
        <time>2022-02-17T10:05:23Z</time>
      </trkpt>
      <trkpt lat="47.653584" lon="2.1459022">
        <ele>183.0</ele>
        <time>2022-02-17T10:05:24Z</time>
      </trkpt>
      <trkpt lat="47.653576" lon="2.1459239">
        <ele>183.0</ele>
        <time>2022-02-17T10:05:25Z</time>
      </trkpt>
      <trkpt lat="47.65357" lon="2.1459463">
        <ele>183.0</ele>
        <time>2022-02-17T10:05:26Z</time>
      </trkpt>
      <trkpt lat="47.653564" lon="2.145964">
        <ele>183.0</ele>
        <time>2022-02-17T10:05:27Z</time>
      </trkpt>
      <trkpt lat="47.653557" lon="2.1459796">
        <ele>183.0</ele>
        <time>2022-02-17T10:05:28Z</time>
      </trkpt>
      <trkpt lat="47.65355" lon="2.145998">
        <ele>182.0</ele>
        <time>2022-02-17T10:05:29Z</time>
      </trkpt>
      <trkpt lat="47.653545" lon="2.146017">
        <ele>182.0</ele>
        <time>2022-02-17T10:05:30Z</time>
      </trkpt>
      <trkpt lat="47.653538" lon="2.146032">
        <ele>182.0</ele>
        <time>2022-02-17T10:05:31Z</time>
      </trkpt>
      <trkpt lat="47.65353" lon="2.1460466">
        <ele>182.0</ele>
        <time>2022-02-17T10:05:32Z</time>
      </trkpt>
      <trkpt lat="47.653526" lon="2.1460629">
        <ele>182.0</ele>
        <time>2022-02-17T10:05:33Z</time>
      </trkpt>
      <trkpt lat="47.65352" lon="2.1460774">
        <ele>181.0</ele>
        <time>2022-02-17T10:05:34Z</time>
      </trkpt>
      <trkpt lat="47.65351" lon="2.1460927">
        <ele>181.0</ele>
        <time>2022-02-17T10:05:35Z</time>
      </trkpt>
      <trkpt lat="47.653507" lon="2.1461024">
        <ele>181.0</ele>
        <time>2022-02-17T10:05:36Z</time>
      </trkpt>
      <trkpt lat="47.653496" lon="2.1461117">
        <ele>181.0</ele>
        <time>2022-02-17T10:05:37Z</time>
      </trkpt>
      <trkpt lat="47.653492" lon="2.146123">
        <ele>181.0</ele>
        <time>2022-02-17T10:05:38Z</time>
      </trkpt>
      <trkpt lat="47.653484" lon="2.1461403">
        <ele>181.0</ele>
        <time>2022-02-17T10:05:39Z</time>
      </trkpt>
      <trkpt lat="47.65348" lon="2.1461568">
        <ele>181.0</ele>
        <time>2022-02-17T10:05:40Z</time>
      </trkpt>
      <trkpt lat="47.653473" lon="2.1461725">
        <ele>181.0</ele>
        <time>2022-02-17T10:05:41Z</time>
      </trkpt>
      <trkpt lat="47.653465" lon="2.1461873">
        <ele>181.0</ele>
        <time>2022-02-17T10:05:42Z</time>
      </trkpt>
      <trkpt lat="47.65346" lon="2.1462045">
        <ele>181.0</ele>
        <time>2022-02-17T10:05:43Z</time>
      </trkpt>
      <trkpt lat="47.653454" lon="2.1462197">
        <ele>181.0</ele>
        <time>2022-02-17T10:05:44Z</time>
      </trkpt>
      <trkpt lat="47.653446" lon="2.1462321">
        <ele>181.0</ele>
        <time>2022-02-17T10:05:45Z</time>
      </trkpt>
      <trkpt lat="47.653442" lon="2.146247">
        <ele>181.0</ele>
        <time>2022-02-17T10:05:46Z</time>
      </trkpt>
      <trkpt lat="47.653435" lon="2.146265">
        <ele>181.0</ele>
        <time>2022-02-17T10:05:47Z</time>
      </trkpt>
      <trkpt lat="47.65343" lon="2.1462796">
        <ele>181.0</ele>
        <time>2022-02-17T10:05:48Z</time>
      </trkpt>
      <trkpt lat="47.653427" lon="2.1462963">
        <ele>181.0</ele>
        <time>2022-02-17T10:05:49Z</time>
      </trkpt>
      <trkpt lat="47.65342" lon="2.1463158">
        <ele>182.0</ele>
        <time>2022-02-17T10:05:50Z</time>
      </trkpt>
      <trkpt lat="47.653416" lon="2.146334">
        <ele>182.0</ele>
        <time>2022-02-17T10:05:51Z</time>
      </trkpt>
      <trkpt lat="47.653404" lon="2.146353">
        <ele>182.0</ele>
        <time>2022-02-17T10:05:52Z</time>
      </trkpt>
      <trkpt lat="47.6534" lon="2.1463692">
        <ele>182.0</ele>
        <time>2022-02-17T10:05:53Z</time>
      </trkpt>
      <trkpt lat="47.653397" lon="2.1463826">
        <ele>183.0</ele>
        <time>2022-02-17T10:05:54Z</time>
      </trkpt>
      <trkpt lat="47.65339" lon="2.1463964">
        <ele>183.0</ele>
        <time>2022-02-17T10:05:55Z</time>
      </trkpt>
      <trkpt lat="47.65338" lon="2.1464121">
        <ele>182.0</ele>
        <time>2022-02-17T10:05:56Z</time>
      </trkpt>
      <trkpt lat="47.653374" lon="2.1464272">
        <ele>183.0</ele>
        <time>2022-02-17T10:05:57Z</time>
      </trkpt>
      <trkpt lat="47.653366" lon="2.1464431">
        <ele>183.0</ele>
        <time>2022-02-17T10:05:58Z</time>
      </trkpt>
      <trkpt lat="47.653362" lon="2.1464527">
        <ele>184.0</ele>
        <time>2022-02-17T10:05:59Z</time>
      </trkpt>
      <trkpt lat="47.653362" lon="2.146453">
        <ele>184.0</ele>
        <time>2022-02-17T10:06:00Z</time>
      </trkpt>
      <trkpt lat="47.653362" lon="2.146453">
        <ele>184.0</ele>
        <time>2022-02-17T10:06:01Z</time>
      </trkpt>
      <trkpt lat="47.653362" lon="2.146453">
        <ele>184.0</ele>
        <time>2022-02-17T10:06:02Z</time>
      </trkpt>
      <trkpt lat="47.65335" lon="2.146491">
        <ele>184.0</ele>
        <time>2022-02-17T10:06:03Z</time>
      </trkpt>
      <trkpt lat="47.653347" lon="2.1465087">
        <ele>184.0</ele>
        <time>2022-02-17T10:06:04Z</time>
      </trkpt>
      <trkpt lat="47.653336" lon="2.1465256">
        <ele>184.0</ele>
        <time>2022-02-17T10:06:05Z</time>
      </trkpt>
      <trkpt lat="47.653328" lon="2.14654">
        <ele>184.0</ele>
        <time>2022-02-17T10:06:06Z</time>
      </trkpt>
      <trkpt lat="47.65332" lon="2.1465561">
        <ele>184.0</ele>
        <time>2022-02-17T10:06:07Z</time>
      </trkpt>
      <trkpt lat="47.653313" lon="2.14657">
        <ele>185.0</ele>
        <time>2022-02-17T10:06:08Z</time>
      </trkpt>
      <trkpt lat="47.65331" lon="2.1465847">
        <ele>185.0</ele>
        <time>2022-02-17T10:06:09Z</time>
      </trkpt>
      <trkpt lat="47.6533" lon="2.1465986">
        <ele>185.0</ele>
        <time>2022-02-17T10:06:10Z</time>
      </trkpt>
      <trkpt lat="47.653294" lon="2.146612">
        <ele>185.0</ele>
        <time>2022-02-17T10:06:11Z</time>
      </trkpt>
      <trkpt lat="47.653286" lon="2.1466289">
        <ele>185.0</ele>
        <time>2022-02-17T10:06:12Z</time>
      </trkpt>
      <trkpt lat="47.653282" lon="2.146644">
        <ele>185.0</ele>
        <time>2022-02-17T10:06:13Z</time>
      </trkpt>
      <trkpt lat="47.653275" lon="2.1466608">
        <ele>186.0</ele>
        <time>2022-02-17T10:06:14Z</time>
      </trkpt>
      <trkpt lat="47.65327" lon="2.1466777">
        <ele>186.0</ele>
        <time>2022-02-17T10:06:15Z</time>
      </trkpt>
      <trkpt lat="47.653263" lon="2.1467001">
        <ele>186.0</ele>
        <time>2022-02-17T10:06:16Z</time>
      </trkpt>
      <trkpt lat="47.65326" lon="2.146719">
        <ele>186.0</ele>
        <time>2022-02-17T10:06:17Z</time>
      </trkpt>
      <trkpt lat="47.65325" lon="2.1467369">
        <ele>186.0</ele>
        <time>2022-02-17T10:06:18Z</time>
      </trkpt>
      <trkpt lat="47.653248" lon="2.1467466">
        <ele>186.0</ele>
        <time>2022-02-17T10:06:19Z</time>
      </trkpt>
      <trkpt lat="47.653244" lon="2.1467571">
        <ele>186.0</ele>
        <time>2022-02-17T10:06:20Z</time>
      </trkpt>
      <trkpt lat="47.65324" lon="2.1467686">
        <ele>186.0</ele>
        <time>2022-02-17T10:06:21Z</time>
      </trkpt>
      <trkpt lat="47.653236" lon="2.146784">
        <ele>186.0</ele>
        <time>2022-02-17T10:06:22Z</time>
      </trkpt>
      <trkpt lat="47.65323" lon="2.1468015">
        <ele>186.0</ele>
        <time>2022-02-17T10:06:23Z</time>
      </trkpt>
      <trkpt lat="47.65322" lon="2.1468155">
        <ele>186.0</ele>
        <time>2022-02-17T10:06:24Z</time>
      </trkpt>
      <trkpt lat="47.653214" lon="2.146836">
        <ele>186.0</ele>
        <time>2022-02-17T10:06:25Z</time>
      </trkpt>
      <trkpt lat="47.65321" lon="2.1468532">
        <ele>186.0</ele>
        <time>2022-02-17T10:06:26Z</time>
      </trkpt>
      <trkpt lat="47.653202" lon="2.1468682">
        <ele>186.0</ele>
        <time>2022-02-17T10:06:27Z</time>
      </trkpt>
      <trkpt lat="47.653194" lon="2.146882">
        <ele>186.0</ele>
        <time>2022-02-17T10:06:28Z</time>
      </trkpt>
      <trkpt lat="47.653194" lon="2.146882">
        <ele>186.0</ele>
        <time>2022-02-17T10:06:29Z</time>
      </trkpt>
      <trkpt lat="47.65318" lon="2.1469128">
        <ele>186.0</ele>
        <time>2022-02-17T10:06:30Z</time>
      </trkpt>
      <trkpt lat="47.653175" lon="2.1469293">
        <ele>186.0</ele>
        <time>2022-02-17T10:06:31Z</time>
      </trkpt>
      <trkpt lat="47.653168" lon="2.1469443">
        <ele>186.0</ele>
        <time>2022-02-17T10:06:32Z</time>
      </trkpt>
      <trkpt lat="47.65316" lon="2.14696">
        <ele>186.0</ele>
        <time>2022-02-17T10:06:33Z</time>
      </trkpt>
      <trkpt lat="47.653156" lon="2.146979">
        <ele>186.0</ele>
        <time>2022-02-17T10:06:34Z</time>
      </trkpt>
      <trkpt lat="47.65315" lon="2.1469944">
        <ele>186.0</ele>
        <time>2022-02-17T10:06:35Z</time>
      </trkpt>
      <trkpt lat="47.65315" lon="2.147009">
        <ele>186.0</ele>
        <time>2022-02-17T10:06:36Z</time>
      </trkpt>
      <trkpt lat="47.65314" lon="2.1470232">
        <ele>186.0</ele>
        <time>2022-02-17T10:06:37Z</time>
      </trkpt>
      <trkpt lat="47.653133" lon="2.147032">
        <ele>186.0</ele>
        <time>2022-02-17T10:06:38Z</time>
      </trkpt>
      <trkpt lat="47.653126" lon="2.1470408">
        <ele>186.0</ele>
        <time>2022-02-17T10:06:39Z</time>
      </trkpt>
      <trkpt lat="47.653122" lon="2.147049">
        <ele>186.0</ele>
        <time>2022-02-17T10:06:40Z</time>
      </trkpt>
      <trkpt lat="47.653122" lon="2.147049">
        <ele>186.0</ele>
        <time>2022-02-17T10:06:41Z</time>
      </trkpt>
      <trkpt lat="47.653122" lon="2.147049">
        <ele>186.0</ele>
        <time>2022-02-17T10:06:42Z</time>
      </trkpt>
      <trkpt lat="47.653107" lon="2.147084">
        <ele>187.0</ele>
        <time>2022-02-17T10:06:43Z</time>
      </trkpt>
      <trkpt lat="47.6531" lon="2.1470983">
        <ele>186.0</ele>
        <time>2022-02-17T10:06:44Z</time>
      </trkpt>
      <trkpt lat="47.65309" lon="2.1471124">
        <ele>186.0</ele>
        <time>2022-02-17T10:06:45Z</time>
      </trkpt>
      <trkpt lat="47.653084" lon="2.1471276">
        <ele>186.0</ele>
        <time>2022-02-17T10:06:46Z</time>
      </trkpt>
      <trkpt lat="47.653076" lon="2.147144">
        <ele>186.0</ele>
        <time>2022-02-17T10:06:47Z</time>
      </trkpt>
      <trkpt lat="47.65307" lon="2.1471612">
        <ele>187.0</ele>
        <time>2022-02-17T10:06:48Z</time>
      </trkpt>
      <trkpt lat="47.65306" lon="2.1471782">
        <ele>186.0</ele>
        <time>2022-02-17T10:06:49Z</time>
      </trkpt>
      <trkpt lat="47.653057" lon="2.1471927">
        <ele>187.0</ele>
        <time>2022-02-17T10:06:50Z</time>
      </trkpt>
      <trkpt lat="47.65305" lon="2.1472075">
        <ele>187.0</ele>
        <time>2022-02-17T10:06:51Z</time>
      </trkpt>
      <trkpt lat="47.653046" lon="2.147225">
        <ele>187.0</ele>
        <time>2022-02-17T10:06:52Z</time>
      </trkpt>
      <trkpt lat="47.653038" lon="2.1472383">
        <ele>187.0</ele>
        <time>2022-02-17T10:06:53Z</time>
      </trkpt>
      <trkpt lat="47.653034" lon="2.1472557">
        <ele>188.0</ele>
        <time>2022-02-17T10:06:54Z</time>
      </trkpt>
      <trkpt lat="47.653027" lon="2.1472716">
        <ele>188.0</ele>
        <time>2022-02-17T10:06:55Z</time>
      </trkpt>
      <trkpt lat="47.65302" lon="2.1472874">
        <ele>188.0</ele>
        <time>2022-02-17T10:06:56Z</time>
      </trkpt>
      <trkpt lat="47.65301" lon="2.1473024">
        <ele>188.0</ele>
        <time>2022-02-17T10:06:57Z</time>
      </trkpt>
      <trkpt lat="47.653008" lon="2.1473165">
        <ele>188.0</ele>
        <time>2022-02-17T10:06:58Z</time>
      </trkpt>
      <trkpt lat="47.653004" lon="2.1473286">
        <ele>188.0</ele>
        <time>2022-02-17T10:06:59Z</time>
      </trkpt>
      <trkpt lat="47.652996" lon="2.1473455">
        <ele>188.0</ele>
        <time>2022-02-17T10:07:00Z</time>
      </trkpt>
      <trkpt lat="47.652992" lon="2.1473656">
        <ele>188.0</ele>
        <time>2022-02-17T10:07:01Z</time>
      </trkpt>
      <trkpt lat="47.652985" lon="2.1473804">
        <ele>189.0</ele>
        <time>2022-02-17T10:07:02Z</time>
      </trkpt>
      <trkpt lat="47.65298" lon="2.1474004">
        <ele>190.0</ele>
        <time>2022-02-17T10:07:03Z</time>
      </trkpt>
      <trkpt lat="47.652973" lon="2.1474195">
        <ele>189.0</ele>
        <time>2022-02-17T10:07:04Z</time>
      </trkpt>
      <trkpt lat="47.652966" lon="2.1474407">
        <ele>189.0</ele>
        <time>2022-02-17T10:07:05Z</time>
      </trkpt>
      <trkpt lat="47.65296" lon="2.147455">
        <ele>189.0</ele>
        <time>2022-02-17T10:07:06Z</time>
      </trkpt>
      <trkpt lat="47.652954" lon="2.1474695">
        <ele>189.0</ele>
        <time>2022-02-17T10:07:07Z</time>
      </trkpt>
      <trkpt lat="47.652946" lon="2.1474786">
        <ele>189.0</ele>
        <time>2022-02-17T10:07:08Z</time>
      </trkpt>
      <trkpt lat="47.652943" lon="2.14749">
        <ele>189.0</ele>
        <time>2022-02-17T10:07:09Z</time>
      </trkpt>
      <trkpt lat="47.652935" lon="2.1475048">
        <ele>189.0</ele>
        <time>2022-02-17T10:07:10Z</time>
      </trkpt>
      <trkpt lat="47.65293" lon="2.1475232">
        <ele>189.0</ele>
        <time>2022-02-17T10:07:11Z</time>
      </trkpt>
      <trkpt lat="47.652927" lon="2.1475375">
        <ele>189.0</ele>
        <time>2022-02-17T10:07:12Z</time>
      </trkpt>
      <trkpt lat="47.65292" lon="2.147553">
        <ele>189.0</ele>
        <time>2022-02-17T10:07:13Z</time>
      </trkpt>
      <trkpt lat="47.652916" lon="2.1475635">
        <ele>189.0</ele>
        <time>2022-02-17T10:07:14Z</time>
      </trkpt>
      <trkpt lat="47.652912" lon="2.1475732">
        <ele>189.0</ele>
        <time>2022-02-17T10:07:15Z</time>
      </trkpt>
      <trkpt lat="47.652905" lon="2.1475859">
        <ele>189.0</ele>
        <time>2022-02-17T10:07:16Z</time>
      </trkpt>
      <trkpt lat="47.652897" lon="2.1475978">
        <ele>189.0</ele>
        <time>2022-02-17T10:07:17Z</time>
      </trkpt>
      <trkpt lat="47.65289" lon="2.1476128">
        <ele>189.0</ele>
        <time>2022-02-17T10:07:18Z</time>
      </trkpt>
      <trkpt lat="47.65288" lon="2.1476302">
        <ele>189.0</ele>
        <time>2022-02-17T10:07:19Z</time>
      </trkpt>
      <trkpt lat="47.652874" lon="2.1476445">
        <ele>189.0</ele>
        <time>2022-02-17T10:07:20Z</time>
      </trkpt>
      <trkpt lat="47.652866" lon="2.1476562">
        <ele>189.0</ele>
        <time>2022-02-17T10:07:21Z</time>
      </trkpt>
      <trkpt lat="47.652863" lon="2.1476672">
        <ele>189.0</ele>
        <time>2022-02-17T10:07:22Z</time>
      </trkpt>
      <trkpt lat="47.652863" lon="2.1476824">
        <ele>189.0</ele>
        <time>2022-02-17T10:07:23Z</time>
      </trkpt>
      <trkpt lat="47.652863" lon="2.1476824">
        <ele>189.0</ele>
        <time>2022-02-17T10:07:24Z</time>
      </trkpt>
      <trkpt lat="47.65285" lon="2.1477091">
        <ele>188.0</ele>
        <time>2022-02-17T10:07:25Z</time>
      </trkpt>
      <trkpt lat="47.652847" lon="2.147726">
        <ele>188.0</ele>
        <time>2022-02-17T10:07:26Z</time>
      </trkpt>
      <trkpt lat="47.652843" lon="2.147744">
        <ele>189.0</ele>
        <time>2022-02-17T10:07:27Z</time>
      </trkpt>
      <trkpt lat="47.652843" lon="2.1477592">
        <ele>189.0</ele>
        <time>2022-02-17T10:07:28Z</time>
      </trkpt>
      <trkpt lat="47.652836" lon="2.1477764">
        <ele>189.0</ele>
        <time>2022-02-17T10:07:29Z</time>
      </trkpt>
      <trkpt lat="47.652836" lon="2.147791">
        <ele>189.0</ele>
        <time>2022-02-17T10:07:30Z</time>
      </trkpt>
      <trkpt lat="47.65283" lon="2.1478043">
        <ele>189.0</ele>
        <time>2022-02-17T10:07:31Z</time>
      </trkpt>
      <trkpt lat="47.65283" lon="2.1478164">
        <ele>189.0</ele>
        <time>2022-02-17T10:07:32Z</time>
      </trkpt>
      <trkpt lat="47.652824" lon="2.1478286">
        <ele>190.0</ele>
        <time>2022-02-17T10:07:33Z</time>
      </trkpt>
      <trkpt lat="47.652813" lon="2.1478412">
        <ele>190.0</ele>
        <time>2022-02-17T10:07:34Z</time>
      </trkpt>
      <trkpt lat="47.652805" lon="2.1478555">
        <ele>189.0</ele>
        <time>2022-02-17T10:07:35Z</time>
      </trkpt>
      <trkpt lat="47.652798" lon="2.1478708">
        <ele>189.0</ele>
        <time>2022-02-17T10:07:36Z</time>
      </trkpt>
      <trkpt lat="47.652794" lon="2.147888">
        <ele>189.0</ele>
        <time>2022-02-17T10:07:37Z</time>
      </trkpt>
      <trkpt lat="47.652782" lon="2.1479025">
        <ele>189.0</ele>
        <time>2022-02-17T10:07:38Z</time>
      </trkpt>
      <trkpt lat="47.652775" lon="2.1479158">
        <ele>189.0</ele>
        <time>2022-02-17T10:07:39Z</time>
      </trkpt>
      <trkpt lat="47.65277" lon="2.1479259">
        <ele>189.0</ele>
        <time>2022-02-17T10:07:40Z</time>
      </trkpt>
      <trkpt lat="47.652767" lon="2.1479394">
        <ele>189.0</ele>
        <time>2022-02-17T10:07:41Z</time>
      </trkpt>
      <trkpt lat="47.652763" lon="2.1479516">
        <ele>189.0</ele>
        <time>2022-02-17T10:07:42Z</time>
      </trkpt>
      <trkpt lat="47.65276" lon="2.1479669">
        <ele>189.0</ele>
        <time>2022-02-17T10:07:43Z</time>
      </trkpt>
      <trkpt lat="47.652752" lon="2.1479836">
        <ele>189.0</ele>
        <time>2022-02-17T10:07:44Z</time>
      </trkpt>
      <trkpt lat="47.65275" lon="2.1480005">
        <ele>189.0</ele>
        <time>2022-02-17T10:07:45Z</time>
      </trkpt>
      <trkpt lat="47.652744" lon="2.1480212">
        <ele>190.0</ele>
        <time>2022-02-17T10:07:46Z</time>
      </trkpt>
      <trkpt lat="47.65274" lon="2.1480365">
        <ele>190.0</ele>
        <time>2022-02-17T10:07:47Z</time>
      </trkpt>
      <trkpt lat="47.652733" lon="2.148049">
        <ele>189.0</ele>
        <time>2022-02-17T10:07:48Z</time>
      </trkpt>
      <trkpt lat="47.652725" lon="2.14806">
        <ele>189.0</ele>
        <time>2022-02-17T10:07:49Z</time>
      </trkpt>
      <trkpt lat="47.65272" lon="2.1480765">
        <ele>190.0</ele>
        <time>2022-02-17T10:07:50Z</time>
      </trkpt>
      <trkpt lat="47.652714" lon="2.1480937">
        <ele>190.0</ele>
        <time>2022-02-17T10:07:51Z</time>
      </trkpt>
      <trkpt lat="47.652706" lon="2.1481082">
        <ele>190.0</ele>
        <time>2022-02-17T10:07:52Z</time>
      </trkpt>
      <trkpt lat="47.652702" lon="2.148121">
        <ele>189.0</ele>
        <time>2022-02-17T10:07:53Z</time>
      </trkpt>
      <trkpt lat="47.6527" lon="2.1481335">
        <ele>189.0</ele>
        <time>2022-02-17T10:07:54Z</time>
      </trkpt>
      <trkpt lat="47.65269" lon="2.1481466">
        <ele>189.0</ele>
        <time>2022-02-17T10:07:55Z</time>
      </trkpt>
      <trkpt lat="47.652683" lon="2.148161">
        <ele>190.0</ele>
        <time>2022-02-17T10:07:56Z</time>
      </trkpt>
      <trkpt lat="47.65268" lon="2.1481705">
        <ele>190.0</ele>
        <time>2022-02-17T10:07:57Z</time>
      </trkpt>
      <trkpt lat="47.65267" lon="2.148183">
        <ele>191.0</ele>
        <time>2022-02-17T10:07:58Z</time>
      </trkpt>
      <trkpt lat="47.652664" lon="2.1481943">
        <ele>191.0</ele>
        <time>2022-02-17T10:07:59Z</time>
      </trkpt>
      <trkpt lat="47.652657" lon="2.148206">
        <ele>191.0</ele>
        <time>2022-02-17T10:08:00Z</time>
      </trkpt>
      <trkpt lat="47.652657" lon="2.1482203">
        <ele>191.0</ele>
        <time>2022-02-17T10:08:01Z</time>
      </trkpt>
      <trkpt lat="47.652657" lon="2.1482358">
        <ele>191.0</ele>
        <time>2022-02-17T10:08:02Z</time>
      </trkpt>
      <trkpt lat="47.652653" lon="2.1482499">
        <ele>191.0</ele>
        <time>2022-02-17T10:08:03Z</time>
      </trkpt>
      <trkpt lat="47.65265" lon="2.148264">
        <ele>191.0</ele>
        <time>2022-02-17T10:08:04Z</time>
      </trkpt>
      <trkpt lat="47.652645" lon="2.1482763">
        <ele>191.0</ele>
        <time>2022-02-17T10:08:05Z</time>
      </trkpt>
      <trkpt lat="47.65264" lon="2.1482868">
        <ele>191.0</ele>
        <time>2022-02-17T10:08:06Z</time>
      </trkpt>
      <trkpt lat="47.652637" lon="2.1483002">
        <ele>191.0</ele>
        <time>2022-02-17T10:08:07Z</time>
      </trkpt>
      <trkpt lat="47.652634" lon="2.1483154">
        <ele>191.0</ele>
        <time>2022-02-17T10:08:08Z</time>
      </trkpt>
      <trkpt lat="47.65263" lon="2.1483328">
        <ele>192.0</ele>
        <time>2022-02-17T10:08:09Z</time>
      </trkpt>
      <trkpt lat="47.652626" lon="2.1483495">
        <ele>191.0</ele>
        <time>2022-02-17T10:08:10Z</time>
      </trkpt>
      <trkpt lat="47.652626" lon="2.1483653">
        <ele>192.0</ele>
        <time>2022-02-17T10:08:11Z</time>
      </trkpt>
      <trkpt lat="47.65262" lon="2.1483774">
        <ele>191.0</ele>
        <time>2022-02-17T10:08:12Z</time>
      </trkpt>
      <trkpt lat="47.65261" lon="2.1483915">
        <ele>191.0</ele>
        <time>2022-02-17T10:08:13Z</time>
      </trkpt>
      <trkpt lat="47.652607" lon="2.1484091">
        <ele>190.0</ele>
        <time>2022-02-17T10:08:14Z</time>
      </trkpt>
      <trkpt lat="47.6526" lon="2.148423">
        <ele>190.0</ele>
        <time>2022-02-17T10:08:15Z</time>
      </trkpt>
      <trkpt lat="47.652596" lon="2.1484385">
        <ele>190.0</ele>
        <time>2022-02-17T10:08:16Z</time>
      </trkpt>
      <trkpt lat="47.65259" lon="2.1484523">
        <ele>190.0</ele>
        <time>2022-02-17T10:08:17Z</time>
      </trkpt>
      <trkpt lat="47.652584" lon="2.1484675">
        <ele>190.0</ele>
        <time>2022-02-17T10:08:18Z</time>
      </trkpt>
      <trkpt lat="47.65258" lon="2.148482">
        <ele>190.0</ele>
        <time>2022-02-17T10:08:19Z</time>
      </trkpt>
      <trkpt lat="47.652573" lon="2.1484976">
        <ele>190.0</ele>
        <time>2022-02-17T10:08:20Z</time>
      </trkpt>
      <trkpt lat="47.65257" lon="2.148517">
        <ele>190.0</ele>
        <time>2022-02-17T10:08:21Z</time>
      </trkpt>
      <trkpt lat="47.65256" lon="2.148532">
        <ele>190.0</ele>
        <time>2022-02-17T10:08:22Z</time>
      </trkpt>
      <trkpt lat="47.652557" lon="2.148544">
        <ele>191.0</ele>
        <time>2022-02-17T10:08:23Z</time>
      </trkpt>
      <trkpt lat="47.65255" lon="2.1485572">
        <ele>191.0</ele>
        <time>2022-02-17T10:08:24Z</time>
      </trkpt>
      <trkpt lat="47.652546" lon="2.1485696">
        <ele>190.0</ele>
        <time>2022-02-17T10:08:25Z</time>
      </trkpt>
      <trkpt lat="47.652542" lon="2.1485827">
        <ele>190.0</ele>
        <time>2022-02-17T10:08:26Z</time>
      </trkpt>
      <trkpt lat="47.652534" lon="2.1485972">
        <ele>190.0</ele>
        <time>2022-02-17T10:08:27Z</time>
      </trkpt>
      <trkpt lat="47.652527" lon="2.1486135">
        <ele>190.0</ele>
        <time>2022-02-17T10:08:28Z</time>
      </trkpt>
      <trkpt lat="47.652523" lon="2.148631">
        <ele>191.0</ele>
        <time>2022-02-17T10:08:29Z</time>
      </trkpt>
      <trkpt lat="47.652515" lon="2.1486459">
        <ele>191.0</ele>
        <time>2022-02-17T10:08:30Z</time>
      </trkpt>
      <trkpt lat="47.65251" lon="2.1486583">
        <ele>190.0</ele>
        <time>2022-02-17T10:08:31Z</time>
      </trkpt>
      <trkpt lat="47.652504" lon="2.1486762">
        <ele>190.0</ele>
        <time>2022-02-17T10:08:32Z</time>
      </trkpt>
      <trkpt lat="47.6525" lon="2.1486907">
        <ele>190.0</ele>
        <time>2022-02-17T10:08:33Z</time>
      </trkpt>
      <trkpt lat="47.6525" lon="2.1486907">
        <ele>190.0</ele>
        <time>2022-02-17T10:08:33Z</time>
      </trkpt>
      <trkpt lat="47.652485" lon="2.148729">
        <ele>190.0</ele>
        <time>2022-02-17T10:08:35Z</time>
      </trkpt>
      <trkpt lat="47.652473" lon="2.1487455">
        <ele>190.0</ele>
        <time>2022-02-17T10:08:36Z</time>
      </trkpt>
      <trkpt lat="47.652466" lon="2.1487575">
        <ele>189.0</ele>
        <time>2022-02-17T10:08:37Z</time>
      </trkpt>
      <trkpt lat="47.652454" lon="2.1487732">
        <ele>189.0</ele>
        <time>2022-02-17T10:08:38Z</time>
      </trkpt>
      <trkpt lat="47.652447" lon="2.1487877">
        <ele>189.0</ele>
        <time>2022-02-17T10:08:39Z</time>
      </trkpt>
      <trkpt lat="47.652443" lon="2.1488008">
        <ele>189.0</ele>
        <time>2022-02-17T10:08:40Z</time>
      </trkpt>
      <trkpt lat="47.652435" lon="2.1488094">
        <ele>189.0</ele>
        <time>2022-02-17T10:08:41Z</time>
      </trkpt>
      <trkpt lat="47.652424" lon="2.1488192">
        <ele>190.0</ele>
        <time>2022-02-17T10:08:42Z</time>
      </trkpt>
      <trkpt lat="47.652416" lon="2.1488311">
        <ele>190.0</ele>
        <time>2022-02-17T10:08:43Z</time>
      </trkpt>
      <trkpt lat="47.65241" lon="2.148848">
        <ele>190.0</ele>
        <time>2022-02-17T10:08:44Z</time>
      </trkpt>
      <trkpt lat="47.6524" lon="2.1488643">
        <ele>190.0</ele>
        <time>2022-02-17T10:08:45Z</time>
      </trkpt>
      <trkpt lat="47.652397" lon="2.1488802">
        <ele>190.0</ele>
        <time>2022-02-17T10:08:46Z</time>
      </trkpt>
      <trkpt lat="47.65239" lon="2.148895">
        <ele>190.0</ele>
        <time>2022-02-17T10:08:47Z</time>
      </trkpt>
      <trkpt lat="47.652386" lon="2.1489053">
        <ele>189.0</ele>
        <time>2022-02-17T10:08:48Z</time>
      </trkpt>
      <trkpt lat="47.65238" lon="2.1489182">
        <ele>188.0</ele>
        <time>2022-02-17T10:08:49Z</time>
      </trkpt>
      <trkpt lat="47.652374" lon="2.1489317">
        <ele>188.0</ele>
        <time>2022-02-17T10:08:50Z</time>
      </trkpt>
      <trkpt lat="47.65237" lon="2.1489403">
        <ele>187.0</ele>
        <time>2022-02-17T10:08:51Z</time>
      </trkpt>
      <trkpt lat="47.652363" lon="2.1489513">
        <ele>187.0</ele>
        <time>2022-02-17T10:08:52Z</time>
      </trkpt>
      <trkpt lat="47.652355" lon="2.1489701">
        <ele>188.0</ele>
        <time>2022-02-17T10:08:53Z</time>
      </trkpt>
      <trkpt lat="47.652348" lon="2.1489856">
        <ele>188.0</ele>
        <time>2022-02-17T10:08:54Z</time>
      </trkpt>
      <trkpt lat="47.65234" lon="2.1490006">
        <ele>187.0</ele>
        <time>2022-02-17T10:08:55Z</time>
      </trkpt>
      <trkpt lat="47.652332" lon="2.1490138">
        <ele>187.0</ele>
        <time>2022-02-17T10:08:56Z</time>
      </trkpt>
      <trkpt lat="47.65232" lon="2.1490312">
        <ele>187.0</ele>
        <time>2022-02-17T10:08:57Z</time>
      </trkpt>
      <trkpt lat="47.652313" lon="2.1490498">
        <ele>187.0</ele>
        <time>2022-02-17T10:08:58Z</time>
      </trkpt>
      <trkpt lat="47.65231" lon="2.149065">
        <ele>187.0</ele>
        <time>2022-02-17T10:08:59Z</time>
      </trkpt>
      <trkpt lat="47.65231" lon="2.149083">
        <ele>188.0</ele>
        <time>2022-02-17T10:09:00Z</time>
      </trkpt>
      <trkpt lat="47.65231" lon="2.1490943">
        <ele>189.0</ele>
        <time>2022-02-17T10:09:01Z</time>
      </trkpt>
      <trkpt lat="47.65231" lon="2.1491115">
        <ele>189.0</ele>
        <time>2022-02-17T10:09:02Z</time>
      </trkpt>
      <trkpt lat="47.652306" lon="2.1491303">
        <ele>189.0</ele>
        <time>2022-02-17T10:09:03Z</time>
      </trkpt>
      <trkpt lat="47.6523" lon="2.1491442">
        <ele>189.0</ele>
        <time>2022-02-17T10:09:04Z</time>
      </trkpt>
      <trkpt lat="47.652298" lon="2.1491587">
        <ele>189.0</ele>
        <time>2022-02-17T10:09:05Z</time>
      </trkpt>
      <trkpt lat="47.652294" lon="2.1491745">
        <ele>190.0</ele>
        <time>2022-02-17T10:09:06Z</time>
      </trkpt>
      <trkpt lat="47.652287" lon="2.1491904">
        <ele>190.0</ele>
        <time>2022-02-17T10:09:07Z</time>
      </trkpt>
      <trkpt lat="47.65228" lon="2.1492088">
        <ele>190.0</ele>
        <time>2022-02-17T10:09:08Z</time>
      </trkpt>
      <trkpt lat="47.65227" lon="2.149225">
        <ele>191.0</ele>
        <time>2022-02-17T10:09:09Z</time>
      </trkpt>
      <trkpt lat="47.65227" lon="2.1492393">
        <ele>192.0</ele>
        <time>2022-02-17T10:09:10Z</time>
      </trkpt>
      <trkpt lat="47.652264" lon="2.1492486">
        <ele>192.0</ele>
        <time>2022-02-17T10:09:11Z</time>
      </trkpt>
      <trkpt lat="47.652256" lon="2.1492572">
        <ele>191.0</ele>
        <time>2022-02-17T10:09:12Z</time>
      </trkpt>
      <trkpt lat="47.652252" lon="2.149271">
        <ele>191.0</ele>
        <time>2022-02-17T10:09:13Z</time>
      </trkpt>
      <trkpt lat="47.652245" lon="2.1492853">
        <ele>191.0</ele>
        <time>2022-02-17T10:09:14Z</time>
      </trkpt>
      <trkpt lat="47.65224" lon="2.1492972">
        <ele>191.0</ele>
        <time>2022-02-17T10:09:15Z</time>
      </trkpt>
      <trkpt lat="47.652233" lon="2.149307">
        <ele>190.0</ele>
        <time>2022-02-17T10:09:16Z</time>
      </trkpt>
      <trkpt lat="47.65223" lon="2.1493223">
        <ele>190.0</ele>
        <time>2022-02-17T10:09:17Z</time>
      </trkpt>
      <trkpt lat="47.65222" lon="2.1493402">
        <ele>190.0</ele>
        <time>2022-02-17T10:09:18Z</time>
      </trkpt>
      <trkpt lat="47.652218" lon="2.1493537">
        <ele>190.0</ele>
        <time>2022-02-17T10:09:19Z</time>
      </trkpt>
      <trkpt lat="47.652214" lon="2.149372">
        <ele>191.0</ele>
        <time>2022-02-17T10:09:20Z</time>
      </trkpt>
      <trkpt lat="47.652206" lon="2.1493876">
        <ele>190.0</ele>
        <time>2022-02-17T10:09:21Z</time>
      </trkpt>
      <trkpt lat="47.652203" lon="2.149402">
        <ele>191.0</ele>
        <time>2022-02-17T10:09:22Z</time>
      </trkpt>
      <trkpt lat="47.652206" lon="2.1494186">
        <ele>191.0</ele>
        <time>2022-02-17T10:09:23Z</time>
      </trkpt>
      <trkpt lat="47.652203" lon="2.149437">
        <ele>191.0</ele>
        <time>2022-02-17T10:09:24Z</time>
      </trkpt>
      <trkpt lat="47.652195" lon="2.1494527">
        <ele>191.0</ele>
        <time>2022-02-17T10:09:25Z</time>
      </trkpt>
      <trkpt lat="47.65219" lon="2.1494644">
        <ele>190.0</ele>
        <time>2022-02-17T10:09:26Z</time>
      </trkpt>
      <trkpt lat="47.65219" lon="2.1494796">
        <ele>190.0</ele>
        <time>2022-02-17T10:09:27Z</time>
      </trkpt>
      <trkpt lat="47.652184" lon="2.1494956">
        <ele>190.0</ele>
        <time>2022-02-17T10:09:28Z</time>
      </trkpt>
      <trkpt lat="47.65218" lon="2.1495106">
        <ele>190.0</ele>
        <time>2022-02-17T10:09:29Z</time>
      </trkpt>
      <trkpt lat="47.652172" lon="2.149527">
        <ele>191.0</ele>
        <time>2022-02-17T10:09:30Z</time>
      </trkpt>
      <trkpt lat="47.652164" lon="2.1495442">
        <ele>190.0</ele>
        <time>2022-02-17T10:09:31Z</time>
      </trkpt>
      <trkpt lat="47.652157" lon="2.1495616">
        <ele>190.0</ele>
        <time>2022-02-17T10:09:32Z</time>
      </trkpt>
      <trkpt lat="47.65215" lon="2.1495733">
        <ele>189.0</ele>
        <time>2022-02-17T10:09:33Z</time>
      </trkpt>
      <trkpt lat="47.65214" lon="2.149585">
        <ele>188.0</ele>
        <time>2022-02-17T10:09:34Z</time>
      </trkpt>
      <trkpt lat="47.652134" lon="2.1495955">
        <ele>188.0</ele>
        <time>2022-02-17T10:09:35Z</time>
      </trkpt>
      <trkpt lat="47.652126" lon="2.1496062">
        <ele>188.0</ele>
        <time>2022-02-17T10:09:36Z</time>
      </trkpt>
      <trkpt lat="47.652126" lon="2.149625">
        <ele>188.0</ele>
        <time>2022-02-17T10:09:37Z</time>
      </trkpt>
      <trkpt lat="47.65212" lon="2.1496406">
        <ele>188.0</ele>
        <time>2022-02-17T10:09:38Z</time>
      </trkpt>
      <trkpt lat="47.65211" lon="2.149652">
        <ele>188.0</ele>
        <time>2022-02-17T10:09:39Z</time>
      </trkpt>
      <trkpt lat="47.652103" lon="2.1496637">
        <ele>188.0</ele>
        <time>2022-02-17T10:09:40Z</time>
      </trkpt>
      <trkpt lat="47.6521" lon="2.1496758">
        <ele>188.0</ele>
        <time>2022-02-17T10:09:41Z</time>
      </trkpt>
      <trkpt lat="47.652096" lon="2.149688">
        <ele>188.0</ele>
        <time>2022-02-17T10:09:42Z</time>
      </trkpt>
      <trkpt lat="47.652096" lon="2.149702">
        <ele>187.0</ele>
        <time>2022-02-17T10:09:43Z</time>
      </trkpt>
      <trkpt lat="47.652092" lon="2.1497166">
        <ele>187.0</ele>
        <time>2022-02-17T10:09:44Z</time>
      </trkpt>
      <trkpt lat="47.65209" lon="2.1497345">
        <ele>187.0</ele>
        <time>2022-02-17T10:09:45Z</time>
      </trkpt>
      <trkpt lat="47.65208" lon="2.1497507">
        <ele>187.0</ele>
        <time>2022-02-17T10:09:46Z</time>
      </trkpt>
      <trkpt lat="47.652073" lon="2.1497633">
        <ele>187.0</ele>
        <time>2022-02-17T10:09:47Z</time>
      </trkpt>
      <trkpt lat="47.65207" lon="2.1497765">
        <ele>187.0</ele>
        <time>2022-02-17T10:09:48Z</time>
      </trkpt>
      <trkpt lat="47.65206" lon="2.1497865">
        <ele>187.0</ele>
        <time>2022-02-17T10:09:49Z</time>
      </trkpt>
      <trkpt lat="47.65206" lon="2.1497962">
        <ele>187.0</ele>
        <time>2022-02-17T10:09:50Z</time>
      </trkpt>
      <trkpt lat="47.652054" lon="2.1498098">
        <ele>187.0</ele>
        <time>2022-02-17T10:09:51Z</time>
      </trkpt>
      <trkpt lat="47.652046" lon="2.1498249">
        <ele>187.0</ele>
        <time>2022-02-17T10:09:52Z</time>
      </trkpt>
      <trkpt lat="47.65204" lon="2.1498396">
        <ele>187.0</ele>
        <time>2022-02-17T10:09:53Z</time>
      </trkpt>
      <trkpt lat="47.65203" lon="2.149853">
        <ele>187.0</ele>
        <time>2022-02-17T10:09:54Z</time>
      </trkpt>
      <trkpt lat="47.652023" lon="2.1498644">
        <ele>187.0</ele>
        <time>2022-02-17T10:09:55Z</time>
      </trkpt>
      <trkpt lat="47.652016" lon="2.1498785">
        <ele>187.0</ele>
        <time>2022-02-17T10:09:56Z</time>
      </trkpt>
      <trkpt lat="47.65201" lon="2.1498897">
        <ele>187.0</ele>
        <time>2022-02-17T10:09:57Z</time>
      </trkpt>
      <trkpt lat="47.65201" lon="2.1498897">
        <ele>187.0</ele>
        <time>2022-02-17T10:09:58Z</time>
      </trkpt>
      <trkpt lat="47.652004" lon="2.1499124">
        <ele>187.0</ele>
        <time>2022-02-17T10:09:59Z</time>
      </trkpt>
      <trkpt lat="47.652" lon="2.1499226">
        <ele>187.0</ele>
        <time>2022-02-17T10:10:00Z</time>
      </trkpt>
      <trkpt lat="47.651993" lon="2.149931">
        <ele>187.0</ele>
        <time>2022-02-17T10:10:01Z</time>
      </trkpt>
      <trkpt lat="47.65199" lon="2.149944">
        <ele>187.0</ele>
        <time>2022-02-17T10:10:02Z</time>
      </trkpt>
      <trkpt lat="47.65198" lon="2.1499574">
        <ele>187.0</ele>
        <time>2022-02-17T10:10:03Z</time>
      </trkpt>
      <trkpt lat="47.651974" lon="2.1499698">
        <ele>186.0</ele>
        <time>2022-02-17T10:10:04Z</time>
      </trkpt>
      <trkpt lat="47.651974" lon="2.1499858">
        <ele>186.0</ele>
        <time>2022-02-17T10:10:05Z</time>
      </trkpt>
      <trkpt lat="47.65197" lon="2.1500003">
        <ele>186.0</ele>
        <time>2022-02-17T10:10:06Z</time>
      </trkpt>
      <trkpt lat="47.65197" lon="2.1500003">
        <ele>186.0</ele>
        <time>2022-02-17T10:10:07Z</time>
      </trkpt>
      <trkpt lat="47.65197" lon="2.1500003">
        <ele>186.0</ele>
        <time>2022-02-17T10:10:08Z</time>
      </trkpt>
      <trkpt lat="47.65196" lon="2.1500306">
        <ele>185.0</ele>
        <time>2022-02-17T10:10:09Z</time>
      </trkpt>
      <trkpt lat="47.651955" lon="2.1500497">
        <ele>185.0</ele>
        <time>2022-02-17T10:10:10Z</time>
      </trkpt>
      <trkpt lat="47.65195" lon="2.1500669">
        <ele>184.0</ele>
        <time>2022-02-17T10:10:11Z</time>
      </trkpt>
      <trkpt lat="47.651947" lon="2.1500807">
        <ele>184.0</ele>
        <time>2022-02-17T10:10:12Z</time>
      </trkpt>
      <trkpt lat="47.65194" lon="2.1500955">
        <ele>184.0</ele>
        <time>2022-02-17T10:10:13Z</time>
      </trkpt>
      <trkpt lat="47.65193" lon="2.1501102">
        <ele>184.0</ele>
        <time>2022-02-17T10:10:14Z</time>
      </trkpt>
      <trkpt lat="47.651924" lon="2.1501207">
        <ele>184.0</ele>
        <time>2022-02-17T10:10:15Z</time>
      </trkpt>
      <trkpt lat="47.65192" lon="2.150134">
        <ele>184.0</ele>
        <time>2022-02-17T10:10:16Z</time>
      </trkpt>
      <trkpt lat="47.651913" lon="2.1501482">
        <ele>184.0</ele>
        <time>2022-02-17T10:10:17Z</time>
      </trkpt>
      <trkpt lat="47.651905" lon="2.1501627">
        <ele>184.0</ele>
        <time>2022-02-17T10:10:18Z</time>
      </trkpt>
      <trkpt lat="47.6519" lon="2.1501787">
        <ele>184.0</ele>
        <time>2022-02-17T10:10:19Z</time>
      </trkpt>
      <trkpt lat="47.651897" lon="2.1501956">
        <ele>184.0</ele>
        <time>2022-02-17T10:10:20Z</time>
      </trkpt>
      <trkpt lat="47.65189" lon="2.150211">
        <ele>184.0</ele>
        <time>2022-02-17T10:10:21Z</time>
      </trkpt>
      <trkpt lat="47.65189" lon="2.1502302">
        <ele>183.0</ele>
        <time>2022-02-17T10:10:22Z</time>
      </trkpt>
      <trkpt lat="47.651886" lon="2.150248">
        <ele>184.0</ele>
        <time>2022-02-17T10:10:23Z</time>
      </trkpt>
      <trkpt lat="47.651882" lon="2.1502614">
        <ele>184.0</ele>
        <time>2022-02-17T10:10:24Z</time>
      </trkpt>
      <trkpt lat="47.651875" lon="2.1502736">
        <ele>184.0</ele>
        <time>2022-02-17T10:10:25Z</time>
      </trkpt>
      <trkpt lat="47.651867" lon="2.1502883">
        <ele>185.0</ele>
        <time>2022-02-17T10:10:26Z</time>
      </trkpt>
      <trkpt lat="47.651863" lon="2.1503043">
        <ele>185.0</ele>
        <time>2022-02-17T10:10:27Z</time>
      </trkpt>
      <trkpt lat="47.65186" lon="2.1503294">
        <ele>186.0</ele>
        <time>2022-02-17T10:10:28Z</time>
      </trkpt>
      <trkpt lat="47.65185" lon="2.150345">
        <ele>186.0</ele>
        <time>2022-02-17T10:10:29Z</time>
      </trkpt>
      <trkpt lat="47.651848" lon="2.1503649">
        <ele>186.0</ele>
        <time>2022-02-17T10:10:30Z</time>
      </trkpt>
      <trkpt lat="47.651844" lon="2.1503828">
        <ele>187.0</ele>
        <time>2022-02-17T10:10:31Z</time>
      </trkpt>
      <trkpt lat="47.65184" lon="2.1504">
        <ele>187.0</ele>
        <time>2022-02-17T10:10:32Z</time>
      </trkpt>
      <trkpt lat="47.651833" lon="2.1504128">
        <ele>187.0</ele>
        <time>2022-02-17T10:10:33Z</time>
      </trkpt>
      <trkpt lat="47.65183" lon="2.1504316">
        <ele>187.0</ele>
        <time>2022-02-17T10:10:34Z</time>
      </trkpt>
      <trkpt lat="47.651825" lon="2.1504478">
        <ele>187.0</ele>
        <time>2022-02-17T10:10:35Z</time>
      </trkpt>
      <trkpt lat="47.651817" lon="2.1504633">
        <ele>187.0</ele>
        <time>2022-02-17T10:10:36Z</time>
      </trkpt>
      <trkpt lat="47.65181" lon="2.1504745">
        <ele>187.0</ele>
        <time>2022-02-17T10:10:37Z</time>
      </trkpt>
      <trkpt lat="47.65181" lon="2.1504858">
        <ele>187.0</ele>
        <time>2022-02-17T10:10:38Z</time>
      </trkpt>
      <trkpt lat="47.65181" lon="2.1504972">
        <ele>187.0</ele>
        <time>2022-02-17T10:10:39Z</time>
      </trkpt>
      <trkpt lat="47.651802" lon="2.1505098">
        <ele>187.0</ele>
        <time>2022-02-17T10:10:40Z</time>
      </trkpt>
      <trkpt lat="47.651802" lon="2.150523">
        <ele>187.0</ele>
        <time>2022-02-17T10:10:41Z</time>
      </trkpt>
      <trkpt lat="47.65179" lon="2.1505394">
        <ele>187.0</ele>
        <time>2022-02-17T10:10:42Z</time>
      </trkpt>
      <trkpt lat="47.651783" lon="2.1505544">
        <ele>187.0</ele>
        <time>2022-02-17T10:10:43Z</time>
      </trkpt>
      <trkpt lat="47.651775" lon="2.150575">
        <ele>187.0</ele>
        <time>2022-02-17T10:10:44Z</time>
      </trkpt>
      <trkpt lat="47.651768" lon="2.1505866">
        <ele>186.0</ele>
        <time>2022-02-17T10:10:45Z</time>
      </trkpt>
      <trkpt lat="47.651764" lon="2.1506038">
        <ele>186.0</ele>
        <time>2022-02-17T10:10:46Z</time>
      </trkpt>
      <trkpt lat="47.65176" lon="2.150622">
        <ele>186.0</ele>
        <time>2022-02-17T10:10:47Z</time>
      </trkpt>
      <trkpt lat="47.651756" lon="2.1506379">
        <ele>186.0</ele>
        <time>2022-02-17T10:10:48Z</time>
      </trkpt>
      <trkpt lat="47.65175" lon="2.1506538">
        <ele>186.0</ele>
        <time>2022-02-17T10:10:49Z</time>
      </trkpt>
      <trkpt lat="47.65175" lon="2.1506536">
        <ele>185.0</ele>
        <time>2022-02-17T10:10:50Z</time>
      </trkpt>
      <trkpt lat="47.65175" lon="2.1506612">
        <ele>185.0</ele>
        <time>2022-02-17T10:10:51Z</time>
      </trkpt>
      <trkpt lat="47.651745" lon="2.1506743">
        <ele>186.0</ele>
        <time>2022-02-17T10:10:52Z</time>
      </trkpt>
      <trkpt lat="47.651737" lon="2.1506863">
        <ele>187.0</ele>
        <time>2022-02-17T10:10:53Z</time>
      </trkpt>
      <trkpt lat="47.651733" lon="2.1506982">
        <ele>187.0</ele>
        <time>2022-02-17T10:10:54Z</time>
      </trkpt>
      <trkpt lat="47.651733" lon="2.1506982">
        <ele>187.0</ele>
        <time>2022-02-17T10:10:55Z</time>
      </trkpt>
      <trkpt lat="47.651733" lon="2.1506982">
        <ele>187.0</ele>
        <time>2022-02-17T10:10:56Z</time>
      </trkpt>
      <trkpt lat="47.65172" lon="2.1507344">
        <ele>187.0</ele>
        <time>2022-02-17T10:10:57Z</time>
      </trkpt>
      <trkpt lat="47.651714" lon="2.1507542">
        <ele>187.0</ele>
        <time>2022-02-17T10:10:58Z</time>
      </trkpt>
      <trkpt lat="47.651707" lon="2.1507719">
        <ele>187.0</ele>
        <time>2022-02-17T10:10:59Z</time>
      </trkpt>
      <trkpt lat="47.651695" lon="2.1507883">
        <ele>187.0</ele>
        <time>2022-02-17T10:11:00Z</time>
      </trkpt>
      <trkpt lat="47.651688" lon="2.150805">
        <ele>187.0</ele>
        <time>2022-02-17T10:11:01Z</time>
      </trkpt>
      <trkpt lat="47.65168" lon="2.1508243">
        <ele>187.0</ele>
        <time>2022-02-17T10:11:02Z</time>
      </trkpt>
      <trkpt lat="47.651672" lon="2.1508396">
        <ele>187.0</ele>
        <time>2022-02-17T10:11:03Z</time>
      </trkpt>
      <trkpt lat="47.651665" lon="2.1508567">
        <ele>187.0</ele>
        <time>2022-02-17T10:11:04Z</time>
      </trkpt>
      <trkpt lat="47.651665" lon="2.1508746">
        <ele>187.0</ele>
        <time>2022-02-17T10:11:05Z</time>
      </trkpt>
      <trkpt lat="47.651657" lon="2.1508892">
        <ele>186.0</ele>
        <time>2022-02-17T10:11:06Z</time>
      </trkpt>
      <trkpt lat="47.651653" lon="2.150905">
        <ele>187.0</ele>
        <time>2022-02-17T10:11:07Z</time>
      </trkpt>
      <trkpt lat="47.65165" lon="2.1509223">
        <ele>187.0</ele>
        <time>2022-02-17T10:11:08Z</time>
      </trkpt>
      <trkpt lat="47.65164" lon="2.1509376">
        <ele>188.0</ele>
        <time>2022-02-17T10:11:09Z</time>
      </trkpt>
      <trkpt lat="47.651634" lon="2.150951">
        <ele>187.0</ele>
        <time>2022-02-17T10:11:10Z</time>
      </trkpt>
      <trkpt lat="47.651627" lon="2.1509624">
        <ele>187.0</ele>
        <time>2022-02-17T10:11:11Z</time>
      </trkpt>
      <trkpt lat="47.651623" lon="2.1509764">
        <ele>187.0</ele>
        <time>2022-02-17T10:11:12Z</time>
      </trkpt>
      <trkpt lat="47.651623" lon="2.1509764">
        <ele>187.0</ele>
        <time>2022-02-17T10:11:13Z</time>
      </trkpt>
      <trkpt lat="47.651623" lon="2.1509764">
        <ele>187.0</ele>
        <time>2022-02-17T10:11:14Z</time>
      </trkpt>
      <trkpt lat="47.65161" lon="2.151004">
        <ele>188.0</ele>
        <time>2022-02-17T10:11:15Z</time>
      </trkpt>
      <trkpt lat="47.651608" lon="2.1510146">
        <ele>188.0</ele>
        <time>2022-02-17T10:11:16Z</time>
      </trkpt>
      <trkpt lat="47.6516" lon="2.1510267">
        <ele>188.0</ele>
        <time>2022-02-17T10:11:17Z</time>
      </trkpt>
      <trkpt lat="47.651596" lon="2.151038">
        <ele>188.0</ele>
        <time>2022-02-17T10:11:18Z</time>
      </trkpt>
      <trkpt lat="47.651596" lon="2.151038">
        <ele>188.0</ele>
        <time>2022-02-17T10:11:19Z</time>
      </trkpt>
      <trkpt lat="47.651596" lon="2.151038">
        <ele>188.0</ele>
        <time>2022-02-17T10:11:20Z</time>
      </trkpt>
      <trkpt lat="47.651585" lon="2.1510715">
        <ele>187.0</ele>
        <time>2022-02-17T10:11:21Z</time>
      </trkpt>
      <trkpt lat="47.651585" lon="2.1510842">
        <ele>187.0</ele>
        <time>2022-02-17T10:11:22Z</time>
      </trkpt>
      <trkpt lat="47.651577" lon="2.1510987">
        <ele>187.0</ele>
        <time>2022-02-17T10:11:23Z</time>
      </trkpt>
      <trkpt lat="47.651573" lon="2.1511106">
        <ele>187.0</ele>
        <time>2022-02-17T10:11:24Z</time>
      </trkpt>
      <trkpt lat="47.651566" lon="2.1511192">
        <ele>186.0</ele>
        <time>2022-02-17T10:11:25Z</time>
      </trkpt>
      <trkpt lat="47.651558" lon="2.1511323">
        <ele>185.0</ele>
        <time>2022-02-17T10:11:26Z</time>
      </trkpt>
      <trkpt lat="47.651558" lon="2.1511474">
        <ele>185.0</ele>
        <time>2022-02-17T10:11:27Z</time>
      </trkpt>
      <trkpt lat="47.65155" lon="2.151162">
        <ele>185.0</ele>
        <time>2022-02-17T10:11:28Z</time>
      </trkpt>
      <trkpt lat="47.651543" lon="2.151179">
        <ele>184.0</ele>
        <time>2022-02-17T10:11:29Z</time>
      </trkpt>
      <trkpt lat="47.651535" lon="2.1511939">
        <ele>184.0</ele>
        <time>2022-02-17T10:11:30Z</time>
      </trkpt>
      <trkpt lat="47.651527" lon="2.1512082">
        <ele>183.0</ele>
        <time>2022-02-17T10:11:31Z</time>
      </trkpt>
      <trkpt lat="47.651524" lon="2.1512222">
        <ele>184.0</ele>
        <time>2022-02-17T10:11:32Z</time>
      </trkpt>
      <trkpt lat="47.65152" lon="2.151237">
        <ele>183.0</ele>
        <time>2022-02-17T10:11:33Z</time>
      </trkpt>
      <trkpt lat="47.651512" lon="2.1512518">
        <ele>183.0</ele>
        <time>2022-02-17T10:11:34Z</time>
      </trkpt>
      <trkpt lat="47.65151" lon="2.151267">
        <ele>183.0</ele>
        <time>2022-02-17T10:11:35Z</time>
      </trkpt>
      <trkpt lat="47.651497" lon="2.1512828">
        <ele>183.0</ele>
        <time>2022-02-17T10:11:36Z</time>
      </trkpt>
      <trkpt lat="47.65149" lon="2.1512964">
        <ele>183.0</ele>
        <time>2022-02-17T10:11:37Z</time>
      </trkpt>
      <trkpt lat="47.651485" lon="2.1513114">
        <ele>183.0</ele>
        <time>2022-02-17T10:11:38Z</time>
      </trkpt>
      <trkpt lat="47.65148" lon="2.151327">
        <ele>183.0</ele>
        <time>2022-02-17T10:11:39Z</time>
      </trkpt>
      <trkpt lat="47.65148" lon="2.151327">
        <ele>183.0</ele>
        <time>2022-02-17T10:11:40Z</time>
      </trkpt>
      <trkpt lat="47.65147" lon="2.1513557">
        <ele>183.0</ele>
        <time>2022-02-17T10:11:41Z</time>
      </trkpt>
      <trkpt lat="47.651466" lon="2.1513708">
        <ele>183.0</ele>
        <time>2022-02-17T10:11:42Z</time>
      </trkpt>
      <trkpt lat="47.651455" lon="2.1513877">
        <ele>183.0</ele>
        <time>2022-02-17T10:11:43Z</time>
      </trkpt>
      <trkpt lat="47.65145" lon="2.151402">
        <ele>183.0</ele>
        <time>2022-02-17T10:11:44Z</time>
      </trkpt>
      <trkpt lat="47.651443" lon="2.1514196">
        <ele>183.0</ele>
        <time>2022-02-17T10:11:45Z</time>
      </trkpt>
      <trkpt lat="47.651436" lon="2.1514344">
        <ele>183.0</ele>
        <time>2022-02-17T10:11:46Z</time>
      </trkpt>
      <trkpt lat="47.651432" lon="2.1514468">
        <ele>183.0</ele>
        <time>2022-02-17T10:11:47Z</time>
      </trkpt>
      <trkpt lat="47.65143" lon="2.151459">
        <ele>183.0</ele>
        <time>2022-02-17T10:11:48Z</time>
      </trkpt>
      <trkpt lat="47.65143" lon="2.1514812">
        <ele>183.0</ele>
        <time>2022-02-17T10:11:49Z</time>
      </trkpt>
      <trkpt lat="47.651424" lon="2.1515012">
        <ele>183.0</ele>
        <time>2022-02-17T10:11:50Z</time>
      </trkpt>
      <trkpt lat="47.651417" lon="2.1515207">
        <ele>184.0</ele>
        <time>2022-02-17T10:11:51Z</time>
      </trkpt>
      <trkpt lat="47.65141" lon="2.151539">
        <ele>184.0</ele>
        <time>2022-02-17T10:11:52Z</time>
      </trkpt>
      <trkpt lat="47.651405" lon="2.151556">
        <ele>184.0</ele>
        <time>2022-02-17T10:11:53Z</time>
      </trkpt>
      <trkpt lat="47.6514" lon="2.1515713">
        <ele>184.0</ele>
        <time>2022-02-17T10:11:54Z</time>
      </trkpt>
      <trkpt lat="47.651398" lon="2.1515863">
        <ele>185.0</ele>
        <time>2022-02-17T10:11:55Z</time>
      </trkpt>
      <trkpt lat="47.65139" lon="2.1516">
        <ele>186.0</ele>
        <time>2022-02-17T10:11:56Z</time>
      </trkpt>
      <trkpt lat="47.651386" lon="2.1516168">
        <ele>187.0</ele>
        <time>2022-02-17T10:11:57Z</time>
      </trkpt>
      <trkpt lat="47.651382" lon="2.151635">
        <ele>187.0</ele>
        <time>2022-02-17T10:11:58Z</time>
      </trkpt>
      <trkpt lat="47.651382" lon="2.1516488">
        <ele>188.0</ele>
        <time>2022-02-17T10:11:59Z</time>
      </trkpt>
      <trkpt lat="47.65138" lon="2.1516628">
        <ele>188.0</ele>
        <time>2022-02-17T10:12:00Z</time>
      </trkpt>
      <trkpt lat="47.651375" lon="2.151678">
        <ele>188.0</ele>
        <time>2022-02-17T10:12:01Z</time>
      </trkpt>
      <trkpt lat="47.651367" lon="2.1516962">
        <ele>188.0</ele>
        <time>2022-02-17T10:12:02Z</time>
      </trkpt>
      <trkpt lat="47.65136" lon="2.1517122">
        <ele>188.0</ele>
        <time>2022-02-17T10:12:03Z</time>
      </trkpt>
      <trkpt lat="47.65136" lon="2.151729">
        <ele>188.0</ele>
        <time>2022-02-17T10:12:04Z</time>
      </trkpt>
      <trkpt lat="47.651356" lon="2.151739">
        <ele>188.0</ele>
        <time>2022-02-17T10:12:05Z</time>
      </trkpt>
      <trkpt lat="47.651356" lon="2.1517508">
        <ele>188.0</ele>
        <time>2022-02-17T10:12:06Z</time>
      </trkpt>
      <trkpt lat="47.651352" lon="2.1517694">
        <ele>188.0</ele>
        <time>2022-02-17T10:12:07Z</time>
      </trkpt>
      <trkpt lat="47.65135" lon="2.1517868">
        <ele>189.0</ele>
        <time>2022-02-17T10:12:08Z</time>
      </trkpt>
      <trkpt lat="47.651344" lon="2.1518013">
        <ele>189.0</ele>
        <time>2022-02-17T10:12:09Z</time>
      </trkpt>
      <trkpt lat="47.651344" lon="2.1518157">
        <ele>190.0</ele>
        <time>2022-02-17T10:12:10Z</time>
      </trkpt>
      <trkpt lat="47.65134" lon="2.151832">
        <ele>190.0</ele>
        <time>2022-02-17T10:12:11Z</time>
      </trkpt>
      <trkpt lat="47.65134" lon="2.1518476">
        <ele>190.0</ele>
        <time>2022-02-17T10:12:12Z</time>
      </trkpt>
      <trkpt lat="47.65134" lon="2.1518645">
        <ele>190.0</ele>
        <time>2022-02-17T10:12:13Z</time>
      </trkpt>
      <trkpt lat="47.65134" lon="2.1518805">
        <ele>190.0</ele>
        <time>2022-02-17T10:12:14Z</time>
      </trkpt>
      <trkpt lat="47.65134" lon="2.1519008">
        <ele>190.0</ele>
        <time>2022-02-17T10:12:15Z</time>
      </trkpt>
      <trkpt lat="47.65134" lon="2.15192">
        <ele>189.0</ele>
        <time>2022-02-17T10:12:16Z</time>
      </trkpt>
      <trkpt lat="47.65134" lon="2.1519382">
        <ele>190.0</ele>
        <time>2022-02-17T10:12:17Z</time>
      </trkpt>
      <trkpt lat="47.651337" lon="2.1519537">
        <ele>190.0</ele>
        <time>2022-02-17T10:12:18Z</time>
      </trkpt>
      <trkpt lat="47.651333" lon="2.1519709">
        <ele>190.0</ele>
        <time>2022-02-17T10:12:19Z</time>
      </trkpt>
      <trkpt lat="47.65133" lon="2.1519818">
        <ele>190.0</ele>
        <time>2022-02-17T10:12:20Z</time>
      </trkpt>
      <trkpt lat="47.65132" lon="2.1519935">
        <ele>189.0</ele>
        <time>2022-02-17T10:12:21Z</time>
      </trkpt>
      <trkpt lat="47.651314" lon="2.1520078">
        <ele>189.0</ele>
        <time>2022-02-17T10:12:22Z</time>
      </trkpt>
      <trkpt lat="47.651306" lon="2.152024">
        <ele>189.0</ele>
        <time>2022-02-17T10:12:23Z</time>
      </trkpt>
      <trkpt lat="47.6513" lon="2.1520395">
        <ele>189.0</ele>
        <time>2022-02-17T10:12:24Z</time>
      </trkpt>
      <trkpt lat="47.651287" lon="2.152054">
        <ele>189.0</ele>
        <time>2022-02-17T10:12:25Z</time>
      </trkpt>
      <trkpt lat="47.651283" lon="2.1520672">
        <ele>189.0</ele>
        <time>2022-02-17T10:12:26Z</time>
      </trkpt>
      <trkpt lat="47.65127" lon="2.1520827">
        <ele>189.0</ele>
        <time>2022-02-17T10:12:27Z</time>
      </trkpt>
      <trkpt lat="47.651264" lon="2.1520965">
        <ele>189.0</ele>
        <time>2022-02-17T10:12:28Z</time>
      </trkpt>
      <trkpt lat="47.651257" lon="2.1521091">
        <ele>189.0</ele>
        <time>2022-02-17T10:12:29Z</time>
      </trkpt>
      <trkpt lat="47.651245" lon="2.1521182">
        <ele>189.0</ele>
        <time>2022-02-17T10:12:30Z</time>
      </trkpt>
      <trkpt lat="47.651237" lon="2.1521254">
        <ele>190.0</ele>
        <time>2022-02-17T10:12:31Z</time>
      </trkpt>
      <trkpt lat="47.65123" lon="2.152135">
        <ele>190.0</ele>
        <time>2022-02-17T10:12:32Z</time>
      </trkpt>
      <trkpt lat="47.651222" lon="2.1521435">
        <ele>191.0</ele>
        <time>2022-02-17T10:12:33Z</time>
      </trkpt>
      <trkpt lat="47.65121" lon="2.1521518">
        <ele>190.0</ele>
        <time>2022-02-17T10:12:34Z</time>
      </trkpt>
      <trkpt lat="47.6512" lon="2.1521606">
        <ele>190.0</ele>
        <time>2022-02-17T10:12:35Z</time>
      </trkpt>
      <trkpt lat="47.65119" lon="2.152173">
        <ele>190.0</ele>
        <time>2022-02-17T10:12:36Z</time>
      </trkpt>
      <trkpt lat="47.651184" lon="2.1521823">
        <ele>191.0</ele>
        <time>2022-02-17T10:12:37Z</time>
      </trkpt>
      <trkpt lat="47.651173" lon="2.1521933">
        <ele>191.0</ele>
        <time>2022-02-17T10:12:38Z</time>
      </trkpt>
      <trkpt lat="47.651165" lon="2.1522014">
        <ele>192.0</ele>
        <time>2022-02-17T10:12:39Z</time>
      </trkpt>
      <trkpt lat="47.651154" lon="2.1522076">
        <ele>191.0</ele>
        <time>2022-02-17T10:12:40Z</time>
      </trkpt>
      <trkpt lat="47.651146" lon="2.1522086">
        <ele>191.0</ele>
        <time>2022-02-17T10:12:41Z</time>
      </trkpt>
      <trkpt lat="47.651134" lon="2.152216">
        <ele>191.0</ele>
        <time>2022-02-17T10:12:42Z</time>
      </trkpt>
      <trkpt lat="47.651123" lon="2.1522267">
        <ele>190.0</ele>
        <time>2022-02-17T10:12:43Z</time>
      </trkpt>
      <trkpt lat="47.65111" lon="2.15223">
        <ele>190.0</ele>
        <time>2022-02-17T10:12:44Z</time>
      </trkpt>
      <trkpt lat="47.6511" lon="2.1522343">
        <ele>190.0</ele>
        <time>2022-02-17T10:12:45Z</time>
      </trkpt>
      <trkpt lat="47.651096" lon="2.1522453">
        <ele>189.0</ele>
        <time>2022-02-17T10:12:46Z</time>
      </trkpt>
      <trkpt lat="47.651093" lon="2.1522567">
        <ele>189.0</ele>
        <time>2022-02-17T10:12:47Z</time>
      </trkpt>
      <trkpt lat="47.65109" lon="2.1522708">
        <ele>188.0</ele>
        <time>2022-02-17T10:12:48Z</time>
      </trkpt>
      <trkpt lat="47.65108" lon="2.1522863">
        <ele>188.0</ele>
        <time>2022-02-17T10:12:49Z</time>
      </trkpt>
      <trkpt lat="47.651066" lon="2.1522973">
        <ele>189.0</ele>
        <time>2022-02-17T10:12:50Z</time>
      </trkpt>
      <trkpt lat="47.65106" lon="2.1523073">
        <ele>189.0</ele>
        <time>2022-02-17T10:12:51Z</time>
      </trkpt>
      <trkpt lat="47.651043" lon="2.152317">
        <ele>189.0</ele>
        <time>2022-02-17T10:12:52Z</time>
      </trkpt>
      <trkpt lat="47.65103" lon="2.1523259">
        <ele>189.0</ele>
        <time>2022-02-17T10:12:53Z</time>
      </trkpt>
      <trkpt lat="47.651024" lon="2.1523337">
        <ele>189.0</ele>
        <time>2022-02-17T10:12:54Z</time>
      </trkpt>
      <trkpt lat="47.65102" lon="2.1523352">
        <ele>188.0</ele>
        <time>2022-02-17T10:12:55Z</time>
      </trkpt>
      <trkpt lat="47.651012" lon="2.1523438">
        <ele>189.0</ele>
        <time>2022-02-17T10:12:56Z</time>
      </trkpt>
      <trkpt lat="47.651005" lon="2.1523514">
        <ele>189.0</ele>
        <time>2022-02-17T10:12:57Z</time>
      </trkpt>
      <trkpt lat="47.651" lon="2.1523626">
        <ele>189.0</ele>
        <time>2022-02-17T10:12:58Z</time>
      </trkpt>
      <trkpt lat="47.65099" lon="2.1523697">
        <ele>189.0</ele>
        <time>2022-02-17T10:12:59Z</time>
      </trkpt>
      <trkpt lat="47.65098" lon="2.1523762">
        <ele>189.0</ele>
        <time>2022-02-17T10:13:00Z</time>
      </trkpt>
      <trkpt lat="47.650974" lon="2.1523838">
        <ele>189.0</ele>
        <time>2022-02-17T10:13:01Z</time>
      </trkpt>
      <trkpt lat="47.650963" lon="2.1523936">
        <ele>189.0</ele>
        <time>2022-02-17T10:13:02Z</time>
      </trkpt>
      <trkpt lat="47.650955" lon="2.1524">
        <ele>189.0</ele>
        <time>2022-02-17T10:13:03Z</time>
      </trkpt>
      <trkpt lat="47.650944" lon="2.1524096">
        <ele>189.0</ele>
        <time>2022-02-17T10:13:04Z</time>
      </trkpt>
      <trkpt lat="47.650936" lon="2.1524189">
        <ele>189.0</ele>
        <time>2022-02-17T10:13:05Z</time>
      </trkpt>
      <trkpt lat="47.65093" lon="2.1524253">
        <ele>189.0</ele>
        <time>2022-02-17T10:13:06Z</time>
      </trkpt>
      <trkpt lat="47.65092" lon="2.1524365">
        <ele>189.0</ele>
        <time>2022-02-17T10:13:07Z</time>
      </trkpt>
      <trkpt lat="47.65091" lon="2.1524453">
        <ele>189.0</ele>
        <time>2022-02-17T10:13:08Z</time>
      </trkpt>
      <trkpt lat="47.650898" lon="2.1524541">
        <ele>190.0</ele>
        <time>2022-02-17T10:13:09Z</time>
      </trkpt>
      <trkpt lat="47.65089" lon="2.1524627">
        <ele>190.0</ele>
        <time>2022-02-17T10:13:10Z</time>
      </trkpt>
      <trkpt lat="47.650883" lon="2.152468">
        <ele>190.0</ele>
        <time>2022-02-17T10:13:11Z</time>
      </trkpt>
      <trkpt lat="47.650875" lon="2.1524773">
        <ele>190.0</ele>
        <time>2022-02-17T10:13:12Z</time>
      </trkpt>
      <trkpt lat="47.65086" lon="2.152487">
        <ele>190.0</ele>
        <time>2022-02-17T10:13:13Z</time>
      </trkpt>
      <trkpt lat="47.650852" lon="2.1524944">
        <ele>190.0</ele>
        <time>2022-02-17T10:13:14Z</time>
      </trkpt>
      <trkpt lat="47.650845" lon="2.1525035">
        <ele>189.0</ele>
        <time>2022-02-17T10:13:15Z</time>
      </trkpt>
      <trkpt lat="47.650837" lon="2.1525126">
        <ele>190.0</ele>
        <time>2022-02-17T10:13:16Z</time>
      </trkpt>
      <trkpt lat="47.65083" lon="2.1525195">
        <ele>190.0</ele>
        <time>2022-02-17T10:13:17Z</time>
      </trkpt>
      <trkpt lat="47.650818" lon="2.1525266">
        <ele>191.0</ele>
        <time>2022-02-17T10:13:18Z</time>
      </trkpt>
      <trkpt lat="47.65081" lon="2.1525357">
        <ele>191.0</ele>
        <time>2022-02-17T10:13:19Z</time>
      </trkpt>
      <trkpt lat="47.6508" lon="2.152543">
        <ele>191.0</ele>
        <time>2022-02-17T10:13:20Z</time>
      </trkpt>
      <trkpt lat="47.65079" lon="2.1525536">
        <ele>192.0</ele>
        <time>2022-02-17T10:13:21Z</time>
      </trkpt>
      <trkpt lat="47.650784" lon="2.1525626">
        <ele>192.0</ele>
        <time>2022-02-17T10:13:22Z</time>
      </trkpt>
      <trkpt lat="47.650776" lon="2.152571">
        <ele>192.0</ele>
        <time>2022-02-17T10:13:23Z</time>
      </trkpt>
      <trkpt lat="47.650764" lon="2.1525815">
        <ele>192.0</ele>
        <time>2022-02-17T10:13:24Z</time>
      </trkpt>
      <trkpt lat="47.650757" lon="2.1525881">
        <ele>192.0</ele>
        <time>2022-02-17T10:13:25Z</time>
      </trkpt>
      <trkpt lat="47.650745" lon="2.1525974">
        <ele>192.0</ele>
        <time>2022-02-17T10:13:26Z</time>
      </trkpt>
      <trkpt lat="47.650738" lon="2.1526082">
        <ele>192.0</ele>
        <time>2022-02-17T10:13:27Z</time>
      </trkpt>
      <trkpt lat="47.65073" lon="2.1526184">
        <ele>192.0</ele>
        <time>2022-02-17T10:13:28Z</time>
      </trkpt>
      <trkpt lat="47.650723" lon="2.15263">
        <ele>192.0</ele>
        <time>2022-02-17T10:13:29Z</time>
      </trkpt>
      <trkpt lat="47.65071" lon="2.15264">
        <ele>192.0</ele>
        <time>2022-02-17T10:13:30Z</time>
      </trkpt>
      <trkpt lat="47.650696" lon="2.1526458">
        <ele>192.0</ele>
        <time>2022-02-17T10:13:31Z</time>
      </trkpt>
      <trkpt lat="47.650684" lon="2.1526525">
        <ele>192.0</ele>
        <time>2022-02-17T10:13:32Z</time>
      </trkpt>
      <trkpt lat="47.65067" lon="2.1526601">
        <ele>192.0</ele>
        <time>2022-02-17T10:13:33Z</time>
      </trkpt>
      <trkpt lat="47.650658" lon="2.1526718">
        <ele>192.0</ele>
        <time>2022-02-17T10:13:34Z</time>
      </trkpt>
      <trkpt lat="47.650646" lon="2.152678">
        <ele>193.0</ele>
        <time>2022-02-17T10:13:35Z</time>
      </trkpt>
      <trkpt lat="47.65064" lon="2.1526816">
        <ele>193.0</ele>
        <time>2022-02-17T10:13:36Z</time>
      </trkpt>
      <trkpt lat="47.65063" lon="2.1526897">
        <ele>193.0</ele>
        <time>2022-02-17T10:13:37Z</time>
      </trkpt>
      <trkpt lat="47.650623" lon="2.1526985">
        <ele>192.0</ele>
        <time>2022-02-17T10:13:38Z</time>
      </trkpt>
      <trkpt lat="47.65061" lon="2.1527116">
        <ele>193.0</ele>
        <time>2022-02-17T10:13:39Z</time>
      </trkpt>
      <trkpt lat="47.6506" lon="2.1527202">
        <ele>193.0</ele>
        <time>2022-02-17T10:13:40Z</time>
      </trkpt>
      <trkpt lat="47.650593" lon="2.152726">
        <ele>193.0</ele>
        <time>2022-02-17T10:13:41Z</time>
      </trkpt>
      <trkpt lat="47.65058" lon="2.1527324">
        <ele>193.0</ele>
        <time>2022-02-17T10:13:42Z</time>
      </trkpt>
      <trkpt lat="47.650574" lon="2.1527395">
        <ele>193.0</ele>
        <time>2022-02-17T10:13:43Z</time>
      </trkpt>
      <trkpt lat="47.650566" lon="2.1527472">
        <ele>192.0</ele>
        <time>2022-02-17T10:13:44Z</time>
      </trkpt>
      <trkpt lat="47.65056" lon="2.1527507">
        <ele>191.0</ele>
        <time>2022-02-17T10:13:45Z</time>
      </trkpt>
      <trkpt lat="47.65055" lon="2.1527576">
        <ele>191.0</ele>
        <time>2022-02-17T10:13:46Z</time>
      </trkpt>
      <trkpt lat="47.650543" lon="2.1527705">
        <ele>191.0</ele>
        <time>2022-02-17T10:13:47Z</time>
      </trkpt>
      <trkpt lat="47.65053" lon="2.15278">
        <ele>192.0</ele>
        <time>2022-02-17T10:13:48Z</time>
      </trkpt>
      <trkpt lat="47.650524" lon="2.152788">
        <ele>192.0</ele>
        <time>2022-02-17T10:13:49Z</time>
      </trkpt>
      <trkpt lat="47.650517" lon="2.152793">
        <ele>192.0</ele>
        <time>2022-02-17T10:13:50Z</time>
      </trkpt>
      <trkpt lat="47.650505" lon="2.152801">
        <ele>192.0</ele>
        <time>2022-02-17T10:13:51Z</time>
      </trkpt>
      <trkpt lat="47.650497" lon="2.1528075">
        <ele>192.0</ele>
        <time>2022-02-17T10:13:52Z</time>
      </trkpt>
      <trkpt lat="47.650486" lon="2.1528158">
        <ele>192.0</ele>
        <time>2022-02-17T10:13:53Z</time>
      </trkpt>
      <trkpt lat="47.650475" lon="2.1528256">
        <ele>192.0</ele>
        <time>2022-02-17T10:13:54Z</time>
      </trkpt>
      <trkpt lat="47.65046" lon="2.1528356">
        <ele>192.0</ele>
        <time>2022-02-17T10:13:55Z</time>
      </trkpt>
      <trkpt lat="47.650444" lon="2.1528482">
        <ele>191.0</ele>
        <time>2022-02-17T10:13:56Z</time>
      </trkpt>
      <trkpt lat="47.650436" lon="2.1528609">
        <ele>191.0</ele>
        <time>2022-02-17T10:13:57Z</time>
      </trkpt>
      <trkpt lat="47.65043" lon="2.1528692">
        <ele>191.0</ele>
        <time>2022-02-17T10:13:58Z</time>
      </trkpt>
      <trkpt lat="47.650417" lon="2.1528792">
        <ele>191.0</ele>
        <time>2022-02-17T10:13:59Z</time>
      </trkpt>
      <trkpt lat="47.650406" lon="2.1528907">
        <ele>191.0</ele>
        <time>2022-02-17T10:14:00Z</time>
      </trkpt>
      <trkpt lat="47.650394" lon="2.1528978">
        <ele>191.0</ele>
        <time>2022-02-17T10:14:01Z</time>
      </trkpt>
      <trkpt lat="47.650387" lon="2.1529067">
        <ele>191.0</ele>
        <time>2022-02-17T10:14:02Z</time>
      </trkpt>
      <trkpt lat="47.650375" lon="2.1529174">
        <ele>191.0</ele>
        <time>2022-02-17T10:14:03Z</time>
      </trkpt>
      <trkpt lat="47.650368" lon="2.1529272">
        <ele>191.0</ele>
        <time>2022-02-17T10:14:04Z</time>
      </trkpt>
      <trkpt lat="47.650356" lon="2.1529384">
        <ele>191.0</ele>
        <time>2022-02-17T10:14:05Z</time>
      </trkpt>
      <trkpt lat="47.650345" lon="2.152949">
        <ele>190.0</ele>
        <time>2022-02-17T10:14:06Z</time>
      </trkpt>
      <trkpt lat="47.650337" lon="2.152958">
        <ele>190.0</ele>
        <time>2022-02-17T10:14:07Z</time>
      </trkpt>
      <trkpt lat="47.65033" lon="2.1529663">
        <ele>190.0</ele>
        <time>2022-02-17T10:14:08Z</time>
      </trkpt>
      <trkpt lat="47.65032" lon="2.1529746">
        <ele>190.0</ele>
        <time>2022-02-17T10:14:09Z</time>
      </trkpt>
      <trkpt lat="47.650307" lon="2.1529815">
        <ele>190.0</ele>
        <time>2022-02-17T10:14:10Z</time>
      </trkpt>
      <trkpt lat="47.6503" lon="2.1529918">
        <ele>189.0</ele>
        <time>2022-02-17T10:14:11Z</time>
      </trkpt>
      <trkpt lat="47.65029" lon="2.1529992">
        <ele>189.0</ele>
        <time>2022-02-17T10:14:12Z</time>
      </trkpt>
      <trkpt lat="47.650284" lon="2.1530123">
        <ele>189.0</ele>
        <time>2022-02-17T10:14:13Z</time>
      </trkpt>
      <trkpt lat="47.65028" lon="2.1530235">
        <ele>189.0</ele>
        <time>2022-02-17T10:14:14Z</time>
      </trkpt>
      <trkpt lat="47.65027" lon="2.1530316">
        <ele>189.0</ele>
        <time>2022-02-17T10:14:15Z</time>
      </trkpt>
      <trkpt lat="47.65026" lon="2.1530414">
        <ele>189.0</ele>
        <time>2022-02-17T10:14:16Z</time>
      </trkpt>
      <trkpt lat="47.65025" lon="2.1530476">
        <ele>189.0</ele>
        <time>2022-02-17T10:14:17Z</time>
      </trkpt>
      <trkpt lat="47.650238" lon="2.1530573">
        <ele>189.0</ele>
        <time>2022-02-17T10:14:18Z</time>
      </trkpt>
      <trkpt lat="47.650227" lon="2.1530616">
        <ele>189.0</ele>
        <time>2022-02-17T10:14:19Z</time>
      </trkpt>
      <trkpt lat="47.650223" lon="2.1530704">
        <ele>189.0</ele>
        <time>2022-02-17T10:14:20Z</time>
      </trkpt>
      <trkpt lat="47.650215" lon="2.153078">
        <ele>189.0</ele>
        <time>2022-02-17T10:14:21Z</time>
      </trkpt>
      <trkpt lat="47.65021" lon="2.1530848">
        <ele>189.0</ele>
        <time>2022-02-17T10:14:22Z</time>
      </trkpt>
      <trkpt lat="47.650204" lon="2.1530895">
        <ele>188.0</ele>
        <time>2022-02-17T10:14:23Z</time>
      </trkpt>
      <trkpt lat="47.650196" lon="2.1530929">
        <ele>188.0</ele>
        <time>2022-02-17T10:14:24Z</time>
      </trkpt>
      <trkpt lat="47.65019" lon="2.1530993">
        <ele>188.0</ele>
        <time>2022-02-17T10:14:25Z</time>
      </trkpt>
      <trkpt lat="47.650185" lon="2.1531093">
        <ele>188.0</ele>
        <time>2022-02-17T10:14:26Z</time>
      </trkpt>
      <trkpt lat="47.650173" lon="2.1531181">
        <ele>188.0</ele>
        <time>2022-02-17T10:14:27Z</time>
      </trkpt>
      <trkpt lat="47.650166" lon="2.1531258">
        <ele>188.0</ele>
        <time>2022-02-17T10:14:28Z</time>
      </trkpt>
      <trkpt lat="47.650154" lon="2.1531353">
        <ele>188.0</ele>
        <time>2022-02-17T10:14:29Z</time>
      </trkpt>
      <trkpt lat="47.650143" lon="2.1531415">
        <ele>188.0</ele>
        <time>2022-02-17T10:14:30Z</time>
      </trkpt>
      <trkpt lat="47.650135" lon="2.1531518">
        <ele>188.0</ele>
        <time>2022-02-17T10:14:31Z</time>
      </trkpt>
      <trkpt lat="47.650124" lon="2.1531622">
        <ele>188.0</ele>
        <time>2022-02-17T10:14:32Z</time>
      </trkpt>
      <trkpt lat="47.650116" lon="2.1531718">
        <ele>188.0</ele>
        <time>2022-02-17T10:14:33Z</time>
      </trkpt>
      <trkpt lat="47.65011" lon="2.1531806">
        <ele>188.0</ele>
        <time>2022-02-17T10:14:34Z</time>
      </trkpt>
      <trkpt lat="47.650097" lon="2.1531918">
        <ele>188.0</ele>
        <time>2022-02-17T10:14:35Z</time>
      </trkpt>
      <trkpt lat="47.650085" lon="2.1532">
        <ele>188.0</ele>
        <time>2022-02-17T10:14:36Z</time>
      </trkpt>
      <trkpt lat="47.650074" lon="2.15321">
        <ele>188.0</ele>
        <time>2022-02-17T10:14:37Z</time>
      </trkpt>
      <trkpt lat="47.65006" lon="2.153221">
        <ele>188.0</ele>
        <time>2022-02-17T10:14:38Z</time>
      </trkpt>
      <trkpt lat="47.65005" lon="2.153227">
        <ele>188.0</ele>
        <time>2022-02-17T10:14:39Z</time>
      </trkpt>
      <trkpt lat="47.650043" lon="2.153236">
        <ele>188.0</ele>
        <time>2022-02-17T10:14:40Z</time>
      </trkpt>
      <trkpt lat="47.650036" lon="2.1532423">
        <ele>188.0</ele>
        <time>2022-02-17T10:14:41Z</time>
      </trkpt>
      <trkpt lat="47.65003" lon="2.1532495">
        <ele>188.0</ele>
        <time>2022-02-17T10:14:42Z</time>
      </trkpt>
      <trkpt lat="47.65003" lon="2.1532547">
        <ele>188.0</ele>
        <time>2022-02-17T10:14:43Z</time>
      </trkpt>
      <trkpt lat="47.650024" lon="2.1532574">
        <ele>189.0</ele>
        <time>2022-02-17T10:14:44Z</time>
      </trkpt>
      <trkpt lat="47.650017" lon="2.153264">
        <ele>188.0</ele>
        <time>2022-02-17T10:14:45Z</time>
      </trkpt>
      <trkpt lat="47.650005" lon="2.1532722">
        <ele>188.0</ele>
        <time>2022-02-17T10:14:46Z</time>
      </trkpt>
      <trkpt lat="47.649998" lon="2.1532798">
        <ele>188.0</ele>
        <time>2022-02-17T10:14:47Z</time>
      </trkpt>
      <trkpt lat="47.64999" lon="2.1532862">
        <ele>188.0</ele>
        <time>2022-02-17T10:14:48Z</time>
      </trkpt>
      <trkpt lat="47.64998" lon="2.15329">
        <ele>188.0</ele>
        <time>2022-02-17T10:14:49Z</time>
      </trkpt>
      <trkpt lat="47.64997" lon="2.1532953">
        <ele>188.0</ele>
        <time>2022-02-17T10:14:50Z</time>
      </trkpt>
      <trkpt lat="47.64996" lon="2.153304">
        <ele>188.0</ele>
        <time>2022-02-17T10:14:51Z</time>
      </trkpt>
      <trkpt lat="47.64995" lon="2.153313">
        <ele>188.0</ele>
        <time>2022-02-17T10:14:52Z</time>
      </trkpt>
      <trkpt lat="47.649937" lon="2.1533237">
        <ele>188.0</ele>
        <time>2022-02-17T10:14:53Z</time>
      </trkpt>
      <trkpt lat="47.649925" lon="2.1533341">
        <ele>188.0</ele>
        <time>2022-02-17T10:14:54Z</time>
      </trkpt>
      <trkpt lat="47.649918" lon="2.1533446">
        <ele>187.0</ele>
        <time>2022-02-17T10:14:55Z</time>
      </trkpt>
      <trkpt lat="47.649906" lon="2.1533554">
        <ele>187.0</ele>
        <time>2022-02-17T10:14:56Z</time>
      </trkpt>
      <trkpt lat="47.649895" lon="2.153363">
        <ele>187.0</ele>
        <time>2022-02-17T10:14:57Z</time>
      </trkpt>
      <trkpt lat="47.649887" lon="2.1533716">
        <ele>187.0</ele>
        <time>2022-02-17T10:14:58Z</time>
      </trkpt>
      <trkpt lat="47.64988" lon="2.1533818">
        <ele>187.0</ele>
        <time>2022-02-17T10:14:59Z</time>
      </trkpt>
      <trkpt lat="47.649868" lon="2.153398">
        <ele>187.0</ele>
        <time>2022-02-17T10:15:00Z</time>
      </trkpt>
      <trkpt lat="47.64986" lon="2.1534054">
        <ele>187.0</ele>
        <time>2022-02-17T10:15:01Z</time>
      </trkpt>
      <trkpt lat="47.649853" lon="2.1534166">
        <ele>186.0</ele>
        <time>2022-02-17T10:15:02Z</time>
      </trkpt>
      <trkpt lat="47.64984" lon="2.1534271">
        <ele>186.0</ele>
        <time>2022-02-17T10:15:03Z</time>
      </trkpt>
      <trkpt lat="47.649826" lon="2.1534402">
        <ele>186.0</ele>
        <time>2022-02-17T10:15:04Z</time>
      </trkpt>
      <trkpt lat="47.64982" lon="2.1534507">
        <ele>187.0</ele>
        <time>2022-02-17T10:15:05Z</time>
      </trkpt>
      <trkpt lat="47.649807" lon="2.1534595">
        <ele>187.0</ele>
        <time>2022-02-17T10:15:06Z</time>
      </trkpt>
      <trkpt lat="47.6498" lon="2.1534722">
        <ele>187.0</ele>
        <time>2022-02-17T10:15:07Z</time>
      </trkpt>
      <trkpt lat="47.64979" lon="2.1534824">
        <ele>187.0</ele>
        <time>2022-02-17T10:15:08Z</time>
      </trkpt>
      <trkpt lat="47.64978" lon="2.153486">
        <ele>186.0</ele>
        <time>2022-02-17T10:15:09Z</time>
      </trkpt>
      <trkpt lat="47.649773" lon="2.1534934">
        <ele>187.0</ele>
        <time>2022-02-17T10:15:10Z</time>
      </trkpt>
      <trkpt lat="47.649765" lon="2.153499">
        <ele>187.0</ele>
        <time>2022-02-17T10:15:11Z</time>
      </trkpt>
      <trkpt lat="47.649757" lon="2.1535053">
        <ele>187.0</ele>
        <time>2022-02-17T10:15:12Z</time>
      </trkpt>
      <trkpt lat="47.649746" lon="2.153515">
        <ele>187.0</ele>
        <time>2022-02-17T10:15:13Z</time>
      </trkpt>
      <trkpt lat="47.649734" lon="2.1535273">
        <ele>187.0</ele>
        <time>2022-02-17T10:15:14Z</time>
      </trkpt>
      <trkpt lat="47.649723" lon="2.1535373">
        <ele>187.0</ele>
        <time>2022-02-17T10:15:15Z</time>
      </trkpt>
      <trkpt lat="47.64971" lon="2.1535456">
        <ele>188.0</ele>
        <time>2022-02-17T10:15:16Z</time>
      </trkpt>
      <trkpt lat="47.649704" lon="2.1535504">
        <ele>189.0</ele>
        <time>2022-02-17T10:15:17Z</time>
      </trkpt>
      <trkpt lat="47.649693" lon="2.1535602">
        <ele>189.0</ele>
        <time>2022-02-17T10:15:18Z</time>
      </trkpt>
      <trkpt lat="47.64968" lon="2.153569">
        <ele>188.0</ele>
        <time>2022-02-17T10:15:19Z</time>
      </trkpt>
      <trkpt lat="47.649673" lon="2.1535816">
        <ele>189.0</ele>
        <time>2022-02-17T10:15:20Z</time>
      </trkpt>
      <trkpt lat="47.649666" lon="2.1535902">
        <ele>189.0</ele>
        <time>2022-02-17T10:15:21Z</time>
      </trkpt>
      <trkpt lat="47.649654" lon="2.1536007">
        <ele>189.0</ele>
        <time>2022-02-17T10:15:22Z</time>
      </trkpt>
      <trkpt lat="47.649643" lon="2.1536112">
        <ele>189.0</ele>
        <time>2022-02-17T10:15:23Z</time>
      </trkpt>
      <trkpt lat="47.64963" lon="2.1536222">
        <ele>189.0</ele>
        <time>2022-02-17T10:15:24Z</time>
      </trkpt>
      <trkpt lat="47.64962" lon="2.153631">
        <ele>189.0</ele>
        <time>2022-02-17T10:15:25Z</time>
      </trkpt>
      <trkpt lat="47.649612" lon="2.153638">
        <ele>189.0</ele>
        <time>2022-02-17T10:15:26Z</time>
      </trkpt>
      <trkpt lat="47.6496" lon="2.1536474">
        <ele>190.0</ele>
        <time>2022-02-17T10:15:27Z</time>
      </trkpt>
      <trkpt lat="47.649593" lon="2.1536577">
        <ele>190.0</ele>
        <time>2022-02-17T10:15:28Z</time>
      </trkpt>
      <trkpt lat="47.649586" lon="2.1536663">
        <ele>190.0</ele>
        <time>2022-02-17T10:15:29Z</time>
      </trkpt>
      <trkpt lat="47.649574" lon="2.1536758">
        <ele>190.0</ele>
        <time>2022-02-17T10:15:30Z</time>
      </trkpt>
      <trkpt lat="47.649563" lon="2.1536806">
        <ele>190.0</ele>
        <time>2022-02-17T10:15:31Z</time>
      </trkpt>
      <trkpt lat="47.64956" lon="2.1536849">
        <ele>190.0</ele>
        <time>2022-02-17T10:15:32Z</time>
      </trkpt>
      <trkpt lat="47.649555" lon="2.1536863">
        <ele>190.0</ele>
        <time>2022-02-17T10:15:33Z</time>
      </trkpt>
      <trkpt lat="47.64955" lon="2.1536925">
        <ele>190.0</ele>
        <time>2022-02-17T10:15:34Z</time>
      </trkpt>
      <trkpt lat="47.64954" lon="2.1537008">
        <ele>190.0</ele>
        <time>2022-02-17T10:15:35Z</time>
      </trkpt>
      <trkpt lat="47.64953" lon="2.1537132">
        <ele>189.0</ele>
        <time>2022-02-17T10:15:36Z</time>
      </trkpt>
      <trkpt lat="47.64952" lon="2.1537223">
        <ele>189.0</ele>
        <time>2022-02-17T10:15:37Z</time>
      </trkpt>
      <trkpt lat="47.64951" lon="2.153727">
        <ele>189.0</ele>
        <time>2022-02-17T10:15:38Z</time>
      </trkpt>
      <trkpt lat="47.6495" lon="2.1537318">
        <ele>190.0</ele>
        <time>2022-02-17T10:15:39Z</time>
      </trkpt>
      <trkpt lat="47.64949" lon="2.1537368">
        <ele>190.0</ele>
        <time>2022-02-17T10:15:40Z</time>
      </trkpt>
      <trkpt lat="47.649483" lon="2.1537442">
        <ele>190.0</ele>
        <time>2022-02-17T10:15:41Z</time>
      </trkpt>
      <trkpt lat="47.64947" lon="2.1537523">
        <ele>189.0</ele>
        <time>2022-02-17T10:15:42Z</time>
      </trkpt>
      <trkpt lat="47.64946" lon="2.1537607">
        <ele>189.0</ele>
        <time>2022-02-17T10:15:43Z</time>
      </trkpt>
      <trkpt lat="47.64945" lon="2.1537704">
        <ele>189.0</ele>
        <time>2022-02-17T10:15:44Z</time>
      </trkpt>
      <trkpt lat="47.649437" lon="2.153782">
        <ele>189.0</ele>
        <time>2022-02-17T10:15:45Z</time>
      </trkpt>
      <trkpt lat="47.64943" lon="2.1537921">
        <ele>188.0</ele>
        <time>2022-02-17T10:15:46Z</time>
      </trkpt>
      <trkpt lat="47.64942" lon="2.153805">
        <ele>188.0</ele>
        <time>2022-02-17T10:15:47Z</time>
      </trkpt>
      <trkpt lat="47.64941" lon="2.1538115">
        <ele>189.0</ele>
        <time>2022-02-17T10:15:48Z</time>
      </trkpt>
      <trkpt lat="47.649403" lon="2.1538217">
        <ele>189.0</ele>
        <time>2022-02-17T10:15:49Z</time>
      </trkpt>
      <trkpt lat="47.649395" lon="2.1538296">
        <ele>189.0</ele>
        <time>2022-02-17T10:15:50Z</time>
      </trkpt>
      <trkpt lat="47.649387" lon="2.1538389">
        <ele>188.0</ele>
        <time>2022-02-17T10:15:51Z</time>
      </trkpt>
      <trkpt lat="47.649384" lon="2.1538553">
        <ele>188.0</ele>
        <time>2022-02-17T10:15:52Z</time>
      </trkpt>
      <trkpt lat="47.64937" lon="2.153869">
        <ele>189.0</ele>
        <time>2022-02-17T10:15:53Z</time>
      </trkpt>
      <trkpt lat="47.64936" lon="2.153881">
        <ele>188.0</ele>
        <time>2022-02-17T10:15:54Z</time>
      </trkpt>
      <trkpt lat="47.649353" lon="2.153892">
        <ele>189.0</ele>
        <time>2022-02-17T10:15:55Z</time>
      </trkpt>
      <trkpt lat="47.649345" lon="2.1539056">
        <ele>188.0</ele>
        <time>2022-02-17T10:15:56Z</time>
      </trkpt>
      <trkpt lat="47.649334" lon="2.1539142">
        <ele>187.0</ele>
        <time>2022-02-17T10:15:57Z</time>
      </trkpt>
      <trkpt lat="47.649326" lon="2.153918">
        <ele>187.0</ele>
        <time>2022-02-17T10:15:58Z</time>
      </trkpt>
      <trkpt lat="47.649315" lon="2.1539283">
        <ele>187.0</ele>
        <time>2022-02-17T10:15:59Z</time>
      </trkpt>
      <trkpt lat="47.6493" lon="2.1539352">
        <ele>188.0</ele>
        <time>2022-02-17T10:16:00Z</time>
      </trkpt>
      <trkpt lat="47.649292" lon="2.153943">
        <ele>187.0</ele>
        <time>2022-02-17T10:16:01Z</time>
      </trkpt>
      <trkpt lat="47.649284" lon="2.15395">
        <ele>188.0</ele>
        <time>2022-02-17T10:16:02Z</time>
      </trkpt>
      <trkpt lat="47.64928" lon="2.1539574">
        <ele>188.0</ele>
        <time>2022-02-17T10:16:03Z</time>
      </trkpt>
      <trkpt lat="47.649273" lon="2.1539676">
        <ele>188.0</ele>
        <time>2022-02-17T10:16:04Z</time>
      </trkpt>
      <trkpt lat="47.649265" lon="2.153977">
        <ele>188.0</ele>
        <time>2022-02-17T10:16:05Z</time>
      </trkpt>
      <trkpt lat="47.649258" lon="2.1539886">
        <ele>188.0</ele>
        <time>2022-02-17T10:16:06Z</time>
      </trkpt>
      <trkpt lat="47.64925" lon="2.1539998">
        <ele>188.0</ele>
        <time>2022-02-17T10:16:07Z</time>
      </trkpt>
      <trkpt lat="47.64924" lon="2.1540112">
        <ele>189.0</ele>
        <time>2022-02-17T10:16:08Z</time>
      </trkpt>
      <trkpt lat="47.64923" lon="2.1540132">
        <ele>189.0</ele>
        <time>2022-02-17T10:16:09Z</time>
      </trkpt>
      <trkpt lat="47.649223" lon="2.1540213">
        <ele>189.0</ele>
        <time>2022-02-17T10:16:10Z</time>
      </trkpt>
      <trkpt lat="47.64921" lon="2.1540303">
        <ele>189.0</ele>
        <time>2022-02-17T10:16:11Z</time>
      </trkpt>
      <trkpt lat="47.649204" lon="2.1540384">
        <ele>189.0</ele>
        <time>2022-02-17T10:16:12Z</time>
      </trkpt>
      <trkpt lat="47.649193" lon="2.154048">
        <ele>189.0</ele>
        <time>2022-02-17T10:16:13Z</time>
      </trkpt>
      <trkpt lat="47.64919" lon="2.1540556">
        <ele>189.0</ele>
        <time>2022-02-17T10:16:14Z</time>
      </trkpt>
      <trkpt lat="47.649178" lon="2.154064">
        <ele>190.0</ele>
        <time>2022-02-17T10:16:15Z</time>
      </trkpt>
      <trkpt lat="47.649162" lon="2.1540706">
        <ele>190.0</ele>
        <time>2022-02-17T10:16:16Z</time>
      </trkpt>
      <trkpt lat="47.649155" lon="2.1540818">
        <ele>190.0</ele>
        <time>2022-02-17T10:16:17Z</time>
      </trkpt>
      <trkpt lat="47.649147" lon="2.1540835">
        <ele>189.0</ele>
        <time>2022-02-17T10:16:18Z</time>
      </trkpt>
      <trkpt lat="47.64914" lon="2.1540911">
        <ele>190.0</ele>
        <time>2022-02-17T10:16:19Z</time>
      </trkpt>
      <trkpt lat="47.649128" lon="2.1540952">
        <ele>189.0</ele>
        <time>2022-02-17T10:16:20Z</time>
      </trkpt>
      <trkpt lat="47.64912" lon="2.1541064">
        <ele>189.0</ele>
        <time>2022-02-17T10:16:21Z</time>
      </trkpt>
      <trkpt lat="47.649113" lon="2.1541147">
        <ele>189.0</ele>
        <time>2022-02-17T10:16:22Z</time>
      </trkpt>
      <trkpt lat="47.649105" lon="2.1541224">
        <ele>189.0</ele>
        <time>2022-02-17T10:16:23Z</time>
      </trkpt>
      <trkpt lat="47.649094" lon="2.1541328">
        <ele>189.0</ele>
        <time>2022-02-17T10:16:24Z</time>
      </trkpt>
      <trkpt lat="47.649086" lon="2.1541426">
        <ele>189.0</ele>
        <time>2022-02-17T10:16:25Z</time>
      </trkpt>
      <trkpt lat="47.64908" lon="2.1541505">
        <ele>188.0</ele>
        <time>2022-02-17T10:16:26Z</time>
      </trkpt>
      <trkpt lat="47.649067" lon="2.1541562">
        <ele>188.0</ele>
        <time>2022-02-17T10:16:27Z</time>
      </trkpt>
      <trkpt lat="47.64906" lon="2.1541653">
        <ele>188.0</ele>
        <time>2022-02-17T10:16:28Z</time>
      </trkpt>
      <trkpt lat="47.649048" lon="2.154175">
        <ele>188.0</ele>
        <time>2022-02-17T10:16:29Z</time>
      </trkpt>
      <trkpt lat="47.649036" lon="2.1541834">
        <ele>188.0</ele>
        <time>2022-02-17T10:16:30Z</time>
      </trkpt>
      <trkpt lat="47.649025" lon="2.1541948">
        <ele>188.0</ele>
        <time>2022-02-17T10:16:31Z</time>
      </trkpt>
      <trkpt lat="47.64901" lon="2.1542053">
        <ele>188.0</ele>
        <time>2022-02-17T10:16:32Z</time>
      </trkpt>
      <trkpt lat="47.649002" lon="2.1542153">
        <ele>188.0</ele>
        <time>2022-02-17T10:16:33Z</time>
      </trkpt>
      <trkpt lat="47.648994" lon="2.1542318">
        <ele>189.0</ele>
        <time>2022-02-17T10:16:34Z</time>
      </trkpt>
      <trkpt lat="47.648983" lon="2.1542392">
        <ele>189.0</ele>
        <time>2022-02-17T10:16:35Z</time>
      </trkpt>
      <trkpt lat="47.64897" lon="2.154245">
        <ele>189.0</ele>
        <time>2022-02-17T10:16:36Z</time>
      </trkpt>
      <trkpt lat="47.64896" lon="2.1542518">
        <ele>189.0</ele>
        <time>2022-02-17T10:16:37Z</time>
      </trkpt>
      <trkpt lat="47.64895" lon="2.1542604">
        <ele>189.0</ele>
        <time>2022-02-17T10:16:38Z</time>
      </trkpt>
      <trkpt lat="47.648937" lon="2.154272">
        <ele>189.0</ele>
        <time>2022-02-17T10:16:39Z</time>
      </trkpt>
      <trkpt lat="47.648922" lon="2.1542866">
        <ele>189.0</ele>
        <time>2022-02-17T10:16:40Z</time>
      </trkpt>
      <trkpt lat="47.64891" lon="2.1542969">
        <ele>189.0</ele>
        <time>2022-02-17T10:16:41Z</time>
      </trkpt>
      <trkpt lat="47.6489" lon="2.1543055">
        <ele>189.0</ele>
        <time>2022-02-17T10:16:42Z</time>
      </trkpt>
      <trkpt lat="47.648888" lon="2.154313">
        <ele>189.0</ele>
        <time>2022-02-17T10:16:43Z</time>
      </trkpt>
      <trkpt lat="47.648884" lon="2.1543214">
        <ele>189.0</ele>
        <time>2022-02-17T10:16:44Z</time>
      </trkpt>
      <trkpt lat="47.648872" lon="2.1543303">
        <ele>189.0</ele>
        <time>2022-02-17T10:16:45Z</time>
      </trkpt>
      <trkpt lat="47.64886" lon="2.1543398">
        <ele>190.0</ele>
        <time>2022-02-17T10:16:46Z</time>
      </trkpt>
      <trkpt lat="47.64885" lon="2.154347">
        <ele>190.0</ele>
        <time>2022-02-17T10:16:47Z</time>
      </trkpt>
      <trkpt lat="47.648838" lon="2.154352">
        <ele>190.0</ele>
        <time>2022-02-17T10:16:48Z</time>
      </trkpt>
      <trkpt lat="47.648823" lon="2.1543615">
        <ele>190.0</ele>
        <time>2022-02-17T10:16:49Z</time>
      </trkpt>
      <trkpt lat="47.64881" lon="2.1543713">
        <ele>190.0</ele>
        <time>2022-02-17T10:16:50Z</time>
      </trkpt>
      <trkpt lat="47.648796" lon="2.1543767">
        <ele>190.0</ele>
        <time>2022-02-17T10:16:51Z</time>
      </trkpt>
      <trkpt lat="47.64879" lon="2.1543825">
        <ele>190.0</ele>
        <time>2022-02-17T10:16:52Z</time>
      </trkpt>
      <trkpt lat="47.648777" lon="2.154388">
        <ele>190.0</ele>
        <time>2022-02-17T10:16:53Z</time>
      </trkpt>
      <trkpt lat="47.648773" lon="2.1543937">
        <ele>190.0</ele>
        <time>2022-02-17T10:16:54Z</time>
      </trkpt>
      <trkpt lat="47.648773" lon="2.1543937">
        <ele>190.0</ele>
        <time>2022-02-17T10:16:55Z</time>
      </trkpt>
      <trkpt lat="47.648773" lon="2.1543937">
        <ele>190.0</ele>
        <time>2022-02-17T10:16:56Z</time>
      </trkpt>
      <trkpt lat="47.648758" lon="2.1544137">
        <ele>190.0</ele>
        <time>2022-02-17T10:16:57Z</time>
      </trkpt>
      <trkpt lat="47.648746" lon="2.1544218">
        <ele>191.0</ele>
        <time>2022-02-17T10:16:58Z</time>
      </trkpt>
      <trkpt lat="47.64874" lon="2.1544297">
        <ele>191.0</ele>
        <time>2022-02-17T10:16:59Z</time>
      </trkpt>
      <trkpt lat="47.648724" lon="2.154435">
        <ele>191.0</ele>
        <time>2022-02-17T10:17:00Z</time>
      </trkpt>
      <trkpt lat="47.648712" lon="2.1544368">
        <ele>191.0</ele>
        <time>2022-02-17T10:17:01Z</time>
      </trkpt>
      <trkpt lat="47.648705" lon="2.1544394">
        <ele>190.0</ele>
        <time>2022-02-17T10:17:02Z</time>
      </trkpt>
      <trkpt lat="47.648693" lon="2.154438">
        <ele>189.0</ele>
        <time>2022-02-17T10:17:03Z</time>
      </trkpt>
      <trkpt lat="47.64868" lon="2.1544375">
        <ele>189.0</ele>
        <time>2022-02-17T10:17:04Z</time>
      </trkpt>
      <trkpt lat="47.64868" lon="2.1544375">
        <ele>189.0</ele>
        <time>2022-02-17T10:17:05Z</time>
      </trkpt>
      <trkpt lat="47.64868" lon="2.1544375">
        <ele>189.0</ele>
        <time>2022-02-17T10:17:06Z</time>
      </trkpt>
      <trkpt lat="47.64866" lon="2.1544454">
        <ele>188.0</ele>
        <time>2022-02-17T10:17:07Z</time>
      </trkpt>
      <trkpt lat="47.64865" lon="2.154445">
        <ele>188.0</ele>
        <time>2022-02-17T10:17:08Z</time>
      </trkpt>
      <trkpt lat="47.64864" lon="2.1544487">
        <ele>188.0</ele>
        <time>2022-02-17T10:17:09Z</time>
      </trkpt>
      <trkpt lat="47.648632" lon="2.1544533">
        <ele>188.0</ele>
        <time>2022-02-17T10:17:10Z</time>
      </trkpt>
      <trkpt lat="47.648617" lon="2.154467">
        <ele>188.0</ele>
        <time>2022-02-17T10:17:11Z</time>
      </trkpt>
      <trkpt lat="47.6486" lon="2.1544783">
        <ele>189.0</ele>
        <time>2022-02-17T10:17:12Z</time>
      </trkpt>
      <trkpt lat="47.64859" lon="2.1544893">
        <ele>189.0</ele>
        <time>2022-02-17T10:17:13Z</time>
      </trkpt>
      <trkpt lat="47.648575" lon="2.1545024">
        <ele>189.0</ele>
        <time>2022-02-17T10:17:14Z</time>
      </trkpt>
      <trkpt lat="47.648556" lon="2.154516">
        <ele>189.0</ele>
        <time>2022-02-17T10:17:15Z</time>
      </trkpt>
      <trkpt lat="47.64854" lon="2.1545265">
        <ele>189.0</ele>
        <time>2022-02-17T10:17:16Z</time>
      </trkpt>
      <trkpt lat="47.64853" lon="2.1545367">
        <ele>189.0</ele>
        <time>2022-02-17T10:17:17Z</time>
      </trkpt>
      <trkpt lat="47.64852" lon="2.1545484">
        <ele>189.0</ele>
        <time>2022-02-17T10:17:18Z</time>
      </trkpt>
      <trkpt lat="47.64851" lon="2.1545603">
        <ele>189.0</ele>
        <time>2022-02-17T10:17:19Z</time>
      </trkpt>
      <trkpt lat="47.6485" lon="2.1545737">
        <ele>189.0</ele>
        <time>2022-02-17T10:17:20Z</time>
      </trkpt>
      <trkpt lat="47.648487" lon="2.154583">
        <ele>188.0</ele>
        <time>2022-02-17T10:17:21Z</time>
      </trkpt>
      <trkpt lat="47.64848" lon="2.1545925">
        <ele>188.0</ele>
        <time>2022-02-17T10:17:22Z</time>
      </trkpt>
      <trkpt lat="47.64847" lon="2.1545982">
        <ele>188.0</ele>
        <time>2022-02-17T10:17:23Z</time>
      </trkpt>
      <trkpt lat="47.64847" lon="2.1545982">
        <ele>188.0</ele>
        <time>2022-02-17T10:17:24Z</time>
      </trkpt>
      <trkpt lat="47.64847" lon="2.1545982">
        <ele>188.0</ele>
        <time>2022-02-17T10:17:25Z</time>
      </trkpt>
      <trkpt lat="47.64845" lon="2.154618">
        <ele>187.0</ele>
        <time>2022-02-17T10:17:26Z</time>
      </trkpt>
      <trkpt lat="47.648438" lon="2.154623">
        <ele>187.0</ele>
        <time>2022-02-17T10:17:27Z</time>
      </trkpt>
      <trkpt lat="47.648422" lon="2.154631">
        <ele>187.0</ele>
        <time>2022-02-17T10:17:28Z</time>
      </trkpt>
      <trkpt lat="47.648415" lon="2.1546388">
        <ele>187.0</ele>
        <time>2022-02-17T10:17:29Z</time>
      </trkpt>
      <trkpt lat="47.648403" lon="2.1546447">
        <ele>187.0</ele>
        <time>2022-02-17T10:17:30Z</time>
      </trkpt>
      <trkpt lat="47.648396" lon="2.1546497">
        <ele>186.0</ele>
        <time>2022-02-17T10:17:31Z</time>
      </trkpt>
      <trkpt lat="47.648396" lon="2.1546497">
        <ele>186.0</ele>
        <time>2022-02-17T10:17:32Z</time>
      </trkpt>
      <trkpt lat="47.648396" lon="2.1546497">
        <ele>186.0</ele>
        <time>2022-02-17T10:17:33Z</time>
      </trkpt>
      <trkpt lat="47.648365" lon="2.154687">
        <ele>186.0</ele>
        <time>2022-02-17T10:17:34Z</time>
      </trkpt>
      <trkpt lat="47.648354" lon="2.1546984">
        <ele>186.0</ele>
        <time>2022-02-17T10:17:35Z</time>
      </trkpt>
      <trkpt lat="47.64834" lon="2.1547084">
        <ele>185.0</ele>
        <time>2022-02-17T10:17:36Z</time>
      </trkpt>
      <trkpt lat="47.648327" lon="2.1547177">
        <ele>185.0</ele>
        <time>2022-02-17T10:17:37Z</time>
      </trkpt>
      <trkpt lat="47.648315" lon="2.1547284">
        <ele>185.0</ele>
        <time>2022-02-17T10:17:38Z</time>
      </trkpt>
      <trkpt lat="47.648308" lon="2.1547408">
        <ele>185.0</ele>
        <time>2022-02-17T10:17:39Z</time>
      </trkpt>
      <trkpt lat="47.6483" lon="2.1547484">
        <ele>185.0</ele>
        <time>2022-02-17T10:17:40Z</time>
      </trkpt>
      <trkpt lat="47.64829" lon="2.1547608">
        <ele>184.0</ele>
        <time>2022-02-17T10:17:41Z</time>
      </trkpt>
      <trkpt lat="47.648285" lon="2.154768">
        <ele>184.0</ele>
        <time>2022-02-17T10:17:42Z</time>
      </trkpt>
      <trkpt lat="47.648285" lon="2.154768">
        <ele>184.0</ele>
        <time>2022-02-17T10:17:43Z</time>
      </trkpt>
      <trkpt lat="47.648285" lon="2.154768">
        <ele>184.0</ele>
        <time>2022-02-17T10:17:44Z</time>
      </trkpt>
      <trkpt lat="47.648262" lon="2.1547933">
        <ele>185.0</ele>
        <time>2022-02-17T10:17:45Z</time>
      </trkpt>
      <trkpt lat="47.648262" lon="2.1548011">
        <ele>186.0</ele>
        <time>2022-02-17T10:17:46Z</time>
      </trkpt>
      <trkpt lat="47.648254" lon="2.1548107">
        <ele>186.0</ele>
        <time>2022-02-17T10:17:47Z</time>
      </trkpt>
      <trkpt lat="47.648247" lon="2.154817">
        <ele>186.0</ele>
        <time>2022-02-17T10:17:48Z</time>
      </trkpt>
      <trkpt lat="47.648247" lon="2.154817">
        <ele>186.0</ele>
        <time>2022-02-17T10:17:49Z</time>
      </trkpt>
      <trkpt lat="47.648247" lon="2.154817">
        <ele>186.0</ele>
        <time>2022-02-17T10:17:50Z</time>
      </trkpt>
      <trkpt lat="47.64824" lon="2.1548455">
        <ele>186.0</ele>
        <time>2022-02-17T10:17:51Z</time>
      </trkpt>
      <trkpt lat="47.64823" lon="2.1548586">
        <ele>186.0</ele>
        <time>2022-02-17T10:17:52Z</time>
      </trkpt>
      <trkpt lat="47.648224" lon="2.1548686">
        <ele>187.0</ele>
        <time>2022-02-17T10:17:53Z</time>
      </trkpt>
      <trkpt lat="47.648216" lon="2.1548774">
        <ele>187.0</ele>
        <time>2022-02-17T10:17:54Z</time>
      </trkpt>
      <trkpt lat="47.648216" lon="2.1548774">
        <ele>187.0</ele>
        <time>2022-02-17T10:17:55Z</time>
      </trkpt>
      <trkpt lat="47.648216" lon="2.1548774">
        <ele>187.0</ele>
        <time>2022-02-17T10:17:56Z</time>
      </trkpt>
      <trkpt lat="47.64819" lon="2.1549025">
        <ele>188.0</ele>
        <time>2022-02-17T10:17:57Z</time>
      </trkpt>
      <trkpt lat="47.64818" lon="2.1549115">
        <ele>188.0</ele>
        <time>2022-02-17T10:17:58Z</time>
      </trkpt>
      <trkpt lat="47.648167" lon="2.154921">
        <ele>188.0</ele>
        <time>2022-02-17T10:17:59Z</time>
      </trkpt>
      <trkpt lat="47.648155" lon="2.1549277">
        <ele>188.0</ele>
        <time>2022-02-17T10:18:00Z</time>
      </trkpt>
      <trkpt lat="47.648155" lon="2.1549277">
        <ele>188.0</ele>
        <time>2022-02-17T10:18:01Z</time>
      </trkpt>
      <trkpt lat="47.648155" lon="2.1549277">
        <ele>188.0</ele>
        <time>2022-02-17T10:18:02Z</time>
      </trkpt>
      <trkpt lat="47.648155" lon="2.1549277">
        <ele>188.0</ele>
        <time>2022-02-17T10:18:03Z</time>
      </trkpt>
      <trkpt lat="47.648155" lon="2.1549277">
        <ele>188.0</ele>
        <time>2022-02-17T10:18:04Z</time>
      </trkpt>
      <trkpt lat="47.648155" lon="2.1549277">
        <ele>188.0</ele>
        <time>2022-02-17T10:18:05Z</time>
      </trkpt>
      <trkpt lat="47.64813" lon="2.1549497">
        <ele>188.0</ele>
        <time>2022-02-17T10:18:06Z</time>
      </trkpt>
      <trkpt lat="47.64812" lon="2.154955">
        <ele>188.0</ele>
        <time>2022-02-17T10:18:07Z</time>
      </trkpt>
      <trkpt lat="47.648113" lon="2.1549606">
        <ele>188.0</ele>
        <time>2022-02-17T10:18:08Z</time>
      </trkpt>
      <trkpt lat="47.6481" lon="2.1549644">
        <ele>188.0</ele>
        <time>2022-02-17T10:18:09Z</time>
      </trkpt>
      <trkpt lat="47.648094" lon="2.1549644">
        <ele>188.0</ele>
        <time>2022-02-17T10:18:10Z</time>
      </trkpt>
      <trkpt lat="47.648094" lon="2.1549644">
        <ele>188.0</ele>
        <time>2022-02-17T10:18:11Z</time>
      </trkpt>
      <trkpt lat="47.648094" lon="2.1549644">
        <ele>188.0</ele>
        <time>2022-02-17T10:18:12Z</time>
      </trkpt>
      <trkpt lat="47.648064" lon="2.1549752">
        <ele>187.0</ele>
        <time>2022-02-17T10:18:13Z</time>
      </trkpt>
      <trkpt lat="47.648064" lon="2.1549754">
        <ele>187.0</ele>
        <time>2022-02-17T10:18:14Z</time>
      </trkpt>
      <trkpt lat="47.648064" lon="2.1549757">
        <ele>187.0</ele>
        <time>2022-02-17T10:18:15Z</time>
      </trkpt>
      <trkpt lat="47.64806" lon="2.1549757">
        <ele>187.0</ele>
        <time>2022-02-17T10:18:16Z</time>
      </trkpt>
      <trkpt lat="47.64806" lon="2.1549757">
        <ele>187.0</ele>
        <time>2022-02-17T10:18:17Z</time>
      </trkpt>
      <trkpt lat="47.64806" lon="2.1549757">
        <ele>187.0</ele>
        <time>2022-02-17T10:18:18Z</time>
      </trkpt>
      <trkpt lat="47.648033" lon="2.154999">
        <ele>187.0</ele>
        <time>2022-02-17T10:18:19Z</time>
      </trkpt>
      <trkpt lat="47.64802" lon="2.1550076">
        <ele>187.0</ele>
        <time>2022-02-17T10:18:20Z</time>
      </trkpt>
      <trkpt lat="47.64801" lon="2.1550136">
        <ele>187.0</ele>
        <time>2022-02-17T10:18:21Z</time>
      </trkpt>
      <trkpt lat="47.648003" lon="2.1550198">
        <ele>187.0</ele>
        <time>2022-02-17T10:18:22Z</time>
      </trkpt>
      <trkpt lat="47.648003" lon="2.1550198">
        <ele>187.0</ele>
        <time>2022-02-17T10:18:23Z</time>
      </trkpt>
      <trkpt lat="47.648003" lon="2.1550198">
        <ele>187.0</ele>
        <time>2022-02-17T10:18:24Z</time>
      </trkpt>
      <trkpt lat="47.647972" lon="2.155031">
        <ele>186.0</ele>
        <time>2022-02-17T10:18:25Z</time>
      </trkpt>
      <trkpt lat="47.647964" lon="2.155035">
        <ele>186.0</ele>
        <time>2022-02-17T10:18:26Z</time>
      </trkpt>
      <trkpt lat="47.647953" lon="2.1550405">
        <ele>187.0</ele>
        <time>2022-02-17T10:18:27Z</time>
      </trkpt>
      <trkpt lat="47.64794" lon="2.1550453">
        <ele>187.0</ele>
        <time>2022-02-17T10:18:28Z</time>
      </trkpt>
      <trkpt lat="47.64794" lon="2.1550453">
        <ele>187.0</ele>
        <time>2022-02-17T10:18:29Z</time>
      </trkpt>
      <trkpt lat="47.64794" lon="2.1550453">
        <ele>187.0</ele>
        <time>2022-02-17T10:18:30Z</time>
      </trkpt>
      <trkpt lat="47.64791" lon="2.1550634">
        <ele>187.0</ele>
        <time>2022-02-17T10:18:31Z</time>
      </trkpt>
      <trkpt lat="47.647896" lon="2.15507">
        <ele>187.0</ele>
        <time>2022-02-17T10:18:32Z</time>
      </trkpt>
      <trkpt lat="47.64788" lon="2.1550782">
        <ele>187.0</ele>
        <time>2022-02-17T10:18:33Z</time>
      </trkpt>
      <trkpt lat="47.64787" lon="2.155086">
        <ele>187.0</ele>
        <time>2022-02-17T10:18:34Z</time>
      </trkpt>
      <trkpt lat="47.647858" lon="2.1550972">
        <ele>187.0</ele>
        <time>2022-02-17T10:18:35Z</time>
      </trkpt>
      <trkpt lat="47.64785" lon="2.1551027">
        <ele>187.0</ele>
        <time>2022-02-17T10:18:36Z</time>
      </trkpt>
      <trkpt lat="47.64785" lon="2.1551027">
        <ele>187.0</ele>
        <time>2022-02-17T10:18:37Z</time>
      </trkpt>
      <trkpt lat="47.64785" lon="2.1551027">
        <ele>187.0</ele>
        <time>2022-02-17T10:18:38Z</time>
      </trkpt>
      <trkpt lat="47.64782" lon="2.1551285">
        <ele>186.0</ele>
        <time>2022-02-17T10:18:39Z</time>
      </trkpt>
      <trkpt lat="47.647808" lon="2.1551402">
        <ele>187.0</ele>
        <time>2022-02-17T10:18:40Z</time>
      </trkpt>
      <trkpt lat="47.647793" lon="2.1551487">
        <ele>187.0</ele>
        <time>2022-02-17T10:18:41Z</time>
      </trkpt>
      <trkpt lat="47.64778" lon="2.1551554">
        <ele>187.0</ele>
        <time>2022-02-17T10:18:42Z</time>
      </trkpt>
      <trkpt lat="47.64777" lon="2.155159">
        <ele>187.0</ele>
        <time>2022-02-17T10:18:43Z</time>
      </trkpt>
      <trkpt lat="47.647755" lon="2.1551683">
        <ele>186.0</ele>
        <time>2022-02-17T10:18:44Z</time>
      </trkpt>
      <trkpt lat="47.647743" lon="2.1551766">
        <ele>187.0</ele>
        <time>2022-02-17T10:18:45Z</time>
      </trkpt>
      <trkpt lat="47.647728" lon="2.1551833">
        <ele>187.0</ele>
        <time>2022-02-17T10:18:46Z</time>
      </trkpt>
      <trkpt lat="47.647713" lon="2.1551907">
        <ele>187.0</ele>
        <time>2022-02-17T10:18:47Z</time>
      </trkpt>
      <trkpt lat="47.6477" lon="2.1551957">
        <ele>187.0</ele>
        <time>2022-02-17T10:18:48Z</time>
      </trkpt>
      <trkpt lat="47.647686" lon="2.1552">
        <ele>187.0</ele>
        <time>2022-02-17T10:18:49Z</time>
      </trkpt>
      <trkpt lat="47.647675" lon="2.1552043">
        <ele>187.0</ele>
        <time>2022-02-17T10:18:50Z</time>
      </trkpt>
      <trkpt lat="47.64766" lon="2.1552098">
        <ele>187.0</ele>
        <time>2022-02-17T10:18:51Z</time>
      </trkpt>
      <trkpt lat="47.647648" lon="2.1552129">
        <ele>187.0</ele>
        <time>2022-02-17T10:18:52Z</time>
      </trkpt>
      <trkpt lat="47.647636" lon="2.1552172">
        <ele>187.0</ele>
        <time>2022-02-17T10:18:53Z</time>
      </trkpt>
      <trkpt lat="47.647625" lon="2.1552196">
        <ele>187.0</ele>
        <time>2022-02-17T10:18:54Z</time>
      </trkpt>
      <trkpt lat="47.64761" lon="2.1552272">
        <ele>187.0</ele>
        <time>2022-02-17T10:18:55Z</time>
      </trkpt>
      <trkpt lat="47.647594" lon="2.155231">
        <ele>187.0</ele>
        <time>2022-02-17T10:18:56Z</time>
      </trkpt>
      <trkpt lat="47.64758" lon="2.1552389">
        <ele>187.0</ele>
        <time>2022-02-17T10:18:57Z</time>
      </trkpt>
      <trkpt lat="47.647568" lon="2.1552417">
        <ele>187.0</ele>
        <time>2022-02-17T10:18:58Z</time>
      </trkpt>
      <trkpt lat="47.647556" lon="2.1552408">
        <ele>186.0</ele>
        <time>2022-02-17T10:18:59Z</time>
      </trkpt>
      <trkpt lat="47.64754" lon="2.1552434">
        <ele>186.0</ele>
        <time>2022-02-17T10:19:00Z</time>
      </trkpt>
      <trkpt lat="47.64753" lon="2.1552482">
        <ele>187.0</ele>
        <time>2022-02-17T10:19:01Z</time>
      </trkpt>
      <trkpt lat="47.64752" lon="2.1552515">
        <ele>187.0</ele>
        <time>2022-02-17T10:19:02Z</time>
      </trkpt>
      <trkpt lat="47.64751" lon="2.1552496">
        <ele>186.0</ele>
        <time>2022-02-17T10:19:03Z</time>
      </trkpt>
      <trkpt lat="47.647495" lon="2.1552484">
        <ele>186.0</ele>
        <time>2022-02-17T10:19:04Z</time>
      </trkpt>
      <trkpt lat="47.64748" lon="2.1552484">
        <ele>186.0</ele>
        <time>2022-02-17T10:19:05Z</time>
      </trkpt>
      <trkpt lat="47.647465" lon="2.1552517">
        <ele>186.0</ele>
        <time>2022-02-17T10:19:06Z</time>
      </trkpt>
      <trkpt lat="47.647453" lon="2.155258">
        <ele>186.0</ele>
        <time>2022-02-17T10:19:07Z</time>
      </trkpt>
      <trkpt lat="47.647438" lon="2.155265">
        <ele>186.0</ele>
        <time>2022-02-17T10:19:08Z</time>
      </trkpt>
      <trkpt lat="47.64743" lon="2.1552713">
        <ele>185.0</ele>
        <time>2022-02-17T10:19:09Z</time>
      </trkpt>
      <trkpt lat="47.64742" lon="2.155278">
        <ele>185.0</ele>
        <time>2022-02-17T10:19:10Z</time>
      </trkpt>
      <trkpt lat="47.64741" lon="2.1552818">
        <ele>185.0</ele>
        <time>2022-02-17T10:19:11Z</time>
      </trkpt>
      <trkpt lat="47.647396" lon="2.155282">
        <ele>185.0</ele>
        <time>2022-02-17T10:19:12Z</time>
      </trkpt>
      <trkpt lat="47.64739" lon="2.1552806">
        <ele>185.0</ele>
        <time>2022-02-17T10:19:13Z</time>
      </trkpt>
      <trkpt lat="47.647377" lon="2.155281">
        <ele>185.0</ele>
        <time>2022-02-17T10:19:14Z</time>
      </trkpt>
      <trkpt lat="47.64736" lon="2.1552827">
        <ele>185.0</ele>
        <time>2022-02-17T10:19:15Z</time>
      </trkpt>
      <trkpt lat="47.64735" lon="2.1552835">
        <ele>185.0</ele>
        <time>2022-02-17T10:19:16Z</time>
      </trkpt>
      <trkpt lat="47.64734" lon="2.155284">
        <ele>185.0</ele>
        <time>2022-02-17T10:19:17Z</time>
      </trkpt>
      <trkpt lat="47.64733" lon="2.1552818">
        <ele>186.0</ele>
        <time>2022-02-17T10:19:18Z</time>
      </trkpt>
      <trkpt lat="47.64732" lon="2.155282">
        <ele>186.0</ele>
        <time>2022-02-17T10:19:19Z</time>
      </trkpt>
      <trkpt lat="47.64731" lon="2.155277">
        <ele>186.0</ele>
        <time>2022-02-17T10:19:20Z</time>
      </trkpt>
      <trkpt lat="47.647297" lon="2.1552765">
        <ele>186.0</ele>
        <time>2022-02-17T10:19:21Z</time>
      </trkpt>
      <trkpt lat="47.647285" lon="2.1552765">
        <ele>187.0</ele>
        <time>2022-02-17T10:19:22Z</time>
      </trkpt>
      <trkpt lat="47.64727" lon="2.1552777">
        <ele>187.0</ele>
        <time>2022-02-17T10:19:23Z</time>
      </trkpt>
      <trkpt lat="47.64726" lon="2.1552787">
        <ele>187.0</ele>
        <time>2022-02-17T10:19:24Z</time>
      </trkpt>
      <trkpt lat="47.647243" lon="2.1552794">
        <ele>187.0</ele>
        <time>2022-02-17T10:19:25Z</time>
      </trkpt>
      <trkpt lat="47.647232" lon="2.155281">
        <ele>187.0</ele>
        <time>2022-02-17T10:19:26Z</time>
      </trkpt>
      <trkpt lat="47.64722" lon="2.1552863">
        <ele>187.0</ele>
        <time>2022-02-17T10:19:27Z</time>
      </trkpt>
      <trkpt lat="47.647217" lon="2.155289">
        <ele>187.0</ele>
        <time>2022-02-17T10:19:28Z</time>
      </trkpt>
      <trkpt lat="47.647205" lon="2.15529">
        <ele>188.0</ele>
        <time>2022-02-17T10:19:29Z</time>
      </trkpt>
      <trkpt lat="47.647194" lon="2.1552882">
        <ele>188.0</ele>
        <time>2022-02-17T10:19:30Z</time>
      </trkpt>
      <trkpt lat="47.64718" lon="2.1552875">
        <ele>188.0</ele>
        <time>2022-02-17T10:19:31Z</time>
      </trkpt>
      <trkpt lat="47.647167" lon="2.1552863">
        <ele>188.0</ele>
        <time>2022-02-17T10:19:32Z</time>
      </trkpt>
      <trkpt lat="47.647156" lon="2.1552877">
        <ele>188.0</ele>
        <time>2022-02-17T10:19:33Z</time>
      </trkpt>
      <trkpt lat="47.647144" lon="2.1552901">
        <ele>188.0</ele>
        <time>2022-02-17T10:19:34Z</time>
      </trkpt>
      <trkpt lat="47.647137" lon="2.1552904">
        <ele>187.0</ele>
        <time>2022-02-17T10:19:35Z</time>
      </trkpt>
      <trkpt lat="47.647125" lon="2.155293">
        <ele>187.0</ele>
        <time>2022-02-17T10:19:36Z</time>
      </trkpt>
      <trkpt lat="47.647114" lon="2.155294">
        <ele>187.0</ele>
        <time>2022-02-17T10:19:37Z</time>
      </trkpt>
      <trkpt lat="47.647106" lon="2.1552935">
        <ele>187.0</ele>
        <time>2022-02-17T10:19:38Z</time>
      </trkpt>
      <trkpt lat="47.647095" lon="2.1552913">
        <ele>187.0</ele>
        <time>2022-02-17T10:19:39Z</time>
      </trkpt>
      <trkpt lat="47.647087" lon="2.1552877">
        <ele>187.0</ele>
        <time>2022-02-17T10:19:40Z</time>
      </trkpt>
      <trkpt lat="47.647076" lon="2.1552858">
        <ele>187.0</ele>
        <time>2022-02-17T10:19:41Z</time>
      </trkpt>
      <trkpt lat="47.647068" lon="2.1552866">
        <ele>186.0</ele>
        <time>2022-02-17T10:19:42Z</time>
      </trkpt>
      <trkpt lat="47.647057" lon="2.1552877">
        <ele>186.0</ele>
        <time>2022-02-17T10:19:43Z</time>
      </trkpt>
      <trkpt lat="47.647057" lon="2.1552877">
        <ele>186.0</ele>
        <time>2022-02-17T10:19:44Z</time>
      </trkpt>
      <trkpt lat="47.647057" lon="2.1552877">
        <ele>186.0</ele>
        <time>2022-02-17T10:19:45Z</time>
      </trkpt>
      <trkpt lat="47.647038" lon="2.1552935">
        <ele>186.0</ele>
        <time>2022-02-17T10:19:46Z</time>
      </trkpt>
      <trkpt lat="47.647026" lon="2.1552944">
        <ele>187.0</ele>
        <time>2022-02-17T10:19:47Z</time>
      </trkpt>
      <trkpt lat="47.647015" lon="2.155296">
        <ele>187.0</ele>
        <time>2022-02-17T10:19:48Z</time>
      </trkpt>
      <trkpt lat="47.647" lon="2.1552968">
        <ele>187.0</ele>
        <time>2022-02-17T10:19:49Z</time>
      </trkpt>
      <trkpt lat="47.646988" lon="2.1552973">
        <ele>187.0</ele>
        <time>2022-02-17T10:19:50Z</time>
      </trkpt>
      <trkpt lat="47.646973" lon="2.1552963">
        <ele>186.0</ele>
        <time>2022-02-17T10:19:51Z</time>
      </trkpt>
      <trkpt lat="47.64696" lon="2.155301">
        <ele>186.0</ele>
        <time>2022-02-17T10:19:52Z</time>
      </trkpt>
      <trkpt lat="47.64695" lon="2.1553047">
        <ele>186.0</ele>
        <time>2022-02-17T10:19:53Z</time>
      </trkpt>
      <trkpt lat="47.64694" lon="2.1553075">
        <ele>186.0</ele>
        <time>2022-02-17T10:19:54Z</time>
      </trkpt>
      <trkpt lat="47.646927" lon="2.1553109">
        <ele>186.0</ele>
        <time>2022-02-17T10:19:55Z</time>
      </trkpt>
      <trkpt lat="47.646915" lon="2.155317">
        <ele>186.0</ele>
        <time>2022-02-17T10:19:56Z</time>
      </trkpt>
      <trkpt lat="47.646908" lon="2.1553252">
        <ele>186.0</ele>
        <time>2022-02-17T10:19:57Z</time>
      </trkpt>
      <trkpt lat="47.646896" lon="2.1553361">
        <ele>186.0</ele>
        <time>2022-02-17T10:19:58Z</time>
      </trkpt>
      <trkpt lat="47.646896" lon="2.1553361">
        <ele>186.0</ele>
        <time>2022-02-17T10:19:59Z</time>
      </trkpt>
      <trkpt lat="47.646896" lon="2.1553361">
        <ele>186.0</ele>
        <time>2022-02-17T10:20:00Z</time>
      </trkpt>
      <trkpt lat="47.64687" lon="2.15535">
        <ele>185.0</ele>
        <time>2022-02-17T10:20:01Z</time>
      </trkpt>
      <trkpt lat="47.646862" lon="2.1553557">
        <ele>185.0</ele>
        <time>2022-02-17T10:20:02Z</time>
      </trkpt>
      <trkpt lat="47.64685" lon="2.1553614">
        <ele>185.0</ele>
        <time>2022-02-17T10:20:03Z</time>
      </trkpt>
      <trkpt lat="47.64684" lon="2.155365">
        <ele>185.0</ele>
        <time>2022-02-17T10:20:04Z</time>
      </trkpt>
      <trkpt lat="47.646824" lon="2.1553698">
        <ele>186.0</ele>
        <time>2022-02-17T10:20:05Z</time>
      </trkpt>
      <trkpt lat="47.646812" lon="2.1553752">
        <ele>186.0</ele>
        <time>2022-02-17T10:20:06Z</time>
      </trkpt>
      <trkpt lat="47.646797" lon="2.1553817">
        <ele>186.0</ele>
        <time>2022-02-17T10:20:07Z</time>
      </trkpt>
      <trkpt lat="47.64679" lon="2.1553876">
        <ele>187.0</ele>
        <time>2022-02-17T10:20:08Z</time>
      </trkpt>
      <trkpt lat="47.64679" lon="2.1553876">
        <ele>187.0</ele>
        <time>2022-02-17T10:20:09Z</time>
      </trkpt>
      <trkpt lat="47.64679" lon="2.1553876">
        <ele>187.0</ele>
        <time>2022-02-17T10:20:10Z</time>
      </trkpt>
      <trkpt lat="47.64676" lon="2.1554015">
        <ele>187.0</ele>
        <time>2022-02-17T10:20:11Z</time>
      </trkpt>
      <trkpt lat="47.646748" lon="2.1554093">
        <ele>187.0</ele>
        <time>2022-02-17T10:20:12Z</time>
      </trkpt>
      <trkpt lat="47.646732" lon="2.1554103">
        <ele>187.0</ele>
        <time>2022-02-17T10:20:13Z</time>
      </trkpt>
      <trkpt lat="47.64672" lon="2.155413">
        <ele>187.0</ele>
        <time>2022-02-17T10:20:14Z</time>
      </trkpt>
      <trkpt lat="47.646713" lon="2.1554163">
        <ele>187.0</ele>
        <time>2022-02-17T10:20:15Z</time>
      </trkpt>
      <trkpt lat="47.646706" lon="2.1554143">
        <ele>187.0</ele>
        <time>2022-02-17T10:20:16Z</time>
      </trkpt>
      <trkpt lat="47.646698" lon="2.1554155">
        <ele>187.0</ele>
        <time>2022-02-17T10:20:17Z</time>
      </trkpt>
      <trkpt lat="47.64669" lon="2.1554167">
        <ele>187.0</ele>
        <time>2022-02-17T10:20:18Z</time>
      </trkpt>
      <trkpt lat="47.646675" lon="2.1554196">
        <ele>187.0</ele>
        <time>2022-02-17T10:20:19Z</time>
      </trkpt>
      <trkpt lat="47.646664" lon="2.15542">
        <ele>187.0</ele>
        <time>2022-02-17T10:20:20Z</time>
      </trkpt>
      <trkpt lat="47.646652" lon="2.1554253">
        <ele>188.0</ele>
        <time>2022-02-17T10:20:21Z</time>
      </trkpt>
      <trkpt lat="47.646645" lon="2.15543">
        <ele>188.0</ele>
        <time>2022-02-17T10:20:22Z</time>
      </trkpt>
      <trkpt lat="47.646633" lon="2.1554346">
        <ele>188.0</ele>
        <time>2022-02-17T10:20:23Z</time>
      </trkpt>
      <trkpt lat="47.646618" lon="2.1554387">
        <ele>188.0</ele>
        <time>2022-02-17T10:20:24Z</time>
      </trkpt>
      <trkpt lat="47.646606" lon="2.1554425">
        <ele>187.0</ele>
        <time>2022-02-17T10:20:25Z</time>
      </trkpt>
      <trkpt lat="47.646595" lon="2.1554534">
        <ele>188.0</ele>
        <time>2022-02-17T10:20:26Z</time>
      </trkpt>
      <trkpt lat="47.646587" lon="2.1554615">
        <ele>188.0</ele>
        <time>2022-02-17T10:20:27Z</time>
      </trkpt>
      <trkpt lat="47.646576" lon="2.1554682">
        <ele>188.0</ele>
        <time>2022-02-17T10:20:28Z</time>
      </trkpt>
      <trkpt lat="47.646564" lon="2.1554763">
        <ele>188.0</ele>
        <time>2022-02-17T10:20:29Z</time>
      </trkpt>
      <trkpt lat="47.646553" lon="2.1554835">
        <ele>188.0</ele>
        <time>2022-02-17T10:20:30Z</time>
      </trkpt>
      <trkpt lat="47.646545" lon="2.1554875">
        <ele>188.0</ele>
        <time>2022-02-17T10:20:31Z</time>
      </trkpt>
      <trkpt lat="47.646534" lon="2.1554914">
        <ele>188.0</ele>
        <time>2022-02-17T10:20:32Z</time>
      </trkpt>
      <trkpt lat="47.646526" lon="2.155497">
        <ele>188.0</ele>
        <time>2022-02-17T10:20:33Z</time>
      </trkpt>
      <trkpt lat="47.646515" lon="2.1555007">
        <ele>188.0</ele>
        <time>2022-02-17T10:20:34Z</time>
      </trkpt>
      <trkpt lat="47.646507" lon="2.155504">
        <ele>188.0</ele>
        <time>2022-02-17T10:20:35Z</time>
      </trkpt>
      <trkpt lat="47.646496" lon="2.1555111">
        <ele>188.0</ele>
        <time>2022-02-17T10:20:36Z</time>
      </trkpt>
      <trkpt lat="47.64649" lon="2.155522">
        <ele>187.0</ele>
        <time>2022-02-17T10:20:37Z</time>
      </trkpt>
      <trkpt lat="47.646477" lon="2.1555293">
        <ele>187.0</ele>
        <time>2022-02-17T10:20:38Z</time>
      </trkpt>
      <trkpt lat="47.646477" lon="2.1555293">
        <ele>187.0</ele>
        <time>2022-02-17T10:20:39Z</time>
      </trkpt>
      <trkpt lat="47.646477" lon="2.1555293">
        <ele>187.0</ele>
        <time>2022-02-17T10:20:40Z</time>
      </trkpt>
      <trkpt lat="47.646446" lon="2.1555448">
        <ele>187.0</ele>
        <time>2022-02-17T10:20:41Z</time>
      </trkpt>
      <trkpt lat="47.646435" lon="2.1555502">
        <ele>187.0</ele>
        <time>2022-02-17T10:20:42Z</time>
      </trkpt>
      <trkpt lat="47.646423" lon="2.1555552">
        <ele>187.0</ele>
        <time>2022-02-17T10:20:43Z</time>
      </trkpt>
      <trkpt lat="47.646408" lon="2.1555617">
        <ele>187.0</ele>
        <time>2022-02-17T10:20:44Z</time>
      </trkpt>
      <trkpt lat="47.646397" lon="2.1555696">
        <ele>186.0</ele>
        <time>2022-02-17T10:20:45Z</time>
      </trkpt>
      <trkpt lat="47.646385" lon="2.1555746">
        <ele>186.0</ele>
        <time>2022-02-17T10:20:46Z</time>
      </trkpt>
      <trkpt lat="47.646374" lon="2.15558">
        <ele>186.0</ele>
        <time>2022-02-17T10:20:48Z</time>
      </trkpt>
      <trkpt lat="47.646362" lon="2.1555846">
        <ele>186.0</ele>
        <time>2022-02-17T10:20:49Z</time>
      </trkpt>
      <trkpt lat="47.646362" lon="2.1555846">
        <ele>186.0</ele>
        <time>2022-02-17T10:20:49Z</time>
      </trkpt>
      <trkpt lat="47.646343" lon="2.155593">
        <ele>186.0</ele>
        <time>2022-02-17T10:20:51Z</time>
      </trkpt>
      <trkpt lat="47.64633" lon="2.1555998">
        <ele>186.0</ele>
        <time>2022-02-17T10:20:52Z</time>
      </trkpt>
      <trkpt lat="47.64632" lon="2.1556034">
        <ele>186.0</ele>
        <time>2022-02-17T10:20:53Z</time>
      </trkpt>
      <trkpt lat="47.646313" lon="2.1556075">
        <ele>186.0</ele>
        <time>2022-02-17T10:20:54Z</time>
      </trkpt>
      <trkpt lat="47.6463" lon="2.1556146">
        <ele>186.0</ele>
        <time>2022-02-17T10:20:55Z</time>
      </trkpt>
      <trkpt lat="47.646294" lon="2.1556253">
        <ele>186.0</ele>
        <time>2022-02-17T10:20:56Z</time>
      </trkpt>
      <trkpt lat="47.646282" lon="2.1556337">
        <ele>187.0</ele>
        <time>2022-02-17T10:20:57Z</time>
      </trkpt>
      <trkpt lat="47.64628" lon="2.1556423">
        <ele>187.0</ele>
        <time>2022-02-17T10:20:58Z</time>
      </trkpt>
      <trkpt lat="47.64628" lon="2.1556423">
        <ele>187.0</ele>
        <time>2022-02-17T10:20:59Z</time>
      </trkpt>
      <trkpt lat="47.646255" lon="2.1556578">
        <ele>186.0</ele>
        <time>2022-02-17T10:21:00Z</time>
      </trkpt>
      <trkpt lat="47.646244" lon="2.1556654">
        <ele>186.0</ele>
        <time>2022-02-17T10:21:01Z</time>
      </trkpt>
      <trkpt lat="47.646233" lon="2.155674">
        <ele>186.0</ele>
        <time>2022-02-17T10:21:02Z</time>
      </trkpt>
      <trkpt lat="47.64622" lon="2.1556828">
        <ele>186.0</ele>
        <time>2022-02-17T10:21:03Z</time>
      </trkpt>
      <trkpt lat="47.646206" lon="2.155693">
        <ele>186.0</ele>
        <time>2022-02-17T10:21:04Z</time>
      </trkpt>
      <trkpt lat="47.646194" lon="2.1557078">
        <ele>186.0</ele>
        <time>2022-02-17T10:21:05Z</time>
      </trkpt>
      <trkpt lat="47.646183" lon="2.1557202">
        <ele>186.0</ele>
        <time>2022-02-17T10:21:06Z</time>
      </trkpt>
      <trkpt lat="47.64617" lon="2.15573">
        <ele>185.0</ele>
        <time>2022-02-17T10:21:07Z</time>
      </trkpt>
      <trkpt lat="47.646164" lon="2.1557407">
        <ele>185.0</ele>
        <time>2022-02-17T10:21:08Z</time>
      </trkpt>
      <trkpt lat="47.646152" lon="2.1557481">
        <ele>185.0</ele>
        <time>2022-02-17T10:21:09Z</time>
      </trkpt>
      <trkpt lat="47.646145" lon="2.1557596">
        <ele>185.0</ele>
        <time>2022-02-17T10:21:10Z</time>
      </trkpt>
      <trkpt lat="47.64613" lon="2.1557686">
        <ele>185.0</ele>
        <time>2022-02-17T10:21:11Z</time>
      </trkpt>
      <trkpt lat="47.646114" lon="2.1557817">
        <ele>185.0</ele>
        <time>2022-02-17T10:21:12Z</time>
      </trkpt>
      <trkpt lat="47.6461" lon="2.1557899">
        <ele>185.0</ele>
        <time>2022-02-17T10:21:13Z</time>
      </trkpt>
      <trkpt lat="47.64609" lon="2.1557977">
        <ele>185.0</ele>
        <time>2022-02-17T10:21:14Z</time>
      </trkpt>
      <trkpt lat="47.646084" lon="2.1558049">
        <ele>185.0</ele>
        <time>2022-02-17T10:21:15Z</time>
      </trkpt>
      <trkpt lat="47.646076" lon="2.155813">
        <ele>185.0</ele>
        <time>2022-02-17T10:21:16Z</time>
      </trkpt>
      <trkpt lat="47.646076" lon="2.155813">
        <ele>185.0</ele>
        <time>2022-02-17T10:21:17Z</time>
      </trkpt>
      <trkpt lat="47.646076" lon="2.155813">
        <ele>185.0</ele>
        <time>2022-02-17T10:21:18Z</time>
      </trkpt>
      <trkpt lat="47.64606" lon="2.1558447">
        <ele>184.0</ele>
        <time>2022-02-17T10:21:19Z</time>
      </trkpt>
      <trkpt lat="47.646053" lon="2.155863">
        <ele>184.0</ele>
        <time>2022-02-17T10:21:20Z</time>
      </trkpt>
      <trkpt lat="47.64604" lon="2.1558754">
        <ele>184.0</ele>
        <time>2022-02-17T10:21:21Z</time>
      </trkpt>
      <trkpt lat="47.646027" lon="2.1558888">
        <ele>185.0</ele>
        <time>2022-02-17T10:21:22Z</time>
      </trkpt>
      <trkpt lat="47.646015" lon="2.1558998">
        <ele>185.0</ele>
        <time>2022-02-17T10:21:23Z</time>
      </trkpt>
      <trkpt lat="47.646004" lon="2.1559162">
        <ele>184.0</ele>
        <time>2022-02-17T10:21:24Z</time>
      </trkpt>
      <trkpt lat="47.645996" lon="2.1559293">
        <ele>184.0</ele>
        <time>2022-02-17T10:21:25Z</time>
      </trkpt>
      <trkpt lat="47.64599" lon="2.1559422">
        <ele>184.0</ele>
        <time>2022-02-17T10:21:26Z</time>
      </trkpt>
      <trkpt lat="47.64598" lon="2.155952">
        <ele>183.0</ele>
        <time>2022-02-17T10:21:27Z</time>
      </trkpt>
      <trkpt lat="47.64597" lon="2.1559603">
        <ele>184.0</ele>
        <time>2022-02-17T10:21:28Z</time>
      </trkpt>
      <trkpt lat="47.645958" lon="2.1559694">
        <ele>183.0</ele>
        <time>2022-02-17T10:21:29Z</time>
      </trkpt>
      <trkpt lat="47.64595" lon="2.1559806">
        <ele>183.0</ele>
        <time>2022-02-17T10:21:30Z</time>
      </trkpt>
      <trkpt lat="47.64594" lon="2.1559906">
        <ele>183.0</ele>
        <time>2022-02-17T10:21:31Z</time>
      </trkpt>
      <trkpt lat="47.64593" lon="2.156001">
        <ele>183.0</ele>
        <time>2022-02-17T10:21:32Z</time>
      </trkpt>
      <trkpt lat="47.64592" lon="2.1560116">
        <ele>183.0</ele>
        <time>2022-02-17T10:21:33Z</time>
      </trkpt>
      <trkpt lat="47.64591" lon="2.15602">
        <ele>183.0</ele>
        <time>2022-02-17T10:21:34Z</time>
      </trkpt>
      <trkpt lat="47.645893" lon="2.1560311">
        <ele>184.0</ele>
        <time>2022-02-17T10:21:35Z</time>
      </trkpt>
      <trkpt lat="47.64588" lon="2.156035">
        <ele>184.0</ele>
        <time>2022-02-17T10:21:36Z</time>
      </trkpt>
      <trkpt lat="47.645874" lon="2.1560442">
        <ele>184.0</ele>
        <time>2022-02-17T10:21:37Z</time>
      </trkpt>
      <trkpt lat="47.645863" lon="2.1560528">
        <ele>183.0</ele>
        <time>2022-02-17T10:21:38Z</time>
      </trkpt>
      <trkpt lat="47.64585" lon="2.1560612">
        <ele>183.0</ele>
        <time>2022-02-17T10:21:39Z</time>
      </trkpt>
      <trkpt lat="47.645844" lon="2.156072">
        <ele>183.0</ele>
        <time>2022-02-17T10:21:40Z</time>
      </trkpt>
      <trkpt lat="47.645832" lon="2.1560848">
        <ele>183.0</ele>
        <time>2022-02-17T10:21:41Z</time>
      </trkpt>
      <trkpt lat="47.64582" lon="2.1560977">
        <ele>184.0</ele>
        <time>2022-02-17T10:21:42Z</time>
      </trkpt>
      <trkpt lat="47.645813" lon="2.1561012">
        <ele>184.0</ele>
        <time>2022-02-17T10:21:43Z</time>
      </trkpt>
      <trkpt lat="47.6458" lon="2.1561048">
        <ele>184.0</ele>
        <time>2022-02-17T10:21:44Z</time>
      </trkpt>
      <trkpt lat="47.645794" lon="2.1561148">
        <ele>184.0</ele>
        <time>2022-02-17T10:21:45Z</time>
      </trkpt>
      <trkpt lat="47.645782" lon="2.1561205">
        <ele>184.0</ele>
        <time>2022-02-17T10:21:46Z</time>
      </trkpt>
      <trkpt lat="47.64577" lon="2.1561277">
        <ele>184.0</ele>
        <time>2022-02-17T10:21:47Z</time>
      </trkpt>
      <trkpt lat="47.64576" lon="2.1561348">
        <ele>184.0</ele>
        <time>2022-02-17T10:21:48Z</time>
      </trkpt>
      <trkpt lat="47.64575" lon="2.1561456">
        <ele>184.0</ele>
        <time>2022-02-17T10:21:49Z</time>
      </trkpt>
      <trkpt lat="47.645737" lon="2.1561534">
        <ele>184.0</ele>
        <time>2022-02-17T10:21:50Z</time>
      </trkpt>
      <trkpt lat="47.64573" lon="2.156165">
        <ele>184.0</ele>
        <time>2022-02-17T10:21:51Z</time>
      </trkpt>
      <trkpt lat="47.64572" lon="2.1561782">
        <ele>184.0</ele>
        <time>2022-02-17T10:21:52Z</time>
      </trkpt>
      <trkpt lat="47.64571" lon="2.1561894">
        <ele>184.0</ele>
        <time>2022-02-17T10:21:53Z</time>
      </trkpt>
      <trkpt lat="47.645702" lon="2.1561987">
        <ele>183.0</ele>
        <time>2022-02-17T10:21:54Z</time>
      </trkpt>
      <trkpt lat="47.645702" lon="2.1561987">
        <ele>183.0</ele>
        <time>2022-02-17T10:21:55Z</time>
      </trkpt>
      <trkpt lat="47.64568" lon="2.1562123">
        <ele>184.0</ele>
        <time>2022-02-17T10:21:56Z</time>
      </trkpt>
      <trkpt lat="47.645668" lon="2.1562219">
        <ele>184.0</ele>
        <time>2022-02-17T10:21:57Z</time>
      </trkpt>
      <trkpt lat="47.645657" lon="2.156232">
        <ele>184.0</ele>
        <time>2022-02-17T10:21:58Z</time>
      </trkpt>
      <trkpt lat="47.64564" lon="2.1562407">
        <ele>184.0</ele>
        <time>2022-02-17T10:21:59Z</time>
      </trkpt>
      <trkpt lat="47.64563" lon="2.1562521">
        <ele>184.0</ele>
        <time>2022-02-17T10:22:00Z</time>
      </trkpt>
      <trkpt lat="47.64562" lon="2.1562636">
        <ele>184.0</ele>
        <time>2022-02-17T10:22:01Z</time>
      </trkpt>
      <trkpt lat="47.645607" lon="2.1562738">
        <ele>184.0</ele>
        <time>2022-02-17T10:22:02Z</time>
      </trkpt>
      <trkpt lat="47.645596" lon="2.1562862">
        <ele>184.0</ele>
        <time>2022-02-17T10:22:03Z</time>
      </trkpt>
      <trkpt lat="47.645584" lon="2.1562955">
        <ele>184.0</ele>
        <time>2022-02-17T10:22:04Z</time>
      </trkpt>
      <trkpt lat="47.645573" lon="2.1563058">
        <ele>184.0</ele>
        <time>2022-02-17T10:22:05Z</time>
      </trkpt>
      <trkpt lat="47.64556" lon="2.1563146">
        <ele>184.0</ele>
        <time>2022-02-17T10:22:06Z</time>
      </trkpt>
      <trkpt lat="47.645546" lon="2.1563246">
        <ele>184.0</ele>
        <time>2022-02-17T10:22:07Z</time>
      </trkpt>
      <trkpt lat="47.64554" lon="2.156331">
        <ele>184.0</ele>
        <time>2022-02-17T10:22:08Z</time>
      </trkpt>
      <trkpt lat="47.645527" lon="2.1563377">
        <ele>184.0</ele>
        <time>2022-02-17T10:22:09Z</time>
      </trkpt>
      <trkpt lat="47.645515" lon="2.1563442">
        <ele>184.0</ele>
        <time>2022-02-17T10:22:10Z</time>
      </trkpt>
      <trkpt lat="47.645508" lon="2.156354">
        <ele>184.0</ele>
        <time>2022-02-17T10:22:11Z</time>
      </trkpt>
      <trkpt lat="47.645496" lon="2.1563623">
        <ele>184.0</ele>
        <time>2022-02-17T10:22:12Z</time>
      </trkpt>
      <trkpt lat="47.64548" lon="2.1563694">
        <ele>184.0</ele>
        <time>2022-02-17T10:22:13Z</time>
      </trkpt>
      <trkpt lat="47.645466" lon="2.1563761">
        <ele>184.0</ele>
        <time>2022-02-17T10:22:14Z</time>
      </trkpt>
      <trkpt lat="47.645447" lon="2.15638">
        <ele>184.0</ele>
        <time>2022-02-17T10:22:15Z</time>
      </trkpt>
      <trkpt lat="47.645435" lon="2.1563842">
        <ele>184.0</ele>
        <time>2022-02-17T10:22:16Z</time>
      </trkpt>
      <trkpt lat="47.645424" lon="2.1563916">
        <ele>184.0</ele>
        <time>2022-02-17T10:22:17Z</time>
      </trkpt>
      <trkpt lat="47.645412" lon="2.1564004">
        <ele>184.0</ele>
        <time>2022-02-17T10:22:18Z</time>
      </trkpt>
      <trkpt lat="47.6454" lon="2.1564078">
        <ele>184.0</ele>
        <time>2022-02-17T10:22:19Z</time>
      </trkpt>
      <trkpt lat="47.64539" lon="2.156417">
        <ele>184.0</ele>
        <time>2022-02-17T10:22:20Z</time>
      </trkpt>
      <trkpt lat="47.64538" lon="2.1564221">
        <ele>184.0</ele>
        <time>2022-02-17T10:22:21Z</time>
      </trkpt>
      <trkpt lat="47.645374" lon="2.156427">
        <ele>184.0</ele>
        <time>2022-02-17T10:22:22Z</time>
      </trkpt>
      <trkpt lat="47.645367" lon="2.1564333">
        <ele>184.0</ele>
        <time>2022-02-17T10:22:23Z</time>
      </trkpt>
      <trkpt lat="47.64536" lon="2.1564395">
        <ele>184.0</ele>
        <time>2022-02-17T10:22:24Z</time>
      </trkpt>
      <trkpt lat="47.64535" lon="2.1564505">
        <ele>184.0</ele>
        <time>2022-02-17T10:22:25Z</time>
      </trkpt>
      <trkpt lat="47.64534" lon="2.1564574">
        <ele>184.0</ele>
        <time>2022-02-17T10:22:26Z</time>
      </trkpt>
      <trkpt lat="47.64533" lon="2.1564672">
        <ele>185.0</ele>
        <time>2022-02-17T10:22:27Z</time>
      </trkpt>
      <trkpt lat="47.64532" lon="2.156476">
        <ele>185.0</ele>
        <time>2022-02-17T10:22:28Z</time>
      </trkpt>
      <trkpt lat="47.645313" lon="2.1564822">
        <ele>185.0</ele>
        <time>2022-02-17T10:22:29Z</time>
      </trkpt>
      <trkpt lat="47.645306" lon="2.1564944">
        <ele>184.0</ele>
        <time>2022-02-17T10:22:30Z</time>
      </trkpt>
      <trkpt lat="47.645298" lon="2.1565056">
        <ele>184.0</ele>
        <time>2022-02-17T10:22:31Z</time>
      </trkpt>
      <trkpt lat="47.645287" lon="2.1565144">
        <ele>184.0</ele>
        <time>2022-02-17T10:22:32Z</time>
      </trkpt>
      <trkpt lat="47.645275" lon="2.1565177">
        <ele>185.0</ele>
        <time>2022-02-17T10:22:33Z</time>
      </trkpt>
      <trkpt lat="47.645267" lon="2.156521">
        <ele>185.0</ele>
        <time>2022-02-17T10:22:34Z</time>
      </trkpt>
      <trkpt lat="47.645256" lon="2.1565247">
        <ele>185.0</ele>
        <time>2022-02-17T10:22:35Z</time>
      </trkpt>
      <trkpt lat="47.645245" lon="2.1565318">
        <ele>184.0</ele>
        <time>2022-02-17T10:22:36Z</time>
      </trkpt>
      <trkpt lat="47.645237" lon="2.1565356">
        <ele>184.0</ele>
        <time>2022-02-17T10:22:37Z</time>
      </trkpt>
      <trkpt lat="47.64523" lon="2.1565366">
        <ele>184.0</ele>
        <time>2022-02-17T10:22:38Z</time>
      </trkpt>
      <trkpt lat="47.64522" lon="2.1565409">
        <ele>183.0</ele>
        <time>2022-02-17T10:22:39Z</time>
      </trkpt>
      <trkpt lat="47.645214" lon="2.1565492">
        <ele>183.0</ele>
        <time>2022-02-17T10:22:40Z</time>
      </trkpt>
      <trkpt lat="47.645206" lon="2.1565595">
        <ele>183.0</ele>
        <time>2022-02-17T10:22:41Z</time>
      </trkpt>
      <trkpt lat="47.645195" lon="2.1565683">
        <ele>183.0</ele>
        <time>2022-02-17T10:22:42Z</time>
      </trkpt>
      <trkpt lat="47.645184" lon="2.156583">
        <ele>183.0</ele>
        <time>2022-02-17T10:22:43Z</time>
      </trkpt>
      <trkpt lat="47.645176" lon="2.1565924">
        <ele>183.0</ele>
        <time>2022-02-17T10:22:44Z</time>
      </trkpt>
      <trkpt lat="47.64517" lon="2.156597">
        <ele>183.0</ele>
        <time>2022-02-17T10:22:45Z</time>
      </trkpt>
      <trkpt lat="47.64516" lon="2.1566076">
        <ele>183.0</ele>
        <time>2022-02-17T10:22:46Z</time>
      </trkpt>
      <trkpt lat="47.645153" lon="2.1566174">
        <ele>183.0</ele>
        <time>2022-02-17T10:22:47Z</time>
      </trkpt>
      <trkpt lat="47.645145" lon="2.1566308">
        <ele>183.0</ele>
        <time>2022-02-17T10:22:48Z</time>
      </trkpt>
      <trkpt lat="47.645134" lon="2.156639">
        <ele>183.0</ele>
        <time>2022-02-17T10:22:49Z</time>
      </trkpt>
      <trkpt lat="47.645123" lon="2.156652">
        <ele>183.0</ele>
        <time>2022-02-17T10:22:50Z</time>
      </trkpt>
      <trkpt lat="47.64511" lon="2.156663">
        <ele>183.0</ele>
        <time>2022-02-17T10:22:51Z</time>
      </trkpt>
      <trkpt lat="47.645096" lon="2.156677">
        <ele>183.0</ele>
        <time>2022-02-17T10:22:52Z</time>
      </trkpt>
      <trkpt lat="47.64509" lon="2.1566901">
        <ele>183.0</ele>
        <time>2022-02-17T10:22:53Z</time>
      </trkpt>
      <trkpt lat="47.645077" lon="2.1567018">
        <ele>182.0</ele>
        <time>2022-02-17T10:22:54Z</time>
      </trkpt>
      <trkpt lat="47.64507" lon="2.1567068">
        <ele>182.0</ele>
        <time>2022-02-17T10:22:55Z</time>
      </trkpt>
      <trkpt lat="47.645058" lon="2.1567163">
        <ele>182.0</ele>
        <time>2022-02-17T10:22:56Z</time>
      </trkpt>
      <trkpt lat="47.64505" lon="2.1567285">
        <ele>182.0</ele>
        <time>2022-02-17T10:22:57Z</time>
      </trkpt>
      <trkpt lat="47.645046" lon="2.156744">
        <ele>182.0</ele>
        <time>2022-02-17T10:22:58Z</time>
      </trkpt>
      <trkpt lat="47.64504" lon="2.156759">
        <ele>181.0</ele>
        <time>2022-02-17T10:22:59Z</time>
      </trkpt>
      <trkpt lat="47.645027" lon="2.156773">
        <ele>181.0</ele>
        <time>2022-02-17T10:23:00Z</time>
      </trkpt>
      <trkpt lat="47.64502" lon="2.1567876">
        <ele>181.0</ele>
        <time>2022-02-17T10:23:01Z</time>
      </trkpt>
      <trkpt lat="47.64501" lon="2.1567998">
        <ele>181.0</ele>
        <time>2022-02-17T10:23:02Z</time>
      </trkpt>
      <trkpt lat="47.645004" lon="2.1568112">
        <ele>181.0</ele>
        <time>2022-02-17T10:23:03Z</time>
      </trkpt>
      <trkpt lat="47.644993" lon="2.1568284">
        <ele>182.0</ele>
        <time>2022-02-17T10:23:04Z</time>
      </trkpt>
      <trkpt lat="47.64499" lon="2.1568441">
        <ele>182.0</ele>
        <time>2022-02-17T10:23:05Z</time>
      </trkpt>
      <trkpt lat="47.644985" lon="2.1568623">
        <ele>182.0</ele>
        <time>2022-02-17T10:23:06Z</time>
      </trkpt>
      <trkpt lat="47.644978" lon="2.1568787">
        <ele>182.0</ele>
        <time>2022-02-17T10:23:07Z</time>
      </trkpt>
      <trkpt lat="47.64497" lon="2.1568933">
        <ele>181.0</ele>
        <time>2022-02-17T10:23:08Z</time>
      </trkpt>
      <trkpt lat="47.644962" lon="2.15691">
        <ele>182.0</ele>
        <time>2022-02-17T10:23:09Z</time>
      </trkpt>
      <trkpt lat="47.644955" lon="2.156922">
        <ele>181.0</ele>
        <time>2022-02-17T10:23:10Z</time>
      </trkpt>
      <trkpt lat="47.644947" lon="2.1569328">
        <ele>181.0</ele>
        <time>2022-02-17T10:23:11Z</time>
      </trkpt>
      <trkpt lat="47.64494" lon="2.1569471">
        <ele>181.0</ele>
        <time>2022-02-17T10:23:12Z</time>
      </trkpt>
      <trkpt lat="47.64493" lon="2.1569595">
        <ele>181.0</ele>
        <time>2022-02-17T10:23:13Z</time>
      </trkpt>
      <trkpt lat="47.644924" lon="2.1569774">
        <ele>181.0</ele>
        <time>2022-02-17T10:23:14Z</time>
      </trkpt>
      <trkpt lat="47.644917" lon="2.1569934">
        <ele>182.0</ele>
        <time>2022-02-17T10:23:15Z</time>
      </trkpt>
      <trkpt lat="47.644913" lon="2.1570084">
        <ele>182.0</ele>
        <time>2022-02-17T10:23:16Z</time>
      </trkpt>
      <trkpt lat="47.644905" lon="2.157023">
        <ele>182.0</ele>
        <time>2022-02-17T10:23:17Z</time>
      </trkpt>
      <trkpt lat="47.6449" lon="2.157036">
        <ele>182.0</ele>
        <time>2022-02-17T10:23:18Z</time>
      </trkpt>
      <trkpt lat="47.644894" lon="2.157048">
        <ele>182.0</ele>
        <time>2022-02-17T10:23:19Z</time>
      </trkpt>
      <trkpt lat="47.64489" lon="2.1570644">
        <ele>182.0</ele>
        <time>2022-02-17T10:23:20Z</time>
      </trkpt>
      <trkpt lat="47.644882" lon="2.1570804">
        <ele>182.0</ele>
        <time>2022-02-17T10:23:21Z</time>
      </trkpt>
      <trkpt lat="47.644875" lon="2.157098">
        <ele>182.0</ele>
        <time>2022-02-17T10:23:22Z</time>
      </trkpt>
      <trkpt lat="47.644867" lon="2.1571121">
        <ele>182.0</ele>
        <time>2022-02-17T10:23:23Z</time>
      </trkpt>
      <trkpt lat="47.64486" lon="2.157126">
        <ele>182.0</ele>
        <time>2022-02-17T10:23:24Z</time>
      </trkpt>
      <trkpt lat="47.644855" lon="2.1571417">
        <ele>183.0</ele>
        <time>2022-02-17T10:23:25Z</time>
      </trkpt>
      <trkpt lat="47.64485" lon="2.1571536">
        <ele>183.0</ele>
        <time>2022-02-17T10:23:26Z</time>
      </trkpt>
      <trkpt lat="47.644844" lon="2.1571677">
        <ele>183.0</ele>
        <time>2022-02-17T10:23:27Z</time>
      </trkpt>
      <trkpt lat="47.644836" lon="2.157181">
        <ele>182.0</ele>
        <time>2022-02-17T10:23:28Z</time>
      </trkpt>
      <trkpt lat="47.644825" lon="2.1571944">
        <ele>183.0</ele>
        <time>2022-02-17T10:23:29Z</time>
      </trkpt>
      <trkpt lat="47.644825" lon="2.1572182">
        <ele>183.0</ele>
        <time>2022-02-17T10:23:30Z</time>
      </trkpt>
      <trkpt lat="47.64482" lon="2.15724">
        <ele>183.0</ele>
        <time>2022-02-17T10:23:31Z</time>
      </trkpt>
      <trkpt lat="47.644817" lon="2.1572576">
        <ele>183.0</ele>
        <time>2022-02-17T10:23:32Z</time>
      </trkpt>
      <trkpt lat="47.644817" lon="2.1572738">
        <ele>183.0</ele>
        <time>2022-02-17T10:23:33Z</time>
      </trkpt>
      <trkpt lat="47.644817" lon="2.157295">
        <ele>183.0</ele>
        <time>2022-02-17T10:23:34Z</time>
      </trkpt>
      <trkpt lat="47.644814" lon="2.1573088">
        <ele>182.0</ele>
        <time>2022-02-17T10:23:35Z</time>
      </trkpt>
      <trkpt lat="47.644814" lon="2.1573267">
        <ele>182.0</ele>
        <time>2022-02-17T10:23:36Z</time>
      </trkpt>
      <trkpt lat="47.644814" lon="2.1573458">
        <ele>181.0</ele>
        <time>2022-02-17T10:23:37Z</time>
      </trkpt>
      <trkpt lat="47.64481" lon="2.1573644">
        <ele>181.0</ele>
        <time>2022-02-17T10:23:38Z</time>
      </trkpt>
      <trkpt lat="47.64481" lon="2.157387">
        <ele>180.0</ele>
        <time>2022-02-17T10:23:39Z</time>
      </trkpt>
      <trkpt lat="47.64481" lon="2.1574087">
        <ele>180.0</ele>
        <time>2022-02-17T10:23:40Z</time>
      </trkpt>
      <trkpt lat="47.64481" lon="2.1574266">
        <ele>179.0</ele>
        <time>2022-02-17T10:23:41Z</time>
      </trkpt>
      <trkpt lat="47.64481" lon="2.1574442">
        <ele>179.0</ele>
        <time>2022-02-17T10:23:42Z</time>
      </trkpt>
      <trkpt lat="47.64481" lon="2.1574638">
        <ele>179.0</ele>
        <time>2022-02-17T10:23:43Z</time>
      </trkpt>
      <trkpt lat="47.644806" lon="2.1574826">
        <ele>179.0</ele>
        <time>2022-02-17T10:23:44Z</time>
      </trkpt>
      <trkpt lat="47.644806" lon="2.1575031">
        <ele>180.0</ele>
        <time>2022-02-17T10:23:45Z</time>
      </trkpt>
      <trkpt lat="47.6448" lon="2.1575212">
        <ele>179.0</ele>
        <time>2022-02-17T10:23:46Z</time>
      </trkpt>
      <trkpt lat="47.644794" lon="2.1575384">
        <ele>179.0</ele>
        <time>2022-02-17T10:23:47Z</time>
      </trkpt>
      <trkpt lat="47.644794" lon="2.157559">
        <ele>179.0</ele>
        <time>2022-02-17T10:23:48Z</time>
      </trkpt>
      <trkpt lat="47.644787" lon="2.1575775">
        <ele>180.0</ele>
        <time>2022-02-17T10:23:49Z</time>
      </trkpt>
      <trkpt lat="47.644783" lon="2.1575947">
        <ele>181.0</ele>
        <time>2022-02-17T10:23:50Z</time>
      </trkpt>
      <trkpt lat="47.644775" lon="2.157612">
        <ele>180.0</ele>
        <time>2022-02-17T10:23:51Z</time>
      </trkpt>
      <trkpt lat="47.644775" lon="2.1576285">
        <ele>180.0</ele>
        <time>2022-02-17T10:23:52Z</time>
      </trkpt>
      <trkpt lat="47.644768" lon="2.157641">
        <ele>180.0</ele>
        <time>2022-02-17T10:23:53Z</time>
      </trkpt>
      <trkpt lat="47.64476" lon="2.157652">
        <ele>180.0</ele>
        <time>2022-02-17T10:23:54Z</time>
      </trkpt>
      <trkpt lat="47.644756" lon="2.157668">
        <ele>180.0</ele>
        <time>2022-02-17T10:23:55Z</time>
      </trkpt>
      <trkpt lat="47.644756" lon="2.157668">
        <ele>180.0</ele>
        <time>2022-02-17T10:23:56Z</time>
      </trkpt>
      <trkpt lat="47.644756" lon="2.157668">
        <ele>180.0</ele>
        <time>2022-02-17T10:23:57Z</time>
      </trkpt>
      <trkpt lat="47.64475" lon="2.1576927">
        <ele>181.0</ele>
        <time>2022-02-17T10:23:58Z</time>
      </trkpt>
      <trkpt lat="47.644745" lon="2.1577063">
        <ele>181.0</ele>
        <time>2022-02-17T10:23:59Z</time>
      </trkpt>
      <trkpt lat="47.64474" lon="2.1577132">
        <ele>181.0</ele>
        <time>2022-02-17T10:24:00Z</time>
      </trkpt>
      <trkpt lat="47.644745" lon="2.1577134">
        <ele>181.0</ele>
        <time>2022-02-17T10:24:01Z</time>
      </trkpt>
      <trkpt lat="47.644745" lon="2.1577134">
        <ele>181.0</ele>
        <time>2022-02-17T10:24:02Z</time>
      </trkpt>
      <trkpt lat="47.644745" lon="2.1577134">
        <ele>181.0</ele>
        <time>2022-02-17T10:24:03Z</time>
      </trkpt>
      <trkpt lat="47.644745" lon="2.1577134">
        <ele>181.0</ele>
        <time>2022-02-17T10:24:03Z</time>
      </trkpt>
      <trkpt lat="47.644745" lon="2.1577134">
        <ele>181.0</ele>
        <time>2022-02-17T10:24:03Z</time>
      </trkpt>
      <trkpt lat="47.64472" lon="2.1578412">
        <ele>181.0</ele>
        <time>2022-02-17T10:24:11Z</time>
      </trkpt>
      <trkpt lat="47.644714" lon="2.1578653">
        <ele>182.0</ele>
        <time>2022-02-17T10:24:12Z</time>
      </trkpt>
      <trkpt lat="47.64471" lon="2.1578827">
        <ele>181.0</ele>
        <time>2022-02-17T10:24:13Z</time>
      </trkpt>
      <trkpt lat="47.64471" lon="2.1579072">
        <ele>181.0</ele>
        <time>2022-02-17T10:24:14Z</time>
      </trkpt>
      <trkpt lat="47.64471" lon="2.157921">
        <ele>181.0</ele>
        <time>2022-02-17T10:24:15Z</time>
      </trkpt>
      <trkpt lat="47.64471" lon="2.1579351">
        <ele>181.0</ele>
        <time>2022-02-17T10:24:16Z</time>
      </trkpt>
      <trkpt lat="47.644707" lon="2.1579487">
        <ele>180.0</ele>
        <time>2022-02-17T10:24:17Z</time>
      </trkpt>
      <trkpt lat="47.6447" lon="2.1579669">
        <ele>180.0</ele>
        <time>2022-02-17T10:24:18Z</time>
      </trkpt>
      <trkpt lat="47.644695" lon="2.1579833">
        <ele>179.0</ele>
        <time>2022-02-17T10:24:19Z</time>
      </trkpt>
      <trkpt lat="47.644688" lon="2.1579986">
        <ele>179.0</ele>
        <time>2022-02-17T10:24:20Z</time>
      </trkpt>
      <trkpt lat="47.644688" lon="2.1580153">
        <ele>179.0</ele>
        <time>2022-02-17T10:24:21Z</time>
      </trkpt>
      <trkpt lat="47.644684" lon="2.1580298">
        <ele>178.0</ele>
        <time>2022-02-17T10:24:22Z</time>
      </trkpt>
      <trkpt lat="47.64468" lon="2.158047">
        <ele>178.0</ele>
        <time>2022-02-17T10:24:23Z</time>
      </trkpt>
      <trkpt lat="47.644676" lon="2.1580644">
        <ele>178.0</ele>
        <time>2022-02-17T10:24:24Z</time>
      </trkpt>
      <trkpt lat="47.644672" lon="2.1580815">
        <ele>178.0</ele>
        <time>2022-02-17T10:24:25Z</time>
      </trkpt>
      <trkpt lat="47.644672" lon="2.1580985">
        <ele>178.0</ele>
        <time>2022-02-17T10:24:26Z</time>
      </trkpt>
      <trkpt lat="47.64467" lon="2.1581125">
        <ele>177.0</ele>
        <time>2022-02-17T10:24:27Z</time>
      </trkpt>
      <trkpt lat="47.644665" lon="2.1581278">
        <ele>177.0</ele>
        <time>2022-02-17T10:24:28Z</time>
      </trkpt>
      <trkpt lat="47.64466" lon="2.1581483">
        <ele>177.0</ele>
        <time>2022-02-17T10:24:29Z</time>
      </trkpt>
      <trkpt lat="47.644653" lon="2.1581674">
        <ele>177.0</ele>
        <time>2022-02-17T10:24:30Z</time>
      </trkpt>
      <trkpt lat="47.64465" lon="2.158181">
        <ele>177.0</ele>
        <time>2022-02-17T10:24:31Z</time>
      </trkpt>
      <trkpt lat="47.644646" lon="2.1581938">
        <ele>176.0</ele>
        <time>2022-02-17T10:24:32Z</time>
      </trkpt>
      <trkpt lat="47.64464" lon="2.158207">
        <ele>176.0</ele>
        <time>2022-02-17T10:24:33Z</time>
      </trkpt>
      <trkpt lat="47.644638" lon="2.1582217">
        <ele>175.0</ele>
        <time>2022-02-17T10:24:34Z</time>
      </trkpt>
      <trkpt lat="47.644638" lon="2.1582217">
        <ele>175.0</ele>
        <time>2022-02-17T10:24:35Z</time>
      </trkpt>
      <trkpt lat="47.644638" lon="2.1582217">
        <ele>175.0</ele>
        <time>2022-02-17T10:24:36Z</time>
      </trkpt>
      <trkpt lat="47.644634" lon="2.1582582">
        <ele>175.0</ele>
        <time>2022-02-17T10:24:37Z</time>
      </trkpt>
      <trkpt lat="47.64463" lon="2.158271">
        <ele>174.0</ele>
        <time>2022-02-17T10:24:38Z</time>
      </trkpt>
      <trkpt lat="47.644627" lon="2.158282">
        <ele>173.0</ele>
        <time>2022-02-17T10:24:39Z</time>
      </trkpt>
      <trkpt lat="47.644627" lon="2.1582963">
        <ele>173.0</ele>
        <time>2022-02-17T10:24:40Z</time>
      </trkpt>
      <trkpt lat="47.644627" lon="2.1582963">
        <ele>173.0</ele>
        <time>2022-02-17T10:24:41Z</time>
      </trkpt>
      <trkpt lat="47.644627" lon="2.1582963">
        <ele>173.0</ele>
        <time>2022-02-17T10:24:42Z</time>
      </trkpt>
      <trkpt lat="47.64462" lon="2.1583333">
        <ele>172.0</ele>
        <time>2022-02-17T10:24:43Z</time>
      </trkpt>
      <trkpt lat="47.64462" lon="2.1583467">
        <ele>172.0</ele>
        <time>2022-02-17T10:24:44Z</time>
      </trkpt>
      <trkpt lat="47.644615" lon="2.1583617">
        <ele>172.0</ele>
        <time>2022-02-17T10:24:45Z</time>
      </trkpt>
      <trkpt lat="47.64461" lon="2.1583798">
        <ele>172.0</ele>
        <time>2022-02-17T10:24:46Z</time>
      </trkpt>
      <trkpt lat="47.64461" lon="2.1583798">
        <ele>172.0</ele>
        <time>2022-02-17T10:24:47Z</time>
      </trkpt>
      <trkpt lat="47.64461" lon="2.1583798">
        <ele>172.0</ele>
        <time>2022-02-17T10:24:48Z</time>
      </trkpt>
      <trkpt lat="47.6446" lon="2.158424">
        <ele>172.0</ele>
        <time>2022-02-17T10:24:49Z</time>
      </trkpt>
      <trkpt lat="47.644592" lon="2.1584468">
        <ele>171.0</ele>
        <time>2022-02-17T10:24:50Z</time>
      </trkpt>
      <trkpt lat="47.644592" lon="2.1584635">
        <ele>172.0</ele>
        <time>2022-02-17T10:24:51Z</time>
      </trkpt>
      <trkpt lat="47.644592" lon="2.1584835">
        <ele>171.0</ele>
        <time>2022-02-17T10:24:52Z</time>
      </trkpt>
      <trkpt lat="47.644592" lon="2.1584835">
        <ele>171.0</ele>
        <time>2022-02-17T10:24:53Z</time>
      </trkpt>
      <trkpt lat="47.644592" lon="2.1584835">
        <ele>171.0</ele>
        <time>2022-02-17T10:24:54Z</time>
      </trkpt>
      <trkpt lat="47.64458" lon="2.1585264">
        <ele>171.0</ele>
        <time>2022-02-17T10:24:55Z</time>
      </trkpt>
      <trkpt lat="47.644573" lon="2.158546">
        <ele>171.0</ele>
        <time>2022-02-17T10:24:56Z</time>
      </trkpt>
      <trkpt lat="47.64457" lon="2.1585643">
        <ele>171.0</ele>
        <time>2022-02-17T10:24:57Z</time>
      </trkpt>
      <trkpt lat="47.64456" lon="2.1585886">
        <ele>171.0</ele>
        <time>2022-02-17T10:24:58Z</time>
      </trkpt>
      <trkpt lat="47.64455" lon="2.1586137">
        <ele>171.0</ele>
        <time>2022-02-17T10:24:59Z</time>
      </trkpt>
      <trkpt lat="47.644543" lon="2.158639">
        <ele>170.0</ele>
        <time>2022-02-17T10:25:00Z</time>
      </trkpt>
      <trkpt lat="47.644535" lon="2.1586576">
        <ele>170.0</ele>
        <time>2022-02-17T10:25:01Z</time>
      </trkpt>
      <trkpt lat="47.644527" lon="2.1586726">
        <ele>169.0</ele>
        <time>2022-02-17T10:25:02Z</time>
      </trkpt>
      <trkpt lat="47.644527" lon="2.1586726">
        <ele>169.0</ele>
        <time>2022-02-17T10:25:03Z</time>
      </trkpt>
      <trkpt lat="47.644527" lon="2.1586726">
        <ele>169.0</ele>
        <time>2022-02-17T10:25:04Z</time>
      </trkpt>
      <trkpt lat="47.64451" lon="2.158722">
        <ele>169.0</ele>
        <time>2022-02-17T10:25:05Z</time>
      </trkpt>
      <trkpt lat="47.6445" lon="2.1587374">
        <ele>169.0</ele>
        <time>2022-02-17T10:25:06Z</time>
      </trkpt>
      <trkpt lat="47.644493" lon="2.1587536">
        <ele>169.0</ele>
        <time>2022-02-17T10:25:07Z</time>
      </trkpt>
      <trkpt lat="47.64449" lon="2.1587663">
        <ele>169.0</ele>
        <time>2022-02-17T10:25:08Z</time>
      </trkpt>
      <trkpt lat="47.64449" lon="2.1587663">
        <ele>169.0</ele>
        <time>2022-02-17T10:25:09Z</time>
      </trkpt>
      <trkpt lat="47.64449" lon="2.1587663">
        <ele>169.0</ele>
        <time>2022-02-17T10:25:10Z</time>
      </trkpt>
      <trkpt lat="47.644474" lon="2.1588042">
        <ele>169.0</ele>
        <time>2022-02-17T10:25:11Z</time>
      </trkpt>
      <trkpt lat="47.644463" lon="2.1588197">
        <ele>168.0</ele>
        <time>2022-02-17T10:25:12Z</time>
      </trkpt>
      <trkpt lat="47.64446" lon="2.1588318">
        <ele>168.0</ele>
        <time>2022-02-17T10:25:13Z</time>
      </trkpt>
      <trkpt lat="47.64445" lon="2.1588438">
        <ele>168.0</ele>
        <time>2022-02-17T10:25:14Z</time>
      </trkpt>
      <trkpt lat="47.644444" lon="2.158858">
        <ele>168.0</ele>
        <time>2022-02-17T10:25:15Z</time>
      </trkpt>
      <trkpt lat="47.644432" lon="2.158873">
        <ele>168.0</ele>
        <time>2022-02-17T10:25:16Z</time>
      </trkpt>
      <trkpt lat="47.64443" lon="2.1588914">
        <ele>168.0</ele>
        <time>2022-02-17T10:25:17Z</time>
      </trkpt>
      <trkpt lat="47.64442" lon="2.1589108">
        <ele>168.0</ele>
        <time>2022-02-17T10:25:18Z</time>
      </trkpt>
      <trkpt lat="47.644413" lon="2.158927">
        <ele>168.0</ele>
        <time>2022-02-17T10:25:19Z</time>
      </trkpt>
      <trkpt lat="47.64441" lon="2.1589437">
        <ele>168.0</ele>
        <time>2022-02-17T10:25:20Z</time>
      </trkpt>
      <trkpt lat="47.64441" lon="2.1589437">
        <ele>168.0</ele>
        <time>2022-02-17T10:25:21Z</time>
      </trkpt>
      <trkpt lat="47.6444" lon="2.158972">
        <ele>168.0</ele>
        <time>2022-02-17T10:25:22Z</time>
      </trkpt>
      <trkpt lat="47.644398" lon="2.15898">
        <ele>168.0</ele>
        <time>2022-02-17T10:25:23Z</time>
      </trkpt>
      <trkpt lat="47.644394" lon="2.1589918">
        <ele>169.0</ele>
        <time>2022-02-17T10:25:24Z</time>
      </trkpt>
      <trkpt lat="47.644386" lon="2.1590028">
        <ele>168.0</ele>
        <time>2022-02-17T10:25:25Z</time>
      </trkpt>
      <trkpt lat="47.644386" lon="2.1590028">
        <ele>168.0</ele>
        <time>2022-02-17T10:25:26Z</time>
      </trkpt>
      <trkpt lat="47.644386" lon="2.1590028">
        <ele>168.0</ele>
        <time>2022-02-17T10:25:27Z</time>
      </trkpt>
      <trkpt lat="47.644363" lon="2.159033">
        <ele>168.0</ele>
        <time>2022-02-17T10:25:28Z</time>
      </trkpt>
      <trkpt lat="47.644356" lon="2.159049">
        <ele>168.0</ele>
        <time>2022-02-17T10:25:29Z</time>
      </trkpt>
      <trkpt lat="47.64435" lon="2.1590605">
        <ele>168.0</ele>
        <time>2022-02-17T10:25:30Z</time>
      </trkpt>
      <trkpt lat="47.644337" lon="2.1590748">
        <ele>168.0</ele>
        <time>2022-02-17T10:25:31Z</time>
      </trkpt>
      <trkpt lat="47.64433" lon="2.1590917">
        <ele>168.0</ele>
        <time>2022-02-17T10:25:32Z</time>
      </trkpt>
      <trkpt lat="47.644318" lon="2.1591067">
        <ele>168.0</ele>
        <time>2022-02-17T10:25:33Z</time>
      </trkpt>
      <trkpt lat="47.644306" lon="2.1591191">
        <ele>168.0</ele>
        <time>2022-02-17T10:25:34Z</time>
      </trkpt>
      <trkpt lat="47.6443" lon="2.1591275">
        <ele>168.0</ele>
        <time>2022-02-17T10:25:35Z</time>
      </trkpt>
      <trkpt lat="47.644287" lon="2.1591363">
        <ele>168.0</ele>
        <time>2022-02-17T10:25:36Z</time>
      </trkpt>
      <trkpt lat="47.644276" lon="2.159145">
        <ele>168.0</ele>
        <time>2022-02-17T10:25:37Z</time>
      </trkpt>
      <trkpt lat="47.644264" lon="2.1591587">
        <ele>168.0</ele>
        <time>2022-02-17T10:25:38Z</time>
      </trkpt>
      <trkpt lat="47.644257" lon="2.159167">
        <ele>169.0</ele>
        <time>2022-02-17T10:25:39Z</time>
      </trkpt>
      <trkpt lat="47.64425" lon="2.1591766">
        <ele>169.0</ele>
        <time>2022-02-17T10:25:40Z</time>
      </trkpt>
      <trkpt lat="47.64424" lon="2.159184">
        <ele>169.0</ele>
        <time>2022-02-17T10:25:41Z</time>
      </trkpt>
      <trkpt lat="47.644226" lon="2.159195">
        <ele>170.0</ele>
        <time>2022-02-17T10:25:42Z</time>
      </trkpt>
      <trkpt lat="47.644215" lon="2.159206">
        <ele>170.0</ele>
        <time>2022-02-17T10:25:43Z</time>
      </trkpt>
      <trkpt lat="47.6442" lon="2.1592157">
        <ele>171.0</ele>
        <time>2022-02-17T10:25:44Z</time>
      </trkpt>
      <trkpt lat="47.644184" lon="2.159226">
        <ele>171.0</ele>
        <time>2022-02-17T10:25:45Z</time>
      </trkpt>
      <trkpt lat="47.644176" lon="2.1592333">
        <ele>171.0</ele>
        <time>2022-02-17T10:25:46Z</time>
      </trkpt>
      <trkpt lat="47.64416" lon="2.159239">
        <ele>172.0</ele>
        <time>2022-02-17T10:25:47Z</time>
      </trkpt>
      <trkpt lat="47.644154" lon="2.1592476">
        <ele>172.0</ele>
        <time>2022-02-17T10:25:48Z</time>
      </trkpt>
      <trkpt lat="47.64414" lon="2.1592603">
        <ele>171.0</ele>
        <time>2022-02-17T10:25:49Z</time>
      </trkpt>
      <trkpt lat="47.644127" lon="2.1592698">
        <ele>171.0</ele>
        <time>2022-02-17T10:25:50Z</time>
      </trkpt>
      <trkpt lat="47.64411" lon="2.159283">
        <ele>172.0</ele>
        <time>2022-02-17T10:25:51Z</time>
      </trkpt>
      <trkpt lat="47.6441" lon="2.1592948">
        <ele>172.0</ele>
        <time>2022-02-17T10:25:52Z</time>
      </trkpt>
      <trkpt lat="47.644085" lon="2.1593068">
        <ele>172.0</ele>
        <time>2022-02-17T10:25:53Z</time>
      </trkpt>
      <trkpt lat="47.644073" lon="2.1593156">
        <ele>173.0</ele>
        <time>2022-02-17T10:25:54Z</time>
      </trkpt>
      <trkpt lat="47.644062" lon="2.1593268">
        <ele>173.0</ele>
        <time>2022-02-17T10:25:55Z</time>
      </trkpt>
      <trkpt lat="47.64405" lon="2.1593373">
        <ele>173.0</ele>
        <time>2022-02-17T10:25:56Z</time>
      </trkpt>
      <trkpt lat="47.64404" lon="2.1593504">
        <ele>173.0</ele>
        <time>2022-02-17T10:25:57Z</time>
      </trkpt>
      <trkpt lat="47.644028" lon="2.1593637">
        <ele>173.0</ele>
        <time>2022-02-17T10:25:58Z</time>
      </trkpt>
      <trkpt lat="47.644012" lon="2.1593726">
        <ele>173.0</ele>
        <time>2022-02-17T10:25:59Z</time>
      </trkpt>
      <trkpt lat="47.644" lon="2.159384">
        <ele>174.0</ele>
        <time>2022-02-17T10:26:00Z</time>
      </trkpt>
      <trkpt lat="47.643986" lon="2.1593926">
        <ele>174.0</ele>
        <time>2022-02-17T10:26:01Z</time>
      </trkpt>
      <trkpt lat="47.643974" lon="2.159399">
        <ele>174.0</ele>
        <time>2022-02-17T10:26:02Z</time>
      </trkpt>
      <trkpt lat="47.643974" lon="2.159399">
        <ele>174.0</ele>
        <time>2022-02-17T10:26:03Z</time>
      </trkpt>
      <trkpt lat="47.643974" lon="2.159399">
        <ele>174.0</ele>
        <time>2022-02-17T10:26:04Z</time>
      </trkpt>
      <trkpt lat="47.643974" lon="2.159399">
        <ele>174.0</ele>
        <time>2022-02-17T10:26:05Z</time>
      </trkpt>
      <trkpt lat="47.64395" lon="2.1594217">
        <ele>174.0</ele>
        <time>2022-02-17T10:26:06Z</time>
      </trkpt>
      <trkpt lat="47.64394" lon="2.1594286">
        <ele>174.0</ele>
        <time>2022-02-17T10:26:07Z</time>
      </trkpt>
      <trkpt lat="47.643932" lon="2.159436">
        <ele>173.0</ele>
        <time>2022-02-17T10:26:08Z</time>
      </trkpt>
      <trkpt lat="47.64392" lon="2.1594448">
        <ele>174.0</ele>
        <time>2022-02-17T10:26:09Z</time>
      </trkpt>
      <trkpt lat="47.64391" lon="2.1594527">
        <ele>173.0</ele>
        <time>2022-02-17T10:26:10Z</time>
      </trkpt>
      <trkpt lat="47.643898" lon="2.1594598">
        <ele>173.0</ele>
        <time>2022-02-17T10:26:11Z</time>
      </trkpt>
      <trkpt lat="47.64389" lon="2.159467">
        <ele>173.0</ele>
        <time>2022-02-17T10:26:12Z</time>
      </trkpt>
      <trkpt lat="47.64388" lon="2.1594787">
        <ele>173.0</ele>
        <time>2022-02-17T10:26:13Z</time>
      </trkpt>
      <trkpt lat="47.643864" lon="2.1594875">
        <ele>172.0</ele>
        <time>2022-02-17T10:26:14Z</time>
      </trkpt>
      <trkpt lat="47.64385" lon="2.1594963">
        <ele>172.0</ele>
        <time>2022-02-17T10:26:15Z</time>
      </trkpt>
      <trkpt lat="47.643837" lon="2.1595047">
        <ele>172.0</ele>
        <time>2022-02-17T10:26:16Z</time>
      </trkpt>
      <trkpt lat="47.64382" lon="2.1595144">
        <ele>171.0</ele>
        <time>2022-02-17T10:26:17Z</time>
      </trkpt>
      <trkpt lat="47.643806" lon="2.1595256">
        <ele>171.0</ele>
        <time>2022-02-17T10:26:18Z</time>
      </trkpt>
      <trkpt lat="47.643795" lon="2.1595345">
        <ele>171.0</ele>
        <time>2022-02-17T10:26:19Z</time>
      </trkpt>
      <trkpt lat="47.643784" lon="2.1595416">
        <ele>171.0</ele>
        <time>2022-02-17T10:26:20Z</time>
      </trkpt>
      <trkpt lat="47.643772" lon="2.1595511">
        <ele>171.0</ele>
        <time>2022-02-17T10:26:21Z</time>
      </trkpt>
      <trkpt lat="47.64376" lon="2.1595628">
        <ele>171.0</ele>
        <time>2022-02-17T10:26:22Z</time>
      </trkpt>
      <trkpt lat="47.643753" lon="2.1595733">
        <ele>171.0</ele>
        <time>2022-02-17T10:26:23Z</time>
      </trkpt>
      <trkpt lat="47.64374" lon="2.1595848">
        <ele>171.0</ele>
        <time>2022-02-17T10:26:24Z</time>
      </trkpt>
      <trkpt lat="47.643726" lon="2.1595979">
        <ele>170.0</ele>
        <time>2022-02-17T10:26:25Z</time>
      </trkpt>
      <trkpt lat="47.64371" lon="2.1596086">
        <ele>170.0</ele>
        <time>2022-02-17T10:26:26Z</time>
      </trkpt>
      <trkpt lat="47.6437" lon="2.1596177">
        <ele>170.0</ele>
        <time>2022-02-17T10:26:27Z</time>
      </trkpt>
      <trkpt lat="47.64369" lon="2.1596253">
        <ele>170.0</ele>
        <time>2022-02-17T10:26:28Z</time>
      </trkpt>
      <trkpt lat="47.643677" lon="2.1596334">
        <ele>170.0</ele>
        <time>2022-02-17T10:26:29Z</time>
      </trkpt>
      <trkpt lat="47.643665" lon="2.1596415">
        <ele>170.0</ele>
        <time>2022-02-17T10:26:30Z</time>
      </trkpt>
      <trkpt lat="47.643654" lon="2.1596525">
        <ele>170.0</ele>
        <time>2022-02-17T10:26:31Z</time>
      </trkpt>
      <trkpt lat="47.643642" lon="2.1596622">
        <ele>170.0</ele>
        <time>2022-02-17T10:26:32Z</time>
      </trkpt>
      <trkpt lat="47.643635" lon="2.159676">
        <ele>170.0</ele>
        <time>2022-02-17T10:26:33Z</time>
      </trkpt>
      <trkpt lat="47.643623" lon="2.159691">
        <ele>170.0</ele>
        <time>2022-02-17T10:26:34Z</time>
      </trkpt>
      <trkpt lat="47.643612" lon="2.159701">
        <ele>171.0</ele>
        <time>2022-02-17T10:26:35Z</time>
      </trkpt>
      <trkpt lat="47.643597" lon="2.1597116">
        <ele>171.0</ele>
        <time>2022-02-17T10:26:36Z</time>
      </trkpt>
      <trkpt lat="47.643585" lon="2.1597214">
        <ele>172.0</ele>
        <time>2022-02-17T10:26:37Z</time>
      </trkpt>
      <trkpt lat="47.64357" lon="2.1597285">
        <ele>173.0</ele>
        <time>2022-02-17T10:26:38Z</time>
      </trkpt>
      <trkpt lat="47.64356" lon="2.1597378">
        <ele>173.0</ele>
        <time>2022-02-17T10:26:39Z</time>
      </trkpt>
      <trkpt lat="47.643547" lon="2.159749">
        <ele>173.0</ele>
        <time>2022-02-17T10:26:40Z</time>
      </trkpt>
      <trkpt lat="47.643536" lon="2.1597605">
        <ele>173.0</ele>
        <time>2022-02-17T10:26:41Z</time>
      </trkpt>
      <trkpt lat="47.643528" lon="2.1597738">
        <ele>174.0</ele>
        <time>2022-02-17T10:26:42Z</time>
      </trkpt>
      <trkpt lat="47.643513" lon="2.1597896">
        <ele>173.0</ele>
        <time>2022-02-17T10:26:43Z</time>
      </trkpt>
      <trkpt lat="47.643505" lon="2.1598077">
        <ele>173.0</ele>
        <time>2022-02-17T10:26:44Z</time>
      </trkpt>
      <trkpt lat="47.643497" lon="2.15982">
        <ele>173.0</ele>
        <time>2022-02-17T10:26:45Z</time>
      </trkpt>
      <trkpt lat="47.643486" lon="2.1598315">
        <ele>173.0</ele>
        <time>2022-02-17T10:26:46Z</time>
      </trkpt>
      <trkpt lat="47.64347" lon="2.159842">
        <ele>174.0</ele>
        <time>2022-02-17T10:26:47Z</time>
      </trkpt>
      <trkpt lat="47.64346" lon="2.1598542">
        <ele>174.0</ele>
        <time>2022-02-17T10:26:48Z</time>
      </trkpt>
      <trkpt lat="47.64345" lon="2.1598663">
        <ele>174.0</ele>
        <time>2022-02-17T10:26:49Z</time>
      </trkpt>
      <trkpt lat="47.64344" lon="2.1598792">
        <ele>174.0</ele>
        <time>2022-02-17T10:26:50Z</time>
      </trkpt>
      <trkpt lat="47.64343" lon="2.1598933">
        <ele>174.0</ele>
        <time>2022-02-17T10:26:51Z</time>
      </trkpt>
      <trkpt lat="47.643417" lon="2.1599092">
        <ele>174.0</ele>
        <time>2022-02-17T10:26:52Z</time>
      </trkpt>
      <trkpt lat="47.643406" lon="2.1599276">
        <ele>174.0</ele>
        <time>2022-02-17T10:26:53Z</time>
      </trkpt>
      <trkpt lat="47.6434" lon="2.1599433">
        <ele>175.0</ele>
        <time>2022-02-17T10:26:54Z</time>
      </trkpt>
      <trkpt lat="47.64339" lon="2.159955">
        <ele>174.0</ele>
        <time>2022-02-17T10:26:55Z</time>
      </trkpt>
      <trkpt lat="47.64338" lon="2.159965">
        <ele>174.0</ele>
        <time>2022-02-17T10:26:56Z</time>
      </trkpt>
      <trkpt lat="47.643368" lon="2.1599774">
        <ele>174.0</ele>
        <time>2022-02-17T10:26:57Z</time>
      </trkpt>
      <trkpt lat="47.643356" lon="2.1599874">
        <ele>174.0</ele>
        <time>2022-02-17T10:26:58Z</time>
      </trkpt>
      <trkpt lat="47.64335" lon="2.1599967">
        <ele>174.0</ele>
        <time>2022-02-17T10:26:59Z</time>
      </trkpt>
      <trkpt lat="47.64334" lon="2.1600044">
        <ele>175.0</ele>
        <time>2022-02-17T10:27:00Z</time>
      </trkpt>
      <trkpt lat="47.64333" lon="2.160015">
        <ele>175.0</ele>
        <time>2022-02-17T10:27:01Z</time>
      </trkpt>
      <trkpt lat="47.643322" lon="2.1600246">
        <ele>175.0</ele>
        <time>2022-02-17T10:27:02Z</time>
      </trkpt>
      <trkpt lat="47.643314" lon="2.1600316">
        <ele>175.0</ele>
        <time>2022-02-17T10:27:03Z</time>
      </trkpt>
      <trkpt lat="47.643303" lon="2.160041">
        <ele>176.0</ele>
        <time>2022-02-17T10:27:04Z</time>
      </trkpt>
      <trkpt lat="47.643303" lon="2.160041">
        <ele>176.0</ele>
        <time>2022-02-17T10:27:04Z</time>
      </trkpt>
      <trkpt lat="47.64328" lon="2.1600673">
        <ele>178.0</ele>
        <time>2022-02-17T10:27:06Z</time>
      </trkpt>
      <trkpt lat="47.643276" lon="2.1600835">
        <ele>178.0</ele>
        <time>2022-02-17T10:27:07Z</time>
      </trkpt>
      <trkpt lat="47.643265" lon="2.1601038">
        <ele>178.0</ele>
        <time>2022-02-17T10:27:08Z</time>
      </trkpt>
      <trkpt lat="47.643253" lon="2.1601183">
        <ele>179.0</ele>
        <time>2022-02-17T10:27:09Z</time>
      </trkpt>
      <trkpt lat="47.643253" lon="2.1601183">
        <ele>179.0</ele>
        <time>2022-02-17T10:27:09Z</time>
      </trkpt>
      <trkpt lat="47.643246" lon="2.1601276">
        <ele>179.0</ele>
        <time>2022-02-17T10:27:11Z</time>
      </trkpt>
      <trkpt lat="47.643238" lon="2.160139">
        <ele>179.0</ele>
        <time>2022-02-17T10:27:12Z</time>
      </trkpt>
      <trkpt lat="47.643215" lon="2.1601565">
        <ele>178.0</ele>
        <time>2022-02-17T10:27:13Z</time>
      </trkpt>
      <trkpt lat="47.643215" lon="2.1601565">
        <ele>178.0</ele>
        <time>2022-02-17T10:27:13Z</time>
      </trkpt>
      <trkpt lat="47.643204" lon="2.1601667">
        <ele>178.0</ele>
        <time>2022-02-17T10:27:15Z</time>
      </trkpt>
      <trkpt lat="47.643192" lon="2.160178">
        <ele>178.0</ele>
        <time>2022-02-17T10:27:16Z</time>
      </trkpt>
      <trkpt lat="47.643185" lon="2.1601899">
        <ele>177.0</ele>
        <time>2022-02-17T10:27:17Z</time>
      </trkpt>
      <trkpt lat="47.64318" lon="2.1601918">
        <ele>177.0</ele>
        <time>2022-02-17T10:27:18Z</time>
      </trkpt>
      <trkpt lat="47.643173" lon="2.160201">
        <ele>178.0</ele>
        <time>2022-02-17T10:27:19Z</time>
      </trkpt>
      <trkpt lat="47.64316" lon="2.1602106">
        <ele>178.0</ele>
        <time>2022-02-17T10:27:20Z</time>
      </trkpt>
      <trkpt lat="47.64315" lon="2.1602263">
        <ele>178.0</ele>
        <time>2022-02-17T10:27:21Z</time>
      </trkpt>
      <trkpt lat="47.64314" lon="2.160244">
        <ele>178.0</ele>
        <time>2022-02-17T10:27:22Z</time>
      </trkpt>
      <trkpt lat="47.643124" lon="2.160257">
        <ele>178.0</ele>
        <time>2022-02-17T10:27:23Z</time>
      </trkpt>
      <trkpt lat="47.643112" lon="2.1602707">
        <ele>180.0</ele>
        <time>2022-02-17T10:27:24Z</time>
      </trkpt>
      <trkpt lat="47.643112" lon="2.1602707">
        <ele>180.0</ele>
        <time>2022-02-17T10:27:24Z</time>
      </trkpt>
      <trkpt lat="47.64311" lon="2.1602747">
        <ele>181.0</ele>
        <time>2022-02-17T10:27:26Z</time>
      </trkpt>
      <trkpt lat="47.64311" lon="2.1602879">
        <ele>181.0</ele>
        <time>2022-02-17T10:27:27Z</time>
      </trkpt>
      <trkpt lat="47.64311" lon="2.1602879">
        <ele>181.0</ele>
        <time>2022-02-17T10:27:27Z</time>
      </trkpt>
      <trkpt lat="47.643105" lon="2.1602907">
        <ele>181.0</ele>
        <time>2022-02-17T10:27:29Z</time>
      </trkpt>
      <trkpt lat="47.643085" lon="2.1603158">
        <ele>180.0</ele>
        <time>2022-02-17T10:27:30Z</time>
      </trkpt>
      <trkpt lat="47.643074" lon="2.1603253">
        <ele>181.0</ele>
        <time>2022-02-17T10:27:31Z</time>
      </trkpt>
      <trkpt lat="47.643074" lon="2.1603253">
        <ele>181.0</ele>
        <time>2022-02-17T10:27:31Z</time>
      </trkpt>
      <trkpt lat="47.643055" lon="2.1603467">
        <ele>180.0</ele>
        <time>2022-02-17T10:27:33Z</time>
      </trkpt>
      <trkpt lat="47.643047" lon="2.160362">
        <ele>180.0</ele>
        <time>2022-02-17T10:27:34Z</time>
      </trkpt>
      <trkpt lat="47.643036" lon="2.1603785">
        <ele>180.0</ele>
        <time>2022-02-17T10:27:35Z</time>
      </trkpt>
      <trkpt lat="47.64303" lon="2.1603968">
        <ele>179.0</ele>
        <time>2022-02-17T10:27:36Z</time>
      </trkpt>
      <trkpt lat="47.643017" lon="2.1604028">
        <ele>180.0</ele>
        <time>2022-02-17T10:27:37Z</time>
      </trkpt>
      <trkpt lat="47.64301" lon="2.1604185">
        <ele>180.0</ele>
        <time>2022-02-17T10:27:38Z</time>
      </trkpt>
      <trkpt lat="47.643" lon="2.1604345">
        <ele>180.0</ele>
        <time>2022-02-17T10:27:39Z</time>
      </trkpt>
      <trkpt lat="47.64299" lon="2.1604524">
        <ele>181.0</ele>
        <time>2022-02-17T10:27:40Z</time>
      </trkpt>
      <trkpt lat="47.642986" lon="2.1604733">
        <ele>181.0</ele>
        <time>2022-02-17T10:27:41Z</time>
      </trkpt>
      <trkpt lat="47.642982" lon="2.1604943">
        <ele>181.0</ele>
        <time>2022-02-17T10:27:42Z</time>
      </trkpt>
      <trkpt lat="47.64298" lon="2.1605105">
        <ele>181.0</ele>
        <time>2022-02-17T10:27:43Z</time>
      </trkpt>
      <trkpt lat="47.642975" lon="2.1605275">
        <ele>181.0</ele>
        <time>2022-02-17T10:27:44Z</time>
      </trkpt>
      <trkpt lat="47.642982" lon="2.1605484">
        <ele>181.0</ele>
        <time>2022-02-17T10:27:45Z</time>
      </trkpt>
      <trkpt lat="47.642982" lon="2.1605484">
        <ele>181.0</ele>
        <time>2022-02-17T10:27:45Z</time>
      </trkpt>
      <trkpt lat="47.642986" lon="2.160565">
        <ele>181.0</ele>
        <time>2022-02-17T10:27:47Z</time>
      </trkpt>
      <trkpt lat="47.64299" lon="2.1605883">
        <ele>181.0</ele>
        <time>2022-02-17T10:27:48Z</time>
      </trkpt>
      <trkpt lat="47.642998" lon="2.1606007">
        <ele>181.0</ele>
        <time>2022-02-17T10:27:49Z</time>
      </trkpt>
      <trkpt lat="47.643005" lon="2.1606147">
        <ele>181.0</ele>
        <time>2022-02-17T10:27:50Z</time>
      </trkpt>
      <trkpt lat="47.64301" lon="2.1606295">
        <ele>181.0</ele>
        <time>2022-02-17T10:27:51Z</time>
      </trkpt>
      <trkpt lat="47.643017" lon="2.1606457">
        <ele>180.0</ele>
        <time>2022-02-17T10:27:52Z</time>
      </trkpt>
      <trkpt lat="47.643024" lon="2.1606643">
        <ele>180.0</ele>
        <time>2022-02-17T10:27:53Z</time>
      </trkpt>
      <trkpt lat="47.643032" lon="2.160675">
        <ele>180.0</ele>
        <time>2022-02-17T10:27:54Z</time>
      </trkpt>
      <trkpt lat="47.64304" lon="2.1606872">
        <ele>180.0</ele>
        <time>2022-02-17T10:27:55Z</time>
      </trkpt>
      <trkpt lat="47.643047" lon="2.160703">
        <ele>180.0</ele>
        <time>2022-02-17T10:27:56Z</time>
      </trkpt>
      <trkpt lat="47.64305" lon="2.1607149">
        <ele>180.0</ele>
        <time>2022-02-17T10:27:57Z</time>
      </trkpt>
      <trkpt lat="47.64306" lon="2.1607287">
        <ele>180.0</ele>
        <time>2022-02-17T10:27:58Z</time>
      </trkpt>
      <trkpt lat="47.643063" lon="2.160739">
        <ele>180.0</ele>
        <time>2022-02-17T10:27:59Z</time>
      </trkpt>
      <trkpt lat="47.643066" lon="2.1607509">
        <ele>180.0</ele>
        <time>2022-02-17T10:28:00Z</time>
      </trkpt>
      <trkpt lat="47.643074" lon="2.160764">
        <ele>179.0</ele>
        <time>2022-02-17T10:28:01Z</time>
      </trkpt>
      <trkpt lat="47.643078" lon="2.1607754">
        <ele>179.0</ele>
        <time>2022-02-17T10:28:02Z</time>
      </trkpt>
      <trkpt lat="47.64308" lon="2.1607864">
        <ele>179.0</ele>
        <time>2022-02-17T10:28:03Z</time>
      </trkpt>
      <trkpt lat="47.64309" lon="2.160793">
        <ele>179.0</ele>
        <time>2022-02-17T10:28:04Z</time>
      </trkpt>
      <trkpt lat="47.643097" lon="2.1607985">
        <ele>178.0</ele>
        <time>2022-02-17T10:28:05Z</time>
      </trkpt>
      <trkpt lat="47.6431" lon="2.1608083">
        <ele>178.0</ele>
        <time>2022-02-17T10:28:06Z</time>
      </trkpt>
      <trkpt lat="47.64311" lon="2.1608222">
        <ele>179.0</ele>
        <time>2022-02-17T10:28:07Z</time>
      </trkpt>
      <trkpt lat="47.64311" lon="2.1608315">
        <ele>179.0</ele>
        <time>2022-02-17T10:28:08Z</time>
      </trkpt>
      <trkpt lat="47.643116" lon="2.1608393">
        <ele>178.0</ele>
        <time>2022-02-17T10:28:09Z</time>
      </trkpt>
      <trkpt lat="47.64312" lon="2.160854">
        <ele>178.0</ele>
        <time>2022-02-17T10:28:10Z</time>
      </trkpt>
      <trkpt lat="47.643127" lon="2.1608667">
        <ele>177.0</ele>
        <time>2022-02-17T10:28:11Z</time>
      </trkpt>
      <trkpt lat="47.643124" lon="2.1608794">
        <ele>177.0</ele>
        <time>2022-02-17T10:28:12Z</time>
      </trkpt>
      <trkpt lat="47.643127" lon="2.1608922">
        <ele>177.0</ele>
        <time>2022-02-17T10:28:13Z</time>
      </trkpt>
      <trkpt lat="47.64313" lon="2.1609137">
        <ele>177.0</ele>
        <time>2022-02-17T10:28:14Z</time>
      </trkpt>
      <trkpt lat="47.643147" lon="2.1609435">
        <ele>177.0</ele>
        <time>2022-02-17T10:28:15Z</time>
      </trkpt>
      <trkpt lat="47.643158" lon="2.160966">
        <ele>177.0</ele>
        <time>2022-02-17T10:28:16Z</time>
      </trkpt>
      <trkpt lat="47.64317" lon="2.1609857">
        <ele>177.0</ele>
        <time>2022-02-17T10:28:17Z</time>
      </trkpt>
      <trkpt lat="47.643177" lon="2.1610014">
        <ele>178.0</ele>
        <time>2022-02-17T10:28:18Z</time>
      </trkpt>
      <trkpt lat="47.643185" lon="2.1610172">
        <ele>178.0</ele>
        <time>2022-02-17T10:28:19Z</time>
      </trkpt>
      <trkpt lat="47.643192" lon="2.1610296">
        <ele>177.0</ele>
        <time>2022-02-17T10:28:20Z</time>
      </trkpt>
      <trkpt lat="47.6432" lon="2.161043">
        <ele>178.0</ele>
        <time>2022-02-17T10:28:21Z</time>
      </trkpt>
      <trkpt lat="47.643208" lon="2.161054">
        <ele>178.0</ele>
        <time>2022-02-17T10:28:22Z</time>
      </trkpt>
      <trkpt lat="47.64321" lon="2.161075">
        <ele>178.0</ele>
        <time>2022-02-17T10:28:23Z</time>
      </trkpt>
      <trkpt lat="47.643215" lon="2.1610925">
        <ele>178.0</ele>
        <time>2022-02-17T10:28:24Z</time>
      </trkpt>
      <trkpt lat="47.643223" lon="2.1611068">
        <ele>179.0</ele>
        <time>2022-02-17T10:28:25Z</time>
      </trkpt>
      <trkpt lat="47.643227" lon="2.1611254">
        <ele>179.0</ele>
        <time>2022-02-17T10:28:26Z</time>
      </trkpt>
      <trkpt lat="47.64323" lon="2.1611414">
        <ele>179.0</ele>
        <time>2022-02-17T10:28:27Z</time>
      </trkpt>
      <trkpt lat="47.643234" lon="2.161157">
        <ele>179.0</ele>
        <time>2022-02-17T10:28:28Z</time>
      </trkpt>
      <trkpt lat="47.643246" lon="2.1611698">
        <ele>180.0</ele>
        <time>2022-02-17T10:28:29Z</time>
      </trkpt>
      <trkpt lat="47.64325" lon="2.1611805">
        <ele>179.0</ele>
        <time>2022-02-17T10:28:30Z</time>
      </trkpt>
      <trkpt lat="47.64326" lon="2.1611936">
        <ele>179.0</ele>
        <time>2022-02-17T10:28:31Z</time>
      </trkpt>
      <trkpt lat="47.643265" lon="2.161212">
        <ele>179.0</ele>
        <time>2022-02-17T10:28:32Z</time>
      </trkpt>
      <trkpt lat="47.64327" lon="2.1612256">
        <ele>178.0</ele>
        <time>2022-02-17T10:28:33Z</time>
      </trkpt>
      <trkpt lat="47.643276" lon="2.161241">
        <ele>178.0</ele>
        <time>2022-02-17T10:28:34Z</time>
      </trkpt>
      <trkpt lat="47.643284" lon="2.1612554">
        <ele>177.0</ele>
        <time>2022-02-17T10:28:35Z</time>
      </trkpt>
      <trkpt lat="47.643288" lon="2.1612713">
        <ele>178.0</ele>
        <time>2022-02-17T10:28:36Z</time>
      </trkpt>
      <trkpt lat="47.64329" lon="2.1612892">
        <ele>178.0</ele>
        <time>2022-02-17T10:28:37Z</time>
      </trkpt>
      <trkpt lat="47.643295" lon="2.1613047">
        <ele>178.0</ele>
        <time>2022-02-17T10:28:38Z</time>
      </trkpt>
      <trkpt lat="47.643307" lon="2.161322">
        <ele>178.0</ele>
        <time>2022-02-17T10:28:39Z</time>
      </trkpt>
      <trkpt lat="47.64331" lon="2.1613393">
        <ele>178.0</ele>
        <time>2022-02-17T10:28:40Z</time>
      </trkpt>
      <trkpt lat="47.643314" lon="2.1613543">
        <ele>178.0</ele>
        <time>2022-02-17T10:28:41Z</time>
      </trkpt>
      <trkpt lat="47.64332" lon="2.1613686">
        <ele>178.0</ele>
        <time>2022-02-17T10:28:42Z</time>
      </trkpt>
      <trkpt lat="47.64333" lon="2.161385">
        <ele>178.0</ele>
        <time>2022-02-17T10:28:43Z</time>
      </trkpt>
      <trkpt lat="47.643333" lon="2.1613996">
        <ele>177.0</ele>
        <time>2022-02-17T10:28:44Z</time>
      </trkpt>
      <trkpt lat="47.643337" lon="2.1614172">
        <ele>178.0</ele>
        <time>2022-02-17T10:28:45Z</time>
      </trkpt>
      <trkpt lat="47.643345" lon="2.1614292">
        <ele>178.0</ele>
        <time>2022-02-17T10:28:46Z</time>
      </trkpt>
      <trkpt lat="47.64335" lon="2.1614482">
        <ele>178.0</ele>
        <time>2022-02-17T10:28:47Z</time>
      </trkpt>
      <trkpt lat="47.643353" lon="2.1614623">
        <ele>178.0</ele>
        <time>2022-02-17T10:28:48Z</time>
      </trkpt>
      <trkpt lat="47.64336" lon="2.1614738">
        <ele>178.0</ele>
        <time>2022-02-17T10:28:49Z</time>
      </trkpt>
      <trkpt lat="47.643364" lon="2.161491">
        <ele>178.0</ele>
        <time>2022-02-17T10:28:50Z</time>
      </trkpt>
      <trkpt lat="47.643368" lon="2.1615078">
        <ele>179.0</ele>
        <time>2022-02-17T10:28:51Z</time>
      </trkpt>
      <trkpt lat="47.64337" lon="2.161526">
        <ele>179.0</ele>
        <time>2022-02-17T10:28:52Z</time>
      </trkpt>
      <trkpt lat="47.64338" lon="2.1615415">
        <ele>179.0</ele>
        <time>2022-02-17T10:28:53Z</time>
      </trkpt>
      <trkpt lat="47.64338" lon="2.1615613">
        <ele>180.0</ele>
        <time>2022-02-17T10:28:54Z</time>
      </trkpt>
      <trkpt lat="47.643383" lon="2.1615753">
        <ele>180.0</ele>
        <time>2022-02-17T10:28:55Z</time>
      </trkpt>
      <trkpt lat="47.643387" lon="2.1615906">
        <ele>180.0</ele>
        <time>2022-02-17T10:28:56Z</time>
      </trkpt>
      <trkpt lat="47.64339" lon="2.1616075">
        <ele>181.0</ele>
        <time>2022-02-17T10:28:57Z</time>
      </trkpt>
      <trkpt lat="47.643394" lon="2.1616263">
        <ele>180.0</ele>
        <time>2022-02-17T10:28:58Z</time>
      </trkpt>
      <trkpt lat="47.6434" lon="2.1616433">
        <ele>180.0</ele>
        <time>2022-02-17T10:28:59Z</time>
      </trkpt>
      <trkpt lat="47.643402" lon="2.1616602">
        <ele>180.0</ele>
        <time>2022-02-17T10:29:00Z</time>
      </trkpt>
      <trkpt lat="47.643406" lon="2.1616752">
        <ele>180.0</ele>
        <time>2022-02-17T10:29:01Z</time>
      </trkpt>
      <trkpt lat="47.64341" lon="2.1616876">
        <ele>180.0</ele>
        <time>2022-02-17T10:29:02Z</time>
      </trkpt>
      <trkpt lat="47.643417" lon="2.1616957">
        <ele>181.0</ele>
        <time>2022-02-17T10:29:03Z</time>
      </trkpt>
      <trkpt lat="47.643417" lon="2.1617107">
        <ele>180.0</ele>
        <time>2022-02-17T10:29:04Z</time>
      </trkpt>
      <trkpt lat="47.643417" lon="2.1617236">
        <ele>181.0</ele>
        <time>2022-02-17T10:29:05Z</time>
      </trkpt>
      <trkpt lat="47.643417" lon="2.1617367">
        <ele>181.0</ele>
        <time>2022-02-17T10:29:06Z</time>
      </trkpt>
      <trkpt lat="47.643417" lon="2.1617534">
        <ele>181.0</ele>
        <time>2022-02-17T10:29:07Z</time>
      </trkpt>
      <trkpt lat="47.643425" lon="2.161771">
        <ele>181.0</ele>
        <time>2022-02-17T10:29:08Z</time>
      </trkpt>
      <trkpt lat="47.64343" lon="2.1617901">
        <ele>181.0</ele>
        <time>2022-02-17T10:29:09Z</time>
      </trkpt>
      <trkpt lat="47.643433" lon="2.1618097">
        <ele>181.0</ele>
        <time>2022-02-17T10:29:10Z</time>
      </trkpt>
      <trkpt lat="47.64344" lon="2.1618261">
        <ele>181.0</ele>
        <time>2022-02-17T10:29:11Z</time>
      </trkpt>
      <trkpt lat="47.643444" lon="2.1618435">
        <ele>181.0</ele>
        <time>2022-02-17T10:29:12Z</time>
      </trkpt>
      <trkpt lat="47.64345" lon="2.1618605">
        <ele>181.0</ele>
        <time>2022-02-17T10:29:13Z</time>
      </trkpt>
      <trkpt lat="47.64345" lon="2.16188">
        <ele>181.0</ele>
        <time>2022-02-17T10:29:14Z</time>
      </trkpt>
      <trkpt lat="47.643456" lon="2.1618962">
        <ele>181.0</ele>
        <time>2022-02-17T10:29:15Z</time>
      </trkpt>
      <trkpt lat="47.643463" lon="2.161917">
        <ele>182.0</ele>
        <time>2022-02-17T10:29:16Z</time>
      </trkpt>
      <trkpt lat="47.643467" lon="2.1619327">
        <ele>182.0</ele>
        <time>2022-02-17T10:29:17Z</time>
      </trkpt>
      <trkpt lat="47.64347" lon="2.161948">
        <ele>182.0</ele>
        <time>2022-02-17T10:29:18Z</time>
      </trkpt>
      <trkpt lat="47.643475" lon="2.1619675">
        <ele>182.0</ele>
        <time>2022-02-17T10:29:19Z</time>
      </trkpt>
      <trkpt lat="47.643482" lon="2.1619885">
        <ele>182.0</ele>
        <time>2022-02-17T10:29:20Z</time>
      </trkpt>
      <trkpt lat="47.64349" lon="2.1620073">
        <ele>182.0</ele>
        <time>2022-02-17T10:29:21Z</time>
      </trkpt>
      <trkpt lat="47.643497" lon="2.1620224">
        <ele>182.0</ele>
        <time>2022-02-17T10:29:22Z</time>
      </trkpt>
      <trkpt lat="47.6435" lon="2.1620352">
        <ele>182.0</ele>
        <time>2022-02-17T10:29:23Z</time>
      </trkpt>
      <trkpt lat="47.643505" lon="2.1620495">
        <ele>182.0</ele>
        <time>2022-02-17T10:29:24Z</time>
      </trkpt>
      <trkpt lat="47.643513" lon="2.162059">
        <ele>182.0</ele>
        <time>2022-02-17T10:29:25Z</time>
      </trkpt>
      <trkpt lat="47.64352" lon="2.1620665">
        <ele>182.0</ele>
        <time>2022-02-17T10:29:26Z</time>
      </trkpt>
      <trkpt lat="47.64352" lon="2.1620743">
        <ele>181.0</ele>
        <time>2022-02-17T10:29:27Z</time>
      </trkpt>
      <trkpt lat="47.64352" lon="2.1620846">
        <ele>181.0</ele>
        <time>2022-02-17T10:29:28Z</time>
      </trkpt>
      <trkpt lat="47.64352" lon="2.1620898">
        <ele>181.0</ele>
        <time>2022-02-17T10:29:29Z</time>
      </trkpt>
      <trkpt lat="47.64352" lon="2.1620932">
        <ele>181.0</ele>
        <time>2022-02-17T10:29:30Z</time>
      </trkpt>
      <trkpt lat="47.643524" lon="2.1620972">
        <ele>181.0</ele>
        <time>2022-02-17T10:29:31Z</time>
      </trkpt>
      <trkpt lat="47.643517" lon="2.1620908">
        <ele>181.0</ele>
        <time>2022-02-17T10:29:32Z</time>
      </trkpt>
      <trkpt lat="47.643513" lon="2.1620922">
        <ele>181.0</ele>
        <time>2022-02-17T10:29:33Z</time>
      </trkpt>
      <trkpt lat="47.643513" lon="2.1621">
        <ele>180.0</ele>
        <time>2022-02-17T10:29:34Z</time>
      </trkpt>
      <trkpt lat="47.643513" lon="2.1621">
        <ele>180.0</ele>
        <time>2022-02-17T10:29:35Z</time>
      </trkpt>
      <trkpt lat="47.643513" lon="2.1621">
        <ele>180.0</ele>
        <time>2022-02-17T10:29:36Z</time>
      </trkpt>
      <trkpt lat="47.643513" lon="2.1621">
        <ele>180.0</ele>
        <time>2022-02-17T10:29:37Z</time>
      </trkpt>
      <trkpt lat="47.64352" lon="2.1620991">
        <ele>181.0</ele>
        <time>2022-02-17T10:29:38Z</time>
      </trkpt>
      <trkpt lat="47.64352" lon="2.1620991">
        <ele>181.0</ele>
        <time>2022-02-17T10:29:38Z</time>
      </trkpt>
      <trkpt lat="47.64352" lon="2.1620991">
        <ele>181.0</ele>
        <time>2022-02-17T10:29:38Z</time>
      </trkpt>
    </trkseg>
  </trk>
  <exerciseinfo>
    <exercisetype>1001</exercisetype>
    <distance>10349.11</distance>
    <elevationgain>0.0</elevationgain>
    <avggradient>-0.07638205901170597</avggradient>
    <duration>8158466</duration>
    <avgspeed>1.2690517</avgspeed>
  </exerciseinfo>
</gpx>